<?xml version="1.0" encoding="UTF-8" standalone="no" ?>
<gpx xmlns="http://www.topografix.com/GPX/1/1" xmlns:xsi="http://www.w3.org/2001/XMLSchema-instance" xsi:schemaLocation="http://www.topografix.com/GPX/1/1 http://www.topografix.com/GPX/1/1/gpx.xsd" version="1.1" creator="VisuGPX - https://www.visugpx.com">
  <metadata>
    <name>Villeneuve-Loubet Roquefort Tourette</name>
    <desc><![CDATA[Le départ un peu compliqué car un grillage à été posé, heureusement un passage à été fait dedans.
L'originalité de ce tour c'est la bascule par le vallon rouge vers Tourette sur Loup, joli tour puis ensuite on récupère Villeneuve pour finir par 2 spéciales...
Bref bcp de chemins comme on les aime...large avec une batterie.]]></desc>
  </metadata>
  <trk>
    <name><![CDATA[Villeneuve-Loubet Cyclisme]]></name>
    <extensions>
      <line xmlns="http://www.topografix.com/GPX/gpx_style/0/2">
        <color>0000FF</color>
        <width>4</width>
      </line>
    </extensions>
    <trkseg>
      <trkpt lat="43.65587" lon="7.12284">
        <ele>19.200000762939</ele>
        <time>2022-03-12T08:48:39.000Z</time>
      </trkpt>
      <trkpt lat="43.65583" lon="7.12275">
        <ele>19.200000762939</ele>
        <time>2022-03-12T08:48:43.000Z</time>
      </trkpt>
      <trkpt lat="43.65573" lon="7.12264">
        <ele>20.200000762939</ele>
        <time>2022-03-12T08:48:49.000Z</time>
      </trkpt>
      <trkpt lat="43.65571" lon="7.12265">
        <ele>20.60000038147</ele>
        <time>2022-03-12T08:48:50.000Z</time>
      </trkpt>
      <trkpt lat="43.65568" lon="7.12269">
        <ele>21.60000038147</ele>
        <time>2022-03-12T08:48:53.000Z</time>
      </trkpt>
      <trkpt lat="43.65566" lon="7.12274">
        <ele>22</ele>
        <time>2022-03-12T08:48:55.000Z</time>
      </trkpt>
      <trkpt lat="43.65567" lon="7.1228">
        <ele>22.799999237061</ele>
        <time>2022-03-12T08:48:57.000Z</time>
      </trkpt>
      <trkpt lat="43.65568" lon="7.12282">
        <ele>23.39999961853</ele>
        <time>2022-03-12T08:48:58.000Z</time>
      </trkpt>
      <trkpt lat="43.65569" lon="7.12285">
        <ele>23.799999237061</ele>
        <time>2022-03-12T08:48:59.000Z</time>
      </trkpt>
      <trkpt lat="43.65571" lon="7.1229">
        <ele>25</ele>
        <time>2022-03-12T08:49:01.000Z</time>
      </trkpt>
      <trkpt lat="43.65573" lon="7.12297">
        <ele>26.200000762939</ele>
        <time>2022-03-12T08:49:04.000Z</time>
      </trkpt>
      <trkpt lat="43.65573" lon="7.123">
        <ele>26.60000038147</ele>
        <time>2022-03-12T08:49:05.000Z</time>
      </trkpt>
      <trkpt lat="43.65573" lon="7.12305">
        <ele>27.39999961853</ele>
        <time>2022-03-12T08:49:07.000Z</time>
      </trkpt>
      <trkpt lat="43.65572" lon="7.12312">
        <ele>28.200000762939</ele>
        <time>2022-03-12T08:49:10.000Z</time>
      </trkpt>
      <trkpt lat="43.65572" lon="7.12314">
        <ele>28.799999237061</ele>
        <time>2022-03-12T08:49:11.000Z</time>
      </trkpt>
      <trkpt lat="43.6557" lon="7.12327">
        <ele>30.200000762939</ele>
        <time>2022-03-12T08:49:15.000Z</time>
      </trkpt>
      <trkpt lat="43.65569" lon="7.1233">
        <ele>30.39999961853</ele>
        <time>2022-03-12T08:49:16.000Z</time>
      </trkpt>
      <trkpt lat="43.65566" lon="7.12336">
        <ele>31.60000038147</ele>
        <time>2022-03-12T08:49:18.000Z</time>
      </trkpt>
      <trkpt lat="43.65563" lon="7.12341">
        <ele>33.400001525879</ele>
        <time>2022-03-12T08:49:20.000Z</time>
      </trkpt>
      <trkpt lat="43.6556" lon="7.12343">
        <ele>34.599998474121</ele>
        <time>2022-03-12T08:49:21.000Z</time>
      </trkpt>
      <trkpt lat="43.65558" lon="7.12344">
        <ele>35.400001525879</ele>
        <time>2022-03-12T08:49:22.000Z</time>
      </trkpt>
      <trkpt lat="43.65556" lon="7.12345">
        <ele>36.200000762939</ele>
        <time>2022-03-12T08:49:23.000Z</time>
      </trkpt>
      <trkpt lat="43.65552" lon="7.12347">
        <ele>37.400001525879</ele>
        <time>2022-03-12T08:49:25.000Z</time>
      </trkpt>
      <trkpt lat="43.65549" lon="7.12349">
        <ele>38.599998474121</ele>
        <time>2022-03-12T08:49:27.000Z</time>
      </trkpt>
      <trkpt lat="43.65546" lon="7.12353">
        <ele>39.799999237061</ele>
        <time>2022-03-12T08:49:29.000Z</time>
      </trkpt>
      <trkpt lat="43.65539" lon="7.12363">
        <ele>41.200000762939</ele>
        <time>2022-03-12T08:49:34.000Z</time>
      </trkpt>
      <trkpt lat="43.65536" lon="7.12366">
        <ele>42.400001525879</ele>
        <time>2022-03-12T08:49:36.000Z</time>
      </trkpt>
      <trkpt lat="43.65534" lon="7.12369">
        <ele>43.200000762939</ele>
        <time>2022-03-12T08:49:38.000Z</time>
      </trkpt>
      <trkpt lat="43.65532" lon="7.1237">
        <ele>43.599998474121</ele>
        <time>2022-03-12T08:49:39.000Z</time>
      </trkpt>
      <trkpt lat="43.65525" lon="7.12378">
        <ele>44.200000762939</ele>
        <time>2022-03-12T08:49:45.000Z</time>
      </trkpt>
      <trkpt lat="43.65514" lon="7.12395">
        <ele>43</ele>
        <time>2022-03-12T08:49:53.000Z</time>
      </trkpt>
      <trkpt lat="43.65496" lon="7.12406">
        <ele>43.799999237061</ele>
        <time>2022-03-12T08:50:00.000Z</time>
      </trkpt>
      <trkpt lat="43.65476" lon="7.12419">
        <ele>43.799999237061</ele>
        <time>2022-03-12T08:50:08.000Z</time>
      </trkpt>
      <trkpt lat="43.65465" lon="7.12426">
        <ele>44.799999237061</ele>
        <time>2022-03-12T08:50:12.000Z</time>
      </trkpt>
      <trkpt lat="43.65456" lon="7.1243">
        <ele>46.400001525879</ele>
        <time>2022-03-12T08:50:15.000Z</time>
      </trkpt>
      <trkpt lat="43.65453" lon="7.1243">
        <ele>47</ele>
        <time>2022-03-12T08:50:16.000Z</time>
      </trkpt>
      <trkpt lat="43.6545" lon="7.12431">
        <ele>47.599998474121</ele>
        <time>2022-03-12T08:50:17.000Z</time>
      </trkpt>
      <trkpt lat="43.65444" lon="7.12432">
        <ele>48.599998474121</ele>
        <time>2022-03-12T08:50:19.000Z</time>
      </trkpt>
      <trkpt lat="43.65438" lon="7.12436">
        <ele>49.799999237061</ele>
        <time>2022-03-12T08:50:22.000Z</time>
      </trkpt>
      <trkpt lat="43.65436" lon="7.12438">
        <ele>49.799999237061</ele>
        <time>2022-03-12T08:50:23.000Z</time>
      </trkpt>
      <trkpt lat="43.65423" lon="7.12447">
        <ele>51</ele>
        <time>2022-03-12T08:50:28.000Z</time>
      </trkpt>
      <trkpt lat="43.65415" lon="7.12453">
        <ele>52.200000762939</ele>
        <time>2022-03-12T08:50:31.000Z</time>
      </trkpt>
      <trkpt lat="43.65408" lon="7.12459">
        <ele>53.599998474121</ele>
        <time>2022-03-12T08:50:34.000Z</time>
      </trkpt>
      <trkpt lat="43.65401" lon="7.12464">
        <ele>54</ele>
        <time>2022-03-12T08:50:37.000Z</time>
      </trkpt>
      <trkpt lat="43.65391" lon="7.12467">
        <ele>54.599998474121</ele>
        <time>2022-03-12T08:50:41.000Z</time>
      </trkpt>
      <trkpt lat="43.65382" lon="7.12472">
        <ele>55.799999237061</ele>
        <time>2022-03-12T08:50:45.000Z</time>
      </trkpt>
      <trkpt lat="43.65375" lon="7.12477">
        <ele>57</ele>
        <time>2022-03-12T08:50:48.000Z</time>
      </trkpt>
      <trkpt lat="43.6537" lon="7.1248">
        <ele>58.200000762939</ele>
        <time>2022-03-12T08:50:51.000Z</time>
      </trkpt>
      <trkpt lat="43.65366" lon="7.12483">
        <ele>59.200000762939</ele>
        <time>2022-03-12T08:50:53.000Z</time>
      </trkpt>
      <trkpt lat="43.6536" lon="7.12484">
        <ele>60.599998474121</ele>
        <time>2022-03-12T08:50:56.000Z</time>
      </trkpt>
      <trkpt lat="43.65356" lon="7.12485">
        <ele>61.200000762939</ele>
        <time>2022-03-12T08:50:58.000Z</time>
      </trkpt>
      <trkpt lat="43.65352" lon="7.12485">
        <ele>61.599998474121</ele>
        <time>2022-03-12T08:51:00.000Z</time>
      </trkpt>
      <trkpt lat="43.65345" lon="7.12488">
        <ele>62.799999237061</ele>
        <time>2022-03-12T08:51:03.000Z</time>
      </trkpt>
      <trkpt lat="43.65342" lon="7.1249">
        <ele>63.799999237061</ele>
        <time>2022-03-12T08:51:05.000Z</time>
      </trkpt>
      <trkpt lat="43.6534" lon="7.12491">
        <ele>64.400001525879</ele>
        <time>2022-03-12T08:51:06.000Z</time>
      </trkpt>
      <trkpt lat="43.65338" lon="7.12492">
        <ele>64.800003051758</ele>
        <time>2022-03-12T08:51:07.000Z</time>
      </trkpt>
      <trkpt lat="43.65333" lon="7.12495">
        <ele>66</ele>
        <time>2022-03-12T08:51:10.000Z</time>
      </trkpt>
      <trkpt lat="43.65324" lon="7.12498">
        <ele>66.800003051758</ele>
        <time>2022-03-12T08:51:14.000Z</time>
      </trkpt>
      <trkpt lat="43.6532" lon="7.12499">
        <ele>67.400001525879</ele>
        <time>2022-03-12T08:51:16.000Z</time>
      </trkpt>
      <trkpt lat="43.65313" lon="7.125">
        <ele>68.400001525879</ele>
        <time>2022-03-12T08:51:20.000Z</time>
      </trkpt>
      <trkpt lat="43.65311" lon="7.125">
        <ele>68.599998474121</ele>
        <time>2022-03-12T08:51:21.000Z</time>
      </trkpt>
      <trkpt lat="43.65306" lon="7.12501">
        <ele>69.400001525879</ele>
        <time>2022-03-12T08:51:24.000Z</time>
      </trkpt>
      <trkpt lat="43.65301" lon="7.12501">
        <ele>70.599998474121</ele>
        <time>2022-03-12T08:51:27.000Z</time>
      </trkpt>
      <trkpt lat="43.65299" lon="7.12501">
        <ele>71</ele>
        <time>2022-03-12T08:51:28.000Z</time>
      </trkpt>
      <trkpt lat="43.65287" lon="7.12502">
        <ele>71.199996948242</ele>
        <time>2022-03-12T08:51:34.000Z</time>
      </trkpt>
      <trkpt lat="43.6528" lon="7.12504">
        <ele>71.599998474121</ele>
        <time>2022-03-12T08:51:37.000Z</time>
      </trkpt>
      <trkpt lat="43.65275" lon="7.12504">
        <ele>72.599998474121</ele>
        <time>2022-03-12T08:51:40.000Z</time>
      </trkpt>
      <trkpt lat="43.65268" lon="7.12503">
        <ele>73.800003051758</ele>
        <time>2022-03-12T08:51:43.000Z</time>
      </trkpt>
      <trkpt lat="43.65256" lon="7.12499">
        <ele>75</ele>
        <time>2022-03-12T08:51:48.000Z</time>
      </trkpt>
      <trkpt lat="43.65236" lon="7.12493">
        <ele>75.400001525879</ele>
        <time>2022-03-12T08:51:56.000Z</time>
      </trkpt>
      <trkpt lat="43.65218" lon="7.12486">
        <ele>75.599998474121</ele>
        <time>2022-03-12T08:52:04.000Z</time>
      </trkpt>
      <trkpt lat="43.6522" lon="7.12475">
        <ele>75.800003051758</ele>
        <time>2022-03-12T08:52:08.000Z</time>
      </trkpt>
      <trkpt lat="43.65222" lon="7.12472">
        <ele>76.199996948242</ele>
        <time>2022-03-12T08:52:09.000Z</time>
      </trkpt>
      <trkpt lat="43.65227" lon="7.12464">
        <ele>77.199996948242</ele>
        <time>2022-03-12T08:52:13.000Z</time>
      </trkpt>
      <trkpt lat="43.65231" lon="7.12457">
        <ele>77.800003051758</ele>
        <time>2022-03-12T08:52:16.000Z</time>
      </trkpt>
      <trkpt lat="43.65233" lon="7.1245">
        <ele>78.400001525879</ele>
        <time>2022-03-12T08:52:19.000Z</time>
      </trkpt>
      <trkpt lat="43.65238" lon="7.12441">
        <ele>79.400001525879</ele>
        <time>2022-03-12T08:52:23.000Z</time>
      </trkpt>
      <trkpt lat="43.65241" lon="7.12434">
        <ele>80.400001525879</ele>
        <time>2022-03-12T08:52:26.000Z</time>
      </trkpt>
      <trkpt lat="43.65241" lon="7.12426">
        <ele>81.199996948242</ele>
        <time>2022-03-12T08:52:29.000Z</time>
      </trkpt>
      <trkpt lat="43.65241" lon="7.12423">
        <ele>81.599998474121</ele>
        <time>2022-03-12T08:52:30.000Z</time>
      </trkpt>
      <trkpt lat="43.65239" lon="7.12414">
        <ele>82.800003051758</ele>
        <time>2022-03-12T08:52:33.000Z</time>
      </trkpt>
      <trkpt lat="43.65238" lon="7.12409">
        <ele>83.599998474121</ele>
        <time>2022-03-12T08:52:35.000Z</time>
      </trkpt>
      <trkpt lat="43.65238" lon="7.12405">
        <ele>84</ele>
        <time>2022-03-12T08:52:36.000Z</time>
      </trkpt>
      <trkpt lat="43.65237" lon="7.12394">
        <ele>85</ele>
        <time>2022-03-12T08:52:40.000Z</time>
      </trkpt>
      <trkpt lat="43.65236" lon="7.12384">
        <ele>86</ele>
        <time>2022-03-12T08:52:43.000Z</time>
      </trkpt>
      <trkpt lat="43.65236" lon="7.12381">
        <ele>86.400001525879</ele>
        <time>2022-03-12T08:52:44.000Z</time>
      </trkpt>
      <trkpt lat="43.65238" lon="7.1237">
        <ele>87.400001525879</ele>
        <time>2022-03-12T08:52:48.000Z</time>
      </trkpt>
      <trkpt lat="43.65238" lon="7.12369">
        <ele>87.599998474121</ele>
        <time>2022-03-12T08:52:49.000Z</time>
      </trkpt>
      <trkpt lat="43.6524" lon="7.12361">
        <ele>88.800003051758</ele>
        <time>2022-03-12T08:52:52.000Z</time>
      </trkpt>
      <trkpt lat="43.65241" lon="7.12357">
        <ele>90.199996948242</ele>
        <time>2022-03-12T08:52:54.000Z</time>
      </trkpt>
      <trkpt lat="43.65243" lon="7.12352">
        <ele>91.400001525879</ele>
        <time>2022-03-12T08:52:56.000Z</time>
      </trkpt>
      <trkpt lat="43.65247" lon="7.12343">
        <ele>92.400001525879</ele>
        <time>2022-03-12T08:53:00.000Z</time>
      </trkpt>
      <trkpt lat="43.65252" lon="7.12335">
        <ele>93.199996948242</ele>
        <time>2022-03-12T08:53:04.000Z</time>
      </trkpt>
      <trkpt lat="43.65256" lon="7.12329">
        <ele>93.599998474121</ele>
        <time>2022-03-12T08:53:07.000Z</time>
      </trkpt>
      <trkpt lat="43.65265" lon="7.12321">
        <ele>94.599998474121</ele>
        <time>2022-03-12T08:53:13.000Z</time>
      </trkpt>
      <trkpt lat="43.65272" lon="7.12316">
        <ele>95.800003051758</ele>
        <time>2022-03-12T08:53:17.000Z</time>
      </trkpt>
      <trkpt lat="43.65278" lon="7.12312">
        <ele>97</ele>
        <time>2022-03-12T08:53:21.000Z</time>
      </trkpt>
      <trkpt lat="43.6528" lon="7.12309">
        <ele>97.400001525879</ele>
        <time>2022-03-12T08:53:23.000Z</time>
      </trkpt>
      <trkpt lat="43.65285" lon="7.12304">
        <ele>98</ele>
        <time>2022-03-12T08:53:26.000Z</time>
      </trkpt>
      <trkpt lat="43.65292" lon="7.12295">
        <ele>98.599998474121</ele>
        <time>2022-03-12T08:53:31.000Z</time>
      </trkpt>
      <trkpt lat="43.65299" lon="7.12286">
        <ele>99.199996948242</ele>
        <time>2022-03-12T08:53:35.000Z</time>
      </trkpt>
      <trkpt lat="43.6531" lon="7.12277">
        <ele>100</ele>
        <time>2022-03-12T08:53:40.000Z</time>
      </trkpt>
      <trkpt lat="43.65315" lon="7.12275">
        <ele>100.19999694824</ele>
        <time>2022-03-12T08:53:42.000Z</time>
      </trkpt>
      <trkpt lat="43.65322" lon="7.12269">
        <ele>101.19999694824</ele>
        <time>2022-03-12T08:53:46.000Z</time>
      </trkpt>
      <trkpt lat="43.65326" lon="7.12266">
        <ele>101.80000305176</ele>
        <time>2022-03-12T08:53:48.000Z</time>
      </trkpt>
      <trkpt lat="43.65331" lon="7.1226">
        <ele>102.40000152588</ele>
        <time>2022-03-12T08:53:51.000Z</time>
      </trkpt>
      <trkpt lat="43.65337" lon="7.12252">
        <ele>103.40000152588</ele>
        <time>2022-03-12T08:53:55.000Z</time>
      </trkpt>
      <trkpt lat="43.65341" lon="7.12249">
        <ele>103.80000305176</ele>
        <time>2022-03-12T08:53:57.000Z</time>
      </trkpt>
      <trkpt lat="43.6535" lon="7.12244">
        <ele>104.40000152588</ele>
        <time>2022-03-12T08:54:02.000Z</time>
      </trkpt>
      <trkpt lat="43.65354" lon="7.12243">
        <ele>105</ele>
        <time>2022-03-12T08:54:04.000Z</time>
      </trkpt>
      <trkpt lat="43.65356" lon="7.12243">
        <ele>105.59999847412</ele>
        <time>2022-03-12T08:54:05.000Z</time>
      </trkpt>
      <trkpt lat="43.65363" lon="7.12248">
        <ele>107</ele>
        <time>2022-03-12T08:54:09.000Z</time>
      </trkpt>
      <trkpt lat="43.65366" lon="7.12251">
        <ele>107.40000152588</ele>
        <time>2022-03-12T08:54:11.000Z</time>
      </trkpt>
      <trkpt lat="43.65369" lon="7.12253">
        <ele>107.80000305176</ele>
        <time>2022-03-12T08:54:13.000Z</time>
      </trkpt>
      <trkpt lat="43.65374" lon="7.12254">
        <ele>109</ele>
        <time>2022-03-12T08:54:16.000Z</time>
      </trkpt>
      <trkpt lat="43.65377" lon="7.12253">
        <ele>110</ele>
        <time>2022-03-12T08:54:18.000Z</time>
      </trkpt>
      <trkpt lat="43.65379" lon="7.12253">
        <ele>110.59999847412</ele>
        <time>2022-03-12T08:54:19.000Z</time>
      </trkpt>
      <trkpt lat="43.65387" lon="7.1225">
        <ele>111.59999847412</ele>
        <time>2022-03-12T08:54:24.000Z</time>
      </trkpt>
      <trkpt lat="43.6539" lon="7.12246">
        <ele>112.19999694824</ele>
        <time>2022-03-12T08:54:26.000Z</time>
      </trkpt>
      <trkpt lat="43.65394" lon="7.12239">
        <ele>112.80000305176</ele>
        <time>2022-03-12T08:54:30.000Z</time>
      </trkpt>
      <trkpt lat="43.65394" lon="7.12232">
        <ele>113.40000152588</ele>
        <time>2022-03-12T08:54:33.000Z</time>
      </trkpt>
      <trkpt lat="43.65396" lon="7.12213">
        <ele>112.80000305176</ele>
        <time>2022-03-12T08:54:39.000Z</time>
      </trkpt>
      <trkpt lat="43.65401" lon="7.12208">
        <ele>113.80000305176</ele>
        <time>2022-03-12T08:54:42.000Z</time>
      </trkpt>
      <trkpt lat="43.654" lon="7.12206">
        <ele>114</ele>
        <time>2022-03-12T08:54:43.000Z</time>
      </trkpt>
      <trkpt lat="43.65399" lon="7.122">
        <ele>114.59999847412</ele>
        <time>2022-03-12T08:54:46.000Z</time>
      </trkpt>
      <trkpt lat="43.65398" lon="7.12196">
        <ele>114.80000305176</ele>
        <time>2022-03-12T08:54:48.000Z</time>
      </trkpt>
      <trkpt lat="43.65398" lon="7.12196">
        <ele>115</ele>
        <time>2022-03-12T08:54:52.000Z</time>
      </trkpt>
      <trkpt lat="43.65398" lon="7.12196">
        <ele>115.19999694824</ele>
        <time>2022-03-12T08:54:56.000Z</time>
      </trkpt>
      <trkpt lat="43.65398" lon="7.12196">
        <ele>115.40000152588</ele>
        <time>2022-03-12T08:55:02.000Z</time>
      </trkpt>
      <trkpt lat="43.65398" lon="7.12196">
        <ele>116.19999694824</ele>
        <time>2022-03-12T08:55:06.000Z</time>
      </trkpt>
      <trkpt lat="43.65398" lon="7.12196">
        <ele>115.80000305176</ele>
        <time>2022-03-12T08:55:17.000Z</time>
      </trkpt>
      <trkpt lat="43.65398" lon="7.12193">
        <ele>115.19999694824</ele>
        <time>2022-03-12T08:55:20.000Z</time>
      </trkpt>
      <trkpt lat="43.65398" lon="7.12188">
        <ele>115</ele>
        <time>2022-03-12T08:55:22.000Z</time>
      </trkpt>
      <trkpt lat="43.65397" lon="7.1217">
        <ele>116</ele>
        <time>2022-03-12T08:55:28.000Z</time>
      </trkpt>
      <trkpt lat="43.65396" lon="7.1215">
        <ele>114.40000152588</ele>
        <time>2022-03-12T08:55:33.000Z</time>
      </trkpt>
      <trkpt lat="43.65394" lon="7.12146">
        <ele>114.19999694824</ele>
        <time>2022-03-12T08:55:34.000Z</time>
      </trkpt>
      <trkpt lat="43.65393" lon="7.12136">
        <ele>113.40000152588</ele>
        <time>2022-03-12T08:55:36.000Z</time>
      </trkpt>
      <trkpt lat="43.65392" lon="7.12131">
        <ele>113</ele>
        <time>2022-03-12T08:55:37.000Z</time>
      </trkpt>
      <trkpt lat="43.6539" lon="7.12118">
        <ele>112</ele>
        <time>2022-03-12T08:55:40.000Z</time>
      </trkpt>
      <trkpt lat="43.65391" lon="7.12114">
        <ele>112</ele>
        <time>2022-03-12T08:55:41.000Z</time>
      </trkpt>
      <trkpt lat="43.65392" lon="7.12106">
        <ele>112.59999847412</ele>
        <time>2022-03-12T08:55:45.000Z</time>
      </trkpt>
      <trkpt lat="43.65391" lon="7.12093">
        <ele>112.59999847412</ele>
        <time>2022-03-12T08:55:50.000Z</time>
      </trkpt>
      <trkpt lat="43.65391" lon="7.12079">
        <ele>112.59999847412</ele>
        <time>2022-03-12T08:55:54.000Z</time>
      </trkpt>
      <trkpt lat="43.65392" lon="7.12059">
        <ele>112.19999694824</ele>
        <time>2022-03-12T08:56:00.000Z</time>
      </trkpt>
      <trkpt lat="43.6539" lon="7.12041">
        <ele>113.19999694824</ele>
        <time>2022-03-12T08:56:04.000Z</time>
      </trkpt>
      <trkpt lat="43.65391" lon="7.12037">
        <ele>113</ele>
        <time>2022-03-12T08:56:05.000Z</time>
      </trkpt>
      <trkpt lat="43.65396" lon="7.12025">
        <ele>112.40000152588</ele>
        <time>2022-03-12T08:56:09.000Z</time>
      </trkpt>
      <trkpt lat="43.65399" lon="7.12009">
        <ele>113.80000305176</ele>
        <time>2022-03-12T08:56:15.000Z</time>
      </trkpt>
      <trkpt lat="43.654" lon="7.12007">
        <ele>114.40000152588</ele>
        <time>2022-03-12T08:56:16.000Z</time>
      </trkpt>
      <trkpt lat="43.654" lon="7.12001">
        <ele>115.80000305176</ele>
        <time>2022-03-12T08:56:19.000Z</time>
      </trkpt>
      <trkpt lat="43.65399" lon="7.12">
        <ele>116.19999694824</ele>
        <time>2022-03-12T08:56:20.000Z</time>
      </trkpt>
      <trkpt lat="43.65395" lon="7.11994">
        <ele>117</ele>
        <time>2022-03-12T08:56:23.000Z</time>
      </trkpt>
      <trkpt lat="43.65395" lon="7.11992">
        <ele>117.40000152588</ele>
        <time>2022-03-12T08:56:25.000Z</time>
      </trkpt>
      <trkpt lat="43.65395" lon="7.11992">
        <ele>117.80000305176</ele>
        <time>2022-03-12T08:56:33.000Z</time>
      </trkpt>
      <trkpt lat="43.65393" lon="7.11987">
        <ele>118</ele>
        <time>2022-03-12T08:56:42.000Z</time>
      </trkpt>
      <trkpt lat="43.65393" lon="7.11984">
        <ele>118</ele>
        <time>2022-03-12T08:56:43.000Z</time>
      </trkpt>
      <trkpt lat="43.65395" lon="7.11967">
        <ele>117.19999694824</ele>
        <time>2022-03-12T08:56:48.000Z</time>
      </trkpt>
      <trkpt lat="43.65398" lon="7.11958">
        <ele>117</ele>
        <time>2022-03-12T08:56:50.000Z</time>
      </trkpt>
      <trkpt lat="43.65398" lon="7.11952">
        <ele>116.40000152588</ele>
        <time>2022-03-12T08:56:51.000Z</time>
      </trkpt>
      <trkpt lat="43.65398" lon="7.11945">
        <ele>115.59999847412</ele>
        <time>2022-03-12T08:56:52.000Z</time>
      </trkpt>
      <trkpt lat="43.65394" lon="7.11931">
        <ele>114.40000152588</ele>
        <time>2022-03-12T08:56:54.000Z</time>
      </trkpt>
      <trkpt lat="43.65394" lon="7.11918">
        <ele>113</ele>
        <time>2022-03-12T08:56:56.000Z</time>
      </trkpt>
      <trkpt lat="43.65396" lon="7.11903">
        <ele>111.19999694824</ele>
        <time>2022-03-12T08:56:59.000Z</time>
      </trkpt>
      <trkpt lat="43.65397" lon="7.11897">
        <ele>110.80000305176</ele>
        <time>2022-03-12T08:57:00.000Z</time>
      </trkpt>
      <trkpt lat="43.65396" lon="7.1189">
        <ele>110.19999694824</ele>
        <time>2022-03-12T08:57:01.000Z</time>
      </trkpt>
      <trkpt lat="43.65396" lon="7.11883">
        <ele>109.80000305176</ele>
        <time>2022-03-12T08:57:02.000Z</time>
      </trkpt>
      <trkpt lat="43.65397" lon="7.11869">
        <ele>108.80000305176</ele>
        <time>2022-03-12T08:57:04.000Z</time>
      </trkpt>
      <trkpt lat="43.654" lon="7.11859">
        <ele>107.80000305176</ele>
        <time>2022-03-12T08:57:06.000Z</time>
      </trkpt>
      <trkpt lat="43.654" lon="7.11853">
        <ele>107.40000152588</ele>
        <time>2022-03-12T08:57:07.000Z</time>
      </trkpt>
      <trkpt lat="43.65406" lon="7.11833">
        <ele>106.80000305176</ele>
        <time>2022-03-12T08:57:11.000Z</time>
      </trkpt>
      <trkpt lat="43.65409" lon="7.11823">
        <ele>106.40000152588</ele>
        <time>2022-03-12T08:57:14.000Z</time>
      </trkpt>
      <trkpt lat="43.65411" lon="7.11817">
        <ele>106.80000305176</ele>
        <time>2022-03-12T08:57:16.000Z</time>
      </trkpt>
      <trkpt lat="43.65411" lon="7.11809">
        <ele>107.59999847412</ele>
        <time>2022-03-12T08:57:18.000Z</time>
      </trkpt>
      <trkpt lat="43.6541" lon="7.11805">
        <ele>108</ele>
        <time>2022-03-12T08:57:19.000Z</time>
      </trkpt>
      <trkpt lat="43.65409" lon="7.118">
        <ele>108</ele>
        <time>2022-03-12T08:57:20.000Z</time>
      </trkpt>
      <trkpt lat="43.65409" lon="7.11784">
        <ele>106.19999694824</ele>
        <time>2022-03-12T08:57:23.000Z</time>
      </trkpt>
      <trkpt lat="43.6541" lon="7.11773">
        <ele>104.19999694824</ele>
        <time>2022-03-12T08:57:25.000Z</time>
      </trkpt>
      <trkpt lat="43.65415" lon="7.11763">
        <ele>102.59999847412</ele>
        <time>2022-03-12T08:57:27.000Z</time>
      </trkpt>
      <trkpt lat="43.65418" lon="7.11759">
        <ele>102</ele>
        <time>2022-03-12T08:57:28.000Z</time>
      </trkpt>
      <trkpt lat="43.6542" lon="7.11755">
        <ele>101</ele>
        <time>2022-03-12T08:57:29.000Z</time>
      </trkpt>
      <trkpt lat="43.65424" lon="7.11742">
        <ele>99.800003051758</ele>
        <time>2022-03-12T08:57:31.000Z</time>
      </trkpt>
      <trkpt lat="43.6543" lon="7.11731">
        <ele>98.599998474121</ele>
        <time>2022-03-12T08:57:33.000Z</time>
      </trkpt>
      <trkpt lat="43.65431" lon="7.11725">
        <ele>97.800003051758</ele>
        <time>2022-03-12T08:57:34.000Z</time>
      </trkpt>
      <trkpt lat="43.65432" lon="7.1172">
        <ele>97.400001525879</ele>
        <time>2022-03-12T08:57:35.000Z</time>
      </trkpt>
      <trkpt lat="43.6543" lon="7.11706">
        <ele>97.599998474121</ele>
        <time>2022-03-12T08:57:38.000Z</time>
      </trkpt>
      <trkpt lat="43.65431" lon="7.11683">
        <ele>98.199996948242</ele>
        <time>2022-03-12T08:57:42.000Z</time>
      </trkpt>
      <trkpt lat="43.65438" lon="7.11656">
        <ele>96.199996948242</ele>
        <time>2022-03-12T08:57:47.000Z</time>
      </trkpt>
      <trkpt lat="43.6544" lon="7.11634">
        <ele>95.800003051758</ele>
        <time>2022-03-12T08:57:51.000Z</time>
      </trkpt>
      <trkpt lat="43.65443" lon="7.11629">
        <ele>95.199996948242</ele>
        <time>2022-03-12T08:57:53.000Z</time>
      </trkpt>
      <trkpt lat="43.65445" lon="7.11624">
        <ele>94.800003051758</ele>
        <time>2022-03-12T08:57:54.000Z</time>
      </trkpt>
      <trkpt lat="43.6545" lon="7.11615">
        <ele>93.800003051758</ele>
        <time>2022-03-12T08:57:56.000Z</time>
      </trkpt>
      <trkpt lat="43.65454" lon="7.11607">
        <ele>93.199996948242</ele>
        <time>2022-03-12T08:57:58.000Z</time>
      </trkpt>
      <trkpt lat="43.65456" lon="7.11603">
        <ele>93</ele>
        <time>2022-03-12T08:57:59.000Z</time>
      </trkpt>
      <trkpt lat="43.65458" lon="7.11598">
        <ele>92.599998474121</ele>
        <time>2022-03-12T08:58:00.000Z</time>
      </trkpt>
      <trkpt lat="43.65462" lon="7.11583">
        <ele>92.199996948242</ele>
        <time>2022-03-12T08:58:03.000Z</time>
      </trkpt>
      <trkpt lat="43.65464" lon="7.11574">
        <ele>91.599998474121</ele>
        <time>2022-03-12T08:58:05.000Z</time>
      </trkpt>
      <trkpt lat="43.65467" lon="7.11563">
        <ele>90.800003051758</ele>
        <time>2022-03-12T08:58:07.000Z</time>
      </trkpt>
      <trkpt lat="43.65472" lon="7.11549">
        <ele>90.400001525879</ele>
        <time>2022-03-12T08:58:10.000Z</time>
      </trkpt>
      <trkpt lat="43.65476" lon="7.11534">
        <ele>89.800003051758</ele>
        <time>2022-03-12T08:58:13.000Z</time>
      </trkpt>
      <trkpt lat="43.65482" lon="7.11508">
        <ele>91.599998474121</ele>
        <time>2022-03-12T08:58:18.000Z</time>
      </trkpt>
      <trkpt lat="43.65485" lon="7.115">
        <ele>91.800003051758</ele>
        <time>2022-03-12T08:58:20.000Z</time>
      </trkpt>
      <trkpt lat="43.65495" lon="7.11475">
        <ele>92.400001525879</ele>
        <time>2022-03-12T08:58:26.000Z</time>
      </trkpt>
      <trkpt lat="43.65494" lon="7.1147">
        <ele>92.599998474121</ele>
        <time>2022-03-12T08:58:27.000Z</time>
      </trkpt>
      <trkpt lat="43.65495" lon="7.11463">
        <ele>93.800003051758</ele>
        <time>2022-03-12T08:58:29.000Z</time>
      </trkpt>
      <trkpt lat="43.65495" lon="7.11459">
        <ele>94.199996948242</ele>
        <time>2022-03-12T08:58:30.000Z</time>
      </trkpt>
      <trkpt lat="43.65494" lon="7.11452">
        <ele>95.400001525879</ele>
        <time>2022-03-12T08:58:32.000Z</time>
      </trkpt>
      <trkpt lat="43.65488" lon="7.1144">
        <ele>96.400001525879</ele>
        <time>2022-03-12T08:58:35.000Z</time>
      </trkpt>
      <trkpt lat="43.65488" lon="7.11427">
        <ele>96</ele>
        <time>2022-03-12T08:58:38.000Z</time>
      </trkpt>
      <trkpt lat="43.65491" lon="7.11424">
        <ele>96.199996948242</ele>
        <time>2022-03-12T08:58:39.000Z</time>
      </trkpt>
      <trkpt lat="43.65495" lon="7.11406">
        <ele>95.400001525879</ele>
        <time>2022-03-12T08:58:43.000Z</time>
      </trkpt>
      <trkpt lat="43.65498" lon="7.11394">
        <ele>95.199996948242</ele>
        <time>2022-03-12T08:58:47.000Z</time>
      </trkpt>
      <trkpt lat="43.65499" lon="7.11387">
        <ele>95.800003051758</ele>
        <time>2022-03-12T08:58:49.000Z</time>
      </trkpt>
      <trkpt lat="43.655" lon="7.11384">
        <ele>96.400001525879</ele>
        <time>2022-03-12T08:58:51.000Z</time>
      </trkpt>
      <trkpt lat="43.655" lon="7.11381">
        <ele>97.199996948242</ele>
        <time>2022-03-12T08:58:52.000Z</time>
      </trkpt>
      <trkpt lat="43.655" lon="7.11378">
        <ele>97.599998474121</ele>
        <time>2022-03-12T08:58:53.000Z</time>
      </trkpt>
      <trkpt lat="43.65497" lon="7.11367">
        <ele>99</ele>
        <time>2022-03-12T08:58:56.000Z</time>
      </trkpt>
      <trkpt lat="43.65495" lon="7.11363">
        <ele>99</ele>
        <time>2022-03-12T08:58:57.000Z</time>
      </trkpt>
      <trkpt lat="43.65494" lon="7.11346">
        <ele>98.800003051758</ele>
        <time>2022-03-12T08:59:00.000Z</time>
      </trkpt>
      <trkpt lat="43.65493" lon="7.11341">
        <ele>98.599998474121</ele>
        <time>2022-03-12T08:59:01.000Z</time>
      </trkpt>
      <trkpt lat="43.65491" lon="7.11339">
        <ele>98.400001525879</ele>
        <time>2022-03-12T08:59:02.000Z</time>
      </trkpt>
      <trkpt lat="43.65484" lon="7.11334">
        <ele>97.599998474121</ele>
        <time>2022-03-12T08:59:04.000Z</time>
      </trkpt>
      <trkpt lat="43.65471" lon="7.11331">
        <ele>96.800003051758</ele>
        <time>2022-03-12T08:59:08.000Z</time>
      </trkpt>
      <trkpt lat="43.65463" lon="7.1132">
        <ele>96.599998474121</ele>
        <time>2022-03-12T08:59:11.000Z</time>
      </trkpt>
      <trkpt lat="43.65461" lon="7.11317">
        <ele>96.599998474121</ele>
        <time>2022-03-12T08:59:12.000Z</time>
      </trkpt>
      <trkpt lat="43.65458" lon="7.11317">
        <ele>96.599998474121</ele>
        <time>2022-03-12T08:59:13.000Z</time>
      </trkpt>
      <trkpt lat="43.65455" lon="7.11314">
        <ele>96.599998474121</ele>
        <time>2022-03-12T08:59:15.000Z</time>
      </trkpt>
      <trkpt lat="43.65446" lon="7.11307">
        <ele>97</ele>
        <time>2022-03-12T08:59:19.000Z</time>
      </trkpt>
      <trkpt lat="43.65434" lon="7.11293">
        <ele>98.199996948242</ele>
        <time>2022-03-12T08:59:24.000Z</time>
      </trkpt>
      <trkpt lat="43.65433" lon="7.11286">
        <ele>98.599998474121</ele>
        <time>2022-03-12T08:59:26.000Z</time>
      </trkpt>
      <trkpt lat="43.65432" lon="7.11275">
        <ele>99</ele>
        <time>2022-03-12T08:59:28.000Z</time>
      </trkpt>
      <trkpt lat="43.65429" lon="7.11257">
        <ele>99.400001525879</ele>
        <time>2022-03-12T08:59:32.000Z</time>
      </trkpt>
      <trkpt lat="43.65424" lon="7.11246">
        <ele>99.800003051758</ele>
        <time>2022-03-12T08:59:35.000Z</time>
      </trkpt>
      <trkpt lat="43.65421" lon="7.11239">
        <ele>99.800003051758</ele>
        <time>2022-03-12T08:59:37.000Z</time>
      </trkpt>
      <trkpt lat="43.65413" lon="7.11224">
        <ele>100.40000152588</ele>
        <time>2022-03-12T08:59:42.000Z</time>
      </trkpt>
      <trkpt lat="43.6541" lon="7.11221">
        <ele>101</ele>
        <time>2022-03-12T08:59:43.000Z</time>
      </trkpt>
      <trkpt lat="43.65406" lon="7.11214">
        <ele>101.40000152588</ele>
        <time>2022-03-12T08:59:47.000Z</time>
      </trkpt>
      <trkpt lat="43.65405" lon="7.11208">
        <ele>101.40000152588</ele>
        <time>2022-03-12T08:59:49.000Z</time>
      </trkpt>
      <trkpt lat="43.65405" lon="7.11205">
        <ele>101.19999694824</ele>
        <time>2022-03-12T08:59:51.000Z</time>
      </trkpt>
      <trkpt lat="43.65405" lon="7.11205">
        <ele>100</ele>
        <time>2022-03-12T08:59:55.000Z</time>
      </trkpt>
      <trkpt lat="43.65405" lon="7.11205">
        <ele>99.599998474121</ele>
        <time>2022-03-12T08:59:57.000Z</time>
      </trkpt>
      <trkpt lat="43.65405" lon="7.11204">
        <ele>101</ele>
        <time>2022-03-12T09:00:08.000Z</time>
      </trkpt>
      <trkpt lat="43.65404" lon="7.11203">
        <ele>100.59999847412</ele>
        <time>2022-03-12T09:00:17.000Z</time>
      </trkpt>
      <trkpt lat="43.65404" lon="7.11203">
        <ele>100</ele>
        <time>2022-03-12T09:00:22.000Z</time>
      </trkpt>
      <trkpt lat="43.65403" lon="7.11196">
        <ele>100</ele>
        <time>2022-03-12T09:00:26.000Z</time>
      </trkpt>
      <trkpt lat="43.65406" lon="7.11192">
        <ele>100.19999694824</ele>
        <time>2022-03-12T09:00:28.000Z</time>
      </trkpt>
      <trkpt lat="43.65408" lon="7.1119">
        <ele>100.80000305176</ele>
        <time>2022-03-12T09:00:30.000Z</time>
      </trkpt>
      <trkpt lat="43.65409" lon="7.11185">
        <ele>101.19999694824</ele>
        <time>2022-03-12T09:00:32.000Z</time>
      </trkpt>
      <trkpt lat="43.65408" lon="7.11186">
        <ele>101.80000305176</ele>
        <time>2022-03-12T09:00:34.000Z</time>
      </trkpt>
      <trkpt lat="43.65408" lon="7.11182">
        <ele>102.40000152588</ele>
        <time>2022-03-12T09:00:37.000Z</time>
      </trkpt>
      <trkpt lat="43.65408" lon="7.1118">
        <ele>103</ele>
        <time>2022-03-12T09:00:39.000Z</time>
      </trkpt>
      <trkpt lat="43.65408" lon="7.11178">
        <ele>103.59999847412</ele>
        <time>2022-03-12T09:00:41.000Z</time>
      </trkpt>
      <trkpt lat="43.65407" lon="7.11178">
        <ele>104.19999694824</ele>
        <time>2022-03-12T09:00:46.000Z</time>
      </trkpt>
      <trkpt lat="43.65407" lon="7.11177">
        <ele>104.59999847412</ele>
        <time>2022-03-12T09:00:52.000Z</time>
      </trkpt>
      <trkpt lat="43.65406" lon="7.11168">
        <ele>105.19999694824</ele>
        <time>2022-03-12T09:00:57.000Z</time>
      </trkpt>
      <trkpt lat="43.65406" lon="7.11166">
        <ele>105.80000305176</ele>
        <time>2022-03-12T09:01:00.000Z</time>
      </trkpt>
      <trkpt lat="43.65406" lon="7.11164">
        <ele>106.80000305176</ele>
        <time>2022-03-12T09:01:02.000Z</time>
      </trkpt>
      <trkpt lat="43.65406" lon="7.11163">
        <ele>107</ele>
        <time>2022-03-12T09:01:03.000Z</time>
      </trkpt>
      <trkpt lat="43.65407" lon="7.11161">
        <ele>107.40000152588</ele>
        <time>2022-03-12T09:01:07.000Z</time>
      </trkpt>
      <trkpt lat="43.65407" lon="7.11159">
        <ele>108.19999694824</ele>
        <time>2022-03-12T09:01:10.000Z</time>
      </trkpt>
      <trkpt lat="43.65407" lon="7.11153">
        <ele>109.19999694824</ele>
        <time>2022-03-12T09:01:15.000Z</time>
      </trkpt>
      <trkpt lat="43.65406" lon="7.1115">
        <ele>110.19999694824</ele>
        <time>2022-03-12T09:01:19.000Z</time>
      </trkpt>
      <trkpt lat="43.65407" lon="7.11149">
        <ele>110.40000152588</ele>
        <time>2022-03-12T09:01:20.000Z</time>
      </trkpt>
      <trkpt lat="43.65408" lon="7.11146">
        <ele>110.80000305176</ele>
        <time>2022-03-12T09:01:22.000Z</time>
      </trkpt>
      <trkpt lat="43.65407" lon="7.11144">
        <ele>111.40000152588</ele>
        <time>2022-03-12T09:01:25.000Z</time>
      </trkpt>
      <trkpt lat="43.65407" lon="7.11144">
        <ele>112.40000152588</ele>
        <time>2022-03-12T09:01:28.000Z</time>
      </trkpt>
      <trkpt lat="43.65407" lon="7.11144">
        <ele>112.80000305176</ele>
        <time>2022-03-12T09:01:29.000Z</time>
      </trkpt>
      <trkpt lat="43.65407" lon="7.1114">
        <ele>112.80000305176</ele>
        <time>2022-03-12T09:01:30.000Z</time>
      </trkpt>
      <trkpt lat="43.65406" lon="7.11135">
        <ele>112.59999847412</ele>
        <time>2022-03-12T09:01:32.000Z</time>
      </trkpt>
      <trkpt lat="43.65405" lon="7.11124">
        <ele>113.80000305176</ele>
        <time>2022-03-12T09:01:37.000Z</time>
      </trkpt>
      <trkpt lat="43.65395" lon="7.11124">
        <ele>115</ele>
        <time>2022-03-12T09:01:41.000Z</time>
      </trkpt>
      <trkpt lat="43.65393" lon="7.11123">
        <ele>115.19999694824</ele>
        <time>2022-03-12T09:01:42.000Z</time>
      </trkpt>
      <trkpt lat="43.65391" lon="7.11125">
        <ele>115.59999847412</ele>
        <time>2022-03-12T09:01:43.000Z</time>
      </trkpt>
      <trkpt lat="43.65388" lon="7.1113">
        <ele>116.19999694824</ele>
        <time>2022-03-12T09:01:45.000Z</time>
      </trkpt>
      <trkpt lat="43.65388" lon="7.11132">
        <ele>116.40000152588</ele>
        <time>2022-03-12T09:01:46.000Z</time>
      </trkpt>
      <trkpt lat="43.65388" lon="7.11135">
        <ele>116.80000305176</ele>
        <time>2022-03-12T09:01:47.000Z</time>
      </trkpt>
      <trkpt lat="43.65386" lon="7.11138">
        <ele>117.40000152588</ele>
        <time>2022-03-12T09:01:48.000Z</time>
      </trkpt>
      <trkpt lat="43.65382" lon="7.11141">
        <ele>118</ele>
        <time>2022-03-12T09:01:50.000Z</time>
      </trkpt>
      <trkpt lat="43.65378" lon="7.11144">
        <ele>118.59999847412</ele>
        <time>2022-03-12T09:01:52.000Z</time>
      </trkpt>
      <trkpt lat="43.65373" lon="7.11149">
        <ele>118.80000305176</ele>
        <time>2022-03-12T09:01:56.000Z</time>
      </trkpt>
      <trkpt lat="43.65371" lon="7.11148">
        <ele>118.80000305176</ele>
        <time>2022-03-12T09:01:57.000Z</time>
      </trkpt>
      <trkpt lat="43.65368" lon="7.11144">
        <ele>119.40000152588</ele>
        <time>2022-03-12T09:02:00.000Z</time>
      </trkpt>
      <trkpt lat="43.65369" lon="7.11145">
        <ele>119.59999847412</ele>
        <time>2022-03-12T09:02:01.000Z</time>
      </trkpt>
      <trkpt lat="43.65369" lon="7.11145">
        <ele>121</ele>
        <time>2022-03-12T09:02:04.000Z</time>
      </trkpt>
      <trkpt lat="43.65369" lon="7.11145">
        <ele>121.40000152588</ele>
        <time>2022-03-12T09:02:06.000Z</time>
      </trkpt>
      <trkpt lat="43.65366" lon="7.11142">
        <ele>122</ele>
        <time>2022-03-12T09:02:16.000Z</time>
      </trkpt>
      <trkpt lat="43.65363" lon="7.11138">
        <ele>123.19999694824</ele>
        <time>2022-03-12T09:02:23.000Z</time>
      </trkpt>
      <trkpt lat="43.65361" lon="7.11138">
        <ele>124.40000152588</ele>
        <time>2022-03-12T09:02:28.000Z</time>
      </trkpt>
      <trkpt lat="43.65361" lon="7.11139">
        <ele>125</ele>
        <time>2022-03-12T09:02:30.000Z</time>
      </trkpt>
      <trkpt lat="43.65355" lon="7.11139">
        <ele>125.19999694824</ele>
        <time>2022-03-12T09:02:40.000Z</time>
      </trkpt>
      <trkpt lat="43.65353" lon="7.1114">
        <ele>125.59999847412</ele>
        <time>2022-03-12T09:02:42.000Z</time>
      </trkpt>
      <trkpt lat="43.65349" lon="7.11142">
        <ele>126.40000152588</ele>
        <time>2022-03-12T09:02:44.000Z</time>
      </trkpt>
      <trkpt lat="43.65347" lon="7.11143">
        <ele>126.80000305176</ele>
        <time>2022-03-12T09:02:45.000Z</time>
      </trkpt>
      <trkpt lat="43.65338" lon="7.11148">
        <ele>127.59999847412</ele>
        <time>2022-03-12T09:02:49.000Z</time>
      </trkpt>
      <trkpt lat="43.65332" lon="7.11151">
        <ele>128</ele>
        <time>2022-03-12T09:02:51.000Z</time>
      </trkpt>
      <trkpt lat="43.65325" lon="7.11152">
        <ele>128.80000305176</ele>
        <time>2022-03-12T09:02:54.000Z</time>
      </trkpt>
      <trkpt lat="43.65325" lon="7.11152">
        <ele>129</ele>
        <time>2022-03-12T09:02:56.000Z</time>
      </trkpt>
      <trkpt lat="43.65325" lon="7.11152">
        <ele>129.19999694824</ele>
        <time>2022-03-12T09:02:57.000Z</time>
      </trkpt>
      <trkpt lat="43.65325" lon="7.11151">
        <ele>130.19999694824</ele>
        <time>2022-03-12T09:02:59.000Z</time>
      </trkpt>
      <trkpt lat="43.65325" lon="7.11152">
        <ele>130.39999389648</ele>
        <time>2022-03-12T09:03:11.000Z</time>
      </trkpt>
      <trkpt lat="43.6532" lon="7.11151">
        <ele>130</ele>
        <time>2022-03-12T09:03:15.000Z</time>
      </trkpt>
      <trkpt lat="43.65315" lon="7.11144">
        <ele>131.19999694824</ele>
        <time>2022-03-12T09:03:19.000Z</time>
      </trkpt>
      <trkpt lat="43.65316" lon="7.11142">
        <ele>131.60000610352</ele>
        <time>2022-03-12T09:03:20.000Z</time>
      </trkpt>
      <trkpt lat="43.65317" lon="7.11139">
        <ele>132.39999389648</ele>
        <time>2022-03-12T09:03:22.000Z</time>
      </trkpt>
      <trkpt lat="43.65316" lon="7.1114">
        <ele>132.80000305176</ele>
        <time>2022-03-12T09:03:23.000Z</time>
      </trkpt>
      <trkpt lat="43.65318" lon="7.11138">
        <ele>134.19999694824</ele>
        <time>2022-03-12T09:03:26.000Z</time>
      </trkpt>
      <trkpt lat="43.65317" lon="7.11138">
        <ele>135</ele>
        <time>2022-03-12T09:03:28.000Z</time>
      </trkpt>
      <trkpt lat="43.65317" lon="7.11137">
        <ele>135.39999389648</ele>
        <time>2022-03-12T09:03:32.000Z</time>
      </trkpt>
      <trkpt lat="43.65317" lon="7.11137">
        <ele>135.19999694824</ele>
        <time>2022-03-12T09:03:35.000Z</time>
      </trkpt>
      <trkpt lat="43.65316" lon="7.11134">
        <ele>135.60000610352</ele>
        <time>2022-03-12T09:03:54.000Z</time>
      </trkpt>
      <trkpt lat="43.65315" lon="7.11132">
        <ele>135.60000610352</ele>
        <time>2022-03-12T09:03:55.000Z</time>
      </trkpt>
      <trkpt lat="43.65311" lon="7.11121">
        <ele>136.39999389648</ele>
        <time>2022-03-12T09:03:59.000Z</time>
      </trkpt>
      <trkpt lat="43.65309" lon="7.11112">
        <ele>137.60000610352</ele>
        <time>2022-03-12T09:04:03.000Z</time>
      </trkpt>
      <trkpt lat="43.65307" lon="7.1111">
        <ele>138</ele>
        <time>2022-03-12T09:04:04.000Z</time>
      </trkpt>
      <trkpt lat="43.65305" lon="7.11104">
        <ele>139</ele>
        <time>2022-03-12T09:04:06.000Z</time>
      </trkpt>
      <trkpt lat="43.65302" lon="7.11098">
        <ele>140</ele>
        <time>2022-03-12T09:04:08.000Z</time>
      </trkpt>
      <trkpt lat="43.65301" lon="7.11096">
        <ele>140.39999389648</ele>
        <time>2022-03-12T09:04:09.000Z</time>
      </trkpt>
      <trkpt lat="43.65298" lon="7.1109">
        <ele>141.19999694824</ele>
        <time>2022-03-12T09:04:11.000Z</time>
      </trkpt>
      <trkpt lat="43.65294" lon="7.11081">
        <ele>142.19999694824</ele>
        <time>2022-03-12T09:04:14.000Z</time>
      </trkpt>
      <trkpt lat="43.65292" lon="7.11076">
        <ele>143.60000610352</ele>
        <time>2022-03-12T09:04:17.000Z</time>
      </trkpt>
      <trkpt lat="43.6529" lon="7.11075">
        <ele>144.19999694824</ele>
        <time>2022-03-12T09:04:18.000Z</time>
      </trkpt>
      <trkpt lat="43.65289" lon="7.11073">
        <ele>144.80000305176</ele>
        <time>2022-03-12T09:04:19.000Z</time>
      </trkpt>
      <trkpt lat="43.65287" lon="7.1107">
        <ele>145.80000305176</ele>
        <time>2022-03-12T09:04:21.000Z</time>
      </trkpt>
      <trkpt lat="43.65286" lon="7.11067">
        <ele>146.80000305176</ele>
        <time>2022-03-12T09:04:23.000Z</time>
      </trkpt>
      <trkpt lat="43.65286" lon="7.11066">
        <ele>147.19999694824</ele>
        <time>2022-03-12T09:04:24.000Z</time>
      </trkpt>
      <trkpt lat="43.65286" lon="7.11067">
        <ele>148.39999389648</ele>
        <time>2022-03-12T09:04:27.000Z</time>
      </trkpt>
      <trkpt lat="43.65286" lon="7.11067">
        <ele>148.60000610352</ele>
        <time>2022-03-12T09:04:28.000Z</time>
      </trkpt>
      <trkpt lat="43.65284" lon="7.11065">
        <ele>149</ele>
        <time>2022-03-12T09:04:40.000Z</time>
      </trkpt>
      <trkpt lat="43.65284" lon="7.11065">
        <ele>149.39999389648</ele>
        <time>2022-03-12T09:04:43.000Z</time>
      </trkpt>
      <trkpt lat="43.65281" lon="7.11068">
        <ele>150.19999694824</ele>
        <time>2022-03-12T09:04:47.000Z</time>
      </trkpt>
      <trkpt lat="43.65279" lon="7.11067">
        <ele>150.39999389648</ele>
        <time>2022-03-12T09:04:50.000Z</time>
      </trkpt>
      <trkpt lat="43.65278" lon="7.11067">
        <ele>151.19999694824</ele>
        <time>2022-03-12T09:04:54.000Z</time>
      </trkpt>
      <trkpt lat="43.65278" lon="7.11067">
        <ele>151.19999694824</ele>
        <time>2022-03-12T09:05:04.000Z</time>
      </trkpt>
      <trkpt lat="43.65273" lon="7.11065">
        <ele>151.39999389648</ele>
        <time>2022-03-12T09:05:09.000Z</time>
      </trkpt>
      <trkpt lat="43.6527" lon="7.11065">
        <ele>151.80000305176</ele>
        <time>2022-03-12T09:05:11.000Z</time>
      </trkpt>
      <trkpt lat="43.6527" lon="7.11065">
        <ele>152.60000610352</ele>
        <time>2022-03-12T09:05:13.000Z</time>
      </trkpt>
      <trkpt lat="43.65269" lon="7.11066">
        <ele>153.80000305176</ele>
        <time>2022-03-12T09:05:16.000Z</time>
      </trkpt>
      <trkpt lat="43.65266" lon="7.11065">
        <ele>154.19999694824</ele>
        <time>2022-03-12T09:05:19.000Z</time>
      </trkpt>
      <trkpt lat="43.65267" lon="7.11065">
        <ele>155</ele>
        <time>2022-03-12T09:05:22.000Z</time>
      </trkpt>
      <trkpt lat="43.65267" lon="7.11065">
        <ele>155.39999389648</ele>
        <time>2022-03-12T09:05:25.000Z</time>
      </trkpt>
      <trkpt lat="43.65266" lon="7.11062">
        <ele>155.60000610352</ele>
        <time>2022-03-12T09:05:30.000Z</time>
      </trkpt>
      <trkpt lat="43.65263" lon="7.11061">
        <ele>155.80000305176</ele>
        <time>2022-03-12T09:05:32.000Z</time>
      </trkpt>
      <trkpt lat="43.65258" lon="7.11061">
        <ele>156</ele>
        <time>2022-03-12T09:05:34.000Z</time>
      </trkpt>
      <trkpt lat="43.65256" lon="7.11058">
        <ele>156.60000610352</ele>
        <time>2022-03-12T09:05:36.000Z</time>
      </trkpt>
      <trkpt lat="43.65254" lon="7.11057">
        <ele>157</ele>
        <time>2022-03-12T09:05:37.000Z</time>
      </trkpt>
      <trkpt lat="43.65249" lon="7.11058">
        <ele>158.39999389648</ele>
        <time>2022-03-12T09:05:39.000Z</time>
      </trkpt>
      <trkpt lat="43.65247" lon="7.11054">
        <ele>159.19999694824</ele>
        <time>2022-03-12T09:05:40.000Z</time>
      </trkpt>
      <trkpt lat="43.65247" lon="7.1105">
        <ele>159.80000305176</ele>
        <time>2022-03-12T09:05:41.000Z</time>
      </trkpt>
      <trkpt lat="43.65243" lon="7.11047">
        <ele>161</ele>
        <time>2022-03-12T09:05:43.000Z</time>
      </trkpt>
      <trkpt lat="43.65239" lon="7.11042">
        <ele>161.80000305176</ele>
        <time>2022-03-12T09:05:45.000Z</time>
      </trkpt>
      <trkpt lat="43.65236" lon="7.11041">
        <ele>162.39999389648</ele>
        <time>2022-03-12T09:05:46.000Z</time>
      </trkpt>
      <trkpt lat="43.65227" lon="7.11035">
        <ele>163.80000305176</ele>
        <time>2022-03-12T09:05:49.000Z</time>
      </trkpt>
      <trkpt lat="43.65217" lon="7.1103">
        <ele>165</ele>
        <time>2022-03-12T09:05:53.000Z</time>
      </trkpt>
      <trkpt lat="43.65214" lon="7.11028">
        <ele>165.19999694824</ele>
        <time>2022-03-12T09:05:54.000Z</time>
      </trkpt>
      <trkpt lat="43.65209" lon="7.11023">
        <ele>166</ele>
        <time>2022-03-12T09:05:56.000Z</time>
      </trkpt>
      <trkpt lat="43.65204" lon="7.11016">
        <ele>167.60000610352</ele>
        <time>2022-03-12T09:05:59.000Z</time>
      </trkpt>
      <trkpt lat="43.65202" lon="7.11012">
        <ele>168.60000610352</ele>
        <time>2022-03-12T09:06:01.000Z</time>
      </trkpt>
      <trkpt lat="43.65198" lon="7.11008">
        <ele>169.60000610352</ele>
        <time>2022-03-12T09:06:03.000Z</time>
      </trkpt>
      <trkpt lat="43.65196" lon="7.11006">
        <ele>170.19999694824</ele>
        <time>2022-03-12T09:06:04.000Z</time>
      </trkpt>
      <trkpt lat="43.65194" lon="7.11002">
        <ele>170.60000610352</ele>
        <time>2022-03-12T09:06:06.000Z</time>
      </trkpt>
      <trkpt lat="43.65193" lon="7.10995">
        <ele>172.19999694824</ele>
        <time>2022-03-12T09:06:09.000Z</time>
      </trkpt>
      <trkpt lat="43.65186" lon="7.10977">
        <ele>172.80000305176</ele>
        <time>2022-03-12T09:06:16.000Z</time>
      </trkpt>
      <trkpt lat="43.65179" lon="7.10967">
        <ele>172</ele>
        <time>2022-03-12T09:06:22.000Z</time>
      </trkpt>
      <trkpt lat="43.65172" lon="7.10961">
        <ele>173</ele>
        <time>2022-03-12T09:06:27.000Z</time>
      </trkpt>
      <trkpt lat="43.65168" lon="7.10961">
        <ele>173.39999389648</ele>
        <time>2022-03-12T09:06:29.000Z</time>
      </trkpt>
      <trkpt lat="43.65165" lon="7.10961">
        <ele>174</ele>
        <time>2022-03-12T09:06:31.000Z</time>
      </trkpt>
      <trkpt lat="43.65163" lon="7.1096">
        <ele>174.19999694824</ele>
        <time>2022-03-12T09:06:32.000Z</time>
      </trkpt>
      <trkpt lat="43.65162" lon="7.10959">
        <ele>174.60000610352</ele>
        <time>2022-03-12T09:06:33.000Z</time>
      </trkpt>
      <trkpt lat="43.65159" lon="7.10957">
        <ele>174.80000305176</ele>
        <time>2022-03-12T09:06:35.000Z</time>
      </trkpt>
      <trkpt lat="43.65156" lon="7.10956">
        <ele>174.60000610352</ele>
        <time>2022-03-12T09:06:38.000Z</time>
      </trkpt>
      <trkpt lat="43.65149" lon="7.10951">
        <ele>174</ele>
        <time>2022-03-12T09:06:43.000Z</time>
      </trkpt>
      <trkpt lat="43.65143" lon="7.10946">
        <ele>173.39999389648</ele>
        <time>2022-03-12T09:06:46.000Z</time>
      </trkpt>
      <trkpt lat="43.65142" lon="7.10942">
        <ele>172.80000305176</ele>
        <time>2022-03-12T09:06:47.000Z</time>
      </trkpt>
      <trkpt lat="43.6514" lon="7.10938">
        <ele>172.19999694824</ele>
        <time>2022-03-12T09:06:48.000Z</time>
      </trkpt>
      <trkpt lat="43.65142" lon="7.10929">
        <ele>170.80000305176</ele>
        <time>2022-03-12T09:06:50.000Z</time>
      </trkpt>
      <trkpt lat="43.65142" lon="7.10924">
        <ele>170.19999694824</ele>
        <time>2022-03-12T09:06:51.000Z</time>
      </trkpt>
      <trkpt lat="43.65142" lon="7.10918">
        <ele>169.60000610352</ele>
        <time>2022-03-12T09:06:52.000Z</time>
      </trkpt>
      <trkpt lat="43.65137" lon="7.10907">
        <ele>168.39999389648</ele>
        <time>2022-03-12T09:06:55.000Z</time>
      </trkpt>
      <trkpt lat="43.65136" lon="7.10906">
        <ele>167.19999694824</ele>
        <time>2022-03-12T09:06:58.000Z</time>
      </trkpt>
      <trkpt lat="43.65136" lon="7.10907">
        <ele>167</ele>
        <time>2022-03-12T09:07:02.000Z</time>
      </trkpt>
      <trkpt lat="43.65136" lon="7.10907">
        <ele>166.19999694824</ele>
        <time>2022-03-12T09:07:07.000Z</time>
      </trkpt>
      <trkpt lat="43.65132" lon="7.10905">
        <ele>166.60000610352</ele>
        <time>2022-03-12T09:07:12.000Z</time>
      </trkpt>
      <trkpt lat="43.65125" lon="7.10894">
        <ele>167.19999694824</ele>
        <time>2022-03-12T09:07:16.000Z</time>
      </trkpt>
      <trkpt lat="43.65117" lon="7.10876">
        <ele>167.39999389648</ele>
        <time>2022-03-12T09:07:20.000Z</time>
      </trkpt>
      <trkpt lat="43.65107" lon="7.10852">
        <ele>166.60000610352</ele>
        <time>2022-03-12T09:07:24.000Z</time>
      </trkpt>
      <trkpt lat="43.65106" lon="7.10847">
        <ele>166.19999694824</ele>
        <time>2022-03-12T09:07:25.000Z</time>
      </trkpt>
      <trkpt lat="43.65106" lon="7.10843">
        <ele>165.60000610352</ele>
        <time>2022-03-12T09:07:26.000Z</time>
      </trkpt>
      <trkpt lat="43.65104" lon="7.10833">
        <ele>164.60000610352</ele>
        <time>2022-03-12T09:07:28.000Z</time>
      </trkpt>
      <trkpt lat="43.65102" lon="7.10833">
        <ele>164.19999694824</ele>
        <time>2022-03-12T09:07:29.000Z</time>
      </trkpt>
      <trkpt lat="43.65095" lon="7.10821">
        <ele>163.19999694824</ele>
        <time>2022-03-12T09:07:31.000Z</time>
      </trkpt>
      <trkpt lat="43.65093" lon="7.10814">
        <ele>162.19999694824</ele>
        <time>2022-03-12T09:07:32.000Z</time>
      </trkpt>
      <trkpt lat="43.65091" lon="7.10806">
        <ele>161.80000305176</ele>
        <time>2022-03-12T09:07:33.000Z</time>
      </trkpt>
      <trkpt lat="43.65084" lon="7.10786">
        <ele>160.19999694824</ele>
        <time>2022-03-12T09:07:36.000Z</time>
      </trkpt>
      <trkpt lat="43.65082" lon="7.10779">
        <ele>159.60000610352</ele>
        <time>2022-03-12T09:07:37.000Z</time>
      </trkpt>
      <trkpt lat="43.65078" lon="7.1077">
        <ele>158.80000305176</ele>
        <time>2022-03-12T09:07:39.000Z</time>
      </trkpt>
      <trkpt lat="43.65076" lon="7.10767">
        <ele>158.39999389648</ele>
        <time>2022-03-12T09:07:40.000Z</time>
      </trkpt>
      <trkpt lat="43.65072" lon="7.10754">
        <ele>158.60000610352</ele>
        <time>2022-03-12T09:07:43.000Z</time>
      </trkpt>
      <trkpt lat="43.65071" lon="7.10752">
        <ele>158.80000305176</ele>
        <time>2022-03-12T09:07:44.000Z</time>
      </trkpt>
      <trkpt lat="43.6507" lon="7.1075">
        <ele>159</ele>
        <time>2022-03-12T09:07:45.000Z</time>
      </trkpt>
      <trkpt lat="43.65063" lon="7.10744">
        <ele>159.60000610352</ele>
        <time>2022-03-12T09:07:48.000Z</time>
      </trkpt>
      <trkpt lat="43.65062" lon="7.1074">
        <ele>159.80000305176</ele>
        <time>2022-03-12T09:07:49.000Z</time>
      </trkpt>
      <trkpt lat="43.65062" lon="7.1074">
        <ele>160.60000610352</ele>
        <time>2022-03-12T09:07:52.000Z</time>
      </trkpt>
      <trkpt lat="43.65062" lon="7.1074">
        <ele>160.80000305176</ele>
        <time>2022-03-12T09:07:53.000Z</time>
      </trkpt>
      <trkpt lat="43.65061" lon="7.10739">
        <ele>161.39999389648</ele>
        <time>2022-03-12T09:07:59.000Z</time>
      </trkpt>
      <trkpt lat="43.65059" lon="7.10737">
        <ele>161.60000610352</ele>
        <time>2022-03-12T09:08:06.000Z</time>
      </trkpt>
      <trkpt lat="43.65058" lon="7.10735">
        <ele>161.60000610352</ele>
        <time>2022-03-12T09:08:07.000Z</time>
      </trkpt>
      <trkpt lat="43.65057" lon="7.1073">
        <ele>162</ele>
        <time>2022-03-12T09:08:09.000Z</time>
      </trkpt>
      <trkpt lat="43.65054" lon="7.10729">
        <ele>162.19999694824</ele>
        <time>2022-03-12T09:08:10.000Z</time>
      </trkpt>
      <trkpt lat="43.65052" lon="7.10728">
        <ele>162.60000610352</ele>
        <time>2022-03-12T09:08:11.000Z</time>
      </trkpt>
      <trkpt lat="43.65049" lon="7.1072">
        <ele>163.39999389648</ele>
        <time>2022-03-12T09:08:14.000Z</time>
      </trkpt>
      <trkpt lat="43.65048" lon="7.10718">
        <ele>164</ele>
        <time>2022-03-12T09:08:15.000Z</time>
      </trkpt>
      <trkpt lat="43.65048" lon="7.1071">
        <ele>164.80000305176</ele>
        <time>2022-03-12T09:08:17.000Z</time>
      </trkpt>
      <trkpt lat="43.65049" lon="7.10706">
        <ele>165.19999694824</ele>
        <time>2022-03-12T09:08:18.000Z</time>
      </trkpt>
      <trkpt lat="43.6505" lon="7.10698">
        <ele>165.80000305176</ele>
        <time>2022-03-12T09:08:20.000Z</time>
      </trkpt>
      <trkpt lat="43.65048" lon="7.10684">
        <ele>166.19999694824</ele>
        <time>2022-03-12T09:08:23.000Z</time>
      </trkpt>
      <trkpt lat="43.65047" lon="7.10679">
        <ele>166.19999694824</ele>
        <time>2022-03-12T09:08:24.000Z</time>
      </trkpt>
      <trkpt lat="43.65038" lon="7.10666">
        <ele>166.39999389648</ele>
        <time>2022-03-12T09:08:28.000Z</time>
      </trkpt>
      <trkpt lat="43.65029" lon="7.10656">
        <ele>167</ele>
        <time>2022-03-12T09:08:31.000Z</time>
      </trkpt>
      <trkpt lat="43.65029" lon="7.10652">
        <ele>167.39999389648</ele>
        <time>2022-03-12T09:08:32.000Z</time>
      </trkpt>
      <trkpt lat="43.65026" lon="7.10643">
        <ele>168.19999694824</ele>
        <time>2022-03-12T09:08:34.000Z</time>
      </trkpt>
      <trkpt lat="43.65021" lon="7.10636">
        <ele>168.80000305176</ele>
        <time>2022-03-12T09:08:36.000Z</time>
      </trkpt>
      <trkpt lat="43.65018" lon="7.10633">
        <ele>168.80000305176</ele>
        <time>2022-03-12T09:08:37.000Z</time>
      </trkpt>
      <trkpt lat="43.65014" lon="7.10626">
        <ele>169.39999389648</ele>
        <time>2022-03-12T09:08:39.000Z</time>
      </trkpt>
      <trkpt lat="43.65012" lon="7.10622">
        <ele>169.80000305176</ele>
        <time>2022-03-12T09:08:40.000Z</time>
      </trkpt>
      <trkpt lat="43.65007" lon="7.10616">
        <ele>170.60000610352</ele>
        <time>2022-03-12T09:08:42.000Z</time>
      </trkpt>
      <trkpt lat="43.65001" lon="7.1061">
        <ele>171.80000305176</ele>
        <time>2022-03-12T09:08:45.000Z</time>
      </trkpt>
      <trkpt lat="43.64997" lon="7.10606">
        <ele>172.39999389648</ele>
        <time>2022-03-12T09:08:47.000Z</time>
      </trkpt>
      <trkpt lat="43.64996" lon="7.10604">
        <ele>173</ele>
        <time>2022-03-12T09:08:48.000Z</time>
      </trkpt>
      <trkpt lat="43.64994" lon="7.10599">
        <ele>174</ele>
        <time>2022-03-12T09:08:50.000Z</time>
      </trkpt>
      <trkpt lat="43.6499" lon="7.10595">
        <ele>174.80000305176</ele>
        <time>2022-03-12T09:08:52.000Z</time>
      </trkpt>
      <trkpt lat="43.64987" lon="7.10595">
        <ele>175.19999694824</ele>
        <time>2022-03-12T09:08:53.000Z</time>
      </trkpt>
      <trkpt lat="43.64981" lon="7.10591">
        <ele>176.39999389648</ele>
        <time>2022-03-12T09:08:56.000Z</time>
      </trkpt>
      <trkpt lat="43.6498" lon="7.10588">
        <ele>177</ele>
        <time>2022-03-12T09:08:57.000Z</time>
      </trkpt>
      <trkpt lat="43.6498" lon="7.10586">
        <ele>177.39999389648</ele>
        <time>2022-03-12T09:08:58.000Z</time>
      </trkpt>
      <trkpt lat="43.64981" lon="7.10581">
        <ele>178.60000610352</ele>
        <time>2022-03-12T09:09:00.000Z</time>
      </trkpt>
      <trkpt lat="43.6498" lon="7.10578">
        <ele>179</ele>
        <time>2022-03-12T09:09:01.000Z</time>
      </trkpt>
      <trkpt lat="43.64982" lon="7.10565">
        <ele>179.60000610352</ele>
        <time>2022-03-12T09:09:05.000Z</time>
      </trkpt>
      <trkpt lat="43.64979" lon="7.10547">
        <ele>179.60000610352</ele>
        <time>2022-03-12T09:09:11.000Z</time>
      </trkpt>
      <trkpt lat="43.64976" lon="7.10538">
        <ele>181</ele>
        <time>2022-03-12T09:09:14.000Z</time>
      </trkpt>
      <trkpt lat="43.64973" lon="7.10534">
        <ele>181.60000610352</ele>
        <time>2022-03-12T09:09:16.000Z</time>
      </trkpt>
      <trkpt lat="43.64971" lon="7.10532">
        <ele>181.60000610352</ele>
        <time>2022-03-12T09:09:17.000Z</time>
      </trkpt>
      <trkpt lat="43.64963" lon="7.10528">
        <ele>181.80000305176</ele>
        <time>2022-03-12T09:09:21.000Z</time>
      </trkpt>
      <trkpt lat="43.64959" lon="7.10526">
        <ele>182.39999389648</ele>
        <time>2022-03-12T09:09:23.000Z</time>
      </trkpt>
      <trkpt lat="43.64954" lon="7.10524">
        <ele>183.39999389648</ele>
        <time>2022-03-12T09:09:25.000Z</time>
      </trkpt>
      <trkpt lat="43.64947" lon="7.10522">
        <ele>184.60000610352</ele>
        <time>2022-03-12T09:09:28.000Z</time>
      </trkpt>
      <trkpt lat="43.64941" lon="7.10519">
        <ele>185.19999694824</ele>
        <time>2022-03-12T09:09:31.000Z</time>
      </trkpt>
      <trkpt lat="43.64939" lon="7.1052">
        <ele>185.39999389648</ele>
        <time>2022-03-12T09:09:32.000Z</time>
      </trkpt>
      <trkpt lat="43.64937" lon="7.10521">
        <ele>185.80000305176</ele>
        <time>2022-03-12T09:09:33.000Z</time>
      </trkpt>
      <trkpt lat="43.64934" lon="7.1052">
        <ele>186</ele>
        <time>2022-03-12T09:09:34.000Z</time>
      </trkpt>
      <trkpt lat="43.64933" lon="7.1052">
        <ele>186</ele>
        <time>2022-03-12T09:09:35.000Z</time>
      </trkpt>
      <trkpt lat="43.64928" lon="7.10519">
        <ele>186.80000305176</ele>
        <time>2022-03-12T09:09:37.000Z</time>
      </trkpt>
      <trkpt lat="43.64922" lon="7.10517">
        <ele>187.39999389648</ele>
        <time>2022-03-12T09:09:40.000Z</time>
      </trkpt>
      <trkpt lat="43.64914" lon="7.10517">
        <ele>188</ele>
        <time>2022-03-12T09:09:43.000Z</time>
      </trkpt>
      <trkpt lat="43.64908" lon="7.10518">
        <ele>188.60000610352</ele>
        <time>2022-03-12T09:09:46.000Z</time>
      </trkpt>
      <trkpt lat="43.64903" lon="7.10517">
        <ele>189.19999694824</ele>
        <time>2022-03-12T09:09:48.000Z</time>
      </trkpt>
      <trkpt lat="43.64901" lon="7.10518">
        <ele>189.60000610352</ele>
        <time>2022-03-12T09:09:49.000Z</time>
      </trkpt>
      <trkpt lat="43.64899" lon="7.10519">
        <ele>189.60000610352</ele>
        <time>2022-03-12T09:09:50.000Z</time>
      </trkpt>
      <trkpt lat="43.64894" lon="7.10522">
        <ele>190.19999694824</ele>
        <time>2022-03-12T09:09:52.000Z</time>
      </trkpt>
      <trkpt lat="43.64882" lon="7.10526">
        <ele>190.60000610352</ele>
        <time>2022-03-12T09:09:57.000Z</time>
      </trkpt>
      <trkpt lat="43.64872" lon="7.10528">
        <ele>191.19999694824</ele>
        <time>2022-03-12T09:10:01.000Z</time>
      </trkpt>
      <trkpt lat="43.64867" lon="7.10527">
        <ele>192</ele>
        <time>2022-03-12T09:10:03.000Z</time>
      </trkpt>
      <trkpt lat="43.64865" lon="7.10526">
        <ele>192.19999694824</ele>
        <time>2022-03-12T09:10:04.000Z</time>
      </trkpt>
      <trkpt lat="43.64856" lon="7.10524">
        <ele>193.60000610352</ele>
        <time>2022-03-12T09:10:08.000Z</time>
      </trkpt>
      <trkpt lat="43.64854" lon="7.10524">
        <ele>193.60000610352</ele>
        <time>2022-03-12T09:10:09.000Z</time>
      </trkpt>
      <trkpt lat="43.64846" lon="7.10529">
        <ele>193.80000305176</ele>
        <time>2022-03-12T09:10:14.000Z</time>
      </trkpt>
      <trkpt lat="43.64844" lon="7.10529">
        <ele>193.80000305176</ele>
        <time>2022-03-12T09:10:15.000Z</time>
      </trkpt>
      <trkpt lat="43.64839" lon="7.10524">
        <ele>194.60000610352</ele>
        <time>2022-03-12T09:10:18.000Z</time>
      </trkpt>
      <trkpt lat="43.64836" lon="7.10521">
        <ele>195</ele>
        <time>2022-03-12T09:10:20.000Z</time>
      </trkpt>
      <trkpt lat="43.64829" lon="7.10514">
        <ele>194.39999389648</ele>
        <time>2022-03-12T09:10:24.000Z</time>
      </trkpt>
      <trkpt lat="43.6482" lon="7.1051">
        <ele>193.80000305176</ele>
        <time>2022-03-12T09:10:29.000Z</time>
      </trkpt>
      <trkpt lat="43.64803" lon="7.10495">
        <ele>195.19999694824</ele>
        <time>2022-03-12T09:10:37.000Z</time>
      </trkpt>
      <trkpt lat="43.64795" lon="7.10484">
        <ele>195.80000305176</ele>
        <time>2022-03-12T09:10:42.000Z</time>
      </trkpt>
      <trkpt lat="43.64791" lon="7.1048">
        <ele>196.19999694824</ele>
        <time>2022-03-12T09:10:44.000Z</time>
      </trkpt>
      <trkpt lat="43.64782" lon="7.10465">
        <ele>196.80000305176</ele>
        <time>2022-03-12T09:10:50.000Z</time>
      </trkpt>
      <trkpt lat="43.6478" lon="7.10463">
        <ele>196.80000305176</ele>
        <time>2022-03-12T09:10:51.000Z</time>
      </trkpt>
      <trkpt lat="43.64774" lon="7.10456">
        <ele>196.60000610352</ele>
        <time>2022-03-12T09:10:55.000Z</time>
      </trkpt>
      <trkpt lat="43.64773" lon="7.10453">
        <ele>196.80000305176</ele>
        <time>2022-03-12T09:10:56.000Z</time>
      </trkpt>
      <trkpt lat="43.64768" lon="7.10442">
        <ele>197</ele>
        <time>2022-03-12T09:11:01.000Z</time>
      </trkpt>
      <trkpt lat="43.64767" lon="7.1044">
        <ele>196.80000305176</ele>
        <time>2022-03-12T09:11:02.000Z</time>
      </trkpt>
      <trkpt lat="43.64759" lon="7.10424">
        <ele>197.39999389648</ele>
        <time>2022-03-12T09:11:08.000Z</time>
      </trkpt>
      <trkpt lat="43.64755" lon="7.10418">
        <ele>198</ele>
        <time>2022-03-12T09:11:11.000Z</time>
      </trkpt>
      <trkpt lat="43.64752" lon="7.10415">
        <ele>199</ele>
        <time>2022-03-12T09:11:13.000Z</time>
      </trkpt>
      <trkpt lat="43.64749" lon="7.10412">
        <ele>200</ele>
        <time>2022-03-12T09:11:15.000Z</time>
      </trkpt>
      <trkpt lat="43.64749" lon="7.1041">
        <ele>200.39999389648</ele>
        <time>2022-03-12T09:11:16.000Z</time>
      </trkpt>
      <trkpt lat="43.64745" lon="7.10404">
        <ele>201.80000305176</ele>
        <time>2022-03-12T09:11:19.000Z</time>
      </trkpt>
      <trkpt lat="43.64741" lon="7.104">
        <ele>203</ele>
        <time>2022-03-12T09:11:22.000Z</time>
      </trkpt>
      <trkpt lat="43.6473" lon="7.10389">
        <ele>204</ele>
        <time>2022-03-12T09:11:29.000Z</time>
      </trkpt>
      <trkpt lat="43.64729" lon="7.10387">
        <ele>204.39999389648</ele>
        <time>2022-03-12T09:11:30.000Z</time>
      </trkpt>
      <trkpt lat="43.64725" lon="7.10377">
        <ele>205.60000610352</ele>
        <time>2022-03-12T09:11:34.000Z</time>
      </trkpt>
      <trkpt lat="43.6472" lon="7.10368">
        <ele>205.39999389648</ele>
        <time>2022-03-12T09:11:37.000Z</time>
      </trkpt>
      <trkpt lat="43.64719" lon="7.1036">
        <ele>205.80000305176</ele>
        <time>2022-03-12T09:11:40.000Z</time>
      </trkpt>
      <trkpt lat="43.64716" lon="7.10343">
        <ele>206.19999694824</ele>
        <time>2022-03-12T09:11:46.000Z</time>
      </trkpt>
      <trkpt lat="43.64714" lon="7.10338">
        <ele>206.60000610352</ele>
        <time>2022-03-12T09:11:48.000Z</time>
      </trkpt>
      <trkpt lat="43.64711" lon="7.10328">
        <ele>207.60000610352</ele>
        <time>2022-03-12T09:11:52.000Z</time>
      </trkpt>
      <trkpt lat="43.6471" lon="7.10322">
        <ele>208.60000610352</ele>
        <time>2022-03-12T09:11:56.000Z</time>
      </trkpt>
      <trkpt lat="43.6471" lon="7.10321">
        <ele>208.60000610352</ele>
        <time>2022-03-12T09:11:57.000Z</time>
      </trkpt>
      <trkpt lat="43.6471" lon="7.10315">
        <ele>208.80000305176</ele>
        <time>2022-03-12T09:12:02.000Z</time>
      </trkpt>
      <trkpt lat="43.64711" lon="7.10311">
        <ele>209</ele>
        <time>2022-03-12T09:12:04.000Z</time>
      </trkpt>
      <trkpt lat="43.6471" lon="7.10306">
        <ele>209.19999694824</ele>
        <time>2022-03-12T09:12:07.000Z</time>
      </trkpt>
      <trkpt lat="43.64706" lon="7.103">
        <ele>209.60000610352</ele>
        <time>2022-03-12T09:12:13.000Z</time>
      </trkpt>
      <trkpt lat="43.64702" lon="7.103">
        <ele>209.80000305176</ele>
        <time>2022-03-12T09:12:15.000Z</time>
      </trkpt>
      <trkpt lat="43.64696" lon="7.103">
        <ele>210.19999694824</ele>
        <time>2022-03-12T09:12:18.000Z</time>
      </trkpt>
      <trkpt lat="43.64686" lon="7.10298">
        <ele>210.80000305176</ele>
        <time>2022-03-12T09:12:23.000Z</time>
      </trkpt>
      <trkpt lat="43.64684" lon="7.10297">
        <ele>211</ele>
        <time>2022-03-12T09:12:24.000Z</time>
      </trkpt>
      <trkpt lat="43.6468" lon="7.10294">
        <ele>211.80000305176</ele>
        <time>2022-03-12T09:12:29.000Z</time>
      </trkpt>
      <trkpt lat="43.6468" lon="7.10294">
        <ele>212</ele>
        <time>2022-03-12T09:12:30.000Z</time>
      </trkpt>
      <trkpt lat="43.6468" lon="7.10294">
        <ele>212</ele>
        <time>2022-03-12T09:12:42.000Z</time>
      </trkpt>
      <trkpt lat="43.64681" lon="7.10292">
        <ele>212</ele>
        <time>2022-03-12T09:13:00.000Z</time>
      </trkpt>
      <trkpt lat="43.64682" lon="7.1029">
        <ele>212.19999694824</ele>
        <time>2022-03-12T09:13:01.000Z</time>
      </trkpt>
      <trkpt lat="43.64687" lon="7.10293">
        <ele>211.80000305176</ele>
        <time>2022-03-12T09:13:05.000Z</time>
      </trkpt>
      <trkpt lat="43.64691" lon="7.10296">
        <ele>211</ele>
        <time>2022-03-12T09:13:07.000Z</time>
      </trkpt>
      <trkpt lat="43.64693" lon="7.10297">
        <ele>210.80000305176</ele>
        <time>2022-03-12T09:13:08.000Z</time>
      </trkpt>
      <trkpt lat="43.64698" lon="7.10298">
        <ele>210.60000610352</ele>
        <time>2022-03-12T09:13:10.000Z</time>
      </trkpt>
      <trkpt lat="43.64714" lon="7.10301">
        <ele>209</ele>
        <time>2022-03-12T09:13:16.000Z</time>
      </trkpt>
      <trkpt lat="43.64718" lon="7.10306">
        <ele>207.80000305176</ele>
        <time>2022-03-12T09:13:19.000Z</time>
      </trkpt>
      <trkpt lat="43.64719" lon="7.10311">
        <ele>207</ele>
        <time>2022-03-12T09:13:22.000Z</time>
      </trkpt>
      <trkpt lat="43.64719" lon="7.10312">
        <ele>206.39999389648</ele>
        <time>2022-03-12T09:13:23.000Z</time>
      </trkpt>
      <trkpt lat="43.64719" lon="7.10315">
        <ele>206.19999694824</ele>
        <time>2022-03-12T09:13:24.000Z</time>
      </trkpt>
      <trkpt lat="43.64717" lon="7.1032">
        <ele>207</ele>
        <time>2022-03-12T09:13:27.000Z</time>
      </trkpt>
      <trkpt lat="43.64716" lon="7.10321">
        <ele>207.39999389648</ele>
        <time>2022-03-12T09:13:28.000Z</time>
      </trkpt>
      <trkpt lat="43.64713" lon="7.10322">
        <ele>207.60000610352</ele>
        <time>2022-03-12T09:13:30.000Z</time>
      </trkpt>
      <trkpt lat="43.64711" lon="7.10323">
        <ele>207.80000305176</ele>
        <time>2022-03-12T09:13:32.000Z</time>
      </trkpt>
      <trkpt lat="43.64711" lon="7.10323">
        <ele>208.19999694824</ele>
        <time>2022-03-12T09:13:38.000Z</time>
      </trkpt>
      <trkpt lat="43.64711" lon="7.10323">
        <ele>208</ele>
        <time>2022-03-12T09:14:07.000Z</time>
      </trkpt>
      <trkpt lat="43.64711" lon="7.10324">
        <ele>208.19999694824</ele>
        <time>2022-03-12T09:14:34.000Z</time>
      </trkpt>
      <trkpt lat="43.64707" lon="7.10326">
        <ele>208.39999389648</ele>
        <time>2022-03-12T09:14:42.000Z</time>
      </trkpt>
      <trkpt lat="43.64705" lon="7.10327">
        <ele>208.39999389648</ele>
        <time>2022-03-12T09:14:43.000Z</time>
      </trkpt>
      <trkpt lat="43.64701" lon="7.10324">
        <ele>208.60000610352</ele>
        <time>2022-03-12T09:14:45.000Z</time>
      </trkpt>
      <trkpt lat="43.64697" lon="7.10323">
        <ele>209</ele>
        <time>2022-03-12T09:14:47.000Z</time>
      </trkpt>
      <trkpt lat="43.64688" lon="7.10327">
        <ele>209.19999694824</ele>
        <time>2022-03-12T09:14:51.000Z</time>
      </trkpt>
      <trkpt lat="43.64684" lon="7.10326">
        <ele>209.60000610352</ele>
        <time>2022-03-12T09:14:53.000Z</time>
      </trkpt>
      <trkpt lat="43.64682" lon="7.10326">
        <ele>209.80000305176</ele>
        <time>2022-03-12T09:14:54.000Z</time>
      </trkpt>
      <trkpt lat="43.64677" lon="7.10327">
        <ele>210</ele>
        <time>2022-03-12T09:14:57.000Z</time>
      </trkpt>
      <trkpt lat="43.64675" lon="7.10323">
        <ele>210</ele>
        <time>2022-03-12T09:15:00.000Z</time>
      </trkpt>
      <trkpt lat="43.64673" lon="7.10321">
        <ele>209.60000610352</ele>
        <time>2022-03-12T09:15:02.000Z</time>
      </trkpt>
      <trkpt lat="43.64674" lon="7.10321">
        <ele>209.60000610352</ele>
        <time>2022-03-12T09:15:06.000Z</time>
      </trkpt>
      <trkpt lat="43.64676" lon="7.10324">
        <ele>209.19999694824</ele>
        <time>2022-03-12T09:15:12.000Z</time>
      </trkpt>
      <trkpt lat="43.64679" lon="7.10326">
        <ele>208.80000305176</ele>
        <time>2022-03-12T09:15:18.000Z</time>
      </trkpt>
      <trkpt lat="43.64683" lon="7.10327">
        <ele>209</ele>
        <time>2022-03-12T09:15:21.000Z</time>
      </trkpt>
      <trkpt lat="43.64684" lon="7.10331">
        <ele>209</ele>
        <time>2022-03-12T09:15:24.000Z</time>
      </trkpt>
      <trkpt lat="43.64685" lon="7.10334">
        <ele>208</ele>
        <time>2022-03-12T09:15:28.000Z</time>
      </trkpt>
      <trkpt lat="43.64686" lon="7.10336">
        <ele>208.19999694824</ele>
        <time>2022-03-12T09:15:30.000Z</time>
      </trkpt>
      <trkpt lat="43.64683" lon="7.10343">
        <ele>208.39999389648</ele>
        <time>2022-03-12T09:15:35.000Z</time>
      </trkpt>
      <trkpt lat="43.6468" lon="7.10348">
        <ele>208.60000610352</ele>
        <time>2022-03-12T09:15:40.000Z</time>
      </trkpt>
      <trkpt lat="43.64678" lon="7.1035">
        <ele>208.19999694824</ele>
        <time>2022-03-12T09:15:47.000Z</time>
      </trkpt>
      <trkpt lat="43.64674" lon="7.10358">
        <ele>208</ele>
        <time>2022-03-12T09:15:51.000Z</time>
      </trkpt>
      <trkpt lat="43.64672" lon="7.10359">
        <ele>207.80000305176</ele>
        <time>2022-03-12T09:15:52.000Z</time>
      </trkpt>
      <trkpt lat="43.64671" lon="7.10359">
        <ele>207.80000305176</ele>
        <time>2022-03-12T09:15:55.000Z</time>
      </trkpt>
      <trkpt lat="43.64669" lon="7.10359">
        <ele>207.60000610352</ele>
        <time>2022-03-12T09:15:56.000Z</time>
      </trkpt>
      <trkpt lat="43.64667" lon="7.10354">
        <ele>207.80000305176</ele>
        <time>2022-03-12T09:16:00.000Z</time>
      </trkpt>
      <trkpt lat="43.64663" lon="7.10352">
        <ele>207.39999389648</ele>
        <time>2022-03-12T09:16:03.000Z</time>
      </trkpt>
      <trkpt lat="43.64654" lon="7.1035">
        <ele>207</ele>
        <time>2022-03-12T09:16:07.000Z</time>
      </trkpt>
      <trkpt lat="43.64652" lon="7.10347">
        <ele>207</ele>
        <time>2022-03-12T09:16:08.000Z</time>
      </trkpt>
      <trkpt lat="43.6465" lon="7.10342">
        <ele>206.60000610352</ele>
        <time>2022-03-12T09:16:10.000Z</time>
      </trkpt>
      <trkpt lat="43.64648" lon="7.10338">
        <ele>206.60000610352</ele>
        <time>2022-03-12T09:16:11.000Z</time>
      </trkpt>
      <trkpt lat="43.64632" lon="7.10322">
        <ele>206.60000610352</ele>
        <time>2022-03-12T09:16:16.000Z</time>
      </trkpt>
      <trkpt lat="43.64629" lon="7.10318">
        <ele>206.80000305176</ele>
        <time>2022-03-12T09:16:17.000Z</time>
      </trkpt>
      <trkpt lat="43.64622" lon="7.10303">
        <ele>206.80000305176</ele>
        <time>2022-03-12T09:16:20.000Z</time>
      </trkpt>
      <trkpt lat="43.64622" lon="7.10282">
        <ele>206.80000305176</ele>
        <time>2022-03-12T09:16:24.000Z</time>
      </trkpt>
      <trkpt lat="43.64621" lon="7.10272">
        <ele>207.19999694824</ele>
        <time>2022-03-12T09:16:26.000Z</time>
      </trkpt>
      <trkpt lat="43.6462" lon="7.10267">
        <ele>207.60000610352</ele>
        <time>2022-03-12T09:16:27.000Z</time>
      </trkpt>
      <trkpt lat="43.6462" lon="7.10252">
        <ele>208.80000305176</ele>
        <time>2022-03-12T09:16:30.000Z</time>
      </trkpt>
      <trkpt lat="43.6462" lon="7.10246">
        <ele>209.19999694824</ele>
        <time>2022-03-12T09:16:31.000Z</time>
      </trkpt>
      <trkpt lat="43.64619" lon="7.10232">
        <ele>210</ele>
        <time>2022-03-12T09:16:34.000Z</time>
      </trkpt>
      <trkpt lat="43.64615" lon="7.10225">
        <ele>209.80000305176</ele>
        <time>2022-03-12T09:16:36.000Z</time>
      </trkpt>
      <trkpt lat="43.64612" lon="7.10223">
        <ele>210</ele>
        <time>2022-03-12T09:16:37.000Z</time>
      </trkpt>
      <trkpt lat="43.64591" lon="7.10206">
        <ele>210.19999694824</ele>
        <time>2022-03-12T09:16:43.000Z</time>
      </trkpt>
      <trkpt lat="43.64585" lon="7.10198">
        <ele>210.39999389648</ele>
        <time>2022-03-12T09:16:45.000Z</time>
      </trkpt>
      <trkpt lat="43.64577" lon="7.10185">
        <ele>211</ele>
        <time>2022-03-12T09:16:48.000Z</time>
      </trkpt>
      <trkpt lat="43.64574" lon="7.10181">
        <ele>211.39999389648</ele>
        <time>2022-03-12T09:16:49.000Z</time>
      </trkpt>
      <trkpt lat="43.64571" lon="7.1018">
        <ele>211.39999389648</ele>
        <time>2022-03-12T09:16:50.000Z</time>
      </trkpt>
      <trkpt lat="43.64567" lon="7.10187">
        <ele>211.19999694824</ele>
        <time>2022-03-12T09:16:52.000Z</time>
      </trkpt>
      <trkpt lat="43.64563" lon="7.10196">
        <ele>210.60000610352</ele>
        <time>2022-03-12T09:16:54.000Z</time>
      </trkpt>
      <trkpt lat="43.64554" lon="7.1021">
        <ele>211.39999389648</ele>
        <time>2022-03-12T09:16:58.000Z</time>
      </trkpt>
      <trkpt lat="43.64551" lon="7.10209">
        <ele>211.80000305176</ele>
        <time>2022-03-12T09:16:59.000Z</time>
      </trkpt>
      <trkpt lat="43.64547" lon="7.10208">
        <ele>212.19999694824</ele>
        <time>2022-03-12T09:17:00.000Z</time>
      </trkpt>
      <trkpt lat="43.64543" lon="7.10207">
        <ele>212.60000610352</ele>
        <time>2022-03-12T09:17:01.000Z</time>
      </trkpt>
      <trkpt lat="43.64534" lon="7.10204">
        <ele>213.39999389648</ele>
        <time>2022-03-12T09:17:03.000Z</time>
      </trkpt>
      <trkpt lat="43.6453" lon="7.10202">
        <ele>213.80000305176</ele>
        <time>2022-03-12T09:17:04.000Z</time>
      </trkpt>
      <trkpt lat="43.64515" lon="7.10194">
        <ele>214.19999694824</ele>
        <time>2022-03-12T09:17:08.000Z</time>
      </trkpt>
      <trkpt lat="43.64498" lon="7.10189">
        <ele>214.60000610352</ele>
        <time>2022-03-12T09:17:12.000Z</time>
      </trkpt>
      <trkpt lat="43.6449" lon="7.10183">
        <ele>215</ele>
        <time>2022-03-12T09:17:14.000Z</time>
      </trkpt>
      <trkpt lat="43.64469" lon="7.1017">
        <ele>215.60000610352</ele>
        <time>2022-03-12T09:17:20.000Z</time>
      </trkpt>
      <trkpt lat="43.64465" lon="7.10169">
        <ele>215.80000305176</ele>
        <time>2022-03-12T09:17:21.000Z</time>
      </trkpt>
      <trkpt lat="43.64452" lon="7.10171">
        <ele>216.80000305176</ele>
        <time>2022-03-12T09:17:25.000Z</time>
      </trkpt>
      <trkpt lat="43.64449" lon="7.10169">
        <ele>217</ele>
        <time>2022-03-12T09:17:26.000Z</time>
      </trkpt>
      <trkpt lat="43.64441" lon="7.10166">
        <ele>217.80000305176</ele>
        <time>2022-03-12T09:17:29.000Z</time>
      </trkpt>
      <trkpt lat="43.64436" lon="7.10162">
        <ele>218.39999389648</ele>
        <time>2022-03-12T09:17:32.000Z</time>
      </trkpt>
      <trkpt lat="43.64432" lon="7.10156">
        <ele>218.80000305176</ele>
        <time>2022-03-12T09:17:35.000Z</time>
      </trkpt>
      <trkpt lat="43.64428" lon="7.10151">
        <ele>218.80000305176</ele>
        <time>2022-03-12T09:17:38.000Z</time>
      </trkpt>
      <trkpt lat="43.64417" lon="7.10144">
        <ele>218.39999389648</ele>
        <time>2022-03-12T09:17:42.000Z</time>
      </trkpt>
      <trkpt lat="43.64402" lon="7.10148">
        <ele>218</ele>
        <time>2022-03-12T09:17:47.000Z</time>
      </trkpt>
      <trkpt lat="43.644" lon="7.1015">
        <ele>217.80000305176</ele>
        <time>2022-03-12T09:17:48.000Z</time>
      </trkpt>
      <trkpt lat="43.64398" lon="7.10151">
        <ele>217</ele>
        <time>2022-03-12T09:17:52.000Z</time>
      </trkpt>
      <trkpt lat="43.64397" lon="7.10152">
        <ele>217</ele>
        <time>2022-03-12T09:18:05.000Z</time>
      </trkpt>
      <trkpt lat="43.64397" lon="7.10152">
        <ele>217</ele>
        <time>2022-03-12T09:18:24.000Z</time>
      </trkpt>
      <trkpt lat="43.64397" lon="7.10154">
        <ele>217.39999389648</ele>
        <time>2022-03-12T09:18:31.000Z</time>
      </trkpt>
      <trkpt lat="43.64394" lon="7.1016">
        <ele>217.19999694824</ele>
        <time>2022-03-12T09:18:34.000Z</time>
      </trkpt>
      <trkpt lat="43.64384" lon="7.10175">
        <ele>216.80000305176</ele>
        <time>2022-03-12T09:18:39.000Z</time>
      </trkpt>
      <trkpt lat="43.64383" lon="7.10178">
        <ele>216.80000305176</ele>
        <time>2022-03-12T09:18:40.000Z</time>
      </trkpt>
      <trkpt lat="43.6438" lon="7.10194">
        <ele>217</ele>
        <time>2022-03-12T09:18:45.000Z</time>
      </trkpt>
      <trkpt lat="43.64382" lon="7.10202">
        <ele>216.80000305176</ele>
        <time>2022-03-12T09:18:50.000Z</time>
      </trkpt>
      <trkpt lat="43.64383" lon="7.10205">
        <ele>217.19999694824</ele>
        <time>2022-03-12T09:18:52.000Z</time>
      </trkpt>
      <trkpt lat="43.64383" lon="7.10205">
        <ele>217.19999694824</ele>
        <time>2022-03-12T09:18:54.000Z</time>
      </trkpt>
      <trkpt lat="43.64383" lon="7.10204">
        <ele>218</ele>
        <time>2022-03-12T09:18:59.000Z</time>
      </trkpt>
      <trkpt lat="43.64383" lon="7.10204">
        <ele>218.19999694824</ele>
        <time>2022-03-12T09:19:03.000Z</time>
      </trkpt>
      <trkpt lat="43.64383" lon="7.10204">
        <ele>218.39999389648</ele>
        <time>2022-03-12T09:19:09.000Z</time>
      </trkpt>
      <trkpt lat="43.64383" lon="7.10203">
        <ele>219.19999694824</ele>
        <time>2022-03-12T09:19:12.000Z</time>
      </trkpt>
      <trkpt lat="43.64383" lon="7.10204">
        <ele>220</ele>
        <time>2022-03-12T09:19:16.000Z</time>
      </trkpt>
      <trkpt lat="43.64383" lon="7.10203">
        <ele>219.60000610352</ele>
        <time>2022-03-12T09:19:37.000Z</time>
      </trkpt>
      <trkpt lat="43.64382" lon="7.10201">
        <ele>218.80000305176</ele>
        <time>2022-03-12T09:19:43.000Z</time>
      </trkpt>
      <trkpt lat="43.64382" lon="7.102">
        <ele>219.19999694824</ele>
        <time>2022-03-12T09:19:52.000Z</time>
      </trkpt>
      <trkpt lat="43.64382" lon="7.102">
        <ele>218</ele>
        <time>2022-03-12T09:19:55.000Z</time>
      </trkpt>
      <trkpt lat="43.64382" lon="7.102">
        <ele>217</ele>
        <time>2022-03-12T09:19:57.000Z</time>
      </trkpt>
      <trkpt lat="43.64382" lon="7.102">
        <ele>218.19999694824</ele>
        <time>2022-03-12T09:20:01.000Z</time>
      </trkpt>
      <trkpt lat="43.64383" lon="7.10201">
        <ele>218.19999694824</ele>
        <time>2022-03-12T09:20:10.000Z</time>
      </trkpt>
      <trkpt lat="43.64382" lon="7.10201">
        <ele>218.19999694824</ele>
        <time>2022-03-12T09:20:11.000Z</time>
      </trkpt>
      <trkpt lat="43.64383" lon="7.102">
        <ele>218.39999389648</ele>
        <time>2022-03-12T09:20:18.000Z</time>
      </trkpt>
      <trkpt lat="43.64383" lon="7.10201">
        <ele>218.19999694824</ele>
        <time>2022-03-12T09:20:29.000Z</time>
      </trkpt>
      <trkpt lat="43.64383" lon="7.102">
        <ele>217.80000305176</ele>
        <time>2022-03-12T09:20:34.000Z</time>
      </trkpt>
      <trkpt lat="43.64383" lon="7.10201">
        <ele>217.80000305176</ele>
        <time>2022-03-12T09:20:41.000Z</time>
      </trkpt>
      <trkpt lat="43.64383" lon="7.10202">
        <ele>218</ele>
        <time>2022-03-12T09:20:48.000Z</time>
      </trkpt>
      <trkpt lat="43.64383" lon="7.10201">
        <ele>218.60000610352</ele>
        <time>2022-03-12T09:20:56.000Z</time>
      </trkpt>
      <trkpt lat="43.64384" lon="7.10203">
        <ele>218.39999389648</ele>
        <time>2022-03-12T09:21:01.000Z</time>
      </trkpt>
      <trkpt lat="43.64384" lon="7.10205">
        <ele>218.80000305176</ele>
        <time>2022-03-12T09:21:07.000Z</time>
      </trkpt>
      <trkpt lat="43.64383" lon="7.10204">
        <ele>218.80000305176</ele>
        <time>2022-03-12T09:21:09.000Z</time>
      </trkpt>
      <trkpt lat="43.64382" lon="7.10201">
        <ele>219.19999694824</ele>
        <time>2022-03-12T09:21:11.000Z</time>
      </trkpt>
      <trkpt lat="43.64383" lon="7.10202">
        <ele>219.19999694824</ele>
        <time>2022-03-12T09:21:12.000Z</time>
      </trkpt>
      <trkpt lat="43.6438" lon="7.10197">
        <ele>219</ele>
        <time>2022-03-12T09:21:18.000Z</time>
      </trkpt>
      <trkpt lat="43.64381" lon="7.10185">
        <ele>219</ele>
        <time>2022-03-12T09:21:23.000Z</time>
      </trkpt>
      <trkpt lat="43.64384" lon="7.10175">
        <ele>218.60000610352</ele>
        <time>2022-03-12T09:21:26.000Z</time>
      </trkpt>
      <trkpt lat="43.64387" lon="7.10168">
        <ele>218.19999694824</ele>
        <time>2022-03-12T09:21:28.000Z</time>
      </trkpt>
      <trkpt lat="43.64389" lon="7.10166">
        <ele>218.19999694824</ele>
        <time>2022-03-12T09:21:29.000Z</time>
      </trkpt>
      <trkpt lat="43.64397" lon="7.10154">
        <ele>217.80000305176</ele>
        <time>2022-03-12T09:21:35.000Z</time>
      </trkpt>
      <trkpt lat="43.64399" lon="7.10146">
        <ele>217.19999694824</ele>
        <time>2022-03-12T09:21:41.000Z</time>
      </trkpt>
      <trkpt lat="43.64399" lon="7.10146">
        <ele>218</ele>
        <time>2022-03-12T09:21:55.000Z</time>
      </trkpt>
      <trkpt lat="43.644" lon="7.10146">
        <ele>218.19999694824</ele>
        <time>2022-03-12T09:22:02.000Z</time>
      </trkpt>
      <trkpt lat="43.64399" lon="7.10146">
        <ele>217.19999694824</ele>
        <time>2022-03-12T09:22:13.000Z</time>
      </trkpt>
      <trkpt lat="43.64399" lon="7.10146">
        <ele>217.19999694824</ele>
        <time>2022-03-12T09:22:15.000Z</time>
      </trkpt>
      <trkpt lat="43.64404" lon="7.10138">
        <ele>217.19999694824</ele>
        <time>2022-03-12T09:22:22.000Z</time>
      </trkpt>
      <trkpt lat="43.64411" lon="7.10117">
        <ele>215.80000305176</ele>
        <time>2022-03-12T09:22:27.000Z</time>
      </trkpt>
      <trkpt lat="43.64416" lon="7.1011">
        <ele>215.60000610352</ele>
        <time>2022-03-12T09:22:29.000Z</time>
      </trkpt>
      <trkpt lat="43.64419" lon="7.10107">
        <ele>215.19999694824</ele>
        <time>2022-03-12T09:22:30.000Z</time>
      </trkpt>
      <trkpt lat="43.64427" lon="7.10098">
        <ele>214.60000610352</ele>
        <time>2022-03-12T09:22:33.000Z</time>
      </trkpt>
      <trkpt lat="43.64429" lon="7.10095">
        <ele>214.39999389648</ele>
        <time>2022-03-12T09:22:34.000Z</time>
      </trkpt>
      <trkpt lat="43.64432" lon="7.10093">
        <ele>214.19999694824</ele>
        <time>2022-03-12T09:22:35.000Z</time>
      </trkpt>
      <trkpt lat="43.6444" lon="7.10086">
        <ele>213.60000610352</ele>
        <time>2022-03-12T09:22:37.000Z</time>
      </trkpt>
      <trkpt lat="43.64446" lon="7.10081">
        <ele>212.80000305176</ele>
        <time>2022-03-12T09:22:39.000Z</time>
      </trkpt>
      <trkpt lat="43.64451" lon="7.10076">
        <ele>212.39999389648</ele>
        <time>2022-03-12T09:22:41.000Z</time>
      </trkpt>
      <trkpt lat="43.64457" lon="7.10066">
        <ele>212.19999694824</ele>
        <time>2022-03-12T09:22:44.000Z</time>
      </trkpt>
      <trkpt lat="43.64469" lon="7.10055">
        <ele>211.60000610352</ele>
        <time>2022-03-12T09:22:48.000Z</time>
      </trkpt>
      <trkpt lat="43.6447" lon="7.10052">
        <ele>211.19999694824</ele>
        <time>2022-03-12T09:22:49.000Z</time>
      </trkpt>
      <trkpt lat="43.64477" lon="7.10043">
        <ele>210.60000610352</ele>
        <time>2022-03-12T09:22:52.000Z</time>
      </trkpt>
      <trkpt lat="43.64484" lon="7.10029">
        <ele>210</ele>
        <time>2022-03-12T09:22:55.000Z</time>
      </trkpt>
      <trkpt lat="43.64487" lon="7.10025">
        <ele>210</ele>
        <time>2022-03-12T09:22:56.000Z</time>
      </trkpt>
      <trkpt lat="43.64489" lon="7.10021">
        <ele>209.80000305176</ele>
        <time>2022-03-12T09:22:57.000Z</time>
      </trkpt>
      <trkpt lat="43.645" lon="7.10001">
        <ele>209</ele>
        <time>2022-03-12T09:23:02.000Z</time>
      </trkpt>
      <trkpt lat="43.64505" lon="7.09979">
        <ele>208.80000305176</ele>
        <time>2022-03-12T09:23:07.000Z</time>
      </trkpt>
      <trkpt lat="43.64509" lon="7.09972">
        <ele>207.80000305176</ele>
        <time>2022-03-12T09:23:09.000Z</time>
      </trkpt>
      <trkpt lat="43.64512" lon="7.09965">
        <ele>207.19999694824</ele>
        <time>2022-03-12T09:23:11.000Z</time>
      </trkpt>
      <trkpt lat="43.64515" lon="7.09955">
        <ele>206.80000305176</ele>
        <time>2022-03-12T09:23:13.000Z</time>
      </trkpt>
      <trkpt lat="43.64518" lon="7.09942">
        <ele>205.80000305176</ele>
        <time>2022-03-12T09:23:16.000Z</time>
      </trkpt>
      <trkpt lat="43.64517" lon="7.09932">
        <ele>205.19999694824</ele>
        <time>2022-03-12T09:23:20.000Z</time>
      </trkpt>
      <trkpt lat="43.64519" lon="7.0993">
        <ele>205.19999694824</ele>
        <time>2022-03-12T09:23:25.000Z</time>
      </trkpt>
      <trkpt lat="43.64521" lon="7.09926">
        <ele>205.19999694824</ele>
        <time>2022-03-12T09:23:29.000Z</time>
      </trkpt>
      <trkpt lat="43.64536" lon="7.09913">
        <ele>205.80000305176</ele>
        <time>2022-03-12T09:23:34.000Z</time>
      </trkpt>
      <trkpt lat="43.64558" lon="7.09892">
        <ele>205.60000610352</ele>
        <time>2022-03-12T09:23:41.000Z</time>
      </trkpt>
      <trkpt lat="43.64576" lon="7.09879">
        <ele>205.80000305176</ele>
        <time>2022-03-12T09:23:47.000Z</time>
      </trkpt>
      <trkpt lat="43.64593" lon="7.09866">
        <ele>205.39999389648</ele>
        <time>2022-03-12T09:23:52.000Z</time>
      </trkpt>
      <trkpt lat="43.64596" lon="7.09863">
        <ele>205.19999694824</ele>
        <time>2022-03-12T09:23:53.000Z</time>
      </trkpt>
      <trkpt lat="43.64612" lon="7.09849">
        <ele>204.80000305176</ele>
        <time>2022-03-12T09:23:57.000Z</time>
      </trkpt>
      <trkpt lat="43.64622" lon="7.09841">
        <ele>204.19999694824</ele>
        <time>2022-03-12T09:24:00.000Z</time>
      </trkpt>
      <trkpt lat="43.64643" lon="7.09826">
        <ele>204</ele>
        <time>2022-03-12T09:24:07.000Z</time>
      </trkpt>
      <trkpt lat="43.64651" lon="7.0982">
        <ele>203.60000610352</ele>
        <time>2022-03-12T09:24:11.000Z</time>
      </trkpt>
      <trkpt lat="43.64655" lon="7.09817">
        <ele>203.39999389648</ele>
        <time>2022-03-12T09:24:13.000Z</time>
      </trkpt>
      <trkpt lat="43.64662" lon="7.09809">
        <ele>203.80000305176</ele>
        <time>2022-03-12T09:24:20.000Z</time>
      </trkpt>
      <trkpt lat="43.64663" lon="7.09809">
        <ele>203.60000610352</ele>
        <time>2022-03-12T09:24:26.000Z</time>
      </trkpt>
      <trkpt lat="43.64663" lon="7.09809">
        <ele>204</ele>
        <time>2022-03-12T09:24:41.000Z</time>
      </trkpt>
      <trkpt lat="43.64662" lon="7.0981">
        <ele>204.39999389648</ele>
        <time>2022-03-12T09:24:59.000Z</time>
      </trkpt>
      <trkpt lat="43.64664" lon="7.09803">
        <ele>203.60000610352</ele>
        <time>2022-03-12T09:25:13.000Z</time>
      </trkpt>
      <trkpt lat="43.64666" lon="7.09789">
        <ele>203.60000610352</ele>
        <time>2022-03-12T09:25:16.000Z</time>
      </trkpt>
      <trkpt lat="43.64668" lon="7.09783">
        <ele>203.60000610352</ele>
        <time>2022-03-12T09:25:17.000Z</time>
      </trkpt>
      <trkpt lat="43.6467" lon="7.09766">
        <ele>202.80000305176</ele>
        <time>2022-03-12T09:25:19.000Z</time>
      </trkpt>
      <trkpt lat="43.6467" lon="7.09758">
        <ele>202</ele>
        <time>2022-03-12T09:25:20.000Z</time>
      </trkpt>
      <trkpt lat="43.6467" lon="7.09749">
        <ele>201</ele>
        <time>2022-03-12T09:25:21.000Z</time>
      </trkpt>
      <trkpt lat="43.64671" lon="7.09741">
        <ele>199.39999389648</ele>
        <time>2022-03-12T09:25:22.000Z</time>
      </trkpt>
      <trkpt lat="43.64671" lon="7.09724">
        <ele>197.39999389648</ele>
        <time>2022-03-12T09:25:24.000Z</time>
      </trkpt>
      <trkpt lat="43.64672" lon="7.09713">
        <ele>196.19999694824</ele>
        <time>2022-03-12T09:25:26.000Z</time>
      </trkpt>
      <trkpt lat="43.64673" lon="7.09688">
        <ele>195.19999694824</ele>
        <time>2022-03-12T09:25:30.000Z</time>
      </trkpt>
      <trkpt lat="43.64674" lon="7.0968">
        <ele>195</ele>
        <time>2022-03-12T09:25:31.000Z</time>
      </trkpt>
      <trkpt lat="43.64674" lon="7.09674">
        <ele>194.60000610352</ele>
        <time>2022-03-12T09:25:32.000Z</time>
      </trkpt>
      <trkpt lat="43.64676" lon="7.09658">
        <ele>194.39999389648</ele>
        <time>2022-03-12T09:25:34.000Z</time>
      </trkpt>
      <trkpt lat="43.64678" lon="7.09652">
        <ele>194.39999389648</ele>
        <time>2022-03-12T09:25:35.000Z</time>
      </trkpt>
      <trkpt lat="43.64678" lon="7.09641">
        <ele>194.19999694824</ele>
        <time>2022-03-12T09:25:37.000Z</time>
      </trkpt>
      <trkpt lat="43.64678" lon="7.09635">
        <ele>194.19999694824</ele>
        <time>2022-03-12T09:25:38.000Z</time>
      </trkpt>
      <trkpt lat="43.6467" lon="7.09606">
        <ele>194.39999389648</ele>
        <time>2022-03-12T09:25:42.000Z</time>
      </trkpt>
      <trkpt lat="43.64665" lon="7.09591">
        <ele>194</ele>
        <time>2022-03-12T09:25:44.000Z</time>
      </trkpt>
      <trkpt lat="43.64665" lon="7.09576">
        <ele>193.19999694824</ele>
        <time>2022-03-12T09:25:46.000Z</time>
      </trkpt>
      <trkpt lat="43.64663" lon="7.09564">
        <ele>191.80000305176</ele>
        <time>2022-03-12T09:25:48.000Z</time>
      </trkpt>
      <trkpt lat="43.64662" lon="7.09558">
        <ele>191.39999389648</ele>
        <time>2022-03-12T09:25:49.000Z</time>
      </trkpt>
      <trkpt lat="43.64659" lon="7.09555">
        <ele>190.60000610352</ele>
        <time>2022-03-12T09:25:50.000Z</time>
      </trkpt>
      <trkpt lat="43.64649" lon="7.09557">
        <ele>189.19999694824</ele>
        <time>2022-03-12T09:25:52.000Z</time>
      </trkpt>
      <trkpt lat="43.6464" lon="7.09562">
        <ele>188</ele>
        <time>2022-03-12T09:25:54.000Z</time>
      </trkpt>
      <trkpt lat="43.64635" lon="7.09552">
        <ele>186.60000610352</ele>
        <time>2022-03-12T09:25:56.000Z</time>
      </trkpt>
      <trkpt lat="43.64635" lon="7.09546">
        <ele>185.60000610352</ele>
        <time>2022-03-12T09:25:57.000Z</time>
      </trkpt>
      <trkpt lat="43.64634" lon="7.09538">
        <ele>184.80000305176</ele>
        <time>2022-03-12T09:25:58.000Z</time>
      </trkpt>
      <trkpt lat="43.64635" lon="7.09532">
        <ele>184.19999694824</ele>
        <time>2022-03-12T09:25:59.000Z</time>
      </trkpt>
      <trkpt lat="43.64633" lon="7.09518">
        <ele>183</ele>
        <time>2022-03-12T09:26:01.000Z</time>
      </trkpt>
      <trkpt lat="43.64623" lon="7.09512">
        <ele>182.19999694824</ele>
        <time>2022-03-12T09:26:03.000Z</time>
      </trkpt>
      <trkpt lat="43.64617" lon="7.09509">
        <ele>181.60000610352</ele>
        <time>2022-03-12T09:26:04.000Z</time>
      </trkpt>
      <trkpt lat="43.64607" lon="7.0951">
        <ele>179.60000610352</ele>
        <time>2022-03-12T09:26:06.000Z</time>
      </trkpt>
      <trkpt lat="43.64602" lon="7.0951">
        <ele>178.19999694824</ele>
        <time>2022-03-12T09:26:07.000Z</time>
      </trkpt>
      <trkpt lat="43.64588" lon="7.095">
        <ele>177</ele>
        <time>2022-03-12T09:26:10.000Z</time>
      </trkpt>
      <trkpt lat="43.64576" lon="7.09485">
        <ele>176.80000305176</ele>
        <time>2022-03-12T09:26:13.000Z</time>
      </trkpt>
      <trkpt lat="43.64572" lon="7.09472">
        <ele>175.80000305176</ele>
        <time>2022-03-12T09:26:15.000Z</time>
      </trkpt>
      <trkpt lat="43.64568" lon="7.09462">
        <ele>174.39999389648</ele>
        <time>2022-03-12T09:26:17.000Z</time>
      </trkpt>
      <trkpt lat="43.64566" lon="7.09461">
        <ele>173.60000610352</ele>
        <time>2022-03-12T09:26:18.000Z</time>
      </trkpt>
      <trkpt lat="43.64563" lon="7.09462">
        <ele>172.80000305176</ele>
        <time>2022-03-12T09:26:19.000Z</time>
      </trkpt>
      <trkpt lat="43.64559" lon="7.09464">
        <ele>171.60000610352</ele>
        <time>2022-03-12T09:26:20.000Z</time>
      </trkpt>
      <trkpt lat="43.64554" lon="7.09462">
        <ele>169.80000305176</ele>
        <time>2022-03-12T09:26:22.000Z</time>
      </trkpt>
      <trkpt lat="43.64552" lon="7.09461">
        <ele>169</ele>
        <time>2022-03-12T09:26:23.000Z</time>
      </trkpt>
      <trkpt lat="43.64548" lon="7.09461">
        <ele>168.39999389648</ele>
        <time>2022-03-12T09:26:25.000Z</time>
      </trkpt>
      <trkpt lat="43.64546" lon="7.09459">
        <ele>167.39999389648</ele>
        <time>2022-03-12T09:26:27.000Z</time>
      </trkpt>
      <trkpt lat="43.64549" lon="7.09449">
        <ele>166</ele>
        <time>2022-03-12T09:26:30.000Z</time>
      </trkpt>
      <trkpt lat="43.64552" lon="7.09438">
        <ele>165.19999694824</ele>
        <time>2022-03-12T09:26:32.000Z</time>
      </trkpt>
      <trkpt lat="43.64553" lon="7.09432">
        <ele>164.80000305176</ele>
        <time>2022-03-12T09:26:33.000Z</time>
      </trkpt>
      <trkpt lat="43.64553" lon="7.09429">
        <ele>164.19999694824</ele>
        <time>2022-03-12T09:26:34.000Z</time>
      </trkpt>
      <trkpt lat="43.64552" lon="7.09428">
        <ele>163.60000610352</ele>
        <time>2022-03-12T09:26:35.000Z</time>
      </trkpt>
      <trkpt lat="43.64548" lon="7.09426">
        <ele>161.80000305176</ele>
        <time>2022-03-12T09:26:37.000Z</time>
      </trkpt>
      <trkpt lat="43.64539" lon="7.09426">
        <ele>160.19999694824</ele>
        <time>2022-03-12T09:26:39.000Z</time>
      </trkpt>
      <trkpt lat="43.64536" lon="7.09424">
        <ele>159.80000305176</ele>
        <time>2022-03-12T09:26:40.000Z</time>
      </trkpt>
      <trkpt lat="43.64533" lon="7.09416">
        <ele>159</ele>
        <time>2022-03-12T09:26:42.000Z</time>
      </trkpt>
      <trkpt lat="43.64529" lon="7.09412">
        <ele>158.80000305176</ele>
        <time>2022-03-12T09:26:43.000Z</time>
      </trkpt>
      <trkpt lat="43.64523" lon="7.09412">
        <ele>157.60000610352</ele>
        <time>2022-03-12T09:26:45.000Z</time>
      </trkpt>
      <trkpt lat="43.64519" lon="7.09411">
        <ele>156.80000305176</ele>
        <time>2022-03-12T09:26:46.000Z</time>
      </trkpt>
      <trkpt lat="43.64515" lon="7.09411">
        <ele>156.19999694824</ele>
        <time>2022-03-12T09:26:47.000Z</time>
      </trkpt>
      <trkpt lat="43.64509" lon="7.09414">
        <ele>154.80000305176</ele>
        <time>2022-03-12T09:26:49.000Z</time>
      </trkpt>
      <trkpt lat="43.64506" lon="7.09414">
        <ele>154.19999694824</ele>
        <time>2022-03-12T09:26:50.000Z</time>
      </trkpt>
      <trkpt lat="43.64499" lon="7.09407">
        <ele>153.19999694824</ele>
        <time>2022-03-12T09:26:52.000Z</time>
      </trkpt>
      <trkpt lat="43.64498" lon="7.09401">
        <ele>152.80000305176</ele>
        <time>2022-03-12T09:26:53.000Z</time>
      </trkpt>
      <trkpt lat="43.64497" lon="7.09397">
        <ele>152.19999694824</ele>
        <time>2022-03-12T09:26:54.000Z</time>
      </trkpt>
      <trkpt lat="43.64495" lon="7.09392">
        <ele>151</ele>
        <time>2022-03-12T09:26:56.000Z</time>
      </trkpt>
      <trkpt lat="43.64495" lon="7.0938">
        <ele>150.19999694824</ele>
        <time>2022-03-12T09:27:00.000Z</time>
      </trkpt>
      <trkpt lat="43.64494" lon="7.09377">
        <ele>150.19999694824</ele>
        <time>2022-03-12T09:27:01.000Z</time>
      </trkpt>
      <trkpt lat="43.64493" lon="7.09374">
        <ele>149.39999389648</ele>
        <time>2022-03-12T09:27:02.000Z</time>
      </trkpt>
      <trkpt lat="43.64492" lon="7.09371">
        <ele>148.19999694824</ele>
        <time>2022-03-12T09:27:03.000Z</time>
      </trkpt>
      <trkpt lat="43.64491" lon="7.09368">
        <ele>147.19999694824</ele>
        <time>2022-03-12T09:27:04.000Z</time>
      </trkpt>
      <trkpt lat="43.6449" lon="7.09364">
        <ele>146.39999389648</ele>
        <time>2022-03-12T09:27:05.000Z</time>
      </trkpt>
      <trkpt lat="43.64491" lon="7.09361">
        <ele>145.19999694824</ele>
        <time>2022-03-12T09:27:06.000Z</time>
      </trkpt>
      <trkpt lat="43.64492" lon="7.09357">
        <ele>144.19999694824</ele>
        <time>2022-03-12T09:27:07.000Z</time>
      </trkpt>
      <trkpt lat="43.64493" lon="7.09356">
        <ele>143.80000305176</ele>
        <time>2022-03-12T09:27:08.000Z</time>
      </trkpt>
      <trkpt lat="43.64494" lon="7.09352">
        <ele>142.80000305176</ele>
        <time>2022-03-12T09:27:10.000Z</time>
      </trkpt>
      <trkpt lat="43.64493" lon="7.09343">
        <ele>142.19999694824</ele>
        <time>2022-03-12T09:27:12.000Z</time>
      </trkpt>
      <trkpt lat="43.64491" lon="7.0934">
        <ele>141.60000610352</ele>
        <time>2022-03-12T09:27:13.000Z</time>
      </trkpt>
      <trkpt lat="43.64488" lon="7.09336">
        <ele>141</ele>
        <time>2022-03-12T09:27:14.000Z</time>
      </trkpt>
      <trkpt lat="43.64488" lon="7.09332">
        <ele>140.19999694824</ele>
        <time>2022-03-12T09:27:15.000Z</time>
      </trkpt>
      <trkpt lat="43.64487" lon="7.09326">
        <ele>139.39999389648</ele>
        <time>2022-03-12T09:27:16.000Z</time>
      </trkpt>
      <trkpt lat="43.64487" lon="7.0932">
        <ele>138.39999389648</ele>
        <time>2022-03-12T09:27:17.000Z</time>
      </trkpt>
      <trkpt lat="43.64486" lon="7.09307">
        <ele>137.19999694824</ele>
        <time>2022-03-12T09:27:19.000Z</time>
      </trkpt>
      <trkpt lat="43.64484" lon="7.09301">
        <ele>136.80000305176</ele>
        <time>2022-03-12T09:27:20.000Z</time>
      </trkpt>
      <trkpt lat="43.64482" lon="7.09295">
        <ele>136.60000610352</ele>
        <time>2022-03-12T09:27:21.000Z</time>
      </trkpt>
      <trkpt lat="43.64478" lon="7.09291">
        <ele>136.19999694824</ele>
        <time>2022-03-12T09:27:22.000Z</time>
      </trkpt>
      <trkpt lat="43.64475" lon="7.09282">
        <ele>135.19999694824</ele>
        <time>2022-03-12T09:27:24.000Z</time>
      </trkpt>
      <trkpt lat="43.64478" lon="7.09279">
        <ele>135.19999694824</ele>
        <time>2022-03-12T09:27:25.000Z</time>
      </trkpt>
      <trkpt lat="43.64483" lon="7.09278">
        <ele>135</ele>
        <time>2022-03-12T09:27:26.000Z</time>
      </trkpt>
      <trkpt lat="43.64498" lon="7.09283">
        <ele>133.80000305176</ele>
        <time>2022-03-12T09:27:29.000Z</time>
      </trkpt>
      <trkpt lat="43.64511" lon="7.0929">
        <ele>132.80000305176</ele>
        <time>2022-03-12T09:27:32.000Z</time>
      </trkpt>
      <trkpt lat="43.64513" lon="7.09288">
        <ele>132</ele>
        <time>2022-03-12T09:27:33.000Z</time>
      </trkpt>
      <trkpt lat="43.64517" lon="7.09284">
        <ele>131.60000610352</ele>
        <time>2022-03-12T09:27:34.000Z</time>
      </trkpt>
      <trkpt lat="43.64526" lon="7.09282">
        <ele>130.60000610352</ele>
        <time>2022-03-12T09:27:36.000Z</time>
      </trkpt>
      <trkpt lat="43.64539" lon="7.09279">
        <ele>129.60000610352</ele>
        <time>2022-03-12T09:27:39.000Z</time>
      </trkpt>
      <trkpt lat="43.64543" lon="7.09279">
        <ele>129.39999389648</ele>
        <time>2022-03-12T09:27:40.000Z</time>
      </trkpt>
      <trkpt lat="43.64561" lon="7.09276">
        <ele>129.39999389648</ele>
        <time>2022-03-12T09:27:45.000Z</time>
      </trkpt>
      <trkpt lat="43.64573" lon="7.09274">
        <ele>128.39999389648</ele>
        <time>2022-03-12T09:27:48.000Z</time>
      </trkpt>
      <trkpt lat="43.64577" lon="7.09274">
        <ele>127.80000305176</ele>
        <time>2022-03-12T09:27:49.000Z</time>
      </trkpt>
      <trkpt lat="43.64583" lon="7.0927">
        <ele>127.19999694824</ele>
        <time>2022-03-12T09:27:51.000Z</time>
      </trkpt>
      <trkpt lat="43.64589" lon="7.09266">
        <ele>126</ele>
        <time>2022-03-12T09:27:53.000Z</time>
      </trkpt>
      <trkpt lat="43.646" lon="7.0926">
        <ele>124.40000152588</ele>
        <time>2022-03-12T09:27:56.000Z</time>
      </trkpt>
      <trkpt lat="43.64603" lon="7.09257">
        <ele>124</ele>
        <time>2022-03-12T09:27:57.000Z</time>
      </trkpt>
      <trkpt lat="43.64611" lon="7.09252">
        <ele>123</ele>
        <time>2022-03-12T09:27:59.000Z</time>
      </trkpt>
      <trkpt lat="43.64623" lon="7.09245">
        <ele>121.59999847412</ele>
        <time>2022-03-12T09:28:02.000Z</time>
      </trkpt>
      <trkpt lat="43.64629" lon="7.09244">
        <ele>120.80000305176</ele>
        <time>2022-03-12T09:28:04.000Z</time>
      </trkpt>
      <trkpt lat="43.64632" lon="7.09242">
        <ele>120.40000152588</ele>
        <time>2022-03-12T09:28:05.000Z</time>
      </trkpt>
      <trkpt lat="43.64643" lon="7.0924">
        <ele>119.59999847412</ele>
        <time>2022-03-12T09:28:08.000Z</time>
      </trkpt>
      <trkpt lat="43.64647" lon="7.09238">
        <ele>119.59999847412</ele>
        <time>2022-03-12T09:28:09.000Z</time>
      </trkpt>
      <trkpt lat="43.64651" lon="7.09236">
        <ele>118.80000305176</ele>
        <time>2022-03-12T09:28:10.000Z</time>
      </trkpt>
      <trkpt lat="43.64659" lon="7.09234">
        <ele>118.40000152588</ele>
        <time>2022-03-12T09:28:12.000Z</time>
      </trkpt>
      <trkpt lat="43.64663" lon="7.09234">
        <ele>117.80000305176</ele>
        <time>2022-03-12T09:28:13.000Z</time>
      </trkpt>
      <trkpt lat="43.64666" lon="7.09234">
        <ele>117.40000152588</ele>
        <time>2022-03-12T09:28:14.000Z</time>
      </trkpt>
      <trkpt lat="43.64686" lon="7.09232">
        <ele>117</ele>
        <time>2022-03-12T09:28:20.000Z</time>
      </trkpt>
      <trkpt lat="43.64692" lon="7.09235">
        <ele>116</ele>
        <time>2022-03-12T09:28:22.000Z</time>
      </trkpt>
      <trkpt lat="43.64699" lon="7.09238">
        <ele>115.19999694824</ele>
        <time>2022-03-12T09:28:24.000Z</time>
      </trkpt>
      <trkpt lat="43.64703" lon="7.09241">
        <ele>114.40000152588</ele>
        <time>2022-03-12T09:28:25.000Z</time>
      </trkpt>
      <trkpt lat="43.64708" lon="7.09245">
        <ele>113.40000152588</ele>
        <time>2022-03-12T09:28:27.000Z</time>
      </trkpt>
      <trkpt lat="43.6471" lon="7.09245">
        <ele>113.19999694824</ele>
        <time>2022-03-12T09:28:28.000Z</time>
      </trkpt>
      <trkpt lat="43.64715" lon="7.09246">
        <ele>112.19999694824</ele>
        <time>2022-03-12T09:28:30.000Z</time>
      </trkpt>
      <trkpt lat="43.64717" lon="7.09245">
        <ele>112.19999694824</ele>
        <time>2022-03-12T09:28:31.000Z</time>
      </trkpt>
      <trkpt lat="43.64719" lon="7.09244">
        <ele>112.19999694824</ele>
        <time>2022-03-12T09:28:32.000Z</time>
      </trkpt>
      <trkpt lat="43.6473" lon="7.09236">
        <ele>112</ele>
        <time>2022-03-12T09:28:36.000Z</time>
      </trkpt>
      <trkpt lat="43.64733" lon="7.09231">
        <ele>111.59999847412</ele>
        <time>2022-03-12T09:28:38.000Z</time>
      </trkpt>
      <trkpt lat="43.64733" lon="7.09227">
        <ele>111.40000152588</ele>
        <time>2022-03-12T09:28:39.000Z</time>
      </trkpt>
      <trkpt lat="43.64733" lon="7.09217">
        <ele>111</ele>
        <time>2022-03-12T09:28:41.000Z</time>
      </trkpt>
      <trkpt lat="43.64734" lon="7.09214">
        <ele>110.19999694824</ele>
        <time>2022-03-12T09:28:42.000Z</time>
      </trkpt>
      <trkpt lat="43.64735" lon="7.09211">
        <ele>109.59999847412</ele>
        <time>2022-03-12T09:28:43.000Z</time>
      </trkpt>
      <trkpt lat="43.64735" lon="7.09206">
        <ele>109.40000152588</ele>
        <time>2022-03-12T09:28:44.000Z</time>
      </trkpt>
      <trkpt lat="43.64738" lon="7.09198">
        <ele>108.40000152588</ele>
        <time>2022-03-12T09:28:46.000Z</time>
      </trkpt>
      <trkpt lat="43.64739" lon="7.09195">
        <ele>108.19999694824</ele>
        <time>2022-03-12T09:28:47.000Z</time>
      </trkpt>
      <trkpt lat="43.64741" lon="7.09178">
        <ele>108.40000152588</ele>
        <time>2022-03-12T09:28:51.000Z</time>
      </trkpt>
      <trkpt lat="43.6474" lon="7.09167">
        <ele>109.40000152588</ele>
        <time>2022-03-12T09:28:54.000Z</time>
      </trkpt>
      <trkpt lat="43.64741" lon="7.09163">
        <ele>109.80000305176</ele>
        <time>2022-03-12T09:28:55.000Z</time>
      </trkpt>
      <trkpt lat="43.64742" lon="7.09158">
        <ele>110.19999694824</ele>
        <time>2022-03-12T09:28:56.000Z</time>
      </trkpt>
      <trkpt lat="43.64743" lon="7.09148">
        <ele>111.19999694824</ele>
        <time>2022-03-12T09:28:58.000Z</time>
      </trkpt>
      <trkpt lat="43.64743" lon="7.09134">
        <ele>111.59999847412</ele>
        <time>2022-03-12T09:29:01.000Z</time>
      </trkpt>
      <trkpt lat="43.64745" lon="7.09132">
        <ele>112</ele>
        <time>2022-03-12T09:29:02.000Z</time>
      </trkpt>
      <trkpt lat="43.64749" lon="7.09129">
        <ele>112.19999694824</ele>
        <time>2022-03-12T09:29:03.000Z</time>
      </trkpt>
      <trkpt lat="43.64756" lon="7.09122">
        <ele>112.59999847412</ele>
        <time>2022-03-12T09:29:06.000Z</time>
      </trkpt>
      <trkpt lat="43.64761" lon="7.09112">
        <ele>113</ele>
        <time>2022-03-12T09:29:09.000Z</time>
      </trkpt>
      <trkpt lat="43.64763" lon="7.0911">
        <ele>113.19999694824</ele>
        <time>2022-03-12T09:29:10.000Z</time>
      </trkpt>
      <trkpt lat="43.64772" lon="7.09104">
        <ele>114</ele>
        <time>2022-03-12T09:29:13.000Z</time>
      </trkpt>
      <trkpt lat="43.64773" lon="7.09101">
        <ele>114.40000152588</ele>
        <time>2022-03-12T09:29:14.000Z</time>
      </trkpt>
      <trkpt lat="43.64773" lon="7.09094">
        <ele>115.19999694824</ele>
        <time>2022-03-12T09:29:16.000Z</time>
      </trkpt>
      <trkpt lat="43.64773" lon="7.0909">
        <ele>115.59999847412</ele>
        <time>2022-03-12T09:29:17.000Z</time>
      </trkpt>
      <trkpt lat="43.64775" lon="7.09076">
        <ele>116.80000305176</ele>
        <time>2022-03-12T09:29:21.000Z</time>
      </trkpt>
      <trkpt lat="43.64779" lon="7.09071">
        <ele>117.80000305176</ele>
        <time>2022-03-12T09:29:24.000Z</time>
      </trkpt>
      <trkpt lat="43.64778" lon="7.09069">
        <ele>118</ele>
        <time>2022-03-12T09:29:25.000Z</time>
      </trkpt>
      <trkpt lat="43.64781" lon="7.09057">
        <ele>118.80000305176</ele>
        <time>2022-03-12T09:29:29.000Z</time>
      </trkpt>
      <trkpt lat="43.64791" lon="7.09052">
        <ele>120</ele>
        <time>2022-03-12T09:29:33.000Z</time>
      </trkpt>
      <trkpt lat="43.64805" lon="7.09045">
        <ele>120.19999694824</ele>
        <time>2022-03-12T09:29:37.000Z</time>
      </trkpt>
      <trkpt lat="43.64813" lon="7.09038">
        <ele>120.59999847412</ele>
        <time>2022-03-12T09:29:40.000Z</time>
      </trkpt>
      <trkpt lat="43.64818" lon="7.09033">
        <ele>121.19999694824</ele>
        <time>2022-03-12T09:29:42.000Z</time>
      </trkpt>
      <trkpt lat="43.64825" lon="7.0903">
        <ele>122.19999694824</ele>
        <time>2022-03-12T09:29:44.000Z</time>
      </trkpt>
      <trkpt lat="43.64829" lon="7.09031">
        <ele>122.19999694824</ele>
        <time>2022-03-12T09:29:45.000Z</time>
      </trkpt>
      <trkpt lat="43.64841" lon="7.09031">
        <ele>123</ele>
        <time>2022-03-12T09:29:48.000Z</time>
      </trkpt>
      <trkpt lat="43.64851" lon="7.09026">
        <ele>123</ele>
        <time>2022-03-12T09:29:51.000Z</time>
      </trkpt>
      <trkpt lat="43.64854" lon="7.09027">
        <ele>123.40000152588</ele>
        <time>2022-03-12T09:29:52.000Z</time>
      </trkpt>
      <trkpt lat="43.64863" lon="7.0903">
        <ele>124</ele>
        <time>2022-03-12T09:29:55.000Z</time>
      </trkpt>
      <trkpt lat="43.64873" lon="7.09027">
        <ele>124.19999694824</ele>
        <time>2022-03-12T09:29:58.000Z</time>
      </trkpt>
      <trkpt lat="43.64878" lon="7.09023">
        <ele>124.80000305176</ele>
        <time>2022-03-12T09:30:00.000Z</time>
      </trkpt>
      <trkpt lat="43.64879" lon="7.09021">
        <ele>125.19999694824</ele>
        <time>2022-03-12T09:30:01.000Z</time>
      </trkpt>
      <trkpt lat="43.6488" lon="7.09014">
        <ele>125.80000305176</ele>
        <time>2022-03-12T09:30:04.000Z</time>
      </trkpt>
      <trkpt lat="43.64881" lon="7.09012">
        <ele>125.80000305176</ele>
        <time>2022-03-12T09:30:05.000Z</time>
      </trkpt>
      <trkpt lat="43.64881" lon="7.09011">
        <ele>125.80000305176</ele>
        <time>2022-03-12T09:30:06.000Z</time>
      </trkpt>
      <trkpt lat="43.64882" lon="7.09005">
        <ele>126</ele>
        <time>2022-03-12T09:30:12.000Z</time>
      </trkpt>
      <trkpt lat="43.64882" lon="7.09005">
        <ele>126.19999694824</ele>
        <time>2022-03-12T09:30:20.000Z</time>
      </trkpt>
      <trkpt lat="43.64882" lon="7.09005">
        <ele>125.80000305176</ele>
        <time>2022-03-12T09:30:29.000Z</time>
      </trkpt>
      <trkpt lat="43.64883" lon="7.09006">
        <ele>125.40000152588</ele>
        <time>2022-03-12T09:30:37.000Z</time>
      </trkpt>
      <trkpt lat="43.64883" lon="7.09009">
        <ele>124.80000305176</ele>
        <time>2022-03-12T09:30:42.000Z</time>
      </trkpt>
      <trkpt lat="43.64882" lon="7.09011">
        <ele>124.40000152588</ele>
        <time>2022-03-12T09:30:44.000Z</time>
      </trkpt>
      <trkpt lat="43.64881" lon="7.09013">
        <ele>124.80000305176</ele>
        <time>2022-03-12T09:30:47.000Z</time>
      </trkpt>
      <trkpt lat="43.64881" lon="7.09015">
        <ele>125</ele>
        <time>2022-03-12T09:30:50.000Z</time>
      </trkpt>
      <trkpt lat="43.64881" lon="7.09016">
        <ele>124.80000305176</ele>
        <time>2022-03-12T09:30:52.000Z</time>
      </trkpt>
      <trkpt lat="43.64881" lon="7.09017">
        <ele>125.80000305176</ele>
        <time>2022-03-12T09:30:58.000Z</time>
      </trkpt>
      <trkpt lat="43.64881" lon="7.09017">
        <ele>126.19999694824</ele>
        <time>2022-03-12T09:31:01.000Z</time>
      </trkpt>
      <trkpt lat="43.6488" lon="7.09017">
        <ele>125.40000152588</ele>
        <time>2022-03-12T09:31:12.000Z</time>
      </trkpt>
      <trkpt lat="43.6488" lon="7.09016">
        <ele>125.40000152588</ele>
        <time>2022-03-12T09:31:19.000Z</time>
      </trkpt>
      <trkpt lat="43.6488" lon="7.09017">
        <ele>125.40000152588</ele>
        <time>2022-03-12T09:31:26.000Z</time>
      </trkpt>
      <trkpt lat="43.6488" lon="7.09014">
        <ele>125.40000152588</ele>
        <time>2022-03-12T09:31:30.000Z</time>
      </trkpt>
      <trkpt lat="43.6488" lon="7.09013">
        <ele>125.59999847412</ele>
        <time>2022-03-12T09:31:31.000Z</time>
      </trkpt>
      <trkpt lat="43.64881" lon="7.09007">
        <ele>125.59999847412</ele>
        <time>2022-03-12T09:31:37.000Z</time>
      </trkpt>
      <trkpt lat="43.64881" lon="7.09006">
        <ele>126</ele>
        <time>2022-03-12T09:31:40.000Z</time>
      </trkpt>
      <trkpt lat="43.64881" lon="7.09001">
        <ele>126</ele>
        <time>2022-03-12T09:31:42.000Z</time>
      </trkpt>
      <trkpt lat="43.6488" lon="7.08994">
        <ele>126.19999694824</ele>
        <time>2022-03-12T09:31:44.000Z</time>
      </trkpt>
      <trkpt lat="43.64878" lon="7.0898">
        <ele>126.40000152588</ele>
        <time>2022-03-12T09:31:47.000Z</time>
      </trkpt>
      <trkpt lat="43.64876" lon="7.08944">
        <ele>126.40000152588</ele>
        <time>2022-03-12T09:31:54.000Z</time>
      </trkpt>
      <trkpt lat="43.64876" lon="7.08929">
        <ele>126.80000305176</ele>
        <time>2022-03-12T09:31:57.000Z</time>
      </trkpt>
      <trkpt lat="43.64877" lon="7.08912">
        <ele>128</ele>
        <time>2022-03-12T09:32:01.000Z</time>
      </trkpt>
      <trkpt lat="43.64879" lon="7.08897">
        <ele>129.19999694824</ele>
        <time>2022-03-12T09:32:05.000Z</time>
      </trkpt>
      <trkpt lat="43.64879" lon="7.08889">
        <ele>129.80000305176</ele>
        <time>2022-03-12T09:32:07.000Z</time>
      </trkpt>
      <trkpt lat="43.64874" lon="7.08865">
        <ele>130</ele>
        <time>2022-03-12T09:32:11.000Z</time>
      </trkpt>
      <trkpt lat="43.64865" lon="7.08827">
        <ele>127.59999847412</ele>
        <time>2022-03-12T09:32:15.000Z</time>
      </trkpt>
      <trkpt lat="43.64864" lon="7.08817">
        <ele>126.59999847412</ele>
        <time>2022-03-12T09:32:16.000Z</time>
      </trkpt>
      <trkpt lat="43.64865" lon="7.08806">
        <ele>125</ele>
        <time>2022-03-12T09:32:17.000Z</time>
      </trkpt>
      <trkpt lat="43.64867" lon="7.08798">
        <ele>123.80000305176</ele>
        <time>2022-03-12T09:32:18.000Z</time>
      </trkpt>
      <trkpt lat="43.64873" lon="7.08782">
        <ele>121.80000305176</ele>
        <time>2022-03-12T09:32:20.000Z</time>
      </trkpt>
      <trkpt lat="43.64875" lon="7.08775">
        <ele>121.19999694824</ele>
        <time>2022-03-12T09:32:21.000Z</time>
      </trkpt>
      <trkpt lat="43.64876" lon="7.08769">
        <ele>120.80000305176</ele>
        <time>2022-03-12T09:32:22.000Z</time>
      </trkpt>
      <trkpt lat="43.64876" lon="7.08761">
        <ele>119.80000305176</ele>
        <time>2022-03-12T09:32:24.000Z</time>
      </trkpt>
      <trkpt lat="43.64874" lon="7.08758">
        <ele>119.40000152588</ele>
        <time>2022-03-12T09:32:25.000Z</time>
      </trkpt>
      <trkpt lat="43.6487" lon="7.08752">
        <ele>120.40000152588</ele>
        <time>2022-03-12T09:32:28.000Z</time>
      </trkpt>
      <trkpt lat="43.64869" lon="7.08749">
        <ele>121</ele>
        <time>2022-03-12T09:32:29.000Z</time>
      </trkpt>
      <trkpt lat="43.64864" lon="7.08741">
        <ele>122</ele>
        <time>2022-03-12T09:32:32.000Z</time>
      </trkpt>
      <trkpt lat="43.64861" lon="7.08733">
        <ele>123</ele>
        <time>2022-03-12T09:32:35.000Z</time>
      </trkpt>
      <trkpt lat="43.64859" lon="7.0873">
        <ele>123.40000152588</ele>
        <time>2022-03-12T09:32:36.000Z</time>
      </trkpt>
      <trkpt lat="43.64856" lon="7.08724">
        <ele>124.40000152588</ele>
        <time>2022-03-12T09:32:38.000Z</time>
      </trkpt>
      <trkpt lat="43.64849" lon="7.08714">
        <ele>125.40000152588</ele>
        <time>2022-03-12T09:32:41.000Z</time>
      </trkpt>
      <trkpt lat="43.64847" lon="7.08711">
        <ele>125.59999847412</ele>
        <time>2022-03-12T09:32:42.000Z</time>
      </trkpt>
      <trkpt lat="43.6484" lon="7.08702">
        <ele>127</ele>
        <time>2022-03-12T09:32:45.000Z</time>
      </trkpt>
      <trkpt lat="43.64836" lon="7.08696">
        <ele>128.19999694824</ele>
        <time>2022-03-12T09:32:47.000Z</time>
      </trkpt>
      <trkpt lat="43.64831" lon="7.0869">
        <ele>129.19999694824</ele>
        <time>2022-03-12T09:32:49.000Z</time>
      </trkpt>
      <trkpt lat="43.64827" lon="7.08684">
        <ele>130.19999694824</ele>
        <time>2022-03-12T09:32:51.000Z</time>
      </trkpt>
      <trkpt lat="43.64823" lon="7.08677">
        <ele>131.39999389648</ele>
        <time>2022-03-12T09:32:53.000Z</time>
      </trkpt>
      <trkpt lat="43.6482" lon="7.08669">
        <ele>132.60000610352</ele>
        <time>2022-03-12T09:32:55.000Z</time>
      </trkpt>
      <trkpt lat="43.64815" lon="7.08656">
        <ele>133.60000610352</ele>
        <time>2022-03-12T09:32:58.000Z</time>
      </trkpt>
      <trkpt lat="43.64808" lon="7.08635">
        <ele>134.80000305176</ele>
        <time>2022-03-12T09:33:03.000Z</time>
      </trkpt>
      <trkpt lat="43.64805" lon="7.08623">
        <ele>136</ele>
        <time>2022-03-12T09:33:06.000Z</time>
      </trkpt>
      <trkpt lat="43.64804" lon="7.08616">
        <ele>137</ele>
        <time>2022-03-12T09:33:08.000Z</time>
      </trkpt>
      <trkpt lat="43.64804" lon="7.08612">
        <ele>137.39999389648</ele>
        <time>2022-03-12T09:33:09.000Z</time>
      </trkpt>
      <trkpt lat="43.648" lon="7.08597">
        <ele>138.60000610352</ele>
        <time>2022-03-12T09:33:13.000Z</time>
      </trkpt>
      <trkpt lat="43.648" lon="7.08594">
        <ele>138.80000305176</ele>
        <time>2022-03-12T09:33:14.000Z</time>
      </trkpt>
      <trkpt lat="43.64794" lon="7.08573">
        <ele>139.80000305176</ele>
        <time>2022-03-12T09:33:19.000Z</time>
      </trkpt>
      <trkpt lat="43.6479" lon="7.08567">
        <ele>139.80000305176</ele>
        <time>2022-03-12T09:33:21.000Z</time>
      </trkpt>
      <trkpt lat="43.64781" lon="7.0855">
        <ele>140.80000305176</ele>
        <time>2022-03-12T09:33:26.000Z</time>
      </trkpt>
      <trkpt lat="43.64779" lon="7.08546">
        <ele>141</ele>
        <time>2022-03-12T09:33:27.000Z</time>
      </trkpt>
      <trkpt lat="43.64765" lon="7.08528">
        <ele>141.80000305176</ele>
        <time>2022-03-12T09:33:33.000Z</time>
      </trkpt>
      <trkpt lat="43.64762" lon="7.08526">
        <ele>141.80000305176</ele>
        <time>2022-03-12T09:33:34.000Z</time>
      </trkpt>
      <trkpt lat="43.64752" lon="7.08516">
        <ele>142.80000305176</ele>
        <time>2022-03-12T09:33:38.000Z</time>
      </trkpt>
      <trkpt lat="43.6475" lon="7.08514">
        <ele>143</ele>
        <time>2022-03-12T09:33:39.000Z</time>
      </trkpt>
      <trkpt lat="43.64738" lon="7.08499">
        <ele>143.39999389648</ele>
        <time>2022-03-12T09:33:46.000Z</time>
      </trkpt>
      <trkpt lat="43.64732" lon="7.08487">
        <ele>143.19999694824</ele>
        <time>2022-03-12T09:33:51.000Z</time>
      </trkpt>
      <trkpt lat="43.64722" lon="7.08464">
        <ele>142.39999389648</ele>
        <time>2022-03-12T09:33:57.000Z</time>
      </trkpt>
      <trkpt lat="43.64715" lon="7.08444">
        <ele>141.60000610352</ele>
        <time>2022-03-12T09:34:02.000Z</time>
      </trkpt>
      <trkpt lat="43.64718" lon="7.08425">
        <ele>141</ele>
        <time>2022-03-12T09:34:06.000Z</time>
      </trkpt>
      <trkpt lat="43.64721" lon="7.084">
        <ele>142</ele>
        <time>2022-03-12T09:34:12.000Z</time>
      </trkpt>
      <trkpt lat="43.64715" lon="7.08388">
        <ele>142.80000305176</ele>
        <time>2022-03-12T09:34:15.000Z</time>
      </trkpt>
      <trkpt lat="43.64712" lon="7.08384">
        <ele>143</ele>
        <time>2022-03-12T09:34:16.000Z</time>
      </trkpt>
      <trkpt lat="43.64686" lon="7.08355">
        <ele>142.80000305176</ele>
        <time>2022-03-12T09:34:24.000Z</time>
      </trkpt>
      <trkpt lat="43.64667" lon="7.08347">
        <ele>143.39999389648</ele>
        <time>2022-03-12T09:34:29.000Z</time>
      </trkpt>
      <trkpt lat="43.64635" lon="7.08348">
        <ele>143.60000610352</ele>
        <time>2022-03-12T09:34:37.000Z</time>
      </trkpt>
      <trkpt lat="43.64603" lon="7.08348">
        <ele>144</ele>
        <time>2022-03-12T09:34:46.000Z</time>
      </trkpt>
      <trkpt lat="43.64584" lon="7.08349">
        <ele>145</ele>
        <time>2022-03-12T09:34:51.000Z</time>
      </trkpt>
      <trkpt lat="43.64577" lon="7.0835">
        <ele>145.19999694824</ele>
        <time>2022-03-12T09:34:53.000Z</time>
      </trkpt>
      <trkpt lat="43.64554" lon="7.0835">
        <ele>145</ele>
        <time>2022-03-12T09:34:59.000Z</time>
      </trkpt>
      <trkpt lat="43.64537" lon="7.0835">
        <ele>144.39999389648</ele>
        <time>2022-03-12T09:35:04.000Z</time>
      </trkpt>
      <trkpt lat="43.64513" lon="7.08346">
        <ele>144</ele>
        <time>2022-03-12T09:35:10.000Z</time>
      </trkpt>
      <trkpt lat="43.64509" lon="7.08345">
        <ele>143.80000305176</ele>
        <time>2022-03-12T09:35:11.000Z</time>
      </trkpt>
      <trkpt lat="43.64492" lon="7.08334">
        <ele>143.80000305176</ele>
        <time>2022-03-12T09:35:16.000Z</time>
      </trkpt>
      <trkpt lat="43.64473" lon="7.08319">
        <ele>144</ele>
        <time>2022-03-12T09:35:22.000Z</time>
      </trkpt>
      <trkpt lat="43.64453" lon="7.08305">
        <ele>144.39999389648</ele>
        <time>2022-03-12T09:35:28.000Z</time>
      </trkpt>
      <trkpt lat="43.64436" lon="7.08296">
        <ele>145</ele>
        <time>2022-03-12T09:35:33.000Z</time>
      </trkpt>
      <trkpt lat="43.64422" lon="7.08279">
        <ele>145.60000610352</ele>
        <time>2022-03-12T09:35:38.000Z</time>
      </trkpt>
      <trkpt lat="43.64422" lon="7.08274">
        <ele>146</ele>
        <time>2022-03-12T09:35:39.000Z</time>
      </trkpt>
      <trkpt lat="43.64422" lon="7.08269">
        <ele>146.60000610352</ele>
        <time>2022-03-12T09:35:40.000Z</time>
      </trkpt>
      <trkpt lat="43.64424" lon="7.08264">
        <ele>147.19999694824</ele>
        <time>2022-03-12T09:35:41.000Z</time>
      </trkpt>
      <trkpt lat="43.6443" lon="7.0825">
        <ele>147.80000305176</ele>
        <time>2022-03-12T09:35:44.000Z</time>
      </trkpt>
      <trkpt lat="43.64433" lon="7.08245">
        <ele>147.80000305176</ele>
        <time>2022-03-12T09:35:45.000Z</time>
      </trkpt>
      <trkpt lat="43.64438" lon="7.08235">
        <ele>147.80000305176</ele>
        <time>2022-03-12T09:35:47.000Z</time>
      </trkpt>
      <trkpt lat="43.64443" lon="7.08225">
        <ele>147.60000610352</ele>
        <time>2022-03-12T09:35:49.000Z</time>
      </trkpt>
      <trkpt lat="43.6445" lon="7.08202">
        <ele>147</ele>
        <time>2022-03-12T09:35:53.000Z</time>
      </trkpt>
      <trkpt lat="43.64458" lon="7.08159">
        <ele>147.39999389648</ele>
        <time>2022-03-12T09:36:00.000Z</time>
      </trkpt>
      <trkpt lat="43.6446" lon="7.08129">
        <ele>148.19999694824</ele>
        <time>2022-03-12T09:36:06.000Z</time>
      </trkpt>
      <trkpt lat="43.6446" lon="7.08124">
        <ele>148.60000610352</ele>
        <time>2022-03-12T09:36:07.000Z</time>
      </trkpt>
      <trkpt lat="43.64458" lon="7.08111">
        <ele>150</ele>
        <time>2022-03-12T09:36:10.000Z</time>
      </trkpt>
      <trkpt lat="43.64454" lon="7.08087">
        <ele>151</ele>
        <time>2022-03-12T09:36:15.000Z</time>
      </trkpt>
      <trkpt lat="43.64452" lon="7.08084">
        <ele>151.19999694824</ele>
        <time>2022-03-12T09:36:16.000Z</time>
      </trkpt>
      <trkpt lat="43.64438" lon="7.08072">
        <ele>152.19999694824</ele>
        <time>2022-03-12T09:36:21.000Z</time>
      </trkpt>
      <trkpt lat="43.6441" lon="7.08061">
        <ele>152.19999694824</ele>
        <time>2022-03-12T09:36:29.000Z</time>
      </trkpt>
      <trkpt lat="43.6438" lon="7.08059">
        <ele>151.80000305176</ele>
        <time>2022-03-12T09:36:36.000Z</time>
      </trkpt>
      <trkpt lat="43.6434" lon="7.08062">
        <ele>151</ele>
        <time>2022-03-12T09:36:44.000Z</time>
      </trkpt>
      <trkpt lat="43.64308" lon="7.08056">
        <ele>150.80000305176</ele>
        <time>2022-03-12T09:36:51.000Z</time>
      </trkpt>
      <trkpt lat="43.64297" lon="7.08051">
        <ele>152.19999694824</ele>
        <time>2022-03-12T09:36:54.000Z</time>
      </trkpt>
      <trkpt lat="43.64286" lon="7.08047">
        <ele>153.39999389648</ele>
        <time>2022-03-12T09:36:57.000Z</time>
      </trkpt>
      <trkpt lat="43.64279" lon="7.08043">
        <ele>154.19999694824</ele>
        <time>2022-03-12T09:36:59.000Z</time>
      </trkpt>
      <trkpt lat="43.64275" lon="7.08041">
        <ele>154.60000610352</ele>
        <time>2022-03-12T09:37:00.000Z</time>
      </trkpt>
      <trkpt lat="43.64254" lon="7.08027">
        <ele>155.60000610352</ele>
        <time>2022-03-12T09:37:07.000Z</time>
      </trkpt>
      <trkpt lat="43.64248" lon="7.08023">
        <ele>156.19999694824</ele>
        <time>2022-03-12T09:37:10.000Z</time>
      </trkpt>
      <trkpt lat="43.64247" lon="7.08021">
        <ele>156.39999389648</ele>
        <time>2022-03-12T09:37:11.000Z</time>
      </trkpt>
      <trkpt lat="43.64246" lon="7.08018">
        <ele>156.80000305176</ele>
        <time>2022-03-12T09:37:12.000Z</time>
      </trkpt>
      <trkpt lat="43.64241" lon="7.08008">
        <ele>156.39999389648</ele>
        <time>2022-03-12T09:37:16.000Z</time>
      </trkpt>
      <trkpt lat="43.64229" lon="7.07995">
        <ele>156.39999389648</ele>
        <time>2022-03-12T09:37:22.000Z</time>
      </trkpt>
      <trkpt lat="43.6422" lon="7.07987">
        <ele>156.19999694824</ele>
        <time>2022-03-12T09:37:26.000Z</time>
      </trkpt>
      <trkpt lat="43.64219" lon="7.07983">
        <ele>156.19999694824</ele>
        <time>2022-03-12T09:37:27.000Z</time>
      </trkpt>
      <trkpt lat="43.64217" lon="7.0797">
        <ele>156.60000610352</ele>
        <time>2022-03-12T09:37:30.000Z</time>
      </trkpt>
      <trkpt lat="43.64216" lon="7.07956">
        <ele>157</ele>
        <time>2022-03-12T09:37:33.000Z</time>
      </trkpt>
      <trkpt lat="43.64214" lon="7.07925">
        <ele>157.80000305176</ele>
        <time>2022-03-12T09:37:39.000Z</time>
      </trkpt>
      <trkpt lat="43.64214" lon="7.07919">
        <ele>158</ele>
        <time>2022-03-12T09:37:40.000Z</time>
      </trkpt>
      <trkpt lat="43.64211" lon="7.079">
        <ele>157.80000305176</ele>
        <time>2022-03-12T09:37:43.000Z</time>
      </trkpt>
      <trkpt lat="43.64208" lon="7.07888">
        <ele>157.39999389648</ele>
        <time>2022-03-12T09:37:45.000Z</time>
      </trkpt>
      <trkpt lat="43.64195" lon="7.07842">
        <ele>157</ele>
        <time>2022-03-12T09:37:52.000Z</time>
      </trkpt>
      <trkpt lat="43.64194" lon="7.07835">
        <ele>156.80000305176</ele>
        <time>2022-03-12T09:37:53.000Z</time>
      </trkpt>
      <trkpt lat="43.64189" lon="7.07807">
        <ele>156</ele>
        <time>2022-03-12T09:37:58.000Z</time>
      </trkpt>
      <trkpt lat="43.64188" lon="7.07797">
        <ele>156.39999389648</ele>
        <time>2022-03-12T09:38:02.000Z</time>
      </trkpt>
      <trkpt lat="43.64189" lon="7.07792">
        <ele>156.60000610352</ele>
        <time>2022-03-12T09:38:04.000Z</time>
      </trkpt>
      <trkpt lat="43.64191" lon="7.07785">
        <ele>156.60000610352</ele>
        <time>2022-03-12T09:38:06.000Z</time>
      </trkpt>
      <trkpt lat="43.64199" lon="7.0777">
        <ele>156.39999389648</ele>
        <time>2022-03-12T09:38:11.000Z</time>
      </trkpt>
      <trkpt lat="43.64204" lon="7.07773">
        <ele>157.39999389648</ele>
        <time>2022-03-12T09:38:14.000Z</time>
      </trkpt>
      <trkpt lat="43.64206" lon="7.07777">
        <ele>157.60000610352</ele>
        <time>2022-03-12T09:38:19.000Z</time>
      </trkpt>
      <trkpt lat="43.64207" lon="7.07779">
        <ele>157.39999389648</ele>
        <time>2022-03-12T09:38:20.000Z</time>
      </trkpt>
      <trkpt lat="43.64208" lon="7.07779">
        <ele>157.39999389648</ele>
        <time>2022-03-12T09:38:22.000Z</time>
      </trkpt>
      <trkpt lat="43.64209" lon="7.07779">
        <ele>157.39999389648</ele>
        <time>2022-03-12T09:38:23.000Z</time>
      </trkpt>
      <trkpt lat="43.64206" lon="7.07772">
        <ele>157.80000305176</ele>
        <time>2022-03-12T09:38:27.000Z</time>
      </trkpt>
      <trkpt lat="43.64204" lon="7.07771">
        <ele>157.80000305176</ele>
        <time>2022-03-12T09:38:28.000Z</time>
      </trkpt>
      <trkpt lat="43.64201" lon="7.0777">
        <ele>158</ele>
        <time>2022-03-12T09:38:29.000Z</time>
      </trkpt>
      <trkpt lat="43.64195" lon="7.07769">
        <ele>158</ele>
        <time>2022-03-12T09:38:32.000Z</time>
      </trkpt>
      <trkpt lat="43.64195" lon="7.07772">
        <ele>158</ele>
        <time>2022-03-12T09:38:35.000Z</time>
      </trkpt>
      <trkpt lat="43.64195" lon="7.07773">
        <ele>158</ele>
        <time>2022-03-12T09:38:36.000Z</time>
      </trkpt>
      <trkpt lat="43.64204" lon="7.07778">
        <ele>157.39999389648</ele>
        <time>2022-03-12T09:38:40.000Z</time>
      </trkpt>
      <trkpt lat="43.6421" lon="7.07782">
        <ele>157.19999694824</ele>
        <time>2022-03-12T09:38:42.000Z</time>
      </trkpt>
      <trkpt lat="43.64218" lon="7.07791">
        <ele>157.19999694824</ele>
        <time>2022-03-12T09:38:45.000Z</time>
      </trkpt>
      <trkpt lat="43.6423" lon="7.07799">
        <ele>156.80000305176</ele>
        <time>2022-03-12T09:38:49.000Z</time>
      </trkpt>
      <trkpt lat="43.64231" lon="7.07799">
        <ele>155.60000610352</ele>
        <time>2022-03-12T09:38:51.000Z</time>
      </trkpt>
      <trkpt lat="43.64233" lon="7.078">
        <ele>154.60000610352</ele>
        <time>2022-03-12T09:38:53.000Z</time>
      </trkpt>
      <trkpt lat="43.64233" lon="7.078">
        <ele>154.39999389648</ele>
        <time>2022-03-12T09:38:54.000Z</time>
      </trkpt>
      <trkpt lat="43.64233" lon="7.078">
        <ele>154.19999694824</ele>
        <time>2022-03-12T09:38:59.000Z</time>
      </trkpt>
      <trkpt lat="43.64233" lon="7.078">
        <ele>153.19999694824</ele>
        <time>2022-03-12T09:39:03.000Z</time>
      </trkpt>
      <trkpt lat="43.64237" lon="7.07804">
        <ele>153</ele>
        <time>2022-03-12T09:39:08.000Z</time>
      </trkpt>
      <trkpt lat="43.64239" lon="7.07806">
        <ele>153.60000610352</ele>
        <time>2022-03-12T09:39:10.000Z</time>
      </trkpt>
      <trkpt lat="43.64242" lon="7.07805">
        <ele>153.80000305176</ele>
        <time>2022-03-12T09:39:12.000Z</time>
      </trkpt>
      <trkpt lat="43.64244" lon="7.07793">
        <ele>153.19999694824</ele>
        <time>2022-03-12T09:39:16.000Z</time>
      </trkpt>
      <trkpt lat="43.64242" lon="7.0778">
        <ele>152.19999694824</ele>
        <time>2022-03-12T09:39:19.000Z</time>
      </trkpt>
      <trkpt lat="43.64244" lon="7.07769">
        <ele>151</ele>
        <time>2022-03-12T09:39:22.000Z</time>
      </trkpt>
      <trkpt lat="43.64249" lon="7.07763">
        <ele>150.39999389648</ele>
        <time>2022-03-12T09:39:24.000Z</time>
      </trkpt>
      <trkpt lat="43.64258" lon="7.07756">
        <ele>149.60000610352</ele>
        <time>2022-03-12T09:39:27.000Z</time>
      </trkpt>
      <trkpt lat="43.64267" lon="7.07751">
        <ele>149.19999694824</ele>
        <time>2022-03-12T09:39:29.000Z</time>
      </trkpt>
      <trkpt lat="43.64271" lon="7.07749">
        <ele>148.80000305176</ele>
        <time>2022-03-12T09:39:30.000Z</time>
      </trkpt>
      <trkpt lat="43.64275" lon="7.07746">
        <ele>148.60000610352</ele>
        <time>2022-03-12T09:39:31.000Z</time>
      </trkpt>
      <trkpt lat="43.64286" lon="7.07743">
        <ele>147</ele>
        <time>2022-03-12T09:39:34.000Z</time>
      </trkpt>
      <trkpt lat="43.64295" lon="7.07745">
        <ele>145.80000305176</ele>
        <time>2022-03-12T09:39:36.000Z</time>
      </trkpt>
      <trkpt lat="43.64297" lon="7.07746">
        <ele>145.39999389648</ele>
        <time>2022-03-12T09:39:37.000Z</time>
      </trkpt>
      <trkpt lat="43.64307" lon="7.07746">
        <ele>144.80000305176</ele>
        <time>2022-03-12T09:39:40.000Z</time>
      </trkpt>
      <trkpt lat="43.64313" lon="7.07746">
        <ele>144.39999389648</ele>
        <time>2022-03-12T09:39:41.000Z</time>
      </trkpt>
      <trkpt lat="43.64317" lon="7.07744">
        <ele>143.60000610352</ele>
        <time>2022-03-12T09:39:42.000Z</time>
      </trkpt>
      <trkpt lat="43.64321" lon="7.07739">
        <ele>142</ele>
        <time>2022-03-12T09:39:44.000Z</time>
      </trkpt>
      <trkpt lat="43.64326" lon="7.07735">
        <ele>140.60000610352</ele>
        <time>2022-03-12T09:39:46.000Z</time>
      </trkpt>
      <trkpt lat="43.6433" lon="7.07733">
        <ele>139.39999389648</ele>
        <time>2022-03-12T09:39:47.000Z</time>
      </trkpt>
      <trkpt lat="43.64335" lon="7.07732">
        <ele>138.80000305176</ele>
        <time>2022-03-12T09:39:48.000Z</time>
      </trkpt>
      <trkpt lat="43.64351" lon="7.07725">
        <ele>138.39999389648</ele>
        <time>2022-03-12T09:39:51.000Z</time>
      </trkpt>
      <trkpt lat="43.64355" lon="7.07723">
        <ele>138.60000610352</ele>
        <time>2022-03-12T09:39:52.000Z</time>
      </trkpt>
      <trkpt lat="43.6437" lon="7.07715">
        <ele>138</ele>
        <time>2022-03-12T09:39:56.000Z</time>
      </trkpt>
      <trkpt lat="43.64376" lon="7.0771">
        <ele>137.19999694824</ele>
        <time>2022-03-12T09:39:58.000Z</time>
      </trkpt>
      <trkpt lat="43.64381" lon="7.07707">
        <ele>136.39999389648</ele>
        <time>2022-03-12T09:40:00.000Z</time>
      </trkpt>
      <trkpt lat="43.64383" lon="7.07705">
        <ele>136.19999694824</ele>
        <time>2022-03-12T09:40:01.000Z</time>
      </trkpt>
      <trkpt lat="43.64388" lon="7.07699">
        <ele>135.60000610352</ele>
        <time>2022-03-12T09:40:03.000Z</time>
      </trkpt>
      <trkpt lat="43.64391" lon="7.07695">
        <ele>135</ele>
        <time>2022-03-12T09:40:04.000Z</time>
      </trkpt>
      <trkpt lat="43.64399" lon="7.07681">
        <ele>133.80000305176</ele>
        <time>2022-03-12T09:40:08.000Z</time>
      </trkpt>
      <trkpt lat="43.64402" lon="7.07657">
        <ele>132.19999694824</ele>
        <time>2022-03-12T09:40:12.000Z</time>
      </trkpt>
      <trkpt lat="43.64406" lon="7.07646">
        <ele>131</ele>
        <time>2022-03-12T09:40:14.000Z</time>
      </trkpt>
      <trkpt lat="43.64409" lon="7.07643">
        <ele>130.19999694824</ele>
        <time>2022-03-12T09:40:15.000Z</time>
      </trkpt>
      <trkpt lat="43.64411" lon="7.0764">
        <ele>130</ele>
        <time>2022-03-12T09:40:16.000Z</time>
      </trkpt>
      <trkpt lat="43.64417" lon="7.0763">
        <ele>129</ele>
        <time>2022-03-12T09:40:18.000Z</time>
      </trkpt>
      <trkpt lat="43.6442" lon="7.07625">
        <ele>128.80000305176</ele>
        <time>2022-03-12T09:40:19.000Z</time>
      </trkpt>
      <trkpt lat="43.64431" lon="7.07614">
        <ele>128.60000610352</ele>
        <time>2022-03-12T09:40:22.000Z</time>
      </trkpt>
      <trkpt lat="43.64444" lon="7.07605">
        <ele>127.80000305176</ele>
        <time>2022-03-12T09:40:25.000Z</time>
      </trkpt>
      <trkpt lat="43.64447" lon="7.07604">
        <ele>127</ele>
        <time>2022-03-12T09:40:26.000Z</time>
      </trkpt>
      <trkpt lat="43.64449" lon="7.07602">
        <ele>126.40000152588</ele>
        <time>2022-03-12T09:40:27.000Z</time>
      </trkpt>
      <trkpt lat="43.64448" lon="7.07602">
        <ele>126</ele>
        <time>2022-03-12T09:40:28.000Z</time>
      </trkpt>
      <trkpt lat="43.64455" lon="7.07594">
        <ele>125.80000305176</ele>
        <time>2022-03-12T09:40:38.000Z</time>
      </trkpt>
      <trkpt lat="43.64458" lon="7.07591">
        <ele>125.80000305176</ele>
        <time>2022-03-12T09:40:41.000Z</time>
      </trkpt>
      <trkpt lat="43.6446" lon="7.07588">
        <ele>125.80000305176</ele>
        <time>2022-03-12T09:40:43.000Z</time>
      </trkpt>
      <trkpt lat="43.6446" lon="7.07586">
        <ele>125.80000305176</ele>
        <time>2022-03-12T09:40:44.000Z</time>
      </trkpt>
      <trkpt lat="43.6446" lon="7.07585">
        <ele>125.59999847412</ele>
        <time>2022-03-12T09:40:48.000Z</time>
      </trkpt>
      <trkpt lat="43.6446" lon="7.07582">
        <ele>125.40000152588</ele>
        <time>2022-03-12T09:40:49.000Z</time>
      </trkpt>
      <trkpt lat="43.6446" lon="7.07579">
        <ele>125.19999694824</ele>
        <time>2022-03-12T09:40:50.000Z</time>
      </trkpt>
      <trkpt lat="43.64464" lon="7.07572">
        <ele>125.19999694824</ele>
        <time>2022-03-12T09:40:53.000Z</time>
      </trkpt>
      <trkpt lat="43.64474" lon="7.07567">
        <ele>125.59999847412</ele>
        <time>2022-03-12T09:40:57.000Z</time>
      </trkpt>
      <trkpt lat="43.64484" lon="7.07562">
        <ele>126.19999694824</ele>
        <time>2022-03-12T09:41:01.000Z</time>
      </trkpt>
      <trkpt lat="43.64487" lon="7.0756">
        <ele>126.40000152588</ele>
        <time>2022-03-12T09:41:02.000Z</time>
      </trkpt>
      <trkpt lat="43.6449" lon="7.07558">
        <ele>126.40000152588</ele>
        <time>2022-03-12T09:41:03.000Z</time>
      </trkpt>
      <trkpt lat="43.64495" lon="7.07553">
        <ele>126.40000152588</ele>
        <time>2022-03-12T09:41:05.000Z</time>
      </trkpt>
      <trkpt lat="43.64513" lon="7.07546">
        <ele>127.59999847412</ele>
        <time>2022-03-12T09:41:10.000Z</time>
      </trkpt>
      <trkpt lat="43.64527" lon="7.0754">
        <ele>127.80000305176</ele>
        <time>2022-03-12T09:41:15.000Z</time>
      </trkpt>
      <trkpt lat="43.64539" lon="7.07534">
        <ele>127.40000152588</ele>
        <time>2022-03-12T09:41:19.000Z</time>
      </trkpt>
      <trkpt lat="43.64548" lon="7.07525">
        <ele>128</ele>
        <time>2022-03-12T09:41:23.000Z</time>
      </trkpt>
      <trkpt lat="43.64551" lon="7.07522">
        <ele>128.80000305176</ele>
        <time>2022-03-12T09:41:25.000Z</time>
      </trkpt>
      <trkpt lat="43.64554" lon="7.07518">
        <ele>129.39999389648</ele>
        <time>2022-03-12T09:41:27.000Z</time>
      </trkpt>
      <trkpt lat="43.64555" lon="7.07517">
        <ele>129.80000305176</ele>
        <time>2022-03-12T09:41:30.000Z</time>
      </trkpt>
      <trkpt lat="43.64557" lon="7.07515">
        <ele>130.39999389648</ele>
        <time>2022-03-12T09:41:33.000Z</time>
      </trkpt>
      <trkpt lat="43.6456" lon="7.07512">
        <ele>130.80000305176</ele>
        <time>2022-03-12T09:41:36.000Z</time>
      </trkpt>
      <trkpt lat="43.64562" lon="7.07509">
        <ele>131</ele>
        <time>2022-03-12T09:41:38.000Z</time>
      </trkpt>
      <trkpt lat="43.64565" lon="7.07508">
        <ele>131.19999694824</ele>
        <time>2022-03-12T09:41:39.000Z</time>
      </trkpt>
      <trkpt lat="43.64567" lon="7.07509">
        <ele>131.39999389648</ele>
        <time>2022-03-12T09:41:40.000Z</time>
      </trkpt>
      <trkpt lat="43.64577" lon="7.07517">
        <ele>131.60000610352</ele>
        <time>2022-03-12T09:41:44.000Z</time>
      </trkpt>
      <trkpt lat="43.64581" lon="7.07519">
        <ele>131.80000305176</ele>
        <time>2022-03-12T09:41:45.000Z</time>
      </trkpt>
      <trkpt lat="43.64588" lon="7.0752">
        <ele>132.19999694824</ele>
        <time>2022-03-12T09:41:47.000Z</time>
      </trkpt>
      <trkpt lat="43.64591" lon="7.0752">
        <ele>132.39999389648</ele>
        <time>2022-03-12T09:41:48.000Z</time>
      </trkpt>
      <trkpt lat="43.64601" lon="7.07519">
        <ele>133.19999694824</ele>
        <time>2022-03-12T09:41:51.000Z</time>
      </trkpt>
      <trkpt lat="43.64605" lon="7.07517">
        <ele>134.19999694824</ele>
        <time>2022-03-12T09:41:53.000Z</time>
      </trkpt>
      <trkpt lat="43.64607" lon="7.07515">
        <ele>135</ele>
        <time>2022-03-12T09:41:54.000Z</time>
      </trkpt>
      <trkpt lat="43.64609" lon="7.07514">
        <ele>135.19999694824</ele>
        <time>2022-03-12T09:41:55.000Z</time>
      </trkpt>
      <trkpt lat="43.64612" lon="7.07509">
        <ele>136.39999389648</ele>
        <time>2022-03-12T09:41:59.000Z</time>
      </trkpt>
      <trkpt lat="43.64614" lon="7.07508">
        <ele>136.80000305176</ele>
        <time>2022-03-12T09:42:00.000Z</time>
      </trkpt>
      <trkpt lat="43.64618" lon="7.07504">
        <ele>137.39999389648</ele>
        <time>2022-03-12T09:42:08.000Z</time>
      </trkpt>
      <trkpt lat="43.64618" lon="7.07504">
        <ele>137.60000610352</ele>
        <time>2022-03-12T09:42:09.000Z</time>
      </trkpt>
      <trkpt lat="43.64622" lon="7.07502">
        <ele>138</ele>
        <time>2022-03-12T09:42:17.000Z</time>
      </trkpt>
      <trkpt lat="43.64627" lon="7.075">
        <ele>138.39999389648</ele>
        <time>2022-03-12T09:42:22.000Z</time>
      </trkpt>
      <trkpt lat="43.64628" lon="7.07499">
        <ele>138.60000610352</ele>
        <time>2022-03-12T09:42:23.000Z</time>
      </trkpt>
      <trkpt lat="43.64631" lon="7.075">
        <ele>138.60000610352</ele>
        <time>2022-03-12T09:42:24.000Z</time>
      </trkpt>
      <trkpt lat="43.64638" lon="7.07499">
        <ele>139.39999389648</ele>
        <time>2022-03-12T09:42:27.000Z</time>
      </trkpt>
      <trkpt lat="43.6464" lon="7.07498">
        <ele>139.60000610352</ele>
        <time>2022-03-12T09:42:28.000Z</time>
      </trkpt>
      <trkpt lat="43.64647" lon="7.07492">
        <ele>139.60000610352</ele>
        <time>2022-03-12T09:42:31.000Z</time>
      </trkpt>
      <trkpt lat="43.64651" lon="7.07488">
        <ele>140.60000610352</ele>
        <time>2022-03-12T09:42:34.000Z</time>
      </trkpt>
      <trkpt lat="43.64651" lon="7.07487">
        <ele>141.19999694824</ele>
        <time>2022-03-12T09:42:36.000Z</time>
      </trkpt>
      <trkpt lat="43.64651" lon="7.07485">
        <ele>141.39999389648</ele>
        <time>2022-03-12T09:42:37.000Z</time>
      </trkpt>
      <trkpt lat="43.6465" lon="7.07484">
        <ele>141.80000305176</ele>
        <time>2022-03-12T09:42:38.000Z</time>
      </trkpt>
      <trkpt lat="43.64647" lon="7.07482">
        <ele>142.39999389648</ele>
        <time>2022-03-12T09:42:40.000Z</time>
      </trkpt>
      <trkpt lat="43.64645" lon="7.0748">
        <ele>142.80000305176</ele>
        <time>2022-03-12T09:42:41.000Z</time>
      </trkpt>
      <trkpt lat="43.64643" lon="7.07472">
        <ele>144</ele>
        <time>2022-03-12T09:42:44.000Z</time>
      </trkpt>
      <trkpt lat="43.64642" lon="7.0747">
        <ele>144.39999389648</ele>
        <time>2022-03-12T09:42:45.000Z</time>
      </trkpt>
      <trkpt lat="43.64641" lon="7.07468">
        <ele>144.80000305176</ele>
        <time>2022-03-12T09:42:46.000Z</time>
      </trkpt>
      <trkpt lat="43.6464" lon="7.07466">
        <ele>145</ele>
        <time>2022-03-12T09:42:47.000Z</time>
      </trkpt>
      <trkpt lat="43.64638" lon="7.07461">
        <ele>145.80000305176</ele>
        <time>2022-03-12T09:42:49.000Z</time>
      </trkpt>
      <trkpt lat="43.64638" lon="7.07459">
        <ele>146</ele>
        <time>2022-03-12T09:42:50.000Z</time>
      </trkpt>
      <trkpt lat="43.64635" lon="7.07452">
        <ele>147.39999389648</ele>
        <time>2022-03-12T09:42:53.000Z</time>
      </trkpt>
      <trkpt lat="43.64634" lon="7.0745">
        <ele>147.60000610352</ele>
        <time>2022-03-12T09:42:54.000Z</time>
      </trkpt>
      <trkpt lat="43.64633" lon="7.07446">
        <ele>148.19999694824</ele>
        <time>2022-03-12T09:42:56.000Z</time>
      </trkpt>
      <trkpt lat="43.64632" lon="7.07444">
        <ele>148.80000305176</ele>
        <time>2022-03-12T09:42:57.000Z</time>
      </trkpt>
      <trkpt lat="43.64631" lon="7.0744">
        <ele>149.39999389648</ele>
        <time>2022-03-12T09:42:59.000Z</time>
      </trkpt>
      <trkpt lat="43.64631" lon="7.07438">
        <ele>149.80000305176</ele>
        <time>2022-03-12T09:43:00.000Z</time>
      </trkpt>
      <trkpt lat="43.6463" lon="7.07428">
        <ele>151.19999694824</ele>
        <time>2022-03-12T09:43:04.000Z</time>
      </trkpt>
      <trkpt lat="43.6463" lon="7.07426">
        <ele>151.80000305176</ele>
        <time>2022-03-12T09:43:05.000Z</time>
      </trkpt>
      <trkpt lat="43.6463" lon="7.07424">
        <ele>152.19999694824</ele>
        <time>2022-03-12T09:43:06.000Z</time>
      </trkpt>
      <trkpt lat="43.64629" lon="7.07417">
        <ele>153.60000610352</ele>
        <time>2022-03-12T09:43:09.000Z</time>
      </trkpt>
      <trkpt lat="43.64628" lon="7.07412">
        <ele>154.39999389648</ele>
        <time>2022-03-12T09:43:11.000Z</time>
      </trkpt>
      <trkpt lat="43.64627" lon="7.0741">
        <ele>154.80000305176</ele>
        <time>2022-03-12T09:43:12.000Z</time>
      </trkpt>
      <trkpt lat="43.64625" lon="7.07409">
        <ele>155.19999694824</ele>
        <time>2022-03-12T09:43:13.000Z</time>
      </trkpt>
      <trkpt lat="43.64622" lon="7.07406">
        <ele>156</ele>
        <time>2022-03-12T09:43:15.000Z</time>
      </trkpt>
      <trkpt lat="43.64621" lon="7.07405">
        <ele>156.19999694824</ele>
        <time>2022-03-12T09:43:16.000Z</time>
      </trkpt>
      <trkpt lat="43.64617" lon="7.07402">
        <ele>157.19999694824</ele>
        <time>2022-03-12T09:43:19.000Z</time>
      </trkpt>
      <trkpt lat="43.6461" lon="7.07399">
        <ele>157.60000610352</ele>
        <time>2022-03-12T09:43:23.000Z</time>
      </trkpt>
      <trkpt lat="43.64598" lon="7.07388">
        <ele>157.39999389648</ele>
        <time>2022-03-12T09:43:30.000Z</time>
      </trkpt>
      <trkpt lat="43.64597" lon="7.07388">
        <ele>157.39999389648</ele>
        <time>2022-03-12T09:43:31.000Z</time>
      </trkpt>
      <trkpt lat="43.64596" lon="7.07389">
        <ele>157.39999389648</ele>
        <time>2022-03-12T09:43:34.000Z</time>
      </trkpt>
      <trkpt lat="43.64594" lon="7.07388">
        <ele>157</ele>
        <time>2022-03-12T09:43:46.000Z</time>
      </trkpt>
      <trkpt lat="43.64589" lon="7.0739">
        <ele>156.80000305176</ele>
        <time>2022-03-12T09:43:52.000Z</time>
      </trkpt>
      <trkpt lat="43.64576" lon="7.07391">
        <ele>157.60000610352</ele>
        <time>2022-03-12T09:43:58.000Z</time>
      </trkpt>
      <trkpt lat="43.6457" lon="7.07393">
        <ele>158.60000610352</ele>
        <time>2022-03-12T09:44:01.000Z</time>
      </trkpt>
      <trkpt lat="43.64564" lon="7.07394">
        <ele>159.60000610352</ele>
        <time>2022-03-12T09:44:03.000Z</time>
      </trkpt>
      <trkpt lat="43.64562" lon="7.07394">
        <ele>160</ele>
        <time>2022-03-12T09:44:04.000Z</time>
      </trkpt>
      <trkpt lat="43.64556" lon="7.07398">
        <ele>160.60000610352</ele>
        <time>2022-03-12T09:44:07.000Z</time>
      </trkpt>
      <trkpt lat="43.64546" lon="7.074">
        <ele>161.60000610352</ele>
        <time>2022-03-12T09:44:11.000Z</time>
      </trkpt>
      <trkpt lat="43.64544" lon="7.074">
        <ele>161.60000610352</ele>
        <time>2022-03-12T09:44:12.000Z</time>
      </trkpt>
      <trkpt lat="43.64539" lon="7.07398">
        <ele>162.80000305176</ele>
        <time>2022-03-12T09:44:15.000Z</time>
      </trkpt>
      <trkpt lat="43.64534" lon="7.07397">
        <ele>163.80000305176</ele>
        <time>2022-03-12T09:44:18.000Z</time>
      </trkpt>
      <trkpt lat="43.64528" lon="7.07395">
        <ele>165</ele>
        <time>2022-03-12T09:44:22.000Z</time>
      </trkpt>
      <trkpt lat="43.64522" lon="7.07395">
        <ele>165.60000610352</ele>
        <time>2022-03-12T09:44:25.000Z</time>
      </trkpt>
      <trkpt lat="43.64519" lon="7.07395">
        <ele>166</ele>
        <time>2022-03-12T09:44:27.000Z</time>
      </trkpt>
      <trkpt lat="43.64514" lon="7.07395">
        <ele>167.19999694824</ele>
        <time>2022-03-12T09:44:30.000Z</time>
      </trkpt>
      <trkpt lat="43.64511" lon="7.07395">
        <ele>168</ele>
        <time>2022-03-12T09:44:32.000Z</time>
      </trkpt>
      <trkpt lat="43.64508" lon="7.07396">
        <ele>168.39999389648</ele>
        <time>2022-03-12T09:44:34.000Z</time>
      </trkpt>
      <trkpt lat="43.64498" lon="7.07401">
        <ele>168.80000305176</ele>
        <time>2022-03-12T09:44:39.000Z</time>
      </trkpt>
      <trkpt lat="43.64492" lon="7.07407">
        <ele>168.60000610352</ele>
        <time>2022-03-12T09:44:41.000Z</time>
      </trkpt>
      <trkpt lat="43.64482" lon="7.07415">
        <ele>168</ele>
        <time>2022-03-12T09:44:43.000Z</time>
      </trkpt>
      <trkpt lat="43.64476" lon="7.0742">
        <ele>167.19999694824</ele>
        <time>2022-03-12T09:44:44.000Z</time>
      </trkpt>
      <trkpt lat="43.64464" lon="7.0743">
        <ele>165.19999694824</ele>
        <time>2022-03-12T09:44:46.000Z</time>
      </trkpt>
      <trkpt lat="43.64457" lon="7.07435">
        <ele>164.39999389648</ele>
        <time>2022-03-12T09:44:47.000Z</time>
      </trkpt>
      <trkpt lat="43.64449" lon="7.07439">
        <ele>163</ele>
        <time>2022-03-12T09:44:48.000Z</time>
      </trkpt>
      <trkpt lat="43.64434" lon="7.07441">
        <ele>161.19999694824</ele>
        <time>2022-03-12T09:44:50.000Z</time>
      </trkpt>
      <trkpt lat="43.64427" lon="7.0744">
        <ele>160.60000610352</ele>
        <time>2022-03-12T09:44:51.000Z</time>
      </trkpt>
      <trkpt lat="43.64421" lon="7.07439">
        <ele>159.80000305176</ele>
        <time>2022-03-12T09:44:52.000Z</time>
      </trkpt>
      <trkpt lat="43.64412" lon="7.07437">
        <ele>159.60000610352</ele>
        <time>2022-03-12T09:44:54.000Z</time>
      </trkpt>
      <trkpt lat="43.6441" lon="7.07435">
        <ele>159.60000610352</ele>
        <time>2022-03-12T09:44:55.000Z</time>
      </trkpt>
      <trkpt lat="43.64402" lon="7.07429">
        <ele>161.19999694824</ele>
        <time>2022-03-12T09:44:58.000Z</time>
      </trkpt>
      <trkpt lat="43.644" lon="7.07428">
        <ele>162</ele>
        <time>2022-03-12T09:44:59.000Z</time>
      </trkpt>
      <trkpt lat="43.64396" lon="7.07427">
        <ele>162.39999389648</ele>
        <time>2022-03-12T09:45:00.000Z</time>
      </trkpt>
      <trkpt lat="43.64386" lon="7.07422">
        <ele>163.60000610352</ele>
        <time>2022-03-12T09:45:03.000Z</time>
      </trkpt>
      <trkpt lat="43.64382" lon="7.0742">
        <ele>164</ele>
        <time>2022-03-12T09:45:04.000Z</time>
      </trkpt>
      <trkpt lat="43.64376" lon="7.0742">
        <ele>164.80000305176</ele>
        <time>2022-03-12T09:45:06.000Z</time>
      </trkpt>
      <trkpt lat="43.64368" lon="7.07421">
        <ele>165.19999694824</ele>
        <time>2022-03-12T09:45:09.000Z</time>
      </trkpt>
      <trkpt lat="43.64349" lon="7.07425">
        <ele>165.19999694824</ele>
        <time>2022-03-12T09:45:14.000Z</time>
      </trkpt>
      <trkpt lat="43.64327" lon="7.07427">
        <ele>164</ele>
        <time>2022-03-12T09:45:20.000Z</time>
      </trkpt>
      <trkpt lat="43.64305" lon="7.07437">
        <ele>164</ele>
        <time>2022-03-12T09:45:26.000Z</time>
      </trkpt>
      <trkpt lat="43.64296" lon="7.0744">
        <ele>163.80000305176</ele>
        <time>2022-03-12T09:45:28.000Z</time>
      </trkpt>
      <trkpt lat="43.64287" lon="7.07444">
        <ele>164.19999694824</ele>
        <time>2022-03-12T09:45:31.000Z</time>
      </trkpt>
      <trkpt lat="43.64282" lon="7.0745">
        <ele>164.80000305176</ele>
        <time>2022-03-12T09:45:33.000Z</time>
      </trkpt>
      <trkpt lat="43.64275" lon="7.07459">
        <ele>165.19999694824</ele>
        <time>2022-03-12T09:45:36.000Z</time>
      </trkpt>
      <trkpt lat="43.64271" lon="7.07471">
        <ele>165.80000305176</ele>
        <time>2022-03-12T09:45:39.000Z</time>
      </trkpt>
      <trkpt lat="43.64269" lon="7.07477">
        <ele>166.60000610352</ele>
        <time>2022-03-12T09:45:41.000Z</time>
      </trkpt>
      <trkpt lat="43.64268" lon="7.07479">
        <ele>167</ele>
        <time>2022-03-12T09:45:42.000Z</time>
      </trkpt>
      <trkpt lat="43.64266" lon="7.07485">
        <ele>168</ele>
        <time>2022-03-12T09:45:45.000Z</time>
      </trkpt>
      <trkpt lat="43.64265" lon="7.07485">
        <ele>168.19999694824</ele>
        <time>2022-03-12T09:45:46.000Z</time>
      </trkpt>
      <trkpt lat="43.64263" lon="7.07478">
        <ele>168.80000305176</ele>
        <time>2022-03-12T09:45:49.000Z</time>
      </trkpt>
      <trkpt lat="43.64261" lon="7.07467">
        <ele>168.80000305176</ele>
        <time>2022-03-12T09:45:52.000Z</time>
      </trkpt>
      <trkpt lat="43.6426" lon="7.07459">
        <ele>168.60000610352</ele>
        <time>2022-03-12T09:45:54.000Z</time>
      </trkpt>
      <trkpt lat="43.64257" lon="7.07442">
        <ele>169.19999694824</ele>
        <time>2022-03-12T09:45:59.000Z</time>
      </trkpt>
      <trkpt lat="43.64255" lon="7.07438">
        <ele>169.60000610352</ele>
        <time>2022-03-12T09:46:01.000Z</time>
      </trkpt>
      <trkpt lat="43.64252" lon="7.07432">
        <ele>170.39999389648</ele>
        <time>2022-03-12T09:46:04.000Z</time>
      </trkpt>
      <trkpt lat="43.64251" lon="7.0743">
        <ele>171.39999389648</ele>
        <time>2022-03-12T09:46:08.000Z</time>
      </trkpt>
      <trkpt lat="43.64251" lon="7.07429">
        <ele>171.80000305176</ele>
        <time>2022-03-12T09:46:10.000Z</time>
      </trkpt>
      <trkpt lat="43.64251" lon="7.07428">
        <ele>172.39999389648</ele>
        <time>2022-03-12T09:46:18.000Z</time>
      </trkpt>
      <trkpt lat="43.64251" lon="7.07428">
        <ele>173</ele>
        <time>2022-03-12T09:46:22.000Z</time>
      </trkpt>
      <trkpt lat="43.64252" lon="7.0743">
        <ele>172.60000610352</ele>
        <time>2022-03-12T09:46:26.000Z</time>
      </trkpt>
      <trkpt lat="43.64252" lon="7.0743">
        <ele>172.60000610352</ele>
        <time>2022-03-12T09:46:28.000Z</time>
      </trkpt>
      <trkpt lat="43.64253" lon="7.07434">
        <ele>172.39999389648</ele>
        <time>2022-03-12T09:46:30.000Z</time>
      </trkpt>
      <trkpt lat="43.64256" lon="7.07439">
        <ele>172.19999694824</ele>
        <time>2022-03-12T09:46:32.000Z</time>
      </trkpt>
      <trkpt lat="43.64257" lon="7.07447">
        <ele>171.39999389648</ele>
        <time>2022-03-12T09:46:34.000Z</time>
      </trkpt>
      <trkpt lat="43.64257" lon="7.07453">
        <ele>170.39999389648</ele>
        <time>2022-03-12T09:46:36.000Z</time>
      </trkpt>
      <trkpt lat="43.64256" lon="7.07454">
        <ele>170</ele>
        <time>2022-03-12T09:46:37.000Z</time>
      </trkpt>
      <trkpt lat="43.64254" lon="7.07451">
        <ele>169.80000305176</ele>
        <time>2022-03-12T09:46:39.000Z</time>
      </trkpt>
      <trkpt lat="43.64258" lon="7.07446">
        <ele>170.39999389648</ele>
        <time>2022-03-12T09:46:43.000Z</time>
      </trkpt>
      <trkpt lat="43.64257" lon="7.07444">
        <ele>170.39999389648</ele>
        <time>2022-03-12T09:46:46.000Z</time>
      </trkpt>
      <trkpt lat="43.64256" lon="7.07444">
        <ele>170.19999694824</ele>
        <time>2022-03-12T09:46:48.000Z</time>
      </trkpt>
      <trkpt lat="43.64256" lon="7.07446">
        <ele>170</ele>
        <time>2022-03-12T09:46:50.000Z</time>
      </trkpt>
      <trkpt lat="43.64256" lon="7.07451">
        <ele>170</ele>
        <time>2022-03-12T09:46:52.000Z</time>
      </trkpt>
      <trkpt lat="43.64255" lon="7.0746">
        <ele>170</ele>
        <time>2022-03-12T09:46:56.000Z</time>
      </trkpt>
      <trkpt lat="43.64256" lon="7.07462">
        <ele>170</ele>
        <time>2022-03-12T09:46:57.000Z</time>
      </trkpt>
      <trkpt lat="43.64256" lon="7.0747">
        <ele>169.60000610352</ele>
        <time>2022-03-12T09:47:00.000Z</time>
      </trkpt>
      <trkpt lat="43.64256" lon="7.07472">
        <ele>169.39999389648</ele>
        <time>2022-03-12T09:47:01.000Z</time>
      </trkpt>
      <trkpt lat="43.64256" lon="7.07478">
        <ele>169</ele>
        <time>2022-03-12T09:47:03.000Z</time>
      </trkpt>
      <trkpt lat="43.64256" lon="7.07486">
        <ele>169</ele>
        <time>2022-03-12T09:47:07.000Z</time>
      </trkpt>
      <trkpt lat="43.64258" lon="7.07491">
        <ele>169.19999694824</ele>
        <time>2022-03-12T09:47:11.000Z</time>
      </trkpt>
      <trkpt lat="43.64256" lon="7.07495">
        <ele>169</ele>
        <time>2022-03-12T09:47:15.000Z</time>
      </trkpt>
      <trkpt lat="43.64256" lon="7.07491">
        <ele>169</ele>
        <time>2022-03-12T09:47:19.000Z</time>
      </trkpt>
      <trkpt lat="43.64257" lon="7.07489">
        <ele>169</ele>
        <time>2022-03-12T09:47:20.000Z</time>
      </trkpt>
      <trkpt lat="43.64257" lon="7.07478">
        <ele>169</ele>
        <time>2022-03-12T09:47:24.000Z</time>
      </trkpt>
      <trkpt lat="43.64253" lon="7.07452">
        <ele>169.19999694824</ele>
        <time>2022-03-12T09:47:31.000Z</time>
      </trkpt>
      <trkpt lat="43.64249" lon="7.07437">
        <ele>169.80000305176</ele>
        <time>2022-03-12T09:47:36.000Z</time>
      </trkpt>
      <trkpt lat="43.64248" lon="7.07435">
        <ele>170.19999694824</ele>
        <time>2022-03-12T09:47:37.000Z</time>
      </trkpt>
      <trkpt lat="43.64248" lon="7.07433">
        <ele>171.39999389648</ele>
        <time>2022-03-12T09:47:40.000Z</time>
      </trkpt>
      <trkpt lat="43.64248" lon="7.07432">
        <ele>171.60000610352</ele>
        <time>2022-03-12T09:47:41.000Z</time>
      </trkpt>
      <trkpt lat="43.64249" lon="7.07429">
        <ele>171.80000305176</ele>
        <time>2022-03-12T09:47:55.000Z</time>
      </trkpt>
      <trkpt lat="43.6425" lon="7.07427">
        <ele>172.39999389648</ele>
        <time>2022-03-12T09:48:07.000Z</time>
      </trkpt>
      <trkpt lat="43.64249" lon="7.07426">
        <ele>172.39999389648</ele>
        <time>2022-03-12T09:48:12.000Z</time>
      </trkpt>
      <trkpt lat="43.64247" lon="7.07422">
        <ele>172.80000305176</ele>
        <time>2022-03-12T09:48:17.000Z</time>
      </trkpt>
      <trkpt lat="43.64243" lon="7.07407">
        <ele>172.60000610352</ele>
        <time>2022-03-12T09:48:21.000Z</time>
      </trkpt>
      <trkpt lat="43.64243" lon="7.07402">
        <ele>172.39999389648</ele>
        <time>2022-03-12T09:48:22.000Z</time>
      </trkpt>
      <trkpt lat="43.64241" lon="7.07384">
        <ele>171.80000305176</ele>
        <time>2022-03-12T09:48:26.000Z</time>
      </trkpt>
      <trkpt lat="43.64241" lon="7.07374">
        <ele>171.39999389648</ele>
        <time>2022-03-12T09:48:28.000Z</time>
      </trkpt>
      <trkpt lat="43.6424" lon="7.0736">
        <ele>171.19999694824</ele>
        <time>2022-03-12T09:48:31.000Z</time>
      </trkpt>
      <trkpt lat="43.64243" lon="7.07348">
        <ele>171.19999694824</ele>
        <time>2022-03-12T09:48:34.000Z</time>
      </trkpt>
      <trkpt lat="43.64243" lon="7.07345">
        <ele>171.19999694824</ele>
        <time>2022-03-12T09:48:35.000Z</time>
      </trkpt>
      <trkpt lat="43.64243" lon="7.07336">
        <ele>171.39999389648</ele>
        <time>2022-03-12T09:48:37.000Z</time>
      </trkpt>
      <trkpt lat="43.64241" lon="7.07327">
        <ele>171.80000305176</ele>
        <time>2022-03-12T09:48:39.000Z</time>
      </trkpt>
      <trkpt lat="43.64241" lon="7.07313">
        <ele>172</ele>
        <time>2022-03-12T09:48:42.000Z</time>
      </trkpt>
      <trkpt lat="43.64239" lon="7.07294">
        <ele>172</ele>
        <time>2022-03-12T09:48:46.000Z</time>
      </trkpt>
      <trkpt lat="43.64236" lon="7.07281">
        <ele>172</ele>
        <time>2022-03-12T09:48:48.000Z</time>
      </trkpt>
      <trkpt lat="43.64233" lon="7.07269">
        <ele>171.80000305176</ele>
        <time>2022-03-12T09:48:50.000Z</time>
      </trkpt>
      <trkpt lat="43.64225" lon="7.07251">
        <ele>170.60000610352</ele>
        <time>2022-03-12T09:48:54.000Z</time>
      </trkpt>
      <trkpt lat="43.64224" lon="7.07245">
        <ele>170.39999389648</ele>
        <time>2022-03-12T09:48:56.000Z</time>
      </trkpt>
      <trkpt lat="43.64224" lon="7.07242">
        <ele>170.39999389648</ele>
        <time>2022-03-12T09:48:57.000Z</time>
      </trkpt>
      <trkpt lat="43.64225" lon="7.07237">
        <ele>170.60000610352</ele>
        <time>2022-03-12T09:48:59.000Z</time>
      </trkpt>
      <trkpt lat="43.64224" lon="7.07228">
        <ele>171.60000610352</ele>
        <time>2022-03-12T09:49:02.000Z</time>
      </trkpt>
      <trkpt lat="43.64223" lon="7.07225">
        <ele>172.19999694824</ele>
        <time>2022-03-12T09:49:03.000Z</time>
      </trkpt>
      <trkpt lat="43.64221" lon="7.07223">
        <ele>172.80000305176</ele>
        <time>2022-03-12T09:49:04.000Z</time>
      </trkpt>
      <trkpt lat="43.64218" lon="7.07214">
        <ele>173.60000610352</ele>
        <time>2022-03-12T09:49:08.000Z</time>
      </trkpt>
      <trkpt lat="43.64215" lon="7.07208">
        <ele>173.80000305176</ele>
        <time>2022-03-12T09:49:10.000Z</time>
      </trkpt>
      <trkpt lat="43.64214" lon="7.07201">
        <ele>174.39999389648</ele>
        <time>2022-03-12T09:49:12.000Z</time>
      </trkpt>
      <trkpt lat="43.64211" lon="7.07191">
        <ele>174.60000610352</ele>
        <time>2022-03-12T09:49:15.000Z</time>
      </trkpt>
      <trkpt lat="43.64207" lon="7.07181">
        <ele>174.39999389648</ele>
        <time>2022-03-12T09:49:18.000Z</time>
      </trkpt>
      <trkpt lat="43.64208" lon="7.07166">
        <ele>174.39999389648</ele>
        <time>2022-03-12T09:49:22.000Z</time>
      </trkpt>
      <trkpt lat="43.6421" lon="7.07151">
        <ele>174.39999389648</ele>
        <time>2022-03-12T09:49:25.000Z</time>
      </trkpt>
      <trkpt lat="43.6421" lon="7.07142">
        <ele>174.39999389648</ele>
        <time>2022-03-12T09:49:27.000Z</time>
      </trkpt>
      <trkpt lat="43.64206" lon="7.07122">
        <ele>174.39999389648</ele>
        <time>2022-03-12T09:49:31.000Z</time>
      </trkpt>
      <trkpt lat="43.64198" lon="7.071">
        <ele>172.80000305176</ele>
        <time>2022-03-12T09:49:36.000Z</time>
      </trkpt>
      <trkpt lat="43.64191" lon="7.07093">
        <ele>172.19999694824</ele>
        <time>2022-03-12T09:49:39.000Z</time>
      </trkpt>
      <trkpt lat="43.64186" lon="7.0708">
        <ele>171.80000305176</ele>
        <time>2022-03-12T09:49:42.000Z</time>
      </trkpt>
      <trkpt lat="43.64183" lon="7.07076">
        <ele>171.60000610352</ele>
        <time>2022-03-12T09:49:43.000Z</time>
      </trkpt>
      <trkpt lat="43.64177" lon="7.07074">
        <ele>171.19999694824</ele>
        <time>2022-03-12T09:49:45.000Z</time>
      </trkpt>
      <trkpt lat="43.64175" lon="7.07075">
        <ele>171.19999694824</ele>
        <time>2022-03-12T09:49:46.000Z</time>
      </trkpt>
      <trkpt lat="43.64166" lon="7.07078">
        <ele>171.60000610352</ele>
        <time>2022-03-12T09:49:50.000Z</time>
      </trkpt>
      <trkpt lat="43.64163" lon="7.07077">
        <ele>171.80000305176</ele>
        <time>2022-03-12T09:49:51.000Z</time>
      </trkpt>
      <trkpt lat="43.64157" lon="7.07072">
        <ele>172.80000305176</ele>
        <time>2022-03-12T09:49:54.000Z</time>
      </trkpt>
      <trkpt lat="43.64155" lon="7.07071">
        <ele>173.19999694824</ele>
        <time>2022-03-12T09:49:55.000Z</time>
      </trkpt>
      <trkpt lat="43.64148" lon="7.07069">
        <ele>174</ele>
        <time>2022-03-12T09:49:58.000Z</time>
      </trkpt>
      <trkpt lat="43.64143" lon="7.07064">
        <ele>175</ele>
        <time>2022-03-12T09:50:01.000Z</time>
      </trkpt>
      <trkpt lat="43.64141" lon="7.07062">
        <ele>175.39999389648</ele>
        <time>2022-03-12T09:50:02.000Z</time>
      </trkpt>
      <trkpt lat="43.64136" lon="7.07057">
        <ele>176.80000305176</ele>
        <time>2022-03-12T09:50:06.000Z</time>
      </trkpt>
      <trkpt lat="43.64133" lon="7.07054">
        <ele>177</ele>
        <time>2022-03-12T09:50:08.000Z</time>
      </trkpt>
      <trkpt lat="43.64126" lon="7.07047">
        <ele>177</ele>
        <time>2022-03-12T09:50:11.000Z</time>
      </trkpt>
      <trkpt lat="43.64116" lon="7.07036">
        <ele>177.19999694824</ele>
        <time>2022-03-12T09:50:15.000Z</time>
      </trkpt>
      <trkpt lat="43.64105" lon="7.07028">
        <ele>178</ele>
        <time>2022-03-12T09:50:19.000Z</time>
      </trkpt>
      <trkpt lat="43.64103" lon="7.07028">
        <ele>178.19999694824</ele>
        <time>2022-03-12T09:50:20.000Z</time>
      </trkpt>
      <trkpt lat="43.64098" lon="7.07025">
        <ele>179</ele>
        <time>2022-03-12T09:50:22.000Z</time>
      </trkpt>
      <trkpt lat="43.64092" lon="7.07017">
        <ele>179.39999389648</ele>
        <time>2022-03-12T09:50:25.000Z</time>
      </trkpt>
      <trkpt lat="43.64086" lon="7.07011">
        <ele>180.19999694824</ele>
        <time>2022-03-12T09:50:28.000Z</time>
      </trkpt>
      <trkpt lat="43.64081" lon="7.07007">
        <ele>181.60000610352</ele>
        <time>2022-03-12T09:50:31.000Z</time>
      </trkpt>
      <trkpt lat="43.6407" lon="7.06998">
        <ele>182.60000610352</ele>
        <time>2022-03-12T09:50:36.000Z</time>
      </trkpt>
      <trkpt lat="43.6407" lon="7.06995">
        <ele>182.80000305176</ele>
        <time>2022-03-12T09:50:37.000Z</time>
      </trkpt>
      <trkpt lat="43.64067" lon="7.06988">
        <ele>183.39999389648</ele>
        <time>2022-03-12T09:50:40.000Z</time>
      </trkpt>
      <trkpt lat="43.64064" lon="7.06981">
        <ele>183.80000305176</ele>
        <time>2022-03-12T09:50:42.000Z</time>
      </trkpt>
      <trkpt lat="43.64056" lon="7.06974">
        <ele>184.80000305176</ele>
        <time>2022-03-12T09:50:45.000Z</time>
      </trkpt>
      <trkpt lat="43.64053" lon="7.06971">
        <ele>185</ele>
        <time>2022-03-12T09:50:46.000Z</time>
      </trkpt>
      <trkpt lat="43.64048" lon="7.06953">
        <ele>185.39999389648</ele>
        <time>2022-03-12T09:50:50.000Z</time>
      </trkpt>
      <trkpt lat="43.64045" lon="7.06945">
        <ele>185.39999389648</ele>
        <time>2022-03-12T09:50:52.000Z</time>
      </trkpt>
      <trkpt lat="43.6404" lon="7.06945">
        <ele>185.19999694824</ele>
        <time>2022-03-12T09:50:53.000Z</time>
      </trkpt>
      <trkpt lat="43.64032" lon="7.06933">
        <ele>184</ele>
        <time>2022-03-12T09:50:56.000Z</time>
      </trkpt>
      <trkpt lat="43.64029" lon="7.06916">
        <ele>182.80000305176</ele>
        <time>2022-03-12T09:51:00.000Z</time>
      </trkpt>
      <trkpt lat="43.64025" lon="7.0691">
        <ele>182.19999694824</ele>
        <time>2022-03-12T09:51:04.000Z</time>
      </trkpt>
      <trkpt lat="43.64023" lon="7.06899">
        <ele>182</ele>
        <time>2022-03-12T09:51:08.000Z</time>
      </trkpt>
      <trkpt lat="43.64025" lon="7.06895">
        <ele>182</ele>
        <time>2022-03-12T09:51:09.000Z</time>
      </trkpt>
      <trkpt lat="43.64035" lon="7.06893">
        <ele>182</ele>
        <time>2022-03-12T09:51:13.000Z</time>
      </trkpt>
      <trkpt lat="43.64037" lon="7.06893">
        <ele>182</ele>
        <time>2022-03-12T09:51:14.000Z</time>
      </trkpt>
      <trkpt lat="43.64048" lon="7.06894">
        <ele>182.39999389648</ele>
        <time>2022-03-12T09:51:18.000Z</time>
      </trkpt>
      <trkpt lat="43.64056" lon="7.06893">
        <ele>183.39999389648</ele>
        <time>2022-03-12T09:51:21.000Z</time>
      </trkpt>
      <trkpt lat="43.64058" lon="7.0689">
        <ele>183.80000305176</ele>
        <time>2022-03-12T09:51:22.000Z</time>
      </trkpt>
      <trkpt lat="43.6406" lon="7.06886">
        <ele>184</ele>
        <time>2022-03-12T09:51:23.000Z</time>
      </trkpt>
      <trkpt lat="43.64066" lon="7.06874">
        <ele>184.19999694824</ele>
        <time>2022-03-12T09:51:27.000Z</time>
      </trkpt>
      <trkpt lat="43.64073" lon="7.06865">
        <ele>185.19999694824</ele>
        <time>2022-03-12T09:51:30.000Z</time>
      </trkpt>
      <trkpt lat="43.64075" lon="7.06863">
        <ele>185.60000610352</ele>
        <time>2022-03-12T09:51:31.000Z</time>
      </trkpt>
      <trkpt lat="43.6408" lon="7.06859">
        <ele>186.39999389648</ele>
        <time>2022-03-12T09:51:33.000Z</time>
      </trkpt>
      <trkpt lat="43.64083" lon="7.06855">
        <ele>186.39999389648</ele>
        <time>2022-03-12T09:51:35.000Z</time>
      </trkpt>
      <trkpt lat="43.64092" lon="7.06848">
        <ele>187</ele>
        <time>2022-03-12T09:51:39.000Z</time>
      </trkpt>
      <trkpt lat="43.64101" lon="7.0684">
        <ele>187.39999389648</ele>
        <time>2022-03-12T09:51:42.000Z</time>
      </trkpt>
      <trkpt lat="43.64103" lon="7.06837">
        <ele>187.60000610352</ele>
        <time>2022-03-12T09:51:43.000Z</time>
      </trkpt>
      <trkpt lat="43.64119" lon="7.06823">
        <ele>188.39999389648</ele>
        <time>2022-03-12T09:51:48.000Z</time>
      </trkpt>
      <trkpt lat="43.64132" lon="7.06824">
        <ele>189.39999389648</ele>
        <time>2022-03-12T09:51:52.000Z</time>
      </trkpt>
      <trkpt lat="43.64145" lon="7.06825">
        <ele>188.39999389648</ele>
        <time>2022-03-12T09:51:56.000Z</time>
      </trkpt>
      <trkpt lat="43.64163" lon="7.06817">
        <ele>188.19999694824</ele>
        <time>2022-03-12T09:52:01.000Z</time>
      </trkpt>
      <trkpt lat="43.64165" lon="7.06818">
        <ele>188</ele>
        <time>2022-03-12T09:52:02.000Z</time>
      </trkpt>
      <trkpt lat="43.64167" lon="7.06819">
        <ele>187.80000305176</ele>
        <time>2022-03-12T09:52:04.000Z</time>
      </trkpt>
      <trkpt lat="43.6417" lon="7.06818">
        <ele>188</ele>
        <time>2022-03-12T09:52:10.000Z</time>
      </trkpt>
      <trkpt lat="43.64174" lon="7.06816">
        <ele>188.19999694824</ele>
        <time>2022-03-12T09:52:18.000Z</time>
      </trkpt>
      <trkpt lat="43.64177" lon="7.06815">
        <ele>188.19999694824</ele>
        <time>2022-03-12T09:52:30.000Z</time>
      </trkpt>
      <trkpt lat="43.64182" lon="7.06817">
        <ele>188.60000610352</ele>
        <time>2022-03-12T09:52:34.000Z</time>
      </trkpt>
      <trkpt lat="43.64182" lon="7.06819">
        <ele>188.60000610352</ele>
        <time>2022-03-12T09:52:35.000Z</time>
      </trkpt>
      <trkpt lat="43.64185" lon="7.06821">
        <ele>188.19999694824</ele>
        <time>2022-03-12T09:52:38.000Z</time>
      </trkpt>
      <trkpt lat="43.64191" lon="7.06821">
        <ele>188.19999694824</ele>
        <time>2022-03-12T09:52:40.000Z</time>
      </trkpt>
      <trkpt lat="43.64194" lon="7.06821">
        <ele>188.19999694824</ele>
        <time>2022-03-12T09:52:41.000Z</time>
      </trkpt>
      <trkpt lat="43.64207" lon="7.06823">
        <ele>188</ele>
        <time>2022-03-12T09:52:45.000Z</time>
      </trkpt>
      <trkpt lat="43.64225" lon="7.06819">
        <ele>188.60000610352</ele>
        <time>2022-03-12T09:52:50.000Z</time>
      </trkpt>
      <trkpt lat="43.64227" lon="7.06821">
        <ele>188.80000305176</ele>
        <time>2022-03-12T09:52:51.000Z</time>
      </trkpt>
      <trkpt lat="43.64233" lon="7.06827">
        <ele>189.80000305176</ele>
        <time>2022-03-12T09:52:54.000Z</time>
      </trkpt>
      <trkpt lat="43.64239" lon="7.06843">
        <ele>190</ele>
        <time>2022-03-12T09:52:58.000Z</time>
      </trkpt>
      <trkpt lat="43.64242" lon="7.06853">
        <ele>189.80000305176</ele>
        <time>2022-03-12T09:53:01.000Z</time>
      </trkpt>
      <trkpt lat="43.64244" lon="7.06856">
        <ele>189.80000305176</ele>
        <time>2022-03-12T09:53:02.000Z</time>
      </trkpt>
      <trkpt lat="43.64247" lon="7.06865">
        <ele>190.39999389648</ele>
        <time>2022-03-12T09:53:05.000Z</time>
      </trkpt>
      <trkpt lat="43.64249" lon="7.0687">
        <ele>190.60000610352</ele>
        <time>2022-03-12T09:53:06.000Z</time>
      </trkpt>
      <trkpt lat="43.64251" lon="7.06874">
        <ele>191</ele>
        <time>2022-03-12T09:53:07.000Z</time>
      </trkpt>
      <trkpt lat="43.64255" lon="7.06882">
        <ele>191.60000610352</ele>
        <time>2022-03-12T09:53:10.000Z</time>
      </trkpt>
      <trkpt lat="43.64257" lon="7.06892">
        <ele>192</ele>
        <time>2022-03-12T09:53:13.000Z</time>
      </trkpt>
      <trkpt lat="43.64258" lon="7.06894">
        <ele>192</ele>
        <time>2022-03-12T09:53:14.000Z</time>
      </trkpt>
      <trkpt lat="43.64258" lon="7.06899">
        <ele>191.60000610352</ele>
        <time>2022-03-12T09:53:17.000Z</time>
      </trkpt>
      <trkpt lat="43.64266" lon="7.06907">
        <ele>191.39999389648</ele>
        <time>2022-03-12T09:53:22.000Z</time>
      </trkpt>
      <trkpt lat="43.64272" lon="7.06902">
        <ele>191.19999694824</ele>
        <time>2022-03-12T09:53:26.000Z</time>
      </trkpt>
      <trkpt lat="43.64281" lon="7.069">
        <ele>191.60000610352</ele>
        <time>2022-03-12T09:53:30.000Z</time>
      </trkpt>
      <trkpt lat="43.64293" lon="7.06899">
        <ele>191.60000610352</ele>
        <time>2022-03-12T09:53:34.000Z</time>
      </trkpt>
      <trkpt lat="43.64307" lon="7.06903">
        <ele>192.19999694824</ele>
        <time>2022-03-12T09:53:38.000Z</time>
      </trkpt>
      <trkpt lat="43.6431" lon="7.06903">
        <ele>192.19999694824</ele>
        <time>2022-03-12T09:53:39.000Z</time>
      </trkpt>
      <trkpt lat="43.64314" lon="7.06901">
        <ele>192.39999389648</ele>
        <time>2022-03-12T09:53:40.000Z</time>
      </trkpt>
      <trkpt lat="43.64325" lon="7.06896">
        <ele>192.39999389648</ele>
        <time>2022-03-12T09:53:43.000Z</time>
      </trkpt>
      <trkpt lat="43.64345" lon="7.06891">
        <ele>192.60000610352</ele>
        <time>2022-03-12T09:53:49.000Z</time>
      </trkpt>
      <trkpt lat="43.64356" lon="7.06882">
        <ele>192.80000305176</ele>
        <time>2022-03-12T09:53:55.000Z</time>
      </trkpt>
      <trkpt lat="43.64361" lon="7.06875">
        <ele>193</ele>
        <time>2022-03-12T09:53:59.000Z</time>
      </trkpt>
      <trkpt lat="43.64363" lon="7.06874">
        <ele>193</ele>
        <time>2022-03-12T09:54:00.000Z</time>
      </trkpt>
      <trkpt lat="43.64373" lon="7.06881">
        <ele>193</ele>
        <time>2022-03-12T09:54:04.000Z</time>
      </trkpt>
      <trkpt lat="43.64377" lon="7.06888">
        <ele>193.19999694824</ele>
        <time>2022-03-12T09:54:06.000Z</time>
      </trkpt>
      <trkpt lat="43.64389" lon="7.06901">
        <ele>194</ele>
        <time>2022-03-12T09:54:11.000Z</time>
      </trkpt>
      <trkpt lat="43.64398" lon="7.06912">
        <ele>195.19999694824</ele>
        <time>2022-03-12T09:54:15.000Z</time>
      </trkpt>
      <trkpt lat="43.64408" lon="7.06927">
        <ele>196.19999694824</ele>
        <time>2022-03-12T09:54:20.000Z</time>
      </trkpt>
      <trkpt lat="43.64418" lon="7.0695">
        <ele>197</ele>
        <time>2022-03-12T09:54:27.000Z</time>
      </trkpt>
      <trkpt lat="43.64419" lon="7.06953">
        <ele>197.39999389648</ele>
        <time>2022-03-12T09:54:28.000Z</time>
      </trkpt>
      <trkpt lat="43.64423" lon="7.06963">
        <ele>198.39999389648</ele>
        <time>2022-03-12T09:54:31.000Z</time>
      </trkpt>
      <trkpt lat="43.64427" lon="7.06977">
        <ele>198.60000610352</ele>
        <time>2022-03-12T09:54:35.000Z</time>
      </trkpt>
      <trkpt lat="43.64432" lon="7.06998">
        <ele>199.80000305176</ele>
        <time>2022-03-12T09:54:41.000Z</time>
      </trkpt>
      <trkpt lat="43.64432" lon="7.07">
        <ele>200.19999694824</ele>
        <time>2022-03-12T09:54:42.000Z</time>
      </trkpt>
      <trkpt lat="43.64434" lon="7.07005">
        <ele>200.80000305176</ele>
        <time>2022-03-12T09:54:45.000Z</time>
      </trkpt>
      <trkpt lat="43.64436" lon="7.07006">
        <ele>201.19999694824</ele>
        <time>2022-03-12T09:54:47.000Z</time>
      </trkpt>
      <trkpt lat="43.64437" lon="7.07005">
        <ele>201.19999694824</ele>
        <time>2022-03-12T09:54:48.000Z</time>
      </trkpt>
      <trkpt lat="43.64443" lon="7.07001">
        <ele>201.80000305176</ele>
        <time>2022-03-12T09:54:51.000Z</time>
      </trkpt>
      <trkpt lat="43.6445" lon="7.07001">
        <ele>202</ele>
        <time>2022-03-12T09:54:53.000Z</time>
      </trkpt>
      <trkpt lat="43.64453" lon="7.07">
        <ele>202</ele>
        <time>2022-03-12T09:54:54.000Z</time>
      </trkpt>
      <trkpt lat="43.64462" lon="7.06999">
        <ele>201.60000610352</ele>
        <time>2022-03-12T09:54:56.000Z</time>
      </trkpt>
      <trkpt lat="43.64469" lon="7.06996">
        <ele>200.80000305176</ele>
        <time>2022-03-12T09:54:58.000Z</time>
      </trkpt>
      <trkpt lat="43.64472" lon="7.06994">
        <ele>200.19999694824</ele>
        <time>2022-03-12T09:54:59.000Z</time>
      </trkpt>
      <trkpt lat="43.64476" lon="7.06991">
        <ele>199.60000610352</ele>
        <time>2022-03-12T09:55:00.000Z</time>
      </trkpt>
      <trkpt lat="43.64483" lon="7.06988">
        <ele>198.19999694824</ele>
        <time>2022-03-12T09:55:02.000Z</time>
      </trkpt>
      <trkpt lat="43.64488" lon="7.06988">
        <ele>198</ele>
        <time>2022-03-12T09:55:03.000Z</time>
      </trkpt>
      <trkpt lat="43.64496" lon="7.06985">
        <ele>196.80000305176</ele>
        <time>2022-03-12T09:55:06.000Z</time>
      </trkpt>
      <trkpt lat="43.64504" lon="7.06979">
        <ele>195.60000610352</ele>
        <time>2022-03-12T09:55:09.000Z</time>
      </trkpt>
      <trkpt lat="43.64508" lon="7.0698">
        <ele>194.39999389648</ele>
        <time>2022-03-12T09:55:10.000Z</time>
      </trkpt>
      <trkpt lat="43.64512" lon="7.06982">
        <ele>193.80000305176</ele>
        <time>2022-03-12T09:55:11.000Z</time>
      </trkpt>
      <trkpt lat="43.64515" lon="7.06981">
        <ele>192.60000610352</ele>
        <time>2022-03-12T09:55:12.000Z</time>
      </trkpt>
      <trkpt lat="43.64522" lon="7.06974">
        <ele>191.19999694824</ele>
        <time>2022-03-12T09:55:14.000Z</time>
      </trkpt>
      <trkpt lat="43.64525" lon="7.06967">
        <ele>189.60000610352</ele>
        <time>2022-03-12T09:55:16.000Z</time>
      </trkpt>
      <trkpt lat="43.64526" lon="7.06962">
        <ele>189</ele>
        <time>2022-03-12T09:55:17.000Z</time>
      </trkpt>
      <trkpt lat="43.64527" lon="7.06958">
        <ele>188.39999389648</ele>
        <time>2022-03-12T09:55:18.000Z</time>
      </trkpt>
      <trkpt lat="43.64529" lon="7.06958">
        <ele>187.19999694824</ele>
        <time>2022-03-12T09:55:19.000Z</time>
      </trkpt>
      <trkpt lat="43.64532" lon="7.06957">
        <ele>185.39999389648</ele>
        <time>2022-03-12T09:55:21.000Z</time>
      </trkpt>
      <trkpt lat="43.64532" lon="7.06954">
        <ele>184.60000610352</ele>
        <time>2022-03-12T09:55:22.000Z</time>
      </trkpt>
      <trkpt lat="43.64533" lon="7.06951">
        <ele>184.19999694824</ele>
        <time>2022-03-12T09:55:23.000Z</time>
      </trkpt>
      <trkpt lat="43.64536" lon="7.06948">
        <ele>183.60000610352</ele>
        <time>2022-03-12T09:55:24.000Z</time>
      </trkpt>
      <trkpt lat="43.64542" lon="7.06948">
        <ele>182.60000610352</ele>
        <time>2022-03-12T09:55:26.000Z</time>
      </trkpt>
      <trkpt lat="43.64544" lon="7.06947">
        <ele>182.19999694824</ele>
        <time>2022-03-12T09:55:27.000Z</time>
      </trkpt>
      <trkpt lat="43.64548" lon="7.06946">
        <ele>181.39999389648</ele>
        <time>2022-03-12T09:55:29.000Z</time>
      </trkpt>
      <trkpt lat="43.64552" lon="7.06942">
        <ele>180.80000305176</ele>
        <time>2022-03-12T09:55:31.000Z</time>
      </trkpt>
      <trkpt lat="43.64555" lon="7.0694">
        <ele>180.39999389648</ele>
        <time>2022-03-12T09:55:32.000Z</time>
      </trkpt>
      <trkpt lat="43.64564" lon="7.06934">
        <ele>179.39999389648</ele>
        <time>2022-03-12T09:55:35.000Z</time>
      </trkpt>
      <trkpt lat="43.64568" lon="7.06932">
        <ele>179</ele>
        <time>2022-03-12T09:55:36.000Z</time>
      </trkpt>
      <trkpt lat="43.64571" lon="7.06931">
        <ele>178.60000610352</ele>
        <time>2022-03-12T09:55:37.000Z</time>
      </trkpt>
      <trkpt lat="43.64581" lon="7.06928">
        <ele>177.60000610352</ele>
        <time>2022-03-12T09:55:40.000Z</time>
      </trkpt>
      <trkpt lat="43.64584" lon="7.06926">
        <ele>177.39999389648</ele>
        <time>2022-03-12T09:55:41.000Z</time>
      </trkpt>
      <trkpt lat="43.64592" lon="7.06924">
        <ele>176.39999389648</ele>
        <time>2022-03-12T09:55:43.000Z</time>
      </trkpt>
      <trkpt lat="43.64602" lon="7.06922">
        <ele>175.80000305176</ele>
        <time>2022-03-12T09:55:45.000Z</time>
      </trkpt>
      <trkpt lat="43.64606" lon="7.06921">
        <ele>175.39999389648</ele>
        <time>2022-03-12T09:55:46.000Z</time>
      </trkpt>
      <trkpt lat="43.64613" lon="7.06916">
        <ele>173.80000305176</ele>
        <time>2022-03-12T09:55:48.000Z</time>
      </trkpt>
      <trkpt lat="43.64622" lon="7.06913">
        <ele>172.60000610352</ele>
        <time>2022-03-12T09:55:51.000Z</time>
      </trkpt>
      <trkpt lat="43.64624" lon="7.06915">
        <ele>172</ele>
        <time>2022-03-12T09:55:52.000Z</time>
      </trkpt>
      <trkpt lat="43.64627" lon="7.06917">
        <ele>170.80000305176</ele>
        <time>2022-03-12T09:55:53.000Z</time>
      </trkpt>
      <trkpt lat="43.64637" lon="7.06914">
        <ele>169.39999389648</ele>
        <time>2022-03-12T09:55:55.000Z</time>
      </trkpt>
      <trkpt lat="43.64643" lon="7.06911">
        <ele>167.80000305176</ele>
        <time>2022-03-12T09:55:57.000Z</time>
      </trkpt>
      <trkpt lat="43.64646" lon="7.06908">
        <ele>167.19999694824</ele>
        <time>2022-03-12T09:55:58.000Z</time>
      </trkpt>
      <trkpt lat="43.64649" lon="7.06906">
        <ele>166.80000305176</ele>
        <time>2022-03-12T09:55:59.000Z</time>
      </trkpt>
      <trkpt lat="43.64654" lon="7.06909">
        <ele>165.80000305176</ele>
        <time>2022-03-12T09:56:01.000Z</time>
      </trkpt>
      <trkpt lat="43.6466" lon="7.06914">
        <ele>164.60000610352</ele>
        <time>2022-03-12T09:56:03.000Z</time>
      </trkpt>
      <trkpt lat="43.64664" lon="7.06913">
        <ele>164.19999694824</ele>
        <time>2022-03-12T09:56:04.000Z</time>
      </trkpt>
      <trkpt lat="43.64666" lon="7.06912">
        <ele>163.60000610352</ele>
        <time>2022-03-12T09:56:05.000Z</time>
      </trkpt>
      <trkpt lat="43.64675" lon="7.0691">
        <ele>162.19999694824</ele>
        <time>2022-03-12T09:56:07.000Z</time>
      </trkpt>
      <trkpt lat="43.64682" lon="7.06914">
        <ele>160.80000305176</ele>
        <time>2022-03-12T09:56:09.000Z</time>
      </trkpt>
      <trkpt lat="43.64686" lon="7.06918">
        <ele>160</ele>
        <time>2022-03-12T09:56:10.000Z</time>
      </trkpt>
      <trkpt lat="43.6469" lon="7.06923">
        <ele>159.39999389648</ele>
        <time>2022-03-12T09:56:11.000Z</time>
      </trkpt>
      <trkpt lat="43.64697" lon="7.0693">
        <ele>157</ele>
        <time>2022-03-12T09:56:13.000Z</time>
      </trkpt>
      <trkpt lat="43.647" lon="7.06934">
        <ele>156.19999694824</ele>
        <time>2022-03-12T09:56:14.000Z</time>
      </trkpt>
      <trkpt lat="43.64703" lon="7.06938">
        <ele>155.39999389648</ele>
        <time>2022-03-12T09:56:15.000Z</time>
      </trkpt>
      <trkpt lat="43.64705" lon="7.0694">
        <ele>154.19999694824</ele>
        <time>2022-03-12T09:56:16.000Z</time>
      </trkpt>
      <trkpt lat="43.64707" lon="7.06942">
        <ele>152.60000610352</ele>
        <time>2022-03-12T09:56:17.000Z</time>
      </trkpt>
      <trkpt lat="43.64708" lon="7.06943">
        <ele>151.39999389648</ele>
        <time>2022-03-12T09:56:18.000Z</time>
      </trkpt>
      <trkpt lat="43.64711" lon="7.06944">
        <ele>150.39999389648</ele>
        <time>2022-03-12T09:56:19.000Z</time>
      </trkpt>
      <trkpt lat="43.64713" lon="7.06944">
        <ele>149.19999694824</ele>
        <time>2022-03-12T09:56:20.000Z</time>
      </trkpt>
      <trkpt lat="43.64719" lon="7.06944">
        <ele>147.60000610352</ele>
        <time>2022-03-12T09:56:22.000Z</time>
      </trkpt>
      <trkpt lat="43.64723" lon="7.06952">
        <ele>146.19999694824</ele>
        <time>2022-03-12T09:56:24.000Z</time>
      </trkpt>
      <trkpt lat="43.64724" lon="7.06959">
        <ele>145.39999389648</ele>
        <time>2022-03-12T09:56:25.000Z</time>
      </trkpt>
      <trkpt lat="43.64725" lon="7.06965">
        <ele>144.60000610352</ele>
        <time>2022-03-12T09:56:26.000Z</time>
      </trkpt>
      <trkpt lat="43.64727" lon="7.0697">
        <ele>143.60000610352</ele>
        <time>2022-03-12T09:56:27.000Z</time>
      </trkpt>
      <trkpt lat="43.64727" lon="7.0698">
        <ele>141.39999389648</ele>
        <time>2022-03-12T09:56:29.000Z</time>
      </trkpt>
      <trkpt lat="43.64726" lon="7.06985">
        <ele>140.39999389648</ele>
        <time>2022-03-12T09:56:30.000Z</time>
      </trkpt>
      <trkpt lat="43.64725" lon="7.06996">
        <ele>138.60000610352</ele>
        <time>2022-03-12T09:56:32.000Z</time>
      </trkpt>
      <trkpt lat="43.64726" lon="7.07">
        <ele>137.60000610352</ele>
        <time>2022-03-12T09:56:33.000Z</time>
      </trkpt>
      <trkpt lat="43.64727" lon="7.07007">
        <ele>137</ele>
        <time>2022-03-12T09:56:34.000Z</time>
      </trkpt>
      <trkpt lat="43.64727" lon="7.07014">
        <ele>136</ele>
        <time>2022-03-12T09:56:35.000Z</time>
      </trkpt>
      <trkpt lat="43.64726" lon="7.07021">
        <ele>135</ele>
        <time>2022-03-12T09:56:36.000Z</time>
      </trkpt>
      <trkpt lat="43.64726" lon="7.07026">
        <ele>133.60000610352</ele>
        <time>2022-03-12T09:56:37.000Z</time>
      </trkpt>
      <trkpt lat="43.64725" lon="7.07036">
        <ele>131.60000610352</ele>
        <time>2022-03-12T09:56:39.000Z</time>
      </trkpt>
      <trkpt lat="43.64725" lon="7.07041">
        <ele>130.39999389648</ele>
        <time>2022-03-12T09:56:40.000Z</time>
      </trkpt>
      <trkpt lat="43.64725" lon="7.07047">
        <ele>129.19999694824</ele>
        <time>2022-03-12T09:56:42.000Z</time>
      </trkpt>
      <trkpt lat="43.64725" lon="7.07049">
        <ele>128.39999389648</ele>
        <time>2022-03-12T09:56:43.000Z</time>
      </trkpt>
      <trkpt lat="43.64725" lon="7.0705">
        <ele>127.80000305176</ele>
        <time>2022-03-12T09:56:44.000Z</time>
      </trkpt>
      <trkpt lat="43.64725" lon="7.07052">
        <ele>127.80000305176</ele>
        <time>2022-03-12T09:56:45.000Z</time>
      </trkpt>
      <trkpt lat="43.64726" lon="7.07054">
        <ele>127.19999694824</ele>
        <time>2022-03-12T09:56:47.000Z</time>
      </trkpt>
      <trkpt lat="43.64726" lon="7.07055">
        <ele>127.19999694824</ele>
        <time>2022-03-12T09:56:48.000Z</time>
      </trkpt>
      <trkpt lat="43.6473" lon="7.07059">
        <ele>127</ele>
        <time>2022-03-12T09:56:53.000Z</time>
      </trkpt>
      <trkpt lat="43.64731" lon="7.07064">
        <ele>126.59999847412</ele>
        <time>2022-03-12T09:56:56.000Z</time>
      </trkpt>
      <trkpt lat="43.64731" lon="7.07071">
        <ele>126</ele>
        <time>2022-03-12T09:56:58.000Z</time>
      </trkpt>
      <trkpt lat="43.6473" lon="7.07073">
        <ele>125.59999847412</ele>
        <time>2022-03-12T09:56:59.000Z</time>
      </trkpt>
      <trkpt lat="43.64729" lon="7.07081">
        <ele>124.40000152588</ele>
        <time>2022-03-12T09:57:02.000Z</time>
      </trkpt>
      <trkpt lat="43.6473" lon="7.07084">
        <ele>124.59999847412</ele>
        <time>2022-03-12T09:57:03.000Z</time>
      </trkpt>
      <trkpt lat="43.64733" lon="7.07096">
        <ele>125.19999694824</ele>
        <time>2022-03-12T09:57:05.000Z</time>
      </trkpt>
      <trkpt lat="43.64735" lon="7.07103">
        <ele>125.19999694824</ele>
        <time>2022-03-12T09:57:06.000Z</time>
      </trkpt>
      <trkpt lat="43.64743" lon="7.0712">
        <ele>123.59999847412</ele>
        <time>2022-03-12T09:57:09.000Z</time>
      </trkpt>
      <trkpt lat="43.64746" lon="7.07126">
        <ele>122.80000305176</ele>
        <time>2022-03-12T09:57:10.000Z</time>
      </trkpt>
      <trkpt lat="43.64749" lon="7.07131">
        <ele>122.19999694824</ele>
        <time>2022-03-12T09:57:11.000Z</time>
      </trkpt>
      <trkpt lat="43.64751" lon="7.07136">
        <ele>121.40000152588</ele>
        <time>2022-03-12T09:57:12.000Z</time>
      </trkpt>
      <trkpt lat="43.64755" lon="7.0714">
        <ele>120.40000152588</ele>
        <time>2022-03-12T09:57:13.000Z</time>
      </trkpt>
      <trkpt lat="43.64756" lon="7.07146">
        <ele>119.40000152588</ele>
        <time>2022-03-12T09:57:14.000Z</time>
      </trkpt>
      <trkpt lat="43.64758" lon="7.07152">
        <ele>118.19999694824</ele>
        <time>2022-03-12T09:57:15.000Z</time>
      </trkpt>
      <trkpt lat="43.6476" lon="7.07155">
        <ele>116.59999847412</ele>
        <time>2022-03-12T09:57:16.000Z</time>
      </trkpt>
      <trkpt lat="43.64764" lon="7.07157">
        <ele>115.59999847412</ele>
        <time>2022-03-12T09:57:17.000Z</time>
      </trkpt>
      <trkpt lat="43.64766" lon="7.07162">
        <ele>114.59999847412</ele>
        <time>2022-03-12T09:57:18.000Z</time>
      </trkpt>
      <trkpt lat="43.64769" lon="7.07166">
        <ele>113</ele>
        <time>2022-03-12T09:57:19.000Z</time>
      </trkpt>
      <trkpt lat="43.64772" lon="7.07171">
        <ele>112</ele>
        <time>2022-03-12T09:57:20.000Z</time>
      </trkpt>
      <trkpt lat="43.64773" lon="7.07175">
        <ele>111</ele>
        <time>2022-03-12T09:57:21.000Z</time>
      </trkpt>
      <trkpt lat="43.64775" lon="7.0718">
        <ele>110.19999694824</ele>
        <time>2022-03-12T09:57:22.000Z</time>
      </trkpt>
      <trkpt lat="43.64779" lon="7.07189">
        <ele>108.59999847412</ele>
        <time>2022-03-12T09:57:24.000Z</time>
      </trkpt>
      <trkpt lat="43.64784" lon="7.07199">
        <ele>107.19999694824</ele>
        <time>2022-03-12T09:57:26.000Z</time>
      </trkpt>
      <trkpt lat="43.64787" lon="7.07204">
        <ele>106.80000305176</ele>
        <time>2022-03-12T09:57:27.000Z</time>
      </trkpt>
      <trkpt lat="43.64791" lon="7.07209">
        <ele>106.19999694824</ele>
        <time>2022-03-12T09:57:28.000Z</time>
      </trkpt>
      <trkpt lat="43.64795" lon="7.07215">
        <ele>105.40000152588</ele>
        <time>2022-03-12T09:57:29.000Z</time>
      </trkpt>
      <trkpt lat="43.64797" lon="7.07223">
        <ele>104.59999847412</ele>
        <time>2022-03-12T09:57:30.000Z</time>
      </trkpt>
      <trkpt lat="43.64803" lon="7.07234">
        <ele>102.80000305176</ele>
        <time>2022-03-12T09:57:32.000Z</time>
      </trkpt>
      <trkpt lat="43.64808" lon="7.07238">
        <ele>101.80000305176</ele>
        <time>2022-03-12T09:57:33.000Z</time>
      </trkpt>
      <trkpt lat="43.64811" lon="7.07241">
        <ele>100.80000305176</ele>
        <time>2022-03-12T09:57:34.000Z</time>
      </trkpt>
      <trkpt lat="43.64815" lon="7.07245">
        <ele>99.599998474121</ele>
        <time>2022-03-12T09:57:35.000Z</time>
      </trkpt>
      <trkpt lat="43.6482" lon="7.07247">
        <ele>98.599998474121</ele>
        <time>2022-03-12T09:57:36.000Z</time>
      </trkpt>
      <trkpt lat="43.64825" lon="7.07247">
        <ele>97.199996948242</ele>
        <time>2022-03-12T09:57:37.000Z</time>
      </trkpt>
      <trkpt lat="43.64831" lon="7.07243">
        <ele>94.400001525879</ele>
        <time>2022-03-12T09:57:39.000Z</time>
      </trkpt>
      <trkpt lat="43.64833" lon="7.07239">
        <ele>93.199996948242</ele>
        <time>2022-03-12T09:57:40.000Z</time>
      </trkpt>
      <trkpt lat="43.64835" lon="7.07236">
        <ele>92.400001525879</ele>
        <time>2022-03-12T09:57:41.000Z</time>
      </trkpt>
      <trkpt lat="43.64837" lon="7.07233">
        <ele>91.599998474121</ele>
        <time>2022-03-12T09:57:42.000Z</time>
      </trkpt>
      <trkpt lat="43.64838" lon="7.07228">
        <ele>91</ele>
        <time>2022-03-12T09:57:43.000Z</time>
      </trkpt>
      <trkpt lat="43.64838" lon="7.07223">
        <ele>90</ele>
        <time>2022-03-12T09:57:44.000Z</time>
      </trkpt>
      <trkpt lat="43.64833" lon="7.07214">
        <ele>88.400001525879</ele>
        <time>2022-03-12T09:57:46.000Z</time>
      </trkpt>
      <trkpt lat="43.64831" lon="7.07211">
        <ele>87.199996948242</ele>
        <time>2022-03-12T09:57:47.000Z</time>
      </trkpt>
      <trkpt lat="43.6483" lon="7.07206">
        <ele>86</ele>
        <time>2022-03-12T09:57:48.000Z</time>
      </trkpt>
      <trkpt lat="43.64829" lon="7.072">
        <ele>85</ele>
        <time>2022-03-12T09:57:49.000Z</time>
      </trkpt>
      <trkpt lat="43.64828" lon="7.07193">
        <ele>83.800003051758</ele>
        <time>2022-03-12T09:57:50.000Z</time>
      </trkpt>
      <trkpt lat="43.64826" lon="7.07187">
        <ele>82.400001525879</ele>
        <time>2022-03-12T09:57:51.000Z</time>
      </trkpt>
      <trkpt lat="43.64825" lon="7.07182">
        <ele>81.599998474121</ele>
        <time>2022-03-12T09:57:52.000Z</time>
      </trkpt>
      <trkpt lat="43.64823" lon="7.07177">
        <ele>80.800003051758</ele>
        <time>2022-03-12T09:57:53.000Z</time>
      </trkpt>
      <trkpt lat="43.64818" lon="7.0716">
        <ele>80.599998474121</ele>
        <time>2022-03-12T09:57:57.000Z</time>
      </trkpt>
      <trkpt lat="43.64819" lon="7.07156">
        <ele>81.199996948242</ele>
        <time>2022-03-12T09:57:58.000Z</time>
      </trkpt>
      <trkpt lat="43.64819" lon="7.0715">
        <ele>81.800003051758</ele>
        <time>2022-03-12T09:58:00.000Z</time>
      </trkpt>
      <trkpt lat="43.64819" lon="7.0715">
        <ele>81.800003051758</ele>
        <time>2022-03-12T09:58:01.000Z</time>
      </trkpt>
      <trkpt lat="43.64818" lon="7.07149">
        <ele>81.800003051758</ele>
        <time>2022-03-12T09:58:05.000Z</time>
      </trkpt>
      <trkpt lat="43.64818" lon="7.07149">
        <ele>81.800003051758</ele>
        <time>2022-03-12T09:58:15.000Z</time>
      </trkpt>
      <trkpt lat="43.64821" lon="7.07147">
        <ele>82.199996948242</ele>
        <time>2022-03-12T09:58:27.000Z</time>
      </trkpt>
      <trkpt lat="43.64819" lon="7.07148">
        <ele>82.400001525879</ele>
        <time>2022-03-12T09:58:40.000Z</time>
      </trkpt>
      <trkpt lat="43.64819" lon="7.07148">
        <ele>82.599998474121</ele>
        <time>2022-03-12T09:58:47.000Z</time>
      </trkpt>
      <trkpt lat="43.64818" lon="7.07141">
        <ele>82.400001525879</ele>
        <time>2022-03-12T09:58:54.000Z</time>
      </trkpt>
      <trkpt lat="43.64816" lon="7.07133">
        <ele>82.599998474121</ele>
        <time>2022-03-12T09:58:59.000Z</time>
      </trkpt>
      <trkpt lat="43.64815" lon="7.07128">
        <ele>82.800003051758</ele>
        <time>2022-03-12T09:59:02.000Z</time>
      </trkpt>
      <trkpt lat="43.64814" lon="7.07126">
        <ele>82.800003051758</ele>
        <time>2022-03-12T09:59:03.000Z</time>
      </trkpt>
      <trkpt lat="43.64813" lon="7.07123">
        <ele>83</ele>
        <time>2022-03-12T09:59:04.000Z</time>
      </trkpt>
      <trkpt lat="43.64811" lon="7.07114">
        <ele>83.599998474121</ele>
        <time>2022-03-12T09:59:07.000Z</time>
      </trkpt>
      <trkpt lat="43.64809" lon="7.07107">
        <ele>84</ele>
        <time>2022-03-12T09:59:09.000Z</time>
      </trkpt>
      <trkpt lat="43.64808" lon="7.07103">
        <ele>84.199996948242</ele>
        <time>2022-03-12T09:59:10.000Z</time>
      </trkpt>
      <trkpt lat="43.64807" lon="7.07096">
        <ele>84.800003051758</ele>
        <time>2022-03-12T09:59:12.000Z</time>
      </trkpt>
      <trkpt lat="43.64806" lon="7.07092">
        <ele>85.199996948242</ele>
        <time>2022-03-12T09:59:13.000Z</time>
      </trkpt>
      <trkpt lat="43.64807" lon="7.07081">
        <ele>86.800003051758</ele>
        <time>2022-03-12T09:59:16.000Z</time>
      </trkpt>
      <trkpt lat="43.64807" lon="7.07079">
        <ele>87</ele>
        <time>2022-03-12T09:59:17.000Z</time>
      </trkpt>
      <trkpt lat="43.64807" lon="7.07075">
        <ele>87.800003051758</ele>
        <time>2022-03-12T09:59:19.000Z</time>
      </trkpt>
      <trkpt lat="43.64808" lon="7.07074">
        <ele>88.199996948242</ele>
        <time>2022-03-12T09:59:20.000Z</time>
      </trkpt>
      <trkpt lat="43.64808" lon="7.07072">
        <ele>88.400001525879</ele>
        <time>2022-03-12T09:59:21.000Z</time>
      </trkpt>
      <trkpt lat="43.6481" lon="7.07071">
        <ele>88.599998474121</ele>
        <time>2022-03-12T09:59:22.000Z</time>
      </trkpt>
      <trkpt lat="43.64817" lon="7.07072">
        <ele>89</ele>
        <time>2022-03-12T09:59:25.000Z</time>
      </trkpt>
      <trkpt lat="43.64821" lon="7.07081">
        <ele>88.800003051758</ele>
        <time>2022-03-12T09:59:28.000Z</time>
      </trkpt>
      <trkpt lat="43.64823" lon="7.07087">
        <ele>88.599998474121</ele>
        <time>2022-03-12T09:59:30.000Z</time>
      </trkpt>
      <trkpt lat="43.64827" lon="7.07099">
        <ele>89.400001525879</ele>
        <time>2022-03-12T09:59:34.000Z</time>
      </trkpt>
      <trkpt lat="43.64829" lon="7.07104">
        <ele>89.400001525879</ele>
        <time>2022-03-12T09:59:36.000Z</time>
      </trkpt>
      <trkpt lat="43.64834" lon="7.07116">
        <ele>90.800003051758</ele>
        <time>2022-03-12T09:59:41.000Z</time>
      </trkpt>
      <trkpt lat="43.64835" lon="7.07118">
        <ele>91.199996948242</ele>
        <time>2022-03-12T09:59:42.000Z</time>
      </trkpt>
      <trkpt lat="43.64838" lon="7.0712">
        <ele>91.800003051758</ele>
        <time>2022-03-12T09:59:44.000Z</time>
      </trkpt>
      <trkpt lat="43.64844" lon="7.07124">
        <ele>92.199996948242</ele>
        <time>2022-03-12T09:59:47.000Z</time>
      </trkpt>
      <trkpt lat="43.64846" lon="7.07125">
        <ele>92</ele>
        <time>2022-03-12T09:59:48.000Z</time>
      </trkpt>
      <trkpt lat="43.64855" lon="7.07129">
        <ele>93</ele>
        <time>2022-03-12T09:59:52.000Z</time>
      </trkpt>
      <trkpt lat="43.6486" lon="7.07131">
        <ele>92.599998474121</ele>
        <time>2022-03-12T09:59:55.000Z</time>
      </trkpt>
      <trkpt lat="43.64874" lon="7.07135">
        <ele>93.599998474121</ele>
        <time>2022-03-12T10:00:03.000Z</time>
      </trkpt>
      <trkpt lat="43.64886" lon="7.07139">
        <ele>94.599998474121</ele>
        <time>2022-03-12T10:00:09.000Z</time>
      </trkpt>
      <trkpt lat="43.64889" lon="7.0714">
        <ele>96.199996948242</ele>
        <time>2022-03-12T10:00:11.000Z</time>
      </trkpt>
      <trkpt lat="43.64892" lon="7.07142">
        <ele>96.800003051758</ele>
        <time>2022-03-12T10:00:13.000Z</time>
      </trkpt>
      <trkpt lat="43.64893" lon="7.07142">
        <ele>96.400001525879</ele>
        <time>2022-03-12T10:00:14.000Z</time>
      </trkpt>
      <trkpt lat="43.64898" lon="7.07143">
        <ele>96.599998474121</ele>
        <time>2022-03-12T10:00:17.000Z</time>
      </trkpt>
      <trkpt lat="43.64903" lon="7.07145">
        <ele>96.400001525879</ele>
        <time>2022-03-12T10:00:19.000Z</time>
      </trkpt>
      <trkpt lat="43.64914" lon="7.07152">
        <ele>97</ele>
        <time>2022-03-12T10:00:25.000Z</time>
      </trkpt>
      <trkpt lat="43.64916" lon="7.07153">
        <ele>97.199996948242</ele>
        <time>2022-03-12T10:00:26.000Z</time>
      </trkpt>
      <trkpt lat="43.64926" lon="7.0716">
        <ele>98.400001525879</ele>
        <time>2022-03-12T10:00:31.000Z</time>
      </trkpt>
      <trkpt lat="43.64938" lon="7.07169">
        <ele>99.599998474121</ele>
        <time>2022-03-12T10:00:37.000Z</time>
      </trkpt>
      <trkpt lat="43.64941" lon="7.07173">
        <ele>100.19999694824</ele>
        <time>2022-03-12T10:00:39.000Z</time>
      </trkpt>
      <trkpt lat="43.64948" lon="7.07181">
        <ele>100.80000305176</ele>
        <time>2022-03-12T10:00:43.000Z</time>
      </trkpt>
      <trkpt lat="43.64952" lon="7.07185">
        <ele>101</ele>
        <time>2022-03-12T10:00:45.000Z</time>
      </trkpt>
      <trkpt lat="43.64958" lon="7.07194">
        <ele>102</ele>
        <time>2022-03-12T10:00:49.000Z</time>
      </trkpt>
      <trkpt lat="43.64963" lon="7.07202">
        <ele>103.19999694824</ele>
        <time>2022-03-12T10:00:52.000Z</time>
      </trkpt>
      <trkpt lat="43.64968" lon="7.0721">
        <ele>104.19999694824</ele>
        <time>2022-03-12T10:00:55.000Z</time>
      </trkpt>
      <trkpt lat="43.64974" lon="7.07221">
        <ele>105</ele>
        <time>2022-03-12T10:00:59.000Z</time>
      </trkpt>
      <trkpt lat="43.64975" lon="7.07224">
        <ele>105.19999694824</ele>
        <time>2022-03-12T10:01:00.000Z</time>
      </trkpt>
      <trkpt lat="43.64977" lon="7.07227">
        <ele>105.40000152588</ele>
        <time>2022-03-12T10:01:01.000Z</time>
      </trkpt>
      <trkpt lat="43.64981" lon="7.07235">
        <ele>105.80000305176</ele>
        <time>2022-03-12T10:01:04.000Z</time>
      </trkpt>
      <trkpt lat="43.64987" lon="7.07246">
        <ele>106.59999847412</ele>
        <time>2022-03-12T10:01:08.000Z</time>
      </trkpt>
      <trkpt lat="43.64994" lon="7.07257">
        <ele>107.59999847412</ele>
        <time>2022-03-12T10:01:12.000Z</time>
      </trkpt>
      <trkpt lat="43.65003" lon="7.07273">
        <ele>108.80000305176</ele>
        <time>2022-03-12T10:01:18.000Z</time>
      </trkpt>
      <trkpt lat="43.65004" lon="7.07276">
        <ele>109</ele>
        <time>2022-03-12T10:01:19.000Z</time>
      </trkpt>
      <trkpt lat="43.65009" lon="7.07284">
        <ele>110</ele>
        <time>2022-03-12T10:01:22.000Z</time>
      </trkpt>
      <trkpt lat="43.65016" lon="7.07293">
        <ele>111</ele>
        <time>2022-03-12T10:01:26.000Z</time>
      </trkpt>
      <trkpt lat="43.65019" lon="7.07295">
        <ele>111.40000152588</ele>
        <time>2022-03-12T10:01:27.000Z</time>
      </trkpt>
      <trkpt lat="43.65025" lon="7.073">
        <ele>112.19999694824</ele>
        <time>2022-03-12T10:01:30.000Z</time>
      </trkpt>
      <trkpt lat="43.65032" lon="7.07303">
        <ele>113</ele>
        <time>2022-03-12T10:01:33.000Z</time>
      </trkpt>
      <trkpt lat="43.65036" lon="7.07305">
        <ele>113.19999694824</ele>
        <time>2022-03-12T10:01:35.000Z</time>
      </trkpt>
      <trkpt lat="43.65041" lon="7.07305">
        <ele>113.59999847412</ele>
        <time>2022-03-12T10:01:37.000Z</time>
      </trkpt>
      <trkpt lat="43.65052" lon="7.07305">
        <ele>114.40000152588</ele>
        <time>2022-03-12T10:01:41.000Z</time>
      </trkpt>
      <trkpt lat="43.6506" lon="7.07305">
        <ele>115</ele>
        <time>2022-03-12T10:01:44.000Z</time>
      </trkpt>
      <trkpt lat="43.65068" lon="7.07306">
        <ele>115.59999847412</ele>
        <time>2022-03-12T10:01:47.000Z</time>
      </trkpt>
      <trkpt lat="43.65073" lon="7.07306">
        <ele>115.80000305176</ele>
        <time>2022-03-12T10:01:49.000Z</time>
      </trkpt>
      <trkpt lat="43.65081" lon="7.0731">
        <ele>116.80000305176</ele>
        <time>2022-03-12T10:01:52.000Z</time>
      </trkpt>
      <trkpt lat="43.65083" lon="7.07312">
        <ele>117</ele>
        <time>2022-03-12T10:01:53.000Z</time>
      </trkpt>
      <trkpt lat="43.65085" lon="7.07314">
        <ele>117.19999694824</ele>
        <time>2022-03-12T10:01:54.000Z</time>
      </trkpt>
      <trkpt lat="43.65089" lon="7.07318">
        <ele>117.80000305176</ele>
        <time>2022-03-12T10:01:56.000Z</time>
      </trkpt>
      <trkpt lat="43.65091" lon="7.07324">
        <ele>118</ele>
        <time>2022-03-12T10:01:58.000Z</time>
      </trkpt>
      <trkpt lat="43.65093" lon="7.07326">
        <ele>118.40000152588</ele>
        <time>2022-03-12T10:01:59.000Z</time>
      </trkpt>
      <trkpt lat="43.65096" lon="7.07331">
        <ele>119</ele>
        <time>2022-03-12T10:02:01.000Z</time>
      </trkpt>
      <trkpt lat="43.65098" lon="7.0734">
        <ele>119.59999847412</ele>
        <time>2022-03-12T10:02:04.000Z</time>
      </trkpt>
      <trkpt lat="43.65099" lon="7.07344">
        <ele>120</ele>
        <time>2022-03-12T10:02:05.000Z</time>
      </trkpt>
      <trkpt lat="43.65102" lon="7.07358">
        <ele>121</ele>
        <time>2022-03-12T10:02:09.000Z</time>
      </trkpt>
      <trkpt lat="43.65103" lon="7.07365">
        <ele>121.40000152588</ele>
        <time>2022-03-12T10:02:11.000Z</time>
      </trkpt>
      <trkpt lat="43.65102" lon="7.07375">
        <ele>122.19999694824</ele>
        <time>2022-03-12T10:02:14.000Z</time>
      </trkpt>
      <trkpt lat="43.65099" lon="7.07391">
        <ele>123.40000152588</ele>
        <time>2022-03-12T10:02:19.000Z</time>
      </trkpt>
      <trkpt lat="43.65099" lon="7.07404">
        <ele>124.40000152588</ele>
        <time>2022-03-12T10:02:23.000Z</time>
      </trkpt>
      <trkpt lat="43.65099" lon="7.07412">
        <ele>124.80000305176</ele>
        <time>2022-03-12T10:02:25.000Z</time>
      </trkpt>
      <trkpt lat="43.651" lon="7.07425">
        <ele>125.80000305176</ele>
        <time>2022-03-12T10:02:29.000Z</time>
      </trkpt>
      <trkpt lat="43.65104" lon="7.07438">
        <ele>126.59999847412</ele>
        <time>2022-03-12T10:02:33.000Z</time>
      </trkpt>
      <trkpt lat="43.65105" lon="7.07441">
        <ele>126.80000305176</ele>
        <time>2022-03-12T10:02:34.000Z</time>
      </trkpt>
      <trkpt lat="43.65116" lon="7.07461">
        <ele>128</ele>
        <time>2022-03-12T10:02:41.000Z</time>
      </trkpt>
      <trkpt lat="43.65126" lon="7.07472">
        <ele>129.19999694824</ele>
        <time>2022-03-12T10:02:46.000Z</time>
      </trkpt>
      <trkpt lat="43.65132" lon="7.07479">
        <ele>130</ele>
        <time>2022-03-12T10:02:49.000Z</time>
      </trkpt>
      <trkpt lat="43.65134" lon="7.07481">
        <ele>130.19999694824</ele>
        <time>2022-03-12T10:02:50.000Z</time>
      </trkpt>
      <trkpt lat="43.65146" lon="7.07491">
        <ele>131.39999389648</ele>
        <time>2022-03-12T10:02:55.000Z</time>
      </trkpt>
      <trkpt lat="43.65155" lon="7.07498">
        <ele>131.80000305176</ele>
        <time>2022-03-12T10:02:59.000Z</time>
      </trkpt>
      <trkpt lat="43.65169" lon="7.07507">
        <ele>132.60000610352</ele>
        <time>2022-03-12T10:03:05.000Z</time>
      </trkpt>
      <trkpt lat="43.65175" lon="7.07509">
        <ele>133.60000610352</ele>
        <time>2022-03-12T10:03:07.000Z</time>
      </trkpt>
      <trkpt lat="43.65189" lon="7.07511">
        <ele>134.60000610352</ele>
        <time>2022-03-12T10:03:12.000Z</time>
      </trkpt>
      <trkpt lat="43.65191" lon="7.07512">
        <ele>134.80000305176</ele>
        <time>2022-03-12T10:03:13.000Z</time>
      </trkpt>
      <trkpt lat="43.65208" lon="7.07509">
        <ele>134.19999694824</ele>
        <time>2022-03-12T10:03:19.000Z</time>
      </trkpt>
      <trkpt lat="43.65222" lon="7.07504">
        <ele>133.80000305176</ele>
        <time>2022-03-12T10:03:24.000Z</time>
      </trkpt>
      <trkpt lat="43.65229" lon="7.07499">
        <ele>133.39999389648</ele>
        <time>2022-03-12T10:03:26.000Z</time>
      </trkpt>
      <trkpt lat="43.65241" lon="7.07492">
        <ele>132.60000610352</ele>
        <time>2022-03-12T10:03:29.000Z</time>
      </trkpt>
      <trkpt lat="43.65252" lon="7.07488">
        <ele>131.80000305176</ele>
        <time>2022-03-12T10:03:31.000Z</time>
      </trkpt>
      <trkpt lat="43.65258" lon="7.07485">
        <ele>131.39999389648</ele>
        <time>2022-03-12T10:03:32.000Z</time>
      </trkpt>
      <trkpt lat="43.65273" lon="7.07477">
        <ele>130.39999389648</ele>
        <time>2022-03-12T10:03:35.000Z</time>
      </trkpt>
      <trkpt lat="43.65284" lon="7.0747">
        <ele>129.39999389648</ele>
        <time>2022-03-12T10:03:37.000Z</time>
      </trkpt>
      <trkpt lat="43.6529" lon="7.07467">
        <ele>128.80000305176</ele>
        <time>2022-03-12T10:03:38.000Z</time>
      </trkpt>
      <trkpt lat="43.65295" lon="7.07464">
        <ele>128.19999694824</ele>
        <time>2022-03-12T10:03:39.000Z</time>
      </trkpt>
      <trkpt lat="43.65308" lon="7.07457">
        <ele>127.19999694824</ele>
        <time>2022-03-12T10:03:41.000Z</time>
      </trkpt>
      <trkpt lat="43.65322" lon="7.0745">
        <ele>126</ele>
        <time>2022-03-12T10:03:43.000Z</time>
      </trkpt>
      <trkpt lat="43.65329" lon="7.07447">
        <ele>125.40000152588</ele>
        <time>2022-03-12T10:03:44.000Z</time>
      </trkpt>
      <trkpt lat="43.65337" lon="7.07444">
        <ele>125</ele>
        <time>2022-03-12T10:03:45.000Z</time>
      </trkpt>
      <trkpt lat="43.65351" lon="7.07442">
        <ele>123.59999847412</ele>
        <time>2022-03-12T10:03:47.000Z</time>
      </trkpt>
      <trkpt lat="43.65368" lon="7.07441">
        <ele>122.59999847412</ele>
        <time>2022-03-12T10:03:49.000Z</time>
      </trkpt>
      <trkpt lat="43.65385" lon="7.07442">
        <ele>121.59999847412</ele>
        <time>2022-03-12T10:03:51.000Z</time>
      </trkpt>
      <trkpt lat="43.65402" lon="7.07442">
        <ele>120.59999847412</ele>
        <time>2022-03-12T10:03:53.000Z</time>
      </trkpt>
      <trkpt lat="43.65419" lon="7.0744">
        <ele>120</ele>
        <time>2022-03-12T10:03:55.000Z</time>
      </trkpt>
      <trkpt lat="43.65436" lon="7.07436">
        <ele>119.40000152588</ele>
        <time>2022-03-12T10:03:57.000Z</time>
      </trkpt>
      <trkpt lat="43.65461" lon="7.07426">
        <ele>118.19999694824</ele>
        <time>2022-03-12T10:04:00.000Z</time>
      </trkpt>
      <trkpt lat="43.65483" lon="7.07416">
        <ele>116.80000305176</ele>
        <time>2022-03-12T10:04:03.000Z</time>
      </trkpt>
      <trkpt lat="43.65504" lon="7.07406">
        <ele>116</ele>
        <time>2022-03-12T10:04:06.000Z</time>
      </trkpt>
      <trkpt lat="43.65521" lon="7.07406">
        <ele>116.19999694824</ele>
        <time>2022-03-12T10:04:09.000Z</time>
      </trkpt>
      <trkpt lat="43.65528" lon="7.07413">
        <ele>117.19999694824</ele>
        <time>2022-03-12T10:04:12.000Z</time>
      </trkpt>
      <trkpt lat="43.65532" lon="7.07418">
        <ele>118</ele>
        <time>2022-03-12T10:04:15.000Z</time>
      </trkpt>
      <trkpt lat="43.65535" lon="7.07418">
        <ele>118.40000152588</ele>
        <time>2022-03-12T10:04:17.000Z</time>
      </trkpt>
      <trkpt lat="43.6554" lon="7.07413">
        <ele>119.19999694824</ele>
        <time>2022-03-12T10:04:20.000Z</time>
      </trkpt>
      <trkpt lat="43.65542" lon="7.0741">
        <ele>119.40000152588</ele>
        <time>2022-03-12T10:04:21.000Z</time>
      </trkpt>
      <trkpt lat="43.65551" lon="7.07401">
        <ele>119.19999694824</ele>
        <time>2022-03-12T10:04:25.000Z</time>
      </trkpt>
      <trkpt lat="43.65558" lon="7.07396">
        <ele>118.19999694824</ele>
        <time>2022-03-12T10:04:30.000Z</time>
      </trkpt>
      <trkpt lat="43.65572" lon="7.07389">
        <ele>119</ele>
        <time>2022-03-12T10:04:36.000Z</time>
      </trkpt>
      <trkpt lat="43.6558" lon="7.07385">
        <ele>120.40000152588</ele>
        <time>2022-03-12T10:04:40.000Z</time>
      </trkpt>
      <trkpt lat="43.65582" lon="7.07383">
        <ele>121</ele>
        <time>2022-03-12T10:04:41.000Z</time>
      </trkpt>
      <trkpt lat="43.65585" lon="7.07382">
        <ele>121.40000152588</ele>
        <time>2022-03-12T10:04:42.000Z</time>
      </trkpt>
      <trkpt lat="43.65589" lon="7.0738">
        <ele>122.80000305176</ele>
        <time>2022-03-12T10:04:44.000Z</time>
      </trkpt>
      <trkpt lat="43.65592" lon="7.07379">
        <ele>123.40000152588</ele>
        <time>2022-03-12T10:04:45.000Z</time>
      </trkpt>
      <trkpt lat="43.65594" lon="7.07379">
        <ele>123.80000305176</ele>
        <time>2022-03-12T10:04:46.000Z</time>
      </trkpt>
      <trkpt lat="43.65597" lon="7.07379">
        <ele>124.40000152588</ele>
        <time>2022-03-12T10:04:47.000Z</time>
      </trkpt>
      <trkpt lat="43.65604" lon="7.0738">
        <ele>125.40000152588</ele>
        <time>2022-03-12T10:04:50.000Z</time>
      </trkpt>
      <trkpt lat="43.6561" lon="7.07381">
        <ele>126.40000152588</ele>
        <time>2022-03-12T10:04:53.000Z</time>
      </trkpt>
      <trkpt lat="43.65612" lon="7.0738">
        <ele>127</ele>
        <time>2022-03-12T10:04:54.000Z</time>
      </trkpt>
      <trkpt lat="43.65614" lon="7.07376">
        <ele>127.59999847412</ele>
        <time>2022-03-12T10:04:56.000Z</time>
      </trkpt>
      <trkpt lat="43.65614" lon="7.07374">
        <ele>128</ele>
        <time>2022-03-12T10:04:57.000Z</time>
      </trkpt>
      <trkpt lat="43.65614" lon="7.07369">
        <ele>128.60000610352</ele>
        <time>2022-03-12T10:04:59.000Z</time>
      </trkpt>
      <trkpt lat="43.65613" lon="7.07363">
        <ele>129.60000610352</ele>
        <time>2022-03-12T10:05:02.000Z</time>
      </trkpt>
      <trkpt lat="43.65613" lon="7.07361">
        <ele>130</ele>
        <time>2022-03-12T10:05:03.000Z</time>
      </trkpt>
      <trkpt lat="43.65614" lon="7.07351">
        <ele>131.19999694824</ele>
        <time>2022-03-12T10:05:07.000Z</time>
      </trkpt>
      <trkpt lat="43.65613" lon="7.07349">
        <ele>131.39999389648</ele>
        <time>2022-03-12T10:05:08.000Z</time>
      </trkpt>
      <trkpt lat="43.65612" lon="7.07341">
        <ele>132.19999694824</ele>
        <time>2022-03-12T10:05:11.000Z</time>
      </trkpt>
      <trkpt lat="43.6561" lon="7.07331">
        <ele>133.60000610352</ele>
        <time>2022-03-12T10:05:15.000Z</time>
      </trkpt>
      <trkpt lat="43.65609" lon="7.07329">
        <ele>133.80000305176</ele>
        <time>2022-03-12T10:05:16.000Z</time>
      </trkpt>
      <trkpt lat="43.65607" lon="7.07324">
        <ele>135</ele>
        <time>2022-03-12T10:05:18.000Z</time>
      </trkpt>
      <trkpt lat="43.65607" lon="7.07319">
        <ele>136</ele>
        <time>2022-03-12T10:05:20.000Z</time>
      </trkpt>
      <trkpt lat="43.65607" lon="7.07318">
        <ele>137</ele>
        <time>2022-03-12T10:05:21.000Z</time>
      </trkpt>
      <trkpt lat="43.6561" lon="7.07314">
        <ele>138.60000610352</ele>
        <time>2022-03-12T10:05:23.000Z</time>
      </trkpt>
      <trkpt lat="43.65614" lon="7.07313">
        <ele>140</ele>
        <time>2022-03-12T10:05:26.000Z</time>
      </trkpt>
      <trkpt lat="43.65618" lon="7.07314">
        <ele>141.19999694824</ele>
        <time>2022-03-12T10:05:29.000Z</time>
      </trkpt>
      <trkpt lat="43.6562" lon="7.07317">
        <ele>142.19999694824</ele>
        <time>2022-03-12T10:05:31.000Z</time>
      </trkpt>
      <trkpt lat="43.65622" lon="7.07318">
        <ele>142.60000610352</ele>
        <time>2022-03-12T10:05:32.000Z</time>
      </trkpt>
      <trkpt lat="43.65627" lon="7.07324">
        <ele>143.80000305176</ele>
        <time>2022-03-12T10:05:35.000Z</time>
      </trkpt>
      <trkpt lat="43.65628" lon="7.07326">
        <ele>144.19999694824</ele>
        <time>2022-03-12T10:05:36.000Z</time>
      </trkpt>
      <trkpt lat="43.65631" lon="7.07327">
        <ele>145.19999694824</ele>
        <time>2022-03-12T10:05:38.000Z</time>
      </trkpt>
      <trkpt lat="43.65634" lon="7.07326">
        <ele>146.60000610352</ele>
        <time>2022-03-12T10:05:40.000Z</time>
      </trkpt>
      <trkpt lat="43.65635" lon="7.07321">
        <ele>147.80000305176</ele>
        <time>2022-03-12T10:05:42.000Z</time>
      </trkpt>
      <trkpt lat="43.65634" lon="7.07315">
        <ele>148.39999389648</ele>
        <time>2022-03-12T10:05:44.000Z</time>
      </trkpt>
      <trkpt lat="43.65633" lon="7.07312">
        <ele>148.80000305176</ele>
        <time>2022-03-12T10:05:45.000Z</time>
      </trkpt>
      <trkpt lat="43.65632" lon="7.073">
        <ele>150.19999694824</ele>
        <time>2022-03-12T10:05:48.000Z</time>
      </trkpt>
      <trkpt lat="43.65632" lon="7.07291">
        <ele>151</ele>
        <time>2022-03-12T10:05:50.000Z</time>
      </trkpt>
      <trkpt lat="43.65633" lon="7.07288">
        <ele>151.60000610352</ele>
        <time>2022-03-12T10:05:51.000Z</time>
      </trkpt>
      <trkpt lat="43.65634" lon="7.0728">
        <ele>153</ele>
        <time>2022-03-12T10:05:53.000Z</time>
      </trkpt>
      <trkpt lat="43.65635" lon="7.07272">
        <ele>154.19999694824</ele>
        <time>2022-03-12T10:05:55.000Z</time>
      </trkpt>
      <trkpt lat="43.65637" lon="7.07269">
        <ele>154.60000610352</ele>
        <time>2022-03-12T10:05:56.000Z</time>
      </trkpt>
      <trkpt lat="43.65639" lon="7.07263">
        <ele>155.60000610352</ele>
        <time>2022-03-12T10:05:58.000Z</time>
      </trkpt>
      <trkpt lat="43.65643" lon="7.07255">
        <ele>157.19999694824</ele>
        <time>2022-03-12T10:06:01.000Z</time>
      </trkpt>
      <trkpt lat="43.65646" lon="7.07247">
        <ele>158.39999389648</ele>
        <time>2022-03-12T10:06:04.000Z</time>
      </trkpt>
      <trkpt lat="43.65649" lon="7.07241">
        <ele>159.60000610352</ele>
        <time>2022-03-12T10:06:06.000Z</time>
      </trkpt>
      <trkpt lat="43.65651" lon="7.07239">
        <ele>160</ele>
        <time>2022-03-12T10:06:07.000Z</time>
      </trkpt>
      <trkpt lat="43.65653" lon="7.07237">
        <ele>160.60000610352</ele>
        <time>2022-03-12T10:06:08.000Z</time>
      </trkpt>
      <trkpt lat="43.65657" lon="7.07231">
        <ele>162.19999694824</ele>
        <time>2022-03-12T10:06:11.000Z</time>
      </trkpt>
      <trkpt lat="43.65659" lon="7.07228">
        <ele>163.39999389648</ele>
        <time>2022-03-12T10:06:13.000Z</time>
      </trkpt>
      <trkpt lat="43.65662" lon="7.07224">
        <ele>165</ele>
        <time>2022-03-12T10:06:15.000Z</time>
      </trkpt>
      <trkpt lat="43.65665" lon="7.07221">
        <ele>166.19999694824</ele>
        <time>2022-03-12T10:06:17.000Z</time>
      </trkpt>
      <trkpt lat="43.65668" lon="7.07219">
        <ele>167.39999389648</ele>
        <time>2022-03-12T10:06:19.000Z</time>
      </trkpt>
      <trkpt lat="43.65671" lon="7.07217">
        <ele>169</ele>
        <time>2022-03-12T10:06:21.000Z</time>
      </trkpt>
      <trkpt lat="43.65675" lon="7.07214">
        <ele>170.39999389648</ele>
        <time>2022-03-12T10:06:23.000Z</time>
      </trkpt>
      <trkpt lat="43.65679" lon="7.07211">
        <ele>171.60000610352</ele>
        <time>2022-03-12T10:06:25.000Z</time>
      </trkpt>
      <trkpt lat="43.65683" lon="7.07209">
        <ele>172.60000610352</ele>
        <time>2022-03-12T10:06:27.000Z</time>
      </trkpt>
      <trkpt lat="43.65688" lon="7.07204">
        <ele>173.80000305176</ele>
        <time>2022-03-12T10:06:30.000Z</time>
      </trkpt>
      <trkpt lat="43.65693" lon="7.07202">
        <ele>174.39999389648</ele>
        <time>2022-03-12T10:06:32.000Z</time>
      </trkpt>
      <trkpt lat="43.65696" lon="7.07201">
        <ele>175.19999694824</ele>
        <time>2022-03-12T10:06:34.000Z</time>
      </trkpt>
      <trkpt lat="43.65699" lon="7.072">
        <ele>176.39999389648</ele>
        <time>2022-03-12T10:06:36.000Z</time>
      </trkpt>
      <trkpt lat="43.65701" lon="7.072">
        <ele>177</ele>
        <time>2022-03-12T10:06:37.000Z</time>
      </trkpt>
      <trkpt lat="43.65703" lon="7.07198">
        <ele>177.60000610352</ele>
        <time>2022-03-12T10:06:38.000Z</time>
      </trkpt>
      <trkpt lat="43.65705" lon="7.07195">
        <ele>179</ele>
        <time>2022-03-12T10:06:40.000Z</time>
      </trkpt>
      <trkpt lat="43.65708" lon="7.07191">
        <ele>179.80000305176</ele>
        <time>2022-03-12T10:06:42.000Z</time>
      </trkpt>
      <trkpt lat="43.6571" lon="7.07189">
        <ele>180.39999389648</ele>
        <time>2022-03-12T10:06:43.000Z</time>
      </trkpt>
      <trkpt lat="43.65716" lon="7.07179">
        <ele>181.80000305176</ele>
        <time>2022-03-12T10:06:47.000Z</time>
      </trkpt>
      <trkpt lat="43.65718" lon="7.07174">
        <ele>182.60000610352</ele>
        <time>2022-03-12T10:06:49.000Z</time>
      </trkpt>
      <trkpt lat="43.65719" lon="7.07171">
        <ele>183</ele>
        <time>2022-03-12T10:06:50.000Z</time>
      </trkpt>
      <trkpt lat="43.65721" lon="7.07168">
        <ele>183.39999389648</ele>
        <time>2022-03-12T10:06:51.000Z</time>
      </trkpt>
      <trkpt lat="43.65723" lon="7.07163">
        <ele>183.80000305176</ele>
        <time>2022-03-12T10:06:53.000Z</time>
      </trkpt>
      <trkpt lat="43.65725" lon="7.07161">
        <ele>184</ele>
        <time>2022-03-12T10:06:54.000Z</time>
      </trkpt>
      <trkpt lat="43.65726" lon="7.07159">
        <ele>184.39999389648</ele>
        <time>2022-03-12T10:06:55.000Z</time>
      </trkpt>
      <trkpt lat="43.65729" lon="7.07156">
        <ele>185.19999694824</ele>
        <time>2022-03-12T10:06:57.000Z</time>
      </trkpt>
      <trkpt lat="43.6573" lon="7.07152">
        <ele>185.80000305176</ele>
        <time>2022-03-12T10:06:59.000Z</time>
      </trkpt>
      <trkpt lat="43.65733" lon="7.07148">
        <ele>186.19999694824</ele>
        <time>2022-03-12T10:07:02.000Z</time>
      </trkpt>
      <trkpt lat="43.65735" lon="7.07145">
        <ele>186.39999389648</ele>
        <time>2022-03-12T10:07:04.000Z</time>
      </trkpt>
      <trkpt lat="43.65742" lon="7.07134">
        <ele>187</ele>
        <time>2022-03-12T10:07:09.000Z</time>
      </trkpt>
      <trkpt lat="43.65743" lon="7.07131">
        <ele>187.39999389648</ele>
        <time>2022-03-12T10:07:10.000Z</time>
      </trkpt>
      <trkpt lat="43.65744" lon="7.07126">
        <ele>188.80000305176</ele>
        <time>2022-03-12T10:07:13.000Z</time>
      </trkpt>
      <trkpt lat="43.65745" lon="7.07126">
        <ele>189.19999694824</ele>
        <time>2022-03-12T10:07:14.000Z</time>
      </trkpt>
      <trkpt lat="43.65746" lon="7.07124">
        <ele>189.39999389648</ele>
        <time>2022-03-12T10:07:19.000Z</time>
      </trkpt>
      <trkpt lat="43.65748" lon="7.07121">
        <ele>189</ele>
        <time>2022-03-12T10:07:26.000Z</time>
      </trkpt>
      <trkpt lat="43.65751" lon="7.07113">
        <ele>189.60000610352</ele>
        <time>2022-03-12T10:07:30.000Z</time>
      </trkpt>
      <trkpt lat="43.65753" lon="7.0711">
        <ele>189.80000305176</ele>
        <time>2022-03-12T10:07:31.000Z</time>
      </trkpt>
      <trkpt lat="43.65759" lon="7.07095">
        <ele>190</ele>
        <time>2022-03-12T10:07:35.000Z</time>
      </trkpt>
      <trkpt lat="43.65763" lon="7.07083">
        <ele>191.19999694824</ele>
        <time>2022-03-12T10:07:38.000Z</time>
      </trkpt>
      <trkpt lat="43.65767" lon="7.07073">
        <ele>192.19999694824</ele>
        <time>2022-03-12T10:07:41.000Z</time>
      </trkpt>
      <trkpt lat="43.65768" lon="7.07068">
        <ele>193.39999389648</ele>
        <time>2022-03-12T10:07:43.000Z</time>
      </trkpt>
      <trkpt lat="43.6577" lon="7.07062">
        <ele>194.60000610352</ele>
        <time>2022-03-12T10:07:46.000Z</time>
      </trkpt>
      <trkpt lat="43.65771" lon="7.0706">
        <ele>196</ele>
        <time>2022-03-12T10:07:49.000Z</time>
      </trkpt>
      <trkpt lat="43.65772" lon="7.0706">
        <ele>196.39999389648</ele>
        <time>2022-03-12T10:07:51.000Z</time>
      </trkpt>
      <trkpt lat="43.65771" lon="7.07059">
        <ele>195.60000610352</ele>
        <time>2022-03-12T10:08:00.000Z</time>
      </trkpt>
      <trkpt lat="43.65771" lon="7.07058">
        <ele>197</ele>
        <time>2022-03-12T10:08:10.000Z</time>
      </trkpt>
      <trkpt lat="43.65771" lon="7.07057">
        <ele>197</ele>
        <time>2022-03-12T10:08:14.000Z</time>
      </trkpt>
      <trkpt lat="43.65771" lon="7.07056">
        <ele>196.80000305176</ele>
        <time>2022-03-12T10:08:36.000Z</time>
      </trkpt>
      <trkpt lat="43.65771" lon="7.07057">
        <ele>195.80000305176</ele>
        <time>2022-03-12T10:08:40.000Z</time>
      </trkpt>
      <trkpt lat="43.65771" lon="7.07056">
        <ele>195.19999694824</ele>
        <time>2022-03-12T10:08:46.000Z</time>
      </trkpt>
      <trkpt lat="43.65771" lon="7.07053">
        <ele>195.80000305176</ele>
        <time>2022-03-12T10:08:49.000Z</time>
      </trkpt>
      <trkpt lat="43.65772" lon="7.07049">
        <ele>196.80000305176</ele>
        <time>2022-03-12T10:08:51.000Z</time>
      </trkpt>
      <trkpt lat="43.65773" lon="7.07046">
        <ele>197</ele>
        <time>2022-03-12T10:08:52.000Z</time>
      </trkpt>
      <trkpt lat="43.65775" lon="7.07044">
        <ele>197.39999389648</ele>
        <time>2022-03-12T10:08:53.000Z</time>
      </trkpt>
      <trkpt lat="43.6578" lon="7.07036">
        <ele>198</ele>
        <time>2022-03-12T10:08:56.000Z</time>
      </trkpt>
      <trkpt lat="43.65781" lon="7.07034">
        <ele>198</ele>
        <time>2022-03-12T10:08:57.000Z</time>
      </trkpt>
      <trkpt lat="43.65787" lon="7.07029">
        <ele>198.80000305176</ele>
        <time>2022-03-12T10:09:01.000Z</time>
      </trkpt>
      <trkpt lat="43.65789" lon="7.07027">
        <ele>199.19999694824</ele>
        <time>2022-03-12T10:09:03.000Z</time>
      </trkpt>
      <trkpt lat="43.65795" lon="7.07024">
        <ele>199.39999389648</ele>
        <time>2022-03-12T10:09:06.000Z</time>
      </trkpt>
      <trkpt lat="43.65813" lon="7.07016">
        <ele>198.60000610352</ele>
        <time>2022-03-12T10:09:10.000Z</time>
      </trkpt>
      <trkpt lat="43.65822" lon="7.0701">
        <ele>198</ele>
        <time>2022-03-12T10:09:12.000Z</time>
      </trkpt>
      <trkpt lat="43.65835" lon="7.07002">
        <ele>197.19999694824</ele>
        <time>2022-03-12T10:09:15.000Z</time>
      </trkpt>
      <trkpt lat="43.65857" lon="7.06992">
        <ele>197</ele>
        <time>2022-03-12T10:09:20.000Z</time>
      </trkpt>
      <trkpt lat="43.6586" lon="7.06991">
        <ele>196.80000305176</ele>
        <time>2022-03-12T10:09:21.000Z</time>
      </trkpt>
      <trkpt lat="43.65873" lon="7.06981">
        <ele>197.39999389648</ele>
        <time>2022-03-12T10:09:26.000Z</time>
      </trkpt>
      <trkpt lat="43.65881" lon="7.06975">
        <ele>198</ele>
        <time>2022-03-12T10:09:29.000Z</time>
      </trkpt>
      <trkpt lat="43.6589" lon="7.06969">
        <ele>199.19999694824</ele>
        <time>2022-03-12T10:09:32.000Z</time>
      </trkpt>
      <trkpt lat="43.65893" lon="7.06968">
        <ele>199.80000305176</ele>
        <time>2022-03-12T10:09:33.000Z</time>
      </trkpt>
      <trkpt lat="43.65895" lon="7.06968">
        <ele>200.39999389648</ele>
        <time>2022-03-12T10:09:34.000Z</time>
      </trkpt>
      <trkpt lat="43.65901" lon="7.06966">
        <ele>201.80000305176</ele>
        <time>2022-03-12T10:09:36.000Z</time>
      </trkpt>
      <trkpt lat="43.65906" lon="7.06965">
        <ele>203</ele>
        <time>2022-03-12T10:09:39.000Z</time>
      </trkpt>
      <trkpt lat="43.65909" lon="7.06965">
        <ele>203.80000305176</ele>
        <time>2022-03-12T10:09:40.000Z</time>
      </trkpt>
      <trkpt lat="43.65912" lon="7.06965">
        <ele>204.19999694824</ele>
        <time>2022-03-12T10:09:41.000Z</time>
      </trkpt>
      <trkpt lat="43.65921" lon="7.06967">
        <ele>205.39999389648</ele>
        <time>2022-03-12T10:09:44.000Z</time>
      </trkpt>
      <trkpt lat="43.65925" lon="7.06967">
        <ele>205.39999389648</ele>
        <time>2022-03-12T10:09:45.000Z</time>
      </trkpt>
      <trkpt lat="43.6594" lon="7.0697">
        <ele>204.19999694824</ele>
        <time>2022-03-12T10:09:50.000Z</time>
      </trkpt>
      <trkpt lat="43.65942" lon="7.06972">
        <ele>204</ele>
        <time>2022-03-12T10:09:51.000Z</time>
      </trkpt>
      <trkpt lat="43.65954" lon="7.06973">
        <ele>204</ele>
        <time>2022-03-12T10:09:56.000Z</time>
      </trkpt>
      <trkpt lat="43.65968" lon="7.06975">
        <ele>204.39999389648</ele>
        <time>2022-03-12T10:10:01.000Z</time>
      </trkpt>
      <trkpt lat="43.6598" lon="7.06966">
        <ele>204.39999389648</ele>
        <time>2022-03-12T10:10:05.000Z</time>
      </trkpt>
      <trkpt lat="43.65996" lon="7.06944">
        <ele>205</ele>
        <time>2022-03-12T10:10:12.000Z</time>
      </trkpt>
      <trkpt lat="43.65999" lon="7.06936">
        <ele>205.39999389648</ele>
        <time>2022-03-12T10:10:14.000Z</time>
      </trkpt>
      <trkpt lat="43.66" lon="7.06924">
        <ele>206.60000610352</ele>
        <time>2022-03-12T10:10:17.000Z</time>
      </trkpt>
      <trkpt lat="43.66001" lon="7.06919">
        <ele>207</ele>
        <time>2022-03-12T10:10:18.000Z</time>
      </trkpt>
      <trkpt lat="43.66" lon="7.06911">
        <ele>207.80000305176</ele>
        <time>2022-03-12T10:10:20.000Z</time>
      </trkpt>
      <trkpt lat="43.65997" lon="7.069">
        <ele>208.80000305176</ele>
        <time>2022-03-12T10:10:23.000Z</time>
      </trkpt>
      <trkpt lat="43.65995" lon="7.06896">
        <ele>209</ele>
        <time>2022-03-12T10:10:24.000Z</time>
      </trkpt>
      <trkpt lat="43.65991" lon="7.06879">
        <ele>210.19999694824</ele>
        <time>2022-03-12T10:10:28.000Z</time>
      </trkpt>
      <trkpt lat="43.65991" lon="7.06869">
        <ele>211.39999389648</ele>
        <time>2022-03-12T10:10:31.000Z</time>
      </trkpt>
      <trkpt lat="43.65989" lon="7.06865">
        <ele>211.80000305176</ele>
        <time>2022-03-12T10:10:32.000Z</time>
      </trkpt>
      <trkpt lat="43.65988" lon="7.06862">
        <ele>212.39999389648</ele>
        <time>2022-03-12T10:10:33.000Z</time>
      </trkpt>
      <trkpt lat="43.65987" lon="7.0686">
        <ele>212.80000305176</ele>
        <time>2022-03-12T10:10:34.000Z</time>
      </trkpt>
      <trkpt lat="43.65983" lon="7.06851">
        <ele>214.19999694824</ele>
        <time>2022-03-12T10:10:37.000Z</time>
      </trkpt>
      <trkpt lat="43.65981" lon="7.06846">
        <ele>215.39999389648</ele>
        <time>2022-03-12T10:10:39.000Z</time>
      </trkpt>
      <trkpt lat="43.65977" lon="7.06838">
        <ele>216.39999389648</ele>
        <time>2022-03-12T10:10:42.000Z</time>
      </trkpt>
      <trkpt lat="43.65975" lon="7.06836">
        <ele>216.60000610352</ele>
        <time>2022-03-12T10:10:43.000Z</time>
      </trkpt>
      <trkpt lat="43.65973" lon="7.06834">
        <ele>217</ele>
        <time>2022-03-12T10:10:44.000Z</time>
      </trkpt>
      <trkpt lat="43.65971" lon="7.06832">
        <ele>217.39999389648</ele>
        <time>2022-03-12T10:10:45.000Z</time>
      </trkpt>
      <trkpt lat="43.65968" lon="7.06827">
        <ele>218.39999389648</ele>
        <time>2022-03-12T10:10:47.000Z</time>
      </trkpt>
      <trkpt lat="43.65966" lon="7.06822">
        <ele>219.19999694824</ele>
        <time>2022-03-12T10:10:49.000Z</time>
      </trkpt>
      <trkpt lat="43.65966" lon="7.06819">
        <ele>219.80000305176</ele>
        <time>2022-03-12T10:10:50.000Z</time>
      </trkpt>
      <trkpt lat="43.65965" lon="7.06809">
        <ele>220.80000305176</ele>
        <time>2022-03-12T10:10:53.000Z</time>
      </trkpt>
      <trkpt lat="43.65965" lon="7.06805">
        <ele>221</ele>
        <time>2022-03-12T10:10:54.000Z</time>
      </trkpt>
      <trkpt lat="43.65966" lon="7.06774">
        <ele>220.80000305176</ele>
        <time>2022-03-12T10:11:02.000Z</time>
      </trkpt>
      <trkpt lat="43.65962" lon="7.0675">
        <ele>220.39999389648</ele>
        <time>2022-03-12T10:11:08.000Z</time>
      </trkpt>
      <trkpt lat="43.65954" lon="7.06729">
        <ele>222</ele>
        <time>2022-03-12T10:11:13.000Z</time>
      </trkpt>
      <trkpt lat="43.65952" lon="7.06725">
        <ele>222.60000610352</ele>
        <time>2022-03-12T10:11:14.000Z</time>
      </trkpt>
      <trkpt lat="43.65951" lon="7.06722">
        <ele>223</ele>
        <time>2022-03-12T10:11:15.000Z</time>
      </trkpt>
      <trkpt lat="43.65948" lon="7.06715">
        <ele>224</ele>
        <time>2022-03-12T10:11:17.000Z</time>
      </trkpt>
      <trkpt lat="43.65945" lon="7.06706">
        <ele>225.19999694824</ele>
        <time>2022-03-12T10:11:20.000Z</time>
      </trkpt>
      <trkpt lat="43.65944" lon="7.06703">
        <ele>225.80000305176</ele>
        <time>2022-03-12T10:11:21.000Z</time>
      </trkpt>
      <trkpt lat="43.65942" lon="7.06698">
        <ele>226.60000610352</ele>
        <time>2022-03-12T10:11:23.000Z</time>
      </trkpt>
      <trkpt lat="43.65941" lon="7.06694">
        <ele>227</ele>
        <time>2022-03-12T10:11:24.000Z</time>
      </trkpt>
      <trkpt lat="43.65941" lon="7.06687">
        <ele>227.39999389648</ele>
        <time>2022-03-12T10:11:26.000Z</time>
      </trkpt>
      <trkpt lat="43.65943" lon="7.0668">
        <ele>227.19999694824</ele>
        <time>2022-03-12T10:11:28.000Z</time>
      </trkpt>
      <trkpt lat="43.65947" lon="7.06666">
        <ele>226.39999389648</ele>
        <time>2022-03-12T10:11:32.000Z</time>
      </trkpt>
      <trkpt lat="43.65959" lon="7.06633">
        <ele>225.60000610352</ele>
        <time>2022-03-12T10:11:39.000Z</time>
      </trkpt>
      <trkpt lat="43.65961" lon="7.06628">
        <ele>225.60000610352</ele>
        <time>2022-03-12T10:11:40.000Z</time>
      </trkpt>
      <trkpt lat="43.6597" lon="7.06605">
        <ele>225.39999389648</ele>
        <time>2022-03-12T10:11:44.000Z</time>
      </trkpt>
      <trkpt lat="43.65972" lon="7.06599">
        <ele>225.19999694824</ele>
        <time>2022-03-12T10:11:45.000Z</time>
      </trkpt>
      <trkpt lat="43.65978" lon="7.06582">
        <ele>224.19999694824</ele>
        <time>2022-03-12T10:11:48.000Z</time>
      </trkpt>
      <trkpt lat="43.65981" lon="7.06571">
        <ele>223.60000610352</ele>
        <time>2022-03-12T10:11:50.000Z</time>
      </trkpt>
      <trkpt lat="43.65985" lon="7.0656">
        <ele>223.60000610352</ele>
        <time>2022-03-12T10:11:52.000Z</time>
      </trkpt>
      <trkpt lat="43.65999" lon="7.06523">
        <ele>224</ele>
        <time>2022-03-12T10:11:59.000Z</time>
      </trkpt>
      <trkpt lat="43.66015" lon="7.06504">
        <ele>225.19999694824</ele>
        <time>2022-03-12T10:12:05.000Z</time>
      </trkpt>
      <trkpt lat="43.66028" lon="7.06493">
        <ele>226.39999389648</ele>
        <time>2022-03-12T10:12:09.000Z</time>
      </trkpt>
      <trkpt lat="43.6604" lon="7.06485">
        <ele>226</ele>
        <time>2022-03-12T10:12:12.000Z</time>
      </trkpt>
      <trkpt lat="43.66052" lon="7.06477">
        <ele>225.39999389648</ele>
        <time>2022-03-12T10:12:15.000Z</time>
      </trkpt>
      <trkpt lat="43.6607" lon="7.06467">
        <ele>225</ele>
        <time>2022-03-12T10:12:19.000Z</time>
      </trkpt>
      <trkpt lat="43.66096" lon="7.06447">
        <ele>224</ele>
        <time>2022-03-12T10:12:26.000Z</time>
      </trkpt>
      <trkpt lat="43.66118" lon="7.06417">
        <ele>223.19999694824</ele>
        <time>2022-03-12T10:12:33.000Z</time>
      </trkpt>
      <trkpt lat="43.66124" lon="7.06406">
        <ele>223</ele>
        <time>2022-03-12T10:12:35.000Z</time>
      </trkpt>
      <trkpt lat="43.66135" lon="7.06385">
        <ele>222.39999389648</ele>
        <time>2022-03-12T10:12:38.000Z</time>
      </trkpt>
      <trkpt lat="43.66142" lon="7.06372">
        <ele>222</ele>
        <time>2022-03-12T10:12:40.000Z</time>
      </trkpt>
      <trkpt lat="43.6615" lon="7.06355">
        <ele>220.80000305176</ele>
        <time>2022-03-12T10:12:42.000Z</time>
      </trkpt>
      <trkpt lat="43.66154" lon="7.06348">
        <ele>220.19999694824</ele>
        <time>2022-03-12T10:12:43.000Z</time>
      </trkpt>
      <trkpt lat="43.66158" lon="7.06341">
        <ele>219.60000610352</ele>
        <time>2022-03-12T10:12:44.000Z</time>
      </trkpt>
      <trkpt lat="43.66164" lon="7.06328">
        <ele>218.60000610352</ele>
        <time>2022-03-12T10:12:46.000Z</time>
      </trkpt>
      <trkpt lat="43.66172" lon="7.06316">
        <ele>218.39999389648</ele>
        <time>2022-03-12T10:12:48.000Z</time>
      </trkpt>
      <trkpt lat="43.66189" lon="7.06298">
        <ele>218.19999694824</ele>
        <time>2022-03-12T10:12:53.000Z</time>
      </trkpt>
      <trkpt lat="43.66203" lon="7.06286">
        <ele>220.19999694824</ele>
        <time>2022-03-12T10:12:58.000Z</time>
      </trkpt>
      <trkpt lat="43.66206" lon="7.06283">
        <ele>221.39999389648</ele>
        <time>2022-03-12T10:13:00.000Z</time>
      </trkpt>
      <trkpt lat="43.66207" lon="7.06283">
        <ele>222.39999389648</ele>
        <time>2022-03-12T10:13:04.000Z</time>
      </trkpt>
      <trkpt lat="43.66208" lon="7.06282">
        <ele>222.60000610352</ele>
        <time>2022-03-12T10:13:12.000Z</time>
      </trkpt>
      <trkpt lat="43.66208" lon="7.06282">
        <ele>222.60000610352</ele>
        <time>2022-03-12T10:13:13.000Z</time>
      </trkpt>
      <trkpt lat="43.66208" lon="7.06282">
        <ele>223</ele>
        <time>2022-03-12T10:13:17.000Z</time>
      </trkpt>
      <trkpt lat="43.66209" lon="7.06281">
        <ele>222.60000610352</ele>
        <time>2022-03-12T10:13:24.000Z</time>
      </trkpt>
      <trkpt lat="43.66209" lon="7.0628">
        <ele>222.80000305176</ele>
        <time>2022-03-12T10:13:28.000Z</time>
      </trkpt>
      <trkpt lat="43.66214" lon="7.06279">
        <ele>222.80000305176</ele>
        <time>2022-03-12T10:13:32.000Z</time>
      </trkpt>
      <trkpt lat="43.66217" lon="7.06281">
        <ele>222.60000610352</ele>
        <time>2022-03-12T10:13:33.000Z</time>
      </trkpt>
      <trkpt lat="43.66231" lon="7.06296">
        <ele>222</ele>
        <time>2022-03-12T10:13:37.000Z</time>
      </trkpt>
      <trkpt lat="43.6624" lon="7.06305">
        <ele>221.60000610352</ele>
        <time>2022-03-12T10:13:39.000Z</time>
      </trkpt>
      <trkpt lat="43.66254" lon="7.06319">
        <ele>220.19999694824</ele>
        <time>2022-03-12T10:13:42.000Z</time>
      </trkpt>
      <trkpt lat="43.66264" lon="7.06328">
        <ele>219</ele>
        <time>2022-03-12T10:13:44.000Z</time>
      </trkpt>
      <trkpt lat="43.6628" lon="7.0634">
        <ele>218.19999694824</ele>
        <time>2022-03-12T10:13:47.000Z</time>
      </trkpt>
      <trkpt lat="43.66285" lon="7.06343">
        <ele>217.80000305176</ele>
        <time>2022-03-12T10:13:48.000Z</time>
      </trkpt>
      <trkpt lat="43.6631" lon="7.06349">
        <ele>216.80000305176</ele>
        <time>2022-03-12T10:13:52.000Z</time>
      </trkpt>
      <trkpt lat="43.66315" lon="7.06349">
        <ele>216.60000610352</ele>
        <time>2022-03-12T10:13:53.000Z</time>
      </trkpt>
      <trkpt lat="43.66321" lon="7.06348">
        <ele>216.60000610352</ele>
        <time>2022-03-12T10:13:54.000Z</time>
      </trkpt>
      <trkpt lat="43.66345" lon="7.06341">
        <ele>216.19999694824</ele>
        <time>2022-03-12T10:13:58.000Z</time>
      </trkpt>
      <trkpt lat="43.66351" lon="7.0634">
        <ele>216.19999694824</ele>
        <time>2022-03-12T10:13:59.000Z</time>
      </trkpt>
      <trkpt lat="43.66368" lon="7.0634">
        <ele>215.19999694824</ele>
        <time>2022-03-12T10:14:02.000Z</time>
      </trkpt>
      <trkpt lat="43.66372" lon="7.0634">
        <ele>215</ele>
        <time>2022-03-12T10:14:03.000Z</time>
      </trkpt>
      <trkpt lat="43.66383" lon="7.06337">
        <ele>214.19999694824</ele>
        <time>2022-03-12T10:14:07.000Z</time>
      </trkpt>
      <trkpt lat="43.66386" lon="7.06323">
        <ele>213.80000305176</ele>
        <time>2022-03-12T10:14:10.000Z</time>
      </trkpt>
      <trkpt lat="43.66388" lon="7.06317">
        <ele>213.80000305176</ele>
        <time>2022-03-12T10:14:11.000Z</time>
      </trkpt>
      <trkpt lat="43.66388" lon="7.06306">
        <ele>213.80000305176</ele>
        <time>2022-03-12T10:14:14.000Z</time>
      </trkpt>
      <trkpt lat="43.66381" lon="7.06297">
        <ele>214.60000610352</ele>
        <time>2022-03-12T10:14:18.000Z</time>
      </trkpt>
      <trkpt lat="43.66382" lon="7.06297">
        <ele>215.60000610352</ele>
        <time>2022-03-12T10:14:20.000Z</time>
      </trkpt>
      <trkpt lat="43.66382" lon="7.06296">
        <ele>215.80000305176</ele>
        <time>2022-03-12T10:14:21.000Z</time>
      </trkpt>
      <trkpt lat="43.66382" lon="7.06299">
        <ele>215.80000305176</ele>
        <time>2022-03-12T10:14:25.000Z</time>
      </trkpt>
      <trkpt lat="43.66382" lon="7.06301">
        <ele>215.80000305176</ele>
        <time>2022-03-12T10:14:26.000Z</time>
      </trkpt>
      <trkpt lat="43.66375" lon="7.06284">
        <ele>216</ele>
        <time>2022-03-12T10:14:55.000Z</time>
      </trkpt>
      <trkpt lat="43.66376" lon="7.06301">
        <ele>216.39999389648</ele>
        <time>2022-03-12T10:16:15.000Z</time>
      </trkpt>
      <trkpt lat="43.66374" lon="7.06304">
        <ele>216.19999694824</ele>
        <time>2022-03-12T10:16:16.000Z</time>
      </trkpt>
      <trkpt lat="43.6637" lon="7.06308">
        <ele>216.19999694824</ele>
        <time>2022-03-12T10:16:18.000Z</time>
      </trkpt>
      <trkpt lat="43.66369" lon="7.06309">
        <ele>216.19999694824</ele>
        <time>2022-03-12T10:16:20.000Z</time>
      </trkpt>
      <trkpt lat="43.66369" lon="7.06306">
        <ele>216.39999389648</ele>
        <time>2022-03-12T10:16:25.000Z</time>
      </trkpt>
      <trkpt lat="43.66369" lon="7.06306">
        <ele>216.39999389648</ele>
        <time>2022-03-12T10:16:31.000Z</time>
      </trkpt>
      <trkpt lat="43.6637" lon="7.06304">
        <ele>216.60000610352</ele>
        <time>2022-03-12T10:16:32.000Z</time>
      </trkpt>
      <trkpt lat="43.66375" lon="7.06302">
        <ele>216.80000305176</ele>
        <time>2022-03-12T10:16:36.000Z</time>
      </trkpt>
      <trkpt lat="43.66373" lon="7.06303">
        <ele>216.80000305176</ele>
        <time>2022-03-12T10:16:38.000Z</time>
      </trkpt>
      <trkpt lat="43.66366" lon="7.06309">
        <ele>216.80000305176</ele>
        <time>2022-03-12T10:16:42.000Z</time>
      </trkpt>
      <trkpt lat="43.66368" lon="7.06319">
        <ele>216.60000610352</ele>
        <time>2022-03-12T10:16:47.000Z</time>
      </trkpt>
      <trkpt lat="43.66366" lon="7.06334">
        <ele>216.39999389648</ele>
        <time>2022-03-12T10:16:57.000Z</time>
      </trkpt>
      <trkpt lat="43.66366" lon="7.06334">
        <ele>216.39999389648</ele>
        <time>2022-03-12T10:17:01.000Z</time>
      </trkpt>
      <trkpt lat="43.66369" lon="7.06319">
        <ele>216.39999389648</ele>
        <time>2022-03-12T10:17:05.000Z</time>
      </trkpt>
      <trkpt lat="43.6637" lon="7.06309">
        <ele>216.39999389648</ele>
        <time>2022-03-12T10:17:07.000Z</time>
      </trkpt>
      <trkpt lat="43.66367" lon="7.06311">
        <ele>216.39999389648</ele>
        <time>2022-03-12T10:17:10.000Z</time>
      </trkpt>
      <trkpt lat="43.66366" lon="7.06311">
        <ele>216.39999389648</ele>
        <time>2022-03-12T10:17:11.000Z</time>
      </trkpt>
      <trkpt lat="43.66363" lon="7.06317">
        <ele>216.60000610352</ele>
        <time>2022-03-12T10:17:13.000Z</time>
      </trkpt>
      <trkpt lat="43.66361" lon="7.06317">
        <ele>216.60000610352</ele>
        <time>2022-03-12T10:17:17.000Z</time>
      </trkpt>
      <trkpt lat="43.66364" lon="7.06302">
        <ele>216.60000610352</ele>
        <time>2022-03-12T10:17:21.000Z</time>
      </trkpt>
      <trkpt lat="43.66366" lon="7.06301">
        <ele>216.39999389648</ele>
        <time>2022-03-12T10:17:22.000Z</time>
      </trkpt>
      <trkpt lat="43.66367" lon="7.06302">
        <ele>216.19999694824</ele>
        <time>2022-03-12T10:17:25.000Z</time>
      </trkpt>
      <trkpt lat="43.66366" lon="7.06304">
        <ele>216.19999694824</ele>
        <time>2022-03-12T10:17:27.000Z</time>
      </trkpt>
      <trkpt lat="43.66365" lon="7.06304">
        <ele>215.80000305176</ele>
        <time>2022-03-12T10:17:32.000Z</time>
      </trkpt>
      <trkpt lat="43.66375" lon="7.06292">
        <ele>216.39999389648</ele>
        <time>2022-03-12T10:17:42.000Z</time>
      </trkpt>
      <trkpt lat="43.66384" lon="7.06289">
        <ele>217</ele>
        <time>2022-03-12T10:17:45.000Z</time>
      </trkpt>
      <trkpt lat="43.6638" lon="7.06301">
        <ele>216.60000610352</ele>
        <time>2022-03-12T10:17:57.000Z</time>
      </trkpt>
      <trkpt lat="43.66379" lon="7.06297">
        <ele>216.60000610352</ele>
        <time>2022-03-12T10:17:58.000Z</time>
      </trkpt>
      <trkpt lat="43.66377" lon="7.06302">
        <ele>216.80000305176</ele>
        <time>2022-03-12T10:18:01.000Z</time>
      </trkpt>
      <trkpt lat="43.66376" lon="7.06305">
        <ele>217.19999694824</ele>
        <time>2022-03-12T10:18:04.000Z</time>
      </trkpt>
      <trkpt lat="43.66375" lon="7.06295">
        <ele>217.19999694824</ele>
        <time>2022-03-12T10:18:08.000Z</time>
      </trkpt>
      <trkpt lat="43.66376" lon="7.06283">
        <ele>217.39999389648</ele>
        <time>2022-03-12T10:18:10.000Z</time>
      </trkpt>
      <trkpt lat="43.66363" lon="7.06261">
        <ele>217.19999694824</ele>
        <time>2022-03-12T10:18:19.000Z</time>
      </trkpt>
      <trkpt lat="43.66365" lon="7.0627">
        <ele>217.39999389648</ele>
        <time>2022-03-12T10:18:30.000Z</time>
      </trkpt>
      <trkpt lat="43.66368" lon="7.06313">
        <ele>217.60000610352</ele>
        <time>2022-03-12T10:20:06.000Z</time>
      </trkpt>
      <trkpt lat="43.66364" lon="7.06323">
        <ele>217.60000610352</ele>
        <time>2022-03-12T10:20:07.000Z</time>
      </trkpt>
      <trkpt lat="43.66364" lon="7.06338">
        <ele>217.80000305176</ele>
        <time>2022-03-12T10:20:10.000Z</time>
      </trkpt>
      <trkpt lat="43.66376" lon="7.06311">
        <ele>217.39999389648</ele>
        <time>2022-03-12T10:20:20.000Z</time>
      </trkpt>
      <trkpt lat="43.66378" lon="7.06307">
        <ele>217.60000610352</ele>
        <time>2022-03-12T10:20:22.000Z</time>
      </trkpt>
      <trkpt lat="43.66379" lon="7.06306">
        <ele>217.60000610352</ele>
        <time>2022-03-12T10:20:49.000Z</time>
      </trkpt>
      <trkpt lat="43.66384" lon="7.06295">
        <ele>218</ele>
        <time>2022-03-12T10:20:54.000Z</time>
      </trkpt>
      <trkpt lat="43.66383" lon="7.06292">
        <ele>218.19999694824</ele>
        <time>2022-03-12T10:20:59.000Z</time>
      </trkpt>
      <trkpt lat="43.66381" lon="7.06294">
        <ele>218.19999694824</ele>
        <time>2022-03-12T10:21:04.000Z</time>
      </trkpt>
      <trkpt lat="43.66379" lon="7.06298">
        <ele>217.80000305176</ele>
        <time>2022-03-12T10:21:09.000Z</time>
      </trkpt>
      <trkpt lat="43.66378" lon="7.06297">
        <ele>217.60000610352</ele>
        <time>2022-03-12T10:21:10.000Z</time>
      </trkpt>
      <trkpt lat="43.66376" lon="7.063">
        <ele>217.80000305176</ele>
        <time>2022-03-12T10:21:14.000Z</time>
      </trkpt>
      <trkpt lat="43.66377" lon="7.06298">
        <ele>217.80000305176</ele>
        <time>2022-03-12T10:21:20.000Z</time>
      </trkpt>
      <trkpt lat="43.66378" lon="7.06298">
        <ele>217.60000610352</ele>
        <time>2022-03-12T10:21:27.000Z</time>
      </trkpt>
      <trkpt lat="43.66377" lon="7.06301">
        <ele>216.80000305176</ele>
        <time>2022-03-12T10:21:38.000Z</time>
      </trkpt>
      <trkpt lat="43.66377" lon="7.06301">
        <ele>216.39999389648</ele>
        <time>2022-03-12T10:21:39.000Z</time>
      </trkpt>
      <trkpt lat="43.66377" lon="7.06303">
        <ele>216.39999389648</ele>
        <time>2022-03-12T10:21:46.000Z</time>
      </trkpt>
      <trkpt lat="43.66377" lon="7.06304">
        <ele>217.39999389648</ele>
        <time>2022-03-12T10:21:51.000Z</time>
      </trkpt>
      <trkpt lat="43.66376" lon="7.06304">
        <ele>217.39999389648</ele>
        <time>2022-03-12T10:21:52.000Z</time>
      </trkpt>
      <trkpt lat="43.66377" lon="7.06303">
        <ele>217.60000610352</ele>
        <time>2022-03-12T10:21:58.000Z</time>
      </trkpt>
      <trkpt lat="43.66376" lon="7.06304">
        <ele>216.80000305176</ele>
        <time>2022-03-12T10:22:04.000Z</time>
      </trkpt>
      <trkpt lat="43.66376" lon="7.06304">
        <ele>216.39999389648</ele>
        <time>2022-03-12T10:22:08.000Z</time>
      </trkpt>
      <trkpt lat="43.66376" lon="7.06303">
        <ele>216.19999694824</ele>
        <time>2022-03-12T10:22:12.000Z</time>
      </trkpt>
      <trkpt lat="43.66376" lon="7.06304">
        <ele>216.39999389648</ele>
        <time>2022-03-12T10:22:20.000Z</time>
      </trkpt>
      <trkpt lat="43.66376" lon="7.06304">
        <ele>216.19999694824</ele>
        <time>2022-03-12T10:22:27.000Z</time>
      </trkpt>
      <trkpt lat="43.66376" lon="7.06305">
        <ele>216.39999389648</ele>
        <time>2022-03-12T10:22:39.000Z</time>
      </trkpt>
      <trkpt lat="43.66376" lon="7.06307">
        <ele>217.60000610352</ele>
        <time>2022-03-12T10:22:50.000Z</time>
      </trkpt>
      <trkpt lat="43.66376" lon="7.06307">
        <ele>217.39999389648</ele>
        <time>2022-03-12T10:22:53.000Z</time>
      </trkpt>
      <trkpt lat="43.66376" lon="7.06308">
        <ele>216.39999389648</ele>
        <time>2022-03-12T10:22:56.000Z</time>
      </trkpt>
      <trkpt lat="43.66376" lon="7.06309">
        <ele>216.19999694824</ele>
        <time>2022-03-12T10:23:09.000Z</time>
      </trkpt>
      <trkpt lat="43.66374" lon="7.06308">
        <ele>215.80000305176</ele>
        <time>2022-03-12T10:23:17.000Z</time>
      </trkpt>
      <trkpt lat="43.66374" lon="7.06306">
        <ele>216.19999694824</ele>
        <time>2022-03-12T10:23:25.000Z</time>
      </trkpt>
      <trkpt lat="43.66375" lon="7.06304">
        <ele>216</ele>
        <time>2022-03-12T10:23:42.000Z</time>
      </trkpt>
      <trkpt lat="43.66375" lon="7.06304">
        <ele>215.39999389648</ele>
        <time>2022-03-12T10:23:51.000Z</time>
      </trkpt>
      <trkpt lat="43.66375" lon="7.06304">
        <ele>214.39999389648</ele>
        <time>2022-03-12T10:23:54.000Z</time>
      </trkpt>
      <trkpt lat="43.66375" lon="7.06303">
        <ele>214.19999694824</ele>
        <time>2022-03-12T10:23:55.000Z</time>
      </trkpt>
      <trkpt lat="43.66376" lon="7.06304">
        <ele>214.60000610352</ele>
        <time>2022-03-12T10:24:03.000Z</time>
      </trkpt>
      <trkpt lat="43.66376" lon="7.06304">
        <ele>215.39999389648</ele>
        <time>2022-03-12T10:24:09.000Z</time>
      </trkpt>
      <trkpt lat="43.66377" lon="7.06305">
        <ele>215.39999389648</ele>
        <time>2022-03-12T10:24:15.000Z</time>
      </trkpt>
      <trkpt lat="43.66377" lon="7.06306">
        <ele>215.39999389648</ele>
        <time>2022-03-12T10:24:22.000Z</time>
      </trkpt>
      <trkpt lat="43.66377" lon="7.06307">
        <ele>216.39999389648</ele>
        <time>2022-03-12T10:24:27.000Z</time>
      </trkpt>
      <trkpt lat="43.66377" lon="7.06306">
        <ele>217.19999694824</ele>
        <time>2022-03-12T10:24:34.000Z</time>
      </trkpt>
      <trkpt lat="43.66378" lon="7.06305">
        <ele>215.80000305176</ele>
        <time>2022-03-12T10:24:44.000Z</time>
      </trkpt>
      <trkpt lat="43.66379" lon="7.06303">
        <ele>215.39999389648</ele>
        <time>2022-03-12T10:24:50.000Z</time>
      </trkpt>
      <trkpt lat="43.66379" lon="7.06303">
        <ele>214.80000305176</ele>
        <time>2022-03-12T10:24:55.000Z</time>
      </trkpt>
      <trkpt lat="43.66379" lon="7.06302">
        <ele>215.19999694824</ele>
        <time>2022-03-12T10:25:05.000Z</time>
      </trkpt>
      <trkpt lat="43.66379" lon="7.063">
        <ele>215.19999694824</ele>
        <time>2022-03-12T10:25:15.000Z</time>
      </trkpt>
      <trkpt lat="43.66379" lon="7.06301">
        <ele>215.19999694824</ele>
        <time>2022-03-12T10:25:20.000Z</time>
      </trkpt>
      <trkpt lat="43.66377" lon="7.06305">
        <ele>214.80000305176</ele>
        <time>2022-03-12T10:25:27.000Z</time>
      </trkpt>
      <trkpt lat="43.66377" lon="7.06305">
        <ele>214.19999694824</ele>
        <time>2022-03-12T10:25:29.000Z</time>
      </trkpt>
      <trkpt lat="43.66376" lon="7.06308">
        <ele>214.39999389648</ele>
        <time>2022-03-12T10:25:31.000Z</time>
      </trkpt>
      <trkpt lat="43.66376" lon="7.06309">
        <ele>214.80000305176</ele>
        <time>2022-03-12T10:25:33.000Z</time>
      </trkpt>
      <trkpt lat="43.66376" lon="7.0631">
        <ele>215.19999694824</ele>
        <time>2022-03-12T10:25:37.000Z</time>
      </trkpt>
      <trkpt lat="43.66377" lon="7.06309">
        <ele>215.39999389648</ele>
        <time>2022-03-12T10:25:38.000Z</time>
      </trkpt>
      <trkpt lat="43.66377" lon="7.06308">
        <ele>215.39999389648</ele>
        <time>2022-03-12T10:25:39.000Z</time>
      </trkpt>
      <trkpt lat="43.66379" lon="7.06299">
        <ele>215.39999389648</ele>
        <time>2022-03-12T10:25:43.000Z</time>
      </trkpt>
      <trkpt lat="43.66379" lon="7.06298">
        <ele>215.60000610352</ele>
        <time>2022-03-12T10:25:47.000Z</time>
      </trkpt>
      <trkpt lat="43.66377" lon="7.06301">
        <ele>215.19999694824</ele>
        <time>2022-03-12T10:25:52.000Z</time>
      </trkpt>
      <trkpt lat="43.66373" lon="7.0631">
        <ele>215.60000610352</ele>
        <time>2022-03-12T10:26:00.000Z</time>
      </trkpt>
      <trkpt lat="43.66373" lon="7.06309">
        <ele>215</ele>
        <time>2022-03-12T10:26:06.000Z</time>
      </trkpt>
      <trkpt lat="43.66372" lon="7.0631">
        <ele>216</ele>
        <time>2022-03-12T10:26:14.000Z</time>
      </trkpt>
      <trkpt lat="43.66373" lon="7.06309">
        <ele>215</ele>
        <time>2022-03-12T10:26:23.000Z</time>
      </trkpt>
      <trkpt lat="43.66374" lon="7.06309">
        <ele>215</ele>
        <time>2022-03-12T10:26:24.000Z</time>
      </trkpt>
      <trkpt lat="43.66374" lon="7.06308">
        <ele>215.80000305176</ele>
        <time>2022-03-12T10:26:27.000Z</time>
      </trkpt>
      <trkpt lat="43.66374" lon="7.06308">
        <ele>216.39999389648</ele>
        <time>2022-03-12T10:26:32.000Z</time>
      </trkpt>
      <trkpt lat="43.66374" lon="7.06308">
        <ele>216.19999694824</ele>
        <time>2022-03-12T10:26:33.000Z</time>
      </trkpt>
      <trkpt lat="43.66374" lon="7.06308">
        <ele>215.19999694824</ele>
        <time>2022-03-12T10:26:37.000Z</time>
      </trkpt>
      <trkpt lat="43.66375" lon="7.06309">
        <ele>215.80000305176</ele>
        <time>2022-03-12T10:26:46.000Z</time>
      </trkpt>
      <trkpt lat="43.66375" lon="7.0631">
        <ele>215.19999694824</ele>
        <time>2022-03-12T10:26:57.000Z</time>
      </trkpt>
      <trkpt lat="43.66375" lon="7.06309">
        <ele>215.19999694824</ele>
        <time>2022-03-12T10:27:07.000Z</time>
      </trkpt>
      <trkpt lat="43.66375" lon="7.06308">
        <ele>215.60000610352</ele>
        <time>2022-03-12T10:27:15.000Z</time>
      </trkpt>
      <trkpt lat="43.66376" lon="7.06308">
        <ele>215.60000610352</ele>
        <time>2022-03-12T10:27:26.000Z</time>
      </trkpt>
      <trkpt lat="43.66376" lon="7.06307">
        <ele>215.19999694824</ele>
        <time>2022-03-12T10:27:33.000Z</time>
      </trkpt>
      <trkpt lat="43.66377" lon="7.06308">
        <ele>214.80000305176</ele>
        <time>2022-03-12T10:27:44.000Z</time>
      </trkpt>
      <trkpt lat="43.66376" lon="7.06307">
        <ele>215.60000610352</ele>
        <time>2022-03-12T10:27:56.000Z</time>
      </trkpt>
      <trkpt lat="43.66376" lon="7.06307">
        <ele>216.39999389648</ele>
        <time>2022-03-12T10:28:00.000Z</time>
      </trkpt>
      <trkpt lat="43.66376" lon="7.06307">
        <ele>215.39999389648</ele>
        <time>2022-03-12T10:28:04.000Z</time>
      </trkpt>
      <trkpt lat="43.66376" lon="7.06307">
        <ele>215.39999389648</ele>
        <time>2022-03-12T10:28:05.000Z</time>
      </trkpt>
      <trkpt lat="43.66376" lon="7.06307">
        <ele>214.80000305176</ele>
        <time>2022-03-12T10:28:10.000Z</time>
      </trkpt>
      <trkpt lat="43.66375" lon="7.06306">
        <ele>216.39999389648</ele>
        <time>2022-03-12T10:28:17.000Z</time>
      </trkpt>
      <trkpt lat="43.66375" lon="7.06306">
        <ele>216.80000305176</ele>
        <time>2022-03-12T10:28:19.000Z</time>
      </trkpt>
      <trkpt lat="43.66376" lon="7.06307">
        <ele>215.39999389648</ele>
        <time>2022-03-12T10:28:26.000Z</time>
      </trkpt>
      <trkpt lat="43.66375" lon="7.06309">
        <ele>215</ele>
        <time>2022-03-12T10:28:32.000Z</time>
      </trkpt>
      <trkpt lat="43.66375" lon="7.06308">
        <ele>214.39999389648</ele>
        <time>2022-03-12T10:28:36.000Z</time>
      </trkpt>
      <trkpt lat="43.66375" lon="7.06308">
        <ele>213.80000305176</ele>
        <time>2022-03-12T10:28:38.000Z</time>
      </trkpt>
      <trkpt lat="43.66376" lon="7.06307">
        <ele>215.39999389648</ele>
        <time>2022-03-12T10:28:43.000Z</time>
      </trkpt>
      <trkpt lat="43.66376" lon="7.06308">
        <ele>215.80000305176</ele>
        <time>2022-03-12T10:28:45.000Z</time>
      </trkpt>
      <trkpt lat="43.66376" lon="7.06309">
        <ele>215.39999389648</ele>
        <time>2022-03-12T10:28:52.000Z</time>
      </trkpt>
      <trkpt lat="43.66378" lon="7.0631">
        <ele>215.60000610352</ele>
        <time>2022-03-12T10:28:58.000Z</time>
      </trkpt>
      <trkpt lat="43.66378" lon="7.0631">
        <ele>216.19999694824</ele>
        <time>2022-03-12T10:29:06.000Z</time>
      </trkpt>
      <trkpt lat="43.66384" lon="7.06314">
        <ele>215.39999389648</ele>
        <time>2022-03-12T10:29:11.000Z</time>
      </trkpt>
      <trkpt lat="43.66391" lon="7.06326">
        <ele>214.39999389648</ele>
        <time>2022-03-12T10:29:16.000Z</time>
      </trkpt>
      <trkpt lat="43.66399" lon="7.06341">
        <ele>214.80000305176</ele>
        <time>2022-03-12T10:29:22.000Z</time>
      </trkpt>
      <trkpt lat="43.66409" lon="7.06335">
        <ele>215.19999694824</ele>
        <time>2022-03-12T10:29:26.000Z</time>
      </trkpt>
      <trkpt lat="43.66411" lon="7.06331">
        <ele>215.39999389648</ele>
        <time>2022-03-12T10:29:27.000Z</time>
      </trkpt>
      <trkpt lat="43.66414" lon="7.06324">
        <ele>216.60000610352</ele>
        <time>2022-03-12T10:29:29.000Z</time>
      </trkpt>
      <trkpt lat="43.66417" lon="7.06318">
        <ele>217.19999694824</ele>
        <time>2022-03-12T10:29:31.000Z</time>
      </trkpt>
      <trkpt lat="43.6642" lon="7.06313">
        <ele>217.80000305176</ele>
        <time>2022-03-12T10:29:33.000Z</time>
      </trkpt>
      <trkpt lat="43.66424" lon="7.06305">
        <ele>218.60000610352</ele>
        <time>2022-03-12T10:29:36.000Z</time>
      </trkpt>
      <trkpt lat="43.66426" lon="7.06302">
        <ele>219</ele>
        <time>2022-03-12T10:29:37.000Z</time>
      </trkpt>
      <trkpt lat="43.66431" lon="7.06301">
        <ele>219.80000305176</ele>
        <time>2022-03-12T10:29:39.000Z</time>
      </trkpt>
      <trkpt lat="43.66433" lon="7.06302">
        <ele>220.19999694824</ele>
        <time>2022-03-12T10:29:40.000Z</time>
      </trkpt>
      <trkpt lat="43.66437" lon="7.06304">
        <ele>221.39999389648</ele>
        <time>2022-03-12T10:29:42.000Z</time>
      </trkpt>
      <trkpt lat="43.66445" lon="7.06311">
        <ele>221.80000305176</ele>
        <time>2022-03-12T10:29:46.000Z</time>
      </trkpt>
      <trkpt lat="43.66449" lon="7.06313">
        <ele>222.39999389648</ele>
        <time>2022-03-12T10:29:48.000Z</time>
      </trkpt>
      <trkpt lat="43.6645" lon="7.06313">
        <ele>223.19999694824</ele>
        <time>2022-03-12T10:29:49.000Z</time>
      </trkpt>
      <trkpt lat="43.66455" lon="7.06314">
        <ele>224.19999694824</ele>
        <time>2022-03-12T10:29:51.000Z</time>
      </trkpt>
      <trkpt lat="43.66466" lon="7.0631">
        <ele>224.39999389648</ele>
        <time>2022-03-12T10:29:56.000Z</time>
      </trkpt>
      <trkpt lat="43.66469" lon="7.06299">
        <ele>225.39999389648</ele>
        <time>2022-03-12T10:30:00.000Z</time>
      </trkpt>
      <trkpt lat="43.6647" lon="7.06293">
        <ele>226.60000610352</ele>
        <time>2022-03-12T10:30:02.000Z</time>
      </trkpt>
      <trkpt lat="43.6647" lon="7.06287">
        <ele>226.80000305176</ele>
        <time>2022-03-12T10:30:04.000Z</time>
      </trkpt>
      <trkpt lat="43.66471" lon="7.06284">
        <ele>227.19999694824</ele>
        <time>2022-03-12T10:30:05.000Z</time>
      </trkpt>
      <trkpt lat="43.66472" lon="7.0628">
        <ele>227.80000305176</ele>
        <time>2022-03-12T10:30:06.000Z</time>
      </trkpt>
      <trkpt lat="43.66473" lon="7.06275">
        <ele>228.60000610352</ele>
        <time>2022-03-12T10:30:08.000Z</time>
      </trkpt>
      <trkpt lat="43.66474" lon="7.06271">
        <ele>229</ele>
        <time>2022-03-12T10:30:09.000Z</time>
      </trkpt>
      <trkpt lat="43.6648" lon="7.06252">
        <ele>229.80000305176</ele>
        <time>2022-03-12T10:30:15.000Z</time>
      </trkpt>
      <trkpt lat="43.66481" lon="7.06248">
        <ele>230.19999694824</ele>
        <time>2022-03-12T10:30:16.000Z</time>
      </trkpt>
      <trkpt lat="43.66485" lon="7.06229">
        <ele>231.19999694824</ele>
        <time>2022-03-12T10:30:22.000Z</time>
      </trkpt>
      <trkpt lat="43.66487" lon="7.0622">
        <ele>232.39999389648</ele>
        <time>2022-03-12T10:30:25.000Z</time>
      </trkpt>
      <trkpt lat="43.6649" lon="7.06211">
        <ele>233.80000305176</ele>
        <time>2022-03-12T10:30:28.000Z</time>
      </trkpt>
      <trkpt lat="43.66492" lon="7.06202">
        <ele>235</ele>
        <time>2022-03-12T10:30:31.000Z</time>
      </trkpt>
      <trkpt lat="43.66492" lon="7.06196">
        <ele>236</ele>
        <time>2022-03-12T10:30:33.000Z</time>
      </trkpt>
      <trkpt lat="43.66493" lon="7.06193">
        <ele>236.39999389648</ele>
        <time>2022-03-12T10:30:34.000Z</time>
      </trkpt>
      <trkpt lat="43.66494" lon="7.06187">
        <ele>237.19999694824</ele>
        <time>2022-03-12T10:30:36.000Z</time>
      </trkpt>
      <trkpt lat="43.66498" lon="7.06176">
        <ele>238.19999694824</ele>
        <time>2022-03-12T10:30:40.000Z</time>
      </trkpt>
      <trkpt lat="43.66501" lon="7.06162">
        <ele>239.39999389648</ele>
        <time>2022-03-12T10:30:45.000Z</time>
      </trkpt>
      <trkpt lat="43.66501" lon="7.06159">
        <ele>239.80000305176</ele>
        <time>2022-03-12T10:30:46.000Z</time>
      </trkpt>
      <trkpt lat="43.66502" lon="7.06153">
        <ele>240.60000610352</ele>
        <time>2022-03-12T10:30:48.000Z</time>
      </trkpt>
      <trkpt lat="43.66503" lon="7.06144">
        <ele>241.60000610352</ele>
        <time>2022-03-12T10:30:51.000Z</time>
      </trkpt>
      <trkpt lat="43.66504" lon="7.06138">
        <ele>242.39999389648</ele>
        <time>2022-03-12T10:30:53.000Z</time>
      </trkpt>
      <trkpt lat="43.66505" lon="7.06132">
        <ele>243</ele>
        <time>2022-03-12T10:30:55.000Z</time>
      </trkpt>
      <trkpt lat="43.66506" lon="7.06122">
        <ele>244.39999389648</ele>
        <time>2022-03-12T10:30:58.000Z</time>
      </trkpt>
      <trkpt lat="43.66507" lon="7.06116">
        <ele>245.60000610352</ele>
        <time>2022-03-12T10:31:00.000Z</time>
      </trkpt>
      <trkpt lat="43.66508" lon="7.06113">
        <ele>246</ele>
        <time>2022-03-12T10:31:01.000Z</time>
      </trkpt>
      <trkpt lat="43.66508" lon="7.06107">
        <ele>246.60000610352</ele>
        <time>2022-03-12T10:31:03.000Z</time>
      </trkpt>
      <trkpt lat="43.6651" lon="7.06094">
        <ele>247.60000610352</ele>
        <time>2022-03-12T10:31:07.000Z</time>
      </trkpt>
      <trkpt lat="43.66512" lon="7.06085">
        <ele>248.80000305176</ele>
        <time>2022-03-12T10:31:10.000Z</time>
      </trkpt>
      <trkpt lat="43.66514" lon="7.06079">
        <ele>250</ele>
        <time>2022-03-12T10:31:12.000Z</time>
      </trkpt>
      <trkpt lat="43.66517" lon="7.06074">
        <ele>251.19999694824</ele>
        <time>2022-03-12T10:31:14.000Z</time>
      </trkpt>
      <trkpt lat="43.66522" lon="7.06071">
        <ele>252</ele>
        <time>2022-03-12T10:31:17.000Z</time>
      </trkpt>
      <trkpt lat="43.66525" lon="7.0607">
        <ele>252.39999389648</ele>
        <time>2022-03-12T10:31:19.000Z</time>
      </trkpt>
      <trkpt lat="43.66529" lon="7.06068">
        <ele>252.60000610352</ele>
        <time>2022-03-12T10:31:22.000Z</time>
      </trkpt>
      <trkpt lat="43.66534" lon="7.06066">
        <ele>252.60000610352</ele>
        <time>2022-03-12T10:31:24.000Z</time>
      </trkpt>
      <trkpt lat="43.66548" lon="7.06059">
        <ele>252.39999389648</ele>
        <time>2022-03-12T10:31:30.000Z</time>
      </trkpt>
      <trkpt lat="43.66558" lon="7.06056">
        <ele>252.60000610352</ele>
        <time>2022-03-12T10:31:35.000Z</time>
      </trkpt>
      <trkpt lat="43.66571" lon="7.06052">
        <ele>252.39999389648</ele>
        <time>2022-03-12T10:31:40.000Z</time>
      </trkpt>
      <trkpt lat="43.6659" lon="7.06049">
        <ele>252.19999694824</ele>
        <time>2022-03-12T10:31:46.000Z</time>
      </trkpt>
      <trkpt lat="43.66606" lon="7.06048">
        <ele>252.39999389648</ele>
        <time>2022-03-12T10:31:51.000Z</time>
      </trkpt>
      <trkpt lat="43.66617" lon="7.06044">
        <ele>253.19999694824</ele>
        <time>2022-03-12T10:31:55.000Z</time>
      </trkpt>
      <trkpt lat="43.66626" lon="7.06043">
        <ele>253.19999694824</ele>
        <time>2022-03-12T10:31:57.000Z</time>
      </trkpt>
      <trkpt lat="43.66635" lon="7.06045">
        <ele>253.19999694824</ele>
        <time>2022-03-12T10:31:59.000Z</time>
      </trkpt>
      <trkpt lat="43.66644" lon="7.06049">
        <ele>252.60000610352</ele>
        <time>2022-03-12T10:32:01.000Z</time>
      </trkpt>
      <trkpt lat="43.66661" lon="7.06055">
        <ele>252</ele>
        <time>2022-03-12T10:32:05.000Z</time>
      </trkpt>
      <trkpt lat="43.66671" lon="7.06059">
        <ele>251.39999389648</ele>
        <time>2022-03-12T10:32:07.000Z</time>
      </trkpt>
      <trkpt lat="43.66676" lon="7.0606">
        <ele>251</ele>
        <time>2022-03-12T10:32:08.000Z</time>
      </trkpt>
      <trkpt lat="43.66692" lon="7.06062">
        <ele>250.39999389648</ele>
        <time>2022-03-12T10:32:11.000Z</time>
      </trkpt>
      <trkpt lat="43.66702" lon="7.06063">
        <ele>250.39999389648</ele>
        <time>2022-03-12T10:32:13.000Z</time>
      </trkpt>
      <trkpt lat="43.66722" lon="7.06066">
        <ele>250.19999694824</ele>
        <time>2022-03-12T10:32:18.000Z</time>
      </trkpt>
      <trkpt lat="43.66726" lon="7.06064">
        <ele>250</ele>
        <time>2022-03-12T10:32:21.000Z</time>
      </trkpt>
      <trkpt lat="43.66727" lon="7.06062">
        <ele>249.80000305176</ele>
        <time>2022-03-12T10:32:22.000Z</time>
      </trkpt>
      <trkpt lat="43.6673" lon="7.06054">
        <ele>249.60000610352</ele>
        <time>2022-03-12T10:32:25.000Z</time>
      </trkpt>
      <trkpt lat="43.66732" lon="7.06045">
        <ele>249.39999389648</ele>
        <time>2022-03-12T10:32:27.000Z</time>
      </trkpt>
      <trkpt lat="43.66734" lon="7.06041">
        <ele>249.19999694824</ele>
        <time>2022-03-12T10:32:28.000Z</time>
      </trkpt>
      <trkpt lat="43.66742" lon="7.0601">
        <ele>248.60000610352</ele>
        <time>2022-03-12T10:32:34.000Z</time>
      </trkpt>
      <trkpt lat="43.66752" lon="7.05978">
        <ele>248.80000305176</ele>
        <time>2022-03-12T10:32:39.000Z</time>
      </trkpt>
      <trkpt lat="43.66763" lon="7.05957">
        <ele>248</ele>
        <time>2022-03-12T10:32:43.000Z</time>
      </trkpt>
      <trkpt lat="43.66767" lon="7.05955">
        <ele>247.60000610352</ele>
        <time>2022-03-12T10:32:44.000Z</time>
      </trkpt>
      <trkpt lat="43.66792" lon="7.05947">
        <ele>247.80000305176</ele>
        <time>2022-03-12T10:32:50.000Z</time>
      </trkpt>
      <trkpt lat="43.66811" lon="7.05941">
        <ele>249.19999694824</ele>
        <time>2022-03-12T10:32:55.000Z</time>
      </trkpt>
      <trkpt lat="43.66814" lon="7.0594">
        <ele>249.39999389648</ele>
        <time>2022-03-12T10:32:56.000Z</time>
      </trkpt>
      <trkpt lat="43.66833" lon="7.05932">
        <ele>250.19999694824</ele>
        <time>2022-03-12T10:33:01.000Z</time>
      </trkpt>
      <trkpt lat="43.6684" lon="7.05929">
        <ele>250.60000610352</ele>
        <time>2022-03-12T10:33:03.000Z</time>
      </trkpt>
      <trkpt lat="43.66853" lon="7.05924">
        <ele>251.19999694824</ele>
        <time>2022-03-12T10:33:07.000Z</time>
      </trkpt>
      <trkpt lat="43.6686" lon="7.05922">
        <ele>251.60000610352</ele>
        <time>2022-03-12T10:33:09.000Z</time>
      </trkpt>
      <trkpt lat="43.66873" lon="7.05916">
        <ele>252.39999389648</ele>
        <time>2022-03-12T10:33:13.000Z</time>
      </trkpt>
      <trkpt lat="43.66876" lon="7.05915">
        <ele>252.19999694824</ele>
        <time>2022-03-12T10:33:14.000Z</time>
      </trkpt>
      <trkpt lat="43.66895" lon="7.05906">
        <ele>253.19999694824</ele>
        <time>2022-03-12T10:33:21.000Z</time>
      </trkpt>
      <trkpt lat="43.66897" lon="7.05905">
        <ele>253.60000610352</ele>
        <time>2022-03-12T10:33:22.000Z</time>
      </trkpt>
      <trkpt lat="43.66907" lon="7.059">
        <ele>255</ele>
        <time>2022-03-12T10:33:26.000Z</time>
      </trkpt>
      <trkpt lat="43.66911" lon="7.05897">
        <ele>255.60000610352</ele>
        <time>2022-03-12T10:33:28.000Z</time>
      </trkpt>
      <trkpt lat="43.66917" lon="7.05894">
        <ele>256</ele>
        <time>2022-03-12T10:33:30.000Z</time>
      </trkpt>
      <trkpt lat="43.66923" lon="7.05891">
        <ele>256.39999389648</ele>
        <time>2022-03-12T10:33:33.000Z</time>
      </trkpt>
      <trkpt lat="43.66937" lon="7.05876">
        <ele>256.79998779297</ele>
        <time>2022-03-12T10:33:39.000Z</time>
      </trkpt>
      <trkpt lat="43.66939" lon="7.05874">
        <ele>257</ele>
        <time>2022-03-12T10:33:40.000Z</time>
      </trkpt>
      <trkpt lat="43.66951" lon="7.05859">
        <ele>257.79998779297</ele>
        <time>2022-03-12T10:33:45.000Z</time>
      </trkpt>
      <trkpt lat="43.66957" lon="7.05844">
        <ele>257.60000610352</ele>
        <time>2022-03-12T10:33:49.000Z</time>
      </trkpt>
      <trkpt lat="43.66962" lon="7.05827">
        <ele>257.39999389648</ele>
        <time>2022-03-12T10:33:54.000Z</time>
      </trkpt>
      <trkpt lat="43.66974" lon="7.05815">
        <ele>257.20001220703</ele>
        <time>2022-03-12T10:34:00.000Z</time>
      </trkpt>
      <trkpt lat="43.66979" lon="7.05818">
        <ele>256.79998779297</ele>
        <time>2022-03-12T10:34:03.000Z</time>
      </trkpt>
      <trkpt lat="43.66981" lon="7.05818">
        <ele>256.79998779297</ele>
        <time>2022-03-12T10:34:04.000Z</time>
      </trkpt>
      <trkpt lat="43.66993" lon="7.05816">
        <ele>256.60000610352</ele>
        <time>2022-03-12T10:34:08.000Z</time>
      </trkpt>
      <trkpt lat="43.67009" lon="7.05812">
        <ele>257.20001220703</ele>
        <time>2022-03-12T10:34:13.000Z</time>
      </trkpt>
      <trkpt lat="43.67021" lon="7.0581">
        <ele>257.60000610352</ele>
        <time>2022-03-12T10:34:18.000Z</time>
      </trkpt>
      <trkpt lat="43.67032" lon="7.05814">
        <ele>258.20001220703</ele>
        <time>2022-03-12T10:34:21.000Z</time>
      </trkpt>
      <trkpt lat="43.67039" lon="7.05822">
        <ele>258.79998779297</ele>
        <time>2022-03-12T10:34:25.000Z</time>
      </trkpt>
      <trkpt lat="43.67043" lon="7.05822">
        <ele>258.79998779297</ele>
        <time>2022-03-12T10:34:27.000Z</time>
      </trkpt>
      <trkpt lat="43.67048" lon="7.05821">
        <ele>258.79998779297</ele>
        <time>2022-03-12T10:34:29.000Z</time>
      </trkpt>
      <trkpt lat="43.67061" lon="7.05828">
        <ele>259.20001220703</ele>
        <time>2022-03-12T10:34:34.000Z</time>
      </trkpt>
      <trkpt lat="43.67063" lon="7.05829">
        <ele>259.39999389648</ele>
        <time>2022-03-12T10:34:35.000Z</time>
      </trkpt>
      <trkpt lat="43.67072" lon="7.0584">
        <ele>260.39999389648</ele>
        <time>2022-03-12T10:34:39.000Z</time>
      </trkpt>
      <trkpt lat="43.67074" lon="7.05841">
        <ele>260.39999389648</ele>
        <time>2022-03-12T10:34:40.000Z</time>
      </trkpt>
      <trkpt lat="43.67082" lon="7.05847">
        <ele>260.20001220703</ele>
        <time>2022-03-12T10:34:43.000Z</time>
      </trkpt>
      <trkpt lat="43.67087" lon="7.05861">
        <ele>260.60000610352</ele>
        <time>2022-03-12T10:34:47.000Z</time>
      </trkpt>
      <trkpt lat="43.67088" lon="7.05866">
        <ele>260.39999389648</ele>
        <time>2022-03-12T10:34:48.000Z</time>
      </trkpt>
      <trkpt lat="43.67094" lon="7.0589">
        <ele>260</ele>
        <time>2022-03-12T10:34:52.000Z</time>
      </trkpt>
      <trkpt lat="43.67098" lon="7.05899">
        <ele>259.20001220703</ele>
        <time>2022-03-12T10:34:54.000Z</time>
      </trkpt>
      <trkpt lat="43.67102" lon="7.05902">
        <ele>258.60000610352</ele>
        <time>2022-03-12T10:34:55.000Z</time>
      </trkpt>
      <trkpt lat="43.67105" lon="7.05904">
        <ele>258</ele>
        <time>2022-03-12T10:34:56.000Z</time>
      </trkpt>
      <trkpt lat="43.67112" lon="7.05903">
        <ele>256.79998779297</ele>
        <time>2022-03-12T10:34:58.000Z</time>
      </trkpt>
      <trkpt lat="43.67124" lon="7.05903">
        <ele>256.60000610352</ele>
        <time>2022-03-12T10:35:01.000Z</time>
      </trkpt>
      <trkpt lat="43.67132" lon="7.05902">
        <ele>257</ele>
        <time>2022-03-12T10:35:03.000Z</time>
      </trkpt>
      <trkpt lat="43.67146" lon="7.059">
        <ele>257.20001220703</ele>
        <time>2022-03-12T10:35:07.000Z</time>
      </trkpt>
      <trkpt lat="43.67158" lon="7.05904">
        <ele>257.79998779297</ele>
        <time>2022-03-12T10:35:11.000Z</time>
      </trkpt>
      <trkpt lat="43.6717" lon="7.05911">
        <ele>257.60000610352</ele>
        <time>2022-03-12T10:35:15.000Z</time>
      </trkpt>
      <trkpt lat="43.67184" lon="7.05911">
        <ele>257.39999389648</ele>
        <time>2022-03-12T10:35:19.000Z</time>
      </trkpt>
      <trkpt lat="43.67198" lon="7.05907">
        <ele>256.79998779297</ele>
        <time>2022-03-12T10:35:23.000Z</time>
      </trkpt>
      <trkpt lat="43.67209" lon="7.05908">
        <ele>256.39999389648</ele>
        <time>2022-03-12T10:35:26.000Z</time>
      </trkpt>
      <trkpt lat="43.67213" lon="7.05907">
        <ele>256.39999389648</ele>
        <time>2022-03-12T10:35:27.000Z</time>
      </trkpt>
      <trkpt lat="43.67231" lon="7.05912">
        <ele>255.60000610352</ele>
        <time>2022-03-12T10:35:31.000Z</time>
      </trkpt>
      <trkpt lat="43.67236" lon="7.05913">
        <ele>255.19999694824</ele>
        <time>2022-03-12T10:35:32.000Z</time>
      </trkpt>
      <trkpt lat="43.67246" lon="7.05915">
        <ele>254.39999389648</ele>
        <time>2022-03-12T10:35:34.000Z</time>
      </trkpt>
      <trkpt lat="43.67256" lon="7.05918">
        <ele>253.60000610352</ele>
        <time>2022-03-12T10:35:36.000Z</time>
      </trkpt>
      <trkpt lat="43.67262" lon="7.05918">
        <ele>253.19999694824</ele>
        <time>2022-03-12T10:35:37.000Z</time>
      </trkpt>
      <trkpt lat="43.67267" lon="7.05918">
        <ele>252.80000305176</ele>
        <time>2022-03-12T10:35:38.000Z</time>
      </trkpt>
      <trkpt lat="43.67281" lon="7.05915">
        <ele>252.39999389648</ele>
        <time>2022-03-12T10:35:41.000Z</time>
      </trkpt>
      <trkpt lat="43.67304" lon="7.0591">
        <ele>252.19999694824</ele>
        <time>2022-03-12T10:35:46.000Z</time>
      </trkpt>
      <trkpt lat="43.67308" lon="7.0591">
        <ele>252.19999694824</ele>
        <time>2022-03-12T10:35:47.000Z</time>
      </trkpt>
      <trkpt lat="43.67328" lon="7.05909">
        <ele>253.19999694824</ele>
        <time>2022-03-12T10:35:52.000Z</time>
      </trkpt>
      <trkpt lat="43.67332" lon="7.0591">
        <ele>253.19999694824</ele>
        <time>2022-03-12T10:35:53.000Z</time>
      </trkpt>
      <trkpt lat="43.67352" lon="7.05913">
        <ele>253.60000610352</ele>
        <time>2022-03-12T10:35:59.000Z</time>
      </trkpt>
      <trkpt lat="43.67358" lon="7.05911">
        <ele>254.19999694824</ele>
        <time>2022-03-12T10:36:03.000Z</time>
      </trkpt>
      <trkpt lat="43.67366" lon="7.05906">
        <ele>255.19999694824</ele>
        <time>2022-03-12T10:36:06.000Z</time>
      </trkpt>
      <trkpt lat="43.67371" lon="7.05902">
        <ele>255.80000305176</ele>
        <time>2022-03-12T10:36:08.000Z</time>
      </trkpt>
      <trkpt lat="43.67376" lon="7.05901">
        <ele>256.39999389648</ele>
        <time>2022-03-12T10:36:10.000Z</time>
      </trkpt>
      <trkpt lat="43.67383" lon="7.05901">
        <ele>257</ele>
        <time>2022-03-12T10:36:12.000Z</time>
      </trkpt>
      <trkpt lat="43.67389" lon="7.05901">
        <ele>257.39999389648</ele>
        <time>2022-03-12T10:36:14.000Z</time>
      </trkpt>
      <trkpt lat="43.67397" lon="7.05901">
        <ele>257.39999389648</ele>
        <time>2022-03-12T10:36:17.000Z</time>
      </trkpt>
      <trkpt lat="43.67405" lon="7.05906">
        <ele>257.60000610352</ele>
        <time>2022-03-12T10:36:21.000Z</time>
      </trkpt>
      <trkpt lat="43.67413" lon="7.05922">
        <ele>257.60000610352</ele>
        <time>2022-03-12T10:36:25.000Z</time>
      </trkpt>
      <trkpt lat="43.67426" lon="7.05935">
        <ele>258.60000610352</ele>
        <time>2022-03-12T10:36:29.000Z</time>
      </trkpt>
      <trkpt lat="43.6743" lon="7.05937">
        <ele>258.60000610352</ele>
        <time>2022-03-12T10:36:30.000Z</time>
      </trkpt>
      <trkpt lat="43.67438" lon="7.0594">
        <ele>258.20001220703</ele>
        <time>2022-03-12T10:36:32.000Z</time>
      </trkpt>
      <trkpt lat="43.67446" lon="7.05942">
        <ele>257.60000610352</ele>
        <time>2022-03-12T10:36:34.000Z</time>
      </trkpt>
      <trkpt lat="43.67457" lon="7.05949">
        <ele>257</ele>
        <time>2022-03-12T10:36:37.000Z</time>
      </trkpt>
      <trkpt lat="43.67461" lon="7.05952">
        <ele>257.20001220703</ele>
        <time>2022-03-12T10:36:38.000Z</time>
      </trkpt>
      <trkpt lat="43.67474" lon="7.05959">
        <ele>257.20001220703</ele>
        <time>2022-03-12T10:36:42.000Z</time>
      </trkpt>
      <trkpt lat="43.67486" lon="7.05963">
        <ele>256.60000610352</ele>
        <time>2022-03-12T10:36:45.000Z</time>
      </trkpt>
      <trkpt lat="43.6749" lon="7.05966">
        <ele>256.20001220703</ele>
        <time>2022-03-12T10:36:46.000Z</time>
      </trkpt>
      <trkpt lat="43.67495" lon="7.05969">
        <ele>256</ele>
        <time>2022-03-12T10:36:47.000Z</time>
      </trkpt>
      <trkpt lat="43.67508" lon="7.05978">
        <ele>255.19999694824</ele>
        <time>2022-03-12T10:36:50.000Z</time>
      </trkpt>
      <trkpt lat="43.67518" lon="7.05972">
        <ele>253.80000305176</ele>
        <time>2022-03-12T10:36:53.000Z</time>
      </trkpt>
      <trkpt lat="43.67518" lon="7.05954">
        <ele>253</ele>
        <time>2022-03-12T10:36:56.000Z</time>
      </trkpt>
      <trkpt lat="43.67519" lon="7.0595">
        <ele>252.80000305176</ele>
        <time>2022-03-12T10:36:57.000Z</time>
      </trkpt>
      <trkpt lat="43.67527" lon="7.05947">
        <ele>253</ele>
        <time>2022-03-12T10:36:59.000Z</time>
      </trkpt>
      <trkpt lat="43.67537" lon="7.05949">
        <ele>253.39999389648</ele>
        <time>2022-03-12T10:37:02.000Z</time>
      </trkpt>
      <trkpt lat="43.67542" lon="7.0595">
        <ele>253.80000305176</ele>
        <time>2022-03-12T10:37:03.000Z</time>
      </trkpt>
      <trkpt lat="43.67545" lon="7.05949">
        <ele>254</ele>
        <time>2022-03-12T10:37:04.000Z</time>
      </trkpt>
      <trkpt lat="43.67551" lon="7.05945">
        <ele>254.19999694824</ele>
        <time>2022-03-12T10:37:06.000Z</time>
      </trkpt>
      <trkpt lat="43.67569" lon="7.05938">
        <ele>254.60000610352</ele>
        <time>2022-03-12T10:37:11.000Z</time>
      </trkpt>
      <trkpt lat="43.67579" lon="7.05941">
        <ele>254.60000610352</ele>
        <time>2022-03-12T10:37:13.000Z</time>
      </trkpt>
      <trkpt lat="43.67583" lon="7.05944">
        <ele>254.39999389648</ele>
        <time>2022-03-12T10:37:14.000Z</time>
      </trkpt>
      <trkpt lat="43.6759" lon="7.0596">
        <ele>253.19999694824</ele>
        <time>2022-03-12T10:37:18.000Z</time>
      </trkpt>
      <trkpt lat="43.67595" lon="7.05968">
        <ele>252.60000610352</ele>
        <time>2022-03-12T10:37:20.000Z</time>
      </trkpt>
      <trkpt lat="43.67599" lon="7.05969">
        <ele>252.19999694824</ele>
        <time>2022-03-12T10:37:21.000Z</time>
      </trkpt>
      <trkpt lat="43.6761" lon="7.05975">
        <ele>251.19999694824</ele>
        <time>2022-03-12T10:37:23.000Z</time>
      </trkpt>
      <trkpt lat="43.67622" lon="7.0598">
        <ele>250.19999694824</ele>
        <time>2022-03-12T10:37:25.000Z</time>
      </trkpt>
      <trkpt lat="43.67644" lon="7.05987">
        <ele>248.80000305176</ele>
        <time>2022-03-12T10:37:29.000Z</time>
      </trkpt>
      <trkpt lat="43.67654" lon="7.05991">
        <ele>247.80000305176</ele>
        <time>2022-03-12T10:37:31.000Z</time>
      </trkpt>
      <trkpt lat="43.67659" lon="7.05992">
        <ele>247.19999694824</ele>
        <time>2022-03-12T10:37:32.000Z</time>
      </trkpt>
      <trkpt lat="43.67665" lon="7.05994">
        <ele>246.80000305176</ele>
        <time>2022-03-12T10:37:33.000Z</time>
      </trkpt>
      <trkpt lat="43.67675" lon="7.05998">
        <ele>245.60000610352</ele>
        <time>2022-03-12T10:37:35.000Z</time>
      </trkpt>
      <trkpt lat="43.67681" lon="7.05997">
        <ele>245.39999389648</ele>
        <time>2022-03-12T10:37:36.000Z</time>
      </trkpt>
      <trkpt lat="43.67687" lon="7.05997">
        <ele>244.80000305176</ele>
        <time>2022-03-12T10:37:37.000Z</time>
      </trkpt>
      <trkpt lat="43.67692" lon="7.05996">
        <ele>244.19999694824</ele>
        <time>2022-03-12T10:37:38.000Z</time>
      </trkpt>
      <trkpt lat="43.67699" lon="7.05994">
        <ele>243.60000610352</ele>
        <time>2022-03-12T10:37:40.000Z</time>
      </trkpt>
      <trkpt lat="43.67701" lon="7.05994">
        <ele>243.60000610352</ele>
        <time>2022-03-12T10:37:43.000Z</time>
      </trkpt>
      <trkpt lat="43.67705" lon="7.05995">
        <ele>244.80000305176</ele>
        <time>2022-03-12T10:37:54.000Z</time>
      </trkpt>
      <trkpt lat="43.67707" lon="7.05996">
        <ele>244.60000610352</ele>
        <time>2022-03-12T10:38:05.000Z</time>
      </trkpt>
      <trkpt lat="43.6771" lon="7.06">
        <ele>244.60000610352</ele>
        <time>2022-03-12T10:38:11.000Z</time>
      </trkpt>
      <trkpt lat="43.67709" lon="7.06003">
        <ele>244.60000610352</ele>
        <time>2022-03-12T10:38:12.000Z</time>
      </trkpt>
      <trkpt lat="43.67708" lon="7.06017">
        <ele>244.39999389648</ele>
        <time>2022-03-12T10:38:16.000Z</time>
      </trkpt>
      <trkpt lat="43.67703" lon="7.06034">
        <ele>243.39999389648</ele>
        <time>2022-03-12T10:38:19.000Z</time>
      </trkpt>
      <trkpt lat="43.67701" lon="7.06039">
        <ele>243</ele>
        <time>2022-03-12T10:38:20.000Z</time>
      </trkpt>
      <trkpt lat="43.67699" lon="7.0605">
        <ele>242.60000610352</ele>
        <time>2022-03-12T10:38:22.000Z</time>
      </trkpt>
      <trkpt lat="43.67692" lon="7.06073">
        <ele>242</ele>
        <time>2022-03-12T10:38:26.000Z</time>
      </trkpt>
      <trkpt lat="43.67691" lon="7.06079">
        <ele>242</ele>
        <time>2022-03-12T10:38:27.000Z</time>
      </trkpt>
      <trkpt lat="43.67687" lon="7.06104">
        <ele>241.39999389648</ele>
        <time>2022-03-12T10:38:31.000Z</time>
      </trkpt>
      <trkpt lat="43.67684" lon="7.06115">
        <ele>241.39999389648</ele>
        <time>2022-03-12T10:38:33.000Z</time>
      </trkpt>
      <trkpt lat="43.67679" lon="7.06131">
        <ele>242</ele>
        <time>2022-03-12T10:38:36.000Z</time>
      </trkpt>
      <trkpt lat="43.67673" lon="7.06149">
        <ele>242.60000610352</ele>
        <time>2022-03-12T10:38:39.000Z</time>
      </trkpt>
      <trkpt lat="43.67668" lon="7.0616">
        <ele>242.80000305176</ele>
        <time>2022-03-12T10:38:41.000Z</time>
      </trkpt>
      <trkpt lat="43.67666" lon="7.06165">
        <ele>242.80000305176</ele>
        <time>2022-03-12T10:38:42.000Z</time>
      </trkpt>
      <trkpt lat="43.67662" lon="7.06188">
        <ele>242.80000305176</ele>
        <time>2022-03-12T10:38:46.000Z</time>
      </trkpt>
      <trkpt lat="43.67659" lon="7.06198">
        <ele>243</ele>
        <time>2022-03-12T10:38:48.000Z</time>
      </trkpt>
      <trkpt lat="43.67653" lon="7.06211">
        <ele>243.60000610352</ele>
        <time>2022-03-12T10:38:51.000Z</time>
      </trkpt>
      <trkpt lat="43.67645" lon="7.0623">
        <ele>244.19999694824</ele>
        <time>2022-03-12T10:38:56.000Z</time>
      </trkpt>
      <trkpt lat="43.67636" lon="7.06246">
        <ele>244.80000305176</ele>
        <time>2022-03-12T10:39:01.000Z</time>
      </trkpt>
      <trkpt lat="43.67631" lon="7.06261">
        <ele>245</ele>
        <time>2022-03-12T10:39:05.000Z</time>
      </trkpt>
      <trkpt lat="43.67627" lon="7.06276">
        <ele>244.80000305176</ele>
        <time>2022-03-12T10:39:10.000Z</time>
      </trkpt>
      <trkpt lat="43.67628" lon="7.06279">
        <ele>244.80000305176</ele>
        <time>2022-03-12T10:39:11.000Z</time>
      </trkpt>
      <trkpt lat="43.67632" lon="7.06285">
        <ele>244.80000305176</ele>
        <time>2022-03-12T10:39:14.000Z</time>
      </trkpt>
      <trkpt lat="43.67633" lon="7.06289">
        <ele>243.80000305176</ele>
        <time>2022-03-12T10:39:18.000Z</time>
      </trkpt>
      <trkpt lat="43.67633" lon="7.06289">
        <ele>243.60000610352</ele>
        <time>2022-03-12T10:39:24.000Z</time>
      </trkpt>
      <trkpt lat="43.67633" lon="7.0629">
        <ele>244.39999389648</ele>
        <time>2022-03-12T10:39:29.000Z</time>
      </trkpt>
      <trkpt lat="43.67634" lon="7.0629">
        <ele>244</ele>
        <time>2022-03-12T10:39:36.000Z</time>
      </trkpt>
      <trkpt lat="43.67636" lon="7.06291">
        <ele>243.60000610352</ele>
        <time>2022-03-12T10:39:44.000Z</time>
      </trkpt>
      <trkpt lat="43.67635" lon="7.06284">
        <ele>243.80000305176</ele>
        <time>2022-03-12T10:39:48.000Z</time>
      </trkpt>
      <trkpt lat="43.67634" lon="7.06284">
        <ele>244.80000305176</ele>
        <time>2022-03-12T10:39:56.000Z</time>
      </trkpt>
      <trkpt lat="43.67633" lon="7.06284">
        <ele>244.60000610352</ele>
        <time>2022-03-12T10:40:01.000Z</time>
      </trkpt>
      <trkpt lat="43.67632" lon="7.06281">
        <ele>244.60000610352</ele>
        <time>2022-03-12T10:40:05.000Z</time>
      </trkpt>
      <trkpt lat="43.67631" lon="7.06278">
        <ele>244.80000305176</ele>
        <time>2022-03-12T10:40:07.000Z</time>
      </trkpt>
      <trkpt lat="43.67631" lon="7.06274">
        <ele>245</ele>
        <time>2022-03-12T10:40:09.000Z</time>
      </trkpt>
      <trkpt lat="43.67632" lon="7.06265">
        <ele>245.19999694824</ele>
        <time>2022-03-12T10:40:12.000Z</time>
      </trkpt>
      <trkpt lat="43.67632" lon="7.06262">
        <ele>245.19999694824</ele>
        <time>2022-03-12T10:40:13.000Z</time>
      </trkpt>
      <trkpt lat="43.67638" lon="7.06251">
        <ele>245.60000610352</ele>
        <time>2022-03-12T10:40:17.000Z</time>
      </trkpt>
      <trkpt lat="43.67646" lon="7.06237">
        <ele>245.60000610352</ele>
        <time>2022-03-12T10:40:21.000Z</time>
      </trkpt>
      <trkpt lat="43.67659" lon="7.06207">
        <ele>244.60000610352</ele>
        <time>2022-03-12T10:40:27.000Z</time>
      </trkpt>
      <trkpt lat="43.67662" lon="7.06197">
        <ele>244</ele>
        <time>2022-03-12T10:40:29.000Z</time>
      </trkpt>
      <trkpt lat="43.67665" lon="7.06178">
        <ele>243.60000610352</ele>
        <time>2022-03-12T10:40:32.000Z</time>
      </trkpt>
      <trkpt lat="43.67668" lon="7.06166">
        <ele>243.19999694824</ele>
        <time>2022-03-12T10:40:34.000Z</time>
      </trkpt>
      <trkpt lat="43.67671" lon="7.06162">
        <ele>243</ele>
        <time>2022-03-12T10:40:35.000Z</time>
      </trkpt>
      <trkpt lat="43.67673" lon="7.06156">
        <ele>242.80000305176</ele>
        <time>2022-03-12T10:40:36.000Z</time>
      </trkpt>
      <trkpt lat="43.67678" lon="7.06141">
        <ele>242.80000305176</ele>
        <time>2022-03-12T10:40:39.000Z</time>
      </trkpt>
      <trkpt lat="43.67681" lon="7.06131">
        <ele>242.80000305176</ele>
        <time>2022-03-12T10:40:41.000Z</time>
      </trkpt>
      <trkpt lat="43.67683" lon="7.06125">
        <ele>242.80000305176</ele>
        <time>2022-03-12T10:40:42.000Z</time>
      </trkpt>
      <trkpt lat="43.67689" lon="7.06092">
        <ele>242.39999389648</ele>
        <time>2022-03-12T10:40:47.000Z</time>
      </trkpt>
      <trkpt lat="43.67692" lon="7.06078">
        <ele>241.80000305176</ele>
        <time>2022-03-12T10:40:49.000Z</time>
      </trkpt>
      <trkpt lat="43.677" lon="7.06041">
        <ele>242</ele>
        <time>2022-03-12T10:40:55.000Z</time>
      </trkpt>
      <trkpt lat="43.67703" lon="7.0603">
        <ele>242</ele>
        <time>2022-03-12T10:40:57.000Z</time>
      </trkpt>
      <trkpt lat="43.67705" lon="7.06015">
        <ele>242.39999389648</ele>
        <time>2022-03-12T10:41:00.000Z</time>
      </trkpt>
      <trkpt lat="43.67706" lon="7.06006">
        <ele>243</ele>
        <time>2022-03-12T10:41:03.000Z</time>
      </trkpt>
      <trkpt lat="43.67706" lon="7.06004">
        <ele>243.39999389648</ele>
        <time>2022-03-12T10:41:04.000Z</time>
      </trkpt>
      <trkpt lat="43.67707" lon="7.06002">
        <ele>243.80000305176</ele>
        <time>2022-03-12T10:41:05.000Z</time>
      </trkpt>
      <trkpt lat="43.6771" lon="7.06">
        <ele>244.19999694824</ele>
        <time>2022-03-12T10:41:06.000Z</time>
      </trkpt>
      <trkpt lat="43.67716" lon="7.05996">
        <ele>244.60000610352</ele>
        <time>2022-03-12T10:41:08.000Z</time>
      </trkpt>
      <trkpt lat="43.67723" lon="7.05991">
        <ele>244.39999389648</ele>
        <time>2022-03-12T10:41:10.000Z</time>
      </trkpt>
      <trkpt lat="43.67731" lon="7.05995">
        <ele>244.19999694824</ele>
        <time>2022-03-12T10:41:12.000Z</time>
      </trkpt>
      <trkpt lat="43.67743" lon="7.05996">
        <ele>243.60000610352</ele>
        <time>2022-03-12T10:41:15.000Z</time>
      </trkpt>
      <trkpt lat="43.67762" lon="7.05992">
        <ele>243</ele>
        <time>2022-03-12T10:41:19.000Z</time>
      </trkpt>
      <trkpt lat="43.67765" lon="7.05993">
        <ele>242.80000305176</ele>
        <time>2022-03-12T10:41:20.000Z</time>
      </trkpt>
      <trkpt lat="43.67772" lon="7.05991">
        <ele>243</ele>
        <time>2022-03-12T10:41:22.000Z</time>
      </trkpt>
      <trkpt lat="43.67775" lon="7.05988">
        <ele>242.80000305176</ele>
        <time>2022-03-12T10:41:23.000Z</time>
      </trkpt>
      <trkpt lat="43.67783" lon="7.0598">
        <ele>242.39999389648</ele>
        <time>2022-03-12T10:41:25.000Z</time>
      </trkpt>
      <trkpt lat="43.67792" lon="7.05975">
        <ele>241.80000305176</ele>
        <time>2022-03-12T10:41:27.000Z</time>
      </trkpt>
      <trkpt lat="43.67796" lon="7.05974">
        <ele>241.60000610352</ele>
        <time>2022-03-12T10:41:28.000Z</time>
      </trkpt>
      <trkpt lat="43.67807" lon="7.05968">
        <ele>240.80000305176</ele>
        <time>2022-03-12T10:41:31.000Z</time>
      </trkpt>
      <trkpt lat="43.6781" lon="7.05966">
        <ele>241</ele>
        <time>2022-03-12T10:41:32.000Z</time>
      </trkpt>
      <trkpt lat="43.67818" lon="7.0596">
        <ele>240.80000305176</ele>
        <time>2022-03-12T10:41:34.000Z</time>
      </trkpt>
      <trkpt lat="43.67826" lon="7.05955">
        <ele>240.80000305176</ele>
        <time>2022-03-12T10:41:36.000Z</time>
      </trkpt>
      <trkpt lat="43.67842" lon="7.05957">
        <ele>240.60000610352</ele>
        <time>2022-03-12T10:41:40.000Z</time>
      </trkpt>
      <trkpt lat="43.67855" lon="7.05961">
        <ele>240.80000305176</ele>
        <time>2022-03-12T10:41:44.000Z</time>
      </trkpt>
      <trkpt lat="43.67871" lon="7.05957">
        <ele>241.19999694824</ele>
        <time>2022-03-12T10:41:48.000Z</time>
      </trkpt>
      <trkpt lat="43.67876" lon="7.05954">
        <ele>240.80000305176</ele>
        <time>2022-03-12T10:41:49.000Z</time>
      </trkpt>
      <trkpt lat="43.67887" lon="7.05942">
        <ele>239.80000305176</ele>
        <time>2022-03-12T10:41:52.000Z</time>
      </trkpt>
      <trkpt lat="43.67895" lon="7.05933">
        <ele>239.39999389648</ele>
        <time>2022-03-12T10:41:54.000Z</time>
      </trkpt>
      <trkpt lat="43.67899" lon="7.05929">
        <ele>238.80000305176</ele>
        <time>2022-03-12T10:41:55.000Z</time>
      </trkpt>
      <trkpt lat="43.67905" lon="7.05924">
        <ele>238.60000610352</ele>
        <time>2022-03-12T10:41:56.000Z</time>
      </trkpt>
      <trkpt lat="43.67914" lon="7.05916">
        <ele>237.80000305176</ele>
        <time>2022-03-12T10:41:58.000Z</time>
      </trkpt>
      <trkpt lat="43.67918" lon="7.05913">
        <ele>237.39999389648</ele>
        <time>2022-03-12T10:41:59.000Z</time>
      </trkpt>
      <trkpt lat="43.67925" lon="7.05907">
        <ele>236.19999694824</ele>
        <time>2022-03-12T10:42:01.000Z</time>
      </trkpt>
      <trkpt lat="43.67927" lon="7.05907">
        <ele>235.60000610352</ele>
        <time>2022-03-12T10:42:04.000Z</time>
      </trkpt>
      <trkpt lat="43.67929" lon="7.05905">
        <ele>235.80000305176</ele>
        <time>2022-03-12T10:42:12.000Z</time>
      </trkpt>
      <trkpt lat="43.67931" lon="7.05905">
        <ele>236</ele>
        <time>2022-03-12T10:42:15.000Z</time>
      </trkpt>
      <trkpt lat="43.67933" lon="7.05909">
        <ele>236.19999694824</ele>
        <time>2022-03-12T10:42:18.000Z</time>
      </trkpt>
      <trkpt lat="43.67934" lon="7.05911">
        <ele>236.19999694824</ele>
        <time>2022-03-12T10:42:19.000Z</time>
      </trkpt>
      <trkpt lat="43.67937" lon="7.05922">
        <ele>236.60000610352</ele>
        <time>2022-03-12T10:42:24.000Z</time>
      </trkpt>
      <trkpt lat="43.67939" lon="7.05928">
        <ele>237</ele>
        <time>2022-03-12T10:42:30.000Z</time>
      </trkpt>
      <trkpt lat="43.67941" lon="7.05935">
        <ele>236.60000610352</ele>
        <time>2022-03-12T10:42:39.000Z</time>
      </trkpt>
      <trkpt lat="43.67946" lon="7.05953">
        <ele>237</ele>
        <time>2022-03-12T10:42:44.000Z</time>
      </trkpt>
      <trkpt lat="43.67948" lon="7.05958">
        <ele>237.60000610352</ele>
        <time>2022-03-12T10:42:46.000Z</time>
      </trkpt>
      <trkpt lat="43.67948" lon="7.0596">
        <ele>238.19999694824</ele>
        <time>2022-03-12T10:42:49.000Z</time>
      </trkpt>
      <trkpt lat="43.67948" lon="7.0596">
        <ele>238.19999694824</ele>
        <time>2022-03-12T10:42:57.000Z</time>
      </trkpt>
      <trkpt lat="43.67949" lon="7.0596">
        <ele>238.60000610352</ele>
        <time>2022-03-12T10:43:10.000Z</time>
      </trkpt>
      <trkpt lat="43.67949" lon="7.0596">
        <ele>238.60000610352</ele>
        <time>2022-03-12T10:43:11.000Z</time>
      </trkpt>
      <trkpt lat="43.67949" lon="7.05963">
        <ele>238.80000305176</ele>
        <time>2022-03-12T10:43:19.000Z</time>
      </trkpt>
      <trkpt lat="43.67953" lon="7.0598">
        <ele>239</ele>
        <time>2022-03-12T10:43:25.000Z</time>
      </trkpt>
      <trkpt lat="43.67951" lon="7.05997">
        <ele>238.80000305176</ele>
        <time>2022-03-12T10:43:29.000Z</time>
      </trkpt>
      <trkpt lat="43.67951" lon="7.0601">
        <ele>239</ele>
        <time>2022-03-12T10:43:32.000Z</time>
      </trkpt>
      <trkpt lat="43.67955" lon="7.06019">
        <ele>239.19999694824</ele>
        <time>2022-03-12T10:43:34.000Z</time>
      </trkpt>
      <trkpt lat="43.67958" lon="7.06028">
        <ele>239.80000305176</ele>
        <time>2022-03-12T10:43:36.000Z</time>
      </trkpt>
      <trkpt lat="43.67967" lon="7.06041">
        <ele>240.39999389648</ele>
        <time>2022-03-12T10:43:39.000Z</time>
      </trkpt>
      <trkpt lat="43.67977" lon="7.06066">
        <ele>240.39999389648</ele>
        <time>2022-03-12T10:43:44.000Z</time>
      </trkpt>
      <trkpt lat="43.67984" lon="7.06085">
        <ele>240.39999389648</ele>
        <time>2022-03-12T10:43:48.000Z</time>
      </trkpt>
      <trkpt lat="43.67988" lon="7.06095">
        <ele>240.60000610352</ele>
        <time>2022-03-12T10:43:50.000Z</time>
      </trkpt>
      <trkpt lat="43.67991" lon="7.06106">
        <ele>241</ele>
        <time>2022-03-12T10:43:52.000Z</time>
      </trkpt>
      <trkpt lat="43.67997" lon="7.06122">
        <ele>241.60000610352</ele>
        <time>2022-03-12T10:43:56.000Z</time>
      </trkpt>
      <trkpt lat="43.67998" lon="7.06126">
        <ele>242</ele>
        <time>2022-03-12T10:43:59.000Z</time>
      </trkpt>
      <trkpt lat="43.67998" lon="7.06128">
        <ele>242.19999694824</ele>
        <time>2022-03-12T10:44:00.000Z</time>
      </trkpt>
      <trkpt lat="43.68002" lon="7.06137">
        <ele>243</ele>
        <time>2022-03-12T10:44:04.000Z</time>
      </trkpt>
      <trkpt lat="43.68003" lon="7.0614">
        <ele>243</ele>
        <time>2022-03-12T10:44:05.000Z</time>
      </trkpt>
      <trkpt lat="43.68009" lon="7.06153">
        <ele>243.60000610352</ele>
        <time>2022-03-12T10:44:09.000Z</time>
      </trkpt>
      <trkpt lat="43.68019" lon="7.0617">
        <ele>244</ele>
        <time>2022-03-12T10:44:14.000Z</time>
      </trkpt>
      <trkpt lat="43.68024" lon="7.06176">
        <ele>244.19999694824</ele>
        <time>2022-03-12T10:44:16.000Z</time>
      </trkpt>
      <trkpt lat="43.68027" lon="7.06181">
        <ele>245.19999694824</ele>
        <time>2022-03-12T10:44:19.000Z</time>
      </trkpt>
      <trkpt lat="43.68028" lon="7.06182">
        <ele>245.39999389648</ele>
        <time>2022-03-12T10:44:20.000Z</time>
      </trkpt>
      <trkpt lat="43.68031" lon="7.06185">
        <ele>245.60000610352</ele>
        <time>2022-03-12T10:44:26.000Z</time>
      </trkpt>
      <trkpt lat="43.68037" lon="7.0619">
        <ele>245.80000305176</ele>
        <time>2022-03-12T10:44:37.000Z</time>
      </trkpt>
      <trkpt lat="43.68046" lon="7.06202">
        <ele>246</ele>
        <time>2022-03-12T10:44:41.000Z</time>
      </trkpt>
      <trkpt lat="43.68049" lon="7.06208">
        <ele>246.60000610352</ele>
        <time>2022-03-12T10:44:43.000Z</time>
      </trkpt>
      <trkpt lat="43.68053" lon="7.06217">
        <ele>247.80000305176</ele>
        <time>2022-03-12T10:44:46.000Z</time>
      </trkpt>
      <trkpt lat="43.68054" lon="7.06236">
        <ele>249</ele>
        <time>2022-03-12T10:44:50.000Z</time>
      </trkpt>
      <trkpt lat="43.68055" lon="7.06249">
        <ele>250.39999389648</ele>
        <time>2022-03-12T10:44:53.000Z</time>
      </trkpt>
      <trkpt lat="43.68059" lon="7.06256">
        <ele>251.80000305176</ele>
        <time>2022-03-12T10:44:55.000Z</time>
      </trkpt>
      <trkpt lat="43.68063" lon="7.06262">
        <ele>252.80000305176</ele>
        <time>2022-03-12T10:44:57.000Z</time>
      </trkpt>
      <trkpt lat="43.6807" lon="7.06268">
        <ele>254</ele>
        <time>2022-03-12T10:45:00.000Z</time>
      </trkpt>
      <trkpt lat="43.68078" lon="7.06276">
        <ele>255.19999694824</ele>
        <time>2022-03-12T10:45:03.000Z</time>
      </trkpt>
      <trkpt lat="43.68082" lon="7.06282">
        <ele>255.60000610352</ele>
        <time>2022-03-12T10:45:05.000Z</time>
      </trkpt>
      <trkpt lat="43.68092" lon="7.06297">
        <ele>255.80000305176</ele>
        <time>2022-03-12T10:45:10.000Z</time>
      </trkpt>
      <trkpt lat="43.68109" lon="7.06308">
        <ele>255</ele>
        <time>2022-03-12T10:45:16.000Z</time>
      </trkpt>
      <trkpt lat="43.68124" lon="7.06322">
        <ele>254.39999389648</ele>
        <time>2022-03-12T10:45:21.000Z</time>
      </trkpt>
      <trkpt lat="43.68126" lon="7.06336">
        <ele>254.39999389648</ele>
        <time>2022-03-12T10:45:24.000Z</time>
      </trkpt>
      <trkpt lat="43.68125" lon="7.06339">
        <ele>254.39999389648</ele>
        <time>2022-03-12T10:45:25.000Z</time>
      </trkpt>
      <trkpt lat="43.68119" lon="7.06344">
        <ele>255</ele>
        <time>2022-03-12T10:45:27.000Z</time>
      </trkpt>
      <trkpt lat="43.68112" lon="7.06359">
        <ele>256.20001220703</ele>
        <time>2022-03-12T10:45:31.000Z</time>
      </trkpt>
      <trkpt lat="43.68112" lon="7.06363">
        <ele>256.60000610352</ele>
        <time>2022-03-12T10:45:32.000Z</time>
      </trkpt>
      <trkpt lat="43.6811" lon="7.06372">
        <ele>257.60000610352</ele>
        <time>2022-03-12T10:45:34.000Z</time>
      </trkpt>
      <trkpt lat="43.68111" lon="7.06375">
        <ele>258</ele>
        <time>2022-03-12T10:45:35.000Z</time>
      </trkpt>
      <trkpt lat="43.68109" lon="7.06396">
        <ele>258</ele>
        <time>2022-03-12T10:45:39.000Z</time>
      </trkpt>
      <trkpt lat="43.68103" lon="7.06418">
        <ele>259</ele>
        <time>2022-03-12T10:45:44.000Z</time>
      </trkpt>
      <trkpt lat="43.68098" lon="7.0643">
        <ele>259.60000610352</ele>
        <time>2022-03-12T10:45:47.000Z</time>
      </trkpt>
      <trkpt lat="43.68093" lon="7.06437">
        <ele>259.79998779297</ele>
        <time>2022-03-12T10:45:49.000Z</time>
      </trkpt>
      <trkpt lat="43.6809" lon="7.06445">
        <ele>259.79998779297</ele>
        <time>2022-03-12T10:45:53.000Z</time>
      </trkpt>
      <trkpt lat="43.68089" lon="7.06451">
        <ele>260</ele>
        <time>2022-03-12T10:45:55.000Z</time>
      </trkpt>
      <trkpt lat="43.68088" lon="7.0646">
        <ele>260</ele>
        <time>2022-03-12T10:45:57.000Z</time>
      </trkpt>
      <trkpt lat="43.68085" lon="7.06487">
        <ele>259.39999389648</ele>
        <time>2022-03-12T10:46:03.000Z</time>
      </trkpt>
      <trkpt lat="43.68074" lon="7.06509">
        <ele>259.39999389648</ele>
        <time>2022-03-12T10:46:08.000Z</time>
      </trkpt>
      <trkpt lat="43.68062" lon="7.06532">
        <ele>259.79998779297</ele>
        <time>2022-03-12T10:46:14.000Z</time>
      </trkpt>
      <trkpt lat="43.68053" lon="7.06556">
        <ele>259</ele>
        <time>2022-03-12T10:46:19.000Z</time>
      </trkpt>
      <trkpt lat="43.68042" lon="7.06589">
        <ele>258.79998779297</ele>
        <time>2022-03-12T10:46:25.000Z</time>
      </trkpt>
      <trkpt lat="43.68032" lon="7.06609">
        <ele>258</ele>
        <time>2022-03-12T10:46:28.000Z</time>
      </trkpt>
      <trkpt lat="43.6803" lon="7.06613">
        <ele>257.60000610352</ele>
        <time>2022-03-12T10:46:29.000Z</time>
      </trkpt>
      <trkpt lat="43.68026" lon="7.06617">
        <ele>257</ele>
        <time>2022-03-12T10:46:30.000Z</time>
      </trkpt>
      <trkpt lat="43.68022" lon="7.06619">
        <ele>255.60000610352</ele>
        <time>2022-03-12T10:46:31.000Z</time>
      </trkpt>
      <trkpt lat="43.6802" lon="7.06623">
        <ele>255.19999694824</ele>
        <time>2022-03-12T10:46:32.000Z</time>
      </trkpt>
      <trkpt lat="43.68018" lon="7.06626">
        <ele>254.39999389648</ele>
        <time>2022-03-12T10:46:34.000Z</time>
      </trkpt>
      <trkpt lat="43.68018" lon="7.06625">
        <ele>254.39999389648</ele>
        <time>2022-03-12T10:46:35.000Z</time>
      </trkpt>
      <trkpt lat="43.68016" lon="7.06626">
        <ele>254.19999694824</ele>
        <time>2022-03-12T10:46:49.000Z</time>
      </trkpt>
      <trkpt lat="43.68017" lon="7.06628">
        <ele>254</ele>
        <time>2022-03-12T10:46:56.000Z</time>
      </trkpt>
      <trkpt lat="43.68018" lon="7.06636">
        <ele>254</ele>
        <time>2022-03-12T10:47:03.000Z</time>
      </trkpt>
      <trkpt lat="43.68025" lon="7.06656">
        <ele>253.80000305176</ele>
        <time>2022-03-12T10:47:07.000Z</time>
      </trkpt>
      <trkpt lat="43.68029" lon="7.06665">
        <ele>252.80000305176</ele>
        <time>2022-03-12T10:47:09.000Z</time>
      </trkpt>
      <trkpt lat="43.68032" lon="7.06669">
        <ele>251.60000610352</ele>
        <time>2022-03-12T10:47:10.000Z</time>
      </trkpt>
      <trkpt lat="43.68034" lon="7.06676">
        <ele>250.80000305176</ele>
        <time>2022-03-12T10:47:11.000Z</time>
      </trkpt>
      <trkpt lat="43.68035" lon="7.06682">
        <ele>250</ele>
        <time>2022-03-12T10:47:12.000Z</time>
      </trkpt>
      <trkpt lat="43.68039" lon="7.06691">
        <ele>249.39999389648</ele>
        <time>2022-03-12T10:47:14.000Z</time>
      </trkpt>
      <trkpt lat="43.68043" lon="7.06692">
        <ele>248.80000305176</ele>
        <time>2022-03-12T10:47:15.000Z</time>
      </trkpt>
      <trkpt lat="43.68051" lon="7.0669">
        <ele>247.60000610352</ele>
        <time>2022-03-12T10:47:17.000Z</time>
      </trkpt>
      <trkpt lat="43.68061" lon="7.06691">
        <ele>246.19999694824</ele>
        <time>2022-03-12T10:47:19.000Z</time>
      </trkpt>
      <trkpt lat="43.68064" lon="7.06692">
        <ele>246.19999694824</ele>
        <time>2022-03-12T10:47:20.000Z</time>
      </trkpt>
      <trkpt lat="43.6807" lon="7.06695">
        <ele>246</ele>
        <time>2022-03-12T10:47:21.000Z</time>
      </trkpt>
      <trkpt lat="43.6808" lon="7.06703">
        <ele>245.60000610352</ele>
        <time>2022-03-12T10:47:23.000Z</time>
      </trkpt>
      <trkpt lat="43.68084" lon="7.06708">
        <ele>245</ele>
        <time>2022-03-12T10:47:24.000Z</time>
      </trkpt>
      <trkpt lat="43.68097" lon="7.06712">
        <ele>243.39999389648</ele>
        <time>2022-03-12T10:47:27.000Z</time>
      </trkpt>
      <trkpt lat="43.6811" lon="7.06714">
        <ele>241.60000610352</ele>
        <time>2022-03-12T10:47:29.000Z</time>
      </trkpt>
      <trkpt lat="43.68121" lon="7.06714">
        <ele>240.19999694824</ele>
        <time>2022-03-12T10:47:31.000Z</time>
      </trkpt>
      <trkpt lat="43.68137" lon="7.06714">
        <ele>238.80000305176</ele>
        <time>2022-03-12T10:47:34.000Z</time>
      </trkpt>
      <trkpt lat="43.68147" lon="7.06718">
        <ele>237.19999694824</ele>
        <time>2022-03-12T10:47:36.000Z</time>
      </trkpt>
      <trkpt lat="43.6815" lon="7.06728">
        <ele>236</ele>
        <time>2022-03-12T10:47:38.000Z</time>
      </trkpt>
      <trkpt lat="43.68149" lon="7.06736">
        <ele>235.39999389648</ele>
        <time>2022-03-12T10:47:39.000Z</time>
      </trkpt>
      <trkpt lat="43.68149" lon="7.06742">
        <ele>234.80000305176</ele>
        <time>2022-03-12T10:47:40.000Z</time>
      </trkpt>
      <trkpt lat="43.68154" lon="7.06753">
        <ele>233.80000305176</ele>
        <time>2022-03-12T10:47:42.000Z</time>
      </trkpt>
      <trkpt lat="43.68155" lon="7.0676">
        <ele>233.19999694824</ele>
        <time>2022-03-12T10:47:43.000Z</time>
      </trkpt>
      <trkpt lat="43.68157" lon="7.06777">
        <ele>232.39999389648</ele>
        <time>2022-03-12T10:47:45.000Z</time>
      </trkpt>
      <trkpt lat="43.68156" lon="7.06785">
        <ele>232</ele>
        <time>2022-03-12T10:47:46.000Z</time>
      </trkpt>
      <trkpt lat="43.68152" lon="7.068">
        <ele>230</ele>
        <time>2022-03-12T10:47:48.000Z</time>
      </trkpt>
      <trkpt lat="43.6815" lon="7.06807">
        <ele>228.60000610352</ele>
        <time>2022-03-12T10:47:49.000Z</time>
      </trkpt>
      <trkpt lat="43.68148" lon="7.06813">
        <ele>227.19999694824</ele>
        <time>2022-03-12T10:47:50.000Z</time>
      </trkpt>
      <trkpt lat="43.68145" lon="7.0682">
        <ele>226</ele>
        <time>2022-03-12T10:47:51.000Z</time>
      </trkpt>
      <trkpt lat="43.6814" lon="7.06829">
        <ele>224</ele>
        <time>2022-03-12T10:47:53.000Z</time>
      </trkpt>
      <trkpt lat="43.68139" lon="7.06834">
        <ele>223</ele>
        <time>2022-03-12T10:47:54.000Z</time>
      </trkpt>
      <trkpt lat="43.68147" lon="7.06844">
        <ele>221.39999389648</ele>
        <time>2022-03-12T10:47:56.000Z</time>
      </trkpt>
      <trkpt lat="43.68152" lon="7.0685">
        <ele>220.80000305176</ele>
        <time>2022-03-12T10:47:57.000Z</time>
      </trkpt>
      <trkpt lat="43.68157" lon="7.06856">
        <ele>220</ele>
        <time>2022-03-12T10:47:58.000Z</time>
      </trkpt>
      <trkpt lat="43.68165" lon="7.06865">
        <ele>219.19999694824</ele>
        <time>2022-03-12T10:48:00.000Z</time>
      </trkpt>
      <trkpt lat="43.68171" lon="7.06866">
        <ele>218.60000610352</ele>
        <time>2022-03-12T10:48:01.000Z</time>
      </trkpt>
      <trkpt lat="43.68182" lon="7.06872">
        <ele>217</ele>
        <time>2022-03-12T10:48:03.000Z</time>
      </trkpt>
      <trkpt lat="43.68189" lon="7.06874">
        <ele>216.60000610352</ele>
        <time>2022-03-12T10:48:04.000Z</time>
      </trkpt>
      <trkpt lat="43.68195" lon="7.06875">
        <ele>215.80000305176</ele>
        <time>2022-03-12T10:48:05.000Z</time>
      </trkpt>
      <trkpt lat="43.68204" lon="7.06876">
        <ele>215.39999389648</ele>
        <time>2022-03-12T10:48:06.000Z</time>
      </trkpt>
      <trkpt lat="43.68211" lon="7.06877">
        <ele>214.39999389648</ele>
        <time>2022-03-12T10:48:07.000Z</time>
      </trkpt>
      <trkpt lat="43.68219" lon="7.06878">
        <ele>213.39999389648</ele>
        <time>2022-03-12T10:48:08.000Z</time>
      </trkpt>
      <trkpt lat="43.68226" lon="7.06878">
        <ele>212.19999694824</ele>
        <time>2022-03-12T10:48:09.000Z</time>
      </trkpt>
      <trkpt lat="43.6824" lon="7.06878">
        <ele>210.39999389648</ele>
        <time>2022-03-12T10:48:11.000Z</time>
      </trkpt>
      <trkpt lat="43.6825" lon="7.06875">
        <ele>208</ele>
        <time>2022-03-12T10:48:13.000Z</time>
      </trkpt>
      <trkpt lat="43.68254" lon="7.06876">
        <ele>207.19999694824</ele>
        <time>2022-03-12T10:48:14.000Z</time>
      </trkpt>
      <trkpt lat="43.68258" lon="7.06879">
        <ele>206.39999389648</ele>
        <time>2022-03-12T10:48:15.000Z</time>
      </trkpt>
      <trkpt lat="43.68262" lon="7.06882">
        <ele>205.80000305176</ele>
        <time>2022-03-12T10:48:16.000Z</time>
      </trkpt>
      <trkpt lat="43.68267" lon="7.06885">
        <ele>204.80000305176</ele>
        <time>2022-03-12T10:48:17.000Z</time>
      </trkpt>
      <trkpt lat="43.68275" lon="7.06887">
        <ele>204.39999389648</ele>
        <time>2022-03-12T10:48:18.000Z</time>
      </trkpt>
      <trkpt lat="43.68281" lon="7.0689">
        <ele>203.39999389648</ele>
        <time>2022-03-12T10:48:19.000Z</time>
      </trkpt>
      <trkpt lat="43.68293" lon="7.06892">
        <ele>201.39999389648</ele>
        <time>2022-03-12T10:48:21.000Z</time>
      </trkpt>
      <trkpt lat="43.68298" lon="7.06892">
        <ele>202.39999389648</ele>
        <time>2022-03-12T10:48:22.000Z</time>
      </trkpt>
      <trkpt lat="43.68303" lon="7.06895">
        <ele>201.80000305176</ele>
        <time>2022-03-12T10:48:23.000Z</time>
      </trkpt>
      <trkpt lat="43.68308" lon="7.06902">
        <ele>201.19999694824</ele>
        <time>2022-03-12T10:48:24.000Z</time>
      </trkpt>
      <trkpt lat="43.68312" lon="7.06918">
        <ele>200.39999389648</ele>
        <time>2022-03-12T10:48:27.000Z</time>
      </trkpt>
      <trkpt lat="43.68312" lon="7.06924">
        <ele>198.39999389648</ele>
        <time>2022-03-12T10:48:28.000Z</time>
      </trkpt>
      <trkpt lat="43.68315" lon="7.0693">
        <ele>197.19999694824</ele>
        <time>2022-03-12T10:48:31.000Z</time>
      </trkpt>
      <trkpt lat="43.68317" lon="7.06929">
        <ele>196</ele>
        <time>2022-03-12T10:48:34.000Z</time>
      </trkpt>
      <trkpt lat="43.68318" lon="7.06929">
        <ele>195.60000610352</ele>
        <time>2022-03-12T10:48:35.000Z</time>
      </trkpt>
      <trkpt lat="43.68318" lon="7.06928">
        <ele>194.80000305176</ele>
        <time>2022-03-12T10:48:38.000Z</time>
      </trkpt>
      <trkpt lat="43.68318" lon="7.06928">
        <ele>194</ele>
        <time>2022-03-12T10:48:43.000Z</time>
      </trkpt>
      <trkpt lat="43.68318" lon="7.06928">
        <ele>193.60000610352</ele>
        <time>2022-03-12T10:48:44.000Z</time>
      </trkpt>
      <trkpt lat="43.68319" lon="7.06927">
        <ele>192.60000610352</ele>
        <time>2022-03-12T10:48:51.000Z</time>
      </trkpt>
      <trkpt lat="43.68319" lon="7.06927">
        <ele>192.19999694824</ele>
        <time>2022-03-12T10:48:57.000Z</time>
      </trkpt>
      <trkpt lat="43.6832" lon="7.06926">
        <ele>192</ele>
        <time>2022-03-12T10:49:06.000Z</time>
      </trkpt>
      <trkpt lat="43.68328" lon="7.06919">
        <ele>192.80000305176</ele>
        <time>2022-03-12T10:49:11.000Z</time>
      </trkpt>
      <trkpt lat="43.68344" lon="7.06909">
        <ele>193</ele>
        <time>2022-03-12T10:49:17.000Z</time>
      </trkpt>
      <trkpt lat="43.68359" lon="7.06894">
        <ele>191.39999389648</ele>
        <time>2022-03-12T10:49:21.000Z</time>
      </trkpt>
      <trkpt lat="43.68364" lon="7.0689">
        <ele>191</ele>
        <time>2022-03-12T10:49:22.000Z</time>
      </trkpt>
      <trkpt lat="43.68374" lon="7.06883">
        <ele>190</ele>
        <time>2022-03-12T10:49:24.000Z</time>
      </trkpt>
      <trkpt lat="43.6838" lon="7.0688">
        <ele>188.80000305176</ele>
        <time>2022-03-12T10:49:25.000Z</time>
      </trkpt>
      <trkpt lat="43.68386" lon="7.06879">
        <ele>187.19999694824</ele>
        <time>2022-03-12T10:49:26.000Z</time>
      </trkpt>
      <trkpt lat="43.68392" lon="7.06878">
        <ele>186.19999694824</ele>
        <time>2022-03-12T10:49:27.000Z</time>
      </trkpt>
      <trkpt lat="43.68398" lon="7.06879">
        <ele>185.39999389648</ele>
        <time>2022-03-12T10:49:28.000Z</time>
      </trkpt>
      <trkpt lat="43.68409" lon="7.06884">
        <ele>184</ele>
        <time>2022-03-12T10:49:30.000Z</time>
      </trkpt>
      <trkpt lat="43.68415" lon="7.06886">
        <ele>183.60000610352</ele>
        <time>2022-03-12T10:49:31.000Z</time>
      </trkpt>
      <trkpt lat="43.68424" lon="7.06891">
        <ele>182.80000305176</ele>
        <time>2022-03-12T10:49:33.000Z</time>
      </trkpt>
      <trkpt lat="43.68429" lon="7.06895">
        <ele>182.19999694824</ele>
        <time>2022-03-12T10:49:35.000Z</time>
      </trkpt>
      <trkpt lat="43.68432" lon="7.06896">
        <ele>181.60000610352</ele>
        <time>2022-03-12T10:49:37.000Z</time>
      </trkpt>
      <trkpt lat="43.68432" lon="7.06896">
        <ele>181.19999694824</ele>
        <time>2022-03-12T10:49:39.000Z</time>
      </trkpt>
      <trkpt lat="43.68433" lon="7.06897">
        <ele>181.19999694824</ele>
        <time>2022-03-12T10:49:52.000Z</time>
      </trkpt>
      <trkpt lat="43.68437" lon="7.069">
        <ele>180.80000305176</ele>
        <time>2022-03-12T10:50:05.000Z</time>
      </trkpt>
      <trkpt lat="43.68447" lon="7.06907">
        <ele>180.60000610352</ele>
        <time>2022-03-12T10:50:09.000Z</time>
      </trkpt>
      <trkpt lat="43.6845" lon="7.06908">
        <ele>180</ele>
        <time>2022-03-12T10:50:10.000Z</time>
      </trkpt>
      <trkpt lat="43.68457" lon="7.06912">
        <ele>178.60000610352</ele>
        <time>2022-03-12T10:50:12.000Z</time>
      </trkpt>
      <trkpt lat="43.68464" lon="7.06916">
        <ele>177</ele>
        <time>2022-03-12T10:50:14.000Z</time>
      </trkpt>
      <trkpt lat="43.68469" lon="7.06922">
        <ele>175.60000610352</ele>
        <time>2022-03-12T10:50:16.000Z</time>
      </trkpt>
      <trkpt lat="43.68475" lon="7.06925">
        <ele>173.39999389648</ele>
        <time>2022-03-12T10:50:18.000Z</time>
      </trkpt>
      <trkpt lat="43.68481" lon="7.06929">
        <ele>171.39999389648</ele>
        <time>2022-03-12T10:50:20.000Z</time>
      </trkpt>
      <trkpt lat="43.68486" lon="7.06934">
        <ele>169.19999694824</ele>
        <time>2022-03-12T10:50:22.000Z</time>
      </trkpt>
      <trkpt lat="43.68494" lon="7.06938">
        <ele>166.80000305176</ele>
        <time>2022-03-12T10:50:24.000Z</time>
      </trkpt>
      <trkpt lat="43.68497" lon="7.0694">
        <ele>165.19999694824</ele>
        <time>2022-03-12T10:50:25.000Z</time>
      </trkpt>
      <trkpt lat="43.68501" lon="7.06942">
        <ele>163.80000305176</ele>
        <time>2022-03-12T10:50:26.000Z</time>
      </trkpt>
      <trkpt lat="43.68504" lon="7.06945">
        <ele>161.80000305176</ele>
        <time>2022-03-12T10:50:27.000Z</time>
      </trkpt>
      <trkpt lat="43.68508" lon="7.06948">
        <ele>160.19999694824</ele>
        <time>2022-03-12T10:50:28.000Z</time>
      </trkpt>
      <trkpt lat="43.68512" lon="7.0695">
        <ele>158.19999694824</ele>
        <time>2022-03-12T10:50:29.000Z</time>
      </trkpt>
      <trkpt lat="43.68515" lon="7.06952">
        <ele>156.60000610352</ele>
        <time>2022-03-12T10:50:30.000Z</time>
      </trkpt>
      <trkpt lat="43.68519" lon="7.06954">
        <ele>154.39999389648</ele>
        <time>2022-03-12T10:50:31.000Z</time>
      </trkpt>
      <trkpt lat="43.68522" lon="7.06956">
        <ele>153.19999694824</ele>
        <time>2022-03-12T10:50:32.000Z</time>
      </trkpt>
      <trkpt lat="43.68525" lon="7.06958">
        <ele>151.60000610352</ele>
        <time>2022-03-12T10:50:33.000Z</time>
      </trkpt>
      <trkpt lat="43.68528" lon="7.0696">
        <ele>150</ele>
        <time>2022-03-12T10:50:34.000Z</time>
      </trkpt>
      <trkpt lat="43.6853" lon="7.06961">
        <ele>148.80000305176</ele>
        <time>2022-03-12T10:50:35.000Z</time>
      </trkpt>
      <trkpt lat="43.6853" lon="7.06963">
        <ele>147.39999389648</ele>
        <time>2022-03-12T10:50:36.000Z</time>
      </trkpt>
      <trkpt lat="43.6853" lon="7.06962">
        <ele>146</ele>
        <time>2022-03-12T10:50:37.000Z</time>
      </trkpt>
      <trkpt lat="43.6853" lon="7.06963">
        <ele>144.80000305176</ele>
        <time>2022-03-12T10:50:39.000Z</time>
      </trkpt>
      <trkpt lat="43.68531" lon="7.06963">
        <ele>144.39999389648</ele>
        <time>2022-03-12T10:50:41.000Z</time>
      </trkpt>
      <trkpt lat="43.68531" lon="7.06966">
        <ele>144.80000305176</ele>
        <time>2022-03-12T10:50:46.000Z</time>
      </trkpt>
      <trkpt lat="43.68531" lon="7.06971">
        <ele>144.39999389648</ele>
        <time>2022-03-12T10:50:48.000Z</time>
      </trkpt>
      <trkpt lat="43.6853" lon="7.06986">
        <ele>144</ele>
        <time>2022-03-12T10:50:51.000Z</time>
      </trkpt>
      <trkpt lat="43.68531" lon="7.06991">
        <ele>143.60000610352</ele>
        <time>2022-03-12T10:50:52.000Z</time>
      </trkpt>
      <trkpt lat="43.68529" lon="7.0701">
        <ele>142.19999694824</ele>
        <time>2022-03-12T10:50:55.000Z</time>
      </trkpt>
      <trkpt lat="43.68529" lon="7.07018">
        <ele>141.80000305176</ele>
        <time>2022-03-12T10:50:56.000Z</time>
      </trkpt>
      <trkpt lat="43.68528" lon="7.07026">
        <ele>140.60000610352</ele>
        <time>2022-03-12T10:50:57.000Z</time>
      </trkpt>
      <trkpt lat="43.68526" lon="7.07033">
        <ele>139.60000610352</ele>
        <time>2022-03-12T10:50:58.000Z</time>
      </trkpt>
      <trkpt lat="43.68521" lon="7.07044">
        <ele>138.39999389648</ele>
        <time>2022-03-12T10:51:00.000Z</time>
      </trkpt>
      <trkpt lat="43.68516" lon="7.0705">
        <ele>137.19999694824</ele>
        <time>2022-03-12T10:51:01.000Z</time>
      </trkpt>
      <trkpt lat="43.68511" lon="7.07053">
        <ele>135.39999389648</ele>
        <time>2022-03-12T10:51:02.000Z</time>
      </trkpt>
      <trkpt lat="43.68507" lon="7.07056">
        <ele>134.39999389648</ele>
        <time>2022-03-12T10:51:03.000Z</time>
      </trkpt>
      <trkpt lat="43.68503" lon="7.07059">
        <ele>133.39999389648</ele>
        <time>2022-03-12T10:51:04.000Z</time>
      </trkpt>
      <trkpt lat="43.68498" lon="7.07063">
        <ele>132.39999389648</ele>
        <time>2022-03-12T10:51:05.000Z</time>
      </trkpt>
      <trkpt lat="43.68492" lon="7.07066">
        <ele>131.19999694824</ele>
        <time>2022-03-12T10:51:06.000Z</time>
      </trkpt>
      <trkpt lat="43.68478" lon="7.07071">
        <ele>129.60000610352</ele>
        <time>2022-03-12T10:51:08.000Z</time>
      </trkpt>
      <trkpt lat="43.68465" lon="7.07076">
        <ele>128.19999694824</ele>
        <time>2022-03-12T10:51:10.000Z</time>
      </trkpt>
      <trkpt lat="43.68451" lon="7.07079">
        <ele>126</ele>
        <time>2022-03-12T10:51:12.000Z</time>
      </trkpt>
      <trkpt lat="43.68445" lon="7.07079">
        <ele>124.59999847412</ele>
        <time>2022-03-12T10:51:13.000Z</time>
      </trkpt>
      <trkpt lat="43.68439" lon="7.07078">
        <ele>123.40000152588</ele>
        <time>2022-03-12T10:51:14.000Z</time>
      </trkpt>
      <trkpt lat="43.68432" lon="7.07076">
        <ele>121.59999847412</ele>
        <time>2022-03-12T10:51:15.000Z</time>
      </trkpt>
      <trkpt lat="43.68425" lon="7.07072">
        <ele>120.40000152588</ele>
        <time>2022-03-12T10:51:16.000Z</time>
      </trkpt>
      <trkpt lat="43.68421" lon="7.07067">
        <ele>119.59999847412</ele>
        <time>2022-03-12T10:51:17.000Z</time>
      </trkpt>
      <trkpt lat="43.68416" lon="7.07062">
        <ele>119</ele>
        <time>2022-03-12T10:51:18.000Z</time>
      </trkpt>
      <trkpt lat="43.68412" lon="7.07062">
        <ele>118</ele>
        <time>2022-03-12T10:51:19.000Z</time>
      </trkpt>
      <trkpt lat="43.68408" lon="7.07063">
        <ele>117.40000152588</ele>
        <time>2022-03-12T10:51:20.000Z</time>
      </trkpt>
      <trkpt lat="43.68403" lon="7.07073">
        <ele>115.80000305176</ele>
        <time>2022-03-12T10:51:22.000Z</time>
      </trkpt>
      <trkpt lat="43.68401" lon="7.07077">
        <ele>115.40000152588</ele>
        <time>2022-03-12T10:51:23.000Z</time>
      </trkpt>
      <trkpt lat="43.68398" lon="7.07082">
        <ele>115.59999847412</ele>
        <time>2022-03-12T10:51:24.000Z</time>
      </trkpt>
      <trkpt lat="43.68391" lon="7.07091">
        <ele>114.59999847412</ele>
        <time>2022-03-12T10:51:27.000Z</time>
      </trkpt>
      <trkpt lat="43.68387" lon="7.07099">
        <ele>113</ele>
        <time>2022-03-12T10:51:29.000Z</time>
      </trkpt>
      <trkpt lat="43.68383" lon="7.07106">
        <ele>111.80000305176</ele>
        <time>2022-03-12T10:51:31.000Z</time>
      </trkpt>
      <trkpt lat="43.6838" lon="7.0711">
        <ele>111</ele>
        <time>2022-03-12T10:51:32.000Z</time>
      </trkpt>
      <trkpt lat="43.68378" lon="7.07114">
        <ele>110</ele>
        <time>2022-03-12T10:51:33.000Z</time>
      </trkpt>
      <trkpt lat="43.68378" lon="7.07124">
        <ele>108.40000152588</ele>
        <time>2022-03-12T10:51:35.000Z</time>
      </trkpt>
      <trkpt lat="43.68381" lon="7.07131">
        <ele>107.40000152588</ele>
        <time>2022-03-12T10:51:36.000Z</time>
      </trkpt>
      <trkpt lat="43.68383" lon="7.07137">
        <ele>106.19999694824</ele>
        <time>2022-03-12T10:51:37.000Z</time>
      </trkpt>
      <trkpt lat="43.68385" lon="7.07141">
        <ele>104.80000305176</ele>
        <time>2022-03-12T10:51:38.000Z</time>
      </trkpt>
      <trkpt lat="43.68388" lon="7.07146">
        <ele>103.80000305176</ele>
        <time>2022-03-12T10:51:39.000Z</time>
      </trkpt>
      <trkpt lat="43.68389" lon="7.07151">
        <ele>102.80000305176</ele>
        <time>2022-03-12T10:51:40.000Z</time>
      </trkpt>
      <trkpt lat="43.68391" lon="7.07159">
        <ele>101.80000305176</ele>
        <time>2022-03-12T10:51:41.000Z</time>
      </trkpt>
      <trkpt lat="43.68394" lon="7.0717">
        <ele>100.19999694824</ele>
        <time>2022-03-12T10:51:43.000Z</time>
      </trkpt>
      <trkpt lat="43.68394" lon="7.07179">
        <ele>98.800003051758</ele>
        <time>2022-03-12T10:51:45.000Z</time>
      </trkpt>
      <trkpt lat="43.68393" lon="7.07184">
        <ele>97.800003051758</ele>
        <time>2022-03-12T10:51:46.000Z</time>
      </trkpt>
      <trkpt lat="43.68391" lon="7.07192">
        <ele>96.400001525879</ele>
        <time>2022-03-12T10:51:48.000Z</time>
      </trkpt>
      <trkpt lat="43.68389" lon="7.07197">
        <ele>95.599998474121</ele>
        <time>2022-03-12T10:51:49.000Z</time>
      </trkpt>
      <trkpt lat="43.6839" lon="7.07199">
        <ele>94.800003051758</ele>
        <time>2022-03-12T10:51:50.000Z</time>
      </trkpt>
      <trkpt lat="43.68392" lon="7.07199">
        <ele>93.800003051758</ele>
        <time>2022-03-12T10:51:51.000Z</time>
      </trkpt>
      <trkpt lat="43.68395" lon="7.07197">
        <ele>93</ele>
        <time>2022-03-12T10:51:52.000Z</time>
      </trkpt>
      <trkpt lat="43.68401" lon="7.07192">
        <ele>91.400001525879</ele>
        <time>2022-03-12T10:51:54.000Z</time>
      </trkpt>
      <trkpt lat="43.68404" lon="7.07197">
        <ele>90.400001525879</ele>
        <time>2022-03-12T10:51:56.000Z</time>
      </trkpt>
      <trkpt lat="43.68402" lon="7.072">
        <ele>90</ele>
        <time>2022-03-12T10:51:57.000Z</time>
      </trkpt>
      <trkpt lat="43.68398" lon="7.07206">
        <ele>88.800003051758</ele>
        <time>2022-03-12T10:51:59.000Z</time>
      </trkpt>
      <trkpt lat="43.68391" lon="7.07215">
        <ele>87</ele>
        <time>2022-03-12T10:52:01.000Z</time>
      </trkpt>
      <trkpt lat="43.68389" lon="7.07222">
        <ele>86.199996948242</ele>
        <time>2022-03-12T10:52:02.000Z</time>
      </trkpt>
      <trkpt lat="43.68386" lon="7.07227">
        <ele>85.599998474121</ele>
        <time>2022-03-12T10:52:03.000Z</time>
      </trkpt>
      <trkpt lat="43.68383" lon="7.07233">
        <ele>84.400001525879</ele>
        <time>2022-03-12T10:52:05.000Z</time>
      </trkpt>
      <trkpt lat="43.68383" lon="7.07237">
        <ele>83.800003051758</ele>
        <time>2022-03-12T10:52:06.000Z</time>
      </trkpt>
      <trkpt lat="43.68386" lon="7.07238">
        <ele>83.199996948242</ele>
        <time>2022-03-12T10:52:07.000Z</time>
      </trkpt>
      <trkpt lat="43.68391" lon="7.07238">
        <ele>82.199996948242</ele>
        <time>2022-03-12T10:52:08.000Z</time>
      </trkpt>
      <trkpt lat="43.68396" lon="7.07237">
        <ele>81.400001525879</ele>
        <time>2022-03-12T10:52:09.000Z</time>
      </trkpt>
      <trkpt lat="43.68405" lon="7.07236">
        <ele>80</ele>
        <time>2022-03-12T10:52:11.000Z</time>
      </trkpt>
      <trkpt lat="43.68408" lon="7.07235">
        <ele>78.800003051758</ele>
        <time>2022-03-12T10:52:12.000Z</time>
      </trkpt>
      <trkpt lat="43.6841" lon="7.07232">
        <ele>77.599998474121</ele>
        <time>2022-03-12T10:52:13.000Z</time>
      </trkpt>
      <trkpt lat="43.68415" lon="7.07235">
        <ele>76.599998474121</ele>
        <time>2022-03-12T10:52:15.000Z</time>
      </trkpt>
      <trkpt lat="43.68412" lon="7.07248">
        <ele>75.199996948242</ele>
        <time>2022-03-12T10:52:17.000Z</time>
      </trkpt>
      <trkpt lat="43.6841" lon="7.07259">
        <ele>74</ele>
        <time>2022-03-12T10:52:19.000Z</time>
      </trkpt>
      <trkpt lat="43.68408" lon="7.07263">
        <ele>72.599998474121</ele>
        <time>2022-03-12T10:52:20.000Z</time>
      </trkpt>
      <trkpt lat="43.68406" lon="7.07269">
        <ele>71.400001525879</ele>
        <time>2022-03-12T10:52:21.000Z</time>
      </trkpt>
      <trkpt lat="43.68404" lon="7.07275">
        <ele>70.400001525879</ele>
        <time>2022-03-12T10:52:22.000Z</time>
      </trkpt>
      <trkpt lat="43.68402" lon="7.07281">
        <ele>69.199996948242</ele>
        <time>2022-03-12T10:52:23.000Z</time>
      </trkpt>
      <trkpt lat="43.68397" lon="7.07291">
        <ele>68</ele>
        <time>2022-03-12T10:52:25.000Z</time>
      </trkpt>
      <trkpt lat="43.68395" lon="7.07295">
        <ele>67.400001525879</ele>
        <time>2022-03-12T10:52:26.000Z</time>
      </trkpt>
      <trkpt lat="43.68395" lon="7.07299">
        <ele>66.400001525879</ele>
        <time>2022-03-12T10:52:27.000Z</time>
      </trkpt>
      <trkpt lat="43.68396" lon="7.07298">
        <ele>64.800003051758</ele>
        <time>2022-03-12T10:52:29.000Z</time>
      </trkpt>
      <trkpt lat="43.68401" lon="7.07299">
        <ele>63.799999237061</ele>
        <time>2022-03-12T10:52:31.000Z</time>
      </trkpt>
      <trkpt lat="43.68403" lon="7.07299">
        <ele>63.200000762939</ele>
        <time>2022-03-12T10:52:32.000Z</time>
      </trkpt>
      <trkpt lat="43.68407" lon="7.07301">
        <ele>62.200000762939</ele>
        <time>2022-03-12T10:52:34.000Z</time>
      </trkpt>
      <trkpt lat="43.68407" lon="7.07305">
        <ele>61.799999237061</ele>
        <time>2022-03-12T10:52:35.000Z</time>
      </trkpt>
      <trkpt lat="43.68402" lon="7.07309">
        <ele>60.799999237061</ele>
        <time>2022-03-12T10:52:37.000Z</time>
      </trkpt>
      <trkpt lat="43.684" lon="7.07311">
        <ele>60.400001525879</ele>
        <time>2022-03-12T10:52:38.000Z</time>
      </trkpt>
      <trkpt lat="43.68395" lon="7.07316">
        <ele>59.599998474121</ele>
        <time>2022-03-12T10:52:40.000Z</time>
      </trkpt>
      <trkpt lat="43.68385" lon="7.07324">
        <ele>59</ele>
        <time>2022-03-12T10:52:43.000Z</time>
      </trkpt>
      <trkpt lat="43.68378" lon="7.07329">
        <ele>58.599998474121</ele>
        <time>2022-03-12T10:52:45.000Z</time>
      </trkpt>
      <trkpt lat="43.68362" lon="7.07341">
        <ele>57.400001525879</ele>
        <time>2022-03-12T10:52:50.000Z</time>
      </trkpt>
      <trkpt lat="43.68351" lon="7.07357">
        <ele>56.400001525879</ele>
        <time>2022-03-12T10:52:55.000Z</time>
      </trkpt>
      <trkpt lat="43.68352" lon="7.0736">
        <ele>56.400001525879</ele>
        <time>2022-03-12T10:52:56.000Z</time>
      </trkpt>
      <trkpt lat="43.68357" lon="7.07363">
        <ele>56.599998474121</ele>
        <time>2022-03-12T10:52:58.000Z</time>
      </trkpt>
      <trkpt lat="43.68364" lon="7.07358">
        <ele>56.200000762939</ele>
        <time>2022-03-12T10:53:01.000Z</time>
      </trkpt>
      <trkpt lat="43.68367" lon="7.07356">
        <ele>56</ele>
        <time>2022-03-12T10:53:02.000Z</time>
      </trkpt>
      <trkpt lat="43.68382" lon="7.07344">
        <ele>55.599998474121</ele>
        <time>2022-03-12T10:53:08.000Z</time>
      </trkpt>
      <trkpt lat="43.68389" lon="7.07342">
        <ele>55.200000762939</ele>
        <time>2022-03-12T10:53:13.000Z</time>
      </trkpt>
      <trkpt lat="43.6839" lon="7.07342">
        <ele>55.200000762939</ele>
        <time>2022-03-12T10:53:14.000Z</time>
      </trkpt>
      <trkpt lat="43.68395" lon="7.07338">
        <ele>55.200000762939</ele>
        <time>2022-03-12T10:53:18.000Z</time>
      </trkpt>
      <trkpt lat="43.68403" lon="7.07332">
        <ele>55.200000762939</ele>
        <time>2022-03-12T10:53:23.000Z</time>
      </trkpt>
      <trkpt lat="43.6842" lon="7.07317">
        <ele>55</ele>
        <time>2022-03-12T10:53:29.000Z</time>
      </trkpt>
      <trkpt lat="43.68433" lon="7.07298">
        <ele>54.799999237061</ele>
        <time>2022-03-12T10:53:34.000Z</time>
      </trkpt>
      <trkpt lat="43.6845" lon="7.07278">
        <ele>54</ele>
        <time>2022-03-12T10:53:39.000Z</time>
      </trkpt>
      <trkpt lat="43.68464" lon="7.07267">
        <ele>53.400001525879</ele>
        <time>2022-03-12T10:53:43.000Z</time>
      </trkpt>
      <trkpt lat="43.68467" lon="7.07265">
        <ele>53.400001525879</ele>
        <time>2022-03-12T10:53:44.000Z</time>
      </trkpt>
      <trkpt lat="43.68471" lon="7.07261">
        <ele>53.200000762939</ele>
        <time>2022-03-12T10:53:45.000Z</time>
      </trkpt>
      <trkpt lat="43.68478" lon="7.07256">
        <ele>53</ele>
        <time>2022-03-12T10:53:47.000Z</time>
      </trkpt>
      <trkpt lat="43.68485" lon="7.07249">
        <ele>52.799999237061</ele>
        <time>2022-03-12T10:53:49.000Z</time>
      </trkpt>
      <trkpt lat="43.68497" lon="7.0724">
        <ele>52.599998474121</ele>
        <time>2022-03-12T10:53:52.000Z</time>
      </trkpt>
      <trkpt lat="43.68504" lon="7.07234">
        <ele>52.400001525879</ele>
        <time>2022-03-12T10:53:54.000Z</time>
      </trkpt>
      <trkpt lat="43.68529" lon="7.07215">
        <ele>51.799999237061</ele>
        <time>2022-03-12T10:54:00.000Z</time>
      </trkpt>
      <trkpt lat="43.68534" lon="7.07211">
        <ele>51.799999237061</ele>
        <time>2022-03-12T10:54:01.000Z</time>
      </trkpt>
      <trkpt lat="43.6856" lon="7.07201">
        <ele>51</ele>
        <time>2022-03-12T10:54:06.000Z</time>
      </trkpt>
      <trkpt lat="43.68572" lon="7.07199">
        <ele>50.799999237061</ele>
        <time>2022-03-12T10:54:08.000Z</time>
      </trkpt>
      <trkpt lat="43.68577" lon="7.072">
        <ele>50.799999237061</ele>
        <time>2022-03-12T10:54:09.000Z</time>
      </trkpt>
      <trkpt lat="43.68588" lon="7.07203">
        <ele>50.599998474121</ele>
        <time>2022-03-12T10:54:11.000Z</time>
      </trkpt>
      <trkpt lat="43.68622" lon="7.07212">
        <ele>50.400001525879</ele>
        <time>2022-03-12T10:54:17.000Z</time>
      </trkpt>
      <trkpt lat="43.68651" lon="7.07219">
        <ele>50.799999237061</ele>
        <time>2022-03-12T10:54:23.000Z</time>
      </trkpt>
      <trkpt lat="43.68659" lon="7.07222">
        <ele>50.599998474121</ele>
        <time>2022-03-12T10:54:25.000Z</time>
      </trkpt>
      <trkpt lat="43.68675" lon="7.07227">
        <ele>50.799999237061</ele>
        <time>2022-03-12T10:54:29.000Z</time>
      </trkpt>
      <trkpt lat="43.68693" lon="7.07232">
        <ele>50.799999237061</ele>
        <time>2022-03-12T10:54:33.000Z</time>
      </trkpt>
      <trkpt lat="43.68697" lon="7.07233">
        <ele>50.799999237061</ele>
        <time>2022-03-12T10:54:34.000Z</time>
      </trkpt>
      <trkpt lat="43.68723" lon="7.07242">
        <ele>50.799999237061</ele>
        <time>2022-03-12T10:54:40.000Z</time>
      </trkpt>
      <trkpt lat="43.68769" lon="7.07254">
        <ele>50.599998474121</ele>
        <time>2022-03-12T10:54:49.000Z</time>
      </trkpt>
      <trkpt lat="43.68819" lon="7.07267">
        <ele>51</ele>
        <time>2022-03-12T10:54:59.000Z</time>
      </trkpt>
      <trkpt lat="43.68843" lon="7.07276">
        <ele>51.200000762939</ele>
        <time>2022-03-12T10:55:04.000Z</time>
      </trkpt>
      <trkpt lat="43.68858" lon="7.07284">
        <ele>51.200000762939</ele>
        <time>2022-03-12T10:55:07.000Z</time>
      </trkpt>
      <trkpt lat="43.68871" lon="7.07295">
        <ele>51.599998474121</ele>
        <time>2022-03-12T10:55:10.000Z</time>
      </trkpt>
      <trkpt lat="43.68883" lon="7.07306">
        <ele>52</ele>
        <time>2022-03-12T10:55:13.000Z</time>
      </trkpt>
      <trkpt lat="43.68893" lon="7.07313">
        <ele>52.599998474121</ele>
        <time>2022-03-12T10:55:16.000Z</time>
      </trkpt>
      <trkpt lat="43.689" lon="7.07316">
        <ele>53.200000762939</ele>
        <time>2022-03-12T10:55:18.000Z</time>
      </trkpt>
      <trkpt lat="43.68914" lon="7.07318">
        <ele>54</ele>
        <time>2022-03-12T10:55:22.000Z</time>
      </trkpt>
      <trkpt lat="43.68917" lon="7.07318">
        <ele>54.200000762939</ele>
        <time>2022-03-12T10:55:23.000Z</time>
      </trkpt>
      <trkpt lat="43.68932" lon="7.07311">
        <ele>55.200000762939</ele>
        <time>2022-03-12T10:55:28.000Z</time>
      </trkpt>
      <trkpt lat="43.6894" lon="7.07301">
        <ele>56.200000762939</ele>
        <time>2022-03-12T10:55:32.000Z</time>
      </trkpt>
      <trkpt lat="43.68943" lon="7.07298">
        <ele>56.799999237061</ele>
        <time>2022-03-12T10:55:34.000Z</time>
      </trkpt>
      <trkpt lat="43.68945" lon="7.07297">
        <ele>57.200000762939</ele>
        <time>2022-03-12T10:55:36.000Z</time>
      </trkpt>
      <trkpt lat="43.68946" lon="7.07297">
        <ele>57.400001525879</ele>
        <time>2022-03-12T10:55:37.000Z</time>
      </trkpt>
      <trkpt lat="43.68948" lon="7.07298">
        <ele>57.799999237061</ele>
        <time>2022-03-12T10:55:39.000Z</time>
      </trkpt>
      <trkpt lat="43.68952" lon="7.07298">
        <ele>58</ele>
        <time>2022-03-12T10:55:44.000Z</time>
      </trkpt>
      <trkpt lat="43.68953" lon="7.07297">
        <ele>58</ele>
        <time>2022-03-12T10:55:45.000Z</time>
      </trkpt>
      <trkpt lat="43.68956" lon="7.07301">
        <ele>58.400001525879</ele>
        <time>2022-03-12T10:55:48.000Z</time>
      </trkpt>
      <trkpt lat="43.68956" lon="7.07303">
        <ele>58.400001525879</ele>
        <time>2022-03-12T10:55:49.000Z</time>
      </trkpt>
      <trkpt lat="43.68961" lon="7.07314">
        <ele>59</ele>
        <time>2022-03-12T10:55:54.000Z</time>
      </trkpt>
      <trkpt lat="43.68965" lon="7.07321">
        <ele>59.799999237061</ele>
        <time>2022-03-12T10:55:57.000Z</time>
      </trkpt>
      <trkpt lat="43.68969" lon="7.07329">
        <ele>61.200000762939</ele>
        <time>2022-03-12T10:56:01.000Z</time>
      </trkpt>
      <trkpt lat="43.68973" lon="7.07334">
        <ele>62.200000762939</ele>
        <time>2022-03-12T10:56:04.000Z</time>
      </trkpt>
      <trkpt lat="43.68976" lon="7.0734">
        <ele>63.400001525879</ele>
        <time>2022-03-12T10:56:07.000Z</time>
      </trkpt>
      <trkpt lat="43.68977" lon="7.07341">
        <ele>63.599998474121</ele>
        <time>2022-03-12T10:56:08.000Z</time>
      </trkpt>
      <trkpt lat="43.68979" lon="7.07343">
        <ele>64.400001525879</ele>
        <time>2022-03-12T10:56:10.000Z</time>
      </trkpt>
      <trkpt lat="43.68983" lon="7.07346">
        <ele>65.599998474121</ele>
        <time>2022-03-12T10:56:13.000Z</time>
      </trkpt>
      <trkpt lat="43.68985" lon="7.07347">
        <ele>66</ele>
        <time>2022-03-12T10:56:14.000Z</time>
      </trkpt>
      <trkpt lat="43.68988" lon="7.07349">
        <ele>66.599998474121</ele>
        <time>2022-03-12T10:56:16.000Z</time>
      </trkpt>
      <trkpt lat="43.68993" lon="7.07351">
        <ele>67.800003051758</ele>
        <time>2022-03-12T10:56:19.000Z</time>
      </trkpt>
      <trkpt lat="43.68998" lon="7.07352">
        <ele>68.800003051758</ele>
        <time>2022-03-12T10:56:22.000Z</time>
      </trkpt>
      <trkpt lat="43.68999" lon="7.07353">
        <ele>69.199996948242</ele>
        <time>2022-03-12T10:56:23.000Z</time>
      </trkpt>
      <trkpt lat="43.69005" lon="7.07353">
        <ele>70.400001525879</ele>
        <time>2022-03-12T10:56:27.000Z</time>
      </trkpt>
      <trkpt lat="43.69007" lon="7.07354">
        <ele>70.599998474121</ele>
        <time>2022-03-12T10:56:28.000Z</time>
      </trkpt>
      <trkpt lat="43.69009" lon="7.07354">
        <ele>71</ele>
        <time>2022-03-12T10:56:29.000Z</time>
      </trkpt>
      <trkpt lat="43.6901" lon="7.07354">
        <ele>71.400001525879</ele>
        <time>2022-03-12T10:56:30.000Z</time>
      </trkpt>
      <trkpt lat="43.69015" lon="7.07354">
        <ele>72.400001525879</ele>
        <time>2022-03-12T10:56:33.000Z</time>
      </trkpt>
      <trkpt lat="43.6902" lon="7.07355">
        <ele>73.599998474121</ele>
        <time>2022-03-12T10:56:36.000Z</time>
      </trkpt>
      <trkpt lat="43.69022" lon="7.07355">
        <ele>74</ele>
        <time>2022-03-12T10:56:37.000Z</time>
      </trkpt>
      <trkpt lat="43.69025" lon="7.07355">
        <ele>74.800003051758</ele>
        <time>2022-03-12T10:56:39.000Z</time>
      </trkpt>
      <trkpt lat="43.6903" lon="7.07356">
        <ele>75.800003051758</ele>
        <time>2022-03-12T10:56:42.000Z</time>
      </trkpt>
      <trkpt lat="43.69035" lon="7.07357">
        <ele>77</ele>
        <time>2022-03-12T10:56:45.000Z</time>
      </trkpt>
      <trkpt lat="43.69036" lon="7.07357">
        <ele>77.400001525879</ele>
        <time>2022-03-12T10:56:46.000Z</time>
      </trkpt>
      <trkpt lat="43.6904" lon="7.07359">
        <ele>78.199996948242</ele>
        <time>2022-03-12T10:56:48.000Z</time>
      </trkpt>
      <trkpt lat="43.69046" lon="7.07361">
        <ele>79.599998474121</ele>
        <time>2022-03-12T10:56:51.000Z</time>
      </trkpt>
      <trkpt lat="43.69048" lon="7.07363">
        <ele>80</ele>
        <time>2022-03-12T10:56:52.000Z</time>
      </trkpt>
      <trkpt lat="43.69052" lon="7.07364">
        <ele>80.800003051758</ele>
        <time>2022-03-12T10:56:54.000Z</time>
      </trkpt>
      <trkpt lat="43.69056" lon="7.07367">
        <ele>81.800003051758</ele>
        <time>2022-03-12T10:56:56.000Z</time>
      </trkpt>
      <trkpt lat="43.69062" lon="7.0737">
        <ele>83.400001525879</ele>
        <time>2022-03-12T10:56:59.000Z</time>
      </trkpt>
      <trkpt lat="43.69067" lon="7.07373">
        <ele>84.800003051758</ele>
        <time>2022-03-12T10:57:02.000Z</time>
      </trkpt>
      <trkpt lat="43.69072" lon="7.07375">
        <ele>85.800003051758</ele>
        <time>2022-03-12T10:57:05.000Z</time>
      </trkpt>
      <trkpt lat="43.69074" lon="7.07376">
        <ele>86.400001525879</ele>
        <time>2022-03-12T10:57:06.000Z</time>
      </trkpt>
      <trkpt lat="43.69078" lon="7.07377">
        <ele>87.599998474121</ele>
        <time>2022-03-12T10:57:08.000Z</time>
      </trkpt>
      <trkpt lat="43.69082" lon="7.07379">
        <ele>88.800003051758</ele>
        <time>2022-03-12T10:57:11.000Z</time>
      </trkpt>
      <trkpt lat="43.69088" lon="7.07382">
        <ele>90</ele>
        <time>2022-03-12T10:57:14.000Z</time>
      </trkpt>
      <trkpt lat="43.69092" lon="7.07384">
        <ele>91.400001525879</ele>
        <time>2022-03-12T10:57:17.000Z</time>
      </trkpt>
      <trkpt lat="43.69094" lon="7.07385">
        <ele>91.800003051758</ele>
        <time>2022-03-12T10:57:18.000Z</time>
      </trkpt>
      <trkpt lat="43.69097" lon="7.07386">
        <ele>92.800003051758</ele>
        <time>2022-03-12T10:57:20.000Z</time>
      </trkpt>
      <trkpt lat="43.69103" lon="7.07388">
        <ele>93.800003051758</ele>
        <time>2022-03-12T10:57:23.000Z</time>
      </trkpt>
      <trkpt lat="43.69108" lon="7.0739">
        <ele>94.599998474121</ele>
        <time>2022-03-12T10:57:25.000Z</time>
      </trkpt>
      <trkpt lat="43.69112" lon="7.07391">
        <ele>95</ele>
        <time>2022-03-12T10:57:26.000Z</time>
      </trkpt>
      <trkpt lat="43.69118" lon="7.07394">
        <ele>96.400001525879</ele>
        <time>2022-03-12T10:57:29.000Z</time>
      </trkpt>
      <trkpt lat="43.69121" lon="7.07396">
        <ele>97.199996948242</ele>
        <time>2022-03-12T10:57:30.000Z</time>
      </trkpt>
      <trkpt lat="43.69123" lon="7.07397">
        <ele>98</ele>
        <time>2022-03-12T10:57:31.000Z</time>
      </trkpt>
      <trkpt lat="43.69128" lon="7.074">
        <ele>99.800003051758</ele>
        <time>2022-03-12T10:57:33.000Z</time>
      </trkpt>
      <trkpt lat="43.69132" lon="7.07403">
        <ele>101.19999694824</ele>
        <time>2022-03-12T10:57:35.000Z</time>
      </trkpt>
      <trkpt lat="43.69138" lon="7.07405">
        <ele>102.40000152588</ele>
        <time>2022-03-12T10:57:37.000Z</time>
      </trkpt>
      <trkpt lat="43.6914" lon="7.07405">
        <ele>103</ele>
        <time>2022-03-12T10:57:38.000Z</time>
      </trkpt>
      <trkpt lat="43.69143" lon="7.07405">
        <ele>103.59999847412</ele>
        <time>2022-03-12T10:57:39.000Z</time>
      </trkpt>
      <trkpt lat="43.69151" lon="7.07405">
        <ele>105.19999694824</ele>
        <time>2022-03-12T10:57:42.000Z</time>
      </trkpt>
      <trkpt lat="43.69156" lon="7.07405">
        <ele>106.59999847412</ele>
        <time>2022-03-12T10:57:44.000Z</time>
      </trkpt>
      <trkpt lat="43.69158" lon="7.07405">
        <ele>107</ele>
        <time>2022-03-12T10:57:45.000Z</time>
      </trkpt>
      <trkpt lat="43.69161" lon="7.07405">
        <ele>107.59999847412</ele>
        <time>2022-03-12T10:57:46.000Z</time>
      </trkpt>
      <trkpt lat="43.69166" lon="7.07404">
        <ele>109.40000152588</ele>
        <time>2022-03-12T10:57:48.000Z</time>
      </trkpt>
      <trkpt lat="43.69169" lon="7.07402">
        <ele>110.80000305176</ele>
        <time>2022-03-12T10:57:50.000Z</time>
      </trkpt>
      <trkpt lat="43.69171" lon="7.074">
        <ele>111.59999847412</ele>
        <time>2022-03-12T10:57:51.000Z</time>
      </trkpt>
      <trkpt lat="43.69172" lon="7.07397">
        <ele>112.40000152588</ele>
        <time>2022-03-12T10:57:52.000Z</time>
      </trkpt>
      <trkpt lat="43.6917" lon="7.07391">
        <ele>113.40000152588</ele>
        <time>2022-03-12T10:57:54.000Z</time>
      </trkpt>
      <trkpt lat="43.6917" lon="7.07388">
        <ele>114</ele>
        <time>2022-03-12T10:57:55.000Z</time>
      </trkpt>
      <trkpt lat="43.69168" lon="7.07383">
        <ele>115</ele>
        <time>2022-03-12T10:57:57.000Z</time>
      </trkpt>
      <trkpt lat="43.69163" lon="7.07376">
        <ele>116.40000152588</ele>
        <time>2022-03-12T10:58:00.000Z</time>
      </trkpt>
      <trkpt lat="43.6916" lon="7.07372">
        <ele>117.40000152588</ele>
        <time>2022-03-12T10:58:02.000Z</time>
      </trkpt>
      <trkpt lat="43.69155" lon="7.07367">
        <ele>118.59999847412</ele>
        <time>2022-03-12T10:58:05.000Z</time>
      </trkpt>
      <trkpt lat="43.69151" lon="7.07361">
        <ele>119.59999847412</ele>
        <time>2022-03-12T10:58:07.000Z</time>
      </trkpt>
      <trkpt lat="43.6915" lon="7.07358">
        <ele>120.19999694824</ele>
        <time>2022-03-12T10:58:08.000Z</time>
      </trkpt>
      <trkpt lat="43.69149" lon="7.07356">
        <ele>120.80000305176</ele>
        <time>2022-03-12T10:58:09.000Z</time>
      </trkpt>
      <trkpt lat="43.69146" lon="7.07351">
        <ele>121.80000305176</ele>
        <time>2022-03-12T10:58:11.000Z</time>
      </trkpt>
      <trkpt lat="43.69144" lon="7.07346">
        <ele>123</ele>
        <time>2022-03-12T10:58:13.000Z</time>
      </trkpt>
      <trkpt lat="43.69139" lon="7.07338">
        <ele>124</ele>
        <time>2022-03-12T10:58:16.000Z</time>
      </trkpt>
      <trkpt lat="43.69136" lon="7.07331">
        <ele>125</ele>
        <time>2022-03-12T10:58:19.000Z</time>
      </trkpt>
      <trkpt lat="43.6913" lon="7.07321">
        <ele>126.19999694824</ele>
        <time>2022-03-12T10:58:23.000Z</time>
      </trkpt>
      <trkpt lat="43.69123" lon="7.07312">
        <ele>127.59999847412</ele>
        <time>2022-03-12T10:58:27.000Z</time>
      </trkpt>
      <trkpt lat="43.69116" lon="7.07305">
        <ele>128.80000305176</ele>
        <time>2022-03-12T10:58:31.000Z</time>
      </trkpt>
      <trkpt lat="43.6911" lon="7.07297">
        <ele>130</ele>
        <time>2022-03-12T10:58:35.000Z</time>
      </trkpt>
      <trkpt lat="43.69103" lon="7.07286">
        <ele>131.19999694824</ele>
        <time>2022-03-12T10:58:39.000Z</time>
      </trkpt>
      <trkpt lat="43.69101" lon="7.07278">
        <ele>132.19999694824</ele>
        <time>2022-03-12T10:58:43.000Z</time>
      </trkpt>
      <trkpt lat="43.69101" lon="7.07275">
        <ele>133</ele>
        <time>2022-03-12T10:58:45.000Z</time>
      </trkpt>
      <trkpt lat="43.69102" lon="7.07274">
        <ele>133.39999389648</ele>
        <time>2022-03-12T10:58:46.000Z</time>
      </trkpt>
      <trkpt lat="43.69108" lon="7.07274">
        <ele>134</ele>
        <time>2022-03-12T10:58:50.000Z</time>
      </trkpt>
      <trkpt lat="43.69111" lon="7.07276">
        <ele>134.39999389648</ele>
        <time>2022-03-12T10:58:52.000Z</time>
      </trkpt>
      <trkpt lat="43.69118" lon="7.07279">
        <ele>135.19999694824</ele>
        <time>2022-03-12T10:58:55.000Z</time>
      </trkpt>
      <trkpt lat="43.6912" lon="7.07281">
        <ele>135.80000305176</ele>
        <time>2022-03-12T10:58:56.000Z</time>
      </trkpt>
      <trkpt lat="43.69125" lon="7.07283">
        <ele>137</ele>
        <time>2022-03-12T10:58:58.000Z</time>
      </trkpt>
      <trkpt lat="43.69132" lon="7.07285">
        <ele>138.39999389648</ele>
        <time>2022-03-12T10:59:01.000Z</time>
      </trkpt>
      <trkpt lat="43.69137" lon="7.07286">
        <ele>139.60000610352</ele>
        <time>2022-03-12T10:59:03.000Z</time>
      </trkpt>
      <trkpt lat="43.69139" lon="7.07287">
        <ele>140.39999389648</ele>
        <time>2022-03-12T10:59:04.000Z</time>
      </trkpt>
      <trkpt lat="43.69141" lon="7.07287">
        <ele>141</ele>
        <time>2022-03-12T10:59:05.000Z</time>
      </trkpt>
      <trkpt lat="43.69146" lon="7.07288">
        <ele>142.60000610352</ele>
        <time>2022-03-12T10:59:07.000Z</time>
      </trkpt>
      <trkpt lat="43.69151" lon="7.07289">
        <ele>144</ele>
        <time>2022-03-12T10:59:09.000Z</time>
      </trkpt>
      <trkpt lat="43.69156" lon="7.0729">
        <ele>145.19999694824</ele>
        <time>2022-03-12T10:59:11.000Z</time>
      </trkpt>
      <trkpt lat="43.69158" lon="7.07291">
        <ele>145.80000305176</ele>
        <time>2022-03-12T10:59:12.000Z</time>
      </trkpt>
      <trkpt lat="43.69161" lon="7.07292">
        <ele>146.39999389648</ele>
        <time>2022-03-12T10:59:13.000Z</time>
      </trkpt>
      <trkpt lat="43.69165" lon="7.07293">
        <ele>147.60000610352</ele>
        <time>2022-03-12T10:59:15.000Z</time>
      </trkpt>
      <trkpt lat="43.6917" lon="7.07294">
        <ele>148.60000610352</ele>
        <time>2022-03-12T10:59:17.000Z</time>
      </trkpt>
      <trkpt lat="43.69175" lon="7.07295">
        <ele>149.80000305176</ele>
        <time>2022-03-12T10:59:19.000Z</time>
      </trkpt>
      <trkpt lat="43.69181" lon="7.07294">
        <ele>151.19999694824</ele>
        <time>2022-03-12T10:59:22.000Z</time>
      </trkpt>
      <trkpt lat="43.69185" lon="7.07294">
        <ele>152.80000305176</ele>
        <time>2022-03-12T10:59:24.000Z</time>
      </trkpt>
      <trkpt lat="43.69188" lon="7.07294">
        <ele>153.39999389648</ele>
        <time>2022-03-12T10:59:25.000Z</time>
      </trkpt>
      <trkpt lat="43.6919" lon="7.07295">
        <ele>154</ele>
        <time>2022-03-12T10:59:26.000Z</time>
      </trkpt>
      <trkpt lat="43.69194" lon="7.07295">
        <ele>155.19999694824</ele>
        <time>2022-03-12T10:59:28.000Z</time>
      </trkpt>
      <trkpt lat="43.69198" lon="7.07295">
        <ele>156.19999694824</ele>
        <time>2022-03-12T10:59:30.000Z</time>
      </trkpt>
      <trkpt lat="43.692" lon="7.07295">
        <ele>156.80000305176</ele>
        <time>2022-03-12T10:59:31.000Z</time>
      </trkpt>
      <trkpt lat="43.69204" lon="7.07295">
        <ele>157.60000610352</ele>
        <time>2022-03-12T10:59:33.000Z</time>
      </trkpt>
      <trkpt lat="43.69211" lon="7.07296">
        <ele>158.60000610352</ele>
        <time>2022-03-12T10:59:37.000Z</time>
      </trkpt>
      <trkpt lat="43.69213" lon="7.07296">
        <ele>158.80000305176</ele>
        <time>2022-03-12T10:59:38.000Z</time>
      </trkpt>
      <trkpt lat="43.6922" lon="7.07295">
        <ele>159.60000610352</ele>
        <time>2022-03-12T10:59:41.000Z</time>
      </trkpt>
      <trkpt lat="43.69227" lon="7.07295">
        <ele>161</ele>
        <time>2022-03-12T10:59:44.000Z</time>
      </trkpt>
      <trkpt lat="43.69237" lon="7.07295">
        <ele>162</ele>
        <time>2022-03-12T10:59:49.000Z</time>
      </trkpt>
      <trkpt lat="43.69242" lon="7.07295">
        <ele>162.60000610352</ele>
        <time>2022-03-12T10:59:51.000Z</time>
      </trkpt>
      <trkpt lat="43.69247" lon="7.07296">
        <ele>163.19999694824</ele>
        <time>2022-03-12T10:59:53.000Z</time>
      </trkpt>
      <trkpt lat="43.69254" lon="7.07298">
        <ele>164.60000610352</ele>
        <time>2022-03-12T10:59:56.000Z</time>
      </trkpt>
      <trkpt lat="43.69256" lon="7.07299">
        <ele>165</ele>
        <time>2022-03-12T10:59:57.000Z</time>
      </trkpt>
      <trkpt lat="43.6926" lon="7.073">
        <ele>165.80000305176</ele>
        <time>2022-03-12T10:59:59.000Z</time>
      </trkpt>
      <trkpt lat="43.69266" lon="7.07303">
        <ele>166.80000305176</ele>
        <time>2022-03-12T11:00:02.000Z</time>
      </trkpt>
      <trkpt lat="43.69271" lon="7.07305">
        <ele>168</ele>
        <time>2022-03-12T11:00:04.000Z</time>
      </trkpt>
      <trkpt lat="43.69277" lon="7.07308">
        <ele>169.19999694824</ele>
        <time>2022-03-12T11:00:07.000Z</time>
      </trkpt>
      <trkpt lat="43.69282" lon="7.07312">
        <ele>170.60000610352</ele>
        <time>2022-03-12T11:00:10.000Z</time>
      </trkpt>
      <trkpt lat="43.69288" lon="7.07317">
        <ele>171.80000305176</ele>
        <time>2022-03-12T11:00:13.000Z</time>
      </trkpt>
      <trkpt lat="43.69292" lon="7.0732">
        <ele>172.39999389648</ele>
        <time>2022-03-12T11:00:15.000Z</time>
      </trkpt>
      <trkpt lat="43.69296" lon="7.07323">
        <ele>173</ele>
        <time>2022-03-12T11:00:17.000Z</time>
      </trkpt>
      <trkpt lat="43.69303" lon="7.07327">
        <ele>173.60000610352</ele>
        <time>2022-03-12T11:00:20.000Z</time>
      </trkpt>
      <trkpt lat="43.69306" lon="7.07328">
        <ele>174</ele>
        <time>2022-03-12T11:00:21.000Z</time>
      </trkpt>
      <trkpt lat="43.69314" lon="7.07331">
        <ele>175.39999389648</ele>
        <time>2022-03-12T11:00:24.000Z</time>
      </trkpt>
      <trkpt lat="43.69319" lon="7.07333">
        <ele>176.39999389648</ele>
        <time>2022-03-12T11:00:26.000Z</time>
      </trkpt>
      <trkpt lat="43.69322" lon="7.07334">
        <ele>176.80000305176</ele>
        <time>2022-03-12T11:00:27.000Z</time>
      </trkpt>
      <trkpt lat="43.69333" lon="7.07336">
        <ele>178.19999694824</ele>
        <time>2022-03-12T11:00:31.000Z</time>
      </trkpt>
      <trkpt lat="43.69338" lon="7.07337">
        <ele>178.80000305176</ele>
        <time>2022-03-12T11:00:33.000Z</time>
      </trkpt>
      <trkpt lat="43.69342" lon="7.07337">
        <ele>179.60000610352</ele>
        <time>2022-03-12T11:00:35.000Z</time>
      </trkpt>
      <trkpt lat="43.69349" lon="7.07337">
        <ele>180.60000610352</ele>
        <time>2022-03-12T11:00:38.000Z</time>
      </trkpt>
      <trkpt lat="43.69351" lon="7.07336">
        <ele>181.19999694824</ele>
        <time>2022-03-12T11:00:39.000Z</time>
      </trkpt>
      <trkpt lat="43.69355" lon="7.07335">
        <ele>182.19999694824</ele>
        <time>2022-03-12T11:00:41.000Z</time>
      </trkpt>
      <trkpt lat="43.69361" lon="7.07333">
        <ele>183.39999389648</ele>
        <time>2022-03-12T11:00:43.000Z</time>
      </trkpt>
      <trkpt lat="43.69368" lon="7.07333">
        <ele>184.39999389648</ele>
        <time>2022-03-12T11:00:46.000Z</time>
      </trkpt>
      <trkpt lat="43.69373" lon="7.07332">
        <ele>185.39999389648</ele>
        <time>2022-03-12T11:00:49.000Z</time>
      </trkpt>
      <trkpt lat="43.69374" lon="7.07333">
        <ele>185.39999389648</ele>
        <time>2022-03-12T11:00:50.000Z</time>
      </trkpt>
      <trkpt lat="43.69374" lon="7.07334">
        <ele>185.60000610352</ele>
        <time>2022-03-12T11:00:51.000Z</time>
      </trkpt>
      <trkpt lat="43.69376" lon="7.07334">
        <ele>185.80000305176</ele>
        <time>2022-03-12T11:00:56.000Z</time>
      </trkpt>
      <trkpt lat="43.69376" lon="7.07335">
        <ele>185.39999389648</ele>
        <time>2022-03-12T11:01:00.000Z</time>
      </trkpt>
      <trkpt lat="43.69378" lon="7.07337">
        <ele>185.39999389648</ele>
        <time>2022-03-12T11:01:05.000Z</time>
      </trkpt>
      <trkpt lat="43.69379" lon="7.07338">
        <ele>185.39999389648</ele>
        <time>2022-03-12T11:01:06.000Z</time>
      </trkpt>
      <trkpt lat="43.69389" lon="7.0734">
        <ele>186.19999694824</ele>
        <time>2022-03-12T11:01:11.000Z</time>
      </trkpt>
      <trkpt lat="43.69393" lon="7.07338">
        <ele>186.60000610352</ele>
        <time>2022-03-12T11:01:13.000Z</time>
      </trkpt>
      <trkpt lat="43.69398" lon="7.07328">
        <ele>187.80000305176</ele>
        <time>2022-03-12T11:01:17.000Z</time>
      </trkpt>
      <trkpt lat="43.69399" lon="7.07318">
        <ele>189.19999694824</ele>
        <time>2022-03-12T11:01:20.000Z</time>
      </trkpt>
      <trkpt lat="43.69397" lon="7.07307">
        <ele>190</ele>
        <time>2022-03-12T11:01:23.000Z</time>
      </trkpt>
      <trkpt lat="43.69396" lon="7.073">
        <ele>190.19999694824</ele>
        <time>2022-03-12T11:01:25.000Z</time>
      </trkpt>
      <trkpt lat="43.69392" lon="7.07287">
        <ele>191</ele>
        <time>2022-03-12T11:01:29.000Z</time>
      </trkpt>
      <trkpt lat="43.6939" lon="7.07282">
        <ele>191.60000610352</ele>
        <time>2022-03-12T11:01:31.000Z</time>
      </trkpt>
      <trkpt lat="43.69386" lon="7.07274">
        <ele>192.60000610352</ele>
        <time>2022-03-12T11:01:34.000Z</time>
      </trkpt>
      <trkpt lat="43.69384" lon="7.07272">
        <ele>193</ele>
        <time>2022-03-12T11:01:35.000Z</time>
      </trkpt>
      <trkpt lat="43.6938" lon="7.07268">
        <ele>193.60000610352</ele>
        <time>2022-03-12T11:01:37.000Z</time>
      </trkpt>
      <trkpt lat="43.69374" lon="7.07263">
        <ele>194.60000610352</ele>
        <time>2022-03-12T11:01:40.000Z</time>
      </trkpt>
      <trkpt lat="43.69367" lon="7.0726">
        <ele>195.80000305176</ele>
        <time>2022-03-12T11:01:43.000Z</time>
      </trkpt>
      <trkpt lat="43.69356" lon="7.07254">
        <ele>196.80000305176</ele>
        <time>2022-03-12T11:01:48.000Z</time>
      </trkpt>
      <trkpt lat="43.69353" lon="7.07253">
        <ele>197</ele>
        <time>2022-03-12T11:01:49.000Z</time>
      </trkpt>
      <trkpt lat="43.69347" lon="7.07248">
        <ele>198</ele>
        <time>2022-03-12T11:01:52.000Z</time>
      </trkpt>
      <trkpt lat="43.69341" lon="7.07244">
        <ele>198.60000610352</ele>
        <time>2022-03-12T11:01:55.000Z</time>
      </trkpt>
      <trkpt lat="43.69337" lon="7.07242">
        <ele>199.19999694824</ele>
        <time>2022-03-12T11:01:57.000Z</time>
      </trkpt>
      <trkpt lat="43.6933" lon="7.07237">
        <ele>200.39999389648</ele>
        <time>2022-03-12T11:02:00.000Z</time>
      </trkpt>
      <trkpt lat="43.69327" lon="7.07235">
        <ele>200.80000305176</ele>
        <time>2022-03-12T11:02:01.000Z</time>
      </trkpt>
      <trkpt lat="43.69323" lon="7.07232">
        <ele>201.60000610352</ele>
        <time>2022-03-12T11:02:03.000Z</time>
      </trkpt>
      <trkpt lat="43.69316" lon="7.07228">
        <ele>202.60000610352</ele>
        <time>2022-03-12T11:02:06.000Z</time>
      </trkpt>
      <trkpt lat="43.6931" lon="7.07222">
        <ele>203.39999389648</ele>
        <time>2022-03-12T11:02:09.000Z</time>
      </trkpt>
      <trkpt lat="43.69304" lon="7.07216">
        <ele>203.80000305176</ele>
        <time>2022-03-12T11:02:12.000Z</time>
      </trkpt>
      <trkpt lat="43.69298" lon="7.07208">
        <ele>204.60000610352</ele>
        <time>2022-03-12T11:02:16.000Z</time>
      </trkpt>
      <trkpt lat="43.69296" lon="7.07206">
        <ele>205</ele>
        <time>2022-03-12T11:02:17.000Z</time>
      </trkpt>
      <trkpt lat="43.6929" lon="7.07195">
        <ele>206</ele>
        <time>2022-03-12T11:02:21.000Z</time>
      </trkpt>
      <trkpt lat="43.69287" lon="7.07189">
        <ele>206.60000610352</ele>
        <time>2022-03-12T11:02:23.000Z</time>
      </trkpt>
      <trkpt lat="43.69285" lon="7.07183">
        <ele>207.39999389648</ele>
        <time>2022-03-12T11:02:25.000Z</time>
      </trkpt>
      <trkpt lat="43.69284" lon="7.07171">
        <ele>208.60000610352</ele>
        <time>2022-03-12T11:02:29.000Z</time>
      </trkpt>
      <trkpt lat="43.69282" lon="7.07156">
        <ele>209.80000305176</ele>
        <time>2022-03-12T11:02:34.000Z</time>
      </trkpt>
      <trkpt lat="43.69282" lon="7.0715">
        <ele>211</ele>
        <time>2022-03-12T11:02:36.000Z</time>
      </trkpt>
      <trkpt lat="43.69282" lon="7.07146">
        <ele>211.60000610352</ele>
        <time>2022-03-12T11:02:37.000Z</time>
      </trkpt>
      <trkpt lat="43.69281" lon="7.07143">
        <ele>212</ele>
        <time>2022-03-12T11:02:38.000Z</time>
      </trkpt>
      <trkpt lat="43.69281" lon="7.07135">
        <ele>212.80000305176</ele>
        <time>2022-03-12T11:02:40.000Z</time>
      </trkpt>
      <trkpt lat="43.69281" lon="7.07132">
        <ele>213.19999694824</ele>
        <time>2022-03-12T11:02:41.000Z</time>
      </trkpt>
      <trkpt lat="43.69281" lon="7.07118">
        <ele>214.39999389648</ele>
        <time>2022-03-12T11:02:45.000Z</time>
      </trkpt>
      <trkpt lat="43.69281" lon="7.07108">
        <ele>215.60000610352</ele>
        <time>2022-03-12T11:02:48.000Z</time>
      </trkpt>
      <trkpt lat="43.69282" lon="7.07092">
        <ele>216.80000305176</ele>
        <time>2022-03-12T11:02:53.000Z</time>
      </trkpt>
      <trkpt lat="43.69282" lon="7.07088">
        <ele>217</ele>
        <time>2022-03-12T11:02:54.000Z</time>
      </trkpt>
      <trkpt lat="43.69283" lon="7.07081">
        <ele>218</ele>
        <time>2022-03-12T11:02:56.000Z</time>
      </trkpt>
      <trkpt lat="43.69285" lon="7.07068">
        <ele>219.19999694824</ele>
        <time>2022-03-12T11:03:00.000Z</time>
      </trkpt>
      <trkpt lat="43.69285" lon="7.07064">
        <ele>219.39999389648</ele>
        <time>2022-03-12T11:03:01.000Z</time>
      </trkpt>
      <trkpt lat="43.69287" lon="7.07054">
        <ele>220.19999694824</ele>
        <time>2022-03-12T11:03:04.000Z</time>
      </trkpt>
      <trkpt lat="43.69291" lon="7.07041">
        <ele>221.19999694824</ele>
        <time>2022-03-12T11:03:08.000Z</time>
      </trkpt>
      <trkpt lat="43.69292" lon="7.07038">
        <ele>221.60000610352</ele>
        <time>2022-03-12T11:03:09.000Z</time>
      </trkpt>
      <trkpt lat="43.69296" lon="7.07025">
        <ele>222.60000610352</ele>
        <time>2022-03-12T11:03:13.000Z</time>
      </trkpt>
      <trkpt lat="43.69299" lon="7.07014">
        <ele>223.80000305176</ele>
        <time>2022-03-12T11:03:16.000Z</time>
      </trkpt>
      <trkpt lat="43.69302" lon="7.07004">
        <ele>225</ele>
        <time>2022-03-12T11:03:19.000Z</time>
      </trkpt>
      <trkpt lat="43.69304" lon="7.06992">
        <ele>226.19999694824</ele>
        <time>2022-03-12T11:03:22.000Z</time>
      </trkpt>
      <trkpt lat="43.69305" lon="7.06988">
        <ele>226.39999389648</ele>
        <time>2022-03-12T11:03:23.000Z</time>
      </trkpt>
      <trkpt lat="43.69304" lon="7.06974">
        <ele>227.19999694824</ele>
        <time>2022-03-12T11:03:27.000Z</time>
      </trkpt>
      <trkpt lat="43.69302" lon="7.06968">
        <ele>228</ele>
        <time>2022-03-12T11:03:29.000Z</time>
      </trkpt>
      <trkpt lat="43.693" lon="7.06961">
        <ele>228.39999389648</ele>
        <time>2022-03-12T11:03:31.000Z</time>
      </trkpt>
      <trkpt lat="43.69295" lon="7.06951">
        <ele>229.80000305176</ele>
        <time>2022-03-12T11:03:34.000Z</time>
      </trkpt>
      <trkpt lat="43.69292" lon="7.06945">
        <ele>231</ele>
        <time>2022-03-12T11:03:36.000Z</time>
      </trkpt>
      <trkpt lat="43.69289" lon="7.0694">
        <ele>231.60000610352</ele>
        <time>2022-03-12T11:03:38.000Z</time>
      </trkpt>
      <trkpt lat="43.69285" lon="7.06935">
        <ele>232.19999694824</ele>
        <time>2022-03-12T11:03:40.000Z</time>
      </trkpt>
      <trkpt lat="43.69283" lon="7.06932">
        <ele>232.39999389648</ele>
        <time>2022-03-12T11:03:41.000Z</time>
      </trkpt>
      <trkpt lat="43.69279" lon="7.06924">
        <ele>233.39999389648</ele>
        <time>2022-03-12T11:03:44.000Z</time>
      </trkpt>
      <trkpt lat="43.69279" lon="7.06917">
        <ele>234</ele>
        <time>2022-03-12T11:03:46.000Z</time>
      </trkpt>
      <trkpt lat="43.69284" lon="7.06915">
        <ele>234.60000610352</ele>
        <time>2022-03-12T11:03:49.000Z</time>
      </trkpt>
      <trkpt lat="43.69286" lon="7.06916">
        <ele>235</ele>
        <time>2022-03-12T11:03:50.000Z</time>
      </trkpt>
      <trkpt lat="43.69293" lon="7.0692">
        <ele>235.60000610352</ele>
        <time>2022-03-12T11:03:53.000Z</time>
      </trkpt>
      <trkpt lat="43.693" lon="7.06925">
        <ele>235.60000610352</ele>
        <time>2022-03-12T11:03:56.000Z</time>
      </trkpt>
      <trkpt lat="43.69317" lon="7.06934">
        <ele>237</ele>
        <time>2022-03-12T11:04:03.000Z</time>
      </trkpt>
      <trkpt lat="43.69329" lon="7.06942">
        <ele>238.39999389648</ele>
        <time>2022-03-12T11:04:08.000Z</time>
      </trkpt>
      <trkpt lat="43.69336" lon="7.06947">
        <ele>239.39999389648</ele>
        <time>2022-03-12T11:04:11.000Z</time>
      </trkpt>
      <trkpt lat="43.69345" lon="7.0696">
        <ele>239.80000305176</ele>
        <time>2022-03-12T11:04:17.000Z</time>
      </trkpt>
      <trkpt lat="43.69352" lon="7.06973">
        <ele>240.60000610352</ele>
        <time>2022-03-12T11:04:22.000Z</time>
      </trkpt>
      <trkpt lat="43.69357" lon="7.06974">
        <ele>240.80000305176</ele>
        <time>2022-03-12T11:04:24.000Z</time>
      </trkpt>
      <trkpt lat="43.69359" lon="7.06969">
        <ele>241.19999694824</ele>
        <time>2022-03-12T11:04:26.000Z</time>
      </trkpt>
      <trkpt lat="43.6936" lon="7.06962">
        <ele>241.60000610352</ele>
        <time>2022-03-12T11:04:28.000Z</time>
      </trkpt>
      <trkpt lat="43.6936" lon="7.06951">
        <ele>242.80000305176</ele>
        <time>2022-03-12T11:04:31.000Z</time>
      </trkpt>
      <trkpt lat="43.69359" lon="7.06944">
        <ele>243.39999389648</ele>
        <time>2022-03-12T11:04:33.000Z</time>
      </trkpt>
      <trkpt lat="43.69358" lon="7.06936">
        <ele>243.80000305176</ele>
        <time>2022-03-12T11:04:35.000Z</time>
      </trkpt>
      <trkpt lat="43.69355" lon="7.06927">
        <ele>244.19999694824</ele>
        <time>2022-03-12T11:04:38.000Z</time>
      </trkpt>
      <trkpt lat="43.69355" lon="7.06914">
        <ele>245</ele>
        <time>2022-03-12T11:04:42.000Z</time>
      </trkpt>
      <trkpt lat="43.69357" lon="7.06912">
        <ele>245.39999389648</ele>
        <time>2022-03-12T11:04:43.000Z</time>
      </trkpt>
      <trkpt lat="43.69364" lon="7.06916">
        <ele>246.39999389648</ele>
        <time>2022-03-12T11:04:46.000Z</time>
      </trkpt>
      <trkpt lat="43.69371" lon="7.0692">
        <ele>247.39999389648</ele>
        <time>2022-03-12T11:04:49.000Z</time>
      </trkpt>
      <trkpt lat="43.69373" lon="7.06921">
        <ele>247.39999389648</ele>
        <time>2022-03-12T11:04:50.000Z</time>
      </trkpt>
      <trkpt lat="43.69376" lon="7.06922">
        <ele>247.39999389648</ele>
        <time>2022-03-12T11:04:51.000Z</time>
      </trkpt>
      <trkpt lat="43.69387" lon="7.0692">
        <ele>248</ele>
        <time>2022-03-12T11:04:56.000Z</time>
      </trkpt>
      <trkpt lat="43.69393" lon="7.06915">
        <ele>248.80000305176</ele>
        <time>2022-03-12T11:04:59.000Z</time>
      </trkpt>
      <trkpt lat="43.69399" lon="7.06908">
        <ele>249.60000610352</ele>
        <time>2022-03-12T11:05:02.000Z</time>
      </trkpt>
      <trkpt lat="43.69401" lon="7.06906">
        <ele>249.80000305176</ele>
        <time>2022-03-12T11:05:03.000Z</time>
      </trkpt>
      <trkpt lat="43.6941" lon="7.06901">
        <ele>251</ele>
        <time>2022-03-12T11:05:07.000Z</time>
      </trkpt>
      <trkpt lat="43.69412" lon="7.069">
        <ele>251.39999389648</ele>
        <time>2022-03-12T11:05:08.000Z</time>
      </trkpt>
      <trkpt lat="43.69419" lon="7.06898">
        <ele>252.19999694824</ele>
        <time>2022-03-12T11:05:11.000Z</time>
      </trkpt>
      <trkpt lat="43.69428" lon="7.06897">
        <ele>253.19999694824</ele>
        <time>2022-03-12T11:05:15.000Z</time>
      </trkpt>
      <trkpt lat="43.69431" lon="7.06897">
        <ele>253.60000610352</ele>
        <time>2022-03-12T11:05:16.000Z</time>
      </trkpt>
      <trkpt lat="43.69441" lon="7.06896">
        <ele>254.39999389648</ele>
        <time>2022-03-12T11:05:21.000Z</time>
      </trkpt>
      <trkpt lat="43.69446" lon="7.06896">
        <ele>255.19999694824</ele>
        <time>2022-03-12T11:05:24.000Z</time>
      </trkpt>
      <trkpt lat="43.69447" lon="7.06895">
        <ele>255.60000610352</ele>
        <time>2022-03-12T11:05:25.000Z</time>
      </trkpt>
      <trkpt lat="43.69454" lon="7.06894">
        <ele>256.79998779297</ele>
        <time>2022-03-12T11:05:29.000Z</time>
      </trkpt>
      <trkpt lat="43.6946" lon="7.06894">
        <ele>257.39999389648</ele>
        <time>2022-03-12T11:05:32.000Z</time>
      </trkpt>
      <trkpt lat="43.69464" lon="7.06896">
        <ele>257.79998779297</ele>
        <time>2022-03-12T11:05:34.000Z</time>
      </trkpt>
      <trkpt lat="43.69472" lon="7.06901">
        <ele>258.60000610352</ele>
        <time>2022-03-12T11:05:38.000Z</time>
      </trkpt>
      <trkpt lat="43.69474" lon="7.06902">
        <ele>258.79998779297</ele>
        <time>2022-03-12T11:05:39.000Z</time>
      </trkpt>
      <trkpt lat="43.69487" lon="7.06911">
        <ele>259.79998779297</ele>
        <time>2022-03-12T11:05:46.000Z</time>
      </trkpt>
      <trkpt lat="43.69493" lon="7.06915">
        <ele>261</ele>
        <time>2022-03-12T11:05:49.000Z</time>
      </trkpt>
      <trkpt lat="43.69502" lon="7.06922">
        <ele>261.39999389648</ele>
        <time>2022-03-12T11:05:53.000Z</time>
      </trkpt>
      <trkpt lat="43.69514" lon="7.0693">
        <ele>262</ele>
        <time>2022-03-12T11:05:59.000Z</time>
      </trkpt>
      <trkpt lat="43.69519" lon="7.06932">
        <ele>262.39999389648</ele>
        <time>2022-03-12T11:06:01.000Z</time>
      </trkpt>
      <trkpt lat="43.69534" lon="7.06938">
        <ele>263</ele>
        <time>2022-03-12T11:06:07.000Z</time>
      </trkpt>
      <trkpt lat="43.69536" lon="7.06939">
        <ele>263.20001220703</ele>
        <time>2022-03-12T11:06:08.000Z</time>
      </trkpt>
      <trkpt lat="43.69547" lon="7.06946">
        <ele>264.20001220703</ele>
        <time>2022-03-12T11:06:13.000Z</time>
      </trkpt>
      <trkpt lat="43.69549" lon="7.06947">
        <ele>264.39999389648</ele>
        <time>2022-03-12T11:06:14.000Z</time>
      </trkpt>
      <trkpt lat="43.69556" lon="7.06951">
        <ele>265.39999389648</ele>
        <time>2022-03-12T11:06:18.000Z</time>
      </trkpt>
      <trkpt lat="43.69558" lon="7.06952">
        <ele>265.60000610352</ele>
        <time>2022-03-12T11:06:19.000Z</time>
      </trkpt>
      <trkpt lat="43.69565" lon="7.06957">
        <ele>266.39999389648</ele>
        <time>2022-03-12T11:06:22.000Z</time>
      </trkpt>
      <trkpt lat="43.69571" lon="7.06961">
        <ele>267.20001220703</ele>
        <time>2022-03-12T11:06:25.000Z</time>
      </trkpt>
      <trkpt lat="43.69574" lon="7.06962">
        <ele>267.60000610352</ele>
        <time>2022-03-12T11:06:27.000Z</time>
      </trkpt>
      <trkpt lat="43.6958" lon="7.06966">
        <ele>268.20001220703</ele>
        <time>2022-03-12T11:06:31.000Z</time>
      </trkpt>
      <trkpt lat="43.69583" lon="7.06968">
        <ele>268.60000610352</ele>
        <time>2022-03-12T11:06:33.000Z</time>
      </trkpt>
      <trkpt lat="43.69585" lon="7.06969">
        <ele>269</ele>
        <time>2022-03-12T11:06:37.000Z</time>
      </trkpt>
      <trkpt lat="43.69589" lon="7.06968">
        <ele>269.60000610352</ele>
        <time>2022-03-12T11:06:43.000Z</time>
      </trkpt>
      <trkpt lat="43.69591" lon="7.06968">
        <ele>270</ele>
        <time>2022-03-12T11:06:46.000Z</time>
      </trkpt>
      <trkpt lat="43.69592" lon="7.06967">
        <ele>270</ele>
        <time>2022-03-12T11:06:47.000Z</time>
      </trkpt>
      <trkpt lat="43.69594" lon="7.06965">
        <ele>269.60000610352</ele>
        <time>2022-03-12T11:06:53.000Z</time>
      </trkpt>
      <trkpt lat="43.69597" lon="7.06964">
        <ele>269.39999389648</ele>
        <time>2022-03-12T11:07:04.000Z</time>
      </trkpt>
      <trkpt lat="43.69599" lon="7.06963">
        <ele>269.20001220703</ele>
        <time>2022-03-12T11:07:15.000Z</time>
      </trkpt>
      <trkpt lat="43.696" lon="7.06962">
        <ele>269.39999389648</ele>
        <time>2022-03-12T11:07:24.000Z</time>
      </trkpt>
      <trkpt lat="43.696" lon="7.06965">
        <ele>269.60000610352</ele>
        <time>2022-03-12T11:07:29.000Z</time>
      </trkpt>
      <trkpt lat="43.69598" lon="7.06965">
        <ele>270</ele>
        <time>2022-03-12T11:07:35.000Z</time>
      </trkpt>
      <trkpt lat="43.69596" lon="7.06967">
        <ele>269.79998779297</ele>
        <time>2022-03-12T11:07:44.000Z</time>
      </trkpt>
      <trkpt lat="43.69593" lon="7.0697">
        <ele>270</ele>
        <time>2022-03-12T11:07:57.000Z</time>
      </trkpt>
      <trkpt lat="43.69591" lon="7.06973">
        <ele>269.39999389648</ele>
        <time>2022-03-12T11:08:09.000Z</time>
      </trkpt>
      <trkpt lat="43.6959" lon="7.06976">
        <ele>269.79998779297</ele>
        <time>2022-03-12T11:08:17.000Z</time>
      </trkpt>
      <trkpt lat="43.69589" lon="7.06977">
        <ele>270</ele>
        <time>2022-03-12T11:08:31.000Z</time>
      </trkpt>
      <trkpt lat="43.69589" lon="7.06977">
        <ele>270</ele>
        <time>2022-03-12T11:08:44.000Z</time>
      </trkpt>
      <trkpt lat="43.69588" lon="7.06978">
        <ele>270.20001220703</ele>
        <time>2022-03-12T11:08:52.000Z</time>
      </trkpt>
      <trkpt lat="43.69587" lon="7.06978">
        <ele>270.79998779297</ele>
        <time>2022-03-12T11:08:55.000Z</time>
      </trkpt>
      <trkpt lat="43.69587" lon="7.06979">
        <ele>270.79998779297</ele>
        <time>2022-03-12T11:09:03.000Z</time>
      </trkpt>
      <trkpt lat="43.69588" lon="7.0698">
        <ele>270.20001220703</ele>
        <time>2022-03-12T11:09:20.000Z</time>
      </trkpt>
      <trkpt lat="43.69589" lon="7.0698">
        <ele>270.60000610352</ele>
        <time>2022-03-12T11:09:30.000Z</time>
      </trkpt>
      <trkpt lat="43.69589" lon="7.0698">
        <ele>270.79998779297</ele>
        <time>2022-03-12T11:09:41.000Z</time>
      </trkpt>
      <trkpt lat="43.69591" lon="7.06981">
        <ele>271</ele>
        <time>2022-03-12T11:09:49.000Z</time>
      </trkpt>
      <trkpt lat="43.69592" lon="7.06979">
        <ele>271</ele>
        <time>2022-03-12T11:09:54.000Z</time>
      </trkpt>
      <trkpt lat="43.69594" lon="7.06979">
        <ele>271.20001220703</ele>
        <time>2022-03-12T11:09:59.000Z</time>
      </trkpt>
      <trkpt lat="43.69599" lon="7.06981">
        <ele>271.39999389648</ele>
        <time>2022-03-12T11:10:05.000Z</time>
      </trkpt>
      <trkpt lat="43.69606" lon="7.06986">
        <ele>271.60000610352</ele>
        <time>2022-03-12T11:10:10.000Z</time>
      </trkpt>
      <trkpt lat="43.69613" lon="7.06989">
        <ele>272</ele>
        <time>2022-03-12T11:10:13.000Z</time>
      </trkpt>
      <trkpt lat="43.69618" lon="7.06991">
        <ele>272.39999389648</ele>
        <time>2022-03-12T11:10:16.000Z</time>
      </trkpt>
      <trkpt lat="43.69622" lon="7.06995">
        <ele>273</ele>
        <time>2022-03-12T11:10:18.000Z</time>
      </trkpt>
      <trkpt lat="43.69626" lon="7.07001">
        <ele>273.60000610352</ele>
        <time>2022-03-12T11:10:21.000Z</time>
      </trkpt>
      <trkpt lat="43.69632" lon="7.07009">
        <ele>274</ele>
        <time>2022-03-12T11:10:25.000Z</time>
      </trkpt>
      <trkpt lat="43.69635" lon="7.07013">
        <ele>274.39999389648</ele>
        <time>2022-03-12T11:10:27.000Z</time>
      </trkpt>
      <trkpt lat="43.69644" lon="7.07019">
        <ele>275</ele>
        <time>2022-03-12T11:10:32.000Z</time>
      </trkpt>
      <trkpt lat="43.69652" lon="7.07021">
        <ele>276.20001220703</ele>
        <time>2022-03-12T11:10:37.000Z</time>
      </trkpt>
      <trkpt lat="43.69655" lon="7.0702">
        <ele>276.39999389648</ele>
        <time>2022-03-12T11:10:39.000Z</time>
      </trkpt>
      <trkpt lat="43.69662" lon="7.07013">
        <ele>277.39999389648</ele>
        <time>2022-03-12T11:10:44.000Z</time>
      </trkpt>
      <trkpt lat="43.69663" lon="7.07011">
        <ele>277.60000610352</ele>
        <time>2022-03-12T11:10:45.000Z</time>
      </trkpt>
      <trkpt lat="43.69667" lon="7.06999">
        <ele>278.39999389648</ele>
        <time>2022-03-12T11:10:50.000Z</time>
      </trkpt>
      <trkpt lat="43.69671" lon="7.06985">
        <ele>279.39999389648</ele>
        <time>2022-03-12T11:10:55.000Z</time>
      </trkpt>
      <trkpt lat="43.69672" lon="7.06982">
        <ele>279.60000610352</ele>
        <time>2022-03-12T11:10:56.000Z</time>
      </trkpt>
      <trkpt lat="43.69677" lon="7.0697">
        <ele>280.79998779297</ele>
        <time>2022-03-12T11:11:00.000Z</time>
      </trkpt>
      <trkpt lat="43.69679" lon="7.06967">
        <ele>281.39999389648</ele>
        <time>2022-03-12T11:11:01.000Z</time>
      </trkpt>
      <trkpt lat="43.69683" lon="7.06961">
        <ele>282.20001220703</ele>
        <time>2022-03-12T11:11:03.000Z</time>
      </trkpt>
      <trkpt lat="43.69693" lon="7.06951">
        <ele>283.20001220703</ele>
        <time>2022-03-12T11:11:07.000Z</time>
      </trkpt>
      <trkpt lat="43.69695" lon="7.06949">
        <ele>283.39999389648</ele>
        <time>2022-03-12T11:11:08.000Z</time>
      </trkpt>
      <trkpt lat="43.69706" lon="7.06941">
        <ele>284.39999389648</ele>
        <time>2022-03-12T11:11:12.000Z</time>
      </trkpt>
      <trkpt lat="43.69714" lon="7.06937">
        <ele>285.60000610352</ele>
        <time>2022-03-12T11:11:15.000Z</time>
      </trkpt>
      <trkpt lat="43.69726" lon="7.06933">
        <ele>286.60000610352</ele>
        <time>2022-03-12T11:11:20.000Z</time>
      </trkpt>
      <trkpt lat="43.69735" lon="7.06928">
        <ele>287.79998779297</ele>
        <time>2022-03-12T11:11:24.000Z</time>
      </trkpt>
      <trkpt lat="43.69744" lon="7.06922">
        <ele>288.79998779297</ele>
        <time>2022-03-12T11:11:28.000Z</time>
      </trkpt>
      <trkpt lat="43.69753" lon="7.06917">
        <ele>290</ele>
        <time>2022-03-12T11:11:32.000Z</time>
      </trkpt>
      <trkpt lat="43.69756" lon="7.06917">
        <ele>290.20001220703</ele>
        <time>2022-03-12T11:11:33.000Z</time>
      </trkpt>
      <trkpt lat="43.69763" lon="7.06916">
        <ele>291.20001220703</ele>
        <time>2022-03-12T11:11:36.000Z</time>
      </trkpt>
      <trkpt lat="43.69767" lon="7.06921">
        <ele>292.20001220703</ele>
        <time>2022-03-12T11:11:39.000Z</time>
      </trkpt>
      <trkpt lat="43.69771" lon="7.0693">
        <ele>293.20001220703</ele>
        <time>2022-03-12T11:11:42.000Z</time>
      </trkpt>
      <trkpt lat="43.69776" lon="7.06938">
        <ele>294.20001220703</ele>
        <time>2022-03-12T11:11:45.000Z</time>
      </trkpt>
      <trkpt lat="43.69778" lon="7.0694">
        <ele>294.39999389648</ele>
        <time>2022-03-12T11:11:46.000Z</time>
      </trkpt>
      <trkpt lat="43.69787" lon="7.06948">
        <ele>295.39999389648</ele>
        <time>2022-03-12T11:11:50.000Z</time>
      </trkpt>
      <trkpt lat="43.6979" lon="7.06954">
        <ele>296.20001220703</ele>
        <time>2022-03-12T11:11:52.000Z</time>
      </trkpt>
      <trkpt lat="43.69792" lon="7.06957">
        <ele>296.60000610352</ele>
        <time>2022-03-12T11:11:53.000Z</time>
      </trkpt>
      <trkpt lat="43.69797" lon="7.06966">
        <ele>297.79998779297</ele>
        <time>2022-03-12T11:11:56.000Z</time>
      </trkpt>
      <trkpt lat="43.69803" lon="7.06977">
        <ele>298.79998779297</ele>
        <time>2022-03-12T11:11:59.000Z</time>
      </trkpt>
      <trkpt lat="43.6981" lon="7.0699">
        <ele>300</ele>
        <time>2022-03-12T11:12:03.000Z</time>
      </trkpt>
      <trkpt lat="43.69812" lon="7.06993">
        <ele>300.20001220703</ele>
        <time>2022-03-12T11:12:04.000Z</time>
      </trkpt>
      <trkpt lat="43.69819" lon="7.07011">
        <ele>301.20001220703</ele>
        <time>2022-03-12T11:12:09.000Z</time>
      </trkpt>
      <trkpt lat="43.69825" lon="7.07019">
        <ele>302.39999389648</ele>
        <time>2022-03-12T11:12:12.000Z</time>
      </trkpt>
      <trkpt lat="43.69832" lon="7.07024">
        <ele>303.60000610352</ele>
        <time>2022-03-12T11:12:15.000Z</time>
      </trkpt>
      <trkpt lat="43.6984" lon="7.07031">
        <ele>304.60000610352</ele>
        <time>2022-03-12T11:12:18.000Z</time>
      </trkpt>
      <trkpt lat="43.69843" lon="7.07033">
        <ele>304.79998779297</ele>
        <time>2022-03-12T11:12:19.000Z</time>
      </trkpt>
      <trkpt lat="43.6985" lon="7.07039">
        <ele>306.20001220703</ele>
        <time>2022-03-12T11:12:22.000Z</time>
      </trkpt>
      <trkpt lat="43.69861" lon="7.07049">
        <ele>307.39999389648</ele>
        <time>2022-03-12T11:12:26.000Z</time>
      </trkpt>
      <trkpt lat="43.69863" lon="7.07051">
        <ele>307.60000610352</ele>
        <time>2022-03-12T11:12:27.000Z</time>
      </trkpt>
      <trkpt lat="43.69871" lon="7.0706">
        <ele>308.60000610352</ele>
        <time>2022-03-12T11:12:31.000Z</time>
      </trkpt>
      <trkpt lat="43.69875" lon="7.07066">
        <ele>309.20001220703</ele>
        <time>2022-03-12T11:12:33.000Z</time>
      </trkpt>
      <trkpt lat="43.6988" lon="7.07071">
        <ele>309.60000610352</ele>
        <time>2022-03-12T11:12:35.000Z</time>
      </trkpt>
      <trkpt lat="43.6989" lon="7.07086">
        <ele>310.79998779297</ele>
        <time>2022-03-12T11:12:40.000Z</time>
      </trkpt>
      <trkpt lat="43.69901" lon="7.07094">
        <ele>312</ele>
        <time>2022-03-12T11:12:45.000Z</time>
      </trkpt>
      <trkpt lat="43.69903" lon="7.07093">
        <ele>312.39999389648</ele>
        <time>2022-03-12T11:12:46.000Z</time>
      </trkpt>
      <trkpt lat="43.69908" lon="7.07091">
        <ele>313.39999389648</ele>
        <time>2022-03-12T11:12:48.000Z</time>
      </trkpt>
      <trkpt lat="43.69912" lon="7.07088">
        <ele>314.39999389648</ele>
        <time>2022-03-12T11:12:50.000Z</time>
      </trkpt>
      <trkpt lat="43.69916" lon="7.07085">
        <ele>315.39999389648</ele>
        <time>2022-03-12T11:12:52.000Z</time>
      </trkpt>
      <trkpt lat="43.69918" lon="7.07083">
        <ele>315.79998779297</ele>
        <time>2022-03-12T11:12:53.000Z</time>
      </trkpt>
      <trkpt lat="43.69927" lon="7.07071">
        <ele>317</ele>
        <time>2022-03-12T11:12:57.000Z</time>
      </trkpt>
      <trkpt lat="43.69936" lon="7.07054">
        <ele>318</ele>
        <time>2022-03-12T11:13:02.000Z</time>
      </trkpt>
      <trkpt lat="43.69941" lon="7.07045">
        <ele>319</ele>
        <time>2022-03-12T11:13:05.000Z</time>
      </trkpt>
      <trkpt lat="43.69943" lon="7.07041">
        <ele>319.39999389648</ele>
        <time>2022-03-12T11:13:06.000Z</time>
      </trkpt>
      <trkpt lat="43.69946" lon="7.07034">
        <ele>320.20001220703</ele>
        <time>2022-03-12T11:13:08.000Z</time>
      </trkpt>
      <trkpt lat="43.6995" lon="7.07026">
        <ele>321.60000610352</ele>
        <time>2022-03-12T11:13:11.000Z</time>
      </trkpt>
      <trkpt lat="43.69955" lon="7.07018">
        <ele>323</ele>
        <time>2022-03-12T11:13:14.000Z</time>
      </trkpt>
      <trkpt lat="43.69967" lon="7.0701">
        <ele>323.79998779297</ele>
        <time>2022-03-12T11:13:19.000Z</time>
      </trkpt>
      <trkpt lat="43.6997" lon="7.0701">
        <ele>324</ele>
        <time>2022-03-12T11:13:20.000Z</time>
      </trkpt>
      <trkpt lat="43.69981" lon="7.07011">
        <ele>324.79998779297</ele>
        <time>2022-03-12T11:13:24.000Z</time>
      </trkpt>
      <trkpt lat="43.69985" lon="7.07015">
        <ele>325.20001220703</ele>
        <time>2022-03-12T11:13:26.000Z</time>
      </trkpt>
      <trkpt lat="43.6999" lon="7.07023">
        <ele>326.39999389648</ele>
        <time>2022-03-12T11:13:29.000Z</time>
      </trkpt>
      <trkpt lat="43.69995" lon="7.0704">
        <ele>327.60000610352</ele>
        <time>2022-03-12T11:13:34.000Z</time>
      </trkpt>
      <trkpt lat="43.69995" lon="7.07044">
        <ele>327.79998779297</ele>
        <time>2022-03-12T11:13:35.000Z</time>
      </trkpt>
      <trkpt lat="43.69999" lon="7.07056">
        <ele>328.79998779297</ele>
        <time>2022-03-12T11:13:38.000Z</time>
      </trkpt>
      <trkpt lat="43.70001" lon="7.07061">
        <ele>329.20001220703</ele>
        <time>2022-03-12T11:13:40.000Z</time>
      </trkpt>
      <trkpt lat="43.70006" lon="7.07075">
        <ele>330</ele>
        <time>2022-03-12T11:13:44.000Z</time>
      </trkpt>
      <trkpt lat="43.70009" lon="7.07084">
        <ele>331</ele>
        <time>2022-03-12T11:13:47.000Z</time>
      </trkpt>
      <trkpt lat="43.70013" lon="7.07096">
        <ele>332.20001220703</ele>
        <time>2022-03-12T11:13:51.000Z</time>
      </trkpt>
      <trkpt lat="43.70017" lon="7.07099">
        <ele>333</ele>
        <time>2022-03-12T11:13:53.000Z</time>
      </trkpt>
      <trkpt lat="43.70019" lon="7.07099">
        <ele>333.20001220703</ele>
        <time>2022-03-12T11:13:54.000Z</time>
      </trkpt>
      <trkpt lat="43.70026" lon="7.07097">
        <ele>334.20001220703</ele>
        <time>2022-03-12T11:13:57.000Z</time>
      </trkpt>
      <trkpt lat="43.70028" lon="7.07096">
        <ele>334.60000610352</ele>
        <time>2022-03-12T11:13:58.000Z</time>
      </trkpt>
      <trkpt lat="43.70034" lon="7.07091">
        <ele>335.60000610352</ele>
        <time>2022-03-12T11:14:02.000Z</time>
      </trkpt>
      <trkpt lat="43.70036" lon="7.0709">
        <ele>335.79998779297</ele>
        <time>2022-03-12T11:14:03.000Z</time>
      </trkpt>
      <trkpt lat="43.70044" lon="7.07085">
        <ele>336.79998779297</ele>
        <time>2022-03-12T11:14:08.000Z</time>
      </trkpt>
      <trkpt lat="43.70046" lon="7.07085">
        <ele>337</ele>
        <time>2022-03-12T11:14:09.000Z</time>
      </trkpt>
      <trkpt lat="43.70045" lon="7.0709">
        <ele>337.39999389648</ele>
        <time>2022-03-12T11:14:12.000Z</time>
      </trkpt>
      <trkpt lat="43.70037" lon="7.07092">
        <ele>337.60000610352</ele>
        <time>2022-03-12T11:14:17.000Z</time>
      </trkpt>
      <trkpt lat="43.70032" lon="7.07094">
        <ele>336.60000610352</ele>
        <time>2022-03-12T11:14:22.000Z</time>
      </trkpt>
      <trkpt lat="43.70026" lon="7.07098">
        <ele>335.60000610352</ele>
        <time>2022-03-12T11:14:29.000Z</time>
      </trkpt>
      <trkpt lat="43.70025" lon="7.071">
        <ele>335.20001220703</ele>
        <time>2022-03-12T11:14:32.000Z</time>
      </trkpt>
      <trkpt lat="43.70026" lon="7.07102">
        <ele>335</ele>
        <time>2022-03-12T11:14:34.000Z</time>
      </trkpt>
      <trkpt lat="43.70028" lon="7.07101">
        <ele>335</ele>
        <time>2022-03-12T11:14:36.000Z</time>
      </trkpt>
      <trkpt lat="43.70032" lon="7.07096">
        <ele>335.20001220703</ele>
        <time>2022-03-12T11:14:38.000Z</time>
      </trkpt>
      <trkpt lat="43.70046" lon="7.0709">
        <ele>336.60000610352</ele>
        <time>2022-03-12T11:14:43.000Z</time>
      </trkpt>
      <trkpt lat="43.70054" lon="7.07093">
        <ele>337.79998779297</ele>
        <time>2022-03-12T11:14:46.000Z</time>
      </trkpt>
      <trkpt lat="43.70061" lon="7.07096">
        <ele>338.20001220703</ele>
        <time>2022-03-12T11:14:48.000Z</time>
      </trkpt>
      <trkpt lat="43.70072" lon="7.07104">
        <ele>339</ele>
        <time>2022-03-12T11:14:52.000Z</time>
      </trkpt>
      <trkpt lat="43.70075" lon="7.07106">
        <ele>339.20001220703</ele>
        <time>2022-03-12T11:14:53.000Z</time>
      </trkpt>
      <trkpt lat="43.70083" lon="7.07114">
        <ele>340.20001220703</ele>
        <time>2022-03-12T11:14:56.000Z</time>
      </trkpt>
      <trkpt lat="43.70097" lon="7.07129">
        <ele>341</ele>
        <time>2022-03-12T11:15:01.000Z</time>
      </trkpt>
      <trkpt lat="43.70102" lon="7.07135">
        <ele>341.39999389648</ele>
        <time>2022-03-12T11:15:03.000Z</time>
      </trkpt>
      <trkpt lat="43.70116" lon="7.07152">
        <ele>342.39999389648</ele>
        <time>2022-03-12T11:15:08.000Z</time>
      </trkpt>
      <trkpt lat="43.70121" lon="7.0716">
        <ele>342.60000610352</ele>
        <time>2022-03-12T11:15:10.000Z</time>
      </trkpt>
      <trkpt lat="43.7014" lon="7.07187">
        <ele>342.60000610352</ele>
        <time>2022-03-12T11:15:17.000Z</time>
      </trkpt>
      <trkpt lat="43.70164" lon="7.07207">
        <ele>343</ele>
        <time>2022-03-12T11:15:24.000Z</time>
      </trkpt>
      <trkpt lat="43.70185" lon="7.0723">
        <ele>342</ele>
        <time>2022-03-12T11:15:31.000Z</time>
      </trkpt>
      <trkpt lat="43.70189" lon="7.07237">
        <ele>342.20001220703</ele>
        <time>2022-03-12T11:15:35.000Z</time>
      </trkpt>
      <trkpt lat="43.7019" lon="7.07238">
        <ele>342.20001220703</ele>
        <time>2022-03-12T11:15:36.000Z</time>
      </trkpt>
      <trkpt lat="43.70194" lon="7.07236">
        <ele>341.79998779297</ele>
        <time>2022-03-12T11:15:41.000Z</time>
      </trkpt>
      <trkpt lat="43.70193" lon="7.07234">
        <ele>341.79998779297</ele>
        <time>2022-03-12T11:15:43.000Z</time>
      </trkpt>
      <trkpt lat="43.70191" lon="7.07232">
        <ele>341.79998779297</ele>
        <time>2022-03-12T11:15:45.000Z</time>
      </trkpt>
      <trkpt lat="43.70189" lon="7.07234">
        <ele>342</ele>
        <time>2022-03-12T11:15:50.000Z</time>
      </trkpt>
      <trkpt lat="43.70188" lon="7.07236">
        <ele>342</ele>
        <time>2022-03-12T11:15:51.000Z</time>
      </trkpt>
      <trkpt lat="43.70189" lon="7.07238">
        <ele>342</ele>
        <time>2022-03-12T11:15:53.000Z</time>
      </trkpt>
      <trkpt lat="43.70192" lon="7.07238">
        <ele>342</ele>
        <time>2022-03-12T11:15:56.000Z</time>
      </trkpt>
      <trkpt lat="43.70203" lon="7.07233">
        <ele>341.79998779297</ele>
        <time>2022-03-12T11:16:03.000Z</time>
      </trkpt>
      <trkpt lat="43.70207" lon="7.0723">
        <ele>341.39999389648</ele>
        <time>2022-03-12T11:16:05.000Z</time>
      </trkpt>
      <trkpt lat="43.70219" lon="7.07222">
        <ele>340.60000610352</ele>
        <time>2022-03-12T11:16:09.000Z</time>
      </trkpt>
      <trkpt lat="43.70222" lon="7.0722">
        <ele>340.20001220703</ele>
        <time>2022-03-12T11:16:10.000Z</time>
      </trkpt>
      <trkpt lat="43.70233" lon="7.07208">
        <ele>339.39999389648</ele>
        <time>2022-03-12T11:16:15.000Z</time>
      </trkpt>
      <trkpt lat="43.70237" lon="7.07204">
        <ele>339.20001220703</ele>
        <time>2022-03-12T11:16:17.000Z</time>
      </trkpt>
      <trkpt lat="43.70241" lon="7.07198">
        <ele>339</ele>
        <time>2022-03-12T11:16:19.000Z</time>
      </trkpt>
      <trkpt lat="43.70241" lon="7.07197">
        <ele>339</ele>
        <time>2022-03-12T11:16:20.000Z</time>
      </trkpt>
      <trkpt lat="43.70252" lon="7.07175">
        <ele>339.20001220703</ele>
        <time>2022-03-12T11:16:26.000Z</time>
      </trkpt>
      <trkpt lat="43.70262" lon="7.07153">
        <ele>339</ele>
        <time>2022-03-12T11:16:33.000Z</time>
      </trkpt>
      <trkpt lat="43.70276" lon="7.0713">
        <ele>338.79998779297</ele>
        <time>2022-03-12T11:16:41.000Z</time>
      </trkpt>
      <trkpt lat="43.70285" lon="7.07111">
        <ele>338</ele>
        <time>2022-03-12T11:16:46.000Z</time>
      </trkpt>
      <trkpt lat="43.70286" lon="7.07107">
        <ele>338</ele>
        <time>2022-03-12T11:16:47.000Z</time>
      </trkpt>
      <trkpt lat="43.70296" lon="7.07084">
        <ele>337.60000610352</ele>
        <time>2022-03-12T11:16:54.000Z</time>
      </trkpt>
      <trkpt lat="43.70303" lon="7.07065">
        <ele>337.60000610352</ele>
        <time>2022-03-12T11:17:00.000Z</time>
      </trkpt>
      <trkpt lat="43.7031" lon="7.07043">
        <ele>336.60000610352</ele>
        <time>2022-03-12T11:17:05.000Z</time>
      </trkpt>
      <trkpt lat="43.70314" lon="7.07029">
        <ele>335.39999389648</ele>
        <time>2022-03-12T11:17:08.000Z</time>
      </trkpt>
      <trkpt lat="43.70319" lon="7.07012">
        <ele>334.20001220703</ele>
        <time>2022-03-12T11:17:12.000Z</time>
      </trkpt>
      <trkpt lat="43.70321" lon="7.07003">
        <ele>333.79998779297</ele>
        <time>2022-03-12T11:17:14.000Z</time>
      </trkpt>
      <trkpt lat="43.70322" lon="7.06977">
        <ele>333.20001220703</ele>
        <time>2022-03-12T11:17:19.000Z</time>
      </trkpt>
      <trkpt lat="43.70323" lon="7.06973">
        <ele>333.20001220703</ele>
        <time>2022-03-12T11:17:20.000Z</time>
      </trkpt>
      <trkpt lat="43.70333" lon="7.06958">
        <ele>332.20001220703</ele>
        <time>2022-03-12T11:17:24.000Z</time>
      </trkpt>
      <trkpt lat="43.70339" lon="7.06953">
        <ele>331.20001220703</ele>
        <time>2022-03-12T11:17:26.000Z</time>
      </trkpt>
      <trkpt lat="43.70347" lon="7.06948">
        <ele>329.79998779297</ele>
        <time>2022-03-12T11:17:28.000Z</time>
      </trkpt>
      <trkpt lat="43.70354" lon="7.06942">
        <ele>328.79998779297</ele>
        <time>2022-03-12T11:17:30.000Z</time>
      </trkpt>
      <trkpt lat="43.70359" lon="7.06939">
        <ele>328.39999389648</ele>
        <time>2022-03-12T11:17:31.000Z</time>
      </trkpt>
      <trkpt lat="43.7037" lon="7.06931">
        <ele>327.20001220703</ele>
        <time>2022-03-12T11:17:34.000Z</time>
      </trkpt>
      <trkpt lat="43.70376" lon="7.06926">
        <ele>326.39999389648</ele>
        <time>2022-03-12T11:17:36.000Z</time>
      </trkpt>
      <trkpt lat="43.70381" lon="7.06922">
        <ele>325.79998779297</ele>
        <time>2022-03-12T11:17:38.000Z</time>
      </trkpt>
      <trkpt lat="43.70387" lon="7.06916">
        <ele>324.39999389648</ele>
        <time>2022-03-12T11:17:41.000Z</time>
      </trkpt>
      <trkpt lat="43.7039" lon="7.06913">
        <ele>323.79998779297</ele>
        <time>2022-03-12T11:17:42.000Z</time>
      </trkpt>
      <trkpt lat="43.70393" lon="7.06911">
        <ele>323.39999389648</ele>
        <time>2022-03-12T11:17:43.000Z</time>
      </trkpt>
      <trkpt lat="43.70399" lon="7.06905">
        <ele>322.20001220703</ele>
        <time>2022-03-12T11:17:45.000Z</time>
      </trkpt>
      <trkpt lat="43.70405" lon="7.06899">
        <ele>321</ele>
        <time>2022-03-12T11:17:47.000Z</time>
      </trkpt>
      <trkpt lat="43.70413" lon="7.06893">
        <ele>319.79998779297</ele>
        <time>2022-03-12T11:17:49.000Z</time>
      </trkpt>
      <trkpt lat="43.7042" lon="7.06885">
        <ele>318.60000610352</ele>
        <time>2022-03-12T11:17:51.000Z</time>
      </trkpt>
      <trkpt lat="43.70425" lon="7.06875">
        <ele>317.20001220703</ele>
        <time>2022-03-12T11:17:53.000Z</time>
      </trkpt>
      <trkpt lat="43.70428" lon="7.0687">
        <ele>316.60000610352</ele>
        <time>2022-03-12T11:17:54.000Z</time>
      </trkpt>
      <trkpt lat="43.7043" lon="7.06865">
        <ele>316.20001220703</ele>
        <time>2022-03-12T11:17:55.000Z</time>
      </trkpt>
      <trkpt lat="43.70433" lon="7.06861">
        <ele>315.79998779297</ele>
        <time>2022-03-12T11:17:56.000Z</time>
      </trkpt>
      <trkpt lat="43.70437" lon="7.06857">
        <ele>315.20001220703</ele>
        <time>2022-03-12T11:17:57.000Z</time>
      </trkpt>
      <trkpt lat="43.70446" lon="7.06852">
        <ele>314.20001220703</ele>
        <time>2022-03-12T11:17:59.000Z</time>
      </trkpt>
      <trkpt lat="43.70451" lon="7.0685">
        <ele>313.20001220703</ele>
        <time>2022-03-12T11:18:00.000Z</time>
      </trkpt>
      <trkpt lat="43.70459" lon="7.06846">
        <ele>311.39999389648</ele>
        <time>2022-03-12T11:18:02.000Z</time>
      </trkpt>
      <trkpt lat="43.70466" lon="7.06845">
        <ele>309.20001220703</ele>
        <time>2022-03-12T11:18:04.000Z</time>
      </trkpt>
      <trkpt lat="43.70468" lon="7.06846">
        <ele>308.60000610352</ele>
        <time>2022-03-12T11:18:05.000Z</time>
      </trkpt>
      <trkpt lat="43.7047" lon="7.06847">
        <ele>308</ele>
        <time>2022-03-12T11:18:06.000Z</time>
      </trkpt>
      <trkpt lat="43.70472" lon="7.06848">
        <ele>307</ele>
        <time>2022-03-12T11:18:08.000Z</time>
      </trkpt>
      <trkpt lat="43.70471" lon="7.06847">
        <ele>306.60000610352</ele>
        <time>2022-03-12T11:18:09.000Z</time>
      </trkpt>
      <trkpt lat="43.70471" lon="7.06848">
        <ele>306</ele>
        <time>2022-03-12T11:18:19.000Z</time>
      </trkpt>
      <trkpt lat="43.70472" lon="7.06848">
        <ele>305.79998779297</ele>
        <time>2022-03-12T11:18:21.000Z</time>
      </trkpt>
      <trkpt lat="43.70473" lon="7.06849">
        <ele>305.39999389648</ele>
        <time>2022-03-12T11:18:34.000Z</time>
      </trkpt>
      <trkpt lat="43.70473" lon="7.0685">
        <ele>306.20001220703</ele>
        <time>2022-03-12T11:18:52.000Z</time>
      </trkpt>
      <trkpt lat="43.70473" lon="7.06851">
        <ele>306.20001220703</ele>
        <time>2022-03-12T11:19:03.000Z</time>
      </trkpt>
      <trkpt lat="43.70472" lon="7.06851">
        <ele>306.39999389648</ele>
        <time>2022-03-12T11:19:24.000Z</time>
      </trkpt>
      <trkpt lat="43.70473" lon="7.06855">
        <ele>306.39999389648</ele>
        <time>2022-03-12T11:19:32.000Z</time>
      </trkpt>
      <trkpt lat="43.70472" lon="7.06856">
        <ele>306.60000610352</ele>
        <time>2022-03-12T11:19:39.000Z</time>
      </trkpt>
      <trkpt lat="43.70472" lon="7.06857">
        <ele>306.60000610352</ele>
        <time>2022-03-12T11:19:49.000Z</time>
      </trkpt>
      <trkpt lat="43.70471" lon="7.06857">
        <ele>306.39999389648</ele>
        <time>2022-03-12T11:20:04.000Z</time>
      </trkpt>
      <trkpt lat="43.70468" lon="7.06863">
        <ele>306.39999389648</ele>
        <time>2022-03-12T11:20:11.000Z</time>
      </trkpt>
      <trkpt lat="43.70467" lon="7.06864">
        <ele>306.39999389648</ele>
        <time>2022-03-12T11:20:12.000Z</time>
      </trkpt>
      <trkpt lat="43.70464" lon="7.0687">
        <ele>306.79998779297</ele>
        <time>2022-03-12T11:20:15.000Z</time>
      </trkpt>
      <trkpt lat="43.70463" lon="7.06873">
        <ele>307</ele>
        <time>2022-03-12T11:20:16.000Z</time>
      </trkpt>
      <trkpt lat="43.70462" lon="7.06877">
        <ele>307.20001220703</ele>
        <time>2022-03-12T11:20:17.000Z</time>
      </trkpt>
      <trkpt lat="43.70456" lon="7.06884">
        <ele>308.20001220703</ele>
        <time>2022-03-12T11:20:20.000Z</time>
      </trkpt>
      <trkpt lat="43.70455" lon="7.06887">
        <ele>308.39999389648</ele>
        <time>2022-03-12T11:20:21.000Z</time>
      </trkpt>
      <trkpt lat="43.70452" lon="7.0689">
        <ele>309.20001220703</ele>
        <time>2022-03-12T11:20:23.000Z</time>
      </trkpt>
      <trkpt lat="43.70449" lon="7.06897">
        <ele>310.39999389648</ele>
        <time>2022-03-12T11:20:26.000Z</time>
      </trkpt>
      <trkpt lat="43.70445" lon="7.06903">
        <ele>311.39999389648</ele>
        <time>2022-03-12T11:20:31.000Z</time>
      </trkpt>
      <trkpt lat="43.70446" lon="7.06903">
        <ele>312.20001220703</ele>
        <time>2022-03-12T11:20:37.000Z</time>
      </trkpt>
      <trkpt lat="43.70446" lon="7.06904">
        <ele>311.79998779297</ele>
        <time>2022-03-12T11:20:45.000Z</time>
      </trkpt>
      <trkpt lat="43.70446" lon="7.06902">
        <ele>311.79998779297</ele>
        <time>2022-03-12T11:20:53.000Z</time>
      </trkpt>
      <trkpt lat="43.70446" lon="7.069">
        <ele>311.79998779297</ele>
        <time>2022-03-12T11:20:55.000Z</time>
      </trkpt>
      <trkpt lat="43.70448" lon="7.069">
        <ele>311.79998779297</ele>
        <time>2022-03-12T11:20:58.000Z</time>
      </trkpt>
      <trkpt lat="43.70447" lon="7.069">
        <ele>311.79998779297</ele>
        <time>2022-03-12T11:21:03.000Z</time>
      </trkpt>
      <trkpt lat="43.70441" lon="7.06903">
        <ele>311.79998779297</ele>
        <time>2022-03-12T11:21:09.000Z</time>
      </trkpt>
      <trkpt lat="43.70439" lon="7.06905">
        <ele>312</ele>
        <time>2022-03-12T11:21:14.000Z</time>
      </trkpt>
      <trkpt lat="43.70439" lon="7.06905">
        <ele>312.39999389648</ele>
        <time>2022-03-12T11:21:16.000Z</time>
      </trkpt>
      <trkpt lat="43.70438" lon="7.06906">
        <ele>313</ele>
        <time>2022-03-12T11:21:20.000Z</time>
      </trkpt>
      <trkpt lat="43.70438" lon="7.06907">
        <ele>312.39999389648</ele>
        <time>2022-03-12T11:21:28.000Z</time>
      </trkpt>
      <trkpt lat="43.70438" lon="7.06908">
        <ele>312.39999389648</ele>
        <time>2022-03-12T11:21:40.000Z</time>
      </trkpt>
      <trkpt lat="43.70436" lon="7.06909">
        <ele>312.20001220703</ele>
        <time>2022-03-12T11:21:50.000Z</time>
      </trkpt>
      <trkpt lat="43.70436" lon="7.06911">
        <ele>313.20001220703</ele>
        <time>2022-03-12T11:21:58.000Z</time>
      </trkpt>
      <trkpt lat="43.70436" lon="7.06911">
        <ele>313.20001220703</ele>
        <time>2022-03-12T11:22:03.000Z</time>
      </trkpt>
      <trkpt lat="43.70435" lon="7.06911">
        <ele>312.79998779297</ele>
        <time>2022-03-12T11:22:10.000Z</time>
      </trkpt>
      <trkpt lat="43.70435" lon="7.06911">
        <ele>313</ele>
        <time>2022-03-12T11:22:21.000Z</time>
      </trkpt>
      <trkpt lat="43.70435" lon="7.06911">
        <ele>313.39999389648</ele>
        <time>2022-03-12T11:22:29.000Z</time>
      </trkpt>
      <trkpt lat="43.70435" lon="7.06911">
        <ele>313</ele>
        <time>2022-03-12T11:22:42.000Z</time>
      </trkpt>
      <trkpt lat="43.70435" lon="7.06911">
        <ele>312.79998779297</ele>
        <time>2022-03-12T11:22:53.000Z</time>
      </trkpt>
      <trkpt lat="43.70435" lon="7.0691">
        <ele>312.79998779297</ele>
        <time>2022-03-12T11:23:07.000Z</time>
      </trkpt>
      <trkpt lat="43.70435" lon="7.0691">
        <ele>313.39999389648</ele>
        <time>2022-03-12T11:23:26.000Z</time>
      </trkpt>
      <trkpt lat="43.70435" lon="7.06909">
        <ele>312.60000610352</ele>
        <time>2022-03-12T11:23:52.000Z</time>
      </trkpt>
      <trkpt lat="43.70435" lon="7.06909">
        <ele>312.60000610352</ele>
        <time>2022-03-12T11:24:09.000Z</time>
      </trkpt>
      <trkpt lat="43.70435" lon="7.06909">
        <ele>313.20001220703</ele>
        <time>2022-03-12T11:24:31.000Z</time>
      </trkpt>
      <trkpt lat="43.70435" lon="7.06908">
        <ele>313</ele>
        <time>2022-03-12T11:24:59.000Z</time>
      </trkpt>
      <trkpt lat="43.70435" lon="7.06908">
        <ele>313.20001220703</ele>
        <time>2022-03-12T11:25:23.000Z</time>
      </trkpt>
      <trkpt lat="43.70435" lon="7.06908">
        <ele>312.79998779297</ele>
        <time>2022-03-12T11:25:50.000Z</time>
      </trkpt>
      <trkpt lat="43.70434" lon="7.06908">
        <ele>313.39999389648</ele>
        <time>2022-03-12T11:25:59.000Z</time>
      </trkpt>
      <trkpt lat="43.70434" lon="7.06908">
        <ele>313.20001220703</ele>
        <time>2022-03-12T11:26:10.000Z</time>
      </trkpt>
      <trkpt lat="43.70434" lon="7.06907">
        <ele>313</ele>
        <time>2022-03-12T11:26:32.000Z</time>
      </trkpt>
      <trkpt lat="43.70433" lon="7.06907">
        <ele>313</ele>
        <time>2022-03-12T11:26:59.000Z</time>
      </trkpt>
      <trkpt lat="43.70434" lon="7.06907">
        <ele>312.79998779297</ele>
        <time>2022-03-12T11:27:22.000Z</time>
      </trkpt>
      <trkpt lat="43.70434" lon="7.06908">
        <ele>312.60000610352</ele>
        <time>2022-03-12T11:27:46.000Z</time>
      </trkpt>
      <trkpt lat="43.70434" lon="7.06908">
        <ele>312.39999389648</ele>
        <time>2022-03-12T11:27:53.000Z</time>
      </trkpt>
      <trkpt lat="43.70435" lon="7.06908">
        <ele>313</ele>
        <time>2022-03-12T11:28:09.000Z</time>
      </trkpt>
      <trkpt lat="43.70435" lon="7.06909">
        <ele>312.79998779297</ele>
        <time>2022-03-12T11:28:33.000Z</time>
      </trkpt>
      <trkpt lat="43.70434" lon="7.06909">
        <ele>312.79998779297</ele>
        <time>2022-03-12T11:28:58.000Z</time>
      </trkpt>
      <trkpt lat="43.70434" lon="7.06909">
        <ele>312.60000610352</ele>
        <time>2022-03-12T11:29:15.000Z</time>
      </trkpt>
      <trkpt lat="43.70435" lon="7.06909">
        <ele>312.60000610352</ele>
        <time>2022-03-12T11:29:43.000Z</time>
      </trkpt>
      <trkpt lat="43.70435" lon="7.06909">
        <ele>312.20001220703</ele>
        <time>2022-03-12T11:30:06.000Z</time>
      </trkpt>
      <trkpt lat="43.70435" lon="7.06909">
        <ele>312.20001220703</ele>
        <time>2022-03-12T11:30:29.000Z</time>
      </trkpt>
      <trkpt lat="43.70435" lon="7.0691">
        <ele>312.39999389648</ele>
        <time>2022-03-12T11:30:52.000Z</time>
      </trkpt>
      <trkpt lat="43.70435" lon="7.0691">
        <ele>312.20001220703</ele>
        <time>2022-03-12T11:31:15.000Z</time>
      </trkpt>
      <trkpt lat="43.70435" lon="7.06909">
        <ele>312.39999389648</ele>
        <time>2022-03-12T11:31:43.000Z</time>
      </trkpt>
      <trkpt lat="43.70435" lon="7.06909">
        <ele>312.20001220703</ele>
        <time>2022-03-12T11:32:05.000Z</time>
      </trkpt>
      <trkpt lat="43.70434" lon="7.06909">
        <ele>312.20001220703</ele>
        <time>2022-03-12T11:32:34.000Z</time>
      </trkpt>
      <trkpt lat="43.70434" lon="7.06909">
        <ele>312.39999389648</ele>
        <time>2022-03-12T11:32:54.000Z</time>
      </trkpt>
      <trkpt lat="43.70434" lon="7.06909">
        <ele>312.20001220703</ele>
        <time>2022-03-12T11:33:08.000Z</time>
      </trkpt>
      <trkpt lat="43.70435" lon="7.06909">
        <ele>312.20001220703</ele>
        <time>2022-03-12T11:33:29.000Z</time>
      </trkpt>
      <trkpt lat="43.70434" lon="7.06909">
        <ele>311.60000610352</ele>
        <time>2022-03-12T11:33:51.000Z</time>
      </trkpt>
      <trkpt lat="43.70433" lon="7.06909">
        <ele>312</ele>
        <time>2022-03-12T11:34:14.000Z</time>
      </trkpt>
      <trkpt lat="43.70434" lon="7.06909">
        <ele>312.39999389648</ele>
        <time>2022-03-12T11:34:38.000Z</time>
      </trkpt>
      <trkpt lat="43.70434" lon="7.06909">
        <ele>312</ele>
        <time>2022-03-12T11:34:56.000Z</time>
      </trkpt>
      <trkpt lat="43.70434" lon="7.06909">
        <ele>312</ele>
        <time>2022-03-12T11:35:15.000Z</time>
      </trkpt>
      <trkpt lat="43.70434" lon="7.06908">
        <ele>312</ele>
        <time>2022-03-12T11:35:34.000Z</time>
      </trkpt>
      <trkpt lat="43.70433" lon="7.06908">
        <ele>312</ele>
        <time>2022-03-12T11:35:56.000Z</time>
      </trkpt>
      <trkpt lat="43.70433" lon="7.06908">
        <ele>312.39999389648</ele>
        <time>2022-03-12T11:36:05.000Z</time>
      </trkpt>
      <trkpt lat="43.70433" lon="7.06907">
        <ele>312.20001220703</ele>
        <time>2022-03-12T11:36:21.000Z</time>
      </trkpt>
      <trkpt lat="43.70433" lon="7.06907">
        <ele>312.20001220703</ele>
        <time>2022-03-12T11:36:31.000Z</time>
      </trkpt>
      <trkpt lat="43.70433" lon="7.06907">
        <ele>312</ele>
        <time>2022-03-12T11:36:42.000Z</time>
      </trkpt>
      <trkpt lat="43.70433" lon="7.06908">
        <ele>312</ele>
        <time>2022-03-12T11:37:01.000Z</time>
      </trkpt>
      <trkpt lat="43.70433" lon="7.06908">
        <ele>312</ele>
        <time>2022-03-12T11:37:16.000Z</time>
      </trkpt>
      <trkpt lat="43.70434" lon="7.06908">
        <ele>312</ele>
        <time>2022-03-12T11:37:28.000Z</time>
      </trkpt>
      <trkpt lat="43.70434" lon="7.06908">
        <ele>312</ele>
        <time>2022-03-12T11:37:38.000Z</time>
      </trkpt>
      <trkpt lat="43.70434" lon="7.06908">
        <ele>311.79998779297</ele>
        <time>2022-03-12T11:37:52.000Z</time>
      </trkpt>
      <trkpt lat="43.70434" lon="7.06908">
        <ele>312.20001220703</ele>
        <time>2022-03-12T11:38:04.000Z</time>
      </trkpt>
      <trkpt lat="43.70434" lon="7.06908">
        <ele>311.79998779297</ele>
        <time>2022-03-12T11:38:23.000Z</time>
      </trkpt>
      <trkpt lat="43.70434" lon="7.06908">
        <ele>311.79998779297</ele>
        <time>2022-03-12T11:38:50.000Z</time>
      </trkpt>
      <trkpt lat="43.70435" lon="7.06909">
        <ele>312.20001220703</ele>
        <time>2022-03-12T11:39:07.000Z</time>
      </trkpt>
      <trkpt lat="43.70435" lon="7.06907">
        <ele>312.39999389648</ele>
        <time>2022-03-12T11:39:26.000Z</time>
      </trkpt>
      <trkpt lat="43.70434" lon="7.06906">
        <ele>312.20001220703</ele>
        <time>2022-03-12T11:39:47.000Z</time>
      </trkpt>
      <trkpt lat="43.70435" lon="7.06905">
        <ele>312.20001220703</ele>
        <time>2022-03-12T11:40:12.000Z</time>
      </trkpt>
      <trkpt lat="43.70436" lon="7.06907">
        <ele>312.20001220703</ele>
        <time>2022-03-12T11:40:31.000Z</time>
      </trkpt>
      <trkpt lat="43.70436" lon="7.06907">
        <ele>312.60000610352</ele>
        <time>2022-03-12T11:40:54.000Z</time>
      </trkpt>
      <trkpt lat="43.70437" lon="7.06908">
        <ele>312.20001220703</ele>
        <time>2022-03-12T11:41:11.000Z</time>
      </trkpt>
      <trkpt lat="43.70437" lon="7.06907">
        <ele>312.39999389648</ele>
        <time>2022-03-12T11:41:37.000Z</time>
      </trkpt>
      <trkpt lat="43.70436" lon="7.06906">
        <ele>312.39999389648</ele>
        <time>2022-03-12T11:42:05.000Z</time>
      </trkpt>
      <trkpt lat="43.70436" lon="7.06907">
        <ele>312.60000610352</ele>
        <time>2022-03-12T11:42:32.000Z</time>
      </trkpt>
      <trkpt lat="43.70436" lon="7.06907">
        <ele>312.20001220703</ele>
        <time>2022-03-12T11:43:04.000Z</time>
      </trkpt>
      <trkpt lat="43.70437" lon="7.06907">
        <ele>312.79998779297</ele>
        <time>2022-03-12T11:43:27.000Z</time>
      </trkpt>
      <trkpt lat="43.70437" lon="7.06907">
        <ele>312.39999389648</ele>
        <time>2022-03-12T11:43:40.000Z</time>
      </trkpt>
      <trkpt lat="43.70436" lon="7.06908">
        <ele>312.39999389648</ele>
        <time>2022-03-12T11:44:00.000Z</time>
      </trkpt>
      <trkpt lat="43.70436" lon="7.06908">
        <ele>312.39999389648</ele>
        <time>2022-03-12T11:44:11.000Z</time>
      </trkpt>
      <trkpt lat="43.70436" lon="7.06907">
        <ele>312.20001220703</ele>
        <time>2022-03-12T11:44:19.000Z</time>
      </trkpt>
      <trkpt lat="43.70436" lon="7.06907">
        <ele>312.60000610352</ele>
        <time>2022-03-12T11:44:39.000Z</time>
      </trkpt>
      <trkpt lat="43.70436" lon="7.06906">
        <ele>312.60000610352</ele>
        <time>2022-03-12T11:45:02.000Z</time>
      </trkpt>
      <trkpt lat="43.70436" lon="7.06906">
        <ele>312.39999389648</ele>
        <time>2022-03-12T11:45:14.000Z</time>
      </trkpt>
      <trkpt lat="43.70436" lon="7.06907">
        <ele>312.60000610352</ele>
        <time>2022-03-12T11:45:40.000Z</time>
      </trkpt>
      <trkpt lat="43.70436" lon="7.06907">
        <ele>312.20001220703</ele>
        <time>2022-03-12T11:45:53.000Z</time>
      </trkpt>
      <trkpt lat="43.70436" lon="7.06907">
        <ele>312</ele>
        <time>2022-03-12T11:45:58.000Z</time>
      </trkpt>
      <trkpt lat="43.70436" lon="7.06907">
        <ele>311.79998779297</ele>
        <time>2022-03-12T11:46:14.000Z</time>
      </trkpt>
      <trkpt lat="43.70435" lon="7.06906">
        <ele>312</ele>
        <time>2022-03-12T11:46:31.000Z</time>
      </trkpt>
      <trkpt lat="43.70435" lon="7.06905">
        <ele>311.60000610352</ele>
        <time>2022-03-12T11:46:38.000Z</time>
      </trkpt>
      <trkpt lat="43.70436" lon="7.06905">
        <ele>312.60000610352</ele>
        <time>2022-03-12T11:46:50.000Z</time>
      </trkpt>
      <trkpt lat="43.70436" lon="7.06904">
        <ele>313</ele>
        <time>2022-03-12T11:46:55.000Z</time>
      </trkpt>
      <trkpt lat="43.70437" lon="7.06904">
        <ele>312.60000610352</ele>
        <time>2022-03-12T11:47:05.000Z</time>
      </trkpt>
      <trkpt lat="43.70437" lon="7.06905">
        <ele>312.60000610352</ele>
        <time>2022-03-12T11:47:15.000Z</time>
      </trkpt>
      <trkpt lat="43.70438" lon="7.06905">
        <ele>313.39999389648</ele>
        <time>2022-03-12T11:47:21.000Z</time>
      </trkpt>
      <trkpt lat="43.70437" lon="7.06905">
        <ele>313</ele>
        <time>2022-03-12T11:47:25.000Z</time>
      </trkpt>
      <trkpt lat="43.70437" lon="7.06905">
        <ele>312.79998779297</ele>
        <time>2022-03-12T11:47:33.000Z</time>
      </trkpt>
      <trkpt lat="43.70437" lon="7.06906">
        <ele>313</ele>
        <time>2022-03-12T11:47:44.000Z</time>
      </trkpt>
      <trkpt lat="43.70437" lon="7.06905">
        <ele>313</ele>
        <time>2022-03-12T11:47:51.000Z</time>
      </trkpt>
      <trkpt lat="43.70437" lon="7.06905">
        <ele>313</ele>
        <time>2022-03-12T11:47:58.000Z</time>
      </trkpt>
      <trkpt lat="43.70437" lon="7.06905">
        <ele>313</ele>
        <time>2022-03-12T11:48:07.000Z</time>
      </trkpt>
      <trkpt lat="43.70438" lon="7.06906">
        <ele>313</ele>
        <time>2022-03-12T11:48:13.000Z</time>
      </trkpt>
      <trkpt lat="43.70438" lon="7.06906">
        <ele>313</ele>
        <time>2022-03-12T11:48:25.000Z</time>
      </trkpt>
      <trkpt lat="43.70438" lon="7.06907">
        <ele>313.20001220703</ele>
        <time>2022-03-12T11:48:39.000Z</time>
      </trkpt>
      <trkpt lat="43.70439" lon="7.06906">
        <ele>312.79998779297</ele>
        <time>2022-03-12T11:48:50.000Z</time>
      </trkpt>
      <trkpt lat="43.7044" lon="7.06905">
        <ele>312.79998779297</ele>
        <time>2022-03-12T11:48:57.000Z</time>
      </trkpt>
      <trkpt lat="43.7044" lon="7.06905">
        <ele>313.20001220703</ele>
        <time>2022-03-12T11:49:09.000Z</time>
      </trkpt>
      <trkpt lat="43.70443" lon="7.06903">
        <ele>312.39999389648</ele>
        <time>2022-03-12T11:49:16.000Z</time>
      </trkpt>
      <trkpt lat="43.70444" lon="7.06902">
        <ele>312.39999389648</ele>
        <time>2022-03-12T11:49:18.000Z</time>
      </trkpt>
      <trkpt lat="43.70444" lon="7.06902">
        <ele>312</ele>
        <time>2022-03-12T11:49:22.000Z</time>
      </trkpt>
      <trkpt lat="43.70445" lon="7.06901">
        <ele>311.79998779297</ele>
        <time>2022-03-12T11:49:28.000Z</time>
      </trkpt>
      <trkpt lat="43.70446" lon="7.06902">
        <ele>311.79998779297</ele>
        <time>2022-03-12T11:49:34.000Z</time>
      </trkpt>
      <trkpt lat="43.70446" lon="7.06904">
        <ele>312</ele>
        <time>2022-03-12T11:49:43.000Z</time>
      </trkpt>
      <trkpt lat="43.70445" lon="7.06904">
        <ele>312.20001220703</ele>
        <time>2022-03-12T11:49:59.000Z</time>
      </trkpt>
      <trkpt lat="43.70445" lon="7.06905">
        <ele>312.20001220703</ele>
        <time>2022-03-12T11:50:18.000Z</time>
      </trkpt>
      <trkpt lat="43.70443" lon="7.06906">
        <ele>312.20001220703</ele>
        <time>2022-03-12T11:50:34.000Z</time>
      </trkpt>
      <trkpt lat="43.70438" lon="7.06912">
        <ele>312.39999389648</ele>
        <time>2022-03-12T11:50:37.000Z</time>
      </trkpt>
      <trkpt lat="43.70437" lon="7.06914">
        <ele>312.60000610352</ele>
        <time>2022-03-12T11:50:38.000Z</time>
      </trkpt>
      <trkpt lat="43.70434" lon="7.06922">
        <ele>313.39999389648</ele>
        <time>2022-03-12T11:50:41.000Z</time>
      </trkpt>
      <trkpt lat="43.70434" lon="7.06925">
        <ele>313.60000610352</ele>
        <time>2022-03-12T11:50:42.000Z</time>
      </trkpt>
      <trkpt lat="43.70433" lon="7.06927">
        <ele>313.79998779297</ele>
        <time>2022-03-12T11:50:43.000Z</time>
      </trkpt>
      <trkpt lat="43.70431" lon="7.06932">
        <ele>314</ele>
        <time>2022-03-12T11:50:48.000Z</time>
      </trkpt>
      <trkpt lat="43.70429" lon="7.06936">
        <ele>314.39999389648</ele>
        <time>2022-03-12T11:50:57.000Z</time>
      </trkpt>
      <trkpt lat="43.70428" lon="7.06936">
        <ele>314.60000610352</ele>
        <time>2022-03-12T11:50:58.000Z</time>
      </trkpt>
      <trkpt lat="43.70428" lon="7.06937">
        <ele>314.79998779297</ele>
        <time>2022-03-12T11:51:00.000Z</time>
      </trkpt>
      <trkpt lat="43.70425" lon="7.06946">
        <ele>314.79998779297</ele>
        <time>2022-03-12T11:51:05.000Z</time>
      </trkpt>
      <trkpt lat="43.7042" lon="7.06957">
        <ele>314.79998779297</ele>
        <time>2022-03-12T11:51:10.000Z</time>
      </trkpt>
      <trkpt lat="43.70416" lon="7.06962">
        <ele>314.79998779297</ele>
        <time>2022-03-12T11:51:13.000Z</time>
      </trkpt>
      <trkpt lat="43.70414" lon="7.06965">
        <ele>315.20001220703</ele>
        <time>2022-03-12T11:51:15.000Z</time>
      </trkpt>
      <trkpt lat="43.7041" lon="7.06968">
        <ele>315.60000610352</ele>
        <time>2022-03-12T11:51:17.000Z</time>
      </trkpt>
      <trkpt lat="43.70406" lon="7.06972">
        <ele>316.60000610352</ele>
        <time>2022-03-12T11:51:20.000Z</time>
      </trkpt>
      <trkpt lat="43.70403" lon="7.06975">
        <ele>317.39999389648</ele>
        <time>2022-03-12T11:51:22.000Z</time>
      </trkpt>
      <trkpt lat="43.70401" lon="7.06978">
        <ele>317.79998779297</ele>
        <time>2022-03-12T11:51:24.000Z</time>
      </trkpt>
      <trkpt lat="43.70399" lon="7.06989">
        <ele>318.39999389648</ele>
        <time>2022-03-12T11:51:28.000Z</time>
      </trkpt>
      <trkpt lat="43.70398" lon="7.06992">
        <ele>318.39999389648</ele>
        <time>2022-03-12T11:51:29.000Z</time>
      </trkpt>
      <trkpt lat="43.7039" lon="7.07013">
        <ele>317.60000610352</ele>
        <time>2022-03-12T11:51:35.000Z</time>
      </trkpt>
      <trkpt lat="43.70385" lon="7.07028">
        <ele>316.60000610352</ele>
        <time>2022-03-12T11:51:39.000Z</time>
      </trkpt>
      <trkpt lat="43.70383" lon="7.07031">
        <ele>316.60000610352</ele>
        <time>2022-03-12T11:51:40.000Z</time>
      </trkpt>
      <trkpt lat="43.70376" lon="7.07047">
        <ele>316.39999389648</ele>
        <time>2022-03-12T11:51:45.000Z</time>
      </trkpt>
      <trkpt lat="43.70368" lon="7.07063">
        <ele>317</ele>
        <time>2022-03-12T11:51:50.000Z</time>
      </trkpt>
      <trkpt lat="43.70367" lon="7.07067">
        <ele>317.20001220703</ele>
        <time>2022-03-12T11:51:51.000Z</time>
      </trkpt>
      <trkpt lat="43.70364" lon="7.0708">
        <ele>317.79998779297</ele>
        <time>2022-03-12T11:51:54.000Z</time>
      </trkpt>
      <trkpt lat="43.70363" lon="7.07084">
        <ele>317.79998779297</ele>
        <time>2022-03-12T11:51:55.000Z</time>
      </trkpt>
      <trkpt lat="43.7036" lon="7.07098">
        <ele>317.39999389648</ele>
        <time>2022-03-12T11:51:59.000Z</time>
      </trkpt>
      <trkpt lat="43.70357" lon="7.07117">
        <ele>318</ele>
        <time>2022-03-12T11:52:04.000Z</time>
      </trkpt>
      <trkpt lat="43.70356" lon="7.07133">
        <ele>318.20001220703</ele>
        <time>2022-03-12T11:52:08.000Z</time>
      </trkpt>
      <trkpt lat="43.70352" lon="7.07149">
        <ele>318.20001220703</ele>
        <time>2022-03-12T11:52:12.000Z</time>
      </trkpt>
      <trkpt lat="43.70345" lon="7.07159">
        <ele>318.60000610352</ele>
        <time>2022-03-12T11:52:16.000Z</time>
      </trkpt>
      <trkpt lat="43.70339" lon="7.07167">
        <ele>318.79998779297</ele>
        <time>2022-03-12T11:52:19.000Z</time>
      </trkpt>
      <trkpt lat="43.70337" lon="7.0717">
        <ele>319</ele>
        <time>2022-03-12T11:52:20.000Z</time>
      </trkpt>
      <trkpt lat="43.70329" lon="7.07192">
        <ele>319.60000610352</ele>
        <time>2022-03-12T11:52:27.000Z</time>
      </trkpt>
      <trkpt lat="43.70326" lon="7.07203">
        <ele>319.60000610352</ele>
        <time>2022-03-12T11:52:31.000Z</time>
      </trkpt>
      <trkpt lat="43.70319" lon="7.07219">
        <ele>319.79998779297</ele>
        <time>2022-03-12T11:52:36.000Z</time>
      </trkpt>
      <trkpt lat="43.70309" lon="7.07231">
        <ele>320</ele>
        <time>2022-03-12T11:52:41.000Z</time>
      </trkpt>
      <trkpt lat="43.70298" lon="7.07254">
        <ele>320.20001220703</ele>
        <time>2022-03-12T11:52:47.000Z</time>
      </trkpt>
      <trkpt lat="43.70288" lon="7.07275">
        <ele>319.60000610352</ele>
        <time>2022-03-12T11:52:52.000Z</time>
      </trkpt>
      <trkpt lat="43.70268" lon="7.07307">
        <ele>319.60000610352</ele>
        <time>2022-03-12T11:53:00.000Z</time>
      </trkpt>
      <trkpt lat="43.70259" lon="7.07323">
        <ele>319.60000610352</ele>
        <time>2022-03-12T11:53:04.000Z</time>
      </trkpt>
      <trkpt lat="43.70253" lon="7.07332">
        <ele>319.39999389648</ele>
        <time>2022-03-12T11:53:06.000Z</time>
      </trkpt>
      <trkpt lat="43.70245" lon="7.07341">
        <ele>319</ele>
        <time>2022-03-12T11:53:09.000Z</time>
      </trkpt>
      <trkpt lat="43.70239" lon="7.07343">
        <ele>318.79998779297</ele>
        <time>2022-03-12T11:53:11.000Z</time>
      </trkpt>
      <trkpt lat="43.70233" lon="7.07342">
        <ele>318.79998779297</ele>
        <time>2022-03-12T11:53:13.000Z</time>
      </trkpt>
      <trkpt lat="43.70222" lon="7.07342">
        <ele>317.60000610352</ele>
        <time>2022-03-12T11:53:17.000Z</time>
      </trkpt>
      <trkpt lat="43.7022" lon="7.07341">
        <ele>317</ele>
        <time>2022-03-12T11:53:18.000Z</time>
      </trkpt>
      <trkpt lat="43.70218" lon="7.0734">
        <ele>316.20001220703</ele>
        <time>2022-03-12T11:53:19.000Z</time>
      </trkpt>
      <trkpt lat="43.70213" lon="7.0734">
        <ele>315</ele>
        <time>2022-03-12T11:53:21.000Z</time>
      </trkpt>
      <trkpt lat="43.7021" lon="7.0734">
        <ele>314.39999389648</ele>
        <time>2022-03-12T11:53:22.000Z</time>
      </trkpt>
      <trkpt lat="43.70205" lon="7.07339">
        <ele>314</ele>
        <time>2022-03-12T11:53:23.000Z</time>
      </trkpt>
      <trkpt lat="43.70201" lon="7.0734">
        <ele>313.60000610352</ele>
        <time>2022-03-12T11:53:24.000Z</time>
      </trkpt>
      <trkpt lat="43.70197" lon="7.07342">
        <ele>313</ele>
        <time>2022-03-12T11:53:25.000Z</time>
      </trkpt>
      <trkpt lat="43.70192" lon="7.07343">
        <ele>312.20001220703</ele>
        <time>2022-03-12T11:53:26.000Z</time>
      </trkpt>
      <trkpt lat="43.70187" lon="7.07343">
        <ele>311</ele>
        <time>2022-03-12T11:53:27.000Z</time>
      </trkpt>
      <trkpt lat="43.70184" lon="7.07343">
        <ele>310.20001220703</ele>
        <time>2022-03-12T11:53:28.000Z</time>
      </trkpt>
      <trkpt lat="43.7018" lon="7.07342">
        <ele>309.20001220703</ele>
        <time>2022-03-12T11:53:29.000Z</time>
      </trkpt>
      <trkpt lat="43.70173" lon="7.0734">
        <ele>307.39999389648</ele>
        <time>2022-03-12T11:53:31.000Z</time>
      </trkpt>
      <trkpt lat="43.70167" lon="7.07336">
        <ele>305.79998779297</ele>
        <time>2022-03-12T11:53:33.000Z</time>
      </trkpt>
      <trkpt lat="43.70163" lon="7.07333">
        <ele>304.20001220703</ele>
        <time>2022-03-12T11:53:34.000Z</time>
      </trkpt>
      <trkpt lat="43.70156" lon="7.07328">
        <ele>304.79998779297</ele>
        <time>2022-03-12T11:53:37.000Z</time>
      </trkpt>
      <trkpt lat="43.70151" lon="7.07327">
        <ele>304.20001220703</ele>
        <time>2022-03-12T11:53:43.000Z</time>
      </trkpt>
      <trkpt lat="43.7015" lon="7.07326">
        <ele>304.20001220703</ele>
        <time>2022-03-12T11:53:44.000Z</time>
      </trkpt>
      <trkpt lat="43.7015" lon="7.07326">
        <ele>304</ele>
        <time>2022-03-12T11:53:47.000Z</time>
      </trkpt>
      <trkpt lat="43.70148" lon="7.07326">
        <ele>304.20001220703</ele>
        <time>2022-03-12T11:53:54.000Z</time>
      </trkpt>
      <trkpt lat="43.70137" lon="7.07322">
        <ele>303.60000610352</ele>
        <time>2022-03-12T11:53:57.000Z</time>
      </trkpt>
      <trkpt lat="43.70124" lon="7.07316">
        <ele>303.20001220703</ele>
        <time>2022-03-12T11:54:00.000Z</time>
      </trkpt>
      <trkpt lat="43.70111" lon="7.07312">
        <ele>302.60000610352</ele>
        <time>2022-03-12T11:54:03.000Z</time>
      </trkpt>
      <trkpt lat="43.70103" lon="7.07311">
        <ele>301.79998779297</ele>
        <time>2022-03-12T11:54:05.000Z</time>
      </trkpt>
      <trkpt lat="43.70096" lon="7.0731">
        <ele>301.39999389648</ele>
        <time>2022-03-12T11:54:07.000Z</time>
      </trkpt>
      <trkpt lat="43.70093" lon="7.07309">
        <ele>300.79998779297</ele>
        <time>2022-03-12T11:54:09.000Z</time>
      </trkpt>
      <trkpt lat="43.70091" lon="7.0731">
        <ele>300.39999389648</ele>
        <time>2022-03-12T11:54:10.000Z</time>
      </trkpt>
      <trkpt lat="43.70078" lon="7.07307">
        <ele>299.60000610352</ele>
        <time>2022-03-12T11:54:13.000Z</time>
      </trkpt>
      <trkpt lat="43.70072" lon="7.07308">
        <ele>298.60000610352</ele>
        <time>2022-03-12T11:54:16.000Z</time>
      </trkpt>
      <trkpt lat="43.70069" lon="7.07308">
        <ele>298.39999389648</ele>
        <time>2022-03-12T11:54:17.000Z</time>
      </trkpt>
      <trkpt lat="43.70061" lon="7.07304">
        <ele>297</ele>
        <time>2022-03-12T11:54:20.000Z</time>
      </trkpt>
      <trkpt lat="43.70057" lon="7.07302">
        <ele>296.39999389648</ele>
        <time>2022-03-12T11:54:21.000Z</time>
      </trkpt>
      <trkpt lat="43.70055" lon="7.073">
        <ele>295.60000610352</ele>
        <time>2022-03-12T11:54:22.000Z</time>
      </trkpt>
      <trkpt lat="43.70051" lon="7.07297">
        <ele>294.79998779297</ele>
        <time>2022-03-12T11:54:24.000Z</time>
      </trkpt>
      <trkpt lat="43.70047" lon="7.07296">
        <ele>294.39999389648</ele>
        <time>2022-03-12T11:54:25.000Z</time>
      </trkpt>
      <trkpt lat="43.70034" lon="7.07292">
        <ele>294.60000610352</ele>
        <time>2022-03-12T11:54:28.000Z</time>
      </trkpt>
      <trkpt lat="43.70013" lon="7.07288">
        <ele>293</ele>
        <time>2022-03-12T11:54:32.000Z</time>
      </trkpt>
      <trkpt lat="43.70009" lon="7.07286">
        <ele>292.60000610352</ele>
        <time>2022-03-12T11:54:33.000Z</time>
      </trkpt>
      <trkpt lat="43.69999" lon="7.07278">
        <ele>292</ele>
        <time>2022-03-12T11:54:36.000Z</time>
      </trkpt>
      <trkpt lat="43.69994" lon="7.07274">
        <ele>292</ele>
        <time>2022-03-12T11:54:38.000Z</time>
      </trkpt>
      <trkpt lat="43.69979" lon="7.07268">
        <ele>292.60000610352</ele>
        <time>2022-03-12T11:54:42.000Z</time>
      </trkpt>
      <trkpt lat="43.69966" lon="7.07265">
        <ele>293</ele>
        <time>2022-03-12T11:54:46.000Z</time>
      </trkpt>
      <trkpt lat="43.69963" lon="7.07263">
        <ele>293.20001220703</ele>
        <time>2022-03-12T11:54:47.000Z</time>
      </trkpt>
      <trkpt lat="43.69947" lon="7.07254">
        <ele>293</ele>
        <time>2022-03-12T11:54:51.000Z</time>
      </trkpt>
      <trkpt lat="43.69932" lon="7.07244">
        <ele>292.60000610352</ele>
        <time>2022-03-12T11:54:56.000Z</time>
      </trkpt>
      <trkpt lat="43.69927" lon="7.07241">
        <ele>292.39999389648</ele>
        <time>2022-03-12T11:54:58.000Z</time>
      </trkpt>
      <trkpt lat="43.69927" lon="7.0724">
        <ele>292</ele>
        <time>2022-03-12T11:54:59.000Z</time>
      </trkpt>
      <trkpt lat="43.69926" lon="7.07239">
        <ele>291.60000610352</ele>
        <time>2022-03-12T11:55:00.000Z</time>
      </trkpt>
      <trkpt lat="43.69917" lon="7.07234">
        <ele>291.39999389648</ele>
        <time>2022-03-12T11:55:04.000Z</time>
      </trkpt>
      <trkpt lat="43.69899" lon="7.07226">
        <ele>291.39999389648</ele>
        <time>2022-03-12T11:55:09.000Z</time>
      </trkpt>
      <trkpt lat="43.69881" lon="7.07219">
        <ele>291.39999389648</ele>
        <time>2022-03-12T11:55:14.000Z</time>
      </trkpt>
      <trkpt lat="43.69866" lon="7.07217">
        <ele>291</ele>
        <time>2022-03-12T11:55:18.000Z</time>
      </trkpt>
      <trkpt lat="43.69852" lon="7.07212">
        <ele>289.79998779297</ele>
        <time>2022-03-12T11:55:22.000Z</time>
      </trkpt>
      <trkpt lat="43.6985" lon="7.07209">
        <ele>289.79998779297</ele>
        <time>2022-03-12T11:55:23.000Z</time>
      </trkpt>
      <trkpt lat="43.69839" lon="7.07191">
        <ele>290</ele>
        <time>2022-03-12T11:55:27.000Z</time>
      </trkpt>
      <trkpt lat="43.69835" lon="7.07186">
        <ele>289.79998779297</ele>
        <time>2022-03-12T11:55:28.000Z</time>
      </trkpt>
      <trkpt lat="43.69828" lon="7.07175">
        <ele>289.39999389648</ele>
        <time>2022-03-12T11:55:30.000Z</time>
      </trkpt>
      <trkpt lat="43.69823" lon="7.07167">
        <ele>288.60000610352</ele>
        <time>2022-03-12T11:55:32.000Z</time>
      </trkpt>
      <trkpt lat="43.69814" lon="7.07155">
        <ele>287.39999389648</ele>
        <time>2022-03-12T11:55:35.000Z</time>
      </trkpt>
      <trkpt lat="43.6981" lon="7.07148">
        <ele>287.20001220703</ele>
        <time>2022-03-12T11:55:37.000Z</time>
      </trkpt>
      <trkpt lat="43.698" lon="7.07135">
        <ele>286.60000610352</ele>
        <time>2022-03-12T11:55:41.000Z</time>
      </trkpt>
      <trkpt lat="43.69797" lon="7.07131">
        <ele>286.60000610352</ele>
        <time>2022-03-12T11:55:42.000Z</time>
      </trkpt>
      <trkpt lat="43.69793" lon="7.07127">
        <ele>286.39999389648</ele>
        <time>2022-03-12T11:55:43.000Z</time>
      </trkpt>
      <trkpt lat="43.69785" lon="7.07119">
        <ele>286.39999389648</ele>
        <time>2022-03-12T11:55:45.000Z</time>
      </trkpt>
      <trkpt lat="43.6977" lon="7.07108">
        <ele>286.39999389648</ele>
        <time>2022-03-12T11:55:50.000Z</time>
      </trkpt>
      <trkpt lat="43.69768" lon="7.07112">
        <ele>286.39999389648</ele>
        <time>2022-03-12T11:55:55.000Z</time>
      </trkpt>
      <trkpt lat="43.69766" lon="7.07115">
        <ele>286</ele>
        <time>2022-03-12T11:56:15.000Z</time>
      </trkpt>
      <trkpt lat="43.69764" lon="7.07118">
        <ele>285.79998779297</ele>
        <time>2022-03-12T11:56:26.000Z</time>
      </trkpt>
      <trkpt lat="43.69763" lon="7.07122">
        <ele>285.79998779297</ele>
        <time>2022-03-12T11:56:28.000Z</time>
      </trkpt>
      <trkpt lat="43.6976" lon="7.07131">
        <ele>285</ele>
        <time>2022-03-12T11:56:31.000Z</time>
      </trkpt>
      <trkpt lat="43.69758" lon="7.07132">
        <ele>284.39999389648</ele>
        <time>2022-03-12T11:56:32.000Z</time>
      </trkpt>
      <trkpt lat="43.69756" lon="7.07132">
        <ele>283.79998779297</ele>
        <time>2022-03-12T11:56:33.000Z</time>
      </trkpt>
      <trkpt lat="43.6975" lon="7.07131">
        <ele>282.39999389648</ele>
        <time>2022-03-12T11:56:35.000Z</time>
      </trkpt>
      <trkpt lat="43.69741" lon="7.07129">
        <ele>281.39999389648</ele>
        <time>2022-03-12T11:56:38.000Z</time>
      </trkpt>
      <trkpt lat="43.6974" lon="7.07129">
        <ele>281.20001220703</ele>
        <time>2022-03-12T11:56:42.000Z</time>
      </trkpt>
      <trkpt lat="43.69733" lon="7.07128">
        <ele>281</ele>
        <time>2022-03-12T11:56:50.000Z</time>
      </trkpt>
      <trkpt lat="43.6973" lon="7.07127">
        <ele>281</ele>
        <time>2022-03-12T11:56:51.000Z</time>
      </trkpt>
      <trkpt lat="43.69727" lon="7.07122">
        <ele>280.79998779297</ele>
        <time>2022-03-12T11:56:53.000Z</time>
      </trkpt>
      <trkpt lat="43.69724" lon="7.07118">
        <ele>281.20001220703</ele>
        <time>2022-03-12T11:56:56.000Z</time>
      </trkpt>
      <trkpt lat="43.6972" lon="7.07114">
        <ele>281.79998779297</ele>
        <time>2022-03-12T11:56:58.000Z</time>
      </trkpt>
      <trkpt lat="43.69711" lon="7.07108">
        <ele>282.60000610352</ele>
        <time>2022-03-12T11:57:01.000Z</time>
      </trkpt>
      <trkpt lat="43.69707" lon="7.07107">
        <ele>282.60000610352</ele>
        <time>2022-03-12T11:57:02.000Z</time>
      </trkpt>
      <trkpt lat="43.69696" lon="7.07098">
        <ele>281.60000610352</ele>
        <time>2022-03-12T11:57:05.000Z</time>
      </trkpt>
      <trkpt lat="43.69693" lon="7.07095">
        <ele>281.20001220703</ele>
        <time>2022-03-12T11:57:06.000Z</time>
      </trkpt>
      <trkpt lat="43.69688" lon="7.07086">
        <ele>280.39999389648</ele>
        <time>2022-03-12T11:57:08.000Z</time>
      </trkpt>
      <trkpt lat="43.69686" lon="7.07082">
        <ele>280.20001220703</ele>
        <time>2022-03-12T11:57:09.000Z</time>
      </trkpt>
      <trkpt lat="43.69682" lon="7.07073">
        <ele>280.20001220703</ele>
        <time>2022-03-12T11:57:12.000Z</time>
      </trkpt>
      <trkpt lat="43.6968" lon="7.07071">
        <ele>280</ele>
        <time>2022-03-12T11:57:13.000Z</time>
      </trkpt>
      <trkpt lat="43.6967" lon="7.07064">
        <ele>279.60000610352</ele>
        <time>2022-03-12T11:57:16.000Z</time>
      </trkpt>
      <trkpt lat="43.69665" lon="7.07061">
        <ele>278.60000610352</ele>
        <time>2022-03-12T11:57:18.000Z</time>
      </trkpt>
      <trkpt lat="43.69662" lon="7.0706">
        <ele>278.20001220703</ele>
        <time>2022-03-12T11:57:20.000Z</time>
      </trkpt>
      <trkpt lat="43.69661" lon="7.07059">
        <ele>277.60000610352</ele>
        <time>2022-03-12T11:57:22.000Z</time>
      </trkpt>
      <trkpt lat="43.69659" lon="7.07059">
        <ele>277.39999389648</ele>
        <time>2022-03-12T11:57:25.000Z</time>
      </trkpt>
      <trkpt lat="43.69656" lon="7.07057">
        <ele>277</ele>
        <time>2022-03-12T11:57:31.000Z</time>
      </trkpt>
      <trkpt lat="43.69654" lon="7.07056">
        <ele>276.79998779297</ele>
        <time>2022-03-12T11:57:38.000Z</time>
      </trkpt>
      <trkpt lat="43.69653" lon="7.07056">
        <ele>276.60000610352</ele>
        <time>2022-03-12T11:57:40.000Z</time>
      </trkpt>
      <trkpt lat="43.69651" lon="7.07054">
        <ele>276.60000610352</ele>
        <time>2022-03-12T11:57:46.000Z</time>
      </trkpt>
      <trkpt lat="43.69646" lon="7.07052">
        <ele>276.79998779297</ele>
        <time>2022-03-12T11:57:53.000Z</time>
      </trkpt>
      <trkpt lat="43.69644" lon="7.07051">
        <ele>276.39999389648</ele>
        <time>2022-03-12T11:57:56.000Z</time>
      </trkpt>
      <trkpt lat="43.69641" lon="7.07047">
        <ele>276.20001220703</ele>
        <time>2022-03-12T11:57:58.000Z</time>
      </trkpt>
      <trkpt lat="43.69633" lon="7.07029">
        <ele>275.60000610352</ele>
        <time>2022-03-12T11:58:02.000Z</time>
      </trkpt>
      <trkpt lat="43.69633" lon="7.07028">
        <ele>275.39999389648</ele>
        <time>2022-03-12T11:58:03.000Z</time>
      </trkpt>
      <trkpt lat="43.69633" lon="7.07024">
        <ele>275</ele>
        <time>2022-03-12T11:58:05.000Z</time>
      </trkpt>
      <trkpt lat="43.69635" lon="7.07018">
        <ele>274.39999389648</ele>
        <time>2022-03-12T11:58:07.000Z</time>
      </trkpt>
      <trkpt lat="43.69636" lon="7.07008">
        <ele>274.60000610352</ele>
        <time>2022-03-12T11:58:10.000Z</time>
      </trkpt>
      <trkpt lat="43.69638" lon="7.06988">
        <ele>274.79998779297</ele>
        <time>2022-03-12T11:58:14.000Z</time>
      </trkpt>
      <trkpt lat="43.69639" lon="7.06972">
        <ele>274.79998779297</ele>
        <time>2022-03-12T11:58:17.000Z</time>
      </trkpt>
      <trkpt lat="43.6964" lon="7.06968">
        <ele>275</ele>
        <time>2022-03-12T11:58:18.000Z</time>
      </trkpt>
      <trkpt lat="43.69641" lon="7.06965">
        <ele>275</ele>
        <time>2022-03-12T11:58:19.000Z</time>
      </trkpt>
      <trkpt lat="43.69645" lon="7.0696">
        <ele>275.39999389648</ele>
        <time>2022-03-12T11:58:21.000Z</time>
      </trkpt>
      <trkpt lat="43.69649" lon="7.06955">
        <ele>275.60000610352</ele>
        <time>2022-03-12T11:58:23.000Z</time>
      </trkpt>
      <trkpt lat="43.69655" lon="7.06947">
        <ele>277</ele>
        <time>2022-03-12T11:58:26.000Z</time>
      </trkpt>
      <trkpt lat="43.69659" lon="7.06942">
        <ele>278.39999389648</ele>
        <time>2022-03-12T11:58:28.000Z</time>
      </trkpt>
      <trkpt lat="43.69661" lon="7.06938">
        <ele>279.60000610352</ele>
        <time>2022-03-12T11:58:30.000Z</time>
      </trkpt>
      <trkpt lat="43.69665" lon="7.06929">
        <ele>280.20001220703</ele>
        <time>2022-03-12T11:58:33.000Z</time>
      </trkpt>
      <trkpt lat="43.69667" lon="7.06927">
        <ele>280.20001220703</ele>
        <time>2022-03-12T11:58:34.000Z</time>
      </trkpt>
      <trkpt lat="43.6967" lon="7.06922">
        <ele>280.60000610352</ele>
        <time>2022-03-12T11:58:36.000Z</time>
      </trkpt>
      <trkpt lat="43.69672" lon="7.0692">
        <ele>280.79998779297</ele>
        <time>2022-03-12T11:58:37.000Z</time>
      </trkpt>
      <trkpt lat="43.69679" lon="7.06908">
        <ele>281.60000610352</ele>
        <time>2022-03-12T11:58:41.000Z</time>
      </trkpt>
      <trkpt lat="43.69683" lon="7.06903">
        <ele>282</ele>
        <time>2022-03-12T11:58:43.000Z</time>
      </trkpt>
      <trkpt lat="43.69694" lon="7.06892">
        <ele>282.20001220703</ele>
        <time>2022-03-12T11:58:48.000Z</time>
      </trkpt>
      <trkpt lat="43.69701" lon="7.06888">
        <ele>282.60000610352</ele>
        <time>2022-03-12T11:58:51.000Z</time>
      </trkpt>
      <trkpt lat="43.69703" lon="7.06885">
        <ele>282.79998779297</ele>
        <time>2022-03-12T11:58:52.000Z</time>
      </trkpt>
      <trkpt lat="43.69708" lon="7.06881">
        <ele>283</ele>
        <time>2022-03-12T11:58:54.000Z</time>
      </trkpt>
      <trkpt lat="43.69715" lon="7.0688">
        <ele>283</ele>
        <time>2022-03-12T11:58:56.000Z</time>
      </trkpt>
      <trkpt lat="43.69733" lon="7.06877">
        <ele>283.39999389648</ele>
        <time>2022-03-12T11:59:02.000Z</time>
      </trkpt>
      <trkpt lat="43.69748" lon="7.06871">
        <ele>283.60000610352</ele>
        <time>2022-03-12T11:59:07.000Z</time>
      </trkpt>
      <trkpt lat="43.69762" lon="7.06867">
        <ele>283.60000610352</ele>
        <time>2022-03-12T11:59:12.000Z</time>
      </trkpt>
      <trkpt lat="43.69776" lon="7.06862">
        <ele>283</ele>
        <time>2022-03-12T11:59:17.000Z</time>
      </trkpt>
      <trkpt lat="43.69786" lon="7.06858">
        <ele>283.20001220703</ele>
        <time>2022-03-12T11:59:21.000Z</time>
      </trkpt>
      <trkpt lat="43.6979" lon="7.06865">
        <ele>282.39999389648</ele>
        <time>2022-03-12T11:59:24.000Z</time>
      </trkpt>
      <trkpt lat="43.69792" lon="7.06867">
        <ele>281.20001220703</ele>
        <time>2022-03-12T11:59:26.000Z</time>
      </trkpt>
      <trkpt lat="43.69794" lon="7.06866">
        <ele>280.79998779297</ele>
        <time>2022-03-12T11:59:27.000Z</time>
      </trkpt>
      <trkpt lat="43.69796" lon="7.06859">
        <ele>280</ele>
        <time>2022-03-12T11:59:30.000Z</time>
      </trkpt>
      <trkpt lat="43.69797" lon="7.06856">
        <ele>279.60000610352</ele>
        <time>2022-03-12T11:59:31.000Z</time>
      </trkpt>
      <trkpt lat="43.69798" lon="7.06856">
        <ele>279</ele>
        <time>2022-03-12T11:59:32.000Z</time>
      </trkpt>
      <trkpt lat="43.698" lon="7.0686">
        <ele>278</ele>
        <time>2022-03-12T11:59:34.000Z</time>
      </trkpt>
      <trkpt lat="43.69802" lon="7.06863">
        <ele>277.60000610352</ele>
        <time>2022-03-12T11:59:35.000Z</time>
      </trkpt>
      <trkpt lat="43.6981" lon="7.06865">
        <ele>276.39999389648</ele>
        <time>2022-03-12T11:59:37.000Z</time>
      </trkpt>
      <trkpt lat="43.69818" lon="7.06868">
        <ele>275.39999389648</ele>
        <time>2022-03-12T11:59:39.000Z</time>
      </trkpt>
      <trkpt lat="43.69822" lon="7.06868">
        <ele>275.39999389648</ele>
        <time>2022-03-12T11:59:40.000Z</time>
      </trkpt>
      <trkpt lat="43.69826" lon="7.06868">
        <ele>275</ele>
        <time>2022-03-12T11:59:41.000Z</time>
      </trkpt>
      <trkpt lat="43.69834" lon="7.06864">
        <ele>274</ele>
        <time>2022-03-12T11:59:43.000Z</time>
      </trkpt>
      <trkpt lat="43.69843" lon="7.06859">
        <ele>271.79998779297</ele>
        <time>2022-03-12T11:59:45.000Z</time>
      </trkpt>
      <trkpt lat="43.69847" lon="7.06859">
        <ele>270.39999389648</ele>
        <time>2022-03-12T11:59:46.000Z</time>
      </trkpt>
      <trkpt lat="43.69851" lon="7.06861">
        <ele>269.20001220703</ele>
        <time>2022-03-12T11:59:47.000Z</time>
      </trkpt>
      <trkpt lat="43.69856" lon="7.06862">
        <ele>267.79998779297</ele>
        <time>2022-03-12T11:59:48.000Z</time>
      </trkpt>
      <trkpt lat="43.69869" lon="7.06863">
        <ele>266.20001220703</ele>
        <time>2022-03-12T11:59:50.000Z</time>
      </trkpt>
      <trkpt lat="43.69875" lon="7.06861">
        <ele>265.39999389648</ele>
        <time>2022-03-12T11:59:51.000Z</time>
      </trkpt>
      <trkpt lat="43.6988" lon="7.06859">
        <ele>264.79998779297</ele>
        <time>2022-03-12T11:59:52.000Z</time>
      </trkpt>
      <trkpt lat="43.69885" lon="7.06858">
        <ele>264</ele>
        <time>2022-03-12T11:59:53.000Z</time>
      </trkpt>
      <trkpt lat="43.69888" lon="7.06858">
        <ele>263.60000610352</ele>
        <time>2022-03-12T11:59:54.000Z</time>
      </trkpt>
      <trkpt lat="43.69894" lon="7.06856">
        <ele>263.20001220703</ele>
        <time>2022-03-12T11:59:55.000Z</time>
      </trkpt>
      <trkpt lat="43.69904" lon="7.06853">
        <ele>262.20001220703</ele>
        <time>2022-03-12T11:59:57.000Z</time>
      </trkpt>
      <trkpt lat="43.69912" lon="7.06847">
        <ele>261.20001220703</ele>
        <time>2022-03-12T11:59:59.000Z</time>
      </trkpt>
      <trkpt lat="43.69916" lon="7.06845">
        <ele>260.60000610352</ele>
        <time>2022-03-12T12:00:00.000Z</time>
      </trkpt>
      <trkpt lat="43.69921" lon="7.06842">
        <ele>260</ele>
        <time>2022-03-12T12:00:01.000Z</time>
      </trkpt>
      <trkpt lat="43.6993" lon="7.06837">
        <ele>258.79998779297</ele>
        <time>2022-03-12T12:00:03.000Z</time>
      </trkpt>
      <trkpt lat="43.69934" lon="7.06836">
        <ele>258</ele>
        <time>2022-03-12T12:00:04.000Z</time>
      </trkpt>
      <trkpt lat="43.6994" lon="7.06836">
        <ele>257.60000610352</ele>
        <time>2022-03-12T12:00:05.000Z</time>
      </trkpt>
      <trkpt lat="43.69944" lon="7.06833">
        <ele>256.39999389648</ele>
        <time>2022-03-12T12:00:06.000Z</time>
      </trkpt>
      <trkpt lat="43.69953" lon="7.06826">
        <ele>255</ele>
        <time>2022-03-12T12:00:08.000Z</time>
      </trkpt>
      <trkpt lat="43.69963" lon="7.06814">
        <ele>253.60000610352</ele>
        <time>2022-03-12T12:00:10.000Z</time>
      </trkpt>
      <trkpt lat="43.69974" lon="7.06803">
        <ele>252.80000305176</ele>
        <time>2022-03-12T12:00:12.000Z</time>
      </trkpt>
      <trkpt lat="43.69979" lon="7.06799">
        <ele>252.39999389648</ele>
        <time>2022-03-12T12:00:13.000Z</time>
      </trkpt>
      <trkpt lat="43.69984" lon="7.06795">
        <ele>252.19999694824</ele>
        <time>2022-03-12T12:00:14.000Z</time>
      </trkpt>
      <trkpt lat="43.69989" lon="7.06791">
        <ele>252.19999694824</ele>
        <time>2022-03-12T12:00:15.000Z</time>
      </trkpt>
      <trkpt lat="43.7" lon="7.06787">
        <ele>252.19999694824</ele>
        <time>2022-03-12T12:00:17.000Z</time>
      </trkpt>
      <trkpt lat="43.7001" lon="7.06784">
        <ele>252.19999694824</ele>
        <time>2022-03-12T12:00:19.000Z</time>
      </trkpt>
      <trkpt lat="43.70025" lon="7.06779">
        <ele>252.39999389648</ele>
        <time>2022-03-12T12:00:22.000Z</time>
      </trkpt>
      <trkpt lat="43.70044" lon="7.06773">
        <ele>253.60000610352</ele>
        <time>2022-03-12T12:00:26.000Z</time>
      </trkpt>
      <trkpt lat="43.70053" lon="7.06771">
        <ele>254.39999389648</ele>
        <time>2022-03-12T12:00:28.000Z</time>
      </trkpt>
      <trkpt lat="43.70061" lon="7.06768">
        <ele>255</ele>
        <time>2022-03-12T12:00:30.000Z</time>
      </trkpt>
      <trkpt lat="43.70064" lon="7.06767">
        <ele>255.39999389648</ele>
        <time>2022-03-12T12:00:31.000Z</time>
      </trkpt>
      <trkpt lat="43.70068" lon="7.06767">
        <ele>256.39999389648</ele>
        <time>2022-03-12T12:00:33.000Z</time>
      </trkpt>
      <trkpt lat="43.7007" lon="7.06767">
        <ele>256.79998779297</ele>
        <time>2022-03-12T12:00:34.000Z</time>
      </trkpt>
      <trkpt lat="43.70074" lon="7.06764">
        <ele>257.79998779297</ele>
        <time>2022-03-12T12:00:36.000Z</time>
      </trkpt>
      <trkpt lat="43.70081" lon="7.0676">
        <ele>258.60000610352</ele>
        <time>2022-03-12T12:00:38.000Z</time>
      </trkpt>
      <trkpt lat="43.70085" lon="7.06759">
        <ele>258.79998779297</ele>
        <time>2022-03-12T12:00:39.000Z</time>
      </trkpt>
      <trkpt lat="43.701" lon="7.06751">
        <ele>259.39999389648</ele>
        <time>2022-03-12T12:00:43.000Z</time>
      </trkpt>
      <trkpt lat="43.70108" lon="7.06746">
        <ele>260</ele>
        <time>2022-03-12T12:00:45.000Z</time>
      </trkpt>
      <trkpt lat="43.70127" lon="7.0674">
        <ele>260.39999389648</ele>
        <time>2022-03-12T12:00:50.000Z</time>
      </trkpt>
      <trkpt lat="43.70134" lon="7.0674">
        <ele>261</ele>
        <time>2022-03-12T12:00:52.000Z</time>
      </trkpt>
      <trkpt lat="43.70142" lon="7.06742">
        <ele>262.39999389648</ele>
        <time>2022-03-12T12:00:55.000Z</time>
      </trkpt>
      <trkpt lat="43.70145" lon="7.06742">
        <ele>262.79998779297</ele>
        <time>2022-03-12T12:00:56.000Z</time>
      </trkpt>
      <trkpt lat="43.7015" lon="7.06741">
        <ele>263.39999389648</ele>
        <time>2022-03-12T12:00:58.000Z</time>
      </trkpt>
      <trkpt lat="43.70158" lon="7.06741">
        <ele>264.79998779297</ele>
        <time>2022-03-12T12:01:01.000Z</time>
      </trkpt>
      <trkpt lat="43.70168" lon="7.06741">
        <ele>265.79998779297</ele>
        <time>2022-03-12T12:01:05.000Z</time>
      </trkpt>
      <trkpt lat="43.7017" lon="7.0674">
        <ele>266.20001220703</ele>
        <time>2022-03-12T12:01:06.000Z</time>
      </trkpt>
      <trkpt lat="43.70178" lon="7.0674">
        <ele>267</ele>
        <time>2022-03-12T12:01:09.000Z</time>
      </trkpt>
      <trkpt lat="43.70184" lon="7.0674">
        <ele>267.39999389648</ele>
        <time>2022-03-12T12:01:11.000Z</time>
      </trkpt>
      <trkpt lat="43.70193" lon="7.06742">
        <ele>267.79998779297</ele>
        <time>2022-03-12T12:01:15.000Z</time>
      </trkpt>
      <trkpt lat="43.70196" lon="7.06743">
        <ele>268</ele>
        <time>2022-03-12T12:01:16.000Z</time>
      </trkpt>
      <trkpt lat="43.70212" lon="7.06749">
        <ele>269</ele>
        <time>2022-03-12T12:01:21.000Z</time>
      </trkpt>
      <trkpt lat="43.70216" lon="7.06751">
        <ele>269.20001220703</ele>
        <time>2022-03-12T12:01:23.000Z</time>
      </trkpt>
      <trkpt lat="43.70226" lon="7.06752">
        <ele>270</ele>
        <time>2022-03-12T12:01:26.000Z</time>
      </trkpt>
      <trkpt lat="43.70239" lon="7.06752">
        <ele>270</ele>
        <time>2022-03-12T12:01:29.000Z</time>
      </trkpt>
      <trkpt lat="43.70249" lon="7.0675">
        <ele>268.79998779297</ele>
        <time>2022-03-12T12:01:31.000Z</time>
      </trkpt>
      <trkpt lat="43.70253" lon="7.06749">
        <ele>268.20001220703</ele>
        <time>2022-03-12T12:01:32.000Z</time>
      </trkpt>
      <trkpt lat="43.70263" lon="7.06746">
        <ele>267</ele>
        <time>2022-03-12T12:01:34.000Z</time>
      </trkpt>
      <trkpt lat="43.70275" lon="7.06744">
        <ele>265.39999389648</ele>
        <time>2022-03-12T12:01:36.000Z</time>
      </trkpt>
      <trkpt lat="43.7028" lon="7.06744">
        <ele>265.20001220703</ele>
        <time>2022-03-12T12:01:37.000Z</time>
      </trkpt>
      <trkpt lat="43.70286" lon="7.06744">
        <ele>264.39999389648</ele>
        <time>2022-03-12T12:01:38.000Z</time>
      </trkpt>
      <trkpt lat="43.7029" lon="7.06742">
        <ele>264</ele>
        <time>2022-03-12T12:01:39.000Z</time>
      </trkpt>
      <trkpt lat="43.70295" lon="7.0674">
        <ele>263.39999389648</ele>
        <time>2022-03-12T12:01:40.000Z</time>
      </trkpt>
      <trkpt lat="43.703" lon="7.06738">
        <ele>263.20001220703</ele>
        <time>2022-03-12T12:01:41.000Z</time>
      </trkpt>
      <trkpt lat="43.70314" lon="7.06734">
        <ele>262.60000610352</ele>
        <time>2022-03-12T12:01:44.000Z</time>
      </trkpt>
      <trkpt lat="43.70323" lon="7.06732">
        <ele>262.60000610352</ele>
        <time>2022-03-12T12:01:46.000Z</time>
      </trkpt>
      <trkpt lat="43.7034" lon="7.06727">
        <ele>263.39999389648</ele>
        <time>2022-03-12T12:01:50.000Z</time>
      </trkpt>
      <trkpt lat="43.70344" lon="7.06725">
        <ele>263.79998779297</ele>
        <time>2022-03-12T12:01:51.000Z</time>
      </trkpt>
      <trkpt lat="43.70354" lon="7.06724">
        <ele>264.20001220703</ele>
        <time>2022-03-12T12:01:54.000Z</time>
      </trkpt>
      <trkpt lat="43.70365" lon="7.06726">
        <ele>266</ele>
        <time>2022-03-12T12:01:59.000Z</time>
      </trkpt>
      <trkpt lat="43.70367" lon="7.06726">
        <ele>266.60000610352</ele>
        <time>2022-03-12T12:02:00.000Z</time>
      </trkpt>
      <trkpt lat="43.70369" lon="7.06726">
        <ele>267.39999389648</ele>
        <time>2022-03-12T12:02:01.000Z</time>
      </trkpt>
      <trkpt lat="43.70375" lon="7.06726">
        <ele>268.39999389648</ele>
        <time>2022-03-12T12:02:03.000Z</time>
      </trkpt>
      <trkpt lat="43.70382" lon="7.06727">
        <ele>269</ele>
        <time>2022-03-12T12:02:05.000Z</time>
      </trkpt>
      <trkpt lat="43.70391" lon="7.06726">
        <ele>269.60000610352</ele>
        <time>2022-03-12T12:02:08.000Z</time>
      </trkpt>
      <trkpt lat="43.704" lon="7.06723">
        <ele>270.60000610352</ele>
        <time>2022-03-12T12:02:11.000Z</time>
      </trkpt>
      <trkpt lat="43.70404" lon="7.06722">
        <ele>271</ele>
        <time>2022-03-12T12:02:12.000Z</time>
      </trkpt>
      <trkpt lat="43.70416" lon="7.06717">
        <ele>272.20001220703</ele>
        <time>2022-03-12T12:02:16.000Z</time>
      </trkpt>
      <trkpt lat="43.70429" lon="7.06712">
        <ele>273.20001220703</ele>
        <time>2022-03-12T12:02:20.000Z</time>
      </trkpt>
      <trkpt lat="43.70433" lon="7.0671">
        <ele>273.39999389648</ele>
        <time>2022-03-12T12:02:21.000Z</time>
      </trkpt>
      <trkpt lat="43.70448" lon="7.06701">
        <ele>274</ele>
        <time>2022-03-12T12:02:26.000Z</time>
      </trkpt>
      <trkpt lat="43.70455" lon="7.06696">
        <ele>274.39999389648</ele>
        <time>2022-03-12T12:02:28.000Z</time>
      </trkpt>
      <trkpt lat="43.70465" lon="7.06691">
        <ele>275.39999389648</ele>
        <time>2022-03-12T12:02:32.000Z</time>
      </trkpt>
      <trkpt lat="43.70467" lon="7.0669">
        <ele>275.60000610352</ele>
        <time>2022-03-12T12:02:33.000Z</time>
      </trkpt>
      <trkpt lat="43.70475" lon="7.06683">
        <ele>277</ele>
        <time>2022-03-12T12:02:37.000Z</time>
      </trkpt>
      <trkpt lat="43.70479" lon="7.06681">
        <ele>277.60000610352</ele>
        <time>2022-03-12T12:02:39.000Z</time>
      </trkpt>
      <trkpt lat="43.70482" lon="7.06681">
        <ele>278.20001220703</ele>
        <time>2022-03-12T12:02:41.000Z</time>
      </trkpt>
      <trkpt lat="43.70485" lon="7.06682">
        <ele>278.79998779297</ele>
        <time>2022-03-12T12:02:43.000Z</time>
      </trkpt>
      <trkpt lat="43.70487" lon="7.06682">
        <ele>279.20001220703</ele>
        <time>2022-03-12T12:02:44.000Z</time>
      </trkpt>
      <trkpt lat="43.70491" lon="7.06681">
        <ele>280.39999389648</ele>
        <time>2022-03-12T12:02:47.000Z</time>
      </trkpt>
      <trkpt lat="43.70493" lon="7.0668">
        <ele>280.79998779297</ele>
        <time>2022-03-12T12:02:48.000Z</time>
      </trkpt>
      <trkpt lat="43.70498" lon="7.0668">
        <ele>281.60000610352</ele>
        <time>2022-03-12T12:02:51.000Z</time>
      </trkpt>
      <trkpt lat="43.70501" lon="7.06679">
        <ele>282</ele>
        <time>2022-03-12T12:02:53.000Z</time>
      </trkpt>
      <trkpt lat="43.70502" lon="7.06679">
        <ele>282.20001220703</ele>
        <time>2022-03-12T12:02:54.000Z</time>
      </trkpt>
      <trkpt lat="43.70503" lon="7.06678">
        <ele>282.79998779297</ele>
        <time>2022-03-12T12:02:55.000Z</time>
      </trkpt>
      <trkpt lat="43.7051" lon="7.06677">
        <ele>284</ele>
        <time>2022-03-12T12:02:58.000Z</time>
      </trkpt>
      <trkpt lat="43.70512" lon="7.06678">
        <ele>284.20001220703</ele>
        <time>2022-03-12T12:02:59.000Z</time>
      </trkpt>
      <trkpt lat="43.70516" lon="7.06677">
        <ele>284.79998779297</ele>
        <time>2022-03-12T12:03:01.000Z</time>
      </trkpt>
      <trkpt lat="43.7052" lon="7.06676">
        <ele>285</ele>
        <time>2022-03-12T12:03:03.000Z</time>
      </trkpt>
      <trkpt lat="43.70528" lon="7.06673">
        <ele>285.39999389648</ele>
        <time>2022-03-12T12:03:07.000Z</time>
      </trkpt>
      <trkpt lat="43.70533" lon="7.06672">
        <ele>285.79998779297</ele>
        <time>2022-03-12T12:03:09.000Z</time>
      </trkpt>
      <trkpt lat="43.70537" lon="7.06673">
        <ele>286</ele>
        <time>2022-03-12T12:03:11.000Z</time>
      </trkpt>
      <trkpt lat="43.70539" lon="7.06672">
        <ele>286.20001220703</ele>
        <time>2022-03-12T12:03:12.000Z</time>
      </trkpt>
      <trkpt lat="43.70548" lon="7.06671">
        <ele>287.20001220703</ele>
        <time>2022-03-12T12:03:16.000Z</time>
      </trkpt>
      <trkpt lat="43.70555" lon="7.0667">
        <ele>287.79998779297</ele>
        <time>2022-03-12T12:03:19.000Z</time>
      </trkpt>
      <trkpt lat="43.7056" lon="7.0667">
        <ele>288.39999389648</ele>
        <time>2022-03-12T12:03:21.000Z</time>
      </trkpt>
      <trkpt lat="43.70571" lon="7.0667">
        <ele>289.20001220703</ele>
        <time>2022-03-12T12:03:25.000Z</time>
      </trkpt>
      <trkpt lat="43.70573" lon="7.0667">
        <ele>289.39999389648</ele>
        <time>2022-03-12T12:03:26.000Z</time>
      </trkpt>
      <trkpt lat="43.70584" lon="7.06675">
        <ele>290.39999389648</ele>
        <time>2022-03-12T12:03:30.000Z</time>
      </trkpt>
      <trkpt lat="43.70586" lon="7.06676">
        <ele>290.60000610352</ele>
        <time>2022-03-12T12:03:31.000Z</time>
      </trkpt>
      <trkpt lat="43.70593" lon="7.06683">
        <ele>291.79998779297</ele>
        <time>2022-03-12T12:03:36.000Z</time>
      </trkpt>
      <trkpt lat="43.70598" lon="7.06687">
        <ele>292.79998779297</ele>
        <time>2022-03-12T12:03:41.000Z</time>
      </trkpt>
      <trkpt lat="43.70599" lon="7.06687">
        <ele>292.79998779297</ele>
        <time>2022-03-12T12:03:42.000Z</time>
      </trkpt>
      <trkpt lat="43.70601" lon="7.06686">
        <ele>293</ele>
        <time>2022-03-12T12:03:44.000Z</time>
      </trkpt>
      <trkpt lat="43.70603" lon="7.06688">
        <ele>293.20001220703</ele>
        <time>2022-03-12T12:03:46.000Z</time>
      </trkpt>
      <trkpt lat="43.70608" lon="7.06689">
        <ele>293.20001220703</ele>
        <time>2022-03-12T12:03:51.000Z</time>
      </trkpt>
      <trkpt lat="43.70609" lon="7.06689">
        <ele>293.20001220703</ele>
        <time>2022-03-12T12:03:58.000Z</time>
      </trkpt>
      <trkpt lat="43.70609" lon="7.06688">
        <ele>293.60000610352</ele>
        <time>2022-03-12T12:04:22.000Z</time>
      </trkpt>
      <trkpt lat="43.7061" lon="7.06688">
        <ele>293.79998779297</ele>
        <time>2022-03-12T12:04:33.000Z</time>
      </trkpt>
      <trkpt lat="43.7061" lon="7.06688">
        <ele>293.60000610352</ele>
        <time>2022-03-12T12:04:49.000Z</time>
      </trkpt>
      <trkpt lat="43.70611" lon="7.06688">
        <ele>293.60000610352</ele>
        <time>2022-03-12T12:05:09.000Z</time>
      </trkpt>
      <trkpt lat="43.70613" lon="7.06687">
        <ele>293.60000610352</ele>
        <time>2022-03-12T12:05:13.000Z</time>
      </trkpt>
      <trkpt lat="43.70615" lon="7.06684">
        <ele>293.60000610352</ele>
        <time>2022-03-12T12:05:15.000Z</time>
      </trkpt>
      <trkpt lat="43.70626" lon="7.06674">
        <ele>293.20001220703</ele>
        <time>2022-03-12T12:05:21.000Z</time>
      </trkpt>
      <trkpt lat="43.7064" lon="7.06667">
        <ele>293.20001220703</ele>
        <time>2022-03-12T12:05:27.000Z</time>
      </trkpt>
      <trkpt lat="43.70657" lon="7.0666">
        <ele>293.20001220703</ele>
        <time>2022-03-12T12:05:33.000Z</time>
      </trkpt>
      <trkpt lat="43.70672" lon="7.06649">
        <ele>293.39999389648</ele>
        <time>2022-03-12T12:05:39.000Z</time>
      </trkpt>
      <trkpt lat="43.70679" lon="7.06649">
        <ele>294</ele>
        <time>2022-03-12T12:05:43.000Z</time>
      </trkpt>
      <trkpt lat="43.70681" lon="7.06652">
        <ele>294.39999389648</ele>
        <time>2022-03-12T12:05:45.000Z</time>
      </trkpt>
      <trkpt lat="43.70681" lon="7.06655">
        <ele>294.60000610352</ele>
        <time>2022-03-12T12:05:50.000Z</time>
      </trkpt>
      <trkpt lat="43.70681" lon="7.06654">
        <ele>294.79998779297</ele>
        <time>2022-03-12T12:05:57.000Z</time>
      </trkpt>
      <trkpt lat="43.70683" lon="7.06656">
        <ele>295</ele>
        <time>2022-03-12T12:06:00.000Z</time>
      </trkpt>
      <trkpt lat="43.70684" lon="7.06658">
        <ele>294.79998779297</ele>
        <time>2022-03-12T12:06:03.000Z</time>
      </trkpt>
      <trkpt lat="43.7069" lon="7.06669">
        <ele>294.60000610352</ele>
        <time>2022-03-12T12:06:08.000Z</time>
      </trkpt>
      <trkpt lat="43.70696" lon="7.06678">
        <ele>294.39999389648</ele>
        <time>2022-03-12T12:06:10.000Z</time>
      </trkpt>
      <trkpt lat="43.70705" lon="7.06684">
        <ele>293.39999389648</ele>
        <time>2022-03-12T12:06:12.000Z</time>
      </trkpt>
      <trkpt lat="43.7071" lon="7.06685">
        <ele>292.60000610352</ele>
        <time>2022-03-12T12:06:13.000Z</time>
      </trkpt>
      <trkpt lat="43.70715" lon="7.06683">
        <ele>291.79998779297</ele>
        <time>2022-03-12T12:06:14.000Z</time>
      </trkpt>
      <trkpt lat="43.7072" lon="7.06682">
        <ele>290.79998779297</ele>
        <time>2022-03-12T12:06:15.000Z</time>
      </trkpt>
      <trkpt lat="43.70727" lon="7.0668">
        <ele>290</ele>
        <time>2022-03-12T12:06:16.000Z</time>
      </trkpt>
      <trkpt lat="43.70738" lon="7.06677">
        <ele>288.79998779297</ele>
        <time>2022-03-12T12:06:18.000Z</time>
      </trkpt>
      <trkpt lat="43.7075" lon="7.06674">
        <ele>288.20001220703</ele>
        <time>2022-03-12T12:06:20.000Z</time>
      </trkpt>
      <trkpt lat="43.70762" lon="7.06671">
        <ele>287.79998779297</ele>
        <time>2022-03-12T12:06:22.000Z</time>
      </trkpt>
      <trkpt lat="43.70778" lon="7.06668">
        <ele>286.60000610352</ele>
        <time>2022-03-12T12:06:25.000Z</time>
      </trkpt>
      <trkpt lat="43.70785" lon="7.06668">
        <ele>286.20001220703</ele>
        <time>2022-03-12T12:06:26.000Z</time>
      </trkpt>
      <trkpt lat="43.70791" lon="7.06668">
        <ele>285.79998779297</ele>
        <time>2022-03-12T12:06:27.000Z</time>
      </trkpt>
      <trkpt lat="43.70797" lon="7.06668">
        <ele>285.39999389648</ele>
        <time>2022-03-12T12:06:28.000Z</time>
      </trkpt>
      <trkpt lat="43.70815" lon="7.06665">
        <ele>284</ele>
        <time>2022-03-12T12:06:31.000Z</time>
      </trkpt>
      <trkpt lat="43.70828" lon="7.06662">
        <ele>282.79998779297</ele>
        <time>2022-03-12T12:06:34.000Z</time>
      </trkpt>
      <trkpt lat="43.70833" lon="7.06661">
        <ele>282.39999389648</ele>
        <time>2022-03-12T12:06:35.000Z</time>
      </trkpt>
      <trkpt lat="43.70844" lon="7.06657">
        <ele>281.60000610352</ele>
        <time>2022-03-12T12:06:37.000Z</time>
      </trkpt>
      <trkpt lat="43.70856" lon="7.06655">
        <ele>280.60000610352</ele>
        <time>2022-03-12T12:06:40.000Z</time>
      </trkpt>
      <trkpt lat="43.70859" lon="7.06656">
        <ele>280.39999389648</ele>
        <time>2022-03-12T12:06:41.000Z</time>
      </trkpt>
      <trkpt lat="43.70862" lon="7.06654">
        <ele>280</ele>
        <time>2022-03-12T12:06:43.000Z</time>
      </trkpt>
      <trkpt lat="43.70863" lon="7.06653">
        <ele>280</ele>
        <time>2022-03-12T12:06:44.000Z</time>
      </trkpt>
      <trkpt lat="43.70862" lon="7.06651">
        <ele>279.79998779297</ele>
        <time>2022-03-12T12:06:47.000Z</time>
      </trkpt>
      <trkpt lat="43.70858" lon="7.06653">
        <ele>279.79998779297</ele>
        <time>2022-03-12T12:06:49.000Z</time>
      </trkpt>
      <trkpt lat="43.70849" lon="7.06656">
        <ele>280.20001220703</ele>
        <time>2022-03-12T12:06:52.000Z</time>
      </trkpt>
      <trkpt lat="43.70839" lon="7.06659">
        <ele>280.79998779297</ele>
        <time>2022-03-12T12:06:55.000Z</time>
      </trkpt>
      <trkpt lat="43.7082" lon="7.06663">
        <ele>281.60000610352</ele>
        <time>2022-03-12T12:07:01.000Z</time>
      </trkpt>
      <trkpt lat="43.70818" lon="7.06663">
        <ele>281.79998779297</ele>
        <time>2022-03-12T12:07:02.000Z</time>
      </trkpt>
      <trkpt lat="43.7081" lon="7.06663">
        <ele>282.79998779297</ele>
        <time>2022-03-12T12:07:06.000Z</time>
      </trkpt>
      <trkpt lat="43.70808" lon="7.06663">
        <ele>283.39999389648</ele>
        <time>2022-03-12T12:07:09.000Z</time>
      </trkpt>
      <trkpt lat="43.70806" lon="7.06663">
        <ele>283.79998779297</ele>
        <time>2022-03-12T12:07:11.000Z</time>
      </trkpt>
      <trkpt lat="43.70806" lon="7.06665">
        <ele>284.20001220703</ele>
        <time>2022-03-12T12:07:18.000Z</time>
      </trkpt>
      <trkpt lat="43.70807" lon="7.06665">
        <ele>284</ele>
        <time>2022-03-12T12:07:19.000Z</time>
      </trkpt>
      <trkpt lat="43.70818" lon="7.06664">
        <ele>283.79998779297</ele>
        <time>2022-03-12T12:07:22.000Z</time>
      </trkpt>
      <trkpt lat="43.7084" lon="7.06658">
        <ele>282.79998779297</ele>
        <time>2022-03-12T12:07:26.000Z</time>
      </trkpt>
      <trkpt lat="43.70859" lon="7.06651">
        <ele>281.79998779297</ele>
        <time>2022-03-12T12:07:29.000Z</time>
      </trkpt>
      <trkpt lat="43.70874" lon="7.06646">
        <ele>280.79998779297</ele>
        <time>2022-03-12T12:07:31.000Z</time>
      </trkpt>
      <trkpt lat="43.70888" lon="7.06641">
        <ele>279.20001220703</ele>
        <time>2022-03-12T12:07:33.000Z</time>
      </trkpt>
      <trkpt lat="43.70904" lon="7.06636">
        <ele>278.20001220703</ele>
        <time>2022-03-12T12:07:35.000Z</time>
      </trkpt>
      <trkpt lat="43.70921" lon="7.06629">
        <ele>277</ele>
        <time>2022-03-12T12:07:37.000Z</time>
      </trkpt>
      <trkpt lat="43.7093" lon="7.06625">
        <ele>276.39999389648</ele>
        <time>2022-03-12T12:07:38.000Z</time>
      </trkpt>
      <trkpt lat="43.70939" lon="7.06622">
        <ele>275.60000610352</ele>
        <time>2022-03-12T12:07:39.000Z</time>
      </trkpt>
      <trkpt lat="43.70947" lon="7.06619">
        <ele>274.79998779297</ele>
        <time>2022-03-12T12:07:40.000Z</time>
      </trkpt>
      <trkpt lat="43.70956" lon="7.06616">
        <ele>274.20001220703</ele>
        <time>2022-03-12T12:07:41.000Z</time>
      </trkpt>
      <trkpt lat="43.70966" lon="7.06613">
        <ele>273.20001220703</ele>
        <time>2022-03-12T12:07:42.000Z</time>
      </trkpt>
      <trkpt lat="43.70976" lon="7.06612">
        <ele>272.79998779297</ele>
        <time>2022-03-12T12:07:43.000Z</time>
      </trkpt>
      <trkpt lat="43.70994" lon="7.06613">
        <ele>271.20001220703</ele>
        <time>2022-03-12T12:07:45.000Z</time>
      </trkpt>
      <trkpt lat="43.71004" lon="7.06614">
        <ele>270.20001220703</ele>
        <time>2022-03-12T12:07:46.000Z</time>
      </trkpt>
      <trkpt lat="43.71012" lon="7.06613">
        <ele>268.79998779297</ele>
        <time>2022-03-12T12:07:47.000Z</time>
      </trkpt>
      <trkpt lat="43.71019" lon="7.06612">
        <ele>267.60000610352</ele>
        <time>2022-03-12T12:07:48.000Z</time>
      </trkpt>
      <trkpt lat="43.71029" lon="7.06614">
        <ele>266.20001220703</ele>
        <time>2022-03-12T12:07:50.000Z</time>
      </trkpt>
      <trkpt lat="43.71034" lon="7.0663">
        <ele>266</ele>
        <time>2022-03-12T12:07:53.000Z</time>
      </trkpt>
      <trkpt lat="43.71027" lon="7.06645">
        <ele>266.39999389648</ele>
        <time>2022-03-12T12:07:56.000Z</time>
      </trkpt>
      <trkpt lat="43.71024" lon="7.06647">
        <ele>266.60000610352</ele>
        <time>2022-03-12T12:07:57.000Z</time>
      </trkpt>
      <trkpt lat="43.7102" lon="7.06645">
        <ele>267.20001220703</ele>
        <time>2022-03-12T12:07:59.000Z</time>
      </trkpt>
      <trkpt lat="43.71017" lon="7.06646">
        <ele>267.39999389648</ele>
        <time>2022-03-12T12:08:00.000Z</time>
      </trkpt>
      <trkpt lat="43.71014" lon="7.06651">
        <ele>267.60000610352</ele>
        <time>2022-03-12T12:08:02.000Z</time>
      </trkpt>
      <trkpt lat="43.71012" lon="7.06655">
        <ele>267.79998779297</ele>
        <time>2022-03-12T12:08:03.000Z</time>
      </trkpt>
      <trkpt lat="43.71007" lon="7.06667">
        <ele>267.79998779297</ele>
        <time>2022-03-12T12:08:06.000Z</time>
      </trkpt>
      <trkpt lat="43.71002" lon="7.0668">
        <ele>268.20001220703</ele>
        <time>2022-03-12T12:08:08.000Z</time>
      </trkpt>
      <trkpt lat="43.70999" lon="7.06688">
        <ele>268.60000610352</ele>
        <time>2022-03-12T12:08:09.000Z</time>
      </trkpt>
      <trkpt lat="43.70998" lon="7.06693">
        <ele>269</ele>
        <time>2022-03-12T12:08:10.000Z</time>
      </trkpt>
      <trkpt lat="43.70997" lon="7.06699">
        <ele>269.39999389648</ele>
        <time>2022-03-12T12:08:11.000Z</time>
      </trkpt>
      <trkpt lat="43.70996" lon="7.06705">
        <ele>269.79998779297</ele>
        <time>2022-03-12T12:08:12.000Z</time>
      </trkpt>
      <trkpt lat="43.70994" lon="7.06711">
        <ele>270.20001220703</ele>
        <time>2022-03-12T12:08:13.000Z</time>
      </trkpt>
      <trkpt lat="43.70991" lon="7.06722">
        <ele>271.39999389648</ele>
        <time>2022-03-12T12:08:15.000Z</time>
      </trkpt>
      <trkpt lat="43.70988" lon="7.06727">
        <ele>271.79998779297</ele>
        <time>2022-03-12T12:08:16.000Z</time>
      </trkpt>
      <trkpt lat="43.70986" lon="7.06732">
        <ele>272.39999389648</ele>
        <time>2022-03-12T12:08:17.000Z</time>
      </trkpt>
      <trkpt lat="43.70983" lon="7.06737">
        <ele>272.79998779297</ele>
        <time>2022-03-12T12:08:18.000Z</time>
      </trkpt>
      <trkpt lat="43.70977" lon="7.06745">
        <ele>273.60000610352</ele>
        <time>2022-03-12T12:08:20.000Z</time>
      </trkpt>
      <trkpt lat="43.70972" lon="7.06754">
        <ele>273.79998779297</ele>
        <time>2022-03-12T12:08:22.000Z</time>
      </trkpt>
      <trkpt lat="43.70963" lon="7.06769">
        <ele>274.20001220703</ele>
        <time>2022-03-12T12:08:25.000Z</time>
      </trkpt>
      <trkpt lat="43.70958" lon="7.06778">
        <ele>274.39999389648</ele>
        <time>2022-03-12T12:08:27.000Z</time>
      </trkpt>
      <trkpt lat="43.70953" lon="7.06787">
        <ele>274.60000610352</ele>
        <time>2022-03-12T12:08:29.000Z</time>
      </trkpt>
      <trkpt lat="43.70948" lon="7.06796">
        <ele>275.20001220703</ele>
        <time>2022-03-12T12:08:31.000Z</time>
      </trkpt>
      <trkpt lat="43.7094" lon="7.0681">
        <ele>275.79998779297</ele>
        <time>2022-03-12T12:08:34.000Z</time>
      </trkpt>
      <trkpt lat="43.7093" lon="7.06826">
        <ele>276.39999389648</ele>
        <time>2022-03-12T12:08:38.000Z</time>
      </trkpt>
      <trkpt lat="43.70924" lon="7.06834">
        <ele>276.79998779297</ele>
        <time>2022-03-12T12:08:41.000Z</time>
      </trkpt>
      <trkpt lat="43.70917" lon="7.06844">
        <ele>277.20001220703</ele>
        <time>2022-03-12T12:08:44.000Z</time>
      </trkpt>
      <trkpt lat="43.7091" lon="7.06853">
        <ele>278.20001220703</ele>
        <time>2022-03-12T12:08:47.000Z</time>
      </trkpt>
      <trkpt lat="43.70902" lon="7.06861">
        <ele>279.20001220703</ele>
        <time>2022-03-12T12:08:50.000Z</time>
      </trkpt>
      <trkpt lat="43.70899" lon="7.06864">
        <ele>279.60000610352</ele>
        <time>2022-03-12T12:08:51.000Z</time>
      </trkpt>
      <trkpt lat="43.70891" lon="7.06872">
        <ele>280.39999389648</ele>
        <time>2022-03-12T12:08:54.000Z</time>
      </trkpt>
      <trkpt lat="43.70876" lon="7.06884">
        <ele>281.60000610352</ele>
        <time>2022-03-12T12:08:59.000Z</time>
      </trkpt>
      <trkpt lat="43.70858" lon="7.069">
        <ele>281.60000610352</ele>
        <time>2022-03-12T12:09:05.000Z</time>
      </trkpt>
      <trkpt lat="43.70841" lon="7.06929">
        <ele>282.20001220703</ele>
        <time>2022-03-12T12:09:12.000Z</time>
      </trkpt>
      <trkpt lat="43.70836" lon="7.06937">
        <ele>282.60000610352</ele>
        <time>2022-03-12T12:09:14.000Z</time>
      </trkpt>
      <trkpt lat="43.70824" lon="7.06955">
        <ele>283.79998779297</ele>
        <time>2022-03-12T12:09:19.000Z</time>
      </trkpt>
      <trkpt lat="43.70818" lon="7.06963">
        <ele>284.20001220703</ele>
        <time>2022-03-12T12:09:21.000Z</time>
      </trkpt>
      <trkpt lat="43.7081" lon="7.06974">
        <ele>285</ele>
        <time>2022-03-12T12:09:24.000Z</time>
      </trkpt>
      <trkpt lat="43.70799" lon="7.06982">
        <ele>285.60000610352</ele>
        <time>2022-03-12T12:09:27.000Z</time>
      </trkpt>
      <trkpt lat="43.7077" lon="7.07002">
        <ele>285.79998779297</ele>
        <time>2022-03-12T12:09:35.000Z</time>
      </trkpt>
      <trkpt lat="43.70756" lon="7.07014">
        <ele>286</ele>
        <time>2022-03-12T12:09:39.000Z</time>
      </trkpt>
      <trkpt lat="43.7075" lon="7.07021">
        <ele>286.39999389648</ele>
        <time>2022-03-12T12:09:41.000Z</time>
      </trkpt>
      <trkpt lat="43.70736" lon="7.07038">
        <ele>287.20001220703</ele>
        <time>2022-03-12T12:09:46.000Z</time>
      </trkpt>
      <trkpt lat="43.70728" lon="7.07051">
        <ele>288</ele>
        <time>2022-03-12T12:09:50.000Z</time>
      </trkpt>
      <trkpt lat="43.70726" lon="7.07057">
        <ele>288.39999389648</ele>
        <time>2022-03-12T12:09:51.000Z</time>
      </trkpt>
      <trkpt lat="43.70726" lon="7.07069">
        <ele>288.79998779297</ele>
        <time>2022-03-12T12:09:54.000Z</time>
      </trkpt>
      <trkpt lat="43.70726" lon="7.07079">
        <ele>289.39999389648</ele>
        <time>2022-03-12T12:09:57.000Z</time>
      </trkpt>
      <trkpt lat="43.70727" lon="7.07095">
        <ele>290.39999389648</ele>
        <time>2022-03-12T12:10:01.000Z</time>
      </trkpt>
      <trkpt lat="43.70727" lon="7.07099">
        <ele>290.60000610352</ele>
        <time>2022-03-12T12:10:02.000Z</time>
      </trkpt>
      <trkpt lat="43.70726" lon="7.0711">
        <ele>291.79998779297</ele>
        <time>2022-03-12T12:10:05.000Z</time>
      </trkpt>
      <trkpt lat="43.70729" lon="7.07127">
        <ele>292.79998779297</ele>
        <time>2022-03-12T12:10:09.000Z</time>
      </trkpt>
      <trkpt lat="43.70736" lon="7.07147">
        <ele>293.39999389648</ele>
        <time>2022-03-12T12:10:15.000Z</time>
      </trkpt>
      <trkpt lat="43.7075" lon="7.07174">
        <ele>293</ele>
        <time>2022-03-12T12:10:21.000Z</time>
      </trkpt>
      <trkpt lat="43.70754" lon="7.07178">
        <ele>292.60000610352</ele>
        <time>2022-03-12T12:10:22.000Z</time>
      </trkpt>
      <trkpt lat="43.70765" lon="7.07188">
        <ele>291.79998779297</ele>
        <time>2022-03-12T12:10:25.000Z</time>
      </trkpt>
      <trkpt lat="43.70791" lon="7.07216">
        <ele>290.60000610352</ele>
        <time>2022-03-12T12:10:31.000Z</time>
      </trkpt>
      <trkpt lat="43.70796" lon="7.07223">
        <ele>290.20001220703</ele>
        <time>2022-03-12T12:10:32.000Z</time>
      </trkpt>
      <trkpt lat="43.70807" lon="7.07241">
        <ele>289</ele>
        <time>2022-03-12T12:10:34.000Z</time>
      </trkpt>
      <trkpt lat="43.7081" lon="7.0725">
        <ele>288.39999389648</ele>
        <time>2022-03-12T12:10:35.000Z</time>
      </trkpt>
      <trkpt lat="43.70813" lon="7.0726">
        <ele>287.79998779297</ele>
        <time>2022-03-12T12:10:36.000Z</time>
      </trkpt>
      <trkpt lat="43.70815" lon="7.07282">
        <ele>286.39999389648</ele>
        <time>2022-03-12T12:10:38.000Z</time>
      </trkpt>
      <trkpt lat="43.70816" lon="7.07291">
        <ele>285.79998779297</ele>
        <time>2022-03-12T12:10:39.000Z</time>
      </trkpt>
      <trkpt lat="43.70817" lon="7.07305">
        <ele>285.20001220703</ele>
        <time>2022-03-12T12:10:41.000Z</time>
      </trkpt>
      <trkpt lat="43.70817" lon="7.07311">
        <ele>285.39999389648</ele>
        <time>2022-03-12T12:10:42.000Z</time>
      </trkpt>
      <trkpt lat="43.70817" lon="7.07321">
        <ele>286.39999389648</ele>
        <time>2022-03-12T12:10:44.000Z</time>
      </trkpt>
      <trkpt lat="43.70816" lon="7.0733">
        <ele>288</ele>
        <time>2022-03-12T12:10:46.000Z</time>
      </trkpt>
      <trkpt lat="43.70814" lon="7.07334">
        <ele>288.79998779297</ele>
        <time>2022-03-12T12:10:47.000Z</time>
      </trkpt>
      <trkpt lat="43.70812" lon="7.07338">
        <ele>289.20001220703</ele>
        <time>2022-03-12T12:10:48.000Z</time>
      </trkpt>
      <trkpt lat="43.70805" lon="7.07347">
        <ele>290.39999389648</ele>
        <time>2022-03-12T12:10:51.000Z</time>
      </trkpt>
      <trkpt lat="43.70802" lon="7.0735">
        <ele>290.60000610352</ele>
        <time>2022-03-12T12:10:52.000Z</time>
      </trkpt>
      <trkpt lat="43.70778" lon="7.07382">
        <ele>291.39999389648</ele>
        <time>2022-03-12T12:11:01.000Z</time>
      </trkpt>
      <trkpt lat="43.7077" lon="7.07405">
        <ele>292.60000610352</ele>
        <time>2022-03-12T12:11:06.000Z</time>
      </trkpt>
      <trkpt lat="43.70771" lon="7.07409">
        <ele>292.60000610352</ele>
        <time>2022-03-12T12:11:07.000Z</time>
      </trkpt>
      <trkpt lat="43.7078" lon="7.07423">
        <ele>292.79998779297</ele>
        <time>2022-03-12T12:11:11.000Z</time>
      </trkpt>
      <trkpt lat="43.70798" lon="7.07445">
        <ele>293.60000610352</ele>
        <time>2022-03-12T12:11:17.000Z</time>
      </trkpt>
      <trkpt lat="43.708" lon="7.07449">
        <ele>293.60000610352</ele>
        <time>2022-03-12T12:11:18.000Z</time>
      </trkpt>
      <trkpt lat="43.70808" lon="7.07462">
        <ele>294.60000610352</ele>
        <time>2022-03-12T12:11:21.000Z</time>
      </trkpt>
      <trkpt lat="43.70814" lon="7.0747">
        <ele>295.60000610352</ele>
        <time>2022-03-12T12:11:23.000Z</time>
      </trkpt>
      <trkpt lat="43.70817" lon="7.07474">
        <ele>296.20001220703</ele>
        <time>2022-03-12T12:11:24.000Z</time>
      </trkpt>
      <trkpt lat="43.7082" lon="7.07477">
        <ele>296.79998779297</ele>
        <time>2022-03-12T12:11:25.000Z</time>
      </trkpt>
      <trkpt lat="43.70826" lon="7.07483">
        <ele>298</ele>
        <time>2022-03-12T12:11:27.000Z</time>
      </trkpt>
      <trkpt lat="43.70832" lon="7.07489">
        <ele>299.20001220703</ele>
        <time>2022-03-12T12:11:29.000Z</time>
      </trkpt>
      <trkpt lat="43.70835" lon="7.07491">
        <ele>299.79998779297</ele>
        <time>2022-03-12T12:11:30.000Z</time>
      </trkpt>
      <trkpt lat="43.70838" lon="7.07494">
        <ele>300.39999389648</ele>
        <time>2022-03-12T12:11:31.000Z</time>
      </trkpt>
      <trkpt lat="43.70847" lon="7.07501">
        <ele>301.39999389648</ele>
        <time>2022-03-12T12:11:34.000Z</time>
      </trkpt>
      <trkpt lat="43.70856" lon="7.0751">
        <ele>302.60000610352</ele>
        <time>2022-03-12T12:11:38.000Z</time>
      </trkpt>
      <trkpt lat="43.70853" lon="7.07519">
        <ele>303.60000610352</ele>
        <time>2022-03-12T12:11:41.000Z</time>
      </trkpt>
      <trkpt lat="43.7085" lon="7.07522">
        <ele>303.79998779297</ele>
        <time>2022-03-12T12:11:42.000Z</time>
      </trkpt>
      <trkpt lat="43.70848" lon="7.07524">
        <ele>304</ele>
        <time>2022-03-12T12:11:43.000Z</time>
      </trkpt>
      <trkpt lat="43.70835" lon="7.07539">
        <ele>303.60000610352</ele>
        <time>2022-03-12T12:11:48.000Z</time>
      </trkpt>
      <trkpt lat="43.70813" lon="7.07562">
        <ele>303.20001220703</ele>
        <time>2022-03-12T12:11:55.000Z</time>
      </trkpt>
      <trkpt lat="43.70806" lon="7.0757">
        <ele>302.79998779297</ele>
        <time>2022-03-12T12:11:57.000Z</time>
      </trkpt>
      <trkpt lat="43.70804" lon="7.07572">
        <ele>302.79998779297</ele>
        <time>2022-03-12T12:11:58.000Z</time>
      </trkpt>
      <trkpt lat="43.708" lon="7.07576">
        <ele>302.60000610352</ele>
        <time>2022-03-12T12:11:59.000Z</time>
      </trkpt>
      <trkpt lat="43.70797" lon="7.07581">
        <ele>302.39999389648</ele>
        <time>2022-03-12T12:12:00.000Z</time>
      </trkpt>
      <trkpt lat="43.70792" lon="7.07599">
        <ele>301.60000610352</ele>
        <time>2022-03-12T12:12:03.000Z</time>
      </trkpt>
      <trkpt lat="43.70793" lon="7.07607">
        <ele>300.60000610352</ele>
        <time>2022-03-12T12:12:05.000Z</time>
      </trkpt>
      <trkpt lat="43.70795" lon="7.07613">
        <ele>299.79998779297</ele>
        <time>2022-03-12T12:12:06.000Z</time>
      </trkpt>
      <trkpt lat="43.70799" lon="7.07621">
        <ele>297.79998779297</ele>
        <time>2022-03-12T12:12:08.000Z</time>
      </trkpt>
      <trkpt lat="43.70801" lon="7.07632">
        <ele>296.60000610352</ele>
        <time>2022-03-12T12:12:10.000Z</time>
      </trkpt>
      <trkpt lat="43.70794" lon="7.07638">
        <ele>295.39999389648</ele>
        <time>2022-03-12T12:12:12.000Z</time>
      </trkpt>
      <trkpt lat="43.7079" lon="7.07642">
        <ele>295.20001220703</ele>
        <time>2022-03-12T12:12:13.000Z</time>
      </trkpt>
      <trkpt lat="43.70782" lon="7.07651">
        <ele>294.39999389648</ele>
        <time>2022-03-12T12:12:15.000Z</time>
      </trkpt>
      <trkpt lat="43.70777" lon="7.07655">
        <ele>293.79998779297</ele>
        <time>2022-03-12T12:12:16.000Z</time>
      </trkpt>
      <trkpt lat="43.70773" lon="7.07659">
        <ele>293.39999389648</ele>
        <time>2022-03-12T12:12:17.000Z</time>
      </trkpt>
      <trkpt lat="43.70765" lon="7.07668">
        <ele>291.79998779297</ele>
        <time>2022-03-12T12:12:19.000Z</time>
      </trkpt>
      <trkpt lat="43.70752" lon="7.07681">
        <ele>290.39999389648</ele>
        <time>2022-03-12T12:12:22.000Z</time>
      </trkpt>
      <trkpt lat="43.70745" lon="7.0769">
        <ele>290</ele>
        <time>2022-03-12T12:12:24.000Z</time>
      </trkpt>
      <trkpt lat="43.70741" lon="7.07693">
        <ele>289.39999389648</ele>
        <time>2022-03-12T12:12:25.000Z</time>
      </trkpt>
      <trkpt lat="43.70738" lon="7.07699">
        <ele>289.20001220703</ele>
        <time>2022-03-12T12:12:26.000Z</time>
      </trkpt>
      <trkpt lat="43.70734" lon="7.07709">
        <ele>289</ele>
        <time>2022-03-12T12:12:28.000Z</time>
      </trkpt>
      <trkpt lat="43.70723" lon="7.07722">
        <ele>287.79998779297</ele>
        <time>2022-03-12T12:12:31.000Z</time>
      </trkpt>
      <trkpt lat="43.70721" lon="7.07725">
        <ele>287</ele>
        <time>2022-03-12T12:12:32.000Z</time>
      </trkpt>
      <trkpt lat="43.70718" lon="7.0773">
        <ele>286.20001220703</ele>
        <time>2022-03-12T12:12:33.000Z</time>
      </trkpt>
      <trkpt lat="43.70717" lon="7.07736">
        <ele>284.79998779297</ele>
        <time>2022-03-12T12:12:35.000Z</time>
      </trkpt>
      <trkpt lat="43.70719" lon="7.07737">
        <ele>282.60000610352</ele>
        <time>2022-03-12T12:12:37.000Z</time>
      </trkpt>
      <trkpt lat="43.70721" lon="7.07736">
        <ele>281.60000610352</ele>
        <time>2022-03-12T12:12:38.000Z</time>
      </trkpt>
      <trkpt lat="43.70723" lon="7.07733">
        <ele>280.60000610352</ele>
        <time>2022-03-12T12:12:39.000Z</time>
      </trkpt>
      <trkpt lat="43.70726" lon="7.07732">
        <ele>279.60000610352</ele>
        <time>2022-03-12T12:12:40.000Z</time>
      </trkpt>
      <trkpt lat="43.70732" lon="7.07733">
        <ele>278.39999389648</ele>
        <time>2022-03-12T12:12:42.000Z</time>
      </trkpt>
      <trkpt lat="43.70728" lon="7.07739">
        <ele>277.60000610352</ele>
        <time>2022-03-12T12:12:44.000Z</time>
      </trkpt>
      <trkpt lat="43.70724" lon="7.07743">
        <ele>277.20001220703</ele>
        <time>2022-03-12T12:12:45.000Z</time>
      </trkpt>
      <trkpt lat="43.70719" lon="7.07751">
        <ele>275.79998779297</ele>
        <time>2022-03-12T12:12:47.000Z</time>
      </trkpt>
      <trkpt lat="43.70716" lon="7.07762">
        <ele>274</ele>
        <time>2022-03-12T12:12:49.000Z</time>
      </trkpt>
      <trkpt lat="43.70714" lon="7.07765">
        <ele>273.39999389648</ele>
        <time>2022-03-12T12:12:50.000Z</time>
      </trkpt>
      <trkpt lat="43.70714" lon="7.07768">
        <ele>272.60000610352</ele>
        <time>2022-03-12T12:12:51.000Z</time>
      </trkpt>
      <trkpt lat="43.70716" lon="7.07768">
        <ele>271.79998779297</ele>
        <time>2022-03-12T12:12:53.000Z</time>
      </trkpt>
      <trkpt lat="43.70719" lon="7.07768">
        <ele>271.20001220703</ele>
        <time>2022-03-12T12:12:54.000Z</time>
      </trkpt>
      <trkpt lat="43.70726" lon="7.07763">
        <ele>269.60000610352</ele>
        <time>2022-03-12T12:12:56.000Z</time>
      </trkpt>
      <trkpt lat="43.70732" lon="7.07764">
        <ele>267.39999389648</ele>
        <time>2022-03-12T12:12:58.000Z</time>
      </trkpt>
      <trkpt lat="43.70733" lon="7.07766">
        <ele>266.20001220703</ele>
        <time>2022-03-12T12:12:59.000Z</time>
      </trkpt>
      <trkpt lat="43.70734" lon="7.07768">
        <ele>265.20001220703</ele>
        <time>2022-03-12T12:13:00.000Z</time>
      </trkpt>
      <trkpt lat="43.70741" lon="7.07772">
        <ele>263.39999389648</ele>
        <time>2022-03-12T12:13:02.000Z</time>
      </trkpt>
      <trkpt lat="43.70744" lon="7.07772">
        <ele>262.79998779297</ele>
        <time>2022-03-12T12:13:03.000Z</time>
      </trkpt>
      <trkpt lat="43.70747" lon="7.07775">
        <ele>262</ele>
        <time>2022-03-12T12:13:04.000Z</time>
      </trkpt>
      <trkpt lat="43.70742" lon="7.07778">
        <ele>260.20001220703</ele>
        <time>2022-03-12T12:13:06.000Z</time>
      </trkpt>
      <trkpt lat="43.70739" lon="7.07782">
        <ele>259.20001220703</ele>
        <time>2022-03-12T12:13:07.000Z</time>
      </trkpt>
      <trkpt lat="43.70735" lon="7.07785">
        <ele>258.39999389648</ele>
        <time>2022-03-12T12:13:08.000Z</time>
      </trkpt>
      <trkpt lat="43.70732" lon="7.07788">
        <ele>257.20001220703</ele>
        <time>2022-03-12T12:13:09.000Z</time>
      </trkpt>
      <trkpt lat="43.70729" lon="7.07793">
        <ele>256.60000610352</ele>
        <time>2022-03-12T12:13:10.000Z</time>
      </trkpt>
      <trkpt lat="43.70725" lon="7.07795">
        <ele>256</ele>
        <time>2022-03-12T12:13:11.000Z</time>
      </trkpt>
      <trkpt lat="43.70716" lon="7.078">
        <ele>255</ele>
        <time>2022-03-12T12:13:13.000Z</time>
      </trkpt>
      <trkpt lat="43.70712" lon="7.07803">
        <ele>254</ele>
        <time>2022-03-12T12:13:14.000Z</time>
      </trkpt>
      <trkpt lat="43.70708" lon="7.07806">
        <ele>253</ele>
        <time>2022-03-12T12:13:15.000Z</time>
      </trkpt>
      <trkpt lat="43.70703" lon="7.0781">
        <ele>252.39999389648</ele>
        <time>2022-03-12T12:13:16.000Z</time>
      </trkpt>
      <trkpt lat="43.70698" lon="7.07814">
        <ele>251.80000305176</ele>
        <time>2022-03-12T12:13:17.000Z</time>
      </trkpt>
      <trkpt lat="43.70693" lon="7.07819">
        <ele>251.19999694824</ele>
        <time>2022-03-12T12:13:18.000Z</time>
      </trkpt>
      <trkpt lat="43.70683" lon="7.07827">
        <ele>250.39999389648</ele>
        <time>2022-03-12T12:13:20.000Z</time>
      </trkpt>
      <trkpt lat="43.70675" lon="7.07834">
        <ele>249</ele>
        <time>2022-03-12T12:13:22.000Z</time>
      </trkpt>
      <trkpt lat="43.7067" lon="7.07837">
        <ele>248.39999389648</ele>
        <time>2022-03-12T12:13:23.000Z</time>
      </trkpt>
      <trkpt lat="43.70665" lon="7.07839">
        <ele>247.60000610352</ele>
        <time>2022-03-12T12:13:24.000Z</time>
      </trkpt>
      <trkpt lat="43.70661" lon="7.07842">
        <ele>247.19999694824</ele>
        <time>2022-03-12T12:13:25.000Z</time>
      </trkpt>
      <trkpt lat="43.70646" lon="7.07852">
        <ele>246.80000305176</ele>
        <time>2022-03-12T12:13:28.000Z</time>
      </trkpt>
      <trkpt lat="43.70642" lon="7.07856">
        <ele>246.19999694824</ele>
        <time>2022-03-12T12:13:29.000Z</time>
      </trkpt>
      <trkpt lat="43.70629" lon="7.0787">
        <ele>244.80000305176</ele>
        <time>2022-03-12T12:13:32.000Z</time>
      </trkpt>
      <trkpt lat="43.70624" lon="7.07876">
        <ele>244.39999389648</ele>
        <time>2022-03-12T12:13:33.000Z</time>
      </trkpt>
      <trkpt lat="43.70619" lon="7.0788">
        <ele>243.39999389648</ele>
        <time>2022-03-12T12:13:34.000Z</time>
      </trkpt>
      <trkpt lat="43.70616" lon="7.07884">
        <ele>242.19999694824</ele>
        <time>2022-03-12T12:13:35.000Z</time>
      </trkpt>
      <trkpt lat="43.70608" lon="7.07892">
        <ele>239.39999389648</ele>
        <time>2022-03-12T12:13:37.000Z</time>
      </trkpt>
      <trkpt lat="43.70605" lon="7.07897">
        <ele>238.19999694824</ele>
        <time>2022-03-12T12:13:38.000Z</time>
      </trkpt>
      <trkpt lat="43.70601" lon="7.079">
        <ele>236.80000305176</ele>
        <time>2022-03-12T12:13:39.000Z</time>
      </trkpt>
      <trkpt lat="43.70598" lon="7.07902">
        <ele>235.60000610352</ele>
        <time>2022-03-12T12:13:40.000Z</time>
      </trkpt>
      <trkpt lat="43.70596" lon="7.07905">
        <ele>234.39999389648</ele>
        <time>2022-03-12T12:13:41.000Z</time>
      </trkpt>
      <trkpt lat="43.70594" lon="7.0791">
        <ele>233.39999389648</ele>
        <time>2022-03-12T12:13:42.000Z</time>
      </trkpt>
      <trkpt lat="43.70589" lon="7.07914">
        <ele>232.19999694824</ele>
        <time>2022-03-12T12:13:43.000Z</time>
      </trkpt>
      <trkpt lat="43.70586" lon="7.07918">
        <ele>230.80000305176</ele>
        <time>2022-03-12T12:13:44.000Z</time>
      </trkpt>
      <trkpt lat="43.70583" lon="7.07923">
        <ele>229.80000305176</ele>
        <time>2022-03-12T12:13:45.000Z</time>
      </trkpt>
      <trkpt lat="43.7058" lon="7.07927">
        <ele>228.39999389648</ele>
        <time>2022-03-12T12:13:46.000Z</time>
      </trkpt>
      <trkpt lat="43.70576" lon="7.07931">
        <ele>227.39999389648</ele>
        <time>2022-03-12T12:13:47.000Z</time>
      </trkpt>
      <trkpt lat="43.70571" lon="7.07934">
        <ele>226.19999694824</ele>
        <time>2022-03-12T12:13:48.000Z</time>
      </trkpt>
      <trkpt lat="43.70567" lon="7.07937">
        <ele>225.19999694824</ele>
        <time>2022-03-12T12:13:49.000Z</time>
      </trkpt>
      <trkpt lat="43.7056" lon="7.0794">
        <ele>223.80000305176</ele>
        <time>2022-03-12T12:13:51.000Z</time>
      </trkpt>
      <trkpt lat="43.70558" lon="7.07942">
        <ele>222.39999389648</ele>
        <time>2022-03-12T12:13:52.000Z</time>
      </trkpt>
      <trkpt lat="43.70556" lon="7.07944">
        <ele>222</ele>
        <time>2022-03-12T12:13:53.000Z</time>
      </trkpt>
      <trkpt lat="43.70554" lon="7.07946">
        <ele>221.19999694824</ele>
        <time>2022-03-12T12:13:54.000Z</time>
      </trkpt>
      <trkpt lat="43.70547" lon="7.0795">
        <ele>221.60000610352</ele>
        <time>2022-03-12T12:13:58.000Z</time>
      </trkpt>
      <trkpt lat="43.70542" lon="7.07959">
        <ele>221.39999389648</ele>
        <time>2022-03-12T12:14:02.000Z</time>
      </trkpt>
      <trkpt lat="43.70544" lon="7.07963">
        <ele>220.19999694824</ele>
        <time>2022-03-12T12:14:06.000Z</time>
      </trkpt>
      <trkpt lat="43.70543" lon="7.07965">
        <ele>220</ele>
        <time>2022-03-12T12:14:07.000Z</time>
      </trkpt>
      <trkpt lat="43.70539" lon="7.07969">
        <ele>218.80000305176</ele>
        <time>2022-03-12T12:14:10.000Z</time>
      </trkpt>
      <trkpt lat="43.70538" lon="7.07969">
        <ele>217.60000610352</ele>
        <time>2022-03-12T12:14:14.000Z</time>
      </trkpt>
      <trkpt lat="43.70537" lon="7.07969">
        <ele>216.19999694824</ele>
        <time>2022-03-12T12:14:17.000Z</time>
      </trkpt>
      <trkpt lat="43.70537" lon="7.07968">
        <ele>215.19999694824</ele>
        <time>2022-03-12T12:14:20.000Z</time>
      </trkpt>
      <trkpt lat="43.70537" lon="7.07968">
        <ele>214.19999694824</ele>
        <time>2022-03-12T12:14:22.000Z</time>
      </trkpt>
      <trkpt lat="43.70536" lon="7.07967">
        <ele>212.80000305176</ele>
        <time>2022-03-12T12:14:24.000Z</time>
      </trkpt>
      <trkpt lat="43.70536" lon="7.07968">
        <ele>212.19999694824</ele>
        <time>2022-03-12T12:14:25.000Z</time>
      </trkpt>
      <trkpt lat="43.70535" lon="7.07968">
        <ele>211.60000610352</ele>
        <time>2022-03-12T12:14:26.000Z</time>
      </trkpt>
      <trkpt lat="43.70536" lon="7.07968">
        <ele>211.19999694824</ele>
        <time>2022-03-12T12:14:27.000Z</time>
      </trkpt>
      <trkpt lat="43.70536" lon="7.07967">
        <ele>210.39999389648</ele>
        <time>2022-03-12T12:14:30.000Z</time>
      </trkpt>
      <trkpt lat="43.70534" lon="7.07965">
        <ele>210</ele>
        <time>2022-03-12T12:14:32.000Z</time>
      </trkpt>
      <trkpt lat="43.70532" lon="7.07965">
        <ele>209.80000305176</ele>
        <time>2022-03-12T12:14:33.000Z</time>
      </trkpt>
      <trkpt lat="43.70531" lon="7.07966">
        <ele>208.80000305176</ele>
        <time>2022-03-12T12:14:34.000Z</time>
      </trkpt>
      <trkpt lat="43.7053" lon="7.07966">
        <ele>207.80000305176</ele>
        <time>2022-03-12T12:14:36.000Z</time>
      </trkpt>
      <trkpt lat="43.70528" lon="7.07966">
        <ele>207</ele>
        <time>2022-03-12T12:14:37.000Z</time>
      </trkpt>
      <trkpt lat="43.70528" lon="7.07966">
        <ele>208.19999694824</ele>
        <time>2022-03-12T12:14:41.000Z</time>
      </trkpt>
      <trkpt lat="43.70527" lon="7.07966">
        <ele>208.80000305176</ele>
        <time>2022-03-12T12:14:42.000Z</time>
      </trkpt>
      <trkpt lat="43.70523" lon="7.07971">
        <ele>210</ele>
        <time>2022-03-12T12:14:46.000Z</time>
      </trkpt>
      <trkpt lat="43.70521" lon="7.07971">
        <ele>210.19999694824</ele>
        <time>2022-03-12T12:14:47.000Z</time>
      </trkpt>
      <trkpt lat="43.70513" lon="7.07971">
        <ele>211.19999694824</ele>
        <time>2022-03-12T12:14:50.000Z</time>
      </trkpt>
      <trkpt lat="43.70508" lon="7.0797">
        <ele>212.39999389648</ele>
        <time>2022-03-12T12:14:52.000Z</time>
      </trkpt>
      <trkpt lat="43.70505" lon="7.07971">
        <ele>213.80000305176</ele>
        <time>2022-03-12T12:14:54.000Z</time>
      </trkpt>
      <trkpt lat="43.70504" lon="7.07974">
        <ele>214.60000610352</ele>
        <time>2022-03-12T12:14:55.000Z</time>
      </trkpt>
      <trkpt lat="43.70502" lon="7.07975">
        <ele>215.19999694824</ele>
        <time>2022-03-12T12:14:56.000Z</time>
      </trkpt>
      <trkpt lat="43.70498" lon="7.07974">
        <ele>216.39999389648</ele>
        <time>2022-03-12T12:14:58.000Z</time>
      </trkpt>
      <trkpt lat="43.70495" lon="7.07976">
        <ele>217.60000610352</ele>
        <time>2022-03-12T12:15:00.000Z</time>
      </trkpt>
      <trkpt lat="43.70493" lon="7.07977">
        <ele>218.39999389648</ele>
        <time>2022-03-12T12:15:01.000Z</time>
      </trkpt>
      <trkpt lat="43.70491" lon="7.07977">
        <ele>219</ele>
        <time>2022-03-12T12:15:02.000Z</time>
      </trkpt>
      <trkpt lat="43.70491" lon="7.07978">
        <ele>219.60000610352</ele>
        <time>2022-03-12T12:15:03.000Z</time>
      </trkpt>
      <trkpt lat="43.70491" lon="7.07978">
        <ele>220.80000305176</ele>
        <time>2022-03-12T12:15:06.000Z</time>
      </trkpt>
      <trkpt lat="43.70491" lon="7.07978">
        <ele>221.60000610352</ele>
        <time>2022-03-12T12:15:10.000Z</time>
      </trkpt>
      <trkpt lat="43.70491" lon="7.07979">
        <ele>222</ele>
        <time>2022-03-12T12:15:11.000Z</time>
      </trkpt>
      <trkpt lat="43.7049" lon="7.07979">
        <ele>223.19999694824</ele>
        <time>2022-03-12T12:15:17.000Z</time>
      </trkpt>
      <trkpt lat="43.70489" lon="7.07979">
        <ele>223.80000305176</ele>
        <time>2022-03-12T12:15:25.000Z</time>
      </trkpt>
      <trkpt lat="43.70489" lon="7.07979">
        <ele>224</ele>
        <time>2022-03-12T12:15:33.000Z</time>
      </trkpt>
      <trkpt lat="43.70488" lon="7.07977">
        <ele>224</ele>
        <time>2022-03-12T12:15:49.000Z</time>
      </trkpt>
      <trkpt lat="43.70487" lon="7.07977">
        <ele>224.19999694824</ele>
        <time>2022-03-12T12:15:52.000Z</time>
      </trkpt>
      <trkpt lat="43.70486" lon="7.07977">
        <ele>224.60000610352</ele>
        <time>2022-03-12T12:15:57.000Z</time>
      </trkpt>
      <trkpt lat="43.70482" lon="7.07972">
        <ele>224.39999389648</ele>
        <time>2022-03-12T12:16:01.000Z</time>
      </trkpt>
      <trkpt lat="43.70477" lon="7.07969">
        <ele>223.60000610352</ele>
        <time>2022-03-12T12:16:05.000Z</time>
      </trkpt>
      <trkpt lat="43.70473" lon="7.07967">
        <ele>223.39999389648</ele>
        <time>2022-03-12T12:16:06.000Z</time>
      </trkpt>
      <trkpt lat="43.70467" lon="7.07968">
        <ele>223.19999694824</ele>
        <time>2022-03-12T12:16:08.000Z</time>
      </trkpt>
      <trkpt lat="43.70465" lon="7.07969">
        <ele>223</ele>
        <time>2022-03-12T12:16:09.000Z</time>
      </trkpt>
      <trkpt lat="43.70453" lon="7.0797">
        <ele>223.80000305176</ele>
        <time>2022-03-12T12:16:13.000Z</time>
      </trkpt>
      <trkpt lat="43.70448" lon="7.07971">
        <ele>224.19999694824</ele>
        <time>2022-03-12T12:16:15.000Z</time>
      </trkpt>
      <trkpt lat="43.70442" lon="7.07968">
        <ele>224.19999694824</ele>
        <time>2022-03-12T12:16:17.000Z</time>
      </trkpt>
      <trkpt lat="43.70432" lon="7.07963">
        <ele>224</ele>
        <time>2022-03-12T12:16:20.000Z</time>
      </trkpt>
      <trkpt lat="43.70429" lon="7.07962">
        <ele>223.39999389648</ele>
        <time>2022-03-12T12:16:23.000Z</time>
      </trkpt>
      <trkpt lat="43.70428" lon="7.07962">
        <ele>223.60000610352</ele>
        <time>2022-03-12T12:16:36.000Z</time>
      </trkpt>
      <trkpt lat="43.70422" lon="7.07962">
        <ele>223.60000610352</ele>
        <time>2022-03-12T12:16:44.000Z</time>
      </trkpt>
      <trkpt lat="43.70411" lon="7.07963">
        <ele>224.19999694824</ele>
        <time>2022-03-12T12:16:50.000Z</time>
      </trkpt>
      <trkpt lat="43.70408" lon="7.07964">
        <ele>225.39999389648</ele>
        <time>2022-03-12T12:16:54.000Z</time>
      </trkpt>
      <trkpt lat="43.70399" lon="7.07964">
        <ele>226.60000610352</ele>
        <time>2022-03-12T12:16:58.000Z</time>
      </trkpt>
      <trkpt lat="43.70386" lon="7.07959">
        <ele>226.80000305176</ele>
        <time>2022-03-12T12:17:03.000Z</time>
      </trkpt>
      <trkpt lat="43.70377" lon="7.07953">
        <ele>227.39999389648</ele>
        <time>2022-03-12T12:17:07.000Z</time>
      </trkpt>
      <trkpt lat="43.70365" lon="7.07944">
        <ele>227.19999694824</ele>
        <time>2022-03-12T12:17:11.000Z</time>
      </trkpt>
      <trkpt lat="43.70362" lon="7.0794">
        <ele>226.80000305176</ele>
        <time>2022-03-12T12:17:12.000Z</time>
      </trkpt>
      <trkpt lat="43.7035" lon="7.07928">
        <ele>225.60000610352</ele>
        <time>2022-03-12T12:17:16.000Z</time>
      </trkpt>
      <trkpt lat="43.70348" lon="7.07925">
        <ele>225.39999389648</ele>
        <time>2022-03-12T12:17:17.000Z</time>
      </trkpt>
      <trkpt lat="43.70346" lon="7.07923">
        <ele>225.39999389648</ele>
        <time>2022-03-12T12:17:18.000Z</time>
      </trkpt>
      <trkpt lat="43.70341" lon="7.07921">
        <ele>224.80000305176</ele>
        <time>2022-03-12T12:17:20.000Z</time>
      </trkpt>
      <trkpt lat="43.70339" lon="7.07921">
        <ele>224.39999389648</ele>
        <time>2022-03-12T12:17:21.000Z</time>
      </trkpt>
      <trkpt lat="43.70334" lon="7.0792">
        <ele>223</ele>
        <time>2022-03-12T12:17:23.000Z</time>
      </trkpt>
      <trkpt lat="43.70331" lon="7.07919">
        <ele>222.39999389648</ele>
        <time>2022-03-12T12:17:24.000Z</time>
      </trkpt>
      <trkpt lat="43.70327" lon="7.07919">
        <ele>222</ele>
        <time>2022-03-12T12:17:25.000Z</time>
      </trkpt>
      <trkpt lat="43.70322" lon="7.07918">
        <ele>221.19999694824</ele>
        <time>2022-03-12T12:17:26.000Z</time>
      </trkpt>
      <trkpt lat="43.70318" lon="7.07915">
        <ele>219.80000305176</ele>
        <time>2022-03-12T12:17:28.000Z</time>
      </trkpt>
      <trkpt lat="43.70314" lon="7.07914">
        <ele>218.60000610352</ele>
        <time>2022-03-12T12:17:30.000Z</time>
      </trkpt>
      <trkpt lat="43.70306" lon="7.0791">
        <ele>218.19999694824</ele>
        <time>2022-03-12T12:17:32.000Z</time>
      </trkpt>
      <trkpt lat="43.70303" lon="7.07907">
        <ele>217.60000610352</ele>
        <time>2022-03-12T12:17:33.000Z</time>
      </trkpt>
      <trkpt lat="43.703" lon="7.07904">
        <ele>217.19999694824</ele>
        <time>2022-03-12T12:17:34.000Z</time>
      </trkpt>
      <trkpt lat="43.70295" lon="7.07899">
        <ele>216.39999389648</ele>
        <time>2022-03-12T12:17:36.000Z</time>
      </trkpt>
      <trkpt lat="43.70284" lon="7.07889">
        <ele>215.19999694824</ele>
        <time>2022-03-12T12:17:40.000Z</time>
      </trkpt>
      <trkpt lat="43.70281" lon="7.07888">
        <ele>215.39999389648</ele>
        <time>2022-03-12T12:17:41.000Z</time>
      </trkpt>
      <trkpt lat="43.70276" lon="7.07887">
        <ele>214.80000305176</ele>
        <time>2022-03-12T12:17:44.000Z</time>
      </trkpt>
      <trkpt lat="43.70272" lon="7.07887">
        <ele>215.80000305176</ele>
        <time>2022-03-12T12:17:48.000Z</time>
      </trkpt>
      <trkpt lat="43.70266" lon="7.07883">
        <ele>216.19999694824</ele>
        <time>2022-03-12T12:17:51.000Z</time>
      </trkpt>
      <trkpt lat="43.70255" lon="7.07877">
        <ele>215</ele>
        <time>2022-03-12T12:17:55.000Z</time>
      </trkpt>
      <trkpt lat="43.70248" lon="7.07875">
        <ele>214</ele>
        <time>2022-03-12T12:17:58.000Z</time>
      </trkpt>
      <trkpt lat="43.70248" lon="7.07875">
        <ele>214</ele>
        <time>2022-03-12T12:17:59.000Z</time>
      </trkpt>
      <trkpt lat="43.70246" lon="7.07875">
        <ele>214</ele>
        <time>2022-03-12T12:18:00.000Z</time>
      </trkpt>
      <trkpt lat="43.70239" lon="7.07871">
        <ele>214.19999694824</ele>
        <time>2022-03-12T12:18:04.000Z</time>
      </trkpt>
      <trkpt lat="43.70229" lon="7.07865">
        <ele>213</ele>
        <time>2022-03-12T12:18:07.000Z</time>
      </trkpt>
      <trkpt lat="43.70226" lon="7.07863">
        <ele>212.39999389648</ele>
        <time>2022-03-12T12:18:08.000Z</time>
      </trkpt>
      <trkpt lat="43.70223" lon="7.07861">
        <ele>211.60000610352</ele>
        <time>2022-03-12T12:18:09.000Z</time>
      </trkpt>
      <trkpt lat="43.70216" lon="7.07853">
        <ele>211.60000610352</ele>
        <time>2022-03-12T12:18:13.000Z</time>
      </trkpt>
      <trkpt lat="43.70209" lon="7.07845">
        <ele>211.39999389648</ele>
        <time>2022-03-12T12:18:17.000Z</time>
      </trkpt>
      <trkpt lat="43.70204" lon="7.07839">
        <ele>211.19999694824</ele>
        <time>2022-03-12T12:18:19.000Z</time>
      </trkpt>
      <trkpt lat="43.70199" lon="7.07834">
        <ele>210.80000305176</ele>
        <time>2022-03-12T12:18:21.000Z</time>
      </trkpt>
      <trkpt lat="43.70197" lon="7.07831">
        <ele>210.39999389648</ele>
        <time>2022-03-12T12:18:22.000Z</time>
      </trkpt>
      <trkpt lat="43.70192" lon="7.0782">
        <ele>211</ele>
        <time>2022-03-12T12:18:25.000Z</time>
      </trkpt>
      <trkpt lat="43.70186" lon="7.07807">
        <ele>211</ele>
        <time>2022-03-12T12:18:29.000Z</time>
      </trkpt>
      <trkpt lat="43.70185" lon="7.07802">
        <ele>210.80000305176</ele>
        <time>2022-03-12T12:18:30.000Z</time>
      </trkpt>
      <trkpt lat="43.70178" lon="7.07793">
        <ele>210.19999694824</ele>
        <time>2022-03-12T12:18:33.000Z</time>
      </trkpt>
      <trkpt lat="43.70176" lon="7.07792">
        <ele>209.60000610352</ele>
        <time>2022-03-12T12:18:34.000Z</time>
      </trkpt>
      <trkpt lat="43.70174" lon="7.07791">
        <ele>209</ele>
        <time>2022-03-12T12:18:35.000Z</time>
      </trkpt>
      <trkpt lat="43.70169" lon="7.07789">
        <ele>208</ele>
        <time>2022-03-12T12:18:37.000Z</time>
      </trkpt>
      <trkpt lat="43.70167" lon="7.07788">
        <ele>207.80000305176</ele>
        <time>2022-03-12T12:18:38.000Z</time>
      </trkpt>
      <trkpt lat="43.70162" lon="7.07788">
        <ele>206.39999389648</ele>
        <time>2022-03-12T12:18:42.000Z</time>
      </trkpt>
      <trkpt lat="43.70152" lon="7.07789">
        <ele>205.19999694824</ele>
        <time>2022-03-12T12:18:46.000Z</time>
      </trkpt>
      <trkpt lat="43.70151" lon="7.07789">
        <ele>204.80000305176</ele>
        <time>2022-03-12T12:18:47.000Z</time>
      </trkpt>
      <trkpt lat="43.7015" lon="7.07788">
        <ele>204</ele>
        <time>2022-03-12T12:18:48.000Z</time>
      </trkpt>
      <trkpt lat="43.70145" lon="7.07788">
        <ele>202.80000305176</ele>
        <time>2022-03-12T12:18:50.000Z</time>
      </trkpt>
      <trkpt lat="43.70142" lon="7.07787">
        <ele>202.39999389648</ele>
        <time>2022-03-12T12:18:51.000Z</time>
      </trkpt>
      <trkpt lat="43.70136" lon="7.07783">
        <ele>201.39999389648</ele>
        <time>2022-03-12T12:18:53.000Z</time>
      </trkpt>
      <trkpt lat="43.70129" lon="7.0778">
        <ele>199.80000305176</ele>
        <time>2022-03-12T12:18:55.000Z</time>
      </trkpt>
      <trkpt lat="43.70123" lon="7.07777">
        <ele>197.80000305176</ele>
        <time>2022-03-12T12:18:57.000Z</time>
      </trkpt>
      <trkpt lat="43.70121" lon="7.07775">
        <ele>196.80000305176</ele>
        <time>2022-03-12T12:18:58.000Z</time>
      </trkpt>
      <trkpt lat="43.70117" lon="7.07773">
        <ele>196.19999694824</ele>
        <time>2022-03-12T12:18:59.000Z</time>
      </trkpt>
      <trkpt lat="43.70115" lon="7.07771">
        <ele>195.60000610352</ele>
        <time>2022-03-12T12:19:00.000Z</time>
      </trkpt>
      <trkpt lat="43.70109" lon="7.07763">
        <ele>194</ele>
        <time>2022-03-12T12:19:03.000Z</time>
      </trkpt>
      <trkpt lat="43.70106" lon="7.07758">
        <ele>192.60000610352</ele>
        <time>2022-03-12T12:19:05.000Z</time>
      </trkpt>
      <trkpt lat="43.70104" lon="7.07753">
        <ele>191</ele>
        <time>2022-03-12T12:19:07.000Z</time>
      </trkpt>
      <trkpt lat="43.70103" lon="7.07749">
        <ele>190</ele>
        <time>2022-03-12T12:19:08.000Z</time>
      </trkpt>
      <trkpt lat="43.70101" lon="7.07745">
        <ele>188.80000305176</ele>
        <time>2022-03-12T12:19:09.000Z</time>
      </trkpt>
      <trkpt lat="43.70098" lon="7.07742">
        <ele>187.60000610352</ele>
        <time>2022-03-12T12:19:10.000Z</time>
      </trkpt>
      <trkpt lat="43.70096" lon="7.07738">
        <ele>186.19999694824</ele>
        <time>2022-03-12T12:19:11.000Z</time>
      </trkpt>
      <trkpt lat="43.70094" lon="7.07736">
        <ele>185</ele>
        <time>2022-03-12T12:19:12.000Z</time>
      </trkpt>
      <trkpt lat="43.70093" lon="7.07734">
        <ele>183.80000305176</ele>
        <time>2022-03-12T12:19:13.000Z</time>
      </trkpt>
      <trkpt lat="43.70091" lon="7.0773">
        <ele>182.80000305176</ele>
        <time>2022-03-12T12:19:14.000Z</time>
      </trkpt>
      <trkpt lat="43.7009" lon="7.07726">
        <ele>181.60000610352</ele>
        <time>2022-03-12T12:19:15.000Z</time>
      </trkpt>
      <trkpt lat="43.70087" lon="7.07724">
        <ele>181</ele>
        <time>2022-03-12T12:19:16.000Z</time>
      </trkpt>
      <trkpt lat="43.70085" lon="7.07722">
        <ele>179.80000305176</ele>
        <time>2022-03-12T12:19:17.000Z</time>
      </trkpt>
      <trkpt lat="43.70082" lon="7.07719">
        <ele>178.80000305176</ele>
        <time>2022-03-12T12:19:18.000Z</time>
      </trkpt>
      <trkpt lat="43.70075" lon="7.07718">
        <ele>177.19999694824</ele>
        <time>2022-03-12T12:19:20.000Z</time>
      </trkpt>
      <trkpt lat="43.70066" lon="7.07715">
        <ele>176.39999389648</ele>
        <time>2022-03-12T12:19:23.000Z</time>
      </trkpt>
      <trkpt lat="43.70064" lon="7.07712">
        <ele>176.60000610352</ele>
        <time>2022-03-12T12:19:24.000Z</time>
      </trkpt>
      <trkpt lat="43.70051" lon="7.07697">
        <ele>178</ele>
        <time>2022-03-12T12:19:28.000Z</time>
      </trkpt>
      <trkpt lat="43.70043" lon="7.07687">
        <ele>177.60000610352</ele>
        <time>2022-03-12T12:19:30.000Z</time>
      </trkpt>
      <trkpt lat="43.70035" lon="7.07678">
        <ele>175.80000305176</ele>
        <time>2022-03-12T12:19:32.000Z</time>
      </trkpt>
      <trkpt lat="43.70029" lon="7.07669">
        <ele>174</ele>
        <time>2022-03-12T12:19:34.000Z</time>
      </trkpt>
      <trkpt lat="43.70027" lon="7.07664">
        <ele>173.39999389648</ele>
        <time>2022-03-12T12:19:35.000Z</time>
      </trkpt>
      <trkpt lat="43.70024" lon="7.07658">
        <ele>173</ele>
        <time>2022-03-12T12:19:36.000Z</time>
      </trkpt>
      <trkpt lat="43.70022" lon="7.07652">
        <ele>172.39999389648</ele>
        <time>2022-03-12T12:19:37.000Z</time>
      </trkpt>
      <trkpt lat="43.70019" lon="7.07638">
        <ele>171.39999389648</ele>
        <time>2022-03-12T12:19:39.000Z</time>
      </trkpt>
      <trkpt lat="43.70017" lon="7.07631">
        <ele>171</ele>
        <time>2022-03-12T12:19:40.000Z</time>
      </trkpt>
      <trkpt lat="43.70016" lon="7.07624">
        <ele>170.19999694824</ele>
        <time>2022-03-12T12:19:41.000Z</time>
      </trkpt>
      <trkpt lat="43.70014" lon="7.07617">
        <ele>169.39999389648</ele>
        <time>2022-03-12T12:19:42.000Z</time>
      </trkpt>
      <trkpt lat="43.70012" lon="7.07611">
        <ele>168.19999694824</ele>
        <time>2022-03-12T12:19:43.000Z</time>
      </trkpt>
      <trkpt lat="43.70008" lon="7.07601">
        <ele>166.19999694824</ele>
        <time>2022-03-12T12:19:45.000Z</time>
      </trkpt>
      <trkpt lat="43.70006" lon="7.07591">
        <ele>165.39999389648</ele>
        <time>2022-03-12T12:19:47.000Z</time>
      </trkpt>
      <trkpt lat="43.70005" lon="7.07588">
        <ele>165.19999694824</ele>
        <time>2022-03-12T12:19:48.000Z</time>
      </trkpt>
      <trkpt lat="43.70004" lon="7.07587">
        <ele>164.80000305176</ele>
        <time>2022-03-12T12:19:50.000Z</time>
      </trkpt>
      <trkpt lat="43.70002" lon="7.07587">
        <ele>164.39999389648</ele>
        <time>2022-03-12T12:19:55.000Z</time>
      </trkpt>
      <trkpt lat="43.70002" lon="7.07588">
        <ele>164.19999694824</ele>
        <time>2022-03-12T12:20:01.000Z</time>
      </trkpt>
      <trkpt lat="43.70001" lon="7.07587">
        <ele>164</ele>
        <time>2022-03-12T12:20:14.000Z</time>
      </trkpt>
      <trkpt lat="43.69999" lon="7.07587">
        <ele>164.19999694824</ele>
        <time>2022-03-12T12:20:15.000Z</time>
      </trkpt>
      <trkpt lat="43.69991" lon="7.07585">
        <ele>164.39999389648</ele>
        <time>2022-03-12T12:20:20.000Z</time>
      </trkpt>
      <trkpt lat="43.69984" lon="7.07586">
        <ele>165.19999694824</ele>
        <time>2022-03-12T12:20:24.000Z</time>
      </trkpt>
      <trkpt lat="43.69981" lon="7.07587">
        <ele>165.60000610352</ele>
        <time>2022-03-12T12:20:25.000Z</time>
      </trkpt>
      <trkpt lat="43.69974" lon="7.07587">
        <ele>166.80000305176</ele>
        <time>2022-03-12T12:20:28.000Z</time>
      </trkpt>
      <trkpt lat="43.69972" lon="7.07588">
        <ele>167</ele>
        <time>2022-03-12T12:20:29.000Z</time>
      </trkpt>
      <trkpt lat="43.69969" lon="7.07589">
        <ele>167.39999389648</ele>
        <time>2022-03-12T12:20:30.000Z</time>
      </trkpt>
      <trkpt lat="43.69963" lon="7.07589">
        <ele>168</ele>
        <time>2022-03-12T12:20:32.000Z</time>
      </trkpt>
      <trkpt lat="43.69961" lon="7.0759">
        <ele>168.19999694824</ele>
        <time>2022-03-12T12:20:33.000Z</time>
      </trkpt>
      <trkpt lat="43.69954" lon="7.07592">
        <ele>168.60000610352</ele>
        <time>2022-03-12T12:20:35.000Z</time>
      </trkpt>
      <trkpt lat="43.69951" lon="7.07592">
        <ele>168.80000305176</ele>
        <time>2022-03-12T12:20:36.000Z</time>
      </trkpt>
      <trkpt lat="43.69948" lon="7.07592">
        <ele>169.19999694824</ele>
        <time>2022-03-12T12:20:37.000Z</time>
      </trkpt>
      <trkpt lat="43.6994" lon="7.07592">
        <ele>169.60000610352</ele>
        <time>2022-03-12T12:20:39.000Z</time>
      </trkpt>
      <trkpt lat="43.69931" lon="7.07595">
        <ele>169.60000610352</ele>
        <time>2022-03-12T12:20:42.000Z</time>
      </trkpt>
      <trkpt lat="43.69927" lon="7.07596">
        <ele>169.60000610352</ele>
        <time>2022-03-12T12:20:43.000Z</time>
      </trkpt>
      <trkpt lat="43.69915" lon="7.07601">
        <ele>170.19999694824</ele>
        <time>2022-03-12T12:20:47.000Z</time>
      </trkpt>
      <trkpt lat="43.69907" lon="7.07605">
        <ele>170.39999389648</ele>
        <time>2022-03-12T12:20:50.000Z</time>
      </trkpt>
      <trkpt lat="43.69904" lon="7.07609">
        <ele>170.60000610352</ele>
        <time>2022-03-12T12:20:51.000Z</time>
      </trkpt>
      <trkpt lat="43.69897" lon="7.0762">
        <ele>171.39999389648</ele>
        <time>2022-03-12T12:20:54.000Z</time>
      </trkpt>
      <trkpt lat="43.69892" lon="7.07625">
        <ele>172.80000305176</ele>
        <time>2022-03-12T12:20:56.000Z</time>
      </trkpt>
      <trkpt lat="43.69887" lon="7.0763">
        <ele>174.39999389648</ele>
        <time>2022-03-12T12:20:58.000Z</time>
      </trkpt>
      <trkpt lat="43.69882" lon="7.07637">
        <ele>175.60000610352</ele>
        <time>2022-03-12T12:21:01.000Z</time>
      </trkpt>
      <trkpt lat="43.6988" lon="7.0764">
        <ele>175.80000305176</ele>
        <time>2022-03-12T12:21:02.000Z</time>
      </trkpt>
      <trkpt lat="43.69876" lon="7.07645">
        <ele>177</ele>
        <time>2022-03-12T12:21:04.000Z</time>
      </trkpt>
      <trkpt lat="43.69872" lon="7.07651">
        <ele>178.39999389648</ele>
        <time>2022-03-12T12:21:07.000Z</time>
      </trkpt>
      <trkpt lat="43.69869" lon="7.07655">
        <ele>179.19999694824</ele>
        <time>2022-03-12T12:21:09.000Z</time>
      </trkpt>
      <trkpt lat="43.69868" lon="7.07657">
        <ele>179.60000610352</ele>
        <time>2022-03-12T12:21:10.000Z</time>
      </trkpt>
      <trkpt lat="43.69866" lon="7.0766">
        <ele>180.19999694824</ele>
        <time>2022-03-12T12:21:11.000Z</time>
      </trkpt>
      <trkpt lat="43.69864" lon="7.07662">
        <ele>180.80000305176</ele>
        <time>2022-03-12T12:21:12.000Z</time>
      </trkpt>
      <trkpt lat="43.69859" lon="7.07666">
        <ele>181.80000305176</ele>
        <time>2022-03-12T12:21:14.000Z</time>
      </trkpt>
      <trkpt lat="43.69857" lon="7.07668">
        <ele>182</ele>
        <time>2022-03-12T12:21:15.000Z</time>
      </trkpt>
      <trkpt lat="43.6985" lon="7.07673">
        <ele>182</ele>
        <time>2022-03-12T12:21:18.000Z</time>
      </trkpt>
      <trkpt lat="43.69835" lon="7.07682">
        <ele>182</ele>
        <time>2022-03-12T12:21:23.000Z</time>
      </trkpt>
      <trkpt lat="43.69831" lon="7.07686">
        <ele>182.39999389648</ele>
        <time>2022-03-12T12:21:25.000Z</time>
      </trkpt>
      <trkpt lat="43.69826" lon="7.07689">
        <ele>183.19999694824</ele>
        <time>2022-03-12T12:21:27.000Z</time>
      </trkpt>
      <trkpt lat="43.69823" lon="7.07689">
        <ele>183.60000610352</ele>
        <time>2022-03-12T12:21:28.000Z</time>
      </trkpt>
      <trkpt lat="43.69817" lon="7.07691">
        <ele>184.60000610352</ele>
        <time>2022-03-12T12:21:30.000Z</time>
      </trkpt>
      <trkpt lat="43.69813" lon="7.07692">
        <ele>185.60000610352</ele>
        <time>2022-03-12T12:21:32.000Z</time>
      </trkpt>
      <trkpt lat="43.69811" lon="7.07692">
        <ele>186.19999694824</ele>
        <time>2022-03-12T12:21:33.000Z</time>
      </trkpt>
      <trkpt lat="43.69808" lon="7.07692">
        <ele>186.80000305176</ele>
        <time>2022-03-12T12:21:34.000Z</time>
      </trkpt>
      <trkpt lat="43.69803" lon="7.07694">
        <ele>187.80000305176</ele>
        <time>2022-03-12T12:21:36.000Z</time>
      </trkpt>
      <trkpt lat="43.69797" lon="7.07694">
        <ele>188.80000305176</ele>
        <time>2022-03-12T12:21:38.000Z</time>
      </trkpt>
      <trkpt lat="43.69788" lon="7.07693">
        <ele>190.19999694824</ele>
        <time>2022-03-12T12:21:41.000Z</time>
      </trkpt>
      <trkpt lat="43.69779" lon="7.07694">
        <ele>191.80000305176</ele>
        <time>2022-03-12T12:21:44.000Z</time>
      </trkpt>
      <trkpt lat="43.69771" lon="7.07696">
        <ele>192.80000305176</ele>
        <time>2022-03-12T12:21:47.000Z</time>
      </trkpt>
      <trkpt lat="43.69764" lon="7.07699">
        <ele>194</ele>
        <time>2022-03-12T12:21:50.000Z</time>
      </trkpt>
      <trkpt lat="43.6976" lon="7.077">
        <ele>195.39999389648</ele>
        <time>2022-03-12T12:21:52.000Z</time>
      </trkpt>
      <trkpt lat="43.69755" lon="7.07701">
        <ele>196.39999389648</ele>
        <time>2022-03-12T12:21:54.000Z</time>
      </trkpt>
      <trkpt lat="43.6975" lon="7.07703">
        <ele>196.80000305176</ele>
        <time>2022-03-12T12:21:56.000Z</time>
      </trkpt>
      <trkpt lat="43.69745" lon="7.07708">
        <ele>197.19999694824</ele>
        <time>2022-03-12T12:21:59.000Z</time>
      </trkpt>
      <trkpt lat="43.69744" lon="7.0771">
        <ele>197.19999694824</ele>
        <time>2022-03-12T12:22:00.000Z</time>
      </trkpt>
      <trkpt lat="43.6974" lon="7.07713">
        <ele>197.60000610352</ele>
        <time>2022-03-12T12:22:02.000Z</time>
      </trkpt>
      <trkpt lat="43.69735" lon="7.07718">
        <ele>198</ele>
        <time>2022-03-12T12:22:04.000Z</time>
      </trkpt>
      <trkpt lat="43.69726" lon="7.07726">
        <ele>198</ele>
        <time>2022-03-12T12:22:08.000Z</time>
      </trkpt>
      <trkpt lat="43.69712" lon="7.07738">
        <ele>198.19999694824</ele>
        <time>2022-03-12T12:22:13.000Z</time>
      </trkpt>
      <trkpt lat="43.69705" lon="7.07748">
        <ele>198.60000610352</ele>
        <time>2022-03-12T12:22:17.000Z</time>
      </trkpt>
      <trkpt lat="43.69702" lon="7.07751">
        <ele>199</ele>
        <time>2022-03-12T12:22:18.000Z</time>
      </trkpt>
      <trkpt lat="43.69698" lon="7.07756">
        <ele>199.80000305176</ele>
        <time>2022-03-12T12:22:20.000Z</time>
      </trkpt>
      <trkpt lat="43.69692" lon="7.07766">
        <ele>200.80000305176</ele>
        <time>2022-03-12T12:22:23.000Z</time>
      </trkpt>
      <trkpt lat="43.6969" lon="7.07769">
        <ele>201</ele>
        <time>2022-03-12T12:22:24.000Z</time>
      </trkpt>
      <trkpt lat="43.69683" lon="7.07777">
        <ele>202.19999694824</ele>
        <time>2022-03-12T12:22:28.000Z</time>
      </trkpt>
      <trkpt lat="43.69676" lon="7.07783">
        <ele>203.39999389648</ele>
        <time>2022-03-12T12:22:31.000Z</time>
      </trkpt>
      <trkpt lat="43.69674" lon="7.07785">
        <ele>203.80000305176</ele>
        <time>2022-03-12T12:22:32.000Z</time>
      </trkpt>
      <trkpt lat="43.6967" lon="7.07788">
        <ele>204.80000305176</ele>
        <time>2022-03-12T12:22:34.000Z</time>
      </trkpt>
      <trkpt lat="43.69666" lon="7.07792">
        <ele>206</ele>
        <time>2022-03-12T12:22:37.000Z</time>
      </trkpt>
      <trkpt lat="43.69663" lon="7.07795">
        <ele>207</ele>
        <time>2022-03-12T12:22:39.000Z</time>
      </trkpt>
      <trkpt lat="43.69661" lon="7.07796">
        <ele>207.39999389648</ele>
        <time>2022-03-12T12:22:40.000Z</time>
      </trkpt>
      <trkpt lat="43.69652" lon="7.07801">
        <ele>208.80000305176</ele>
        <time>2022-03-12T12:22:43.000Z</time>
      </trkpt>
      <trkpt lat="43.6965" lon="7.07803">
        <ele>209</ele>
        <time>2022-03-12T12:22:44.000Z</time>
      </trkpt>
      <trkpt lat="43.69644" lon="7.07808">
        <ele>209.60000610352</ele>
        <time>2022-03-12T12:22:47.000Z</time>
      </trkpt>
      <trkpt lat="43.69641" lon="7.07809">
        <ele>210</ele>
        <time>2022-03-12T12:22:48.000Z</time>
      </trkpt>
      <trkpt lat="43.69639" lon="7.0781">
        <ele>210.39999389648</ele>
        <time>2022-03-12T12:22:49.000Z</time>
      </trkpt>
      <trkpt lat="43.69631" lon="7.07814">
        <ele>211.19999694824</ele>
        <time>2022-03-12T12:22:52.000Z</time>
      </trkpt>
      <trkpt lat="43.69627" lon="7.07814">
        <ele>211.19999694824</ele>
        <time>2022-03-12T12:22:53.000Z</time>
      </trkpt>
      <trkpt lat="43.69611" lon="7.07813">
        <ele>211.39999389648</ele>
        <time>2022-03-12T12:22:58.000Z</time>
      </trkpt>
      <trkpt lat="43.69599" lon="7.07813">
        <ele>212</ele>
        <time>2022-03-12T12:23:02.000Z</time>
      </trkpt>
      <trkpt lat="43.69596" lon="7.07813">
        <ele>212.19999694824</ele>
        <time>2022-03-12T12:23:03.000Z</time>
      </trkpt>
      <trkpt lat="43.69588" lon="7.07815">
        <ele>213.39999389648</ele>
        <time>2022-03-12T12:23:06.000Z</time>
      </trkpt>
      <trkpt lat="43.69582" lon="7.07818">
        <ele>214.39999389648</ele>
        <time>2022-03-12T12:23:08.000Z</time>
      </trkpt>
      <trkpt lat="43.69579" lon="7.07819">
        <ele>214.60000610352</ele>
        <time>2022-03-12T12:23:09.000Z</time>
      </trkpt>
      <trkpt lat="43.69569" lon="7.0782">
        <ele>215.80000305176</ele>
        <time>2022-03-12T12:23:12.000Z</time>
      </trkpt>
      <trkpt lat="43.69563" lon="7.07819">
        <ele>216.39999389648</ele>
        <time>2022-03-12T12:23:14.000Z</time>
      </trkpt>
      <trkpt lat="43.6956" lon="7.07819">
        <ele>216.80000305176</ele>
        <time>2022-03-12T12:23:15.000Z</time>
      </trkpt>
      <trkpt lat="43.69546" lon="7.07821">
        <ele>217.80000305176</ele>
        <time>2022-03-12T12:23:20.000Z</time>
      </trkpt>
      <trkpt lat="43.6954" lon="7.07826">
        <ele>218.60000610352</ele>
        <time>2022-03-12T12:23:23.000Z</time>
      </trkpt>
      <trkpt lat="43.69538" lon="7.07828">
        <ele>219</ele>
        <time>2022-03-12T12:23:24.000Z</time>
      </trkpt>
      <trkpt lat="43.69536" lon="7.0783">
        <ele>219.39999389648</ele>
        <time>2022-03-12T12:23:25.000Z</time>
      </trkpt>
      <trkpt lat="43.69533" lon="7.07831">
        <ele>220.19999694824</ele>
        <time>2022-03-12T12:23:26.000Z</time>
      </trkpt>
      <trkpt lat="43.69528" lon="7.07835">
        <ele>220.80000305176</ele>
        <time>2022-03-12T12:23:28.000Z</time>
      </trkpt>
      <trkpt lat="43.69524" lon="7.07839">
        <ele>221</ele>
        <time>2022-03-12T12:23:30.000Z</time>
      </trkpt>
      <trkpt lat="43.69522" lon="7.07842">
        <ele>221.19999694824</ele>
        <time>2022-03-12T12:23:31.000Z</time>
      </trkpt>
      <trkpt lat="43.69512" lon="7.07852">
        <ele>222.39999389648</ele>
        <time>2022-03-12T12:23:36.000Z</time>
      </trkpt>
      <trkpt lat="43.69507" lon="7.07859">
        <ele>223.60000610352</ele>
        <time>2022-03-12T12:23:39.000Z</time>
      </trkpt>
      <trkpt lat="43.69504" lon="7.07861">
        <ele>224.60000610352</ele>
        <time>2022-03-12T12:23:41.000Z</time>
      </trkpt>
      <trkpt lat="43.69502" lon="7.07863">
        <ele>225</ele>
        <time>2022-03-12T12:23:42.000Z</time>
      </trkpt>
      <trkpt lat="43.69495" lon="7.07869">
        <ele>226</ele>
        <time>2022-03-12T12:23:45.000Z</time>
      </trkpt>
      <trkpt lat="43.69492" lon="7.07872">
        <ele>226.19999694824</ele>
        <time>2022-03-12T12:23:46.000Z</time>
      </trkpt>
      <trkpt lat="43.69486" lon="7.07878">
        <ele>227.19999694824</ele>
        <time>2022-03-12T12:23:49.000Z</time>
      </trkpt>
      <trkpt lat="43.69484" lon="7.07881">
        <ele>227.60000610352</ele>
        <time>2022-03-12T12:23:50.000Z</time>
      </trkpt>
      <trkpt lat="43.6948" lon="7.07887">
        <ele>228.39999389648</ele>
        <time>2022-03-12T12:23:52.000Z</time>
      </trkpt>
      <trkpt lat="43.69474" lon="7.07894">
        <ele>229.80000305176</ele>
        <time>2022-03-12T12:23:55.000Z</time>
      </trkpt>
      <trkpt lat="43.69472" lon="7.07897">
        <ele>230.19999694824</ele>
        <time>2022-03-12T12:23:56.000Z</time>
      </trkpt>
      <trkpt lat="43.6947" lon="7.07901">
        <ele>230.80000305176</ele>
        <time>2022-03-12T12:23:58.000Z</time>
      </trkpt>
      <trkpt lat="43.69465" lon="7.07906">
        <ele>231.39999389648</ele>
        <time>2022-03-12T12:24:01.000Z</time>
      </trkpt>
      <trkpt lat="43.69463" lon="7.07908">
        <ele>232</ele>
        <time>2022-03-12T12:24:03.000Z</time>
      </trkpt>
      <trkpt lat="43.69462" lon="7.07909">
        <ele>232.60000610352</ele>
        <time>2022-03-12T12:24:06.000Z</time>
      </trkpt>
      <trkpt lat="43.6946" lon="7.07912">
        <ele>232.60000610352</ele>
        <time>2022-03-12T12:24:18.000Z</time>
      </trkpt>
      <trkpt lat="43.69459" lon="7.07914">
        <ele>232.80000305176</ele>
        <time>2022-03-12T12:24:26.000Z</time>
      </trkpt>
      <trkpt lat="43.69456" lon="7.07917">
        <ele>232.80000305176</ele>
        <time>2022-03-12T12:24:48.000Z</time>
      </trkpt>
      <trkpt lat="43.69456" lon="7.07918">
        <ele>232.80000305176</ele>
        <time>2022-03-12T12:24:54.000Z</time>
      </trkpt>
      <trkpt lat="43.69456" lon="7.07917">
        <ele>233</ele>
        <time>2022-03-12T12:24:56.000Z</time>
      </trkpt>
      <trkpt lat="43.69455" lon="7.07918">
        <ele>233.19999694824</ele>
        <time>2022-03-12T12:25:10.000Z</time>
      </trkpt>
      <trkpt lat="43.69453" lon="7.07918">
        <ele>233.60000610352</ele>
        <time>2022-03-12T12:25:23.000Z</time>
      </trkpt>
      <trkpt lat="43.69446" lon="7.07923">
        <ele>233.60000610352</ele>
        <time>2022-03-12T12:25:29.000Z</time>
      </trkpt>
      <trkpt lat="43.69434" lon="7.07938">
        <ele>233.19999694824</ele>
        <time>2022-03-12T12:25:34.000Z</time>
      </trkpt>
      <trkpt lat="43.69425" lon="7.07951">
        <ele>232.19999694824</ele>
        <time>2022-03-12T12:25:38.000Z</time>
      </trkpt>
      <trkpt lat="43.69423" lon="7.07954">
        <ele>232</ele>
        <time>2022-03-12T12:25:39.000Z</time>
      </trkpt>
      <trkpt lat="43.69414" lon="7.07969">
        <ele>232.19999694824</ele>
        <time>2022-03-12T12:25:44.000Z</time>
      </trkpt>
      <trkpt lat="43.69403" lon="7.07982">
        <ele>231.39999389648</ele>
        <time>2022-03-12T12:25:49.000Z</time>
      </trkpt>
      <trkpt lat="43.69394" lon="7.07982">
        <ele>230.80000305176</ele>
        <time>2022-03-12T12:25:51.000Z</time>
      </trkpt>
      <trkpt lat="43.69388" lon="7.07983">
        <ele>230.19999694824</ele>
        <time>2022-03-12T12:25:53.000Z</time>
      </trkpt>
      <trkpt lat="43.69369" lon="7.07981">
        <ele>231.19999694824</ele>
        <time>2022-03-12T12:25:58.000Z</time>
      </trkpt>
      <trkpt lat="43.69349" lon="7.07977">
        <ele>231.39999389648</ele>
        <time>2022-03-12T12:26:03.000Z</time>
      </trkpt>
      <trkpt lat="43.69345" lon="7.07976">
        <ele>231.80000305176</ele>
        <time>2022-03-12T12:26:04.000Z</time>
      </trkpt>
      <trkpt lat="43.69328" lon="7.07973">
        <ele>233.39999389648</ele>
        <time>2022-03-12T12:26:08.000Z</time>
      </trkpt>
      <trkpt lat="43.69325" lon="7.07972">
        <ele>233.60000610352</ele>
        <time>2022-03-12T12:26:09.000Z</time>
      </trkpt>
      <trkpt lat="43.69305" lon="7.07963">
        <ele>234.60000610352</ele>
        <time>2022-03-12T12:26:14.000Z</time>
      </trkpt>
      <trkpt lat="43.69301" lon="7.07962">
        <ele>235</ele>
        <time>2022-03-12T12:26:15.000Z</time>
      </trkpt>
      <trkpt lat="43.69296" lon="7.07962">
        <ele>235.19999694824</ele>
        <time>2022-03-12T12:26:16.000Z</time>
      </trkpt>
      <trkpt lat="43.69287" lon="7.07967">
        <ele>235</ele>
        <time>2022-03-12T12:26:18.000Z</time>
      </trkpt>
      <trkpt lat="43.69272" lon="7.07977">
        <ele>234.19999694824</ele>
        <time>2022-03-12T12:26:22.000Z</time>
      </trkpt>
      <trkpt lat="43.69269" lon="7.07977">
        <ele>234</ele>
        <time>2022-03-12T12:26:23.000Z</time>
      </trkpt>
      <trkpt lat="43.69259" lon="7.07968">
        <ele>233.80000305176</ele>
        <time>2022-03-12T12:26:25.000Z</time>
      </trkpt>
      <trkpt lat="43.69253" lon="7.07965">
        <ele>233.39999389648</ele>
        <time>2022-03-12T12:26:26.000Z</time>
      </trkpt>
      <trkpt lat="43.69245" lon="7.07961">
        <ele>231.80000305176</ele>
        <time>2022-03-12T12:26:28.000Z</time>
      </trkpt>
      <trkpt lat="43.69243" lon="7.0796">
        <ele>231</ele>
        <time>2022-03-12T12:26:29.000Z</time>
      </trkpt>
      <trkpt lat="43.6924" lon="7.07959">
        <ele>230.60000610352</ele>
        <time>2022-03-12T12:26:30.000Z</time>
      </trkpt>
      <trkpt lat="43.69228" lon="7.07957">
        <ele>231.19999694824</ele>
        <time>2022-03-12T12:26:34.000Z</time>
      </trkpt>
      <trkpt lat="43.69209" lon="7.07951">
        <ele>230.80000305176</ele>
        <time>2022-03-12T12:26:39.000Z</time>
      </trkpt>
      <trkpt lat="43.69186" lon="7.07953">
        <ele>230.19999694824</ele>
        <time>2022-03-12T12:26:44.000Z</time>
      </trkpt>
      <trkpt lat="43.69172" lon="7.07955">
        <ele>229.39999389648</ele>
        <time>2022-03-12T12:26:47.000Z</time>
      </trkpt>
      <trkpt lat="43.69159" lon="7.07957">
        <ele>229.19999694824</ele>
        <time>2022-03-12T12:26:50.000Z</time>
      </trkpt>
      <trkpt lat="43.69137" lon="7.0796">
        <ele>229.60000610352</ele>
        <time>2022-03-12T12:26:55.000Z</time>
      </trkpt>
      <trkpt lat="43.6913" lon="7.07956">
        <ele>229.39999389648</ele>
        <time>2022-03-12T12:26:57.000Z</time>
      </trkpt>
      <trkpt lat="43.69127" lon="7.07954">
        <ele>229.19999694824</ele>
        <time>2022-03-12T12:26:58.000Z</time>
      </trkpt>
      <trkpt lat="43.69115" lon="7.07945">
        <ele>229</ele>
        <time>2022-03-12T12:27:01.000Z</time>
      </trkpt>
      <trkpt lat="43.69111" lon="7.07942">
        <ele>229</ele>
        <time>2022-03-12T12:27:02.000Z</time>
      </trkpt>
      <trkpt lat="43.691" lon="7.07936">
        <ele>229.19999694824</ele>
        <time>2022-03-12T12:27:06.000Z</time>
      </trkpt>
      <trkpt lat="43.69093" lon="7.07929">
        <ele>229.19999694824</ele>
        <time>2022-03-12T12:27:12.000Z</time>
      </trkpt>
      <trkpt lat="43.6909" lon="7.07925">
        <ele>228.39999389648</ele>
        <time>2022-03-12T12:27:15.000Z</time>
      </trkpt>
      <trkpt lat="43.69087" lon="7.07923">
        <ele>228</ele>
        <time>2022-03-12T12:27:17.000Z</time>
      </trkpt>
      <trkpt lat="43.69086" lon="7.07923">
        <ele>227.39999389648</ele>
        <time>2022-03-12T12:27:18.000Z</time>
      </trkpt>
      <trkpt lat="43.69084" lon="7.07924">
        <ele>227</ele>
        <time>2022-03-12T12:27:19.000Z</time>
      </trkpt>
      <trkpt lat="43.69084" lon="7.07925">
        <ele>226</ele>
        <time>2022-03-12T12:27:21.000Z</time>
      </trkpt>
      <trkpt lat="43.69083" lon="7.07926">
        <ele>225.60000610352</ele>
        <time>2022-03-12T12:27:22.000Z</time>
      </trkpt>
      <trkpt lat="43.69082" lon="7.0793">
        <ele>225</ele>
        <time>2022-03-12T12:27:24.000Z</time>
      </trkpt>
      <trkpt lat="43.69079" lon="7.07938">
        <ele>225</ele>
        <time>2022-03-12T12:27:27.000Z</time>
      </trkpt>
      <trkpt lat="43.69078" lon="7.07941">
        <ele>225</ele>
        <time>2022-03-12T12:27:28.000Z</time>
      </trkpt>
      <trkpt lat="43.69074" lon="7.07947">
        <ele>224</ele>
        <time>2022-03-12T12:27:31.000Z</time>
      </trkpt>
      <trkpt lat="43.69073" lon="7.07948">
        <ele>223.39999389648</ele>
        <time>2022-03-12T12:27:32.000Z</time>
      </trkpt>
      <trkpt lat="43.69071" lon="7.07948">
        <ele>222.60000610352</ele>
        <time>2022-03-12T12:27:33.000Z</time>
      </trkpt>
      <trkpt lat="43.69064" lon="7.07954">
        <ele>220.80000305176</ele>
        <time>2022-03-12T12:27:35.000Z</time>
      </trkpt>
      <trkpt lat="43.69062" lon="7.07958">
        <ele>219.39999389648</ele>
        <time>2022-03-12T12:27:36.000Z</time>
      </trkpt>
      <trkpt lat="43.69058" lon="7.0796">
        <ele>217.80000305176</ele>
        <time>2022-03-12T12:27:37.000Z</time>
      </trkpt>
      <trkpt lat="43.69053" lon="7.07962">
        <ele>216.19999694824</ele>
        <time>2022-03-12T12:27:38.000Z</time>
      </trkpt>
      <trkpt lat="43.69049" lon="7.07962">
        <ele>214.60000610352</ele>
        <time>2022-03-12T12:27:39.000Z</time>
      </trkpt>
      <trkpt lat="43.69046" lon="7.07963">
        <ele>213</ele>
        <time>2022-03-12T12:27:40.000Z</time>
      </trkpt>
      <trkpt lat="43.69041" lon="7.07964">
        <ele>211.39999389648</ele>
        <time>2022-03-12T12:27:41.000Z</time>
      </trkpt>
      <trkpt lat="43.69037" lon="7.07963">
        <ele>212.19999694824</ele>
        <time>2022-03-12T12:27:42.000Z</time>
      </trkpt>
      <trkpt lat="43.69033" lon="7.07948">
        <ele>210</ele>
        <time>2022-03-12T12:27:45.000Z</time>
      </trkpt>
      <trkpt lat="43.69032" lon="7.07936">
        <ele>208.80000305176</ele>
        <time>2022-03-12T12:27:47.000Z</time>
      </trkpt>
      <trkpt lat="43.69029" lon="7.07931">
        <ele>208.60000610352</ele>
        <time>2022-03-12T12:27:48.000Z</time>
      </trkpt>
      <trkpt lat="43.69022" lon="7.0793">
        <ele>207.80000305176</ele>
        <time>2022-03-12T12:27:50.000Z</time>
      </trkpt>
      <trkpt lat="43.69016" lon="7.07932">
        <ele>206.80000305176</ele>
        <time>2022-03-12T12:27:51.000Z</time>
      </trkpt>
      <trkpt lat="43.69009" lon="7.07934">
        <ele>206.39999389648</ele>
        <time>2022-03-12T12:27:52.000Z</time>
      </trkpt>
      <trkpt lat="43.68995" lon="7.07937">
        <ele>205.39999389648</ele>
        <time>2022-03-12T12:27:54.000Z</time>
      </trkpt>
      <trkpt lat="43.68989" lon="7.07936">
        <ele>204.39999389648</ele>
        <time>2022-03-12T12:27:55.000Z</time>
      </trkpt>
      <trkpt lat="43.68983" lon="7.07934">
        <ele>203.19999694824</ele>
        <time>2022-03-12T12:27:56.000Z</time>
      </trkpt>
      <trkpt lat="43.68977" lon="7.0793">
        <ele>202</ele>
        <time>2022-03-12T12:27:57.000Z</time>
      </trkpt>
      <trkpt lat="43.68972" lon="7.07917">
        <ele>200.60000610352</ele>
        <time>2022-03-12T12:27:59.000Z</time>
      </trkpt>
      <trkpt lat="43.68972" lon="7.0791">
        <ele>200</ele>
        <time>2022-03-12T12:28:00.000Z</time>
      </trkpt>
      <trkpt lat="43.68973" lon="7.07902">
        <ele>199.60000610352</ele>
        <time>2022-03-12T12:28:01.000Z</time>
      </trkpt>
      <trkpt lat="43.68973" lon="7.07895">
        <ele>199</ele>
        <time>2022-03-12T12:28:02.000Z</time>
      </trkpt>
      <trkpt lat="43.68974" lon="7.07886">
        <ele>197.60000610352</ele>
        <time>2022-03-12T12:28:04.000Z</time>
      </trkpt>
      <trkpt lat="43.68975" lon="7.07883">
        <ele>196.80000305176</ele>
        <time>2022-03-12T12:28:07.000Z</time>
      </trkpt>
      <trkpt lat="43.68975" lon="7.07883">
        <ele>196.39999389648</ele>
        <time>2022-03-12T12:28:08.000Z</time>
      </trkpt>
      <trkpt lat="43.68973" lon="7.07881">
        <ele>196.19999694824</ele>
        <time>2022-03-12T12:28:12.000Z</time>
      </trkpt>
      <trkpt lat="43.68972" lon="7.07876">
        <ele>195.80000305176</ele>
        <time>2022-03-12T12:28:14.000Z</time>
      </trkpt>
      <trkpt lat="43.68971" lon="7.07868">
        <ele>195.80000305176</ele>
        <time>2022-03-12T12:28:16.000Z</time>
      </trkpt>
      <trkpt lat="43.68969" lon="7.07862">
        <ele>195.60000610352</ele>
        <time>2022-03-12T12:28:18.000Z</time>
      </trkpt>
      <trkpt lat="43.68969" lon="7.0786">
        <ele>195.39999389648</ele>
        <time>2022-03-12T12:28:19.000Z</time>
      </trkpt>
      <trkpt lat="43.68966" lon="7.07855">
        <ele>194.19999694824</ele>
        <time>2022-03-12T12:28:22.000Z</time>
      </trkpt>
      <trkpt lat="43.68966" lon="7.07854">
        <ele>193.80000305176</ele>
        <time>2022-03-12T12:28:24.000Z</time>
      </trkpt>
      <trkpt lat="43.68966" lon="7.07853">
        <ele>193.19999694824</ele>
        <time>2022-03-12T12:28:26.000Z</time>
      </trkpt>
      <trkpt lat="43.68966" lon="7.0785">
        <ele>192.60000610352</ele>
        <time>2022-03-12T12:28:28.000Z</time>
      </trkpt>
      <trkpt lat="43.68966" lon="7.07842">
        <ele>192.19999694824</ele>
        <time>2022-03-12T12:28:30.000Z</time>
      </trkpt>
      <trkpt lat="43.68965" lon="7.07828">
        <ele>191</ele>
        <time>2022-03-12T12:28:33.000Z</time>
      </trkpt>
      <trkpt lat="43.68964" lon="7.07822">
        <ele>190.60000610352</ele>
        <time>2022-03-12T12:28:35.000Z</time>
      </trkpt>
      <trkpt lat="43.68963" lon="7.07815">
        <ele>189.80000305176</ele>
        <time>2022-03-12T12:28:37.000Z</time>
      </trkpt>
      <trkpt lat="43.68964" lon="7.07811">
        <ele>189.60000610352</ele>
        <time>2022-03-12T12:28:38.000Z</time>
      </trkpt>
      <trkpt lat="43.68967" lon="7.07809">
        <ele>189.39999389648</ele>
        <time>2022-03-12T12:28:39.000Z</time>
      </trkpt>
      <trkpt lat="43.68971" lon="7.07804">
        <ele>188.60000610352</ele>
        <time>2022-03-12T12:28:41.000Z</time>
      </trkpt>
      <trkpt lat="43.68973" lon="7.07797">
        <ele>187.80000305176</ele>
        <time>2022-03-12T12:28:42.000Z</time>
      </trkpt>
      <trkpt lat="43.68975" lon="7.07792">
        <ele>187</ele>
        <time>2022-03-12T12:28:43.000Z</time>
      </trkpt>
      <trkpt lat="43.68977" lon="7.07786">
        <ele>185.80000305176</ele>
        <time>2022-03-12T12:28:44.000Z</time>
      </trkpt>
      <trkpt lat="43.68979" lon="7.07779">
        <ele>184.80000305176</ele>
        <time>2022-03-12T12:28:45.000Z</time>
      </trkpt>
      <trkpt lat="43.68981" lon="7.07771">
        <ele>183.60000610352</ele>
        <time>2022-03-12T12:28:46.000Z</time>
      </trkpt>
      <trkpt lat="43.68983" lon="7.07764">
        <ele>182.39999389648</ele>
        <time>2022-03-12T12:28:47.000Z</time>
      </trkpt>
      <trkpt lat="43.68985" lon="7.07756">
        <ele>181.19999694824</ele>
        <time>2022-03-12T12:28:48.000Z</time>
      </trkpt>
      <trkpt lat="43.68985" lon="7.07749">
        <ele>180.19999694824</ele>
        <time>2022-03-12T12:28:49.000Z</time>
      </trkpt>
      <trkpt lat="43.68985" lon="7.07743">
        <ele>178.80000305176</ele>
        <time>2022-03-12T12:28:50.000Z</time>
      </trkpt>
      <trkpt lat="43.68985" lon="7.07736">
        <ele>177.60000610352</ele>
        <time>2022-03-12T12:28:51.000Z</time>
      </trkpt>
      <trkpt lat="43.68984" lon="7.07731">
        <ele>176.39999389648</ele>
        <time>2022-03-12T12:28:52.000Z</time>
      </trkpt>
      <trkpt lat="43.68983" lon="7.07729">
        <ele>175.39999389648</ele>
        <time>2022-03-12T12:28:53.000Z</time>
      </trkpt>
      <trkpt lat="43.68982" lon="7.07724">
        <ele>174.39999389648</ele>
        <time>2022-03-12T12:28:54.000Z</time>
      </trkpt>
      <trkpt lat="43.68979" lon="7.07715">
        <ele>172.60000610352</ele>
        <time>2022-03-12T12:28:56.000Z</time>
      </trkpt>
      <trkpt lat="43.68979" lon="7.07711">
        <ele>171.80000305176</ele>
        <time>2022-03-12T12:28:57.000Z</time>
      </trkpt>
      <trkpt lat="43.68978" lon="7.07707">
        <ele>170.80000305176</ele>
        <time>2022-03-12T12:28:58.000Z</time>
      </trkpt>
      <trkpt lat="43.68979" lon="7.077">
        <ele>169.39999389648</ele>
        <time>2022-03-12T12:29:00.000Z</time>
      </trkpt>
      <trkpt lat="43.68981" lon="7.07697">
        <ele>169</ele>
        <time>2022-03-12T12:29:01.000Z</time>
      </trkpt>
      <trkpt lat="43.68982" lon="7.07693">
        <ele>168</ele>
        <time>2022-03-12T12:29:02.000Z</time>
      </trkpt>
      <trkpt lat="43.68982" lon="7.07685">
        <ele>166.60000610352</ele>
        <time>2022-03-12T12:29:04.000Z</time>
      </trkpt>
      <trkpt lat="43.68983" lon="7.0768">
        <ele>165.60000610352</ele>
        <time>2022-03-12T12:29:05.000Z</time>
      </trkpt>
      <trkpt lat="43.68982" lon="7.07676">
        <ele>164.39999389648</ele>
        <time>2022-03-12T12:29:06.000Z</time>
      </trkpt>
      <trkpt lat="43.68982" lon="7.07673">
        <ele>163.19999694824</ele>
        <time>2022-03-12T12:29:07.000Z</time>
      </trkpt>
      <trkpt lat="43.68984" lon="7.07671">
        <ele>161.80000305176</ele>
        <time>2022-03-12T12:29:08.000Z</time>
      </trkpt>
      <trkpt lat="43.68984" lon="7.07671">
        <ele>160.39999389648</ele>
        <time>2022-03-12T12:29:09.000Z</time>
      </trkpt>
      <trkpt lat="43.68985" lon="7.07672">
        <ele>159.39999389648</ele>
        <time>2022-03-12T12:29:10.000Z</time>
      </trkpt>
      <trkpt lat="43.68988" lon="7.07676">
        <ele>157.60000610352</ele>
        <time>2022-03-12T12:29:12.000Z</time>
      </trkpt>
      <trkpt lat="43.68991" lon="7.07678">
        <ele>156.39999389648</ele>
        <time>2022-03-12T12:29:14.000Z</time>
      </trkpt>
      <trkpt lat="43.68991" lon="7.07673">
        <ele>154.80000305176</ele>
        <time>2022-03-12T12:29:16.000Z</time>
      </trkpt>
      <trkpt lat="43.68991" lon="7.07666">
        <ele>153.80000305176</ele>
        <time>2022-03-12T12:29:17.000Z</time>
      </trkpt>
      <trkpt lat="43.6899" lon="7.07658">
        <ele>152.80000305176</ele>
        <time>2022-03-12T12:29:18.000Z</time>
      </trkpt>
      <trkpt lat="43.6899" lon="7.0765">
        <ele>151.60000610352</ele>
        <time>2022-03-12T12:29:19.000Z</time>
      </trkpt>
      <trkpt lat="43.6899" lon="7.07642">
        <ele>149.80000305176</ele>
        <time>2022-03-12T12:29:20.000Z</time>
      </trkpt>
      <trkpt lat="43.6899" lon="7.07633">
        <ele>148.60000610352</ele>
        <time>2022-03-12T12:29:21.000Z</time>
      </trkpt>
      <trkpt lat="43.68989" lon="7.07625">
        <ele>149.19999694824</ele>
        <time>2022-03-12T12:29:22.000Z</time>
      </trkpt>
      <trkpt lat="43.68988" lon="7.07616">
        <ele>148.60000610352</ele>
        <time>2022-03-12T12:29:23.000Z</time>
      </trkpt>
      <trkpt lat="43.68986" lon="7.07597">
        <ele>147.19999694824</ele>
        <time>2022-03-12T12:29:25.000Z</time>
      </trkpt>
      <trkpt lat="43.68984" lon="7.07581">
        <ele>146.19999694824</ele>
        <time>2022-03-12T12:29:27.000Z</time>
      </trkpt>
      <trkpt lat="43.68982" lon="7.07575">
        <ele>145.19999694824</ele>
        <time>2022-03-12T12:29:28.000Z</time>
      </trkpt>
      <trkpt lat="43.6898" lon="7.07569">
        <ele>143.60000610352</ele>
        <time>2022-03-12T12:29:29.000Z</time>
      </trkpt>
      <trkpt lat="43.6898" lon="7.07563">
        <ele>143.19999694824</ele>
        <time>2022-03-12T12:29:30.000Z</time>
      </trkpt>
      <trkpt lat="43.68979" lon="7.07557">
        <ele>142.19999694824</ele>
        <time>2022-03-12T12:29:31.000Z</time>
      </trkpt>
      <trkpt lat="43.68978" lon="7.07553">
        <ele>141</ele>
        <time>2022-03-12T12:29:32.000Z</time>
      </trkpt>
      <trkpt lat="43.68973" lon="7.07548">
        <ele>138.60000610352</ele>
        <time>2022-03-12T12:29:34.000Z</time>
      </trkpt>
      <trkpt lat="43.6897" lon="7.07545">
        <ele>137.39999389648</ele>
        <time>2022-03-12T12:29:35.000Z</time>
      </trkpt>
      <trkpt lat="43.68968" lon="7.07541">
        <ele>136</ele>
        <time>2022-03-12T12:29:36.000Z</time>
      </trkpt>
      <trkpt lat="43.68967" lon="7.07537">
        <ele>135</ele>
        <time>2022-03-12T12:29:37.000Z</time>
      </trkpt>
      <trkpt lat="43.68966" lon="7.07533">
        <ele>134.19999694824</ele>
        <time>2022-03-12T12:29:38.000Z</time>
      </trkpt>
      <trkpt lat="43.6896" lon="7.07526">
        <ele>133</ele>
        <time>2022-03-12T12:29:40.000Z</time>
      </trkpt>
      <trkpt lat="43.68955" lon="7.07523">
        <ele>132.39999389648</ele>
        <time>2022-03-12T12:29:41.000Z</time>
      </trkpt>
      <trkpt lat="43.68951" lon="7.07519">
        <ele>132</ele>
        <time>2022-03-12T12:29:42.000Z</time>
      </trkpt>
      <trkpt lat="43.68946" lon="7.07516">
        <ele>131.60000610352</ele>
        <time>2022-03-12T12:29:43.000Z</time>
      </trkpt>
      <trkpt lat="43.68935" lon="7.0751">
        <ele>130.60000610352</ele>
        <time>2022-03-12T12:29:45.000Z</time>
      </trkpt>
      <trkpt lat="43.6893" lon="7.07505">
        <ele>130.19999694824</ele>
        <time>2022-03-12T12:29:46.000Z</time>
      </trkpt>
      <trkpt lat="43.68923" lon="7.075">
        <ele>129</ele>
        <time>2022-03-12T12:29:48.000Z</time>
      </trkpt>
      <trkpt lat="43.68919" lon="7.07498">
        <ele>128.60000610352</ele>
        <time>2022-03-12T12:29:49.000Z</time>
      </trkpt>
      <trkpt lat="43.68916" lon="7.07497">
        <ele>127.80000305176</ele>
        <time>2022-03-12T12:29:50.000Z</time>
      </trkpt>
      <trkpt lat="43.68913" lon="7.07494">
        <ele>127.59999847412</ele>
        <time>2022-03-12T12:29:51.000Z</time>
      </trkpt>
      <trkpt lat="43.68906" lon="7.07486">
        <ele>126.40000152588</ele>
        <time>2022-03-12T12:29:53.000Z</time>
      </trkpt>
      <trkpt lat="43.68901" lon="7.07478">
        <ele>124.80000305176</ele>
        <time>2022-03-12T12:29:55.000Z</time>
      </trkpt>
      <trkpt lat="43.68897" lon="7.07469">
        <ele>123.59999847412</ele>
        <time>2022-03-12T12:29:57.000Z</time>
      </trkpt>
      <trkpt lat="43.6889" lon="7.07459">
        <ele>123</ele>
        <time>2022-03-12T12:29:59.000Z</time>
      </trkpt>
      <trkpt lat="43.68888" lon="7.07454">
        <ele>122.19999694824</ele>
        <time>2022-03-12T12:30:00.000Z</time>
      </trkpt>
      <trkpt lat="43.68882" lon="7.07438">
        <ele>120.19999694824</ele>
        <time>2022-03-12T12:30:03.000Z</time>
      </trkpt>
      <trkpt lat="43.68882" lon="7.07432">
        <ele>118.80000305176</ele>
        <time>2022-03-12T12:30:04.000Z</time>
      </trkpt>
      <trkpt lat="43.68879" lon="7.07423">
        <ele>117.19999694824</ele>
        <time>2022-03-12T12:30:06.000Z</time>
      </trkpt>
      <trkpt lat="43.68876" lon="7.07418">
        <ele>115.59999847412</ele>
        <time>2022-03-12T12:30:07.000Z</time>
      </trkpt>
      <trkpt lat="43.68873" lon="7.07415">
        <ele>114.40000152588</ele>
        <time>2022-03-12T12:30:08.000Z</time>
      </trkpt>
      <trkpt lat="43.68869" lon="7.07412">
        <ele>113.40000152588</ele>
        <time>2022-03-12T12:30:09.000Z</time>
      </trkpt>
      <trkpt lat="43.68867" lon="7.07408">
        <ele>112.19999694824</ele>
        <time>2022-03-12T12:30:10.000Z</time>
      </trkpt>
      <trkpt lat="43.68866" lon="7.07405">
        <ele>111.40000152588</ele>
        <time>2022-03-12T12:30:11.000Z</time>
      </trkpt>
      <trkpt lat="43.68866" lon="7.074">
        <ele>111</ele>
        <time>2022-03-12T12:30:12.000Z</time>
      </trkpt>
      <trkpt lat="43.68866" lon="7.07386">
        <ele>110.19999694824</ele>
        <time>2022-03-12T12:30:14.000Z</time>
      </trkpt>
      <trkpt lat="43.68865" lon="7.0738">
        <ele>109.59999847412</ele>
        <time>2022-03-12T12:30:15.000Z</time>
      </trkpt>
      <trkpt lat="43.68863" lon="7.07373">
        <ele>109</ele>
        <time>2022-03-12T12:30:16.000Z</time>
      </trkpt>
      <trkpt lat="43.68861" lon="7.07367">
        <ele>108</ele>
        <time>2022-03-12T12:30:17.000Z</time>
      </trkpt>
      <trkpt lat="43.68857" lon="7.07355">
        <ele>106.40000152588</ele>
        <time>2022-03-12T12:30:19.000Z</time>
      </trkpt>
      <trkpt lat="43.68855" lon="7.07349">
        <ele>105.40000152588</ele>
        <time>2022-03-12T12:30:20.000Z</time>
      </trkpt>
      <trkpt lat="43.68853" lon="7.07343">
        <ele>104.59999847412</ele>
        <time>2022-03-12T12:30:21.000Z</time>
      </trkpt>
      <trkpt lat="43.68852" lon="7.07341">
        <ele>103.40000152588</ele>
        <time>2022-03-12T12:30:23.000Z</time>
      </trkpt>
      <trkpt lat="43.68851" lon="7.07341">
        <ele>102.40000152588</ele>
        <time>2022-03-12T12:30:29.000Z</time>
      </trkpt>
      <trkpt lat="43.6885" lon="7.07342">
        <ele>102</ele>
        <time>2022-03-12T12:30:32.000Z</time>
      </trkpt>
      <trkpt lat="43.6885" lon="7.07342">
        <ele>101.19999694824</ele>
        <time>2022-03-12T12:30:37.000Z</time>
      </trkpt>
      <trkpt lat="43.6885" lon="7.07342">
        <ele>100.19999694824</ele>
        <time>2022-03-12T12:30:42.000Z</time>
      </trkpt>
      <trkpt lat="43.6885" lon="7.07342">
        <ele>100</ele>
        <time>2022-03-12T12:30:44.000Z</time>
      </trkpt>
      <trkpt lat="43.6885" lon="7.07342">
        <ele>99</ele>
        <time>2022-03-12T12:30:50.000Z</time>
      </trkpt>
      <trkpt lat="43.6885" lon="7.07342">
        <ele>98</ele>
        <time>2022-03-12T12:30:57.000Z</time>
      </trkpt>
      <trkpt lat="43.68849" lon="7.07342">
        <ele>96.800003051758</ele>
        <time>2022-03-12T12:31:05.000Z</time>
      </trkpt>
      <trkpt lat="43.68849" lon="7.07342">
        <ele>96.599998474121</ele>
        <time>2022-03-12T12:31:07.000Z</time>
      </trkpt>
      <trkpt lat="43.68849" lon="7.07342">
        <ele>95.800003051758</ele>
        <time>2022-03-12T12:31:13.000Z</time>
      </trkpt>
      <trkpt lat="43.68849" lon="7.07337">
        <ele>95</ele>
        <time>2022-03-12T12:31:19.000Z</time>
      </trkpt>
      <trkpt lat="43.68847" lon="7.0733">
        <ele>94.599998474121</ele>
        <time>2022-03-12T12:31:21.000Z</time>
      </trkpt>
      <trkpt lat="43.68847" lon="7.07325">
        <ele>94.199996948242</ele>
        <time>2022-03-12T12:31:22.000Z</time>
      </trkpt>
      <trkpt lat="43.68849" lon="7.07316">
        <ele>93.199996948242</ele>
        <time>2022-03-12T12:31:24.000Z</time>
      </trkpt>
      <trkpt lat="43.68848" lon="7.07313">
        <ele>92.199996948242</ele>
        <time>2022-03-12T12:31:25.000Z</time>
      </trkpt>
      <trkpt lat="43.68847" lon="7.0731">
        <ele>91.199996948242</ele>
        <time>2022-03-12T12:31:26.000Z</time>
      </trkpt>
      <trkpt lat="43.68845" lon="7.07307">
        <ele>89.800003051758</ele>
        <time>2022-03-12T12:31:27.000Z</time>
      </trkpt>
      <trkpt lat="43.68844" lon="7.07305">
        <ele>88.400001525879</ele>
        <time>2022-03-12T12:31:28.000Z</time>
      </trkpt>
      <trkpt lat="43.68842" lon="7.07303">
        <ele>87.599998474121</ele>
        <time>2022-03-12T12:31:29.000Z</time>
      </trkpt>
      <trkpt lat="43.68839" lon="7.07301">
        <ele>86.400001525879</ele>
        <time>2022-03-12T12:31:30.000Z</time>
      </trkpt>
      <trkpt lat="43.68835" lon="7.07301">
        <ele>85</ele>
        <time>2022-03-12T12:31:31.000Z</time>
      </trkpt>
      <trkpt lat="43.68832" lon="7.07301">
        <ele>83.800003051758</ele>
        <time>2022-03-12T12:31:32.000Z</time>
      </trkpt>
      <trkpt lat="43.68829" lon="7.07301">
        <ele>82.599998474121</ele>
        <time>2022-03-12T12:31:33.000Z</time>
      </trkpt>
      <trkpt lat="43.68825" lon="7.07301">
        <ele>80.599998474121</ele>
        <time>2022-03-12T12:31:34.000Z</time>
      </trkpt>
      <trkpt lat="43.68823" lon="7.07302">
        <ele>79.199996948242</ele>
        <time>2022-03-12T12:31:35.000Z</time>
      </trkpt>
      <trkpt lat="43.68819" lon="7.07303">
        <ele>78</ele>
        <time>2022-03-12T12:31:36.000Z</time>
      </trkpt>
      <trkpt lat="43.68816" lon="7.07303">
        <ele>76.800003051758</ele>
        <time>2022-03-12T12:31:37.000Z</time>
      </trkpt>
      <trkpt lat="43.68813" lon="7.07305">
        <ele>75.400001525879</ele>
        <time>2022-03-12T12:31:38.000Z</time>
      </trkpt>
      <trkpt lat="43.6881" lon="7.07307">
        <ele>74.599998474121</ele>
        <time>2022-03-12T12:31:39.000Z</time>
      </trkpt>
      <trkpt lat="43.68807" lon="7.07309">
        <ele>73.400001525879</ele>
        <time>2022-03-12T12:31:40.000Z</time>
      </trkpt>
      <trkpt lat="43.68805" lon="7.07308">
        <ele>71.800003051758</ele>
        <time>2022-03-12T12:31:41.000Z</time>
      </trkpt>
      <trkpt lat="43.68803" lon="7.07305">
        <ele>70.599998474121</ele>
        <time>2022-03-12T12:31:42.000Z</time>
      </trkpt>
      <trkpt lat="43.68801" lon="7.07301">
        <ele>69.599998474121</ele>
        <time>2022-03-12T12:31:43.000Z</time>
      </trkpt>
      <trkpt lat="43.68801" lon="7.07297">
        <ele>67.800003051758</ele>
        <time>2022-03-12T12:31:44.000Z</time>
      </trkpt>
      <trkpt lat="43.688" lon="7.07296">
        <ele>66.800003051758</ele>
        <time>2022-03-12T12:31:45.000Z</time>
      </trkpt>
      <trkpt lat="43.688" lon="7.07294">
        <ele>65.800003051758</ele>
        <time>2022-03-12T12:31:46.000Z</time>
      </trkpt>
      <trkpt lat="43.68799" lon="7.07291">
        <ele>64.800003051758</ele>
        <time>2022-03-12T12:31:47.000Z</time>
      </trkpt>
      <trkpt lat="43.68795" lon="7.07283">
        <ele>63.200000762939</ele>
        <time>2022-03-12T12:31:49.000Z</time>
      </trkpt>
      <trkpt lat="43.68793" lon="7.07281">
        <ele>62</ele>
        <time>2022-03-12T12:31:50.000Z</time>
      </trkpt>
      <trkpt lat="43.68787" lon="7.07275">
        <ele>60.400001525879</ele>
        <time>2022-03-12T12:31:52.000Z</time>
      </trkpt>
      <trkpt lat="43.68786" lon="7.07272">
        <ele>59.200000762939</ele>
        <time>2022-03-12T12:31:53.000Z</time>
      </trkpt>
      <trkpt lat="43.68782" lon="7.07263">
        <ele>57.400001525879</ele>
        <time>2022-03-12T12:31:55.000Z</time>
      </trkpt>
      <trkpt lat="43.68779" lon="7.07256">
        <ele>57.200000762939</ele>
        <time>2022-03-12T12:31:57.000Z</time>
      </trkpt>
      <trkpt lat="43.68783" lon="7.07255">
        <ele>58.200000762939</ele>
        <time>2022-03-12T12:32:00.000Z</time>
      </trkpt>
      <trkpt lat="43.68785" lon="7.07257">
        <ele>57.799999237061</ele>
        <time>2022-03-12T12:32:04.000Z</time>
      </trkpt>
      <trkpt lat="43.68784" lon="7.07258">
        <ele>57.200000762939</ele>
        <time>2022-03-12T12:32:15.000Z</time>
      </trkpt>
      <trkpt lat="43.68783" lon="7.07257">
        <ele>57.200000762939</ele>
        <time>2022-03-12T12:32:29.000Z</time>
      </trkpt>
      <trkpt lat="43.68783" lon="7.07257">
        <ele>57.200000762939</ele>
        <time>2022-03-12T12:32:37.000Z</time>
      </trkpt>
      <trkpt lat="43.68784" lon="7.07253">
        <ele>56.599998474121</ele>
        <time>2022-03-12T12:32:42.000Z</time>
      </trkpt>
      <trkpt lat="43.68782" lon="7.07252">
        <ele>56.599998474121</ele>
        <time>2022-03-12T12:32:43.000Z</time>
      </trkpt>
      <trkpt lat="43.68778" lon="7.0725">
        <ele>56.400001525879</ele>
        <time>2022-03-12T12:32:45.000Z</time>
      </trkpt>
      <trkpt lat="43.68775" lon="7.07249">
        <ele>56.200000762939</ele>
        <time>2022-03-12T12:32:46.000Z</time>
      </trkpt>
      <trkpt lat="43.68772" lon="7.07247">
        <ele>55.799999237061</ele>
        <time>2022-03-12T12:32:47.000Z</time>
      </trkpt>
      <trkpt lat="43.68765" lon="7.07245">
        <ele>55.200000762939</ele>
        <time>2022-03-12T12:32:49.000Z</time>
      </trkpt>
      <trkpt lat="43.68746" lon="7.07241">
        <ele>54</ele>
        <time>2022-03-12T12:32:54.000Z</time>
      </trkpt>
      <trkpt lat="43.68715" lon="7.07231">
        <ele>53</ele>
        <time>2022-03-12T12:33:02.000Z</time>
      </trkpt>
      <trkpt lat="43.68682" lon="7.07221">
        <ele>53.200000762939</ele>
        <time>2022-03-12T12:33:10.000Z</time>
      </trkpt>
      <trkpt lat="43.68673" lon="7.07219">
        <ele>52.799999237061</ele>
        <time>2022-03-12T12:33:12.000Z</time>
      </trkpt>
      <trkpt lat="43.68642" lon="7.0721">
        <ele>51.799999237061</ele>
        <time>2022-03-12T12:33:19.000Z</time>
      </trkpt>
      <trkpt lat="43.68638" lon="7.07209">
        <ele>51.599998474121</ele>
        <time>2022-03-12T12:33:20.000Z</time>
      </trkpt>
      <trkpt lat="43.68607" lon="7.072">
        <ele>50.799999237061</ele>
        <time>2022-03-12T12:33:27.000Z</time>
      </trkpt>
      <trkpt lat="43.68578" lon="7.07192">
        <ele>51.400001525879</ele>
        <time>2022-03-12T12:33:34.000Z</time>
      </trkpt>
      <trkpt lat="43.68554" lon="7.07193">
        <ele>52.400001525879</ele>
        <time>2022-03-12T12:33:40.000Z</time>
      </trkpt>
      <trkpt lat="43.68545" lon="7.07197">
        <ele>52.599998474121</ele>
        <time>2022-03-12T12:33:42.000Z</time>
      </trkpt>
      <trkpt lat="43.68537" lon="7.07201">
        <ele>52.799999237061</ele>
        <time>2022-03-12T12:33:44.000Z</time>
      </trkpt>
      <trkpt lat="43.68508" lon="7.07223">
        <ele>52.400001525879</ele>
        <time>2022-03-12T12:33:51.000Z</time>
      </trkpt>
      <trkpt lat="43.68471" lon="7.07251">
        <ele>53.400001525879</ele>
        <time>2022-03-12T12:34:00.000Z</time>
      </trkpt>
      <trkpt lat="43.68448" lon="7.07269">
        <ele>53.799999237061</ele>
        <time>2022-03-12T12:34:06.000Z</time>
      </trkpt>
      <trkpt lat="43.68437" lon="7.0728">
        <ele>54.400001525879</ele>
        <time>2022-03-12T12:34:09.000Z</time>
      </trkpt>
      <trkpt lat="43.68427" lon="7.07292">
        <ele>55</ele>
        <time>2022-03-12T12:34:12.000Z</time>
      </trkpt>
      <trkpt lat="43.68415" lon="7.07307">
        <ele>56.200000762939</ele>
        <time>2022-03-12T12:34:16.000Z</time>
      </trkpt>
      <trkpt lat="43.68412" lon="7.07311">
        <ele>56.400001525879</ele>
        <time>2022-03-12T12:34:17.000Z</time>
      </trkpt>
      <trkpt lat="43.68405" lon="7.07319">
        <ele>56.599998474121</ele>
        <time>2022-03-12T12:34:19.000Z</time>
      </trkpt>
      <trkpt lat="43.68394" lon="7.07329">
        <ele>56.599998474121</ele>
        <time>2022-03-12T12:34:22.000Z</time>
      </trkpt>
      <trkpt lat="43.68369" lon="7.0735">
        <ele>56.200000762939</ele>
        <time>2022-03-12T12:34:29.000Z</time>
      </trkpt>
      <trkpt lat="43.6836" lon="7.07358">
        <ele>55.799999237061</ele>
        <time>2022-03-12T12:34:32.000Z</time>
      </trkpt>
      <trkpt lat="43.68354" lon="7.07362">
        <ele>56.200000762939</ele>
        <time>2022-03-12T12:34:34.000Z</time>
      </trkpt>
      <trkpt lat="43.68345" lon="7.07368">
        <ele>57.200000762939</ele>
        <time>2022-03-12T12:34:37.000Z</time>
      </trkpt>
      <trkpt lat="43.68342" lon="7.07372">
        <ele>57.400001525879</ele>
        <time>2022-03-12T12:34:38.000Z</time>
      </trkpt>
      <trkpt lat="43.68331" lon="7.07394">
        <ele>57.799999237061</ele>
        <time>2022-03-12T12:34:42.000Z</time>
      </trkpt>
      <trkpt lat="43.68328" lon="7.074">
        <ele>57.799999237061</ele>
        <time>2022-03-12T12:34:43.000Z</time>
      </trkpt>
      <trkpt lat="43.68316" lon="7.07427">
        <ele>57.400001525879</ele>
        <time>2022-03-12T12:34:47.000Z</time>
      </trkpt>
      <trkpt lat="43.68313" lon="7.07434">
        <ele>57</ele>
        <time>2022-03-12T12:34:48.000Z</time>
      </trkpt>
      <trkpt lat="43.68304" lon="7.07455">
        <ele>56.200000762939</ele>
        <time>2022-03-12T12:34:51.000Z</time>
      </trkpt>
      <trkpt lat="43.68301" lon="7.07461">
        <ele>56</ele>
        <time>2022-03-12T12:34:52.000Z</time>
      </trkpt>
      <trkpt lat="43.68296" lon="7.07467">
        <ele>56</ele>
        <time>2022-03-12T12:34:53.000Z</time>
      </trkpt>
      <trkpt lat="43.68274" lon="7.07499">
        <ele>56</ele>
        <time>2022-03-12T12:34:58.000Z</time>
      </trkpt>
      <trkpt lat="43.68254" lon="7.07535">
        <ele>55.400001525879</ele>
        <time>2022-03-12T12:35:03.000Z</time>
      </trkpt>
      <trkpt lat="43.68235" lon="7.07572">
        <ele>55.200000762939</ele>
        <time>2022-03-12T12:35:08.000Z</time>
      </trkpt>
      <trkpt lat="43.68225" lon="7.07593">
        <ele>54.799999237061</ele>
        <time>2022-03-12T12:35:11.000Z</time>
      </trkpt>
      <trkpt lat="43.68218" lon="7.07608">
        <ele>54.200000762939</ele>
        <time>2022-03-12T12:35:13.000Z</time>
      </trkpt>
      <trkpt lat="43.68214" lon="7.07614">
        <ele>53.799999237061</ele>
        <time>2022-03-12T12:35:14.000Z</time>
      </trkpt>
      <trkpt lat="43.68207" lon="7.07627">
        <ele>53.200000762939</ele>
        <time>2022-03-12T12:35:16.000Z</time>
      </trkpt>
      <trkpt lat="43.68203" lon="7.07633">
        <ele>53</ele>
        <time>2022-03-12T12:35:17.000Z</time>
      </trkpt>
      <trkpt lat="43.68194" lon="7.07645">
        <ele>53.200000762939</ele>
        <time>2022-03-12T12:35:19.000Z</time>
      </trkpt>
      <trkpt lat="43.68166" lon="7.07676">
        <ele>52.799999237061</ele>
        <time>2022-03-12T12:35:25.000Z</time>
      </trkpt>
      <trkpt lat="43.68129" lon="7.07708">
        <ele>52.599998474121</ele>
        <time>2022-03-12T12:35:33.000Z</time>
      </trkpt>
      <trkpt lat="43.68119" lon="7.07717">
        <ele>52</ele>
        <time>2022-03-12T12:35:35.000Z</time>
      </trkpt>
      <trkpt lat="43.68109" lon="7.07726">
        <ele>51.799999237061</ele>
        <time>2022-03-12T12:35:37.000Z</time>
      </trkpt>
      <trkpt lat="43.681" lon="7.07736">
        <ele>51.599998474121</ele>
        <time>2022-03-12T12:35:39.000Z</time>
      </trkpt>
      <trkpt lat="43.6808" lon="7.07767">
        <ele>51</ele>
        <time>2022-03-12T12:35:44.000Z</time>
      </trkpt>
      <trkpt lat="43.68068" lon="7.07794">
        <ele>50</ele>
        <time>2022-03-12T12:35:48.000Z</time>
      </trkpt>
      <trkpt lat="43.68061" lon="7.07814">
        <ele>49.400001525879</ele>
        <time>2022-03-12T12:35:51.000Z</time>
      </trkpt>
      <trkpt lat="43.68041" lon="7.07855">
        <ele>49</ele>
        <time>2022-03-12T12:35:57.000Z</time>
      </trkpt>
      <trkpt lat="43.68038" lon="7.07862">
        <ele>48.599998474121</ele>
        <time>2022-03-12T12:35:58.000Z</time>
      </trkpt>
      <trkpt lat="43.68025" lon="7.07893">
        <ele>48</ele>
        <time>2022-03-12T12:36:03.000Z</time>
      </trkpt>
      <trkpt lat="43.68021" lon="7.07905">
        <ele>47.799999237061</ele>
        <time>2022-03-12T12:36:05.000Z</time>
      </trkpt>
      <trkpt lat="43.68011" lon="7.07936">
        <ele>48.200000762939</ele>
        <time>2022-03-12T12:36:10.000Z</time>
      </trkpt>
      <trkpt lat="43.68008" lon="7.07957">
        <ele>48.400001525879</ele>
        <time>2022-03-12T12:36:13.000Z</time>
      </trkpt>
      <trkpt lat="43.68008" lon="7.07972">
        <ele>48.400001525879</ele>
        <time>2022-03-12T12:36:15.000Z</time>
      </trkpt>
      <trkpt lat="43.68011" lon="7.08">
        <ele>48</ele>
        <time>2022-03-12T12:36:19.000Z</time>
      </trkpt>
      <trkpt lat="43.68013" lon="7.08005">
        <ele>47.799999237061</ele>
        <time>2022-03-12T12:36:20.000Z</time>
      </trkpt>
      <trkpt lat="43.68015" lon="7.08021">
        <ele>48</ele>
        <time>2022-03-12T12:36:24.000Z</time>
      </trkpt>
      <trkpt lat="43.68015" lon="7.08029">
        <ele>47.599998474121</ele>
        <time>2022-03-12T12:36:28.000Z</time>
      </trkpt>
      <trkpt lat="43.68013" lon="7.0803">
        <ele>47.799999237061</ele>
        <time>2022-03-12T12:36:29.000Z</time>
      </trkpt>
      <trkpt lat="43.68008" lon="7.08026">
        <ele>48.400001525879</ele>
        <time>2022-03-12T12:36:32.000Z</time>
      </trkpt>
      <trkpt lat="43.68008" lon="7.08024">
        <ele>48.799999237061</ele>
        <time>2022-03-12T12:36:33.000Z</time>
      </trkpt>
      <trkpt lat="43.68008" lon="7.08017">
        <ele>50.200000762939</ele>
        <time>2022-03-12T12:36:36.000Z</time>
      </trkpt>
      <trkpt lat="43.68002" lon="7.08016">
        <ele>51</ele>
        <time>2022-03-12T12:36:39.000Z</time>
      </trkpt>
      <trkpt lat="43.67997" lon="7.08023">
        <ele>51.400001525879</ele>
        <time>2022-03-12T12:36:42.000Z</time>
      </trkpt>
      <trkpt lat="43.67995" lon="7.08026">
        <ele>51.799999237061</ele>
        <time>2022-03-12T12:36:43.000Z</time>
      </trkpt>
      <trkpt lat="43.67992" lon="7.0803">
        <ele>52.599998474121</ele>
        <time>2022-03-12T12:36:45.000Z</time>
      </trkpt>
      <trkpt lat="43.67988" lon="7.08034">
        <ele>54</ele>
        <time>2022-03-12T12:36:47.000Z</time>
      </trkpt>
      <trkpt lat="43.67987" lon="7.08035">
        <ele>54.599998474121</ele>
        <time>2022-03-12T12:36:48.000Z</time>
      </trkpt>
      <trkpt lat="43.67985" lon="7.08035">
        <ele>55.200000762939</ele>
        <time>2022-03-12T12:36:49.000Z</time>
      </trkpt>
      <trkpt lat="43.67981" lon="7.08035">
        <ele>56.400001525879</ele>
        <time>2022-03-12T12:36:51.000Z</time>
      </trkpt>
      <trkpt lat="43.67977" lon="7.08036">
        <ele>57.400001525879</ele>
        <time>2022-03-12T12:36:53.000Z</time>
      </trkpt>
      <trkpt lat="43.67975" lon="7.08036">
        <ele>57.799999237061</ele>
        <time>2022-03-12T12:36:54.000Z</time>
      </trkpt>
      <trkpt lat="43.67972" lon="7.08037">
        <ele>58.799999237061</ele>
        <time>2022-03-12T12:36:56.000Z</time>
      </trkpt>
      <trkpt lat="43.67966" lon="7.08038">
        <ele>60</ele>
        <time>2022-03-12T12:36:59.000Z</time>
      </trkpt>
      <trkpt lat="43.67965" lon="7.08038">
        <ele>60.200000762939</ele>
        <time>2022-03-12T12:37:00.000Z</time>
      </trkpt>
      <trkpt lat="43.67961" lon="7.08038">
        <ele>61.200000762939</ele>
        <time>2022-03-12T12:37:02.000Z</time>
      </trkpt>
      <trkpt lat="43.67955" lon="7.08038">
        <ele>62.400001525879</ele>
        <time>2022-03-12T12:37:05.000Z</time>
      </trkpt>
      <trkpt lat="43.67951" lon="7.08034">
        <ele>64</ele>
        <time>2022-03-12T12:37:07.000Z</time>
      </trkpt>
      <trkpt lat="43.67949" lon="7.0803">
        <ele>65.199996948242</ele>
        <time>2022-03-12T12:37:09.000Z</time>
      </trkpt>
      <trkpt lat="43.67948" lon="7.08028">
        <ele>66</ele>
        <time>2022-03-12T12:37:10.000Z</time>
      </trkpt>
      <trkpt lat="43.67947" lon="7.08027">
        <ele>66.400001525879</ele>
        <time>2022-03-12T12:37:11.000Z</time>
      </trkpt>
      <trkpt lat="43.67942" lon="7.08025">
        <ele>67.599998474121</ele>
        <time>2022-03-12T12:37:14.000Z</time>
      </trkpt>
      <trkpt lat="43.67936" lon="7.08032">
        <ele>68.599998474121</ele>
        <time>2022-03-12T12:37:18.000Z</time>
      </trkpt>
      <trkpt lat="43.67935" lon="7.08035">
        <ele>68.800003051758</ele>
        <time>2022-03-12T12:37:19.000Z</time>
      </trkpt>
      <trkpt lat="43.6793" lon="7.08041">
        <ele>69.599998474121</ele>
        <time>2022-03-12T12:37:22.000Z</time>
      </trkpt>
      <trkpt lat="43.67929" lon="7.08043">
        <ele>69.800003051758</ele>
        <time>2022-03-12T12:37:23.000Z</time>
      </trkpt>
      <trkpt lat="43.67927" lon="7.08045">
        <ele>70</ele>
        <time>2022-03-12T12:37:24.000Z</time>
      </trkpt>
      <trkpt lat="43.67924" lon="7.08049">
        <ele>70.599998474121</ele>
        <time>2022-03-12T12:37:26.000Z</time>
      </trkpt>
      <trkpt lat="43.6792" lon="7.08053">
        <ele>71.400001525879</ele>
        <time>2022-03-12T12:37:28.000Z</time>
      </trkpt>
      <trkpt lat="43.67909" lon="7.08062">
        <ele>72.400001525879</ele>
        <time>2022-03-12T12:37:33.000Z</time>
      </trkpt>
      <trkpt lat="43.67907" lon="7.08064">
        <ele>72.599998474121</ele>
        <time>2022-03-12T12:37:34.000Z</time>
      </trkpt>
      <trkpt lat="43.67899" lon="7.0807">
        <ele>73.400001525879</ele>
        <time>2022-03-12T12:37:38.000Z</time>
      </trkpt>
      <trkpt lat="43.67897" lon="7.08071">
        <ele>73.599998474121</ele>
        <time>2022-03-12T12:37:39.000Z</time>
      </trkpt>
      <trkpt lat="43.67891" lon="7.08075">
        <ele>74.199996948242</ele>
        <time>2022-03-12T12:37:44.000Z</time>
      </trkpt>
      <trkpt lat="43.6789" lon="7.08076">
        <ele>74.400001525879</ele>
        <time>2022-03-12T12:37:46.000Z</time>
      </trkpt>
      <trkpt lat="43.6789" lon="7.08078">
        <ele>74.199996948242</ele>
        <time>2022-03-12T12:37:51.000Z</time>
      </trkpt>
      <trkpt lat="43.67889" lon="7.0808">
        <ele>74.199996948242</ele>
        <time>2022-03-12T12:37:53.000Z</time>
      </trkpt>
      <trkpt lat="43.67887" lon="7.08086">
        <ele>74.400001525879</ele>
        <time>2022-03-12T12:37:56.000Z</time>
      </trkpt>
      <trkpt lat="43.67881" lon="7.0811">
        <ele>75.800003051758</ele>
        <time>2022-03-12T12:38:02.000Z</time>
      </trkpt>
      <trkpt lat="43.6788" lon="7.08122">
        <ele>77.199996948242</ele>
        <time>2022-03-12T12:38:05.000Z</time>
      </trkpt>
      <trkpt lat="43.67879" lon="7.08133">
        <ele>78.599998474121</ele>
        <time>2022-03-12T12:38:08.000Z</time>
      </trkpt>
      <trkpt lat="43.67879" lon="7.08146">
        <ele>80.199996948242</ele>
        <time>2022-03-12T12:38:11.000Z</time>
      </trkpt>
      <trkpt lat="43.67879" lon="7.08154">
        <ele>81.199996948242</ele>
        <time>2022-03-12T12:38:13.000Z</time>
      </trkpt>
      <trkpt lat="43.67879" lon="7.08158">
        <ele>81.599998474121</ele>
        <time>2022-03-12T12:38:14.000Z</time>
      </trkpt>
      <trkpt lat="43.67879" lon="7.08162">
        <ele>82.199996948242</ele>
        <time>2022-03-12T12:38:15.000Z</time>
      </trkpt>
      <trkpt lat="43.67879" lon="7.0817">
        <ele>83.199996948242</ele>
        <time>2022-03-12T12:38:17.000Z</time>
      </trkpt>
      <trkpt lat="43.6788" lon="7.0818">
        <ele>84.400001525879</ele>
        <time>2022-03-12T12:38:20.000Z</time>
      </trkpt>
      <trkpt lat="43.6788" lon="7.08184">
        <ele>84.800003051758</ele>
        <time>2022-03-12T12:38:21.000Z</time>
      </trkpt>
      <trkpt lat="43.67881" lon="7.08191">
        <ele>85.599998474121</ele>
        <time>2022-03-12T12:38:23.000Z</time>
      </trkpt>
      <trkpt lat="43.67881" lon="7.08202">
        <ele>86.800003051758</ele>
        <time>2022-03-12T12:38:26.000Z</time>
      </trkpt>
      <trkpt lat="43.67881" lon="7.0821">
        <ele>87.400001525879</ele>
        <time>2022-03-12T12:38:28.000Z</time>
      </trkpt>
      <trkpt lat="43.67882" lon="7.08218">
        <ele>88</ele>
        <time>2022-03-12T12:38:30.000Z</time>
      </trkpt>
      <trkpt lat="43.67883" lon="7.0823">
        <ele>89.199996948242</ele>
        <time>2022-03-12T12:38:33.000Z</time>
      </trkpt>
      <trkpt lat="43.67884" lon="7.08242">
        <ele>90.599998474121</ele>
        <time>2022-03-12T12:38:36.000Z</time>
      </trkpt>
      <trkpt lat="43.67885" lon="7.08252">
        <ele>91.599998474121</ele>
        <time>2022-03-12T12:38:39.000Z</time>
      </trkpt>
      <trkpt lat="43.67885" lon="7.08263">
        <ele>92.199996948242</ele>
        <time>2022-03-12T12:38:42.000Z</time>
      </trkpt>
      <trkpt lat="43.67884" lon="7.0827">
        <ele>92.599998474121</ele>
        <time>2022-03-12T12:38:44.000Z</time>
      </trkpt>
      <trkpt lat="43.67884" lon="7.0828">
        <ele>93.800003051758</ele>
        <time>2022-03-12T12:38:47.000Z</time>
      </trkpt>
      <trkpt lat="43.67883" lon="7.08287">
        <ele>94.599998474121</ele>
        <time>2022-03-12T12:38:49.000Z</time>
      </trkpt>
      <trkpt lat="43.67882" lon="7.0829">
        <ele>95</ele>
        <time>2022-03-12T12:38:50.000Z</time>
      </trkpt>
      <trkpt lat="43.67881" lon="7.08299">
        <ele>96.400001525879</ele>
        <time>2022-03-12T12:38:53.000Z</time>
      </trkpt>
      <trkpt lat="43.67879" lon="7.08302">
        <ele>97</ele>
        <time>2022-03-12T12:38:54.000Z</time>
      </trkpt>
      <trkpt lat="43.67878" lon="7.08305">
        <ele>97.400001525879</ele>
        <time>2022-03-12T12:38:55.000Z</time>
      </trkpt>
      <trkpt lat="43.67874" lon="7.08312">
        <ele>99</ele>
        <time>2022-03-12T12:38:58.000Z</time>
      </trkpt>
      <trkpt lat="43.67872" lon="7.08314">
        <ele>99.400001525879</ele>
        <time>2022-03-12T12:39:00.000Z</time>
      </trkpt>
      <trkpt lat="43.67872" lon="7.08315">
        <ele>100.19999694824</ele>
        <time>2022-03-12T12:39:03.000Z</time>
      </trkpt>
      <trkpt lat="43.67872" lon="7.08315">
        <ele>100.40000152588</ele>
        <time>2022-03-12T12:39:04.000Z</time>
      </trkpt>
      <trkpt lat="43.67872" lon="7.08315">
        <ele>101.19999694824</ele>
        <time>2022-03-12T12:39:09.000Z</time>
      </trkpt>
      <trkpt lat="43.67873" lon="7.08315">
        <ele>102.19999694824</ele>
        <time>2022-03-12T12:39:16.000Z</time>
      </trkpt>
      <trkpt lat="43.67873" lon="7.08316">
        <ele>102</ele>
        <time>2022-03-12T12:39:21.000Z</time>
      </trkpt>
      <trkpt lat="43.67873" lon="7.08316">
        <ele>101.59999847412</ele>
        <time>2022-03-12T12:39:29.000Z</time>
      </trkpt>
      <trkpt lat="43.67873" lon="7.08318">
        <ele>101.40000152588</ele>
        <time>2022-03-12T12:39:41.000Z</time>
      </trkpt>
      <trkpt lat="43.67874" lon="7.0832">
        <ele>101.40000152588</ele>
        <time>2022-03-12T12:39:43.000Z</time>
      </trkpt>
      <trkpt lat="43.67876" lon="7.08325">
        <ele>101.40000152588</ele>
        <time>2022-03-12T12:39:45.000Z</time>
      </trkpt>
      <trkpt lat="43.67879" lon="7.08339">
        <ele>101</ele>
        <time>2022-03-12T12:39:48.000Z</time>
      </trkpt>
      <trkpt lat="43.6788" lon="7.08345">
        <ele>100.59999847412</ele>
        <time>2022-03-12T12:39:49.000Z</time>
      </trkpt>
      <trkpt lat="43.67882" lon="7.08357">
        <ele>99.599998474121</ele>
        <time>2022-03-12T12:39:51.000Z</time>
      </trkpt>
      <trkpt lat="43.67882" lon="7.08361">
        <ele>98.800003051758</ele>
        <time>2022-03-12T12:39:52.000Z</time>
      </trkpt>
      <trkpt lat="43.67883" lon="7.08364">
        <ele>98.400001525879</ele>
        <time>2022-03-12T12:39:53.000Z</time>
      </trkpt>
      <trkpt lat="43.67887" lon="7.08369">
        <ele>97.800003051758</ele>
        <time>2022-03-12T12:39:55.000Z</time>
      </trkpt>
      <trkpt lat="43.67891" lon="7.08381">
        <ele>97.599998474121</ele>
        <time>2022-03-12T12:39:58.000Z</time>
      </trkpt>
      <trkpt lat="43.67896" lon="7.08389">
        <ele>97.400001525879</ele>
        <time>2022-03-12T12:40:00.000Z</time>
      </trkpt>
      <trkpt lat="43.67898" lon="7.084">
        <ele>96.599998474121</ele>
        <time>2022-03-12T12:40:02.000Z</time>
      </trkpt>
      <trkpt lat="43.67897" lon="7.0841">
        <ele>96.199996948242</ele>
        <time>2022-03-12T12:40:04.000Z</time>
      </trkpt>
      <trkpt lat="43.67899" lon="7.08424">
        <ele>96</ele>
        <time>2022-03-12T12:40:07.000Z</time>
      </trkpt>
      <trkpt lat="43.67904" lon="7.08435">
        <ele>95.800003051758</ele>
        <time>2022-03-12T12:40:10.000Z</time>
      </trkpt>
      <trkpt lat="43.67904" lon="7.0844">
        <ele>95.800003051758</ele>
        <time>2022-03-12T12:40:11.000Z</time>
      </trkpt>
      <trkpt lat="43.67904" lon="7.08446">
        <ele>95.800003051758</ele>
        <time>2022-03-12T12:40:13.000Z</time>
      </trkpt>
      <trkpt lat="43.67913" lon="7.08449">
        <ele>96</ele>
        <time>2022-03-12T12:40:16.000Z</time>
      </trkpt>
      <trkpt lat="43.67915" lon="7.08449">
        <ele>96</ele>
        <time>2022-03-12T12:40:17.000Z</time>
      </trkpt>
      <trkpt lat="43.67923" lon="7.08449">
        <ele>96.400001525879</ele>
        <time>2022-03-12T12:40:20.000Z</time>
      </trkpt>
      <trkpt lat="43.67933" lon="7.08449">
        <ele>96.800003051758</ele>
        <time>2022-03-12T12:40:24.000Z</time>
      </trkpt>
      <trkpt lat="43.67939" lon="7.08451">
        <ele>97.199996948242</ele>
        <time>2022-03-12T12:40:26.000Z</time>
      </trkpt>
      <trkpt lat="43.67948" lon="7.08453">
        <ele>98</ele>
        <time>2022-03-12T12:40:29.000Z</time>
      </trkpt>
      <trkpt lat="43.67953" lon="7.08455">
        <ele>98.400001525879</ele>
        <time>2022-03-12T12:40:31.000Z</time>
      </trkpt>
      <trkpt lat="43.67958" lon="7.08458">
        <ele>98.599998474121</ele>
        <time>2022-03-12T12:40:33.000Z</time>
      </trkpt>
      <trkpt lat="43.67959" lon="7.0846">
        <ele>98.599998474121</ele>
        <time>2022-03-12T12:40:34.000Z</time>
      </trkpt>
      <trkpt lat="43.67961" lon="7.08469">
        <ele>98.400001525879</ele>
        <time>2022-03-12T12:40:37.000Z</time>
      </trkpt>
      <trkpt lat="43.67963" lon="7.08471">
        <ele>98.400001525879</ele>
        <time>2022-03-12T12:40:38.000Z</time>
      </trkpt>
      <trkpt lat="43.67966" lon="7.08479">
        <ele>98.199996948242</ele>
        <time>2022-03-12T12:40:41.000Z</time>
      </trkpt>
      <trkpt lat="43.67974" lon="7.08485">
        <ele>97.400001525879</ele>
        <time>2022-03-12T12:40:45.000Z</time>
      </trkpt>
      <trkpt lat="43.67976" lon="7.08485">
        <ele>97.199996948242</ele>
        <time>2022-03-12T12:40:46.000Z</time>
      </trkpt>
      <trkpt lat="43.67976" lon="7.08485">
        <ele>97.199996948242</ele>
        <time>2022-03-12T12:40:49.000Z</time>
      </trkpt>
      <trkpt lat="43.67977" lon="7.08487">
        <ele>96.599998474121</ele>
        <time>2022-03-12T12:40:57.000Z</time>
      </trkpt>
      <trkpt lat="43.67979" lon="7.0849">
        <ele>97</ele>
        <time>2022-03-12T12:40:59.000Z</time>
      </trkpt>
      <trkpt lat="43.67978" lon="7.08495">
        <ele>97</ele>
        <time>2022-03-12T12:41:03.000Z</time>
      </trkpt>
      <trkpt lat="43.67977" lon="7.08498">
        <ele>96.800003051758</ele>
        <time>2022-03-12T12:41:07.000Z</time>
      </trkpt>
      <trkpt lat="43.67976" lon="7.085">
        <ele>96.800003051758</ele>
        <time>2022-03-12T12:41:09.000Z</time>
      </trkpt>
      <trkpt lat="43.67967" lon="7.08504">
        <ele>97.199996948242</ele>
        <time>2022-03-12T12:41:14.000Z</time>
      </trkpt>
      <trkpt lat="43.67963" lon="7.08508">
        <ele>97</ele>
        <time>2022-03-12T12:41:16.000Z</time>
      </trkpt>
      <trkpt lat="43.67961" lon="7.08513">
        <ele>97</ele>
        <time>2022-03-12T12:41:18.000Z</time>
      </trkpt>
      <trkpt lat="43.67953" lon="7.08523">
        <ele>96.199996948242</ele>
        <time>2022-03-12T12:41:22.000Z</time>
      </trkpt>
      <trkpt lat="43.67952" lon="7.08526">
        <ele>95.800003051758</ele>
        <time>2022-03-12T12:41:23.000Z</time>
      </trkpt>
      <trkpt lat="43.67949" lon="7.08531">
        <ele>95</ele>
        <time>2022-03-12T12:41:25.000Z</time>
      </trkpt>
      <trkpt lat="43.67942" lon="7.08535">
        <ele>94</ele>
        <time>2022-03-12T12:41:28.000Z</time>
      </trkpt>
      <trkpt lat="43.67939" lon="7.08535">
        <ele>93.800003051758</ele>
        <time>2022-03-12T12:41:29.000Z</time>
      </trkpt>
      <trkpt lat="43.67933" lon="7.08532">
        <ele>93.800003051758</ele>
        <time>2022-03-12T12:41:31.000Z</time>
      </trkpt>
      <trkpt lat="43.6792" lon="7.08525">
        <ele>93.599998474121</ele>
        <time>2022-03-12T12:41:36.000Z</time>
      </trkpt>
      <trkpt lat="43.67917" lon="7.08524">
        <ele>93.800003051758</ele>
        <time>2022-03-12T12:41:37.000Z</time>
      </trkpt>
      <trkpt lat="43.67908" lon="7.08521">
        <ele>94.400001525879</ele>
        <time>2022-03-12T12:41:40.000Z</time>
      </trkpt>
      <trkpt lat="43.67905" lon="7.08519">
        <ele>94.400001525879</ele>
        <time>2022-03-12T12:41:41.000Z</time>
      </trkpt>
      <trkpt lat="43.67902" lon="7.08518">
        <ele>94.400001525879</ele>
        <time>2022-03-12T12:41:42.000Z</time>
      </trkpt>
      <trkpt lat="43.67894" lon="7.08517">
        <ele>94.199996948242</ele>
        <time>2022-03-12T12:41:45.000Z</time>
      </trkpt>
      <trkpt lat="43.67891" lon="7.08517">
        <ele>94.400001525879</ele>
        <time>2022-03-12T12:41:46.000Z</time>
      </trkpt>
      <trkpt lat="43.67881" lon="7.08519">
        <ele>94.599998474121</ele>
        <time>2022-03-12T12:41:50.000Z</time>
      </trkpt>
      <trkpt lat="43.67879" lon="7.0852">
        <ele>94.599998474121</ele>
        <time>2022-03-12T12:41:51.000Z</time>
      </trkpt>
      <trkpt lat="43.67871" lon="7.08522">
        <ele>94</ele>
        <time>2022-03-12T12:41:54.000Z</time>
      </trkpt>
      <trkpt lat="43.67855" lon="7.0852">
        <ele>92.199996948242</ele>
        <time>2022-03-12T12:41:58.000Z</time>
      </trkpt>
      <trkpt lat="43.6785" lon="7.0852">
        <ele>91.599998474121</ele>
        <time>2022-03-12T12:41:59.000Z</time>
      </trkpt>
      <trkpt lat="43.67842" lon="7.08518">
        <ele>91</ele>
        <time>2022-03-12T12:42:01.000Z</time>
      </trkpt>
      <trkpt lat="43.67838" lon="7.08517">
        <ele>90.599998474121</ele>
        <time>2022-03-12T12:42:02.000Z</time>
      </trkpt>
      <trkpt lat="43.67825" lon="7.08514">
        <ele>90.199996948242</ele>
        <time>2022-03-12T12:42:06.000Z</time>
      </trkpt>
      <trkpt lat="43.67819" lon="7.08516">
        <ele>90.199996948242</ele>
        <time>2022-03-12T12:42:08.000Z</time>
      </trkpt>
      <trkpt lat="43.67812" lon="7.08517">
        <ele>90.800003051758</ele>
        <time>2022-03-12T12:42:11.000Z</time>
      </trkpt>
      <trkpt lat="43.678" lon="7.08518">
        <ele>92</ele>
        <time>2022-03-12T12:42:16.000Z</time>
      </trkpt>
      <trkpt lat="43.6779" lon="7.08521">
        <ele>93</ele>
        <time>2022-03-12T12:42:20.000Z</time>
      </trkpt>
      <trkpt lat="43.6778" lon="7.08526">
        <ele>93.599998474121</ele>
        <time>2022-03-12T12:42:24.000Z</time>
      </trkpt>
      <trkpt lat="43.67765" lon="7.08538">
        <ele>93.400001525879</ele>
        <time>2022-03-12T12:42:29.000Z</time>
      </trkpt>
      <trkpt lat="43.67753" lon="7.08551">
        <ele>93.199996948242</ele>
        <time>2022-03-12T12:42:34.000Z</time>
      </trkpt>
      <trkpt lat="43.67742" lon="7.08558">
        <ele>94.400001525879</ele>
        <time>2022-03-12T12:42:38.000Z</time>
      </trkpt>
      <trkpt lat="43.67734" lon="7.08563">
        <ele>95.599998474121</ele>
        <time>2022-03-12T12:42:41.000Z</time>
      </trkpt>
      <trkpt lat="43.67731" lon="7.08566">
        <ele>95.599998474121</ele>
        <time>2022-03-12T12:42:42.000Z</time>
      </trkpt>
      <trkpt lat="43.67719" lon="7.08576">
        <ele>95.599998474121</ele>
        <time>2022-03-12T12:42:47.000Z</time>
      </trkpt>
      <trkpt lat="43.67706" lon="7.08581">
        <ele>96.400001525879</ele>
        <time>2022-03-12T12:42:51.000Z</time>
      </trkpt>
      <trkpt lat="43.67693" lon="7.0858">
        <ele>96.400001525879</ele>
        <time>2022-03-12T12:42:55.000Z</time>
      </trkpt>
      <trkpt lat="43.6769" lon="7.08582">
        <ele>96.599998474121</ele>
        <time>2022-03-12T12:42:56.000Z</time>
      </trkpt>
      <trkpt lat="43.6768" lon="7.08587">
        <ele>98</ele>
        <time>2022-03-12T12:42:59.000Z</time>
      </trkpt>
      <trkpt lat="43.67664" lon="7.08589">
        <ele>99</ele>
        <time>2022-03-12T12:43:05.000Z</time>
      </trkpt>
      <trkpt lat="43.67662" lon="7.08589">
        <ele>99</ele>
        <time>2022-03-12T12:43:06.000Z</time>
      </trkpt>
      <trkpt lat="43.6766" lon="7.0859">
        <ele>99.599998474121</ele>
        <time>2022-03-12T12:43:09.000Z</time>
      </trkpt>
      <trkpt lat="43.6766" lon="7.0859">
        <ele>99.800003051758</ele>
        <time>2022-03-12T12:43:10.000Z</time>
      </trkpt>
      <trkpt lat="43.67658" lon="7.08591">
        <ele>100.19999694824</ele>
        <time>2022-03-12T12:43:12.000Z</time>
      </trkpt>
      <trkpt lat="43.67657" lon="7.08592">
        <ele>100.80000305176</ele>
        <time>2022-03-12T12:43:16.000Z</time>
      </trkpt>
      <trkpt lat="43.67657" lon="7.08593">
        <ele>100.19999694824</ele>
        <time>2022-03-12T12:43:22.000Z</time>
      </trkpt>
      <trkpt lat="43.67657" lon="7.08595">
        <ele>100.19999694824</ele>
        <time>2022-03-12T12:43:23.000Z</time>
      </trkpt>
      <trkpt lat="43.67655" lon="7.08605">
        <ele>99.199996948242</ele>
        <time>2022-03-12T12:43:27.000Z</time>
      </trkpt>
      <trkpt lat="43.67656" lon="7.08607">
        <ele>98.800003051758</ele>
        <time>2022-03-12T12:43:28.000Z</time>
      </trkpt>
      <trkpt lat="43.67655" lon="7.08612">
        <ele>97.800003051758</ele>
        <time>2022-03-12T12:43:30.000Z</time>
      </trkpt>
      <trkpt lat="43.67653" lon="7.08614">
        <ele>97.199996948242</ele>
        <time>2022-03-12T12:43:32.000Z</time>
      </trkpt>
      <trkpt lat="43.6765" lon="7.08616">
        <ele>98.199996948242</ele>
        <time>2022-03-12T12:43:36.000Z</time>
      </trkpt>
      <trkpt lat="43.67646" lon="7.08617">
        <ele>98.800003051758</ele>
        <time>2022-03-12T12:43:39.000Z</time>
      </trkpt>
      <trkpt lat="43.67642" lon="7.08619">
        <ele>99</ele>
        <time>2022-03-12T12:43:41.000Z</time>
      </trkpt>
      <trkpt lat="43.6764" lon="7.0862">
        <ele>99.199996948242</ele>
        <time>2022-03-12T12:43:42.000Z</time>
      </trkpt>
      <trkpt lat="43.67634" lon="7.08622">
        <ele>99.800003051758</ele>
        <time>2022-03-12T12:43:45.000Z</time>
      </trkpt>
      <trkpt lat="43.67632" lon="7.08622">
        <ele>100</ele>
        <time>2022-03-12T12:43:46.000Z</time>
      </trkpt>
      <trkpt lat="43.67626" lon="7.08616">
        <ele>100.40000152588</ele>
        <time>2022-03-12T12:43:49.000Z</time>
      </trkpt>
      <trkpt lat="43.67619" lon="7.08612">
        <ele>101.19999694824</ele>
        <time>2022-03-12T12:43:53.000Z</time>
      </trkpt>
      <trkpt lat="43.67612" lon="7.08609">
        <ele>102</ele>
        <time>2022-03-12T12:43:56.000Z</time>
      </trkpt>
      <trkpt lat="43.6761" lon="7.08608">
        <ele>102.19999694824</ele>
        <time>2022-03-12T12:43:57.000Z</time>
      </trkpt>
      <trkpt lat="43.67606" lon="7.08605">
        <ele>102.19999694824</ele>
        <time>2022-03-12T12:43:59.000Z</time>
      </trkpt>
      <trkpt lat="43.67601" lon="7.08604">
        <ele>102.59999847412</ele>
        <time>2022-03-12T12:44:02.000Z</time>
      </trkpt>
      <trkpt lat="43.67598" lon="7.08602">
        <ele>103.19999694824</ele>
        <time>2022-03-12T12:44:07.000Z</time>
      </trkpt>
      <trkpt lat="43.67598" lon="7.08602">
        <ele>103.40000152588</ele>
        <time>2022-03-12T12:44:08.000Z</time>
      </trkpt>
      <trkpt lat="43.67593" lon="7.08602">
        <ele>103.80000305176</ele>
        <time>2022-03-12T12:44:17.000Z</time>
      </trkpt>
      <trkpt lat="43.67591" lon="7.08602">
        <ele>103.80000305176</ele>
        <time>2022-03-12T12:44:18.000Z</time>
      </trkpt>
      <trkpt lat="43.67586" lon="7.08602">
        <ele>103.40000152588</ele>
        <time>2022-03-12T12:44:22.000Z</time>
      </trkpt>
      <trkpt lat="43.67583" lon="7.08605">
        <ele>103.19999694824</ele>
        <time>2022-03-12T12:44:24.000Z</time>
      </trkpt>
      <trkpt lat="43.67574" lon="7.08606">
        <ele>104</ele>
        <time>2022-03-12T12:44:28.000Z</time>
      </trkpt>
      <trkpt lat="43.67572" lon="7.08607">
        <ele>104.40000152588</ele>
        <time>2022-03-12T12:44:29.000Z</time>
      </trkpt>
      <trkpt lat="43.67565" lon="7.08609">
        <ele>105.19999694824</ele>
        <time>2022-03-12T12:44:32.000Z</time>
      </trkpt>
      <trkpt lat="43.67563" lon="7.08609">
        <ele>105.59999847412</ele>
        <time>2022-03-12T12:44:33.000Z</time>
      </trkpt>
      <trkpt lat="43.67558" lon="7.08611">
        <ele>107</ele>
        <time>2022-03-12T12:44:36.000Z</time>
      </trkpt>
      <trkpt lat="43.67555" lon="7.08611">
        <ele>108</ele>
        <time>2022-03-12T12:44:38.000Z</time>
      </trkpt>
      <trkpt lat="43.67551" lon="7.08612">
        <ele>108.40000152588</ele>
        <time>2022-03-12T12:44:41.000Z</time>
      </trkpt>
      <trkpt lat="43.67551" lon="7.08612">
        <ele>108.19999694824</ele>
        <time>2022-03-12T12:44:42.000Z</time>
      </trkpt>
      <trkpt lat="43.67549" lon="7.08614">
        <ele>107.80000305176</ele>
        <time>2022-03-12T12:44:44.000Z</time>
      </trkpt>
      <trkpt lat="43.67545" lon="7.0862">
        <ele>107.59999847412</ele>
        <time>2022-03-12T12:44:48.000Z</time>
      </trkpt>
      <trkpt lat="43.67545" lon="7.08623">
        <ele>107.59999847412</ele>
        <time>2022-03-12T12:44:49.000Z</time>
      </trkpt>
      <trkpt lat="43.67545" lon="7.08623">
        <ele>108</ele>
        <time>2022-03-12T12:44:51.000Z</time>
      </trkpt>
      <trkpt lat="43.67543" lon="7.08627">
        <ele>108.40000152588</ele>
        <time>2022-03-12T12:44:58.000Z</time>
      </trkpt>
      <trkpt lat="43.67542" lon="7.08628">
        <ele>108.59999847412</ele>
        <time>2022-03-12T12:44:59.000Z</time>
      </trkpt>
      <trkpt lat="43.67542" lon="7.08628">
        <ele>109</ele>
        <time>2022-03-12T12:45:00.000Z</time>
      </trkpt>
      <trkpt lat="43.6754" lon="7.08631">
        <ele>109.80000305176</ele>
        <time>2022-03-12T12:45:06.000Z</time>
      </trkpt>
      <trkpt lat="43.67539" lon="7.08638">
        <ele>110.19999694824</ele>
        <time>2022-03-12T12:45:09.000Z</time>
      </trkpt>
      <trkpt lat="43.6754" lon="7.08643">
        <ele>111.19999694824</ele>
        <time>2022-03-12T12:45:11.000Z</time>
      </trkpt>
      <trkpt lat="43.67543" lon="7.08647">
        <ele>112.59999847412</ele>
        <time>2022-03-12T12:45:13.000Z</time>
      </trkpt>
      <trkpt lat="43.67547" lon="7.08648">
        <ele>113.80000305176</ele>
        <time>2022-03-12T12:45:15.000Z</time>
      </trkpt>
      <trkpt lat="43.67549" lon="7.08647">
        <ele>114</ele>
        <time>2022-03-12T12:45:16.000Z</time>
      </trkpt>
      <trkpt lat="43.6755" lon="7.08648">
        <ele>114.40000152588</ele>
        <time>2022-03-12T12:45:17.000Z</time>
      </trkpt>
      <trkpt lat="43.67552" lon="7.0865">
        <ele>114.80000305176</ele>
        <time>2022-03-12T12:45:18.000Z</time>
      </trkpt>
      <trkpt lat="43.67553" lon="7.08655">
        <ele>115.40000152588</ele>
        <time>2022-03-12T12:45:20.000Z</time>
      </trkpt>
      <trkpt lat="43.67554" lon="7.08657">
        <ele>115.59999847412</ele>
        <time>2022-03-12T12:45:21.000Z</time>
      </trkpt>
      <trkpt lat="43.67559" lon="7.08661">
        <ele>115.80000305176</ele>
        <time>2022-03-12T12:45:24.000Z</time>
      </trkpt>
      <trkpt lat="43.67562" lon="7.08672">
        <ele>116.19999694824</ele>
        <time>2022-03-12T12:45:28.000Z</time>
      </trkpt>
      <trkpt lat="43.67562" lon="7.08674">
        <ele>116.40000152588</ele>
        <time>2022-03-12T12:45:29.000Z</time>
      </trkpt>
      <trkpt lat="43.67561" lon="7.08682">
        <ele>115.59999847412</ele>
        <time>2022-03-12T12:45:33.000Z</time>
      </trkpt>
      <trkpt lat="43.67561" lon="7.08697">
        <ele>115.59999847412</ele>
        <time>2022-03-12T12:45:38.000Z</time>
      </trkpt>
      <trkpt lat="43.67562" lon="7.087">
        <ele>115.59999847412</ele>
        <time>2022-03-12T12:45:39.000Z</time>
      </trkpt>
      <trkpt lat="43.6756" lon="7.08711">
        <ele>115.19999694824</ele>
        <time>2022-03-12T12:45:42.000Z</time>
      </trkpt>
      <trkpt lat="43.67559" lon="7.08714">
        <ele>115</ele>
        <time>2022-03-12T12:45:43.000Z</time>
      </trkpt>
      <trkpt lat="43.67551" lon="7.08719">
        <ele>115</ele>
        <time>2022-03-12T12:45:47.000Z</time>
      </trkpt>
      <trkpt lat="43.67541" lon="7.0872">
        <ele>115.40000152588</ele>
        <time>2022-03-12T12:45:51.000Z</time>
      </trkpt>
      <trkpt lat="43.67538" lon="7.08724">
        <ele>115.59999847412</ele>
        <time>2022-03-12T12:45:53.000Z</time>
      </trkpt>
      <trkpt lat="43.67537" lon="7.08729">
        <ele>116</ele>
        <time>2022-03-12T12:45:55.000Z</time>
      </trkpt>
      <trkpt lat="43.67535" lon="7.08735">
        <ele>116.40000152588</ele>
        <time>2022-03-12T12:45:59.000Z</time>
      </trkpt>
      <trkpt lat="43.67535" lon="7.08736">
        <ele>117</ele>
        <time>2022-03-12T12:46:01.000Z</time>
      </trkpt>
      <trkpt lat="43.67535" lon="7.08738">
        <ele>117.19999694824</ele>
        <time>2022-03-12T12:46:02.000Z</time>
      </trkpt>
      <trkpt lat="43.67535" lon="7.08744">
        <ele>117.40000152588</ele>
        <time>2022-03-12T12:46:04.000Z</time>
      </trkpt>
      <trkpt lat="43.67534" lon="7.08756">
        <ele>117.40000152588</ele>
        <time>2022-03-12T12:46:08.000Z</time>
      </trkpt>
      <trkpt lat="43.67534" lon="7.08765">
        <ele>118.19999694824</ele>
        <time>2022-03-12T12:46:11.000Z</time>
      </trkpt>
      <trkpt lat="43.67533" lon="7.08767">
        <ele>118.19999694824</ele>
        <time>2022-03-12T12:46:12.000Z</time>
      </trkpt>
      <trkpt lat="43.67527" lon="7.08768">
        <ele>119.19999694824</ele>
        <time>2022-03-12T12:46:15.000Z</time>
      </trkpt>
      <trkpt lat="43.67521" lon="7.08768">
        <ele>119.80000305176</ele>
        <time>2022-03-12T12:46:17.000Z</time>
      </trkpt>
      <trkpt lat="43.67518" lon="7.08768">
        <ele>119.80000305176</ele>
        <time>2022-03-12T12:46:18.000Z</time>
      </trkpt>
      <trkpt lat="43.67505" lon="7.08769">
        <ele>120</ele>
        <time>2022-03-12T12:46:22.000Z</time>
      </trkpt>
      <trkpt lat="43.67495" lon="7.08775">
        <ele>119.80000305176</ele>
        <time>2022-03-12T12:46:27.000Z</time>
      </trkpt>
      <trkpt lat="43.67491" lon="7.08779">
        <ele>120.19999694824</ele>
        <time>2022-03-12T12:46:31.000Z</time>
      </trkpt>
      <trkpt lat="43.67493" lon="7.08781">
        <ele>120.40000152588</ele>
        <time>2022-03-12T12:46:32.000Z</time>
      </trkpt>
      <trkpt lat="43.67495" lon="7.08786">
        <ele>120.59999847412</ele>
        <time>2022-03-12T12:46:34.000Z</time>
      </trkpt>
      <trkpt lat="43.67487" lon="7.08792">
        <ele>121.40000152588</ele>
        <time>2022-03-12T12:46:38.000Z</time>
      </trkpt>
      <trkpt lat="43.67485" lon="7.08792">
        <ele>121.59999847412</ele>
        <time>2022-03-12T12:46:39.000Z</time>
      </trkpt>
      <trkpt lat="43.67481" lon="7.08793">
        <ele>121.40000152588</ele>
        <time>2022-03-12T12:46:41.000Z</time>
      </trkpt>
      <trkpt lat="43.6748" lon="7.08795">
        <ele>121.40000152588</ele>
        <time>2022-03-12T12:46:42.000Z</time>
      </trkpt>
      <trkpt lat="43.67474" lon="7.08807">
        <ele>121.80000305176</ele>
        <time>2022-03-12T12:46:46.000Z</time>
      </trkpt>
      <trkpt lat="43.67469" lon="7.08816">
        <ele>122.40000152588</ele>
        <time>2022-03-12T12:46:49.000Z</time>
      </trkpt>
      <trkpt lat="43.67467" lon="7.08821">
        <ele>122.80000305176</ele>
        <time>2022-03-12T12:46:51.000Z</time>
      </trkpt>
      <trkpt lat="43.67467" lon="7.08831">
        <ele>123.40000152588</ele>
        <time>2022-03-12T12:46:54.000Z</time>
      </trkpt>
      <trkpt lat="43.67465" lon="7.08836">
        <ele>124</ele>
        <time>2022-03-12T12:46:56.000Z</time>
      </trkpt>
      <trkpt lat="43.67463" lon="7.08848">
        <ele>124.40000152588</ele>
        <time>2022-03-12T12:47:00.000Z</time>
      </trkpt>
      <trkpt lat="43.67461" lon="7.08863">
        <ele>124.19999694824</ele>
        <time>2022-03-12T12:47:04.000Z</time>
      </trkpt>
      <trkpt lat="43.6746" lon="7.08872">
        <ele>124.59999847412</ele>
        <time>2022-03-12T12:47:06.000Z</time>
      </trkpt>
      <trkpt lat="43.67459" lon="7.08878">
        <ele>125.59999847412</ele>
        <time>2022-03-12T12:47:08.000Z</time>
      </trkpt>
      <trkpt lat="43.67457" lon="7.08882">
        <ele>125.80000305176</ele>
        <time>2022-03-12T12:47:09.000Z</time>
      </trkpt>
      <trkpt lat="43.67455" lon="7.08892">
        <ele>126.40000152588</ele>
        <time>2022-03-12T12:47:12.000Z</time>
      </trkpt>
      <trkpt lat="43.67456" lon="7.08897">
        <ele>126.59999847412</ele>
        <time>2022-03-12T12:47:13.000Z</time>
      </trkpt>
      <trkpt lat="43.67454" lon="7.08914">
        <ele>126.80000305176</ele>
        <time>2022-03-12T12:47:17.000Z</time>
      </trkpt>
      <trkpt lat="43.67454" lon="7.08919">
        <ele>126.80000305176</ele>
        <time>2022-03-12T12:47:18.000Z</time>
      </trkpt>
      <trkpt lat="43.67452" lon="7.08932">
        <ele>127</ele>
        <time>2022-03-12T12:47:21.000Z</time>
      </trkpt>
      <trkpt lat="43.67447" lon="7.08952">
        <ele>127</ele>
        <time>2022-03-12T12:47:25.000Z</time>
      </trkpt>
      <trkpt lat="43.67445" lon="7.08961">
        <ele>126.80000305176</ele>
        <time>2022-03-12T12:47:27.000Z</time>
      </trkpt>
      <trkpt lat="43.67444" lon="7.08967">
        <ele>126.59999847412</ele>
        <time>2022-03-12T12:47:28.000Z</time>
      </trkpt>
      <trkpt lat="43.67438" lon="7.08982">
        <ele>126.40000152588</ele>
        <time>2022-03-12T12:47:31.000Z</time>
      </trkpt>
      <trkpt lat="43.67435" lon="7.08983">
        <ele>126.40000152588</ele>
        <time>2022-03-12T12:47:32.000Z</time>
      </trkpt>
      <trkpt lat="43.67422" lon="7.08979">
        <ele>126.19999694824</ele>
        <time>2022-03-12T12:47:36.000Z</time>
      </trkpt>
      <trkpt lat="43.67415" lon="7.08978">
        <ele>126.40000152588</ele>
        <time>2022-03-12T12:47:38.000Z</time>
      </trkpt>
      <trkpt lat="43.67403" lon="7.08972">
        <ele>126.59999847412</ele>
        <time>2022-03-12T12:47:42.000Z</time>
      </trkpt>
      <trkpt lat="43.67394" lon="7.08965">
        <ele>127.59999847412</ele>
        <time>2022-03-12T12:47:47.000Z</time>
      </trkpt>
      <trkpt lat="43.67394" lon="7.08963">
        <ele>127.80000305176</ele>
        <time>2022-03-12T12:47:48.000Z</time>
      </trkpt>
      <trkpt lat="43.67394" lon="7.08959">
        <ele>128.19999694824</ele>
        <time>2022-03-12T12:47:52.000Z</time>
      </trkpt>
      <trkpt lat="43.67395" lon="7.08951">
        <ele>128.19999694824</ele>
        <time>2022-03-12T12:47:56.000Z</time>
      </trkpt>
      <trkpt lat="43.67394" lon="7.08948">
        <ele>128.19999694824</ele>
        <time>2022-03-12T12:47:59.000Z</time>
      </trkpt>
      <trkpt lat="43.67394" lon="7.08946">
        <ele>128.60000610352</ele>
        <time>2022-03-12T12:48:01.000Z</time>
      </trkpt>
      <trkpt lat="43.67395" lon="7.08944">
        <ele>129</ele>
        <time>2022-03-12T12:48:02.000Z</time>
      </trkpt>
      <trkpt lat="43.67398" lon="7.08939">
        <ele>129.39999389648</ele>
        <time>2022-03-12T12:48:04.000Z</time>
      </trkpt>
      <trkpt lat="43.67399" lon="7.08937">
        <ele>129.39999389648</ele>
        <time>2022-03-12T12:48:05.000Z</time>
      </trkpt>
      <trkpt lat="43.67409" lon="7.08922">
        <ele>129.19999694824</ele>
        <time>2022-03-12T12:48:11.000Z</time>
      </trkpt>
      <trkpt lat="43.67419" lon="7.08909">
        <ele>128.60000610352</ele>
        <time>2022-03-12T12:48:15.000Z</time>
      </trkpt>
      <trkpt lat="43.67432" lon="7.08894">
        <ele>127.80000305176</ele>
        <time>2022-03-12T12:48:19.000Z</time>
      </trkpt>
      <trkpt lat="43.67433" lon="7.0889">
        <ele>127.40000152588</ele>
        <time>2022-03-12T12:48:20.000Z</time>
      </trkpt>
      <trkpt lat="43.67431" lon="7.08882">
        <ele>126.80000305176</ele>
        <time>2022-03-12T12:48:23.000Z</time>
      </trkpt>
      <trkpt lat="43.67429" lon="7.08881">
        <ele>126.59999847412</ele>
        <time>2022-03-12T12:48:24.000Z</time>
      </trkpt>
      <trkpt lat="43.67429" lon="7.08874">
        <ele>126.59999847412</ele>
        <time>2022-03-12T12:48:27.000Z</time>
      </trkpt>
      <trkpt lat="43.67424" lon="7.08861">
        <ele>126.40000152588</ele>
        <time>2022-03-12T12:48:31.000Z</time>
      </trkpt>
      <trkpt lat="43.67419" lon="7.08846">
        <ele>126.19999694824</ele>
        <time>2022-03-12T12:48:35.000Z</time>
      </trkpt>
      <trkpt lat="43.67424" lon="7.0883">
        <ele>126.19999694824</ele>
        <time>2022-03-12T12:48:39.000Z</time>
      </trkpt>
      <trkpt lat="43.67428" lon="7.08817">
        <ele>125.40000152588</ele>
        <time>2022-03-12T12:48:42.000Z</time>
      </trkpt>
      <trkpt lat="43.6743" lon="7.08814">
        <ele>124.80000305176</ele>
        <time>2022-03-12T12:48:43.000Z</time>
      </trkpt>
      <trkpt lat="43.67433" lon="7.08812">
        <ele>124.40000152588</ele>
        <time>2022-03-12T12:48:44.000Z</time>
      </trkpt>
      <trkpt lat="43.67443" lon="7.08809">
        <ele>123.19999694824</ele>
        <time>2022-03-12T12:48:47.000Z</time>
      </trkpt>
      <trkpt lat="43.67449" lon="7.08805">
        <ele>122.40000152588</ele>
        <time>2022-03-12T12:48:49.000Z</time>
      </trkpt>
      <trkpt lat="43.67449" lon="7.08802">
        <ele>122.19999694824</ele>
        <time>2022-03-12T12:48:50.000Z</time>
      </trkpt>
      <trkpt lat="43.67451" lon="7.08799">
        <ele>122</ele>
        <time>2022-03-12T12:48:51.000Z</time>
      </trkpt>
      <trkpt lat="43.67453" lon="7.08794">
        <ele>122.19999694824</ele>
        <time>2022-03-12T12:48:55.000Z</time>
      </trkpt>
      <trkpt lat="43.67458" lon="7.08785">
        <ele>121.59999847412</ele>
        <time>2022-03-12T12:48:59.000Z</time>
      </trkpt>
      <trkpt lat="43.6746" lon="7.08774">
        <ele>121</ele>
        <time>2022-03-12T12:49:02.000Z</time>
      </trkpt>
      <trkpt lat="43.67461" lon="7.0877">
        <ele>121</ele>
        <time>2022-03-12T12:49:03.000Z</time>
      </trkpt>
      <trkpt lat="43.67463" lon="7.08752">
        <ele>120.19999694824</ele>
        <time>2022-03-12T12:49:07.000Z</time>
      </trkpt>
      <trkpt lat="43.67463" lon="7.08748">
        <ele>120</ele>
        <time>2022-03-12T12:49:08.000Z</time>
      </trkpt>
      <trkpt lat="43.67464" lon="7.08744">
        <ele>119.80000305176</ele>
        <time>2022-03-12T12:49:09.000Z</time>
      </trkpt>
      <trkpt lat="43.67466" lon="7.08738">
        <ele>119.19999694824</ele>
        <time>2022-03-12T12:49:11.000Z</time>
      </trkpt>
      <trkpt lat="43.67467" lon="7.08735">
        <ele>118.80000305176</ele>
        <time>2022-03-12T12:49:12.000Z</time>
      </trkpt>
      <trkpt lat="43.67471" lon="7.08728">
        <ele>118</ele>
        <time>2022-03-12T12:49:15.000Z</time>
      </trkpt>
      <trkpt lat="43.67473" lon="7.08726">
        <ele>117.59999847412</ele>
        <time>2022-03-12T12:49:16.000Z</time>
      </trkpt>
      <trkpt lat="43.67475" lon="7.08726">
        <ele>117.19999694824</ele>
        <time>2022-03-12T12:49:17.000Z</time>
      </trkpt>
      <trkpt lat="43.67479" lon="7.08725">
        <ele>116.19999694824</ele>
        <time>2022-03-12T12:49:19.000Z</time>
      </trkpt>
      <trkpt lat="43.67483" lon="7.08717">
        <ele>115.19999694824</ele>
        <time>2022-03-12T12:49:22.000Z</time>
      </trkpt>
      <trkpt lat="43.67485" lon="7.08714">
        <ele>114.80000305176</ele>
        <time>2022-03-12T12:49:23.000Z</time>
      </trkpt>
      <trkpt lat="43.67484" lon="7.08708">
        <ele>113.80000305176</ele>
        <time>2022-03-12T12:49:25.000Z</time>
      </trkpt>
      <trkpt lat="43.67483" lon="7.08703">
        <ele>113.40000152588</ele>
        <time>2022-03-12T12:49:26.000Z</time>
      </trkpt>
      <trkpt lat="43.67482" lon="7.087">
        <ele>112.59999847412</ele>
        <time>2022-03-12T12:49:27.000Z</time>
      </trkpt>
      <trkpt lat="43.67483" lon="7.08698">
        <ele>111.59999847412</ele>
        <time>2022-03-12T12:49:29.000Z</time>
      </trkpt>
      <trkpt lat="43.67482" lon="7.08698">
        <ele>111.40000152588</ele>
        <time>2022-03-12T12:49:30.000Z</time>
      </trkpt>
      <trkpt lat="43.67482" lon="7.08697">
        <ele>110.59999847412</ele>
        <time>2022-03-12T12:49:33.000Z</time>
      </trkpt>
      <trkpt lat="43.67481" lon="7.08694">
        <ele>110.40000152588</ele>
        <time>2022-03-12T12:49:38.000Z</time>
      </trkpt>
      <trkpt lat="43.67482" lon="7.0869">
        <ele>110.40000152588</ele>
        <time>2022-03-12T12:49:43.000Z</time>
      </trkpt>
      <trkpt lat="43.67482" lon="7.08686">
        <ele>110.40000152588</ele>
        <time>2022-03-12T12:49:53.000Z</time>
      </trkpt>
      <trkpt lat="43.67483" lon="7.08683">
        <ele>109.80000305176</ele>
        <time>2022-03-12T12:49:59.000Z</time>
      </trkpt>
      <trkpt lat="43.67483" lon="7.08681">
        <ele>110.40000152588</ele>
        <time>2022-03-12T12:50:08.000Z</time>
      </trkpt>
      <trkpt lat="43.67482" lon="7.08679">
        <ele>110.80000305176</ele>
        <time>2022-03-12T12:50:15.000Z</time>
      </trkpt>
      <trkpt lat="43.67482" lon="7.08679">
        <ele>111.19999694824</ele>
        <time>2022-03-12T12:50:25.000Z</time>
      </trkpt>
      <trkpt lat="43.67481" lon="7.08679">
        <ele>111.59999847412</ele>
        <time>2022-03-12T12:50:41.000Z</time>
      </trkpt>
      <trkpt lat="43.67481" lon="7.08679">
        <ele>111.80000305176</ele>
        <time>2022-03-12T12:50:45.000Z</time>
      </trkpt>
      <trkpt lat="43.67481" lon="7.08678">
        <ele>112</ele>
        <time>2022-03-12T12:51:01.000Z</time>
      </trkpt>
      <trkpt lat="43.6748" lon="7.08678">
        <ele>112.59999847412</ele>
        <time>2022-03-12T12:51:12.000Z</time>
      </trkpt>
      <trkpt lat="43.67478" lon="7.08678">
        <ele>111.59999847412</ele>
        <time>2022-03-12T12:51:27.000Z</time>
      </trkpt>
      <trkpt lat="43.67478" lon="7.08678">
        <ele>111.40000152588</ele>
        <time>2022-03-12T12:51:31.000Z</time>
      </trkpt>
      <trkpt lat="43.67478" lon="7.08676">
        <ele>112.80000305176</ele>
        <time>2022-03-12T12:51:39.000Z</time>
      </trkpt>
      <trkpt lat="43.67477" lon="7.08676">
        <ele>113</ele>
        <time>2022-03-12T12:51:41.000Z</time>
      </trkpt>
      <trkpt lat="43.67477" lon="7.08676">
        <ele>113</ele>
        <time>2022-03-12T12:51:49.000Z</time>
      </trkpt>
      <trkpt lat="43.67477" lon="7.08676">
        <ele>112.19999694824</ele>
        <time>2022-03-12T12:52:01.000Z</time>
      </trkpt>
      <trkpt lat="43.67477" lon="7.08675">
        <ele>112.19999694824</ele>
        <time>2022-03-12T12:52:06.000Z</time>
      </trkpt>
      <trkpt lat="43.6747" lon="7.0867">
        <ele>112.19999694824</ele>
        <time>2022-03-12T12:52:13.000Z</time>
      </trkpt>
      <trkpt lat="43.67463" lon="7.08667">
        <ele>112.59999847412</ele>
        <time>2022-03-12T12:52:18.000Z</time>
      </trkpt>
      <trkpt lat="43.67456" lon="7.0867">
        <ele>113</ele>
        <time>2022-03-12T12:52:23.000Z</time>
      </trkpt>
      <trkpt lat="43.67449" lon="7.08668">
        <ele>113.19999694824</ele>
        <time>2022-03-12T12:52:27.000Z</time>
      </trkpt>
      <trkpt lat="43.67443" lon="7.0866">
        <ele>113.80000305176</ele>
        <time>2022-03-12T12:52:31.000Z</time>
      </trkpt>
      <trkpt lat="43.67442" lon="7.08658">
        <ele>114</ele>
        <time>2022-03-12T12:52:32.000Z</time>
      </trkpt>
      <trkpt lat="43.6744" lon="7.08654">
        <ele>114</ele>
        <time>2022-03-12T12:52:37.000Z</time>
      </trkpt>
      <trkpt lat="43.6744" lon="7.08654">
        <ele>114.59999847412</ele>
        <time>2022-03-12T12:52:53.000Z</time>
      </trkpt>
      <trkpt lat="43.67437" lon="7.08651">
        <ele>114.80000305176</ele>
        <time>2022-03-12T12:53:02.000Z</time>
      </trkpt>
      <trkpt lat="43.67432" lon="7.08654">
        <ele>114.80000305176</ele>
        <time>2022-03-12T12:53:04.000Z</time>
      </trkpt>
      <trkpt lat="43.6743" lon="7.08653">
        <ele>114.80000305176</ele>
        <time>2022-03-12T12:53:06.000Z</time>
      </trkpt>
      <trkpt lat="43.67427" lon="7.08651">
        <ele>114.59999847412</ele>
        <time>2022-03-12T12:53:07.000Z</time>
      </trkpt>
      <trkpt lat="43.67421" lon="7.08644">
        <ele>114.19999694824</ele>
        <time>2022-03-12T12:53:11.000Z</time>
      </trkpt>
      <trkpt lat="43.67413" lon="7.08635">
        <ele>115</ele>
        <time>2022-03-12T12:53:16.000Z</time>
      </trkpt>
      <trkpt lat="43.67413" lon="7.08633">
        <ele>115.19999694824</ele>
        <time>2022-03-12T12:53:17.000Z</time>
      </trkpt>
      <trkpt lat="43.6741" lon="7.08625">
        <ele>115.59999847412</ele>
        <time>2022-03-12T12:53:20.000Z</time>
      </trkpt>
      <trkpt lat="43.67408" lon="7.08622">
        <ele>115.80000305176</ele>
        <time>2022-03-12T12:53:21.000Z</time>
      </trkpt>
      <trkpt lat="43.67405" lon="7.08619">
        <ele>116</ele>
        <time>2022-03-12T12:53:23.000Z</time>
      </trkpt>
      <trkpt lat="43.67403" lon="7.08618">
        <ele>116.40000152588</ele>
        <time>2022-03-12T12:53:24.000Z</time>
      </trkpt>
      <trkpt lat="43.67393" lon="7.08608">
        <ele>116.80000305176</ele>
        <time>2022-03-12T12:53:29.000Z</time>
      </trkpt>
      <trkpt lat="43.67391" lon="7.08605">
        <ele>117</ele>
        <time>2022-03-12T12:53:30.000Z</time>
      </trkpt>
      <trkpt lat="43.67387" lon="7.086">
        <ele>117.40000152588</ele>
        <time>2022-03-12T12:53:33.000Z</time>
      </trkpt>
      <trkpt lat="43.67383" lon="7.08598">
        <ele>117.59999847412</ele>
        <time>2022-03-12T12:53:35.000Z</time>
      </trkpt>
      <trkpt lat="43.67378" lon="7.08598">
        <ele>118.19999694824</ele>
        <time>2022-03-12T12:53:38.000Z</time>
      </trkpt>
      <trkpt lat="43.67373" lon="7.08601">
        <ele>118.59999847412</ele>
        <time>2022-03-12T12:53:41.000Z</time>
      </trkpt>
      <trkpt lat="43.67369" lon="7.08607">
        <ele>118.59999847412</ele>
        <time>2022-03-12T12:53:45.000Z</time>
      </trkpt>
      <trkpt lat="43.6736" lon="7.08602">
        <ele>118.40000152588</ele>
        <time>2022-03-12T12:53:49.000Z</time>
      </trkpt>
      <trkpt lat="43.67351" lon="7.08594">
        <ele>118.59999847412</ele>
        <time>2022-03-12T12:53:54.000Z</time>
      </trkpt>
      <trkpt lat="43.67345" lon="7.08588">
        <ele>118.80000305176</ele>
        <time>2022-03-12T12:53:57.000Z</time>
      </trkpt>
      <trkpt lat="43.67343" lon="7.08584">
        <ele>118.80000305176</ele>
        <time>2022-03-12T12:53:58.000Z</time>
      </trkpt>
      <trkpt lat="43.67338" lon="7.08577">
        <ele>119.19999694824</ele>
        <time>2022-03-12T12:54:01.000Z</time>
      </trkpt>
      <trkpt lat="43.67334" lon="7.08573">
        <ele>119.80000305176</ele>
        <time>2022-03-12T12:54:03.000Z</time>
      </trkpt>
      <trkpt lat="43.67328" lon="7.08571">
        <ele>120.40000152588</ele>
        <time>2022-03-12T12:54:06.000Z</time>
      </trkpt>
      <trkpt lat="43.67324" lon="7.08569">
        <ele>120.59999847412</ele>
        <time>2022-03-12T12:54:08.000Z</time>
      </trkpt>
      <trkpt lat="43.67318" lon="7.08565">
        <ele>120.80000305176</ele>
        <time>2022-03-12T12:54:12.000Z</time>
      </trkpt>
      <trkpt lat="43.67317" lon="7.08565">
        <ele>121.40000152588</ele>
        <time>2022-03-12T12:54:15.000Z</time>
      </trkpt>
      <trkpt lat="43.67317" lon="7.08565">
        <ele>121.80000305176</ele>
        <time>2022-03-12T12:54:17.000Z</time>
      </trkpt>
      <trkpt lat="43.67309" lon="7.08564">
        <ele>122</ele>
        <time>2022-03-12T12:54:33.000Z</time>
      </trkpt>
      <trkpt lat="43.67299" lon="7.08566">
        <ele>122</ele>
        <time>2022-03-12T12:54:38.000Z</time>
      </trkpt>
      <trkpt lat="43.67287" lon="7.08566">
        <ele>122</ele>
        <time>2022-03-12T12:54:43.000Z</time>
      </trkpt>
      <trkpt lat="43.67281" lon="7.08572">
        <ele>122.59999847412</ele>
        <time>2022-03-12T12:54:47.000Z</time>
      </trkpt>
      <trkpt lat="43.67274" lon="7.08575">
        <ele>122.80000305176</ele>
        <time>2022-03-12T12:54:50.000Z</time>
      </trkpt>
      <trkpt lat="43.6727" lon="7.08573">
        <ele>122.80000305176</ele>
        <time>2022-03-12T12:54:52.000Z</time>
      </trkpt>
      <trkpt lat="43.67264" lon="7.08566">
        <ele>123.59999847412</ele>
        <time>2022-03-12T12:54:56.000Z</time>
      </trkpt>
      <trkpt lat="43.67263" lon="7.08564">
        <ele>123.80000305176</ele>
        <time>2022-03-12T12:54:57.000Z</time>
      </trkpt>
      <trkpt lat="43.67261" lon="7.08563">
        <ele>124.59999847412</ele>
        <time>2022-03-12T12:55:01.000Z</time>
      </trkpt>
      <trkpt lat="43.67261" lon="7.08563">
        <ele>124.80000305176</ele>
        <time>2022-03-12T12:55:02.000Z</time>
      </trkpt>
      <trkpt lat="43.6726" lon="7.08563">
        <ele>125.40000152588</ele>
        <time>2022-03-12T12:55:09.000Z</time>
      </trkpt>
      <trkpt lat="43.67257" lon="7.08564">
        <ele>125.40000152588</ele>
        <time>2022-03-12T12:55:13.000Z</time>
      </trkpt>
      <trkpt lat="43.67255" lon="7.08565">
        <ele>125.19999694824</ele>
        <time>2022-03-12T12:55:15.000Z</time>
      </trkpt>
      <trkpt lat="43.67253" lon="7.08566">
        <ele>124.59999847412</ele>
        <time>2022-03-12T12:55:19.000Z</time>
      </trkpt>
      <trkpt lat="43.67249" lon="7.08564">
        <ele>124.19999694824</ele>
        <time>2022-03-12T12:55:25.000Z</time>
      </trkpt>
      <trkpt lat="43.67243" lon="7.08562">
        <ele>124.80000305176</ele>
        <time>2022-03-12T12:55:31.000Z</time>
      </trkpt>
      <trkpt lat="43.6724" lon="7.08559">
        <ele>125.40000152588</ele>
        <time>2022-03-12T12:55:37.000Z</time>
      </trkpt>
      <trkpt lat="43.67238" lon="7.08556">
        <ele>125.80000305176</ele>
        <time>2022-03-12T12:55:41.000Z</time>
      </trkpt>
      <trkpt lat="43.67237" lon="7.08556">
        <ele>126</ele>
        <time>2022-03-12T12:55:42.000Z</time>
      </trkpt>
      <trkpt lat="43.67234" lon="7.08555">
        <ele>127.19999694824</ele>
        <time>2022-03-12T12:55:47.000Z</time>
      </trkpt>
      <trkpt lat="43.67232" lon="7.08554">
        <ele>127.59999847412</ele>
        <time>2022-03-12T12:55:49.000Z</time>
      </trkpt>
      <trkpt lat="43.67231" lon="7.08553">
        <ele>127.80000305176</ele>
        <time>2022-03-12T12:55:51.000Z</time>
      </trkpt>
      <trkpt lat="43.67231" lon="7.08553">
        <ele>128.19999694824</ele>
        <time>2022-03-12T12:55:53.000Z</time>
      </trkpt>
      <trkpt lat="43.6723" lon="7.08554">
        <ele>128.19999694824</ele>
        <time>2022-03-12T12:55:54.000Z</time>
      </trkpt>
      <trkpt lat="43.67227" lon="7.08554">
        <ele>128.80000305176</ele>
        <time>2022-03-12T12:56:01.000Z</time>
      </trkpt>
      <trkpt lat="43.67226" lon="7.08555">
        <ele>128.60000610352</ele>
        <time>2022-03-12T12:56:03.000Z</time>
      </trkpt>
      <trkpt lat="43.67219" lon="7.0856">
        <ele>127.80000305176</ele>
        <time>2022-03-12T12:56:07.000Z</time>
      </trkpt>
      <trkpt lat="43.67214" lon="7.08559">
        <ele>127</ele>
        <time>2022-03-12T12:56:10.000Z</time>
      </trkpt>
      <trkpt lat="43.6721" lon="7.08559">
        <ele>127</ele>
        <time>2022-03-12T12:56:12.000Z</time>
      </trkpt>
      <trkpt lat="43.67199" lon="7.08558">
        <ele>127.40000152588</ele>
        <time>2022-03-12T12:56:17.000Z</time>
      </trkpt>
      <trkpt lat="43.67193" lon="7.0856">
        <ele>127.59999847412</ele>
        <time>2022-03-12T12:56:21.000Z</time>
      </trkpt>
      <trkpt lat="43.67191" lon="7.08563">
        <ele>128.60000610352</ele>
        <time>2022-03-12T12:56:23.000Z</time>
      </trkpt>
      <trkpt lat="43.67185" lon="7.08572">
        <ele>130</ele>
        <time>2022-03-12T12:56:26.000Z</time>
      </trkpt>
      <trkpt lat="43.67183" lon="7.08575">
        <ele>130</ele>
        <time>2022-03-12T12:56:27.000Z</time>
      </trkpt>
      <trkpt lat="43.67173" lon="7.08586">
        <ele>131.19999694824</ele>
        <time>2022-03-12T12:56:32.000Z</time>
      </trkpt>
      <trkpt lat="43.67169" lon="7.08589">
        <ele>132.19999694824</ele>
        <time>2022-03-12T12:56:36.000Z</time>
      </trkpt>
      <trkpt lat="43.67168" lon="7.0859">
        <ele>132.39999389648</ele>
        <time>2022-03-12T12:56:37.000Z</time>
      </trkpt>
      <trkpt lat="43.67161" lon="7.08594">
        <ele>132.80000305176</ele>
        <time>2022-03-12T12:56:41.000Z</time>
      </trkpt>
      <trkpt lat="43.67153" lon="7.08594">
        <ele>133.60000610352</ele>
        <time>2022-03-12T12:56:45.000Z</time>
      </trkpt>
      <trkpt lat="43.67152" lon="7.08594">
        <ele>134</ele>
        <time>2022-03-12T12:56:46.000Z</time>
      </trkpt>
      <trkpt lat="43.67149" lon="7.08597">
        <ele>135</ele>
        <time>2022-03-12T12:56:48.000Z</time>
      </trkpt>
      <trkpt lat="43.67147" lon="7.08601">
        <ele>135.60000610352</ele>
        <time>2022-03-12T12:56:50.000Z</time>
      </trkpt>
      <trkpt lat="43.67139" lon="7.08608">
        <ele>135.60000610352</ele>
        <time>2022-03-12T12:56:54.000Z</time>
      </trkpt>
      <trkpt lat="43.67138" lon="7.08609">
        <ele>135.19999694824</ele>
        <time>2022-03-12T12:57:00.000Z</time>
      </trkpt>
      <trkpt lat="43.67135" lon="7.08614">
        <ele>135</ele>
        <time>2022-03-12T12:57:12.000Z</time>
      </trkpt>
      <trkpt lat="43.67131" lon="7.08614">
        <ele>135.60000610352</ele>
        <time>2022-03-12T12:57:18.000Z</time>
      </trkpt>
      <trkpt lat="43.67126" lon="7.08614">
        <ele>136</ele>
        <time>2022-03-12T12:57:25.000Z</time>
      </trkpt>
      <trkpt lat="43.67126" lon="7.08615">
        <ele>136</ele>
        <time>2022-03-12T12:57:26.000Z</time>
      </trkpt>
      <trkpt lat="43.67127" lon="7.08617">
        <ele>136.19999694824</ele>
        <time>2022-03-12T12:57:28.000Z</time>
      </trkpt>
      <trkpt lat="43.67127" lon="7.08619">
        <ele>136.19999694824</ele>
        <time>2022-03-12T12:57:30.000Z</time>
      </trkpt>
      <trkpt lat="43.67125" lon="7.08622">
        <ele>135.80000305176</ele>
        <time>2022-03-12T12:57:35.000Z</time>
      </trkpt>
      <trkpt lat="43.67123" lon="7.08623">
        <ele>136.19999694824</ele>
        <time>2022-03-12T12:57:41.000Z</time>
      </trkpt>
      <trkpt lat="43.6712" lon="7.08625">
        <ele>136.39999389648</ele>
        <time>2022-03-12T12:57:50.000Z</time>
      </trkpt>
      <trkpt lat="43.67119" lon="7.08625">
        <ele>136.60000610352</ele>
        <time>2022-03-12T12:57:51.000Z</time>
      </trkpt>
      <trkpt lat="43.67115" lon="7.08628">
        <ele>137.19999694824</ele>
        <time>2022-03-12T12:57:54.000Z</time>
      </trkpt>
      <trkpt lat="43.67113" lon="7.08631">
        <ele>137.39999389648</ele>
        <time>2022-03-12T12:57:55.000Z</time>
      </trkpt>
      <trkpt lat="43.67107" lon="7.08632">
        <ele>138.19999694824</ele>
        <time>2022-03-12T12:57:58.000Z</time>
      </trkpt>
      <trkpt lat="43.67102" lon="7.08634">
        <ele>139.19999694824</ele>
        <time>2022-03-12T12:58:02.000Z</time>
      </trkpt>
      <trkpt lat="43.67101" lon="7.08635">
        <ele>139.60000610352</ele>
        <time>2022-03-12T12:58:03.000Z</time>
      </trkpt>
      <trkpt lat="43.671" lon="7.08638">
        <ele>140.19999694824</ele>
        <time>2022-03-12T12:58:05.000Z</time>
      </trkpt>
      <trkpt lat="43.67097" lon="7.08643">
        <ele>140.60000610352</ele>
        <time>2022-03-12T12:58:07.000Z</time>
      </trkpt>
      <trkpt lat="43.67096" lon="7.08645">
        <ele>140.60000610352</ele>
        <time>2022-03-12T12:58:08.000Z</time>
      </trkpt>
      <trkpt lat="43.67091" lon="7.08652">
        <ele>140.80000305176</ele>
        <time>2022-03-12T12:58:11.000Z</time>
      </trkpt>
      <trkpt lat="43.67085" lon="7.08655">
        <ele>141.19999694824</ele>
        <time>2022-03-12T12:58:15.000Z</time>
      </trkpt>
      <trkpt lat="43.6708" lon="7.08658">
        <ele>141.60000610352</ele>
        <time>2022-03-12T12:58:17.000Z</time>
      </trkpt>
      <trkpt lat="43.6708" lon="7.08659">
        <ele>142</ele>
        <time>2022-03-12T12:58:18.000Z</time>
      </trkpt>
      <trkpt lat="43.67075" lon="7.08666">
        <ele>142.80000305176</ele>
        <time>2022-03-12T12:58:22.000Z</time>
      </trkpt>
      <trkpt lat="43.67072" lon="7.08668">
        <ele>143</ele>
        <time>2022-03-12T12:58:23.000Z</time>
      </trkpt>
      <trkpt lat="43.67071" lon="7.08668">
        <ele>143</ele>
        <time>2022-03-12T12:58:24.000Z</time>
      </trkpt>
      <trkpt lat="43.67071" lon="7.08668">
        <ele>142.80000305176</ele>
        <time>2022-03-12T12:58:26.000Z</time>
      </trkpt>
      <trkpt lat="43.67066" lon="7.08671">
        <ele>142.80000305176</ele>
        <time>2022-03-12T12:58:35.000Z</time>
      </trkpt>
      <trkpt lat="43.67066" lon="7.08672">
        <ele>143</ele>
        <time>2022-03-12T12:58:41.000Z</time>
      </trkpt>
      <trkpt lat="43.67067" lon="7.08675">
        <ele>141.80000305176</ele>
        <time>2022-03-12T12:58:49.000Z</time>
      </trkpt>
      <trkpt lat="43.67068" lon="7.08675">
        <ele>142.39999389648</ele>
        <time>2022-03-12T12:58:58.000Z</time>
      </trkpt>
      <trkpt lat="43.67068" lon="7.08677">
        <ele>142</ele>
        <time>2022-03-12T12:59:05.000Z</time>
      </trkpt>
      <trkpt lat="43.67067" lon="7.08678">
        <ele>141.39999389648</ele>
        <time>2022-03-12T12:59:07.000Z</time>
      </trkpt>
      <trkpt lat="43.67066" lon="7.08678">
        <ele>141.60000610352</ele>
        <time>2022-03-12T12:59:13.000Z</time>
      </trkpt>
      <trkpt lat="43.67065" lon="7.08679">
        <ele>142.60000610352</ele>
        <time>2022-03-12T12:59:16.000Z</time>
      </trkpt>
      <trkpt lat="43.67065" lon="7.0868">
        <ele>142.19999694824</ele>
        <time>2022-03-12T12:59:25.000Z</time>
      </trkpt>
      <trkpt lat="43.67064" lon="7.08681">
        <ele>142</ele>
        <time>2022-03-12T12:59:35.000Z</time>
      </trkpt>
      <trkpt lat="43.67062" lon="7.08682">
        <ele>142.60000610352</ele>
        <time>2022-03-12T12:59:43.000Z</time>
      </trkpt>
      <trkpt lat="43.6706" lon="7.08682">
        <ele>143.19999694824</ele>
        <time>2022-03-12T12:59:49.000Z</time>
      </trkpt>
      <trkpt lat="43.67058" lon="7.08681">
        <ele>143</ele>
        <time>2022-03-12T12:59:54.000Z</time>
      </trkpt>
      <trkpt lat="43.67053" lon="7.08681">
        <ele>143.19999694824</ele>
        <time>2022-03-12T13:00:00.000Z</time>
      </trkpt>
      <trkpt lat="43.67051" lon="7.0868">
        <ele>143.39999389648</ele>
        <time>2022-03-12T13:00:06.000Z</time>
      </trkpt>
      <trkpt lat="43.67049" lon="7.0868">
        <ele>143.60000610352</ele>
        <time>2022-03-12T13:00:09.000Z</time>
      </trkpt>
      <trkpt lat="43.67047" lon="7.0868">
        <ele>143.80000305176</ele>
        <time>2022-03-12T13:00:12.000Z</time>
      </trkpt>
      <trkpt lat="43.67046" lon="7.08681">
        <ele>144.60000610352</ele>
        <time>2022-03-12T13:00:16.000Z</time>
      </trkpt>
      <trkpt lat="43.67043" lon="7.08682">
        <ele>145</ele>
        <time>2022-03-12T13:00:19.000Z</time>
      </trkpt>
      <trkpt lat="43.67042" lon="7.08683">
        <ele>145.19999694824</ele>
        <time>2022-03-12T13:00:25.000Z</time>
      </trkpt>
      <trkpt lat="43.67041" lon="7.08685">
        <ele>145.60000610352</ele>
        <time>2022-03-12T13:00:30.000Z</time>
      </trkpt>
      <trkpt lat="43.67041" lon="7.08685">
        <ele>145.80000305176</ele>
        <time>2022-03-12T13:00:31.000Z</time>
      </trkpt>
      <trkpt lat="43.67038" lon="7.08689">
        <ele>146.80000305176</ele>
        <time>2022-03-12T13:00:37.000Z</time>
      </trkpt>
      <trkpt lat="43.67038" lon="7.0869">
        <ele>147</ele>
        <time>2022-03-12T13:00:38.000Z</time>
      </trkpt>
      <trkpt lat="43.67036" lon="7.08691">
        <ele>148</ele>
        <time>2022-03-12T13:00:42.000Z</time>
      </trkpt>
      <trkpt lat="43.67036" lon="7.08691">
        <ele>148.39999389648</ele>
        <time>2022-03-12T13:00:44.000Z</time>
      </trkpt>
      <trkpt lat="43.67033" lon="7.08693">
        <ele>148.60000610352</ele>
        <time>2022-03-12T13:00:48.000Z</time>
      </trkpt>
      <trkpt lat="43.67032" lon="7.08696">
        <ele>148.80000305176</ele>
        <time>2022-03-12T13:00:50.000Z</time>
      </trkpt>
      <trkpt lat="43.67032" lon="7.08703">
        <ele>149.19999694824</ele>
        <time>2022-03-12T13:00:53.000Z</time>
      </trkpt>
      <trkpt lat="43.67031" lon="7.08707">
        <ele>149.80000305176</ele>
        <time>2022-03-12T13:00:55.000Z</time>
      </trkpt>
      <trkpt lat="43.67031" lon="7.08708">
        <ele>150.60000610352</ele>
        <time>2022-03-12T13:00:56.000Z</time>
      </trkpt>
      <trkpt lat="43.67029" lon="7.08714">
        <ele>151.80000305176</ele>
        <time>2022-03-12T13:00:58.000Z</time>
      </trkpt>
      <trkpt lat="43.67028" lon="7.08715">
        <ele>152.39999389648</ele>
        <time>2022-03-12T13:00:59.000Z</time>
      </trkpt>
      <trkpt lat="43.67025" lon="7.08718">
        <ele>153</ele>
        <time>2022-03-12T13:01:00.000Z</time>
      </trkpt>
      <trkpt lat="43.67025" lon="7.0872">
        <ele>153.19999694824</ele>
        <time>2022-03-12T13:01:01.000Z</time>
      </trkpt>
      <trkpt lat="43.67025" lon="7.08723">
        <ele>154</ele>
        <time>2022-03-12T13:01:03.000Z</time>
      </trkpt>
      <trkpt lat="43.67024" lon="7.08728">
        <ele>154</ele>
        <time>2022-03-12T13:01:08.000Z</time>
      </trkpt>
      <trkpt lat="43.67024" lon="7.0873">
        <ele>155.19999694824</ele>
        <time>2022-03-12T13:01:15.000Z</time>
      </trkpt>
      <trkpt lat="43.67025" lon="7.08731">
        <ele>155.39999389648</ele>
        <time>2022-03-12T13:01:18.000Z</time>
      </trkpt>
      <trkpt lat="43.67028" lon="7.0873">
        <ele>154.60000610352</ele>
        <time>2022-03-12T13:01:27.000Z</time>
      </trkpt>
      <trkpt lat="43.67027" lon="7.08732">
        <ele>154.60000610352</ele>
        <time>2022-03-12T13:01:28.000Z</time>
      </trkpt>
      <trkpt lat="43.67027" lon="7.08732">
        <ele>155</ele>
        <time>2022-03-12T13:01:37.000Z</time>
      </trkpt>
      <trkpt lat="43.67026" lon="7.08733">
        <ele>155.60000610352</ele>
        <time>2022-03-12T13:01:46.000Z</time>
      </trkpt>
      <trkpt lat="43.67026" lon="7.08734">
        <ele>155</ele>
        <time>2022-03-12T13:02:03.000Z</time>
      </trkpt>
      <trkpt lat="43.67027" lon="7.08735">
        <ele>155</ele>
        <time>2022-03-12T13:02:21.000Z</time>
      </trkpt>
      <trkpt lat="43.67028" lon="7.08735">
        <ele>155.60000610352</ele>
        <time>2022-03-12T13:02:34.000Z</time>
      </trkpt>
      <trkpt lat="43.67029" lon="7.08735">
        <ele>155</ele>
        <time>2022-03-12T13:02:49.000Z</time>
      </trkpt>
      <trkpt lat="43.67029" lon="7.08735">
        <ele>155.19999694824</ele>
        <time>2022-03-12T13:03:00.000Z</time>
      </trkpt>
      <trkpt lat="43.67027" lon="7.08736">
        <ele>155.19999694824</ele>
        <time>2022-03-12T13:03:08.000Z</time>
      </trkpt>
      <trkpt lat="43.67025" lon="7.08736">
        <ele>155</ele>
        <time>2022-03-12T13:03:16.000Z</time>
      </trkpt>
      <trkpt lat="43.67024" lon="7.08737">
        <ele>154.80000305176</ele>
        <time>2022-03-12T13:03:29.000Z</time>
      </trkpt>
      <trkpt lat="43.67022" lon="7.08733">
        <ele>154.80000305176</ele>
        <time>2022-03-12T13:03:39.000Z</time>
      </trkpt>
      <trkpt lat="43.67016" lon="7.08728">
        <ele>155</ele>
        <time>2022-03-12T13:03:44.000Z</time>
      </trkpt>
      <trkpt lat="43.67013" lon="7.08726">
        <ele>154.80000305176</ele>
        <time>2022-03-12T13:03:46.000Z</time>
      </trkpt>
      <trkpt lat="43.67005" lon="7.08721">
        <ele>154.80000305176</ele>
        <time>2022-03-12T13:03:50.000Z</time>
      </trkpt>
      <trkpt lat="43.66994" lon="7.08715">
        <ele>154.60000610352</ele>
        <time>2022-03-12T13:03:55.000Z</time>
      </trkpt>
      <trkpt lat="43.66983" lon="7.0871">
        <ele>154.80000305176</ele>
        <time>2022-03-12T13:04:00.000Z</time>
      </trkpt>
      <trkpt lat="43.6697" lon="7.08703">
        <ele>155.60000610352</ele>
        <time>2022-03-12T13:04:05.000Z</time>
      </trkpt>
      <trkpt lat="43.66964" lon="7.08703">
        <ele>156.19999694824</ele>
        <time>2022-03-12T13:04:07.000Z</time>
      </trkpt>
      <trkpt lat="43.66956" lon="7.0871">
        <ele>157.19999694824</ele>
        <time>2022-03-12T13:04:11.000Z</time>
      </trkpt>
      <trkpt lat="43.66947" lon="7.08725">
        <ele>158.39999389648</ele>
        <time>2022-03-12T13:04:16.000Z</time>
      </trkpt>
      <trkpt lat="43.66942" lon="7.0874">
        <ele>159.60000610352</ele>
        <time>2022-03-12T13:04:21.000Z</time>
      </trkpt>
      <trkpt lat="43.66937" lon="7.08757">
        <ele>160.39999389648</ele>
        <time>2022-03-12T13:04:27.000Z</time>
      </trkpt>
      <trkpt lat="43.66931" lon="7.08776">
        <ele>160</ele>
        <time>2022-03-12T13:04:33.000Z</time>
      </trkpt>
      <trkpt lat="43.66928" lon="7.08789">
        <ele>159.60000610352</ele>
        <time>2022-03-12T13:04:36.000Z</time>
      </trkpt>
      <trkpt lat="43.66928" lon="7.08794">
        <ele>159.60000610352</ele>
        <time>2022-03-12T13:04:37.000Z</time>
      </trkpt>
      <trkpt lat="43.66925" lon="7.08809">
        <ele>158.39999389648</ele>
        <time>2022-03-12T13:04:40.000Z</time>
      </trkpt>
      <trkpt lat="43.66924" lon="7.08821">
        <ele>157.39999389648</ele>
        <time>2022-03-12T13:04:42.000Z</time>
      </trkpt>
      <trkpt lat="43.66924" lon="7.08827">
        <ele>157.19999694824</ele>
        <time>2022-03-12T13:04:43.000Z</time>
      </trkpt>
      <trkpt lat="43.6692" lon="7.08846">
        <ele>156.19999694824</ele>
        <time>2022-03-12T13:04:47.000Z</time>
      </trkpt>
      <trkpt lat="43.66917" lon="7.08852">
        <ele>156</ele>
        <time>2022-03-12T13:04:48.000Z</time>
      </trkpt>
      <trkpt lat="43.66905" lon="7.08876">
        <ele>155.39999389648</ele>
        <time>2022-03-12T13:04:52.000Z</time>
      </trkpt>
      <trkpt lat="43.669" lon="7.08886">
        <ele>155</ele>
        <time>2022-03-12T13:04:54.000Z</time>
      </trkpt>
      <trkpt lat="43.66893" lon="7.08901">
        <ele>154.60000610352</ele>
        <time>2022-03-12T13:04:57.000Z</time>
      </trkpt>
      <trkpt lat="43.66878" lon="7.08938">
        <ele>154</ele>
        <time>2022-03-12T13:05:05.000Z</time>
      </trkpt>
      <trkpt lat="43.66874" lon="7.08942">
        <ele>153.80000305176</ele>
        <time>2022-03-12T13:05:06.000Z</time>
      </trkpt>
      <trkpt lat="43.66863" lon="7.0895">
        <ele>153.39999389648</ele>
        <time>2022-03-12T13:05:09.000Z</time>
      </trkpt>
      <trkpt lat="43.66853" lon="7.0896">
        <ele>152.80000305176</ele>
        <time>2022-03-12T13:05:12.000Z</time>
      </trkpt>
      <trkpt lat="43.66849" lon="7.08968">
        <ele>151.60000610352</ele>
        <time>2022-03-12T13:05:14.000Z</time>
      </trkpt>
      <trkpt lat="43.66846" lon="7.08973">
        <ele>150.60000610352</ele>
        <time>2022-03-12T13:05:18.000Z</time>
      </trkpt>
      <trkpt lat="43.66846" lon="7.08974">
        <ele>150.60000610352</ele>
        <time>2022-03-12T13:05:24.000Z</time>
      </trkpt>
      <trkpt lat="43.66848" lon="7.0898">
        <ele>150.39999389648</ele>
        <time>2022-03-12T13:05:34.000Z</time>
      </trkpt>
      <trkpt lat="43.66851" lon="7.08986">
        <ele>150.39999389648</ele>
        <time>2022-03-12T13:05:36.000Z</time>
      </trkpt>
      <trkpt lat="43.66854" lon="7.08986">
        <ele>150.39999389648</ele>
        <time>2022-03-12T13:05:37.000Z</time>
      </trkpt>
      <trkpt lat="43.6686" lon="7.08999">
        <ele>151</ele>
        <time>2022-03-12T13:05:41.000Z</time>
      </trkpt>
      <trkpt lat="43.6686" lon="7.09003">
        <ele>150.80000305176</ele>
        <time>2022-03-12T13:05:42.000Z</time>
      </trkpt>
      <trkpt lat="43.66856" lon="7.09012">
        <ele>150.80000305176</ele>
        <time>2022-03-12T13:05:45.000Z</time>
      </trkpt>
      <trkpt lat="43.66852" lon="7.09013">
        <ele>150.19999694824</ele>
        <time>2022-03-12T13:05:48.000Z</time>
      </trkpt>
      <trkpt lat="43.66851" lon="7.09014">
        <ele>150.19999694824</ele>
        <time>2022-03-12T13:05:50.000Z</time>
      </trkpt>
      <trkpt lat="43.66849" lon="7.09017">
        <ele>150.80000305176</ele>
        <time>2022-03-12T13:05:52.000Z</time>
      </trkpt>
      <trkpt lat="43.66845" lon="7.09027">
        <ele>151.60000610352</ele>
        <time>2022-03-12T13:05:55.000Z</time>
      </trkpt>
      <trkpt lat="43.66841" lon="7.09031">
        <ele>151.39999389648</ele>
        <time>2022-03-12T13:05:57.000Z</time>
      </trkpt>
      <trkpt lat="43.66837" lon="7.09039">
        <ele>151.19999694824</ele>
        <time>2022-03-12T13:06:02.000Z</time>
      </trkpt>
      <trkpt lat="43.66839" lon="7.09043">
        <ele>151.80000305176</ele>
        <time>2022-03-12T13:06:04.000Z</time>
      </trkpt>
      <trkpt lat="43.66838" lon="7.0905">
        <ele>151.60000610352</ele>
        <time>2022-03-12T13:06:07.000Z</time>
      </trkpt>
      <trkpt lat="43.66837" lon="7.09054">
        <ele>151.60000610352</ele>
        <time>2022-03-12T13:06:10.000Z</time>
      </trkpt>
      <trkpt lat="43.66838" lon="7.09069">
        <ele>151.39999389648</ele>
        <time>2022-03-12T13:06:14.000Z</time>
      </trkpt>
      <trkpt lat="43.66834" lon="7.09075">
        <ele>150.80000305176</ele>
        <time>2022-03-12T13:06:17.000Z</time>
      </trkpt>
      <trkpt lat="43.66831" lon="7.09089">
        <ele>150.80000305176</ele>
        <time>2022-03-12T13:06:21.000Z</time>
      </trkpt>
      <trkpt lat="43.6683" lon="7.09094">
        <ele>151</ele>
        <time>2022-03-12T13:06:22.000Z</time>
      </trkpt>
      <trkpt lat="43.66828" lon="7.09108">
        <ele>151</ele>
        <time>2022-03-12T13:06:25.000Z</time>
      </trkpt>
      <trkpt lat="43.66826" lon="7.09118">
        <ele>151.60000610352</ele>
        <time>2022-03-12T13:06:27.000Z</time>
      </trkpt>
      <trkpt lat="43.66824" lon="7.09123">
        <ele>151.80000305176</ele>
        <time>2022-03-12T13:06:29.000Z</time>
      </trkpt>
      <trkpt lat="43.66824" lon="7.09127">
        <ele>151.80000305176</ele>
        <time>2022-03-12T13:06:30.000Z</time>
      </trkpt>
      <trkpt lat="43.66827" lon="7.09136">
        <ele>151.60000610352</ele>
        <time>2022-03-12T13:06:33.000Z</time>
      </trkpt>
      <trkpt lat="43.66825" lon="7.09148">
        <ele>152.19999694824</ele>
        <time>2022-03-12T13:06:37.000Z</time>
      </trkpt>
      <trkpt lat="43.66823" lon="7.09153">
        <ele>152.19999694824</ele>
        <time>2022-03-12T13:06:39.000Z</time>
      </trkpt>
      <trkpt lat="43.6682" lon="7.09154">
        <ele>152.19999694824</ele>
        <time>2022-03-12T13:06:41.000Z</time>
      </trkpt>
      <trkpt lat="43.66817" lon="7.09156">
        <ele>152.19999694824</ele>
        <time>2022-03-12T13:06:43.000Z</time>
      </trkpt>
      <trkpt lat="43.66814" lon="7.09158">
        <ele>152.19999694824</ele>
        <time>2022-03-12T13:06:45.000Z</time>
      </trkpt>
      <trkpt lat="43.66809" lon="7.09161">
        <ele>152.19999694824</ele>
        <time>2022-03-12T13:06:48.000Z</time>
      </trkpt>
      <trkpt lat="43.66804" lon="7.09161">
        <ele>152.39999389648</ele>
        <time>2022-03-12T13:06:50.000Z</time>
      </trkpt>
      <trkpt lat="43.66801" lon="7.09163">
        <ele>152.60000610352</ele>
        <time>2022-03-12T13:06:51.000Z</time>
      </trkpt>
      <trkpt lat="43.66798" lon="7.09167">
        <ele>152.60000610352</ele>
        <time>2022-03-12T13:06:54.000Z</time>
      </trkpt>
      <trkpt lat="43.66796" lon="7.09169">
        <ele>151.60000610352</ele>
        <time>2022-03-12T13:06:57.000Z</time>
      </trkpt>
      <trkpt lat="43.66793" lon="7.0917">
        <ele>150.60000610352</ele>
        <time>2022-03-12T13:07:00.000Z</time>
      </trkpt>
      <trkpt lat="43.6679" lon="7.09168">
        <ele>150.39999389648</ele>
        <time>2022-03-12T13:07:03.000Z</time>
      </trkpt>
      <trkpt lat="43.66789" lon="7.09167">
        <ele>150.39999389648</ele>
        <time>2022-03-12T13:07:04.000Z</time>
      </trkpt>
      <trkpt lat="43.66787" lon="7.09167">
        <ele>150.39999389648</ele>
        <time>2022-03-12T13:07:05.000Z</time>
      </trkpt>
      <trkpt lat="43.66779" lon="7.09164">
        <ele>149.39999389648</ele>
        <time>2022-03-12T13:07:09.000Z</time>
      </trkpt>
      <trkpt lat="43.66777" lon="7.09161">
        <ele>149</ele>
        <time>2022-03-12T13:07:10.000Z</time>
      </trkpt>
      <trkpt lat="43.66774" lon="7.09162">
        <ele>148.60000610352</ele>
        <time>2022-03-12T13:07:11.000Z</time>
      </trkpt>
      <trkpt lat="43.6677" lon="7.09164">
        <ele>147.80000305176</ele>
        <time>2022-03-12T13:07:12.000Z</time>
      </trkpt>
      <trkpt lat="43.66761" lon="7.09173">
        <ele>146.39999389648</ele>
        <time>2022-03-12T13:07:15.000Z</time>
      </trkpt>
      <trkpt lat="43.66757" lon="7.09174">
        <ele>145.60000610352</ele>
        <time>2022-03-12T13:07:16.000Z</time>
      </trkpt>
      <trkpt lat="43.66753" lon="7.09176">
        <ele>144.80000305176</ele>
        <time>2022-03-12T13:07:17.000Z</time>
      </trkpt>
      <trkpt lat="43.66749" lon="7.09184">
        <ele>143.60000610352</ele>
        <time>2022-03-12T13:07:19.000Z</time>
      </trkpt>
      <trkpt lat="43.66745" lon="7.09189">
        <ele>142.39999389648</ele>
        <time>2022-03-12T13:07:20.000Z</time>
      </trkpt>
      <trkpt lat="43.66736" lon="7.0919">
        <ele>140.80000305176</ele>
        <time>2022-03-12T13:07:22.000Z</time>
      </trkpt>
      <trkpt lat="43.66728" lon="7.0919">
        <ele>139.39999389648</ele>
        <time>2022-03-12T13:07:24.000Z</time>
      </trkpt>
      <trkpt lat="43.66725" lon="7.09192">
        <ele>139</ele>
        <time>2022-03-12T13:07:25.000Z</time>
      </trkpt>
      <trkpt lat="43.66718" lon="7.09202">
        <ele>137.80000305176</ele>
        <time>2022-03-12T13:07:27.000Z</time>
      </trkpt>
      <trkpt lat="43.66714" lon="7.09208">
        <ele>137</ele>
        <time>2022-03-12T13:07:28.000Z</time>
      </trkpt>
      <trkpt lat="43.6671" lon="7.09214">
        <ele>136.39999389648</ele>
        <time>2022-03-12T13:07:29.000Z</time>
      </trkpt>
      <trkpt lat="43.66703" lon="7.09225">
        <ele>135</ele>
        <time>2022-03-12T13:07:31.000Z</time>
      </trkpt>
      <trkpt lat="43.667" lon="7.09231">
        <ele>134</ele>
        <time>2022-03-12T13:07:32.000Z</time>
      </trkpt>
      <trkpt lat="43.66698" lon="7.09239">
        <ele>132</ele>
        <time>2022-03-12T13:07:34.000Z</time>
      </trkpt>
      <trkpt lat="43.66695" lon="7.09245">
        <ele>130.19999694824</ele>
        <time>2022-03-12T13:07:36.000Z</time>
      </trkpt>
      <trkpt lat="43.66692" lon="7.0925">
        <ele>129.19999694824</ele>
        <time>2022-03-12T13:07:38.000Z</time>
      </trkpt>
      <trkpt lat="43.66692" lon="7.09255">
        <ele>128.60000610352</ele>
        <time>2022-03-12T13:07:40.000Z</time>
      </trkpt>
      <trkpt lat="43.66693" lon="7.09259">
        <ele>128.19999694824</ele>
        <time>2022-03-12T13:07:41.000Z</time>
      </trkpt>
      <trkpt lat="43.66701" lon="7.09273">
        <ele>126.80000305176</ele>
        <time>2022-03-12T13:07:43.000Z</time>
      </trkpt>
      <trkpt lat="43.66706" lon="7.09278">
        <ele>125.40000152588</ele>
        <time>2022-03-12T13:07:44.000Z</time>
      </trkpt>
      <trkpt lat="43.66711" lon="7.09281">
        <ele>123.80000305176</ele>
        <time>2022-03-12T13:07:45.000Z</time>
      </trkpt>
      <trkpt lat="43.66716" lon="7.09283">
        <ele>122.80000305176</ele>
        <time>2022-03-12T13:07:46.000Z</time>
      </trkpt>
      <trkpt lat="43.6672" lon="7.09284">
        <ele>122.19999694824</ele>
        <time>2022-03-12T13:07:47.000Z</time>
      </trkpt>
      <trkpt lat="43.66725" lon="7.09285">
        <ele>121.19999694824</ele>
        <time>2022-03-12T13:07:48.000Z</time>
      </trkpt>
      <trkpt lat="43.66732" lon="7.09288">
        <ele>121.19999694824</ele>
        <time>2022-03-12T13:07:50.000Z</time>
      </trkpt>
      <trkpt lat="43.66743" lon="7.09294">
        <ele>121.80000305176</ele>
        <time>2022-03-12T13:07:53.000Z</time>
      </trkpt>
      <trkpt lat="43.66766" lon="7.09304">
        <ele>121.80000305176</ele>
        <time>2022-03-12T13:07:58.000Z</time>
      </trkpt>
      <trkpt lat="43.6677" lon="7.09306">
        <ele>122</ele>
        <time>2022-03-12T13:07:59.000Z</time>
      </trkpt>
      <trkpt lat="43.66795" lon="7.09317">
        <ele>122</ele>
        <time>2022-03-12T13:08:05.000Z</time>
      </trkpt>
      <trkpt lat="43.66803" lon="7.09321">
        <ele>122.19999694824</ele>
        <time>2022-03-12T13:08:07.000Z</time>
      </trkpt>
      <trkpt lat="43.66807" lon="7.09325">
        <ele>122.19999694824</ele>
        <time>2022-03-12T13:08:09.000Z</time>
      </trkpt>
      <trkpt lat="43.66811" lon="7.09327">
        <ele>122.40000152588</ele>
        <time>2022-03-12T13:08:11.000Z</time>
      </trkpt>
      <trkpt lat="43.66824" lon="7.09337">
        <ele>122.59999847412</ele>
        <time>2022-03-12T13:08:16.000Z</time>
      </trkpt>
      <trkpt lat="43.66831" lon="7.0934">
        <ele>122.59999847412</ele>
        <time>2022-03-12T13:08:20.000Z</time>
      </trkpt>
      <trkpt lat="43.66839" lon="7.09345">
        <ele>123</ele>
        <time>2022-03-12T13:08:25.000Z</time>
      </trkpt>
      <trkpt lat="43.66842" lon="7.09348">
        <ele>123.40000152588</ele>
        <time>2022-03-12T13:08:27.000Z</time>
      </trkpt>
      <trkpt lat="43.66843" lon="7.09356">
        <ele>123.40000152588</ele>
        <time>2022-03-12T13:08:29.000Z</time>
      </trkpt>
      <trkpt lat="43.66837" lon="7.0938">
        <ele>123</ele>
        <time>2022-03-12T13:08:33.000Z</time>
      </trkpt>
      <trkpt lat="43.66833" lon="7.09401">
        <ele>122</ele>
        <time>2022-03-12T13:08:36.000Z</time>
      </trkpt>
      <trkpt lat="43.66834" lon="7.09407">
        <ele>121.80000305176</ele>
        <time>2022-03-12T13:08:37.000Z</time>
      </trkpt>
      <trkpt lat="43.66837" lon="7.0942">
        <ele>121</ele>
        <time>2022-03-12T13:08:39.000Z</time>
      </trkpt>
      <trkpt lat="43.66836" lon="7.09427">
        <ele>120.59999847412</ele>
        <time>2022-03-12T13:08:40.000Z</time>
      </trkpt>
      <trkpt lat="43.6683" lon="7.0945">
        <ele>119.80000305176</ele>
        <time>2022-03-12T13:08:43.000Z</time>
      </trkpt>
      <trkpt lat="43.66827" lon="7.09458">
        <ele>119.40000152588</ele>
        <time>2022-03-12T13:08:44.000Z</time>
      </trkpt>
      <trkpt lat="43.66826" lon="7.09466">
        <ele>118.40000152588</ele>
        <time>2022-03-12T13:08:45.000Z</time>
      </trkpt>
      <trkpt lat="43.66822" lon="7.09474">
        <ele>117.40000152588</ele>
        <time>2022-03-12T13:08:46.000Z</time>
      </trkpt>
      <trkpt lat="43.66814" lon="7.09484">
        <ele>116.40000152588</ele>
        <time>2022-03-12T13:08:48.000Z</time>
      </trkpt>
      <trkpt lat="43.66794" lon="7.09503">
        <ele>116.80000305176</ele>
        <time>2022-03-12T13:08:53.000Z</time>
      </trkpt>
      <trkpt lat="43.66777" lon="7.09509">
        <ele>116.80000305176</ele>
        <time>2022-03-12T13:08:57.000Z</time>
      </trkpt>
      <trkpt lat="43.66775" lon="7.09513">
        <ele>116.80000305176</ele>
        <time>2022-03-12T13:08:58.000Z</time>
      </trkpt>
      <trkpt lat="43.66774" lon="7.09524">
        <ele>116.80000305176</ele>
        <time>2022-03-12T13:09:00.000Z</time>
      </trkpt>
      <trkpt lat="43.66772" lon="7.09537">
        <ele>116.80000305176</ele>
        <time>2022-03-12T13:09:02.000Z</time>
      </trkpt>
      <trkpt lat="43.66768" lon="7.09558">
        <ele>115.40000152588</ele>
        <time>2022-03-12T13:09:05.000Z</time>
      </trkpt>
      <trkpt lat="43.66765" lon="7.09567">
        <ele>114.59999847412</ele>
        <time>2022-03-12T13:09:06.000Z</time>
      </trkpt>
      <trkpt lat="43.66761" lon="7.09583">
        <ele>113</ele>
        <time>2022-03-12T13:09:08.000Z</time>
      </trkpt>
      <trkpt lat="43.66758" lon="7.09589">
        <ele>112</ele>
        <time>2022-03-12T13:09:09.000Z</time>
      </trkpt>
      <trkpt lat="43.66757" lon="7.09599">
        <ele>110.40000152588</ele>
        <time>2022-03-12T13:09:11.000Z</time>
      </trkpt>
      <trkpt lat="43.66756" lon="7.09602">
        <ele>109.40000152588</ele>
        <time>2022-03-12T13:09:12.000Z</time>
      </trkpt>
      <trkpt lat="43.66755" lon="7.09606">
        <ele>108.80000305176</ele>
        <time>2022-03-12T13:09:13.000Z</time>
      </trkpt>
      <trkpt lat="43.66751" lon="7.09619">
        <ele>107.80000305176</ele>
        <time>2022-03-12T13:09:15.000Z</time>
      </trkpt>
      <trkpt lat="43.66749" lon="7.09627">
        <ele>107.40000152588</ele>
        <time>2022-03-12T13:09:16.000Z</time>
      </trkpt>
      <trkpt lat="43.66747" lon="7.09634">
        <ele>107.19999694824</ele>
        <time>2022-03-12T13:09:17.000Z</time>
      </trkpt>
      <trkpt lat="43.66742" lon="7.09651">
        <ele>106.40000152588</ele>
        <time>2022-03-12T13:09:19.000Z</time>
      </trkpt>
      <trkpt lat="43.66737" lon="7.09669">
        <ele>105.40000152588</ele>
        <time>2022-03-12T13:09:21.000Z</time>
      </trkpt>
      <trkpt lat="43.66728" lon="7.09691">
        <ele>104.19999694824</ele>
        <time>2022-03-12T13:09:24.000Z</time>
      </trkpt>
      <trkpt lat="43.66724" lon="7.09694">
        <ele>104</ele>
        <time>2022-03-12T13:09:25.000Z</time>
      </trkpt>
      <trkpt lat="43.66716" lon="7.09713">
        <ele>102.80000305176</ele>
        <time>2022-03-12T13:09:28.000Z</time>
      </trkpt>
      <trkpt lat="43.66711" lon="7.09726">
        <ele>101.80000305176</ele>
        <time>2022-03-12T13:09:30.000Z</time>
      </trkpt>
      <trkpt lat="43.66702" lon="7.09742">
        <ele>100.59999847412</ele>
        <time>2022-03-12T13:09:33.000Z</time>
      </trkpt>
      <trkpt lat="43.66698" lon="7.09753">
        <ele>99.800003051758</ele>
        <time>2022-03-12T13:09:37.000Z</time>
      </trkpt>
      <trkpt lat="43.66695" lon="7.09771">
        <ele>99.599998474121</ele>
        <time>2022-03-12T13:09:42.000Z</time>
      </trkpt>
      <trkpt lat="43.66694" lon="7.09776">
        <ele>99.400001525879</ele>
        <time>2022-03-12T13:09:43.000Z</time>
      </trkpt>
      <trkpt lat="43.66692" lon="7.09804">
        <ele>100</ele>
        <time>2022-03-12T13:09:48.000Z</time>
      </trkpt>
      <trkpt lat="43.66691" lon="7.09809">
        <ele>100</ele>
        <time>2022-03-12T13:09:49.000Z</time>
      </trkpt>
      <trkpt lat="43.66685" lon="7.09826">
        <ele>99</ele>
        <time>2022-03-12T13:09:52.000Z</time>
      </trkpt>
      <trkpt lat="43.66678" lon="7.09844">
        <ele>98.599998474121</ele>
        <time>2022-03-12T13:09:55.000Z</time>
      </trkpt>
      <trkpt lat="43.66673" lon="7.09855">
        <ele>98.199996948242</ele>
        <time>2022-03-12T13:09:57.000Z</time>
      </trkpt>
      <trkpt lat="43.6667" lon="7.0986">
        <ele>97.800003051758</ele>
        <time>2022-03-12T13:09:58.000Z</time>
      </trkpt>
      <trkpt lat="43.66668" lon="7.09865">
        <ele>97.599998474121</ele>
        <time>2022-03-12T13:09:59.000Z</time>
      </trkpt>
      <trkpt lat="43.66666" lon="7.09871">
        <ele>97</ele>
        <time>2022-03-12T13:10:00.000Z</time>
      </trkpt>
      <trkpt lat="43.66666" lon="7.09878">
        <ele>96.599998474121</ele>
        <time>2022-03-12T13:10:01.000Z</time>
      </trkpt>
      <trkpt lat="43.66667" lon="7.09884">
        <ele>96.199996948242</ele>
        <time>2022-03-12T13:10:02.000Z</time>
      </trkpt>
      <trkpt lat="43.66666" lon="7.09897">
        <ele>95.199996948242</ele>
        <time>2022-03-12T13:10:04.000Z</time>
      </trkpt>
      <trkpt lat="43.66664" lon="7.09903">
        <ele>95</ele>
        <time>2022-03-12T13:10:05.000Z</time>
      </trkpt>
      <trkpt lat="43.6666" lon="7.09918">
        <ele>94.400001525879</ele>
        <time>2022-03-12T13:10:07.000Z</time>
      </trkpt>
      <trkpt lat="43.66657" lon="7.09925">
        <ele>93.800003051758</ele>
        <time>2022-03-12T13:10:08.000Z</time>
      </trkpt>
      <trkpt lat="43.66652" lon="7.0994">
        <ele>93.199996948242</ele>
        <time>2022-03-12T13:10:10.000Z</time>
      </trkpt>
      <trkpt lat="43.6665" lon="7.09948">
        <ele>92.800003051758</ele>
        <time>2022-03-12T13:10:11.000Z</time>
      </trkpt>
      <trkpt lat="43.6665" lon="7.09956">
        <ele>92.199996948242</ele>
        <time>2022-03-12T13:10:12.000Z</time>
      </trkpt>
      <trkpt lat="43.6665" lon="7.09965">
        <ele>91.599998474121</ele>
        <time>2022-03-12T13:10:13.000Z</time>
      </trkpt>
      <trkpt lat="43.6665" lon="7.09974">
        <ele>90.800003051758</ele>
        <time>2022-03-12T13:10:14.000Z</time>
      </trkpt>
      <trkpt lat="43.66648" lon="7.09982">
        <ele>90</ele>
        <time>2022-03-12T13:10:15.000Z</time>
      </trkpt>
      <trkpt lat="43.66644" lon="7.09991">
        <ele>89</ele>
        <time>2022-03-12T13:10:16.000Z</time>
      </trkpt>
      <trkpt lat="43.66641" lon="7.09998">
        <ele>88.400001525879</ele>
        <time>2022-03-12T13:10:17.000Z</time>
      </trkpt>
      <trkpt lat="43.6664" lon="7.10007">
        <ele>87.400001525879</ele>
        <time>2022-03-12T13:10:18.000Z</time>
      </trkpt>
      <trkpt lat="43.66638" lon="7.10015">
        <ele>86.400001525879</ele>
        <time>2022-03-12T13:10:19.000Z</time>
      </trkpt>
      <trkpt lat="43.66636" lon="7.10022">
        <ele>86</ele>
        <time>2022-03-12T13:10:20.000Z</time>
      </trkpt>
      <trkpt lat="43.66632" lon="7.10037">
        <ele>84.599998474121</ele>
        <time>2022-03-12T13:10:22.000Z</time>
      </trkpt>
      <trkpt lat="43.66624" lon="7.10044">
        <ele>84.400001525879</ele>
        <time>2022-03-12T13:10:24.000Z</time>
      </trkpt>
      <trkpt lat="43.66623" lon="7.10051">
        <ele>83.599998474121</ele>
        <time>2022-03-12T13:10:26.000Z</time>
      </trkpt>
      <trkpt lat="43.66625" lon="7.10056">
        <ele>83</ele>
        <time>2022-03-12T13:10:27.000Z</time>
      </trkpt>
      <trkpt lat="43.66627" lon="7.10062">
        <ele>82.400001525879</ele>
        <time>2022-03-12T13:10:28.000Z</time>
      </trkpt>
      <trkpt lat="43.6663" lon="7.10065">
        <ele>81</ele>
        <time>2022-03-12T13:10:29.000Z</time>
      </trkpt>
      <trkpt lat="43.66634" lon="7.1007">
        <ele>80.199996948242</ele>
        <time>2022-03-12T13:10:30.000Z</time>
      </trkpt>
      <trkpt lat="43.66637" lon="7.10076">
        <ele>79</ele>
        <time>2022-03-12T13:10:31.000Z</time>
      </trkpt>
      <trkpt lat="43.66639" lon="7.10086">
        <ele>77.199996948242</ele>
        <time>2022-03-12T13:10:33.000Z</time>
      </trkpt>
      <trkpt lat="43.66641" lon="7.10093">
        <ele>75.199996948242</ele>
        <time>2022-03-12T13:10:35.000Z</time>
      </trkpt>
      <trkpt lat="43.66642" lon="7.10098">
        <ele>74.199996948242</ele>
        <time>2022-03-12T13:10:36.000Z</time>
      </trkpt>
      <trkpt lat="43.66642" lon="7.10102">
        <ele>73.400001525879</ele>
        <time>2022-03-12T13:10:37.000Z</time>
      </trkpt>
      <trkpt lat="43.6664" lon="7.10109">
        <ele>71.800003051758</ele>
        <time>2022-03-12T13:10:39.000Z</time>
      </trkpt>
      <trkpt lat="43.66639" lon="7.10111">
        <ele>71.199996948242</ele>
        <time>2022-03-12T13:10:40.000Z</time>
      </trkpt>
      <trkpt lat="43.66639" lon="7.10113">
        <ele>70.599998474121</ele>
        <time>2022-03-12T13:10:41.000Z</time>
      </trkpt>
      <trkpt lat="43.66638" lon="7.10116">
        <ele>69.599998474121</ele>
        <time>2022-03-12T13:10:43.000Z</time>
      </trkpt>
      <trkpt lat="43.66638" lon="7.10119">
        <ele>69</ele>
        <time>2022-03-12T13:10:45.000Z</time>
      </trkpt>
      <trkpt lat="43.66636" lon="7.10126">
        <ele>68.599998474121</ele>
        <time>2022-03-12T13:10:49.000Z</time>
      </trkpt>
      <trkpt lat="43.66635" lon="7.10127">
        <ele>68.599998474121</ele>
        <time>2022-03-12T13:10:50.000Z</time>
      </trkpt>
      <trkpt lat="43.66628" lon="7.10127">
        <ele>69.199996948242</ele>
        <time>2022-03-12T13:10:54.000Z</time>
      </trkpt>
      <trkpt lat="43.66626" lon="7.10128">
        <ele>70</ele>
        <time>2022-03-12T13:10:56.000Z</time>
      </trkpt>
      <trkpt lat="43.66624" lon="7.10129">
        <ele>71.199996948242</ele>
        <time>2022-03-12T13:10:58.000Z</time>
      </trkpt>
      <trkpt lat="43.66622" lon="7.1013">
        <ele>72.199996948242</ele>
        <time>2022-03-12T13:11:00.000Z</time>
      </trkpt>
      <trkpt lat="43.66622" lon="7.10129">
        <ele>73.400001525879</ele>
        <time>2022-03-12T13:11:02.000Z</time>
      </trkpt>
      <trkpt lat="43.66621" lon="7.10129">
        <ele>74.400001525879</ele>
        <time>2022-03-12T13:11:04.000Z</time>
      </trkpt>
      <trkpt lat="43.66618" lon="7.10131">
        <ele>75</ele>
        <time>2022-03-12T13:11:12.000Z</time>
      </trkpt>
      <trkpt lat="43.66614" lon="7.10134">
        <ele>75.599998474121</ele>
        <time>2022-03-12T13:11:15.000Z</time>
      </trkpt>
      <trkpt lat="43.66614" lon="7.10135">
        <ele>75.800003051758</ele>
        <time>2022-03-12T13:11:16.000Z</time>
      </trkpt>
      <trkpt lat="43.66614" lon="7.10137">
        <ele>76</ele>
        <time>2022-03-12T13:11:17.000Z</time>
      </trkpt>
      <trkpt lat="43.66613" lon="7.10144">
        <ele>76.599998474121</ele>
        <time>2022-03-12T13:11:20.000Z</time>
      </trkpt>
      <trkpt lat="43.66612" lon="7.10145">
        <ele>76.800003051758</ele>
        <time>2022-03-12T13:11:21.000Z</time>
      </trkpt>
      <trkpt lat="43.6661" lon="7.10148">
        <ele>78.199996948242</ele>
        <time>2022-03-12T13:11:24.000Z</time>
      </trkpt>
      <trkpt lat="43.66604" lon="7.10153">
        <ele>79.400001525879</ele>
        <time>2022-03-12T13:11:28.000Z</time>
      </trkpt>
      <trkpt lat="43.666" lon="7.10158">
        <ele>80.599998474121</ele>
        <time>2022-03-12T13:11:31.000Z</time>
      </trkpt>
      <trkpt lat="43.66598" lon="7.1016">
        <ele>81</ele>
        <time>2022-03-12T13:11:32.000Z</time>
      </trkpt>
      <trkpt lat="43.66595" lon="7.10163">
        <ele>81.599998474121</ele>
        <time>2022-03-12T13:11:34.000Z</time>
      </trkpt>
      <trkpt lat="43.66591" lon="7.10168">
        <ele>82.800003051758</ele>
        <time>2022-03-12T13:11:37.000Z</time>
      </trkpt>
      <trkpt lat="43.66588" lon="7.10172">
        <ele>84.400001525879</ele>
        <time>2022-03-12T13:11:40.000Z</time>
      </trkpt>
      <trkpt lat="43.66585" lon="7.10176">
        <ele>85.199996948242</ele>
        <time>2022-03-12T13:11:42.000Z</time>
      </trkpt>
      <trkpt lat="43.66583" lon="7.10179">
        <ele>85.599998474121</ele>
        <time>2022-03-12T13:11:43.000Z</time>
      </trkpt>
      <trkpt lat="43.66581" lon="7.10182">
        <ele>86.800003051758</ele>
        <time>2022-03-12T13:11:45.000Z</time>
      </trkpt>
      <trkpt lat="43.66579" lon="7.10183">
        <ele>87.199996948242</ele>
        <time>2022-03-12T13:11:46.000Z</time>
      </trkpt>
      <trkpt lat="43.66579" lon="7.10183">
        <ele>87.800003051758</ele>
        <time>2022-03-12T13:11:47.000Z</time>
      </trkpt>
      <trkpt lat="43.66575" lon="7.10187">
        <ele>88.800003051758</ele>
        <time>2022-03-12T13:11:49.000Z</time>
      </trkpt>
      <trkpt lat="43.66573" lon="7.1019">
        <ele>89.599998474121</ele>
        <time>2022-03-12T13:11:51.000Z</time>
      </trkpt>
      <trkpt lat="43.66571" lon="7.10193">
        <ele>90</ele>
        <time>2022-03-12T13:11:52.000Z</time>
      </trkpt>
      <trkpt lat="43.66571" lon="7.10194">
        <ele>91</ele>
        <time>2022-03-12T13:11:55.000Z</time>
      </trkpt>
      <trkpt lat="43.66571" lon="7.10194">
        <ele>91.199996948242</ele>
        <time>2022-03-12T13:11:57.000Z</time>
      </trkpt>
      <trkpt lat="43.66571" lon="7.10195">
        <ele>91.199996948242</ele>
        <time>2022-03-12T13:12:01.000Z</time>
      </trkpt>
      <trkpt lat="43.6657" lon="7.10196">
        <ele>91</ele>
        <time>2022-03-12T13:12:09.000Z</time>
      </trkpt>
      <trkpt lat="43.66568" lon="7.10199">
        <ele>91</ele>
        <time>2022-03-12T13:12:11.000Z</time>
      </trkpt>
      <trkpt lat="43.66567" lon="7.102">
        <ele>91</ele>
        <time>2022-03-12T13:12:12.000Z</time>
      </trkpt>
      <trkpt lat="43.66561" lon="7.10206">
        <ele>92.400001525879</ele>
        <time>2022-03-12T13:12:16.000Z</time>
      </trkpt>
      <trkpt lat="43.66559" lon="7.10208">
        <ele>92.599998474121</ele>
        <time>2022-03-12T13:12:17.000Z</time>
      </trkpt>
      <trkpt lat="43.66555" lon="7.10214">
        <ele>93.400001525879</ele>
        <time>2022-03-12T13:12:19.000Z</time>
      </trkpt>
      <trkpt lat="43.6655" lon="7.10221">
        <ele>94.599998474121</ele>
        <time>2022-03-12T13:12:22.000Z</time>
      </trkpt>
      <trkpt lat="43.66547" lon="7.10226">
        <ele>95.800003051758</ele>
        <time>2022-03-12T13:12:25.000Z</time>
      </trkpt>
      <trkpt lat="43.66545" lon="7.10226">
        <ele>96.199996948242</ele>
        <time>2022-03-12T13:12:26.000Z</time>
      </trkpt>
      <trkpt lat="43.66546" lon="7.10226">
        <ele>96.400001525879</ele>
        <time>2022-03-12T13:12:27.000Z</time>
      </trkpt>
      <trkpt lat="43.66541" lon="7.1023">
        <ele>96.599998474121</ele>
        <time>2022-03-12T13:12:30.000Z</time>
      </trkpt>
      <trkpt lat="43.66541" lon="7.1023">
        <ele>97</ele>
        <time>2022-03-12T13:12:32.000Z</time>
      </trkpt>
      <trkpt lat="43.6654" lon="7.10231">
        <ele>97.599998474121</ele>
        <time>2022-03-12T13:12:36.000Z</time>
      </trkpt>
      <trkpt lat="43.66538" lon="7.10232">
        <ele>98</ele>
        <time>2022-03-12T13:12:38.000Z</time>
      </trkpt>
      <trkpt lat="43.66538" lon="7.10233">
        <ele>98.199996948242</ele>
        <time>2022-03-12T13:12:39.000Z</time>
      </trkpt>
      <trkpt lat="43.66536" lon="7.10234">
        <ele>98.400001525879</ele>
        <time>2022-03-12T13:12:41.000Z</time>
      </trkpt>
      <trkpt lat="43.66535" lon="7.10236">
        <ele>99</ele>
        <time>2022-03-12T13:12:45.000Z</time>
      </trkpt>
      <trkpt lat="43.66535" lon="7.10236">
        <ele>99</ele>
        <time>2022-03-12T13:12:48.000Z</time>
      </trkpt>
      <trkpt lat="43.66529" lon="7.10241">
        <ele>99.199996948242</ele>
        <time>2022-03-12T13:12:52.000Z</time>
      </trkpt>
      <trkpt lat="43.66522" lon="7.10251">
        <ele>100.19999694824</ele>
        <time>2022-03-12T13:12:56.000Z</time>
      </trkpt>
      <trkpt lat="43.66521" lon="7.10253">
        <ele>100.59999847412</ele>
        <time>2022-03-12T13:12:57.000Z</time>
      </trkpt>
      <trkpt lat="43.66516" lon="7.10259">
        <ele>101.40000152588</ele>
        <time>2022-03-12T13:13:00.000Z</time>
      </trkpt>
      <trkpt lat="43.66515" lon="7.1026">
        <ele>102.40000152588</ele>
        <time>2022-03-12T13:13:01.000Z</time>
      </trkpt>
      <trkpt lat="43.66515" lon="7.1026">
        <ele>104.19999694824</ele>
        <time>2022-03-12T13:13:03.000Z</time>
      </trkpt>
      <trkpt lat="43.66514" lon="7.10261">
        <ele>105.59999847412</ele>
        <time>2022-03-12T13:13:05.000Z</time>
      </trkpt>
      <trkpt lat="43.66513" lon="7.10262">
        <ele>106.19999694824</ele>
        <time>2022-03-12T13:13:06.000Z</time>
      </trkpt>
      <trkpt lat="43.66513" lon="7.10263">
        <ele>106.80000305176</ele>
        <time>2022-03-12T13:13:10.000Z</time>
      </trkpt>
      <trkpt lat="43.66511" lon="7.10265">
        <ele>107</ele>
        <time>2022-03-12T13:13:14.000Z</time>
      </trkpt>
      <trkpt lat="43.66501" lon="7.10277">
        <ele>107.59999847412</ele>
        <time>2022-03-12T13:13:19.000Z</time>
      </trkpt>
      <trkpt lat="43.66499" lon="7.10278">
        <ele>107.80000305176</ele>
        <time>2022-03-12T13:13:20.000Z</time>
      </trkpt>
      <trkpt lat="43.66496" lon="7.10276">
        <ele>109.19999694824</ele>
        <time>2022-03-12T13:13:22.000Z</time>
      </trkpt>
      <trkpt lat="43.66495" lon="7.10274">
        <ele>109.80000305176</ele>
        <time>2022-03-12T13:13:23.000Z</time>
      </trkpt>
      <trkpt lat="43.66494" lon="7.10273">
        <ele>110.40000152588</ele>
        <time>2022-03-12T13:13:24.000Z</time>
      </trkpt>
      <trkpt lat="43.66494" lon="7.10273">
        <ele>110.80000305176</ele>
        <time>2022-03-12T13:13:27.000Z</time>
      </trkpt>
      <trkpt lat="43.66493" lon="7.10273">
        <ele>110.59999847412</ele>
        <time>2022-03-12T13:13:40.000Z</time>
      </trkpt>
      <trkpt lat="43.66492" lon="7.10272">
        <ele>110.80000305176</ele>
        <time>2022-03-12T13:13:45.000Z</time>
      </trkpt>
      <trkpt lat="43.66491" lon="7.10273">
        <ele>111</ele>
        <time>2022-03-12T13:13:53.000Z</time>
      </trkpt>
      <trkpt lat="43.66488" lon="7.10274">
        <ele>111</ele>
        <time>2022-03-12T13:14:07.000Z</time>
      </trkpt>
      <trkpt lat="43.66487" lon="7.10274">
        <ele>111</ele>
        <time>2022-03-12T13:14:08.000Z</time>
      </trkpt>
      <trkpt lat="43.66486" lon="7.10275">
        <ele>111.40000152588</ele>
        <time>2022-03-12T13:14:13.000Z</time>
      </trkpt>
      <trkpt lat="43.66486" lon="7.10275">
        <ele>111.80000305176</ele>
        <time>2022-03-12T13:14:14.000Z</time>
      </trkpt>
      <trkpt lat="43.66485" lon="7.10276">
        <ele>112.59999847412</ele>
        <time>2022-03-12T13:14:19.000Z</time>
      </trkpt>
      <trkpt lat="43.66485" lon="7.10277">
        <ele>112.80000305176</ele>
        <time>2022-03-12T13:14:21.000Z</time>
      </trkpt>
      <trkpt lat="43.66484" lon="7.1028">
        <ele>113.19999694824</ele>
        <time>2022-03-12T13:14:27.000Z</time>
      </trkpt>
      <trkpt lat="43.66483" lon="7.10283">
        <ele>113.40000152588</ele>
        <time>2022-03-12T13:14:33.000Z</time>
      </trkpt>
      <trkpt lat="43.66483" lon="7.10284">
        <ele>113.59999847412</ele>
        <time>2022-03-12T13:14:34.000Z</time>
      </trkpt>
      <trkpt lat="43.66481" lon="7.10285">
        <ele>114</ele>
        <time>2022-03-12T13:14:39.000Z</time>
      </trkpt>
      <trkpt lat="43.6648" lon="7.10286">
        <ele>114.59999847412</ele>
        <time>2022-03-12T13:14:43.000Z</time>
      </trkpt>
      <trkpt lat="43.6648" lon="7.10286">
        <ele>114.59999847412</ele>
        <time>2022-03-12T13:14:45.000Z</time>
      </trkpt>
      <trkpt lat="43.66473" lon="7.10291">
        <ele>114.59999847412</ele>
        <time>2022-03-12T13:14:48.000Z</time>
      </trkpt>
      <trkpt lat="43.66465" lon="7.10303">
        <ele>115.59999847412</ele>
        <time>2022-03-12T13:14:52.000Z</time>
      </trkpt>
      <trkpt lat="43.66463" lon="7.10304">
        <ele>115.80000305176</ele>
        <time>2022-03-12T13:14:53.000Z</time>
      </trkpt>
      <trkpt lat="43.66454" lon="7.10308">
        <ele>116</ele>
        <time>2022-03-12T13:14:58.000Z</time>
      </trkpt>
      <trkpt lat="43.66452" lon="7.10308">
        <ele>116</ele>
        <time>2022-03-12T13:14:59.000Z</time>
      </trkpt>
      <trkpt lat="43.66447" lon="7.10309">
        <ele>116.40000152588</ele>
        <time>2022-03-12T13:15:02.000Z</time>
      </trkpt>
      <trkpt lat="43.66441" lon="7.10312">
        <ele>116.80000305176</ele>
        <time>2022-03-12T13:15:05.000Z</time>
      </trkpt>
      <trkpt lat="43.66439" lon="7.10312">
        <ele>116.80000305176</ele>
        <time>2022-03-12T13:15:06.000Z</time>
      </trkpt>
      <trkpt lat="43.66431" lon="7.10316">
        <ele>117.80000305176</ele>
        <time>2022-03-12T13:15:10.000Z</time>
      </trkpt>
      <trkpt lat="43.6643" lon="7.10317">
        <ele>118</ele>
        <time>2022-03-12T13:15:11.000Z</time>
      </trkpt>
      <trkpt lat="43.66422" lon="7.10324">
        <ele>118.40000152588</ele>
        <time>2022-03-12T13:15:14.000Z</time>
      </trkpt>
      <trkpt lat="43.66418" lon="7.10329">
        <ele>119</ele>
        <time>2022-03-12T13:15:16.000Z</time>
      </trkpt>
      <trkpt lat="43.66415" lon="7.10331">
        <ele>120</ele>
        <time>2022-03-12T13:15:18.000Z</time>
      </trkpt>
      <trkpt lat="43.66411" lon="7.10331">
        <ele>120.59999847412</ele>
        <time>2022-03-12T13:15:19.000Z</time>
      </trkpt>
      <trkpt lat="43.66409" lon="7.1033">
        <ele>121.19999694824</ele>
        <time>2022-03-12T13:15:20.000Z</time>
      </trkpt>
      <trkpt lat="43.66403" lon="7.1033">
        <ele>122.59999847412</ele>
        <time>2022-03-12T13:15:22.000Z</time>
      </trkpt>
      <trkpt lat="43.66398" lon="7.1033">
        <ele>123.40000152588</ele>
        <time>2022-03-12T13:15:24.000Z</time>
      </trkpt>
      <trkpt lat="43.66395" lon="7.1033">
        <ele>124</ele>
        <time>2022-03-12T13:15:26.000Z</time>
      </trkpt>
      <trkpt lat="43.66386" lon="7.10331">
        <ele>125</ele>
        <time>2022-03-12T13:15:30.000Z</time>
      </trkpt>
      <trkpt lat="43.66379" lon="7.10331">
        <ele>125.59999847412</ele>
        <time>2022-03-12T13:15:33.000Z</time>
      </trkpt>
      <trkpt lat="43.66377" lon="7.10331">
        <ele>126</ele>
        <time>2022-03-12T13:15:34.000Z</time>
      </trkpt>
      <trkpt lat="43.66377" lon="7.1033">
        <ele>126.19999694824</ele>
        <time>2022-03-12T13:15:35.000Z</time>
      </trkpt>
      <trkpt lat="43.66372" lon="7.1033">
        <ele>127.19999694824</ele>
        <time>2022-03-12T13:15:38.000Z</time>
      </trkpt>
      <trkpt lat="43.66364" lon="7.1033">
        <ele>128.39999389648</ele>
        <time>2022-03-12T13:15:41.000Z</time>
      </trkpt>
      <trkpt lat="43.66358" lon="7.10331">
        <ele>128.60000610352</ele>
        <time>2022-03-12T13:15:43.000Z</time>
      </trkpt>
      <trkpt lat="43.66345" lon="7.10336">
        <ele>129.60000610352</ele>
        <time>2022-03-12T13:15:48.000Z</time>
      </trkpt>
      <trkpt lat="43.66342" lon="7.10337">
        <ele>130</ele>
        <time>2022-03-12T13:15:49.000Z</time>
      </trkpt>
      <trkpt lat="43.66336" lon="7.10338">
        <ele>130.39999389648</ele>
        <time>2022-03-12T13:15:51.000Z</time>
      </trkpt>
      <trkpt lat="43.66334" lon="7.10339">
        <ele>130.80000305176</ele>
        <time>2022-03-12T13:15:52.000Z</time>
      </trkpt>
      <trkpt lat="43.66329" lon="7.10341">
        <ele>130.80000305176</ele>
        <time>2022-03-12T13:15:54.000Z</time>
      </trkpt>
      <trkpt lat="43.66319" lon="7.10346">
        <ele>131.39999389648</ele>
        <time>2022-03-12T13:15:58.000Z</time>
      </trkpt>
      <trkpt lat="43.66316" lon="7.10346">
        <ele>131.60000610352</ele>
        <time>2022-03-12T13:15:59.000Z</time>
      </trkpt>
      <trkpt lat="43.66315" lon="7.10348">
        <ele>132</ele>
        <time>2022-03-12T13:16:00.000Z</time>
      </trkpt>
      <trkpt lat="43.66308" lon="7.10355">
        <ele>132.19999694824</ele>
        <time>2022-03-12T13:16:03.000Z</time>
      </trkpt>
      <trkpt lat="43.66294" lon="7.10363">
        <ele>132.60000610352</ele>
        <time>2022-03-12T13:16:09.000Z</time>
      </trkpt>
      <trkpt lat="43.66289" lon="7.10365">
        <ele>132.80000305176</ele>
        <time>2022-03-12T13:16:11.000Z</time>
      </trkpt>
      <trkpt lat="43.66285" lon="7.1037">
        <ele>133</ele>
        <time>2022-03-12T13:16:14.000Z</time>
      </trkpt>
      <trkpt lat="43.66275" lon="7.10378">
        <ele>133.80000305176</ele>
        <time>2022-03-12T13:16:19.000Z</time>
      </trkpt>
      <trkpt lat="43.66273" lon="7.1038">
        <ele>134.39999389648</ele>
        <time>2022-03-12T13:16:20.000Z</time>
      </trkpt>
      <trkpt lat="43.66266" lon="7.10385">
        <ele>135.60000610352</ele>
        <time>2022-03-12T13:16:23.000Z</time>
      </trkpt>
      <trkpt lat="43.6626" lon="7.10386">
        <ele>136.60000610352</ele>
        <time>2022-03-12T13:16:25.000Z</time>
      </trkpt>
      <trkpt lat="43.66258" lon="7.10388">
        <ele>137.19999694824</ele>
        <time>2022-03-12T13:16:26.000Z</time>
      </trkpt>
      <trkpt lat="43.66252" lon="7.10395">
        <ele>138</ele>
        <time>2022-03-12T13:16:30.000Z</time>
      </trkpt>
      <trkpt lat="43.6625" lon="7.10398">
        <ele>138.19999694824</ele>
        <time>2022-03-12T13:16:31.000Z</time>
      </trkpt>
      <trkpt lat="43.66246" lon="7.10404">
        <ele>139.39999389648</ele>
        <time>2022-03-12T13:16:34.000Z</time>
      </trkpt>
      <trkpt lat="43.66244" lon="7.1041">
        <ele>140.39999389648</ele>
        <time>2022-03-12T13:16:36.000Z</time>
      </trkpt>
      <trkpt lat="43.66243" lon="7.10413">
        <ele>140.80000305176</ele>
        <time>2022-03-12T13:16:37.000Z</time>
      </trkpt>
      <trkpt lat="43.66239" lon="7.10421">
        <ele>142.19999694824</ele>
        <time>2022-03-12T13:16:41.000Z</time>
      </trkpt>
      <trkpt lat="43.66239" lon="7.10421">
        <ele>143</ele>
        <time>2022-03-12T13:16:43.000Z</time>
      </trkpt>
      <trkpt lat="43.66239" lon="7.10421">
        <ele>143.19999694824</ele>
        <time>2022-03-12T13:16:44.000Z</time>
      </trkpt>
      <trkpt lat="43.66238" lon="7.10421">
        <ele>143</ele>
        <time>2022-03-12T13:17:03.000Z</time>
      </trkpt>
      <trkpt lat="43.66234" lon="7.10431">
        <ele>143.80000305176</ele>
        <time>2022-03-12T13:17:14.000Z</time>
      </trkpt>
      <trkpt lat="43.66233" lon="7.10437">
        <ele>144.19999694824</ele>
        <time>2022-03-12T13:17:16.000Z</time>
      </trkpt>
      <trkpt lat="43.66231" lon="7.10448">
        <ele>145</ele>
        <time>2022-03-12T13:17:19.000Z</time>
      </trkpt>
      <trkpt lat="43.66229" lon="7.10454">
        <ele>145.39999389648</ele>
        <time>2022-03-12T13:17:21.000Z</time>
      </trkpt>
      <trkpt lat="43.66226" lon="7.10466">
        <ele>145.60000610352</ele>
        <time>2022-03-12T13:17:24.000Z</time>
      </trkpt>
      <trkpt lat="43.66224" lon="7.10478">
        <ele>146.60000610352</ele>
        <time>2022-03-12T13:17:28.000Z</time>
      </trkpt>
      <trkpt lat="43.66223" lon="7.10488">
        <ele>148</ele>
        <time>2022-03-12T13:17:31.000Z</time>
      </trkpt>
      <trkpt lat="43.6622" lon="7.10514">
        <ele>149</ele>
        <time>2022-03-12T13:17:37.000Z</time>
      </trkpt>
      <trkpt lat="43.66219" lon="7.10519">
        <ele>149.19999694824</ele>
        <time>2022-03-12T13:17:38.000Z</time>
      </trkpt>
      <trkpt lat="43.66211" lon="7.10547">
        <ele>149.39999389648</ele>
        <time>2022-03-12T13:17:44.000Z</time>
      </trkpt>
      <trkpt lat="43.662" lon="7.10567">
        <ele>149</ele>
        <time>2022-03-12T13:17:49.000Z</time>
      </trkpt>
      <trkpt lat="43.6619" lon="7.10581">
        <ele>149.60000610352</ele>
        <time>2022-03-12T13:17:55.000Z</time>
      </trkpt>
      <trkpt lat="43.6619" lon="7.10581">
        <ele>149.60000610352</ele>
        <time>2022-03-12T13:17:59.000Z</time>
      </trkpt>
      <trkpt lat="43.6619" lon="7.10581">
        <ele>150.39999389648</ele>
        <time>2022-03-12T13:18:06.000Z</time>
      </trkpt>
      <trkpt lat="43.6619" lon="7.10581">
        <ele>150.39999389648</ele>
        <time>2022-03-12T13:18:07.000Z</time>
      </trkpt>
      <trkpt lat="43.66186" lon="7.1059">
        <ele>149.80000305176</ele>
        <time>2022-03-12T13:18:12.000Z</time>
      </trkpt>
      <trkpt lat="43.66186" lon="7.10594">
        <ele>150.19999694824</ele>
        <time>2022-03-12T13:18:15.000Z</time>
      </trkpt>
      <trkpt lat="43.66187" lon="7.10595">
        <ele>150.19999694824</ele>
        <time>2022-03-12T13:18:16.000Z</time>
      </trkpt>
      <trkpt lat="43.66188" lon="7.10598">
        <ele>150.80000305176</ele>
        <time>2022-03-12T13:18:20.000Z</time>
      </trkpt>
      <trkpt lat="43.66188" lon="7.10598">
        <ele>151.60000610352</ele>
        <time>2022-03-12T13:18:23.000Z</time>
      </trkpt>
      <trkpt lat="43.66191" lon="7.10596">
        <ele>152</ele>
        <time>2022-03-12T13:18:26.000Z</time>
      </trkpt>
      <trkpt lat="43.66202" lon="7.10591">
        <ele>152.39999389648</ele>
        <time>2022-03-12T13:18:31.000Z</time>
      </trkpt>
      <trkpt lat="43.66204" lon="7.10588">
        <ele>152.80000305176</ele>
        <time>2022-03-12T13:18:32.000Z</time>
      </trkpt>
      <trkpt lat="43.6621" lon="7.10582">
        <ele>154</ele>
        <time>2022-03-12T13:18:35.000Z</time>
      </trkpt>
      <trkpt lat="43.66212" lon="7.10581">
        <ele>154.39999389648</ele>
        <time>2022-03-12T13:18:36.000Z</time>
      </trkpt>
      <trkpt lat="43.66224" lon="7.10577">
        <ele>155.39999389648</ele>
        <time>2022-03-12T13:18:40.000Z</time>
      </trkpt>
      <trkpt lat="43.66226" lon="7.10576">
        <ele>155.39999389648</ele>
        <time>2022-03-12T13:18:41.000Z</time>
      </trkpt>
      <trkpt lat="43.66234" lon="7.10573">
        <ele>156.60000610352</ele>
        <time>2022-03-12T13:18:45.000Z</time>
      </trkpt>
      <trkpt lat="43.66235" lon="7.1057">
        <ele>157</ele>
        <time>2022-03-12T13:18:46.000Z</time>
      </trkpt>
      <trkpt lat="43.66239" lon="7.10562">
        <ele>158</ele>
        <time>2022-03-12T13:18:48.000Z</time>
      </trkpt>
      <trkpt lat="43.66245" lon="7.10553">
        <ele>158.80000305176</ele>
        <time>2022-03-12T13:18:51.000Z</time>
      </trkpt>
      <trkpt lat="43.66251" lon="7.10549">
        <ele>159.19999694824</ele>
        <time>2022-03-12T13:18:53.000Z</time>
      </trkpt>
      <trkpt lat="43.66251" lon="7.10547">
        <ele>159.39999389648</ele>
        <time>2022-03-12T13:18:54.000Z</time>
      </trkpt>
      <trkpt lat="43.66253" lon="7.10544">
        <ele>159.80000305176</ele>
        <time>2022-03-12T13:18:55.000Z</time>
      </trkpt>
      <trkpt lat="43.66255" lon="7.10543">
        <ele>160</ele>
        <time>2022-03-12T13:18:56.000Z</time>
      </trkpt>
      <trkpt lat="43.66259" lon="7.10544">
        <ele>160.19999694824</ele>
        <time>2022-03-12T13:18:57.000Z</time>
      </trkpt>
      <trkpt lat="43.66261" lon="7.10544">
        <ele>160.39999389648</ele>
        <time>2022-03-12T13:18:58.000Z</time>
      </trkpt>
      <trkpt lat="43.66274" lon="7.10542">
        <ele>161.39999389648</ele>
        <time>2022-03-12T13:19:03.000Z</time>
      </trkpt>
      <trkpt lat="43.66275" lon="7.10541">
        <ele>161.80000305176</ele>
        <time>2022-03-12T13:19:04.000Z</time>
      </trkpt>
      <trkpt lat="43.66276" lon="7.10534">
        <ele>162.60000610352</ele>
        <time>2022-03-12T13:19:06.000Z</time>
      </trkpt>
      <trkpt lat="43.66286" lon="7.10524">
        <ele>163.19999694824</ele>
        <time>2022-03-12T13:19:10.000Z</time>
      </trkpt>
      <trkpt lat="43.66289" lon="7.10525">
        <ele>163.19999694824</ele>
        <time>2022-03-12T13:19:11.000Z</time>
      </trkpt>
      <trkpt lat="43.66297" lon="7.1053">
        <ele>163.19999694824</ele>
        <time>2022-03-12T13:19:14.000Z</time>
      </trkpt>
      <trkpt lat="43.66299" lon="7.10531">
        <ele>163.19999694824</ele>
        <time>2022-03-12T13:19:15.000Z</time>
      </trkpt>
      <trkpt lat="43.66305" lon="7.10531">
        <ele>163.80000305176</ele>
        <time>2022-03-12T13:19:18.000Z</time>
      </trkpt>
      <trkpt lat="43.66306" lon="7.10529">
        <ele>164</ele>
        <time>2022-03-12T13:19:19.000Z</time>
      </trkpt>
      <trkpt lat="43.66313" lon="7.10529">
        <ele>164.60000610352</ele>
        <time>2022-03-12T13:19:23.000Z</time>
      </trkpt>
      <trkpt lat="43.66315" lon="7.10528">
        <ele>164.60000610352</ele>
        <time>2022-03-12T13:19:24.000Z</time>
      </trkpt>
      <trkpt lat="43.66322" lon="7.10522">
        <ele>164.80000305176</ele>
        <time>2022-03-12T13:19:27.000Z</time>
      </trkpt>
      <trkpt lat="43.66325" lon="7.1052">
        <ele>165</ele>
        <time>2022-03-12T13:19:28.000Z</time>
      </trkpt>
      <trkpt lat="43.66327" lon="7.10519">
        <ele>165.19999694824</ele>
        <time>2022-03-12T13:19:29.000Z</time>
      </trkpt>
      <trkpt lat="43.66331" lon="7.10515">
        <ele>165.80000305176</ele>
        <time>2022-03-12T13:19:31.000Z</time>
      </trkpt>
      <trkpt lat="43.66339" lon="7.10508">
        <ele>167</ele>
        <time>2022-03-12T13:19:35.000Z</time>
      </trkpt>
      <trkpt lat="43.66349" lon="7.10502">
        <ele>168.19999694824</ele>
        <time>2022-03-12T13:19:39.000Z</time>
      </trkpt>
      <trkpt lat="43.66351" lon="7.10501">
        <ele>168.60000610352</ele>
        <time>2022-03-12T13:19:40.000Z</time>
      </trkpt>
      <trkpt lat="43.6636" lon="7.10499">
        <ele>169.39999389648</ele>
        <time>2022-03-12T13:19:43.000Z</time>
      </trkpt>
      <trkpt lat="43.66368" lon="7.10498">
        <ele>169.19999694824</ele>
        <time>2022-03-12T13:19:46.000Z</time>
      </trkpt>
      <trkpt lat="43.66381" lon="7.105">
        <ele>170.39999389648</ele>
        <time>2022-03-12T13:19:52.000Z</time>
      </trkpt>
      <trkpt lat="43.66394" lon="7.10499">
        <ele>170.60000610352</ele>
        <time>2022-03-12T13:19:59.000Z</time>
      </trkpt>
      <trkpt lat="43.66405" lon="7.10501">
        <ele>170.60000610352</ele>
        <time>2022-03-12T13:20:05.000Z</time>
      </trkpt>
      <trkpt lat="43.66416" lon="7.105">
        <ele>170.39999389648</ele>
        <time>2022-03-12T13:20:11.000Z</time>
      </trkpt>
      <trkpt lat="43.66416" lon="7.10501">
        <ele>169.19999694824</ele>
        <time>2022-03-12T13:20:14.000Z</time>
      </trkpt>
      <trkpt lat="43.66416" lon="7.10502">
        <ele>169</ele>
        <time>2022-03-12T13:20:15.000Z</time>
      </trkpt>
      <trkpt lat="43.66419" lon="7.10501">
        <ele>168.60000610352</ele>
        <time>2022-03-12T13:20:20.000Z</time>
      </trkpt>
      <trkpt lat="43.66423" lon="7.10502">
        <ele>168.80000305176</ele>
        <time>2022-03-12T13:20:23.000Z</time>
      </trkpt>
      <trkpt lat="43.66427" lon="7.10502">
        <ele>169</ele>
        <time>2022-03-12T13:20:25.000Z</time>
      </trkpt>
      <trkpt lat="43.66437" lon="7.10503">
        <ele>168</ele>
        <time>2022-03-12T13:20:28.000Z</time>
      </trkpt>
      <trkpt lat="43.6644" lon="7.10503">
        <ele>167.80000305176</ele>
        <time>2022-03-12T13:20:29.000Z</time>
      </trkpt>
      <trkpt lat="43.66444" lon="7.10504">
        <ele>167.60000610352</ele>
        <time>2022-03-12T13:20:30.000Z</time>
      </trkpt>
      <trkpt lat="43.66453" lon="7.10504">
        <ele>167</ele>
        <time>2022-03-12T13:20:32.000Z</time>
      </trkpt>
      <trkpt lat="43.6646" lon="7.10502">
        <ele>166.80000305176</ele>
        <time>2022-03-12T13:20:35.000Z</time>
      </trkpt>
      <trkpt lat="43.66472" lon="7.10497">
        <ele>166.19999694824</ele>
        <time>2022-03-12T13:20:39.000Z</time>
      </trkpt>
      <trkpt lat="43.66474" lon="7.10495">
        <ele>166</ele>
        <time>2022-03-12T13:20:40.000Z</time>
      </trkpt>
      <trkpt lat="43.66482" lon="7.10488">
        <ele>165</ele>
        <time>2022-03-12T13:20:44.000Z</time>
      </trkpt>
      <trkpt lat="43.66483" lon="7.10487">
        <ele>164.60000610352</ele>
        <time>2022-03-12T13:20:45.000Z</time>
      </trkpt>
      <trkpt lat="43.66484" lon="7.10486">
        <ele>164</ele>
        <time>2022-03-12T13:20:46.000Z</time>
      </trkpt>
      <trkpt lat="43.66485" lon="7.10483">
        <ele>163.19999694824</ele>
        <time>2022-03-12T13:20:47.000Z</time>
      </trkpt>
      <trkpt lat="43.66488" lon="7.10481">
        <ele>162.80000305176</ele>
        <time>2022-03-12T13:20:48.000Z</time>
      </trkpt>
      <trkpt lat="43.6649" lon="7.10481">
        <ele>162</ele>
        <time>2022-03-12T13:20:50.000Z</time>
      </trkpt>
      <trkpt lat="43.66496" lon="7.10479">
        <ele>161.60000610352</ele>
        <time>2022-03-12T13:20:52.000Z</time>
      </trkpt>
      <trkpt lat="43.66503" lon="7.10481">
        <ele>160.60000610352</ele>
        <time>2022-03-12T13:20:54.000Z</time>
      </trkpt>
      <trkpt lat="43.66505" lon="7.1048">
        <ele>159.80000305176</ele>
        <time>2022-03-12T13:20:55.000Z</time>
      </trkpt>
      <trkpt lat="43.66506" lon="7.10477">
        <ele>159</ele>
        <time>2022-03-12T13:20:56.000Z</time>
      </trkpt>
      <trkpt lat="43.66513" lon="7.10479">
        <ele>158.19999694824</ele>
        <time>2022-03-12T13:20:58.000Z</time>
      </trkpt>
      <trkpt lat="43.66516" lon="7.1048">
        <ele>157.80000305176</ele>
        <time>2022-03-12T13:20:59.000Z</time>
      </trkpt>
      <trkpt lat="43.66523" lon="7.1048">
        <ele>157.39999389648</ele>
        <time>2022-03-12T13:21:01.000Z</time>
      </trkpt>
      <trkpt lat="43.66525" lon="7.10481">
        <ele>156.60000610352</ele>
        <time>2022-03-12T13:21:02.000Z</time>
      </trkpt>
      <trkpt lat="43.66527" lon="7.1048">
        <ele>155.19999694824</ele>
        <time>2022-03-12T13:21:04.000Z</time>
      </trkpt>
      <trkpt lat="43.66528" lon="7.10477">
        <ele>154.19999694824</ele>
        <time>2022-03-12T13:21:06.000Z</time>
      </trkpt>
      <trkpt lat="43.66529" lon="7.10473">
        <ele>154</ele>
        <time>2022-03-12T13:21:07.000Z</time>
      </trkpt>
      <trkpt lat="43.66529" lon="7.1047">
        <ele>153.80000305176</ele>
        <time>2022-03-12T13:21:08.000Z</time>
      </trkpt>
      <trkpt lat="43.66529" lon="7.10466">
        <ele>153.19999694824</ele>
        <time>2022-03-12T13:21:09.000Z</time>
      </trkpt>
      <trkpt lat="43.66528" lon="7.10464">
        <ele>152.80000305176</ele>
        <time>2022-03-12T13:21:10.000Z</time>
      </trkpt>
      <trkpt lat="43.66526" lon="7.10458">
        <ele>151.39999389648</ele>
        <time>2022-03-12T13:21:12.000Z</time>
      </trkpt>
      <trkpt lat="43.66525" lon="7.1045">
        <ele>150.19999694824</ele>
        <time>2022-03-12T13:21:14.000Z</time>
      </trkpt>
      <trkpt lat="43.66524" lon="7.10446">
        <ele>148.80000305176</ele>
        <time>2022-03-12T13:21:16.000Z</time>
      </trkpt>
      <trkpt lat="43.66522" lon="7.1044">
        <ele>147.80000305176</ele>
        <time>2022-03-12T13:21:18.000Z</time>
      </trkpt>
      <trkpt lat="43.66522" lon="7.10434">
        <ele>146.80000305176</ele>
        <time>2022-03-12T13:21:20.000Z</time>
      </trkpt>
      <trkpt lat="43.66521" lon="7.10431">
        <ele>146.39999389648</ele>
        <time>2022-03-12T13:21:21.000Z</time>
      </trkpt>
      <trkpt lat="43.66522" lon="7.10429">
        <ele>145.39999389648</ele>
        <time>2022-03-12T13:21:22.000Z</time>
      </trkpt>
      <trkpt lat="43.66521" lon="7.10423">
        <ele>143.60000610352</ele>
        <time>2022-03-12T13:21:24.000Z</time>
      </trkpt>
      <trkpt lat="43.66521" lon="7.10421">
        <ele>142.19999694824</ele>
        <time>2022-03-12T13:21:25.000Z</time>
      </trkpt>
      <trkpt lat="43.66521" lon="7.10418">
        <ele>141.19999694824</ele>
        <time>2022-03-12T13:21:26.000Z</time>
      </trkpt>
      <trkpt lat="43.66521" lon="7.10418">
        <ele>140.19999694824</ele>
        <time>2022-03-12T13:21:27.000Z</time>
      </trkpt>
      <trkpt lat="43.66521" lon="7.10419">
        <ele>139</ele>
        <time>2022-03-12T13:21:28.000Z</time>
      </trkpt>
      <trkpt lat="43.6652" lon="7.10419">
        <ele>137.80000305176</ele>
        <time>2022-03-12T13:21:30.000Z</time>
      </trkpt>
      <trkpt lat="43.6652" lon="7.10418">
        <ele>137.19999694824</ele>
        <time>2022-03-12T13:21:32.000Z</time>
      </trkpt>
      <trkpt lat="43.66519" lon="7.10414">
        <ele>137</ele>
        <time>2022-03-12T13:21:39.000Z</time>
      </trkpt>
      <trkpt lat="43.66518" lon="7.10411">
        <ele>136.80000305176</ele>
        <time>2022-03-12T13:21:41.000Z</time>
      </trkpt>
      <trkpt lat="43.66517" lon="7.10404">
        <ele>136.19999694824</ele>
        <time>2022-03-12T13:21:43.000Z</time>
      </trkpt>
      <trkpt lat="43.66517" lon="7.104">
        <ele>135.80000305176</ele>
        <time>2022-03-12T13:21:44.000Z</time>
      </trkpt>
      <trkpt lat="43.66518" lon="7.10399">
        <ele>135</ele>
        <time>2022-03-12T13:21:45.000Z</time>
      </trkpt>
      <trkpt lat="43.66519" lon="7.10395">
        <ele>133.39999389648</ele>
        <time>2022-03-12T13:21:47.000Z</time>
      </trkpt>
      <trkpt lat="43.66518" lon="7.10395">
        <ele>131.60000610352</ele>
        <time>2022-03-12T13:21:49.000Z</time>
      </trkpt>
      <trkpt lat="43.66519" lon="7.10395">
        <ele>130.39999389648</ele>
        <time>2022-03-12T13:21:51.000Z</time>
      </trkpt>
      <trkpt lat="43.6652" lon="7.10393">
        <ele>129.60000610352</ele>
        <time>2022-03-12T13:21:57.000Z</time>
      </trkpt>
      <trkpt lat="43.66523" lon="7.1039">
        <ele>129.60000610352</ele>
        <time>2022-03-12T13:21:59.000Z</time>
      </trkpt>
      <trkpt lat="43.66525" lon="7.1039">
        <ele>129.39999389648</ele>
        <time>2022-03-12T13:22:00.000Z</time>
      </trkpt>
      <trkpt lat="43.66532" lon="7.10391">
        <ele>127.40000152588</ele>
        <time>2022-03-12T13:22:03.000Z</time>
      </trkpt>
      <trkpt lat="43.66538" lon="7.10392">
        <ele>126</ele>
        <time>2022-03-12T13:22:05.000Z</time>
      </trkpt>
      <trkpt lat="43.66539" lon="7.10393">
        <ele>125.40000152588</ele>
        <time>2022-03-12T13:22:06.000Z</time>
      </trkpt>
      <trkpt lat="43.66541" lon="7.10395">
        <ele>124.19999694824</ele>
        <time>2022-03-12T13:22:07.000Z</time>
      </trkpt>
      <trkpt lat="43.66547" lon="7.10396">
        <ele>122.80000305176</ele>
        <time>2022-03-12T13:22:09.000Z</time>
      </trkpt>
      <trkpt lat="43.66552" lon="7.10395">
        <ele>121.40000152588</ele>
        <time>2022-03-12T13:22:11.000Z</time>
      </trkpt>
      <trkpt lat="43.66554" lon="7.10395">
        <ele>120.80000305176</ele>
        <time>2022-03-12T13:22:12.000Z</time>
      </trkpt>
      <trkpt lat="43.66555" lon="7.10394">
        <ele>120.19999694824</ele>
        <time>2022-03-12T13:22:13.000Z</time>
      </trkpt>
      <trkpt lat="43.66557" lon="7.10391">
        <ele>119</ele>
        <time>2022-03-12T13:22:15.000Z</time>
      </trkpt>
      <trkpt lat="43.66558" lon="7.10389">
        <ele>118.80000305176</ele>
        <time>2022-03-12T13:22:16.000Z</time>
      </trkpt>
      <trkpt lat="43.66557" lon="7.10386">
        <ele>118.19999694824</ele>
        <time>2022-03-12T13:22:17.000Z</time>
      </trkpt>
      <trkpt lat="43.66557" lon="7.10383">
        <ele>117.40000152588</ele>
        <time>2022-03-12T13:22:18.000Z</time>
      </trkpt>
      <trkpt lat="43.6656" lon="7.10377">
        <ele>115.40000152588</ele>
        <time>2022-03-12T13:22:20.000Z</time>
      </trkpt>
      <trkpt lat="43.66563" lon="7.10375">
        <ele>114.19999694824</ele>
        <time>2022-03-12T13:22:21.000Z</time>
      </trkpt>
      <trkpt lat="43.6657" lon="7.10375">
        <ele>111.59999847412</ele>
        <time>2022-03-12T13:22:23.000Z</time>
      </trkpt>
      <trkpt lat="43.66577" lon="7.10376">
        <ele>108.80000305176</ele>
        <time>2022-03-12T13:22:25.000Z</time>
      </trkpt>
      <trkpt lat="43.66581" lon="7.10375">
        <ele>107.40000152588</ele>
        <time>2022-03-12T13:22:26.000Z</time>
      </trkpt>
      <trkpt lat="43.66584" lon="7.10374">
        <ele>106</ele>
        <time>2022-03-12T13:22:27.000Z</time>
      </trkpt>
      <trkpt lat="43.6659" lon="7.10372">
        <ele>103.80000305176</ele>
        <time>2022-03-12T13:22:29.000Z</time>
      </trkpt>
      <trkpt lat="43.66591" lon="7.10371">
        <ele>102</ele>
        <time>2022-03-12T13:22:30.000Z</time>
      </trkpt>
      <trkpt lat="43.66593" lon="7.10369">
        <ele>101</ele>
        <time>2022-03-12T13:22:31.000Z</time>
      </trkpt>
      <trkpt lat="43.66594" lon="7.10368">
        <ele>100</ele>
        <time>2022-03-12T13:22:32.000Z</time>
      </trkpt>
      <trkpt lat="43.66594" lon="7.10368">
        <ele>98.800003051758</ele>
        <time>2022-03-12T13:22:34.000Z</time>
      </trkpt>
      <trkpt lat="43.66595" lon="7.10368">
        <ele>98.199996948242</ele>
        <time>2022-03-12T13:22:35.000Z</time>
      </trkpt>
      <trkpt lat="43.66595" lon="7.10368">
        <ele>97.599998474121</ele>
        <time>2022-03-12T13:22:36.000Z</time>
      </trkpt>
      <trkpt lat="43.66597" lon="7.10367">
        <ele>97.599998474121</ele>
        <time>2022-03-12T13:22:47.000Z</time>
      </trkpt>
      <trkpt lat="43.66598" lon="7.10366">
        <ele>97.199996948242</ele>
        <time>2022-03-12T13:23:11.000Z</time>
      </trkpt>
      <trkpt lat="43.66598" lon="7.10365">
        <ele>97.400001525879</ele>
        <time>2022-03-12T13:23:28.000Z</time>
      </trkpt>
      <trkpt lat="43.66599" lon="7.10365">
        <ele>97.400001525879</ele>
        <time>2022-03-12T13:23:36.000Z</time>
      </trkpt>
      <trkpt lat="43.66602" lon="7.10369">
        <ele>97.199996948242</ele>
        <time>2022-03-12T13:23:41.000Z</time>
      </trkpt>
      <trkpt lat="43.66605" lon="7.10369">
        <ele>97.199996948242</ele>
        <time>2022-03-12T13:23:42.000Z</time>
      </trkpt>
      <trkpt lat="43.66613" lon="7.10367">
        <ele>96.599998474121</ele>
        <time>2022-03-12T13:23:44.000Z</time>
      </trkpt>
      <trkpt lat="43.66625" lon="7.10364">
        <ele>95</ele>
        <time>2022-03-12T13:23:46.000Z</time>
      </trkpt>
      <trkpt lat="43.66628" lon="7.1037">
        <ele>93.199996948242</ele>
        <time>2022-03-12T13:23:47.000Z</time>
      </trkpt>
      <trkpt lat="43.66631" lon="7.10376">
        <ele>91.400001525879</ele>
        <time>2022-03-12T13:23:48.000Z</time>
      </trkpt>
      <trkpt lat="43.66637" lon="7.10383">
        <ele>88.599998474121</ele>
        <time>2022-03-12T13:23:50.000Z</time>
      </trkpt>
      <trkpt lat="43.66642" lon="7.10384">
        <ele>87.599998474121</ele>
        <time>2022-03-12T13:23:51.000Z</time>
      </trkpt>
      <trkpt lat="43.66647" lon="7.10386">
        <ele>87</ele>
        <time>2022-03-12T13:23:52.000Z</time>
      </trkpt>
      <trkpt lat="43.66657" lon="7.10387">
        <ele>85.800003051758</ele>
        <time>2022-03-12T13:23:54.000Z</time>
      </trkpt>
      <trkpt lat="43.66662" lon="7.10387">
        <ele>85</ele>
        <time>2022-03-12T13:23:55.000Z</time>
      </trkpt>
      <trkpt lat="43.66665" lon="7.10384">
        <ele>84</ele>
        <time>2022-03-12T13:23:56.000Z</time>
      </trkpt>
      <trkpt lat="43.66672" lon="7.10377">
        <ele>82.800003051758</ele>
        <time>2022-03-12T13:23:58.000Z</time>
      </trkpt>
      <trkpt lat="43.66677" lon="7.10374">
        <ele>82.199996948242</ele>
        <time>2022-03-12T13:23:59.000Z</time>
      </trkpt>
      <trkpt lat="43.66681" lon="7.10375">
        <ele>81.599998474121</ele>
        <time>2022-03-12T13:24:00.000Z</time>
      </trkpt>
      <trkpt lat="43.66689" lon="7.10375">
        <ele>80.199996948242</ele>
        <time>2022-03-12T13:24:02.000Z</time>
      </trkpt>
      <trkpt lat="43.66692" lon="7.10377">
        <ele>79.800003051758</ele>
        <time>2022-03-12T13:24:03.000Z</time>
      </trkpt>
      <trkpt lat="43.66694" lon="7.1038">
        <ele>79.400001525879</ele>
        <time>2022-03-12T13:24:04.000Z</time>
      </trkpt>
      <trkpt lat="43.66698" lon="7.10381">
        <ele>78.199996948242</ele>
        <time>2022-03-12T13:24:05.000Z</time>
      </trkpt>
      <trkpt lat="43.66708" lon="7.10382">
        <ele>77</ele>
        <time>2022-03-12T13:24:07.000Z</time>
      </trkpt>
      <trkpt lat="43.66713" lon="7.10383">
        <ele>76</ele>
        <time>2022-03-12T13:24:08.000Z</time>
      </trkpt>
      <trkpt lat="43.66717" lon="7.10385">
        <ele>75.199996948242</ele>
        <time>2022-03-12T13:24:09.000Z</time>
      </trkpt>
      <trkpt lat="43.66722" lon="7.10389">
        <ele>73.800003051758</ele>
        <time>2022-03-12T13:24:10.000Z</time>
      </trkpt>
      <trkpt lat="43.66733" lon="7.10394">
        <ele>72</ele>
        <time>2022-03-12T13:24:12.000Z</time>
      </trkpt>
      <trkpt lat="43.66735" lon="7.10397">
        <ele>70.800003051758</ele>
        <time>2022-03-12T13:24:13.000Z</time>
      </trkpt>
      <trkpt lat="43.66736" lon="7.10401">
        <ele>70</ele>
        <time>2022-03-12T13:24:14.000Z</time>
      </trkpt>
      <trkpt lat="43.6674" lon="7.10405">
        <ele>69.199996948242</ele>
        <time>2022-03-12T13:24:15.000Z</time>
      </trkpt>
      <trkpt lat="43.66748" lon="7.10413">
        <ele>67.400001525879</ele>
        <time>2022-03-12T13:24:17.000Z</time>
      </trkpt>
      <trkpt lat="43.66752" lon="7.10416">
        <ele>65.800003051758</ele>
        <time>2022-03-12T13:24:18.000Z</time>
      </trkpt>
      <trkpt lat="43.66756" lon="7.10418">
        <ele>64.400001525879</ele>
        <time>2022-03-12T13:24:19.000Z</time>
      </trkpt>
      <trkpt lat="43.66757" lon="7.10419">
        <ele>63.200000762939</ele>
        <time>2022-03-12T13:24:20.000Z</time>
      </trkpt>
      <trkpt lat="43.66759" lon="7.10424">
        <ele>61.400001525879</ele>
        <time>2022-03-12T13:24:21.000Z</time>
      </trkpt>
      <trkpt lat="43.66761" lon="7.10425">
        <ele>59.799999237061</ele>
        <time>2022-03-12T13:24:22.000Z</time>
      </trkpt>
      <trkpt lat="43.66768" lon="7.10427">
        <ele>57.799999237061</ele>
        <time>2022-03-12T13:24:24.000Z</time>
      </trkpt>
      <trkpt lat="43.66771" lon="7.10431">
        <ele>56.400001525879</ele>
        <time>2022-03-12T13:24:25.000Z</time>
      </trkpt>
      <trkpt lat="43.66772" lon="7.10446">
        <ele>54.599998474121</ele>
        <time>2022-03-12T13:24:27.000Z</time>
      </trkpt>
      <trkpt lat="43.66772" lon="7.10449">
        <ele>53.400001525879</ele>
        <time>2022-03-12T13:24:28.000Z</time>
      </trkpt>
      <trkpt lat="43.66773" lon="7.10453">
        <ele>52.200000762939</ele>
        <time>2022-03-12T13:24:29.000Z</time>
      </trkpt>
      <trkpt lat="43.66776" lon="7.10458">
        <ele>50.799999237061</ele>
        <time>2022-03-12T13:24:30.000Z</time>
      </trkpt>
      <trkpt lat="43.66779" lon="7.10462">
        <ele>49.799999237061</ele>
        <time>2022-03-12T13:24:31.000Z</time>
      </trkpt>
      <trkpt lat="43.66783" lon="7.10465">
        <ele>49</ele>
        <time>2022-03-12T13:24:32.000Z</time>
      </trkpt>
      <trkpt lat="43.66792" lon="7.10472">
        <ele>47.599998474121</ele>
        <time>2022-03-12T13:24:34.000Z</time>
      </trkpt>
      <trkpt lat="43.668" lon="7.10482">
        <ele>45.599998474121</ele>
        <time>2022-03-12T13:24:36.000Z</time>
      </trkpt>
      <trkpt lat="43.66804" lon="7.10486">
        <ele>43.599998474121</ele>
        <time>2022-03-12T13:24:37.000Z</time>
      </trkpt>
      <trkpt lat="43.66806" lon="7.10486">
        <ele>41.599998474121</ele>
        <time>2022-03-12T13:24:38.000Z</time>
      </trkpt>
      <trkpt lat="43.66809" lon="7.10488">
        <ele>40.200000762939</ele>
        <time>2022-03-12T13:24:39.000Z</time>
      </trkpt>
      <trkpt lat="43.66813" lon="7.10489">
        <ele>39</ele>
        <time>2022-03-12T13:24:40.000Z</time>
      </trkpt>
      <trkpt lat="43.66817" lon="7.10486">
        <ele>38</ele>
        <time>2022-03-12T13:24:41.000Z</time>
      </trkpt>
      <trkpt lat="43.6682" lon="7.10483">
        <ele>37.200000762939</ele>
        <time>2022-03-12T13:24:42.000Z</time>
      </trkpt>
      <trkpt lat="43.66824" lon="7.1048">
        <ele>36.200000762939</ele>
        <time>2022-03-12T13:24:43.000Z</time>
      </trkpt>
      <trkpt lat="43.66827" lon="7.10476">
        <ele>35</ele>
        <time>2022-03-12T13:24:44.000Z</time>
      </trkpt>
      <trkpt lat="43.66828" lon="7.10472">
        <ele>33.799999237061</ele>
        <time>2022-03-12T13:24:45.000Z</time>
      </trkpt>
      <trkpt lat="43.66828" lon="7.10467">
        <ele>32.799999237061</ele>
        <time>2022-03-12T13:24:46.000Z</time>
      </trkpt>
      <trkpt lat="43.66825" lon="7.10461">
        <ele>32.200000762939</ele>
        <time>2022-03-12T13:24:48.000Z</time>
      </trkpt>
      <trkpt lat="43.66823" lon="7.10449">
        <ele>32.400001525879</ele>
        <time>2022-03-12T13:24:51.000Z</time>
      </trkpt>
      <trkpt lat="43.66823" lon="7.10442">
        <ele>32.599998474121</ele>
        <time>2022-03-12T13:24:53.000Z</time>
      </trkpt>
      <trkpt lat="43.66827" lon="7.10421">
        <ele>33</ele>
        <time>2022-03-12T13:24:59.000Z</time>
      </trkpt>
      <trkpt lat="43.66823" lon="7.10414">
        <ele>33</ele>
        <time>2022-03-12T13:25:04.000Z</time>
      </trkpt>
      <trkpt lat="43.66823" lon="7.10415">
        <ele>32.599998474121</ele>
        <time>2022-03-12T13:25:11.000Z</time>
      </trkpt>
      <trkpt lat="43.66823" lon="7.10412">
        <ele>32.799999237061</ele>
        <time>2022-03-12T13:25:14.000Z</time>
      </trkpt>
      <trkpt lat="43.66823" lon="7.10406">
        <ele>32.799999237061</ele>
        <time>2022-03-12T13:25:16.000Z</time>
      </trkpt>
      <trkpt lat="43.66823" lon="7.10398">
        <ele>33.599998474121</ele>
        <time>2022-03-12T13:25:20.000Z</time>
      </trkpt>
      <trkpt lat="43.6682" lon="7.1039">
        <ele>34</ele>
        <time>2022-03-12T13:25:22.000Z</time>
      </trkpt>
      <trkpt lat="43.6682" lon="7.10388">
        <ele>34.200000762939</ele>
        <time>2022-03-12T13:25:23.000Z</time>
      </trkpt>
      <trkpt lat="43.66818" lon="7.10379">
        <ele>35.200000762939</ele>
        <time>2022-03-12T13:25:26.000Z</time>
      </trkpt>
      <trkpt lat="43.66815" lon="7.10373">
        <ele>35.599998474121</ele>
        <time>2022-03-12T13:25:28.000Z</time>
      </trkpt>
      <trkpt lat="43.66814" lon="7.10371">
        <ele>35.599998474121</ele>
        <time>2022-03-12T13:25:29.000Z</time>
      </trkpt>
      <trkpt lat="43.66813" lon="7.10366">
        <ele>36.200000762939</ele>
        <time>2022-03-12T13:25:31.000Z</time>
      </trkpt>
      <trkpt lat="43.66812" lon="7.1036">
        <ele>37</ele>
        <time>2022-03-12T13:25:33.000Z</time>
      </trkpt>
      <trkpt lat="43.66813" lon="7.10358">
        <ele>37.599998474121</ele>
        <time>2022-03-12T13:25:34.000Z</time>
      </trkpt>
      <trkpt lat="43.66813" lon="7.10351">
        <ele>39</ele>
        <time>2022-03-12T13:25:36.000Z</time>
      </trkpt>
      <trkpt lat="43.66814" lon="7.10349">
        <ele>39.400001525879</ele>
        <time>2022-03-12T13:25:37.000Z</time>
      </trkpt>
      <trkpt lat="43.66814" lon="7.10346">
        <ele>40</ele>
        <time>2022-03-12T13:25:38.000Z</time>
      </trkpt>
      <trkpt lat="43.66811" lon="7.10338">
        <ele>41.200000762939</ele>
        <time>2022-03-12T13:25:41.000Z</time>
      </trkpt>
      <trkpt lat="43.66808" lon="7.10336">
        <ele>41.599998474121</ele>
        <time>2022-03-12T13:25:42.000Z</time>
      </trkpt>
      <trkpt lat="43.66802" lon="7.10334">
        <ele>42.200000762939</ele>
        <time>2022-03-12T13:25:45.000Z</time>
      </trkpt>
      <trkpt lat="43.668" lon="7.1033">
        <ele>42.400001525879</ele>
        <time>2022-03-12T13:25:46.000Z</time>
      </trkpt>
      <trkpt lat="43.66797" lon="7.10325">
        <ele>42.799999237061</ele>
        <time>2022-03-12T13:25:48.000Z</time>
      </trkpt>
      <trkpt lat="43.66795" lon="7.10321">
        <ele>43.400001525879</ele>
        <time>2022-03-12T13:25:50.000Z</time>
      </trkpt>
      <trkpt lat="43.66793" lon="7.10318">
        <ele>43.599998474121</ele>
        <time>2022-03-12T13:25:51.000Z</time>
      </trkpt>
      <trkpt lat="43.6679" lon="7.10314">
        <ele>44.599998474121</ele>
        <time>2022-03-12T13:25:53.000Z</time>
      </trkpt>
      <trkpt lat="43.66785" lon="7.10311">
        <ele>45.799999237061</ele>
        <time>2022-03-12T13:25:56.000Z</time>
      </trkpt>
      <trkpt lat="43.66786" lon="7.1031">
        <ele>46.799999237061</ele>
        <time>2022-03-12T13:25:59.000Z</time>
      </trkpt>
      <trkpt lat="43.66785" lon="7.10311">
        <ele>46.599998474121</ele>
        <time>2022-03-12T13:26:01.000Z</time>
      </trkpt>
      <trkpt lat="43.66785" lon="7.1031">
        <ele>46.799999237061</ele>
        <time>2022-03-12T13:26:03.000Z</time>
      </trkpt>
      <trkpt lat="43.66782" lon="7.10308">
        <ele>47</ele>
        <time>2022-03-12T13:26:07.000Z</time>
      </trkpt>
      <trkpt lat="43.66775" lon="7.10296">
        <ele>47.400001525879</ele>
        <time>2022-03-12T13:26:11.000Z</time>
      </trkpt>
      <trkpt lat="43.66768" lon="7.10288">
        <ele>48.400001525879</ele>
        <time>2022-03-12T13:26:15.000Z</time>
      </trkpt>
      <trkpt lat="43.66765" lon="7.10283">
        <ele>48.799999237061</ele>
        <time>2022-03-12T13:26:17.000Z</time>
      </trkpt>
      <trkpt lat="43.66762" lon="7.10279">
        <ele>49.400001525879</ele>
        <time>2022-03-12T13:26:19.000Z</time>
      </trkpt>
      <trkpt lat="43.66756" lon="7.10273">
        <ele>50.200000762939</ele>
        <time>2022-03-12T13:26:22.000Z</time>
      </trkpt>
      <trkpt lat="43.6675" lon="7.1026">
        <ele>49.799999237061</ele>
        <time>2022-03-12T13:26:27.000Z</time>
      </trkpt>
      <trkpt lat="43.6675" lon="7.1025">
        <ele>50.400001525879</ele>
        <time>2022-03-12T13:26:30.000Z</time>
      </trkpt>
      <trkpt lat="43.66749" lon="7.10245">
        <ele>50.799999237061</ele>
        <time>2022-03-12T13:26:32.000Z</time>
      </trkpt>
      <trkpt lat="43.66744" lon="7.10234">
        <ele>51.799999237061</ele>
        <time>2022-03-12T13:26:36.000Z</time>
      </trkpt>
      <trkpt lat="43.66742" lon="7.10234">
        <ele>52</ele>
        <time>2022-03-12T13:26:37.000Z</time>
      </trkpt>
      <trkpt lat="43.66738" lon="7.1023">
        <ele>52.799999237061</ele>
        <time>2022-03-12T13:26:39.000Z</time>
      </trkpt>
      <trkpt lat="43.66736" lon="7.10225">
        <ele>53</ele>
        <time>2022-03-12T13:26:41.000Z</time>
      </trkpt>
      <trkpt lat="43.66733" lon="7.10217">
        <ele>54</ele>
        <time>2022-03-12T13:26:44.000Z</time>
      </trkpt>
      <trkpt lat="43.66731" lon="7.10213">
        <ele>54.599998474121</ele>
        <time>2022-03-12T13:26:46.000Z</time>
      </trkpt>
      <trkpt lat="43.66727" lon="7.10208">
        <ele>54.799999237061</ele>
        <time>2022-03-12T13:26:49.000Z</time>
      </trkpt>
      <trkpt lat="43.66725" lon="7.10206">
        <ele>55</ele>
        <time>2022-03-12T13:26:50.000Z</time>
      </trkpt>
      <trkpt lat="43.66724" lon="7.10205">
        <ele>55.200000762939</ele>
        <time>2022-03-12T13:26:51.000Z</time>
      </trkpt>
      <trkpt lat="43.66719" lon="7.10199">
        <ele>56</ele>
        <time>2022-03-12T13:26:55.000Z</time>
      </trkpt>
      <trkpt lat="43.66715" lon="7.10195">
        <ele>56.400001525879</ele>
        <time>2022-03-12T13:26:57.000Z</time>
      </trkpt>
      <trkpt lat="43.66711" lon="7.10189">
        <ele>57.200000762939</ele>
        <time>2022-03-12T13:27:00.000Z</time>
      </trkpt>
      <trkpt lat="43.66707" lon="7.10182">
        <ele>58</ele>
        <time>2022-03-12T13:27:03.000Z</time>
      </trkpt>
      <trkpt lat="43.66705" lon="7.10176">
        <ele>58.200000762939</ele>
        <time>2022-03-12T13:27:05.000Z</time>
      </trkpt>
      <trkpt lat="43.667" lon="7.10165">
        <ele>59.200000762939</ele>
        <time>2022-03-12T13:27:10.000Z</time>
      </trkpt>
      <trkpt lat="43.66696" lon="7.10156">
        <ele>60.599998474121</ele>
        <time>2022-03-12T13:27:13.000Z</time>
      </trkpt>
      <trkpt lat="43.66692" lon="7.10146">
        <ele>61.799999237061</ele>
        <time>2022-03-12T13:27:17.000Z</time>
      </trkpt>
      <trkpt lat="43.6669" lon="7.10143">
        <ele>62.200000762939</ele>
        <time>2022-03-12T13:27:18.000Z</time>
      </trkpt>
      <trkpt lat="43.66685" lon="7.10136">
        <ele>62.799999237061</ele>
        <time>2022-03-12T13:27:21.000Z</time>
      </trkpt>
      <trkpt lat="43.66676" lon="7.10129">
        <ele>63.799999237061</ele>
        <time>2022-03-12T13:27:25.000Z</time>
      </trkpt>
      <trkpt lat="43.66673" lon="7.10127">
        <ele>64</ele>
        <time>2022-03-12T13:27:26.000Z</time>
      </trkpt>
      <trkpt lat="43.66667" lon="7.10126">
        <ele>65</ele>
        <time>2022-03-12T13:27:29.000Z</time>
      </trkpt>
      <trkpt lat="43.66663" lon="7.10123">
        <ele>66.400001525879</ele>
        <time>2022-03-12T13:27:31.000Z</time>
      </trkpt>
      <trkpt lat="43.66659" lon="7.10121">
        <ele>67.800003051758</ele>
        <time>2022-03-12T13:27:33.000Z</time>
      </trkpt>
      <trkpt lat="43.66653" lon="7.10118">
        <ele>68.599998474121</ele>
        <time>2022-03-12T13:27:36.000Z</time>
      </trkpt>
      <trkpt lat="43.66652" lon="7.10116">
        <ele>68.800003051758</ele>
        <time>2022-03-12T13:27:37.000Z</time>
      </trkpt>
      <trkpt lat="43.66649" lon="7.10113">
        <ele>69.199996948242</ele>
        <time>2022-03-12T13:27:42.000Z</time>
      </trkpt>
      <trkpt lat="43.66647" lon="7.10112">
        <ele>69.800003051758</ele>
        <time>2022-03-12T13:27:55.000Z</time>
      </trkpt>
      <trkpt lat="43.66647" lon="7.10112">
        <ele>70.199996948242</ele>
        <time>2022-03-12T13:27:57.000Z</time>
      </trkpt>
      <trkpt lat="43.66647" lon="7.10112">
        <ele>70</ele>
        <time>2022-03-12T13:28:10.000Z</time>
      </trkpt>
      <trkpt lat="43.66648" lon="7.10111">
        <ele>70.199996948242</ele>
        <time>2022-03-12T13:28:22.000Z</time>
      </trkpt>
      <trkpt lat="43.66644" lon="7.10103">
        <ele>70.400001525879</ele>
        <time>2022-03-12T13:28:28.000Z</time>
      </trkpt>
      <trkpt lat="43.66643" lon="7.10094">
        <ele>71.199996948242</ele>
        <time>2022-03-12T13:28:31.000Z</time>
      </trkpt>
      <trkpt lat="43.66642" lon="7.10087">
        <ele>72</ele>
        <time>2022-03-12T13:28:33.000Z</time>
      </trkpt>
      <trkpt lat="43.66642" lon="7.10084">
        <ele>72.599998474121</ele>
        <time>2022-03-12T13:28:34.000Z</time>
      </trkpt>
      <trkpt lat="43.6664" lon="7.10075">
        <ele>74</ele>
        <time>2022-03-12T13:28:37.000Z</time>
      </trkpt>
      <trkpt lat="43.6664" lon="7.10073">
        <ele>74.400001525879</ele>
        <time>2022-03-12T13:28:38.000Z</time>
      </trkpt>
      <trkpt lat="43.66639" lon="7.1007">
        <ele>75</ele>
        <time>2022-03-12T13:28:39.000Z</time>
      </trkpt>
      <trkpt lat="43.6664" lon="7.10059">
        <ele>76</ele>
        <time>2022-03-12T13:28:42.000Z</time>
      </trkpt>
      <trkpt lat="43.66643" lon="7.10057">
        <ele>76.400001525879</ele>
        <time>2022-03-12T13:28:43.000Z</time>
      </trkpt>
      <trkpt lat="43.66646" lon="7.10053">
        <ele>77.199996948242</ele>
        <time>2022-03-12T13:28:45.000Z</time>
      </trkpt>
      <trkpt lat="43.66645" lon="7.10048">
        <ele>78.400001525879</ele>
        <time>2022-03-12T13:28:47.000Z</time>
      </trkpt>
      <trkpt lat="43.66644" lon="7.10045">
        <ele>79.199996948242</ele>
        <time>2022-03-12T13:28:48.000Z</time>
      </trkpt>
      <trkpt lat="43.66645" lon="7.10043">
        <ele>80</ele>
        <time>2022-03-12T13:28:49.000Z</time>
      </trkpt>
      <trkpt lat="43.66646" lon="7.10038">
        <ele>81.599998474121</ele>
        <time>2022-03-12T13:28:51.000Z</time>
      </trkpt>
      <trkpt lat="43.66649" lon="7.10034">
        <ele>82.400001525879</ele>
        <time>2022-03-12T13:28:53.000Z</time>
      </trkpt>
      <trkpt lat="43.66649" lon="7.10032">
        <ele>82.800003051758</ele>
        <time>2022-03-12T13:28:54.000Z</time>
      </trkpt>
      <trkpt lat="43.66652" lon="7.10026">
        <ele>83.199996948242</ele>
        <time>2022-03-12T13:28:57.000Z</time>
      </trkpt>
      <trkpt lat="43.66653" lon="7.10024">
        <ele>83.599998474121</ele>
        <time>2022-03-12T13:28:58.000Z</time>
      </trkpt>
      <trkpt lat="43.66654" lon="7.10022">
        <ele>83.800003051758</ele>
        <time>2022-03-12T13:28:59.000Z</time>
      </trkpt>
      <trkpt lat="43.66655" lon="7.10007">
        <ele>85</ele>
        <time>2022-03-12T13:29:05.000Z</time>
      </trkpt>
      <trkpt lat="43.66652" lon="7.10001">
        <ele>85.800003051758</ele>
        <time>2022-03-12T13:29:08.000Z</time>
      </trkpt>
      <trkpt lat="43.66649" lon="7.10001">
        <ele>86.199996948242</ele>
        <time>2022-03-12T13:29:09.000Z</time>
      </trkpt>
      <trkpt lat="43.66646" lon="7.10001">
        <ele>87.199996948242</ele>
        <time>2022-03-12T13:29:12.000Z</time>
      </trkpt>
      <trkpt lat="43.66644" lon="7.10001">
        <ele>87.400001525879</ele>
        <time>2022-03-12T13:29:14.000Z</time>
      </trkpt>
      <trkpt lat="43.66642" lon="7.10001">
        <ele>87.199996948242</ele>
        <time>2022-03-12T13:29:18.000Z</time>
      </trkpt>
      <trkpt lat="43.66635" lon="7.10005">
        <ele>87.199996948242</ele>
        <time>2022-03-12T13:29:23.000Z</time>
      </trkpt>
      <trkpt lat="43.66635" lon="7.10005">
        <ele>88.199996948242</ele>
        <time>2022-03-12T13:29:27.000Z</time>
      </trkpt>
      <trkpt lat="43.66635" lon="7.10005">
        <ele>88.400001525879</ele>
        <time>2022-03-12T13:29:31.000Z</time>
      </trkpt>
      <trkpt lat="43.66635" lon="7.10008">
        <ele>88.599998474121</ele>
        <time>2022-03-12T13:29:41.000Z</time>
      </trkpt>
      <trkpt lat="43.66636" lon="7.10008">
        <ele>88.599998474121</ele>
        <time>2022-03-12T13:29:42.000Z</time>
      </trkpt>
      <trkpt lat="43.66642" lon="7.10005">
        <ele>88</ele>
        <time>2022-03-12T13:29:46.000Z</time>
      </trkpt>
      <trkpt lat="43.66645" lon="7.09992">
        <ele>87.800003051758</ele>
        <time>2022-03-12T13:29:50.000Z</time>
      </trkpt>
      <trkpt lat="43.66651" lon="7.09977">
        <ele>88.400001525879</ele>
        <time>2022-03-12T13:29:55.000Z</time>
      </trkpt>
      <trkpt lat="43.66652" lon="7.09974">
        <ele>88.599998474121</ele>
        <time>2022-03-12T13:29:56.000Z</time>
      </trkpt>
      <trkpt lat="43.66653" lon="7.09968">
        <ele>89.199996948242</ele>
        <time>2022-03-12T13:29:58.000Z</time>
      </trkpt>
      <trkpt lat="43.6665" lon="7.09957">
        <ele>89.800003051758</ele>
        <time>2022-03-12T13:30:01.000Z</time>
      </trkpt>
      <trkpt lat="43.66649" lon="7.0995">
        <ele>90.400001525879</ele>
        <time>2022-03-12T13:30:03.000Z</time>
      </trkpt>
      <trkpt lat="43.66646" lon="7.0994">
        <ele>91.400001525879</ele>
        <time>2022-03-12T13:30:08.000Z</time>
      </trkpt>
      <trkpt lat="43.66645" lon="7.0994">
        <ele>91.800003051758</ele>
        <time>2022-03-12T13:30:09.000Z</time>
      </trkpt>
      <trkpt lat="43.66643" lon="7.0994">
        <ele>92.599998474121</ele>
        <time>2022-03-12T13:30:11.000Z</time>
      </trkpt>
      <trkpt lat="43.66638" lon="7.09942">
        <ele>93</ele>
        <time>2022-03-12T13:30:13.000Z</time>
      </trkpt>
      <trkpt lat="43.66632" lon="7.09935">
        <ele>93.400001525879</ele>
        <time>2022-03-12T13:30:17.000Z</time>
      </trkpt>
      <trkpt lat="43.66627" lon="7.09932">
        <ele>93.599998474121</ele>
        <time>2022-03-12T13:30:20.000Z</time>
      </trkpt>
      <trkpt lat="43.66626" lon="7.09931">
        <ele>93.800003051758</ele>
        <time>2022-03-12T13:30:21.000Z</time>
      </trkpt>
      <trkpt lat="43.66622" lon="7.0993">
        <ele>94.199996948242</ele>
        <time>2022-03-12T13:30:23.000Z</time>
      </trkpt>
      <trkpt lat="43.66606" lon="7.09925">
        <ele>94.199996948242</ele>
        <time>2022-03-12T13:30:28.000Z</time>
      </trkpt>
      <trkpt lat="43.66601" lon="7.09924">
        <ele>93.199996948242</ele>
        <time>2022-03-12T13:30:30.000Z</time>
      </trkpt>
      <trkpt lat="43.66593" lon="7.09927">
        <ele>92.800003051758</ele>
        <time>2022-03-12T13:30:32.000Z</time>
      </trkpt>
      <trkpt lat="43.66589" lon="7.0993">
        <ele>92.599998474121</ele>
        <time>2022-03-12T13:30:33.000Z</time>
      </trkpt>
      <trkpt lat="43.66586" lon="7.09934">
        <ele>92.400001525879</ele>
        <time>2022-03-12T13:30:34.000Z</time>
      </trkpt>
      <trkpt lat="43.66579" lon="7.09941">
        <ele>91.400001525879</ele>
        <time>2022-03-12T13:30:36.000Z</time>
      </trkpt>
      <trkpt lat="43.66578" lon="7.09951">
        <ele>90.400001525879</ele>
        <time>2022-03-12T13:30:39.000Z</time>
      </trkpt>
      <trkpt lat="43.66569" lon="7.0996">
        <ele>89.400001525879</ele>
        <time>2022-03-12T13:30:42.000Z</time>
      </trkpt>
      <trkpt lat="43.66565" lon="7.09962">
        <ele>89</ele>
        <time>2022-03-12T13:30:43.000Z</time>
      </trkpt>
      <trkpt lat="43.66556" lon="7.09972">
        <ele>88</ele>
        <time>2022-03-12T13:30:46.000Z</time>
      </trkpt>
      <trkpt lat="43.66555" lon="7.09978">
        <ele>87.199996948242</ele>
        <time>2022-03-12T13:30:47.000Z</time>
      </trkpt>
      <trkpt lat="43.66553" lon="7.09986">
        <ele>86.599998474121</ele>
        <time>2022-03-12T13:30:48.000Z</time>
      </trkpt>
      <trkpt lat="43.66547" lon="7.09998">
        <ele>85.199996948242</ele>
        <time>2022-03-12T13:30:50.000Z</time>
      </trkpt>
      <trkpt lat="43.66544" lon="7.10002">
        <ele>84.199996948242</ele>
        <time>2022-03-12T13:30:51.000Z</time>
      </trkpt>
      <trkpt lat="43.66541" lon="7.10008">
        <ele>83.400001525879</ele>
        <time>2022-03-12T13:30:52.000Z</time>
      </trkpt>
      <trkpt lat="43.66539" lon="7.10018">
        <ele>82</ele>
        <time>2022-03-12T13:30:54.000Z</time>
      </trkpt>
      <trkpt lat="43.66538" lon="7.10022">
        <ele>81.599998474121</ele>
        <time>2022-03-12T13:30:55.000Z</time>
      </trkpt>
      <trkpt lat="43.66539" lon="7.10025">
        <ele>81</ele>
        <time>2022-03-12T13:30:56.000Z</time>
      </trkpt>
      <trkpt lat="43.6654" lon="7.10028">
        <ele>80.400001525879</ele>
        <time>2022-03-12T13:30:58.000Z</time>
      </trkpt>
      <trkpt lat="43.66541" lon="7.10039">
        <ele>80.400001525879</ele>
        <time>2022-03-12T13:31:03.000Z</time>
      </trkpt>
      <trkpt lat="43.6655" lon="7.10058">
        <ele>80.199996948242</ele>
        <time>2022-03-12T13:31:08.000Z</time>
      </trkpt>
      <trkpt lat="43.6655" lon="7.10068">
        <ele>80</ele>
        <time>2022-03-12T13:31:10.000Z</time>
      </trkpt>
      <trkpt lat="43.6655" lon="7.10077">
        <ele>79.800003051758</ele>
        <time>2022-03-12T13:31:12.000Z</time>
      </trkpt>
      <trkpt lat="43.66547" lon="7.10093">
        <ele>80.199996948242</ele>
        <time>2022-03-12T13:31:17.000Z</time>
      </trkpt>
      <trkpt lat="43.66547" lon="7.10103">
        <ele>81.199996948242</ele>
        <time>2022-03-12T13:31:21.000Z</time>
      </trkpt>
      <trkpt lat="43.66546" lon="7.10106">
        <ele>81.599998474121</ele>
        <time>2022-03-12T13:31:22.000Z</time>
      </trkpt>
      <trkpt lat="43.66545" lon="7.10111">
        <ele>82.400001525879</ele>
        <time>2022-03-12T13:31:24.000Z</time>
      </trkpt>
      <trkpt lat="43.66543" lon="7.10112">
        <ele>82.800003051758</ele>
        <time>2022-03-12T13:31:25.000Z</time>
      </trkpt>
      <trkpt lat="43.66543" lon="7.10117">
        <ele>83.599998474121</ele>
        <time>2022-03-12T13:31:27.000Z</time>
      </trkpt>
      <trkpt lat="43.66546" lon="7.10127">
        <ele>84.400001525879</ele>
        <time>2022-03-12T13:31:31.000Z</time>
      </trkpt>
      <trkpt lat="43.66546" lon="7.1013">
        <ele>84.599998474121</ele>
        <time>2022-03-12T13:31:32.000Z</time>
      </trkpt>
      <trkpt lat="43.66546" lon="7.10136">
        <ele>85</ele>
        <time>2022-03-12T13:31:34.000Z</time>
      </trkpt>
      <trkpt lat="43.66543" lon="7.10145">
        <ele>85.800003051758</ele>
        <time>2022-03-12T13:31:37.000Z</time>
      </trkpt>
      <trkpt lat="43.66538" lon="7.10148">
        <ele>87</ele>
        <time>2022-03-12T13:31:40.000Z</time>
      </trkpt>
      <trkpt lat="43.66538" lon="7.10149">
        <ele>87.400001525879</ele>
        <time>2022-03-12T13:31:41.000Z</time>
      </trkpt>
      <trkpt lat="43.66535" lon="7.10153">
        <ele>88</ele>
        <time>2022-03-12T13:31:43.000Z</time>
      </trkpt>
      <trkpt lat="43.66532" lon="7.10158">
        <ele>88.599998474121</ele>
        <time>2022-03-12T13:31:45.000Z</time>
      </trkpt>
      <trkpt lat="43.66529" lon="7.10161">
        <ele>89.199996948242</ele>
        <time>2022-03-12T13:31:47.000Z</time>
      </trkpt>
      <trkpt lat="43.66527" lon="7.10164">
        <ele>90</ele>
        <time>2022-03-12T13:31:49.000Z</time>
      </trkpt>
      <trkpt lat="43.66524" lon="7.10167">
        <ele>90.599998474121</ele>
        <time>2022-03-12T13:31:51.000Z</time>
      </trkpt>
      <trkpt lat="43.66521" lon="7.10171">
        <ele>91.199996948242</ele>
        <time>2022-03-12T13:31:53.000Z</time>
      </trkpt>
      <trkpt lat="43.66518" lon="7.10175">
        <ele>91.599998474121</ele>
        <time>2022-03-12T13:31:55.000Z</time>
      </trkpt>
      <trkpt lat="43.66514" lon="7.10182">
        <ele>92.800003051758</ele>
        <time>2022-03-12T13:31:59.000Z</time>
      </trkpt>
      <trkpt lat="43.66514" lon="7.10187">
        <ele>93.800003051758</ele>
        <time>2022-03-12T13:32:01.000Z</time>
      </trkpt>
      <trkpt lat="43.66513" lon="7.1019">
        <ele>94.199996948242</ele>
        <time>2022-03-12T13:32:02.000Z</time>
      </trkpt>
      <trkpt lat="43.66511" lon="7.10194">
        <ele>94.800003051758</ele>
        <time>2022-03-12T13:32:04.000Z</time>
      </trkpt>
      <trkpt lat="43.66509" lon="7.10196">
        <ele>95.400001525879</ele>
        <time>2022-03-12T13:32:06.000Z</time>
      </trkpt>
      <trkpt lat="43.66505" lon="7.102">
        <ele>96.599998474121</ele>
        <time>2022-03-12T13:32:09.000Z</time>
      </trkpt>
      <trkpt lat="43.66501" lon="7.10206">
        <ele>97.599998474121</ele>
        <time>2022-03-12T13:32:12.000Z</time>
      </trkpt>
      <trkpt lat="43.66498" lon="7.10209">
        <ele>98.599998474121</ele>
        <time>2022-03-12T13:32:14.000Z</time>
      </trkpt>
      <trkpt lat="43.66496" lon="7.10209">
        <ele>99</ele>
        <time>2022-03-12T13:32:15.000Z</time>
      </trkpt>
      <trkpt lat="43.6649" lon="7.10212">
        <ele>100</ele>
        <time>2022-03-12T13:32:18.000Z</time>
      </trkpt>
      <trkpt lat="43.66486" lon="7.10216">
        <ele>100.80000305176</ele>
        <time>2022-03-12T13:32:21.000Z</time>
      </trkpt>
      <trkpt lat="43.66483" lon="7.10219">
        <ele>101.19999694824</ele>
        <time>2022-03-12T13:32:23.000Z</time>
      </trkpt>
      <trkpt lat="43.66476" lon="7.10225">
        <ele>102.19999694824</ele>
        <time>2022-03-12T13:32:27.000Z</time>
      </trkpt>
      <trkpt lat="43.66474" lon="7.10226">
        <ele>102.40000152588</ele>
        <time>2022-03-12T13:32:28.000Z</time>
      </trkpt>
      <trkpt lat="43.66474" lon="7.10227">
        <ele>102.59999847412</ele>
        <time>2022-03-12T13:32:29.000Z</time>
      </trkpt>
      <trkpt lat="43.66469" lon="7.10235">
        <ele>103.40000152588</ele>
        <time>2022-03-12T13:32:32.000Z</time>
      </trkpt>
      <trkpt lat="43.66465" lon="7.1024">
        <ele>104.40000152588</ele>
        <time>2022-03-12T13:32:35.000Z</time>
      </trkpt>
      <trkpt lat="43.66461" lon="7.10243">
        <ele>105</ele>
        <time>2022-03-12T13:32:37.000Z</time>
      </trkpt>
      <trkpt lat="43.66456" lon="7.10246">
        <ele>105.59999847412</ele>
        <time>2022-03-12T13:32:40.000Z</time>
      </trkpt>
      <trkpt lat="43.66455" lon="7.10249">
        <ele>106</ele>
        <time>2022-03-12T13:32:42.000Z</time>
      </trkpt>
      <trkpt lat="43.66454" lon="7.10249">
        <ele>106.59999847412</ele>
        <time>2022-03-12T13:32:48.000Z</time>
      </trkpt>
      <trkpt lat="43.66453" lon="7.10249">
        <ele>106.59999847412</ele>
        <time>2022-03-12T13:32:53.000Z</time>
      </trkpt>
      <trkpt lat="43.66452" lon="7.10254">
        <ele>106.80000305176</ele>
        <time>2022-03-12T13:32:55.000Z</time>
      </trkpt>
      <trkpt lat="43.6645" lon="7.10257">
        <ele>106.80000305176</ele>
        <time>2022-03-12T13:32:56.000Z</time>
      </trkpt>
      <trkpt lat="43.66451" lon="7.10262">
        <ele>107.40000152588</ele>
        <time>2022-03-12T13:33:00.000Z</time>
      </trkpt>
      <trkpt lat="43.66451" lon="7.10262">
        <ele>107.80000305176</ele>
        <time>2022-03-12T13:33:02.000Z</time>
      </trkpt>
      <trkpt lat="43.66458" lon="7.10267">
        <ele>108.40000152588</ele>
        <time>2022-03-12T13:33:06.000Z</time>
      </trkpt>
      <trkpt lat="43.66458" lon="7.10267">
        <ele>109.19999694824</ele>
        <time>2022-03-12T13:33:08.000Z</time>
      </trkpt>
      <trkpt lat="43.66461" lon="7.10268">
        <ele>109.80000305176</ele>
        <time>2022-03-12T13:33:10.000Z</time>
      </trkpt>
      <trkpt lat="43.66462" lon="7.10271">
        <ele>110.19999694824</ele>
        <time>2022-03-12T13:33:11.000Z</time>
      </trkpt>
      <trkpt lat="43.66463" lon="7.10273">
        <ele>110.59999847412</ele>
        <time>2022-03-12T13:33:12.000Z</time>
      </trkpt>
      <trkpt lat="43.66466" lon="7.10279">
        <ele>111.59999847412</ele>
        <time>2022-03-12T13:33:15.000Z</time>
      </trkpt>
      <trkpt lat="43.66467" lon="7.10282">
        <ele>112.19999694824</ele>
        <time>2022-03-12T13:33:16.000Z</time>
      </trkpt>
      <trkpt lat="43.66468" lon="7.10284">
        <ele>112.80000305176</ele>
        <time>2022-03-12T13:33:17.000Z</time>
      </trkpt>
      <trkpt lat="43.66468" lon="7.10287">
        <ele>113.80000305176</ele>
        <time>2022-03-12T13:33:19.000Z</time>
      </trkpt>
      <trkpt lat="43.66468" lon="7.1029">
        <ele>114.80000305176</ele>
        <time>2022-03-12T13:33:22.000Z</time>
      </trkpt>
      <trkpt lat="43.66468" lon="7.10291">
        <ele>114.80000305176</ele>
        <time>2022-03-12T13:33:23.000Z</time>
      </trkpt>
      <trkpt lat="43.66466" lon="7.10295">
        <ele>115</ele>
        <time>2022-03-12T13:33:26.000Z</time>
      </trkpt>
      <trkpt lat="43.66464" lon="7.10298">
        <ele>115</ele>
        <time>2022-03-12T13:33:27.000Z</time>
      </trkpt>
      <trkpt lat="43.66453" lon="7.10306">
        <ele>115.19999694824</ele>
        <time>2022-03-12T13:33:32.000Z</time>
      </trkpt>
      <trkpt lat="43.66443" lon="7.10311">
        <ele>115.80000305176</ele>
        <time>2022-03-12T13:33:37.000Z</time>
      </trkpt>
      <trkpt lat="43.6644" lon="7.10312">
        <ele>116</ele>
        <time>2022-03-12T13:33:38.000Z</time>
      </trkpt>
      <trkpt lat="43.66429" lon="7.10317">
        <ele>116.80000305176</ele>
        <time>2022-03-12T13:33:42.000Z</time>
      </trkpt>
      <trkpt lat="43.66424" lon="7.1032">
        <ele>117.19999694824</ele>
        <time>2022-03-12T13:33:44.000Z</time>
      </trkpt>
      <trkpt lat="43.66417" lon="7.10328">
        <ele>118.19999694824</ele>
        <time>2022-03-12T13:33:47.000Z</time>
      </trkpt>
      <trkpt lat="43.66414" lon="7.1033">
        <ele>118.40000152588</ele>
        <time>2022-03-12T13:33:48.000Z</time>
      </trkpt>
      <trkpt lat="43.66409" lon="7.10337">
        <ele>119.59999847412</ele>
        <time>2022-03-12T13:33:51.000Z</time>
      </trkpt>
      <trkpt lat="43.66408" lon="7.10338">
        <ele>120.19999694824</ele>
        <time>2022-03-12T13:33:52.000Z</time>
      </trkpt>
      <trkpt lat="43.66405" lon="7.10337">
        <ele>120.80000305176</ele>
        <time>2022-03-12T13:33:53.000Z</time>
      </trkpt>
      <trkpt lat="43.66402" lon="7.10335">
        <ele>122.19999694824</ele>
        <time>2022-03-12T13:33:55.000Z</time>
      </trkpt>
      <trkpt lat="43.66394" lon="7.10335">
        <ele>123.40000152588</ele>
        <time>2022-03-12T13:33:58.000Z</time>
      </trkpt>
      <trkpt lat="43.66392" lon="7.10335">
        <ele>123.40000152588</ele>
        <time>2022-03-12T13:33:59.000Z</time>
      </trkpt>
      <trkpt lat="43.66389" lon="7.10333">
        <ele>124.19999694824</ele>
        <time>2022-03-12T13:34:02.000Z</time>
      </trkpt>
      <trkpt lat="43.66387" lon="7.10333">
        <ele>124.80000305176</ele>
        <time>2022-03-12T13:34:03.000Z</time>
      </trkpt>
      <trkpt lat="43.6638" lon="7.10335">
        <ele>125.19999694824</ele>
        <time>2022-03-12T13:34:06.000Z</time>
      </trkpt>
      <trkpt lat="43.66378" lon="7.10335">
        <ele>125.40000152588</ele>
        <time>2022-03-12T13:34:07.000Z</time>
      </trkpt>
      <trkpt lat="43.66373" lon="7.10333">
        <ele>126</ele>
        <time>2022-03-12T13:34:10.000Z</time>
      </trkpt>
      <trkpt lat="43.66371" lon="7.10333">
        <ele>126.40000152588</ele>
        <time>2022-03-12T13:34:11.000Z</time>
      </trkpt>
      <trkpt lat="43.66363" lon="7.10332">
        <ele>127.40000152588</ele>
        <time>2022-03-12T13:34:14.000Z</time>
      </trkpt>
      <trkpt lat="43.66357" lon="7.10334">
        <ele>127.80000305176</ele>
        <time>2022-03-12T13:34:16.000Z</time>
      </trkpt>
      <trkpt lat="43.66346" lon="7.10336">
        <ele>128.60000610352</ele>
        <time>2022-03-12T13:34:20.000Z</time>
      </trkpt>
      <trkpt lat="43.66339" lon="7.10338">
        <ele>129.60000610352</ele>
        <time>2022-03-12T13:34:23.000Z</time>
      </trkpt>
      <trkpt lat="43.66327" lon="7.10343">
        <ele>130.80000305176</ele>
        <time>2022-03-12T13:34:28.000Z</time>
      </trkpt>
      <trkpt lat="43.66321" lon="7.10346">
        <ele>131</ele>
        <time>2022-03-12T13:34:31.000Z</time>
      </trkpt>
      <trkpt lat="43.66317" lon="7.10347">
        <ele>131.39999389648</ele>
        <time>2022-03-12T13:34:33.000Z</time>
      </trkpt>
      <trkpt lat="43.66311" lon="7.10354">
        <ele>131.60000610352</ele>
        <time>2022-03-12T13:34:36.000Z</time>
      </trkpt>
      <trkpt lat="43.66306" lon="7.10357">
        <ele>131.39999389648</ele>
        <time>2022-03-12T13:34:38.000Z</time>
      </trkpt>
      <trkpt lat="43.66299" lon="7.10361">
        <ele>131.80000305176</ele>
        <time>2022-03-12T13:34:41.000Z</time>
      </trkpt>
      <trkpt lat="43.66292" lon="7.10365">
        <ele>132.39999389648</ele>
        <time>2022-03-12T13:34:44.000Z</time>
      </trkpt>
      <trkpt lat="43.66291" lon="7.10366">
        <ele>132.39999389648</ele>
        <time>2022-03-12T13:34:45.000Z</time>
      </trkpt>
      <trkpt lat="43.66286" lon="7.10371">
        <ele>132.60000610352</ele>
        <time>2022-03-12T13:34:49.000Z</time>
      </trkpt>
      <trkpt lat="43.66284" lon="7.10371">
        <ele>133</ele>
        <time>2022-03-12T13:34:51.000Z</time>
      </trkpt>
      <trkpt lat="43.66279" lon="7.10374">
        <ele>133.39999389648</ele>
        <time>2022-03-12T13:34:54.000Z</time>
      </trkpt>
      <trkpt lat="43.66276" lon="7.10378">
        <ele>134</ele>
        <time>2022-03-12T13:34:57.000Z</time>
      </trkpt>
      <trkpt lat="43.66272" lon="7.10382">
        <ele>134.80000305176</ele>
        <time>2022-03-12T13:34:59.000Z</time>
      </trkpt>
      <trkpt lat="43.6627" lon="7.10384">
        <ele>135.39999389648</ele>
        <time>2022-03-12T13:35:00.000Z</time>
      </trkpt>
      <trkpt lat="43.66262" lon="7.10386">
        <ele>136.39999389648</ele>
        <time>2022-03-12T13:35:03.000Z</time>
      </trkpt>
      <trkpt lat="43.6626" lon="7.10387">
        <ele>136.60000610352</ele>
        <time>2022-03-12T13:35:04.000Z</time>
      </trkpt>
      <trkpt lat="43.66255" lon="7.10393">
        <ele>137.39999389648</ele>
        <time>2022-03-12T13:35:08.000Z</time>
      </trkpt>
      <trkpt lat="43.66253" lon="7.10394">
        <ele>137.60000610352</ele>
        <time>2022-03-12T13:35:09.000Z</time>
      </trkpt>
      <trkpt lat="43.66253" lon="7.10395">
        <ele>138</ele>
        <time>2022-03-12T13:35:10.000Z</time>
      </trkpt>
      <trkpt lat="43.66251" lon="7.10397">
        <ele>138.80000305176</ele>
        <time>2022-03-12T13:35:12.000Z</time>
      </trkpt>
      <trkpt lat="43.6625" lon="7.10398">
        <ele>139</ele>
        <time>2022-03-12T13:35:13.000Z</time>
      </trkpt>
      <trkpt lat="43.66246" lon="7.10405">
        <ele>140</ele>
        <time>2022-03-12T13:35:16.000Z</time>
      </trkpt>
      <trkpt lat="43.66243" lon="7.10413">
        <ele>140.80000305176</ele>
        <time>2022-03-12T13:35:19.000Z</time>
      </trkpt>
      <trkpt lat="43.66242" lon="7.10415">
        <ele>141.19999694824</ele>
        <time>2022-03-12T13:35:20.000Z</time>
      </trkpt>
      <trkpt lat="43.66237" lon="7.10428">
        <ele>142.19999694824</ele>
        <time>2022-03-12T13:35:25.000Z</time>
      </trkpt>
      <trkpt lat="43.66236" lon="7.1043">
        <ele>142.39999389648</ele>
        <time>2022-03-12T13:35:26.000Z</time>
      </trkpt>
      <trkpt lat="43.66234" lon="7.10437">
        <ele>143.39999389648</ele>
        <time>2022-03-12T13:35:29.000Z</time>
      </trkpt>
      <trkpt lat="43.66231" lon="7.1045">
        <ele>144.60000610352</ele>
        <time>2022-03-12T13:35:34.000Z</time>
      </trkpt>
      <trkpt lat="43.66226" lon="7.10468">
        <ele>145.39999389648</ele>
        <time>2022-03-12T13:35:40.000Z</time>
      </trkpt>
      <trkpt lat="43.66224" lon="7.10474">
        <ele>145.60000610352</ele>
        <time>2022-03-12T13:35:42.000Z</time>
      </trkpt>
      <trkpt lat="43.66224" lon="7.10484">
        <ele>146.39999389648</ele>
        <time>2022-03-12T13:35:45.000Z</time>
      </trkpt>
      <trkpt lat="43.66223" lon="7.10491">
        <ele>146.80000305176</ele>
        <time>2022-03-12T13:35:47.000Z</time>
      </trkpt>
      <trkpt lat="43.66221" lon="7.10511">
        <ele>147.39999389648</ele>
        <time>2022-03-12T13:35:52.000Z</time>
      </trkpt>
      <trkpt lat="43.66219" lon="7.10522">
        <ele>148</ele>
        <time>2022-03-12T13:35:55.000Z</time>
      </trkpt>
      <trkpt lat="43.66214" lon="7.10537">
        <ele>148.39999389648</ele>
        <time>2022-03-12T13:35:59.000Z</time>
      </trkpt>
      <trkpt lat="43.66202" lon="7.10563">
        <ele>148.39999389648</ele>
        <time>2022-03-12T13:36:06.000Z</time>
      </trkpt>
      <trkpt lat="43.66189" lon="7.10581">
        <ele>148.60000610352</ele>
        <time>2022-03-12T13:36:12.000Z</time>
      </trkpt>
      <trkpt lat="43.66186" lon="7.10589">
        <ele>149.19999694824</ele>
        <time>2022-03-12T13:36:14.000Z</time>
      </trkpt>
      <trkpt lat="43.66179" lon="7.106">
        <ele>149.60000610352</ele>
        <time>2022-03-12T13:36:17.000Z</time>
      </trkpt>
      <trkpt lat="43.66164" lon="7.10624">
        <ele>149.60000610352</ele>
        <time>2022-03-12T13:36:23.000Z</time>
      </trkpt>
      <trkpt lat="43.66148" lon="7.10649">
        <ele>148.39999389648</ele>
        <time>2022-03-12T13:36:29.000Z</time>
      </trkpt>
      <trkpt lat="43.66145" lon="7.10657">
        <ele>148.19999694824</ele>
        <time>2022-03-12T13:36:31.000Z</time>
      </trkpt>
      <trkpt lat="43.66139" lon="7.10668">
        <ele>147.80000305176</ele>
        <time>2022-03-12T13:36:34.000Z</time>
      </trkpt>
      <trkpt lat="43.66134" lon="7.1069">
        <ele>147.39999389648</ele>
        <time>2022-03-12T13:36:39.000Z</time>
      </trkpt>
      <trkpt lat="43.66133" lon="7.10693">
        <ele>147</ele>
        <time>2022-03-12T13:36:40.000Z</time>
      </trkpt>
      <trkpt lat="43.66135" lon="7.10706">
        <ele>146.39999389648</ele>
        <time>2022-03-12T13:36:44.000Z</time>
      </trkpt>
      <trkpt lat="43.66138" lon="7.10717">
        <ele>146</ele>
        <time>2022-03-12T13:36:46.000Z</time>
      </trkpt>
      <trkpt lat="43.66139" lon="7.10722">
        <ele>145.60000610352</ele>
        <time>2022-03-12T13:36:47.000Z</time>
      </trkpt>
      <trkpt lat="43.66141" lon="7.10727">
        <ele>145.19999694824</ele>
        <time>2022-03-12T13:36:48.000Z</time>
      </trkpt>
      <trkpt lat="43.66143" lon="7.1073">
        <ele>144.60000610352</ele>
        <time>2022-03-12T13:36:49.000Z</time>
      </trkpt>
      <trkpt lat="43.66146" lon="7.10739">
        <ele>143.60000610352</ele>
        <time>2022-03-12T13:36:51.000Z</time>
      </trkpt>
      <trkpt lat="43.66147" lon="7.10745">
        <ele>143.19999694824</ele>
        <time>2022-03-12T13:36:52.000Z</time>
      </trkpt>
      <trkpt lat="43.66149" lon="7.10755">
        <ele>142.39999389648</ele>
        <time>2022-03-12T13:36:54.000Z</time>
      </trkpt>
      <trkpt lat="43.66153" lon="7.10766">
        <ele>141.19999694824</ele>
        <time>2022-03-12T13:36:56.000Z</time>
      </trkpt>
      <trkpt lat="43.66152" lon="7.10772">
        <ele>140.39999389648</ele>
        <time>2022-03-12T13:36:57.000Z</time>
      </trkpt>
      <trkpt lat="43.66153" lon="7.10777">
        <ele>139.80000305176</ele>
        <time>2022-03-12T13:36:58.000Z</time>
      </trkpt>
      <trkpt lat="43.66151" lon="7.10781">
        <ele>139.19999694824</ele>
        <time>2022-03-12T13:36:59.000Z</time>
      </trkpt>
      <trkpt lat="43.6615" lon="7.10785">
        <ele>138.39999389648</ele>
        <time>2022-03-12T13:37:00.000Z</time>
      </trkpt>
      <trkpt lat="43.66148" lon="7.10789">
        <ele>138.19999694824</ele>
        <time>2022-03-12T13:37:01.000Z</time>
      </trkpt>
      <trkpt lat="43.66144" lon="7.108">
        <ele>137.80000305176</ele>
        <time>2022-03-12T13:37:03.000Z</time>
      </trkpt>
      <trkpt lat="43.66145" lon="7.10811">
        <ele>137.39999389648</ele>
        <time>2022-03-12T13:37:05.000Z</time>
      </trkpt>
      <trkpt lat="43.66145" lon="7.10816">
        <ele>137.19999694824</ele>
        <time>2022-03-12T13:37:06.000Z</time>
      </trkpt>
      <trkpt lat="43.66147" lon="7.10824">
        <ele>135.60000610352</ele>
        <time>2022-03-12T13:37:08.000Z</time>
      </trkpt>
      <trkpt lat="43.6615" lon="7.10827">
        <ele>134.80000305176</ele>
        <time>2022-03-12T13:37:09.000Z</time>
      </trkpt>
      <trkpt lat="43.66152" lon="7.10831">
        <ele>133.80000305176</ele>
        <time>2022-03-12T13:37:10.000Z</time>
      </trkpt>
      <trkpt lat="43.66154" lon="7.10841">
        <ele>132.39999389648</ele>
        <time>2022-03-12T13:37:12.000Z</time>
      </trkpt>
      <trkpt lat="43.66154" lon="7.10845">
        <ele>131.60000610352</ele>
        <time>2022-03-12T13:37:13.000Z</time>
      </trkpt>
      <trkpt lat="43.66154" lon="7.10851">
        <ele>130.80000305176</ele>
        <time>2022-03-12T13:37:14.000Z</time>
      </trkpt>
      <trkpt lat="43.66152" lon="7.10862">
        <ele>129.60000610352</ele>
        <time>2022-03-12T13:37:16.000Z</time>
      </trkpt>
      <trkpt lat="43.66153" lon="7.10866">
        <ele>129.39999389648</ele>
        <time>2022-03-12T13:37:17.000Z</time>
      </trkpt>
      <trkpt lat="43.66155" lon="7.1087">
        <ele>128.60000610352</ele>
        <time>2022-03-12T13:37:19.000Z</time>
      </trkpt>
      <trkpt lat="43.66156" lon="7.10869">
        <ele>128</ele>
        <time>2022-03-12T13:37:20.000Z</time>
      </trkpt>
      <trkpt lat="43.66156" lon="7.10868">
        <ele>127.59999847412</ele>
        <time>2022-03-12T13:37:21.000Z</time>
      </trkpt>
      <trkpt lat="43.66156" lon="7.10868">
        <ele>125.80000305176</ele>
        <time>2022-03-12T13:37:23.000Z</time>
      </trkpt>
      <trkpt lat="43.66156" lon="7.10869">
        <ele>126</ele>
        <time>2022-03-12T13:37:25.000Z</time>
      </trkpt>
      <trkpt lat="43.66157" lon="7.1087">
        <ele>126.19999694824</ele>
        <time>2022-03-12T13:37:29.000Z</time>
      </trkpt>
      <trkpt lat="43.66157" lon="7.1087">
        <ele>126.19999694824</ele>
        <time>2022-03-12T13:37:36.000Z</time>
      </trkpt>
      <trkpt lat="43.66157" lon="7.1087">
        <ele>126</ele>
        <time>2022-03-12T13:37:53.000Z</time>
      </trkpt>
      <trkpt lat="43.66157" lon="7.1087">
        <ele>125.80000305176</ele>
        <time>2022-03-12T13:38:02.000Z</time>
      </trkpt>
      <trkpt lat="43.66157" lon="7.1087">
        <ele>125.80000305176</ele>
        <time>2022-03-12T13:38:10.000Z</time>
      </trkpt>
      <trkpt lat="43.66157" lon="7.1087">
        <ele>126.19999694824</ele>
        <time>2022-03-12T13:38:20.000Z</time>
      </trkpt>
      <trkpt lat="43.66157" lon="7.10871">
        <ele>125.59999847412</ele>
        <time>2022-03-12T13:38:39.000Z</time>
      </trkpt>
      <trkpt lat="43.66156" lon="7.10872">
        <ele>125.80000305176</ele>
        <time>2022-03-12T13:38:51.000Z</time>
      </trkpt>
      <trkpt lat="43.66155" lon="7.10873">
        <ele>125.19999694824</ele>
        <time>2022-03-12T13:39:01.000Z</time>
      </trkpt>
      <trkpt lat="43.66155" lon="7.10874">
        <ele>126</ele>
        <time>2022-03-12T13:39:07.000Z</time>
      </trkpt>
      <trkpt lat="43.66153" lon="7.10876">
        <ele>125.80000305176</ele>
        <time>2022-03-12T13:39:10.000Z</time>
      </trkpt>
      <trkpt lat="43.66151" lon="7.10877">
        <ele>125.80000305176</ele>
        <time>2022-03-12T13:39:12.000Z</time>
      </trkpt>
      <trkpt lat="43.66147" lon="7.10882">
        <ele>126.19999694824</ele>
        <time>2022-03-12T13:39:17.000Z</time>
      </trkpt>
      <trkpt lat="43.66143" lon="7.10897">
        <ele>125.19999694824</ele>
        <time>2022-03-12T13:39:21.000Z</time>
      </trkpt>
      <trkpt lat="43.66141" lon="7.10902">
        <ele>124.59999847412</ele>
        <time>2022-03-12T13:39:22.000Z</time>
      </trkpt>
      <trkpt lat="43.66137" lon="7.10907">
        <ele>123.59999847412</ele>
        <time>2022-03-12T13:39:24.000Z</time>
      </trkpt>
      <trkpt lat="43.66135" lon="7.10906">
        <ele>123.19999694824</ele>
        <time>2022-03-12T13:39:25.000Z</time>
      </trkpt>
      <trkpt lat="43.66134" lon="7.10906">
        <ele>122.40000152588</ele>
        <time>2022-03-12T13:39:29.000Z</time>
      </trkpt>
      <trkpt lat="43.66134" lon="7.10906">
        <ele>122.19999694824</ele>
        <time>2022-03-12T13:39:32.000Z</time>
      </trkpt>
      <trkpt lat="43.66134" lon="7.10906">
        <ele>122.19999694824</ele>
        <time>2022-03-12T13:39:54.000Z</time>
      </trkpt>
      <trkpt lat="43.66134" lon="7.10905">
        <ele>122.59999847412</ele>
        <time>2022-03-12T13:40:15.000Z</time>
      </trkpt>
      <trkpt lat="43.66135" lon="7.10904">
        <ele>123</ele>
        <time>2022-03-12T13:40:27.000Z</time>
      </trkpt>
      <trkpt lat="43.66135" lon="7.10904">
        <ele>123.19999694824</ele>
        <time>2022-03-12T13:40:28.000Z</time>
      </trkpt>
      <trkpt lat="43.66134" lon="7.10906">
        <ele>123.19999694824</ele>
        <time>2022-03-12T13:40:31.000Z</time>
      </trkpt>
      <trkpt lat="43.66134" lon="7.10906">
        <ele>123</ele>
        <time>2022-03-12T13:40:32.000Z</time>
      </trkpt>
      <trkpt lat="43.66134" lon="7.10906">
        <ele>123</ele>
        <time>2022-03-12T13:40:39.000Z</time>
      </trkpt>
      <trkpt lat="43.66135" lon="7.10906">
        <ele>122.80000305176</ele>
        <time>2022-03-12T13:40:53.000Z</time>
      </trkpt>
      <trkpt lat="43.66135" lon="7.10906">
        <ele>122.40000152588</ele>
        <time>2022-03-12T13:41:04.000Z</time>
      </trkpt>
      <trkpt lat="43.66133" lon="7.10912">
        <ele>123.40000152588</ele>
        <time>2022-03-12T13:41:11.000Z</time>
      </trkpt>
      <trkpt lat="43.66127" lon="7.10923">
        <ele>122.19999694824</ele>
        <time>2022-03-12T13:41:15.000Z</time>
      </trkpt>
      <trkpt lat="43.66124" lon="7.10925">
        <ele>122</ele>
        <time>2022-03-12T13:41:16.000Z</time>
      </trkpt>
      <trkpt lat="43.66116" lon="7.10937">
        <ele>121</ele>
        <time>2022-03-12T13:41:19.000Z</time>
      </trkpt>
      <trkpt lat="43.66115" lon="7.10942">
        <ele>120.40000152588</ele>
        <time>2022-03-12T13:41:20.000Z</time>
      </trkpt>
      <trkpt lat="43.66113" lon="7.10948">
        <ele>119.59999847412</ele>
        <time>2022-03-12T13:41:21.000Z</time>
      </trkpt>
      <trkpt lat="43.66112" lon="7.10956">
        <ele>118.40000152588</ele>
        <time>2022-03-12T13:41:23.000Z</time>
      </trkpt>
      <trkpt lat="43.66112" lon="7.10955">
        <ele>117.80000305176</ele>
        <time>2022-03-12T13:41:24.000Z</time>
      </trkpt>
      <trkpt lat="43.66112" lon="7.10955">
        <ele>117.19999694824</ele>
        <time>2022-03-12T13:41:25.000Z</time>
      </trkpt>
      <trkpt lat="43.66112" lon="7.10957">
        <ele>116.59999847412</ele>
        <time>2022-03-12T13:41:29.000Z</time>
      </trkpt>
      <trkpt lat="43.66104" lon="7.10973">
        <ele>116.59999847412</ele>
        <time>2022-03-12T13:41:33.000Z</time>
      </trkpt>
      <trkpt lat="43.66098" lon="7.10983">
        <ele>116.59999847412</ele>
        <time>2022-03-12T13:41:35.000Z</time>
      </trkpt>
      <trkpt lat="43.66094" lon="7.10988">
        <ele>116</ele>
        <time>2022-03-12T13:41:36.000Z</time>
      </trkpt>
      <trkpt lat="43.66092" lon="7.10994">
        <ele>115.19999694824</ele>
        <time>2022-03-12T13:41:37.000Z</time>
      </trkpt>
      <trkpt lat="43.66086" lon="7.11007">
        <ele>114.40000152588</ele>
        <time>2022-03-12T13:41:39.000Z</time>
      </trkpt>
      <trkpt lat="43.66083" lon="7.11013">
        <ele>113.80000305176</ele>
        <time>2022-03-12T13:41:40.000Z</time>
      </trkpt>
      <trkpt lat="43.6608" lon="7.1102">
        <ele>113.40000152588</ele>
        <time>2022-03-12T13:41:41.000Z</time>
      </trkpt>
      <trkpt lat="43.66078" lon="7.11027">
        <ele>112.59999847412</ele>
        <time>2022-03-12T13:41:42.000Z</time>
      </trkpt>
      <trkpt lat="43.66076" lon="7.11032">
        <ele>111.80000305176</ele>
        <time>2022-03-12T13:41:43.000Z</time>
      </trkpt>
      <trkpt lat="43.66072" lon="7.11034">
        <ele>110.80000305176</ele>
        <time>2022-03-12T13:41:44.000Z</time>
      </trkpt>
      <trkpt lat="43.66071" lon="7.11037">
        <ele>110.40000152588</ele>
        <time>2022-03-12T13:41:45.000Z</time>
      </trkpt>
      <trkpt lat="43.66066" lon="7.11053">
        <ele>109.80000305176</ele>
        <time>2022-03-12T13:41:48.000Z</time>
      </trkpt>
      <trkpt lat="43.66057" lon="7.11061">
        <ele>109.59999847412</ele>
        <time>2022-03-12T13:41:51.000Z</time>
      </trkpt>
      <trkpt lat="43.66054" lon="7.11064">
        <ele>109.40000152588</ele>
        <time>2022-03-12T13:41:52.000Z</time>
      </trkpt>
      <trkpt lat="43.66047" lon="7.11071">
        <ele>108.40000152588</ele>
        <time>2022-03-12T13:41:54.000Z</time>
      </trkpt>
      <trkpt lat="43.66043" lon="7.1108">
        <ele>107.40000152588</ele>
        <time>2022-03-12T13:41:56.000Z</time>
      </trkpt>
      <trkpt lat="43.66043" lon="7.11084">
        <ele>106.80000305176</ele>
        <time>2022-03-12T13:41:57.000Z</time>
      </trkpt>
      <trkpt lat="43.66042" lon="7.1109">
        <ele>106.19999694824</ele>
        <time>2022-03-12T13:41:58.000Z</time>
      </trkpt>
      <trkpt lat="43.66036" lon="7.11094">
        <ele>105.59999847412</ele>
        <time>2022-03-12T13:42:00.000Z</time>
      </trkpt>
      <trkpt lat="43.66033" lon="7.11094">
        <ele>105.19999694824</ele>
        <time>2022-03-12T13:42:02.000Z</time>
      </trkpt>
      <trkpt lat="43.66035" lon="7.11095">
        <ele>105</ele>
        <time>2022-03-12T13:42:03.000Z</time>
      </trkpt>
      <trkpt lat="43.66035" lon="7.11097">
        <ele>104.59999847412</ele>
        <time>2022-03-12T13:42:07.000Z</time>
      </trkpt>
      <trkpt lat="43.66035" lon="7.11097">
        <ele>104.80000305176</ele>
        <time>2022-03-12T13:42:14.000Z</time>
      </trkpt>
      <trkpt lat="43.66035" lon="7.11098">
        <ele>104.19999694824</ele>
        <time>2022-03-12T13:42:22.000Z</time>
      </trkpt>
      <trkpt lat="43.66034" lon="7.11096">
        <ele>103.59999847412</ele>
        <time>2022-03-12T13:42:35.000Z</time>
      </trkpt>
      <trkpt lat="43.66031" lon="7.11094">
        <ele>103.80000305176</ele>
        <time>2022-03-12T13:42:41.000Z</time>
      </trkpt>
      <trkpt lat="43.66029" lon="7.11093">
        <ele>103.59999847412</ele>
        <time>2022-03-12T13:42:48.000Z</time>
      </trkpt>
      <trkpt lat="43.66029" lon="7.11093">
        <ele>104.19999694824</ele>
        <time>2022-03-12T13:42:52.000Z</time>
      </trkpt>
      <trkpt lat="43.66029" lon="7.11093">
        <ele>103.59999847412</ele>
        <time>2022-03-12T13:42:59.000Z</time>
      </trkpt>
      <trkpt lat="43.66029" lon="7.11093">
        <ele>103.59999847412</ele>
        <time>2022-03-12T13:43:12.000Z</time>
      </trkpt>
      <trkpt lat="43.66029" lon="7.11093">
        <ele>103.59999847412</ele>
        <time>2022-03-12T13:43:20.000Z</time>
      </trkpt>
      <trkpt lat="43.66029" lon="7.11093">
        <ele>103.19999694824</ele>
        <time>2022-03-12T13:43:27.000Z</time>
      </trkpt>
      <trkpt lat="43.66029" lon="7.11093">
        <ele>103</ele>
        <time>2022-03-12T13:43:28.000Z</time>
      </trkpt>
      <trkpt lat="43.66029" lon="7.11093">
        <ele>103.59999847412</ele>
        <time>2022-03-12T13:43:37.000Z</time>
      </trkpt>
      <trkpt lat="43.6603" lon="7.11093">
        <ele>103.40000152588</ele>
        <time>2022-03-12T13:43:44.000Z</time>
      </trkpt>
      <trkpt lat="43.66031" lon="7.11093">
        <ele>103.80000305176</ele>
        <time>2022-03-12T13:43:51.000Z</time>
      </trkpt>
      <trkpt lat="43.66034" lon="7.11094">
        <ele>104.19999694824</ele>
        <time>2022-03-12T13:43:55.000Z</time>
      </trkpt>
      <trkpt lat="43.66035" lon="7.11094">
        <ele>104.59999847412</ele>
        <time>2022-03-12T13:43:57.000Z</time>
      </trkpt>
      <trkpt lat="43.66033" lon="7.11094">
        <ele>104.80000305176</ele>
        <time>2022-03-12T13:44:00.000Z</time>
      </trkpt>
      <trkpt lat="43.66032" lon="7.11094">
        <ele>104.80000305176</ele>
        <time>2022-03-12T13:44:01.000Z</time>
      </trkpt>
      <trkpt lat="43.66025" lon="7.11094">
        <ele>104.59999847412</ele>
        <time>2022-03-12T13:44:04.000Z</time>
      </trkpt>
      <trkpt lat="43.66023" lon="7.11097">
        <ele>104.59999847412</ele>
        <time>2022-03-12T13:44:05.000Z</time>
      </trkpt>
      <trkpt lat="43.66015" lon="7.11113">
        <ele>103</ele>
        <time>2022-03-12T13:44:10.000Z</time>
      </trkpt>
      <trkpt lat="43.66007" lon="7.11128">
        <ele>102.59999847412</ele>
        <time>2022-03-12T13:44:13.000Z</time>
      </trkpt>
      <trkpt lat="43.66004" lon="7.11134">
        <ele>102.19999694824</ele>
        <time>2022-03-12T13:44:14.000Z</time>
      </trkpt>
      <trkpt lat="43.66001" lon="7.11138">
        <ele>101.80000305176</ele>
        <time>2022-03-12T13:44:15.000Z</time>
      </trkpt>
      <trkpt lat="43.65997" lon="7.11145">
        <ele>100.80000305176</ele>
        <time>2022-03-12T13:44:17.000Z</time>
      </trkpt>
      <trkpt lat="43.65997" lon="7.11149">
        <ele>100.19999694824</ele>
        <time>2022-03-12T13:44:18.000Z</time>
      </trkpt>
      <trkpt lat="43.65998" lon="7.11153">
        <ele>99.800003051758</ele>
        <time>2022-03-12T13:44:19.000Z</time>
      </trkpt>
      <trkpt lat="43.65998" lon="7.11159">
        <ele>99.599998474121</ele>
        <time>2022-03-12T13:44:20.000Z</time>
      </trkpt>
      <trkpt lat="43.65996" lon="7.11165">
        <ele>99.400001525879</ele>
        <time>2022-03-12T13:44:21.000Z</time>
      </trkpt>
      <trkpt lat="43.65995" lon="7.11171">
        <ele>98.599998474121</ele>
        <time>2022-03-12T13:44:22.000Z</time>
      </trkpt>
      <trkpt lat="43.65994" lon="7.11176">
        <ele>98.199996948242</ele>
        <time>2022-03-12T13:44:23.000Z</time>
      </trkpt>
      <trkpt lat="43.65992" lon="7.11185">
        <ele>97.199996948242</ele>
        <time>2022-03-12T13:44:25.000Z</time>
      </trkpt>
      <trkpt lat="43.65989" lon="7.11194">
        <ele>96.599998474121</ele>
        <time>2022-03-12T13:44:27.000Z</time>
      </trkpt>
      <trkpt lat="43.65991" lon="7.11196">
        <ele>96.199996948242</ele>
        <time>2022-03-12T13:44:28.000Z</time>
      </trkpt>
      <trkpt lat="43.6599" lon="7.11206">
        <ele>95</ele>
        <time>2022-03-12T13:44:30.000Z</time>
      </trkpt>
      <trkpt lat="43.65981" lon="7.11207">
        <ele>94</ele>
        <time>2022-03-12T13:44:32.000Z</time>
      </trkpt>
      <trkpt lat="43.65975" lon="7.11208">
        <ele>92.800003051758</ele>
        <time>2022-03-12T13:44:34.000Z</time>
      </trkpt>
      <trkpt lat="43.65975" lon="7.11214">
        <ele>92.599998474121</ele>
        <time>2022-03-12T13:44:36.000Z</time>
      </trkpt>
      <trkpt lat="43.65976" lon="7.11221">
        <ele>91.599998474121</ele>
        <time>2022-03-12T13:44:38.000Z</time>
      </trkpt>
      <trkpt lat="43.65979" lon="7.11225">
        <ele>91.599998474121</ele>
        <time>2022-03-12T13:44:40.000Z</time>
      </trkpt>
      <trkpt lat="43.6598" lon="7.1123">
        <ele>90.599998474121</ele>
        <time>2022-03-12T13:44:44.000Z</time>
      </trkpt>
      <trkpt lat="43.65979" lon="7.1124">
        <ele>89.199996948242</ele>
        <time>2022-03-12T13:44:47.000Z</time>
      </trkpt>
      <trkpt lat="43.65977" lon="7.11245">
        <ele>88.800003051758</ele>
        <time>2022-03-12T13:44:48.000Z</time>
      </trkpt>
      <trkpt lat="43.65974" lon="7.11248">
        <ele>88.199996948242</ele>
        <time>2022-03-12T13:44:49.000Z</time>
      </trkpt>
      <trkpt lat="43.65973" lon="7.1125">
        <ele>87.599998474121</ele>
        <time>2022-03-12T13:44:50.000Z</time>
      </trkpt>
      <trkpt lat="43.65971" lon="7.11253">
        <ele>86.800003051758</ele>
        <time>2022-03-12T13:44:51.000Z</time>
      </trkpt>
      <trkpt lat="43.65964" lon="7.11259">
        <ele>85.800003051758</ele>
        <time>2022-03-12T13:44:53.000Z</time>
      </trkpt>
      <trkpt lat="43.6596" lon="7.11262">
        <ele>85.800003051758</ele>
        <time>2022-03-12T13:44:54.000Z</time>
      </trkpt>
      <trkpt lat="43.65959" lon="7.1127">
        <ele>85</ele>
        <time>2022-03-12T13:44:56.000Z</time>
      </trkpt>
      <trkpt lat="43.65961" lon="7.11273">
        <ele>84.599998474121</ele>
        <time>2022-03-12T13:44:57.000Z</time>
      </trkpt>
      <trkpt lat="43.65964" lon="7.11291">
        <ele>83.599998474121</ele>
        <time>2022-03-12T13:45:00.000Z</time>
      </trkpt>
      <trkpt lat="43.65964" lon="7.11298">
        <ele>83.199996948242</ele>
        <time>2022-03-12T13:45:01.000Z</time>
      </trkpt>
      <trkpt lat="43.6596" lon="7.11309">
        <ele>82.800003051758</ele>
        <time>2022-03-12T13:45:03.000Z</time>
      </trkpt>
      <trkpt lat="43.65958" lon="7.11325">
        <ele>82.199996948242</ele>
        <time>2022-03-12T13:45:06.000Z</time>
      </trkpt>
      <trkpt lat="43.65957" lon="7.11329">
        <ele>82</ele>
        <time>2022-03-12T13:45:07.000Z</time>
      </trkpt>
      <trkpt lat="43.65951" lon="7.1134">
        <ele>80.800003051758</ele>
        <time>2022-03-12T13:45:10.000Z</time>
      </trkpt>
      <trkpt lat="43.65949" lon="7.11344">
        <ele>80.199996948242</ele>
        <time>2022-03-12T13:45:11.000Z</time>
      </trkpt>
      <trkpt lat="43.65947" lon="7.1135">
        <ele>79.400001525879</ele>
        <time>2022-03-12T13:45:12.000Z</time>
      </trkpt>
      <trkpt lat="43.65943" lon="7.11356">
        <ele>78.400001525879</ele>
        <time>2022-03-12T13:45:14.000Z</time>
      </trkpt>
      <trkpt lat="43.65941" lon="7.11359">
        <ele>77.800003051758</ele>
        <time>2022-03-12T13:45:15.000Z</time>
      </trkpt>
      <trkpt lat="43.65937" lon="7.11368">
        <ele>77.599998474121</ele>
        <time>2022-03-12T13:45:19.000Z</time>
      </trkpt>
      <trkpt lat="43.65934" lon="7.11386">
        <ele>77.199996948242</ele>
        <time>2022-03-12T13:45:22.000Z</time>
      </trkpt>
      <trkpt lat="43.65934" lon="7.11392">
        <ele>77.199996948242</ele>
        <time>2022-03-12T13:45:23.000Z</time>
      </trkpt>
      <trkpt lat="43.65929" lon="7.11408">
        <ele>76.199996948242</ele>
        <time>2022-03-12T13:45:26.000Z</time>
      </trkpt>
      <trkpt lat="43.65928" lon="7.11416">
        <ele>75.199996948242</ele>
        <time>2022-03-12T13:45:28.000Z</time>
      </trkpt>
      <trkpt lat="43.65924" lon="7.11438">
        <ele>74.199996948242</ele>
        <time>2022-03-12T13:45:33.000Z</time>
      </trkpt>
      <trkpt lat="43.65921" lon="7.11441">
        <ele>74</ele>
        <time>2022-03-12T13:45:34.000Z</time>
      </trkpt>
      <trkpt lat="43.65918" lon="7.11448">
        <ele>73.599998474121</ele>
        <time>2022-03-12T13:45:36.000Z</time>
      </trkpt>
      <trkpt lat="43.65918" lon="7.11451">
        <ele>73.400001525879</ele>
        <time>2022-03-12T13:45:37.000Z</time>
      </trkpt>
      <trkpt lat="43.65918" lon="7.11461">
        <ele>73.199996948242</ele>
        <time>2022-03-12T13:45:39.000Z</time>
      </trkpt>
      <trkpt lat="43.65919" lon="7.11466">
        <ele>73.199996948242</ele>
        <time>2022-03-12T13:45:40.000Z</time>
      </trkpt>
      <trkpt lat="43.65918" lon="7.11473">
        <ele>72.800003051758</ele>
        <time>2022-03-12T13:45:41.000Z</time>
      </trkpt>
      <trkpt lat="43.65917" lon="7.11487">
        <ele>72.400001525879</ele>
        <time>2022-03-12T13:45:43.000Z</time>
      </trkpt>
      <trkpt lat="43.65915" lon="7.11493">
        <ele>72.199996948242</ele>
        <time>2022-03-12T13:45:44.000Z</time>
      </trkpt>
      <trkpt lat="43.65914" lon="7.11509">
        <ele>72.400001525879</ele>
        <time>2022-03-12T13:45:47.000Z</time>
      </trkpt>
      <trkpt lat="43.65914" lon="7.11515">
        <ele>72.400001525879</ele>
        <time>2022-03-12T13:45:48.000Z</time>
      </trkpt>
      <trkpt lat="43.6591" lon="7.11523">
        <ele>73</ele>
        <time>2022-03-12T13:45:50.000Z</time>
      </trkpt>
      <trkpt lat="43.65907" lon="7.11528">
        <ele>73.400001525879</ele>
        <time>2022-03-12T13:45:51.000Z</time>
      </trkpt>
      <trkpt lat="43.65906" lon="7.11533">
        <ele>73.599998474121</ele>
        <time>2022-03-12T13:45:52.000Z</time>
      </trkpt>
      <trkpt lat="43.65901" lon="7.11547">
        <ele>74.199996948242</ele>
        <time>2022-03-12T13:45:55.000Z</time>
      </trkpt>
      <trkpt lat="43.65896" lon="7.11566">
        <ele>73</ele>
        <time>2022-03-12T13:45:59.000Z</time>
      </trkpt>
      <trkpt lat="43.65895" lon="7.11571">
        <ele>73.199996948242</ele>
        <time>2022-03-12T13:46:00.000Z</time>
      </trkpt>
      <trkpt lat="43.65893" lon="7.11584">
        <ele>72.199996948242</ele>
        <time>2022-03-12T13:46:02.000Z</time>
      </trkpt>
      <trkpt lat="43.65892" lon="7.11595">
        <ele>72</ele>
        <time>2022-03-12T13:46:04.000Z</time>
      </trkpt>
      <trkpt lat="43.65891" lon="7.11599">
        <ele>71.599998474121</ele>
        <time>2022-03-12T13:46:05.000Z</time>
      </trkpt>
      <trkpt lat="43.65888" lon="7.11622">
        <ele>71.400001525879</ele>
        <time>2022-03-12T13:46:10.000Z</time>
      </trkpt>
      <trkpt lat="43.65887" lon="7.11629">
        <ele>70.599998474121</ele>
        <time>2022-03-12T13:46:11.000Z</time>
      </trkpt>
      <trkpt lat="43.65885" lon="7.11635">
        <ele>70.400001525879</ele>
        <time>2022-03-12T13:46:12.000Z</time>
      </trkpt>
      <trkpt lat="43.65882" lon="7.1164">
        <ele>70.199996948242</ele>
        <time>2022-03-12T13:46:13.000Z</time>
      </trkpt>
      <trkpt lat="43.65879" lon="7.11646">
        <ele>69.599998474121</ele>
        <time>2022-03-12T13:46:14.000Z</time>
      </trkpt>
      <trkpt lat="43.65876" lon="7.11651">
        <ele>69</ele>
        <time>2022-03-12T13:46:17.000Z</time>
      </trkpt>
      <trkpt lat="43.65876" lon="7.11651">
        <ele>68.199996948242</ele>
        <time>2022-03-12T13:46:19.000Z</time>
      </trkpt>
      <trkpt lat="43.65875" lon="7.11653">
        <ele>67</ele>
        <time>2022-03-12T13:46:23.000Z</time>
      </trkpt>
      <trkpt lat="43.65874" lon="7.11655">
        <ele>66</ele>
        <time>2022-03-12T13:46:29.000Z</time>
      </trkpt>
      <trkpt lat="43.65873" lon="7.11657">
        <ele>65.800003051758</ele>
        <time>2022-03-12T13:46:34.000Z</time>
      </trkpt>
      <trkpt lat="43.65873" lon="7.11659">
        <ele>65.800003051758</ele>
        <time>2022-03-12T13:46:35.000Z</time>
      </trkpt>
      <trkpt lat="43.65869" lon="7.11667">
        <ele>65.400001525879</ele>
        <time>2022-03-12T13:46:38.000Z</time>
      </trkpt>
      <trkpt lat="43.65857" lon="7.11681">
        <ele>65.199996948242</ele>
        <time>2022-03-12T13:46:42.000Z</time>
      </trkpt>
      <trkpt lat="43.65851" lon="7.11694">
        <ele>64.400001525879</ele>
        <time>2022-03-12T13:46:45.000Z</time>
      </trkpt>
      <trkpt lat="43.65847" lon="7.11701">
        <ele>64.199996948242</ele>
        <time>2022-03-12T13:46:48.000Z</time>
      </trkpt>
      <trkpt lat="43.65838" lon="7.11713">
        <ele>65.199996948242</ele>
        <time>2022-03-12T13:46:52.000Z</time>
      </trkpt>
      <trkpt lat="43.65828" lon="7.11719">
        <ele>65.599998474121</ele>
        <time>2022-03-12T13:46:54.000Z</time>
      </trkpt>
      <trkpt lat="43.65818" lon="7.11716">
        <ele>65.800003051758</ele>
        <time>2022-03-12T13:46:56.000Z</time>
      </trkpt>
      <trkpt lat="43.6581" lon="7.11717">
        <ele>65.400001525879</ele>
        <time>2022-03-12T13:46:58.000Z</time>
      </trkpt>
      <trkpt lat="43.65807" lon="7.11722">
        <ele>64.599998474121</ele>
        <time>2022-03-12T13:47:00.000Z</time>
      </trkpt>
      <trkpt lat="43.65804" lon="7.11726">
        <ele>64</ele>
        <time>2022-03-12T13:47:01.000Z</time>
      </trkpt>
      <trkpt lat="43.65801" lon="7.11727">
        <ele>63</ele>
        <time>2022-03-12T13:47:02.000Z</time>
      </trkpt>
      <trkpt lat="43.65793" lon="7.11728">
        <ele>61.599998474121</ele>
        <time>2022-03-12T13:47:04.000Z</time>
      </trkpt>
      <trkpt lat="43.6579" lon="7.1173">
        <ele>60.400001525879</ele>
        <time>2022-03-12T13:47:05.000Z</time>
      </trkpt>
      <trkpt lat="43.65784" lon="7.11741">
        <ele>59</ele>
        <time>2022-03-12T13:47:07.000Z</time>
      </trkpt>
      <trkpt lat="43.65781" lon="7.1175">
        <ele>57.200000762939</ele>
        <time>2022-03-12T13:47:09.000Z</time>
      </trkpt>
      <trkpt lat="43.65778" lon="7.11752">
        <ele>56.799999237061</ele>
        <time>2022-03-12T13:47:10.000Z</time>
      </trkpt>
      <trkpt lat="43.65774" lon="7.11754">
        <ele>56.599998474121</ele>
        <time>2022-03-12T13:47:11.000Z</time>
      </trkpt>
      <trkpt lat="43.65773" lon="7.11757">
        <ele>56</ele>
        <time>2022-03-12T13:47:12.000Z</time>
      </trkpt>
      <trkpt lat="43.65772" lon="7.11761">
        <ele>55.400001525879</ele>
        <time>2022-03-12T13:47:14.000Z</time>
      </trkpt>
      <trkpt lat="43.65772" lon="7.11761">
        <ele>54.799999237061</ele>
        <time>2022-03-12T13:47:15.000Z</time>
      </trkpt>
      <trkpt lat="43.65771" lon="7.11764">
        <ele>53.799999237061</ele>
        <time>2022-03-12T13:47:18.000Z</time>
      </trkpt>
      <trkpt lat="43.65771" lon="7.11767">
        <ele>53.599998474121</ele>
        <time>2022-03-12T13:47:19.000Z</time>
      </trkpt>
      <trkpt lat="43.65769" lon="7.11776">
        <ele>53</ele>
        <time>2022-03-12T13:47:22.000Z</time>
      </trkpt>
      <trkpt lat="43.65765" lon="7.11784">
        <ele>52.599998474121</ele>
        <time>2022-03-12T13:47:24.000Z</time>
      </trkpt>
      <trkpt lat="43.65763" lon="7.11792">
        <ele>51.599998474121</ele>
        <time>2022-03-12T13:47:26.000Z</time>
      </trkpt>
      <trkpt lat="43.65762" lon="7.11795">
        <ele>51</ele>
        <time>2022-03-12T13:47:27.000Z</time>
      </trkpt>
      <trkpt lat="43.6576" lon="7.11801">
        <ele>49.400001525879</ele>
        <time>2022-03-12T13:47:29.000Z</time>
      </trkpt>
      <trkpt lat="43.65758" lon="7.11805">
        <ele>48.200000762939</ele>
        <time>2022-03-12T13:47:31.000Z</time>
      </trkpt>
      <trkpt lat="43.65756" lon="7.11805">
        <ele>47.599998474121</ele>
        <time>2022-03-12T13:47:32.000Z</time>
      </trkpt>
      <trkpt lat="43.65754" lon="7.11807">
        <ele>47.200000762939</ele>
        <time>2022-03-12T13:47:33.000Z</time>
      </trkpt>
      <trkpt lat="43.65751" lon="7.11808">
        <ele>46.200000762939</ele>
        <time>2022-03-12T13:47:35.000Z</time>
      </trkpt>
      <trkpt lat="43.65751" lon="7.1181">
        <ele>45.799999237061</ele>
        <time>2022-03-12T13:47:36.000Z</time>
      </trkpt>
      <trkpt lat="43.65751" lon="7.1181">
        <ele>44.400001525879</ele>
        <time>2022-03-12T13:47:38.000Z</time>
      </trkpt>
      <trkpt lat="43.65751" lon="7.11812">
        <ele>43.200000762939</ele>
        <time>2022-03-12T13:47:39.000Z</time>
      </trkpt>
      <trkpt lat="43.65751" lon="7.11814">
        <ele>41.599998474121</ele>
        <time>2022-03-12T13:47:41.000Z</time>
      </trkpt>
      <trkpt lat="43.65751" lon="7.11817">
        <ele>40.799999237061</ele>
        <time>2022-03-12T13:47:42.000Z</time>
      </trkpt>
      <trkpt lat="43.6575" lon="7.1182">
        <ele>40.599998474121</ele>
        <time>2022-03-12T13:47:43.000Z</time>
      </trkpt>
      <trkpt lat="43.6575" lon="7.11823">
        <ele>40.400001525879</ele>
        <time>2022-03-12T13:47:44.000Z</time>
      </trkpt>
      <trkpt lat="43.65749" lon="7.11836">
        <ele>39</ele>
        <time>2022-03-12T13:47:48.000Z</time>
      </trkpt>
      <trkpt lat="43.65748" lon="7.11839">
        <ele>38.200000762939</ele>
        <time>2022-03-12T13:47:49.000Z</time>
      </trkpt>
      <trkpt lat="43.65748" lon="7.11843">
        <ele>37.599998474121</ele>
        <time>2022-03-12T13:47:51.000Z</time>
      </trkpt>
      <trkpt lat="43.65748" lon="7.11845">
        <ele>37.200000762939</ele>
        <time>2022-03-12T13:47:54.000Z</time>
      </trkpt>
      <trkpt lat="43.65748" lon="7.11845">
        <ele>36.200000762939</ele>
        <time>2022-03-12T13:47:57.000Z</time>
      </trkpt>
      <trkpt lat="43.65749" lon="7.11848">
        <ele>35.599998474121</ele>
        <time>2022-03-12T13:48:03.000Z</time>
      </trkpt>
      <trkpt lat="43.65748" lon="7.1185">
        <ele>35.200000762939</ele>
        <time>2022-03-12T13:48:07.000Z</time>
      </trkpt>
      <trkpt lat="43.65748" lon="7.1185">
        <ele>35</ele>
        <time>2022-03-12T13:48:08.000Z</time>
      </trkpt>
      <trkpt lat="43.65746" lon="7.11849">
        <ele>35</ele>
        <time>2022-03-12T13:48:14.000Z</time>
      </trkpt>
      <trkpt lat="43.65745" lon="7.11849">
        <ele>34.200000762939</ele>
        <time>2022-03-12T13:48:20.000Z</time>
      </trkpt>
      <trkpt lat="43.65745" lon="7.11849">
        <ele>34</ele>
        <time>2022-03-12T13:48:21.000Z</time>
      </trkpt>
      <trkpt lat="43.65744" lon="7.11849">
        <ele>32.799999237061</ele>
        <time>2022-03-12T13:48:26.000Z</time>
      </trkpt>
      <trkpt lat="43.65742" lon="7.11852">
        <ele>31.60000038147</ele>
        <time>2022-03-12T13:48:31.000Z</time>
      </trkpt>
      <trkpt lat="43.65742" lon="7.11852">
        <ele>31.39999961853</ele>
        <time>2022-03-12T13:48:32.000Z</time>
      </trkpt>
      <trkpt lat="43.65742" lon="7.11852">
        <ele>30.60000038147</ele>
        <time>2022-03-12T13:48:35.000Z</time>
      </trkpt>
      <trkpt lat="43.65739" lon="7.11853">
        <ele>30</ele>
        <time>2022-03-12T13:48:40.000Z</time>
      </trkpt>
      <trkpt lat="43.65739" lon="7.11853">
        <ele>29.60000038147</ele>
        <time>2022-03-12T13:48:42.000Z</time>
      </trkpt>
      <trkpt lat="43.65735" lon="7.11854">
        <ele>29</ele>
        <time>2022-03-12T13:48:45.000Z</time>
      </trkpt>
      <trkpt lat="43.65733" lon="7.11855">
        <ele>28.39999961853</ele>
        <time>2022-03-12T13:48:47.000Z</time>
      </trkpt>
      <trkpt lat="43.65727" lon="7.11853">
        <ele>27</ele>
        <time>2022-03-12T13:48:51.000Z</time>
      </trkpt>
      <trkpt lat="43.65724" lon="7.11853">
        <ele>26.39999961853</ele>
        <time>2022-03-12T13:48:53.000Z</time>
      </trkpt>
      <trkpt lat="43.65723" lon="7.11855">
        <ele>26</ele>
        <time>2022-03-12T13:48:54.000Z</time>
      </trkpt>
      <trkpt lat="43.65721" lon="7.11857">
        <ele>25.799999237061</ele>
        <time>2022-03-12T13:48:55.000Z</time>
      </trkpt>
      <trkpt lat="43.65715" lon="7.11862">
        <ele>25.200000762939</ele>
        <time>2022-03-12T13:48:58.000Z</time>
      </trkpt>
      <trkpt lat="43.65713" lon="7.11867">
        <ele>25</ele>
        <time>2022-03-12T13:49:00.000Z</time>
      </trkpt>
      <trkpt lat="43.65713" lon="7.11871">
        <ele>25</ele>
        <time>2022-03-12T13:49:01.000Z</time>
      </trkpt>
      <trkpt lat="43.65711" lon="7.11876">
        <ele>25.200000762939</ele>
        <time>2022-03-12T13:49:03.000Z</time>
      </trkpt>
      <trkpt lat="43.65708" lon="7.1188">
        <ele>25.39999961853</ele>
        <time>2022-03-12T13:49:06.000Z</time>
      </trkpt>
      <trkpt lat="43.65705" lon="7.11891">
        <ele>25.200000762939</ele>
        <time>2022-03-12T13:49:11.000Z</time>
      </trkpt>
      <trkpt lat="43.65695" lon="7.11899">
        <ele>25</ele>
        <time>2022-03-12T13:49:15.000Z</time>
      </trkpt>
      <trkpt lat="43.65688" lon="7.11914">
        <ele>25</ele>
        <time>2022-03-12T13:49:19.000Z</time>
      </trkpt>
      <trkpt lat="43.65683" lon="7.11936">
        <ele>24.60000038147</ele>
        <time>2022-03-12T13:49:26.000Z</time>
      </trkpt>
      <trkpt lat="43.6568" lon="7.11951">
        <ele>24.39999961853</ele>
        <time>2022-03-12T13:49:32.000Z</time>
      </trkpt>
      <trkpt lat="43.65674" lon="7.11974">
        <ele>24.799999237061</ele>
        <time>2022-03-12T13:49:37.000Z</time>
      </trkpt>
      <trkpt lat="43.65662" lon="7.11989">
        <ele>24.60000038147</ele>
        <time>2022-03-12T13:49:41.000Z</time>
      </trkpt>
      <trkpt lat="43.65656" lon="7.12008">
        <ele>24.200000762939</ele>
        <time>2022-03-12T13:49:45.000Z</time>
      </trkpt>
      <trkpt lat="43.65656" lon="7.12036">
        <ele>24</ele>
        <time>2022-03-12T13:49:50.000Z</time>
      </trkpt>
      <trkpt lat="43.65654" lon="7.12048">
        <ele>23.60000038147</ele>
        <time>2022-03-12T13:49:52.000Z</time>
      </trkpt>
      <trkpt lat="43.65651" lon="7.12059">
        <ele>22.799999237061</ele>
        <time>2022-03-12T13:49:54.000Z</time>
      </trkpt>
      <trkpt lat="43.65647" lon="7.1207">
        <ele>22.60000038147</ele>
        <time>2022-03-12T13:49:56.000Z</time>
      </trkpt>
      <trkpt lat="43.65634" lon="7.12104">
        <ele>22.200000762939</ele>
        <time>2022-03-12T13:50:02.000Z</time>
      </trkpt>
      <trkpt lat="43.65632" lon="7.12109">
        <ele>22</ele>
        <time>2022-03-12T13:50:03.000Z</time>
      </trkpt>
      <trkpt lat="43.6563" lon="7.1212">
        <ele>22.39999961853</ele>
        <time>2022-03-12T13:50:05.000Z</time>
      </trkpt>
      <trkpt lat="43.65627" lon="7.12137">
        <ele>23.60000038147</ele>
        <time>2022-03-12T13:50:08.000Z</time>
      </trkpt>
      <trkpt lat="43.65625" lon="7.12142">
        <ele>24.200000762939</ele>
        <time>2022-03-12T13:50:09.000Z</time>
      </trkpt>
      <trkpt lat="43.65619" lon="7.12184">
        <ele>23.799999237061</ele>
        <time>2022-03-12T13:50:16.000Z</time>
      </trkpt>
      <trkpt lat="43.65613" lon="7.12212">
        <ele>22.60000038147</ele>
        <time>2022-03-12T13:50:20.000Z</time>
      </trkpt>
      <trkpt lat="43.6561" lon="7.12227">
        <ele>21.799999237061</ele>
        <time>2022-03-12T13:50:22.000Z</time>
      </trkpt>
      <trkpt lat="43.65607" lon="7.12243">
        <ele>21.60000038147</ele>
        <time>2022-03-12T13:50:24.000Z</time>
      </trkpt>
      <trkpt lat="43.65606" lon="7.12251">
        <ele>21.60000038147</ele>
        <time>2022-03-12T13:50:25.000Z</time>
      </trkpt>
      <trkpt lat="43.65593" lon="7.12311">
        <ele>21</ele>
        <time>2022-03-12T13:50:33.000Z</time>
      </trkpt>
      <trkpt lat="43.65574" lon="7.12368">
        <ele>20.60000038147</ele>
        <time>2022-03-12T13:50:42.000Z</time>
      </trkpt>
      <trkpt lat="43.65568" lon="7.12381">
        <ele>20.60000038147</ele>
        <time>2022-03-12T13:50:44.000Z</time>
      </trkpt>
      <trkpt lat="43.65553" lon="7.12411">
        <ele>20.200000762939</ele>
        <time>2022-03-12T13:50:49.000Z</time>
      </trkpt>
      <trkpt lat="43.65552" lon="7.12419">
        <ele>19.799999237061</ele>
        <time>2022-03-12T13:50:50.000Z</time>
      </trkpt>
      <trkpt lat="43.65544" lon="7.12438">
        <ele>20.39999961853</ele>
        <time>2022-03-12T13:50:53.000Z</time>
      </trkpt>
      <trkpt lat="43.65505" lon="7.12483">
        <ele>20.60000038147</ele>
        <time>2022-03-12T13:51:02.000Z</time>
      </trkpt>
      <trkpt lat="43.65487" lon="7.12503">
        <ele>21</ele>
        <time>2022-03-12T13:51:06.000Z</time>
      </trkpt>
      <trkpt lat="43.65481" lon="7.12516">
        <ele>21.200000762939</ele>
        <time>2022-03-12T13:51:08.000Z</time>
      </trkpt>
      <trkpt lat="43.65473" lon="7.12527">
        <ele>20.799999237061</ele>
        <time>2022-03-12T13:51:10.000Z</time>
      </trkpt>
      <trkpt lat="43.65462" lon="7.1253">
        <ele>20.39999961853</ele>
        <time>2022-03-12T13:51:12.000Z</time>
      </trkpt>
      <trkpt lat="43.65453" lon="7.12537">
        <ele>20.39999961853</ele>
        <time>2022-03-12T13:51:14.000Z</time>
      </trkpt>
      <trkpt lat="43.65448" lon="7.12542">
        <ele>20.60000038147</ele>
        <time>2022-03-12T13:51:15.000Z</time>
      </trkpt>
      <trkpt lat="43.65439" lon="7.12551">
        <ele>21</ele>
        <time>2022-03-12T13:51:17.000Z</time>
      </trkpt>
      <trkpt lat="43.65412" lon="7.12578">
        <ele>20.799999237061</ele>
        <time>2022-03-12T13:51:23.000Z</time>
      </trkpt>
      <trkpt lat="43.65403" lon="7.12587">
        <ele>21</ele>
        <time>2022-03-12T13:51:25.000Z</time>
      </trkpt>
      <trkpt lat="43.6536" lon="7.12624">
        <ele>20</ele>
        <time>2022-03-12T13:51:34.000Z</time>
      </trkpt>
      <trkpt lat="43.65347" lon="7.12636">
        <ele>20</ele>
        <time>2022-03-12T13:51:37.000Z</time>
      </trkpt>
      <trkpt lat="43.65344" lon="7.12644">
        <ele>20.200000762939</ele>
        <time>2022-03-12T13:51:39.000Z</time>
      </trkpt>
      <trkpt lat="43.65346" lon="7.12649">
        <ele>20.200000762939</ele>
        <time>2022-03-12T13:51:40.000Z</time>
      </trkpt>
      <trkpt lat="43.65346" lon="7.1266">
        <ele>20.200000762939</ele>
        <time>2022-03-12T13:51:42.000Z</time>
      </trkpt>
      <trkpt lat="43.65338" lon="7.12666">
        <ele>19.60000038147</ele>
        <time>2022-03-12T13:51:44.000Z</time>
      </trkpt>
      <trkpt lat="43.65334" lon="7.12669">
        <ele>19.39999961853</ele>
        <time>2022-03-12T13:51:45.000Z</time>
      </trkpt>
      <trkpt lat="43.65311" lon="7.12694">
        <ele>18.799999237061</ele>
        <time>2022-03-12T13:51:51.000Z</time>
      </trkpt>
      <trkpt lat="43.65293" lon="7.12717">
        <ele>20.799999237061</ele>
        <time>2022-03-12T13:51:56.000Z</time>
      </trkpt>
      <trkpt lat="43.65283" lon="7.12731">
        <ele>21.200000762939</ele>
        <time>2022-03-12T13:51:59.000Z</time>
      </trkpt>
      <trkpt lat="43.65274" lon="7.12746">
        <ele>21</ele>
        <time>2022-03-12T13:52:02.000Z</time>
      </trkpt>
      <trkpt lat="43.65269" lon="7.12765">
        <ele>21.799999237061</ele>
        <time>2022-03-12T13:52:05.000Z</time>
      </trkpt>
      <trkpt lat="43.65268" lon="7.12771">
        <ele>22</ele>
        <time>2022-03-12T13:52:06.000Z</time>
      </trkpt>
      <trkpt lat="43.65264" lon="7.12791">
        <ele>22.799999237061</ele>
        <time>2022-03-12T13:52:09.000Z</time>
      </trkpt>
      <trkpt lat="43.65262" lon="7.12798">
        <ele>22.799999237061</ele>
        <time>2022-03-12T13:52:10.000Z</time>
      </trkpt>
      <trkpt lat="43.65248" lon="7.12826">
        <ele>21.60000038147</ele>
        <time>2022-03-12T13:52:15.000Z</time>
      </trkpt>
      <trkpt lat="43.65244" lon="7.1283">
        <ele>21.200000762939</ele>
        <time>2022-03-12T13:52:16.000Z</time>
      </trkpt>
      <trkpt lat="43.65234" lon="7.12834">
        <ele>21</ele>
        <time>2022-03-12T13:52:18.000Z</time>
      </trkpt>
      <trkpt lat="43.65224" lon="7.12835">
        <ele>20.60000038147</ele>
        <time>2022-03-12T13:52:20.000Z</time>
      </trkpt>
      <trkpt lat="43.65219" lon="7.12835">
        <ele>20.60000038147</ele>
        <time>2022-03-12T13:52:21.000Z</time>
      </trkpt>
      <trkpt lat="43.65207" lon="7.12844">
        <ele>20.200000762939</ele>
        <time>2022-03-12T13:52:24.000Z</time>
      </trkpt>
      <trkpt lat="43.65199" lon="7.12867">
        <ele>20</ele>
        <time>2022-03-12T13:52:28.000Z</time>
      </trkpt>
      <trkpt lat="43.652" lon="7.12874">
        <ele>20</ele>
        <time>2022-03-12T13:52:29.000Z</time>
      </trkpt>
      <trkpt lat="43.65205" lon="7.12886">
        <ele>20</ele>
        <time>2022-03-12T13:52:31.000Z</time>
      </trkpt>
      <trkpt lat="43.65205" lon="7.12899">
        <ele>20.200000762939</ele>
        <time>2022-03-12T13:52:33.000Z</time>
      </trkpt>
      <trkpt lat="43.65201" lon="7.12902">
        <ele>20.39999961853</ele>
        <time>2022-03-12T13:52:34.000Z</time>
      </trkpt>
      <trkpt lat="43.6519" lon="7.12902">
        <ele>20</ele>
        <time>2022-03-12T13:52:37.000Z</time>
      </trkpt>
      <trkpt lat="43.65188" lon="7.12898">
        <ele>20</ele>
        <time>2022-03-12T13:52:38.000Z</time>
      </trkpt>
      <trkpt lat="43.65186" lon="7.12893">
        <ele>20</ele>
        <time>2022-03-12T13:52:41.000Z</time>
      </trkpt>
      <trkpt lat="43.65184" lon="7.12894">
        <ele>20.39999961853</ele>
        <time>2022-03-12T13:52:45.000Z</time>
      </trkpt>
      <trkpt lat="43.65185" lon="7.12895">
        <ele>20.39999961853</ele>
        <time>2022-03-12T13:52:46.000Z</time>
      </trkpt>
      <trkpt lat="43.65188" lon="7.12896">
        <ele>20.39999961853</ele>
        <time>2022-03-12T13:52:51.000Z</time>
      </trkpt>
      <trkpt lat="43.65188" lon="7.12896">
        <ele>20.39999961853</ele>
        <time>2022-03-12T13:52:57.000Z</time>
      </trkpt>
      <trkpt lat="43.65188" lon="7.12895">
        <ele>20.39999961853</ele>
        <time>2022-03-12T13:53:02.000Z</time>
      </trkpt>
    </trkseg>
  </trk>
</gpx>